<?xml version="1.0" encoding="UTF-8" standalone="no" ?>
<gpx xmlns="http://www.topografix.com/GPX/1/1" xmlns:xsi="http://www.w3.org/2001/XMLSchema-instance" xsi:schemaLocation="http://www.topografix.com/GPX/1/1 http://www.topografix.com/GPX/1/1/gpx.xsd" version="1.1" creator="VisuGPX - https://www.visugpx.com">
  <metadata>
    <name>Cadières de Brandis</name>
    <desc><![CDATA[Parcours de difficulté moyenne (T3) dans un cadre sauvage et préservé sur les hauteurs du Verdon en aval de Castellane.]]></desc>
  </metadata>
  <trk>
    <name><![CDATA[Track2015/12/28_09:13]]></name>
    <trkseg>
      <trkpt lat="43.85014" lon="6.46518">
        <ele>1348.408936</ele>
        <time>2015-12-28T08:13:57.000Z</time>
      </trkpt>
      <trkpt lat="43.8501" lon="6.46539">
        <ele>1375.073486</ele>
        <time>2015-12-28T08:14:03.000Z</time>
      </trkpt>
      <trkpt lat="43.85007" lon="6.46548">
        <ele>1388.051147</ele>
        <time>2015-12-28T08:14:08.000Z</time>
      </trkpt>
      <trkpt lat="43.85003" lon="6.46559">
        <ele>1399.099976</ele>
        <time>2015-12-28T08:14:13.000Z</time>
      </trkpt>
      <trkpt lat="43.85001" lon="6.46561">
        <ele>1402.898315</ele>
        <time>2015-12-28T08:14:18.000Z</time>
      </trkpt>
      <trkpt lat="43.8501" lon="6.4655">
        <ele>1391.543945</ele>
        <time>2015-12-28T08:14:23.000Z</time>
      </trkpt>
      <trkpt lat="43.85024" lon="6.46536">
        <ele>1336.25647</ele>
        <time>2015-12-28T08:14:28.000Z</time>
      </trkpt>
      <trkpt lat="43.85024" lon="6.46535">
        <ele>1334.355347</ele>
        <time>2015-12-28T08:14:33.000Z</time>
      </trkpt>
      <trkpt lat="43.85024" lon="6.46535">
        <ele>1334.286255</ele>
        <time>2015-12-28T08:14:38.000Z</time>
      </trkpt>
      <trkpt lat="43.85024" lon="6.46535">
        <ele>1334.334595</ele>
        <time>2015-12-28T08:14:43.000Z</time>
      </trkpt>
      <trkpt lat="43.85024" lon="6.46535">
        <ele>1334.38623</ele>
        <time>2015-12-28T08:14:48.000Z</time>
      </trkpt>
      <trkpt lat="43.85024" lon="6.46535">
        <ele>1334.456665</ele>
        <time>2015-12-28T08:14:53.000Z</time>
      </trkpt>
      <trkpt lat="43.85024" lon="6.46535">
        <ele>1334.51355</ele>
        <time>2015-12-28T08:14:58.000Z</time>
      </trkpt>
      <trkpt lat="43.85024" lon="6.46535">
        <ele>1334.547485</ele>
        <time>2015-12-28T08:15:03.000Z</time>
      </trkpt>
      <trkpt lat="43.85024" lon="6.46535">
        <ele>1334.581909</ele>
        <time>2015-12-28T08:15:08.000Z</time>
      </trkpt>
      <trkpt lat="43.85024" lon="6.46535">
        <ele>1334.641113</ele>
        <time>2015-12-28T08:15:13.000Z</time>
      </trkpt>
      <trkpt lat="43.85024" lon="6.46535">
        <ele>1334.689697</ele>
        <time>2015-12-28T08:15:18.000Z</time>
      </trkpt>
      <trkpt lat="43.85024" lon="6.46535">
        <ele>1334.748047</ele>
        <time>2015-12-28T08:15:23.000Z</time>
      </trkpt>
      <trkpt lat="43.85024" lon="6.46535">
        <ele>1334.79541</ele>
        <time>2015-12-28T08:15:28.000Z</time>
      </trkpt>
      <trkpt lat="43.85024" lon="6.46535">
        <ele>1334.851563</ele>
        <time>2015-12-28T08:15:33.000Z</time>
      </trkpt>
      <trkpt lat="43.85024" lon="6.46535">
        <ele>1334.906006</ele>
        <time>2015-12-28T08:15:38.000Z</time>
      </trkpt>
      <trkpt lat="43.85024" lon="6.46535">
        <ele>1334.950806</ele>
        <time>2015-12-28T08:15:43.000Z</time>
      </trkpt>
      <trkpt lat="43.85025" lon="6.46535">
        <ele>1335.130493</ele>
        <time>2015-12-28T08:15:48.000Z</time>
      </trkpt>
      <trkpt lat="43.85025" lon="6.46536">
        <ele>1335.330688</ele>
        <time>2015-12-28T08:15:53.000Z</time>
      </trkpt>
      <trkpt lat="43.85025" lon="6.46537">
        <ele>1335.246704</ele>
        <time>2015-12-28T08:15:58.000Z</time>
      </trkpt>
      <trkpt lat="43.85024" lon="6.46537">
        <ele>1334.701416</ele>
        <time>2015-12-28T08:16:03.000Z</time>
      </trkpt>
      <trkpt lat="43.85024" lon="6.46536">
        <ele>1334.586548</ele>
        <time>2015-12-28T08:16:08.000Z</time>
      </trkpt>
      <trkpt lat="43.85023" lon="6.46535">
        <ele>1334.07251</ele>
        <time>2015-12-28T08:16:13.000Z</time>
      </trkpt>
      <trkpt lat="43.85023" lon="6.46535">
        <ele>1333.793701</ele>
        <time>2015-12-28T08:16:18.000Z</time>
      </trkpt>
      <trkpt lat="43.85023" lon="6.46535">
        <ele>1333.045776</ele>
        <time>2015-12-28T08:16:23.000Z</time>
      </trkpt>
      <trkpt lat="43.85024" lon="6.46535">
        <ele>1332.776489</ele>
        <time>2015-12-28T08:16:28.000Z</time>
      </trkpt>
      <trkpt lat="43.85024" lon="6.46535">
        <ele>1332.831421</ele>
        <time>2015-12-28T08:16:33.000Z</time>
      </trkpt>
      <trkpt lat="43.85024" lon="6.46535">
        <ele>1332.845825</ele>
        <time>2015-12-28T08:16:38.000Z</time>
      </trkpt>
      <trkpt lat="43.85024" lon="6.46535">
        <ele>1332.86499</ele>
        <time>2015-12-28T08:16:43.000Z</time>
      </trkpt>
      <trkpt lat="43.85024" lon="6.46535">
        <ele>1332.888428</ele>
        <time>2015-12-28T08:16:48.000Z</time>
      </trkpt>
      <trkpt lat="43.85024" lon="6.46535">
        <ele>1332.919189</ele>
        <time>2015-12-28T08:16:53.000Z</time>
      </trkpt>
      <trkpt lat="43.85024" lon="6.46535">
        <ele>1332.946655</ele>
        <time>2015-12-28T08:16:58.000Z</time>
      </trkpt>
      <trkpt lat="43.85024" lon="6.46535">
        <ele>1332.974731</ele>
        <time>2015-12-28T08:17:03.000Z</time>
      </trkpt>
      <trkpt lat="43.85024" lon="6.46535">
        <ele>1332.995728</ele>
        <time>2015-12-28T08:17:08.000Z</time>
      </trkpt>
      <trkpt lat="43.85024" lon="6.46535">
        <ele>1333.005371</ele>
        <time>2015-12-28T08:17:13.000Z</time>
      </trkpt>
      <trkpt lat="43.85024" lon="6.46535">
        <ele>1333.029419</ele>
        <time>2015-12-28T08:17:18.000Z</time>
      </trkpt>
      <trkpt lat="43.85024" lon="6.46535">
        <ele>1333.054077</ele>
        <time>2015-12-28T08:17:23.000Z</time>
      </trkpt>
      <trkpt lat="43.85024" lon="6.46535">
        <ele>1333.063232</ele>
        <time>2015-12-28T08:17:28.000Z</time>
      </trkpt>
      <trkpt lat="43.85024" lon="6.46535">
        <ele>1333.078857</ele>
        <time>2015-12-28T08:17:33.000Z</time>
      </trkpt>
      <trkpt lat="43.85024" lon="6.46535">
        <ele>1333.10022</ele>
        <time>2015-12-28T08:17:38.000Z</time>
      </trkpt>
      <trkpt lat="43.85024" lon="6.46535">
        <ele>1333.126709</ele>
        <time>2015-12-28T08:17:43.000Z</time>
      </trkpt>
      <trkpt lat="43.85024" lon="6.46535">
        <ele>1333.151001</ele>
        <time>2015-12-28T08:17:48.000Z</time>
      </trkpt>
      <trkpt lat="43.85024" lon="6.46535">
        <ele>1333.179688</ele>
        <time>2015-12-28T08:17:53.000Z</time>
      </trkpt>
      <trkpt lat="43.85024" lon="6.46535">
        <ele>1333.218018</ele>
        <time>2015-12-28T08:17:58.000Z</time>
      </trkpt>
      <trkpt lat="43.85024" lon="6.46535">
        <ele>1333.256226</ele>
        <time>2015-12-28T08:18:03.000Z</time>
      </trkpt>
      <trkpt lat="43.85024" lon="6.46535">
        <ele>1333.285278</ele>
        <time>2015-12-28T08:18:08.000Z</time>
      </trkpt>
      <trkpt lat="43.85024" lon="6.46535">
        <ele>1333.311768</ele>
        <time>2015-12-28T08:18:13.000Z</time>
      </trkpt>
      <trkpt lat="43.85024" lon="6.46535">
        <ele>1333.333008</ele>
        <time>2015-12-28T08:18:18.000Z</time>
      </trkpt>
      <trkpt lat="43.85024" lon="6.46535">
        <ele>1333.369141</ele>
        <time>2015-12-28T08:18:23.000Z</time>
      </trkpt>
      <trkpt lat="43.85024" lon="6.46536">
        <ele>1333.43689</ele>
        <time>2015-12-28T08:18:28.000Z</time>
      </trkpt>
      <trkpt lat="43.85024" lon="6.46536">
        <ele>1333.508789</ele>
        <time>2015-12-28T08:18:33.000Z</time>
      </trkpt>
      <trkpt lat="43.85024" lon="6.46536">
        <ele>1333.587891</ele>
        <time>2015-12-28T08:18:38.000Z</time>
      </trkpt>
      <trkpt lat="43.85024" lon="6.46536">
        <ele>1333.678833</ele>
        <time>2015-12-28T08:18:43.000Z</time>
      </trkpt>
      <trkpt lat="43.85024" lon="6.46536">
        <ele>1333.758789</ele>
        <time>2015-12-28T08:18:48.000Z</time>
      </trkpt>
      <trkpt lat="43.85024" lon="6.46536">
        <ele>1333.828857</ele>
        <time>2015-12-28T08:18:53.000Z</time>
      </trkpt>
      <trkpt lat="43.85024" lon="6.46536">
        <ele>1333.881592</ele>
        <time>2015-12-28T08:18:58.000Z</time>
      </trkpt>
      <trkpt lat="43.85024" lon="6.46536">
        <ele>1333.915039</ele>
        <time>2015-12-28T08:19:03.000Z</time>
      </trkpt>
      <trkpt lat="43.85024" lon="6.46536">
        <ele>1333.914795</ele>
        <time>2015-12-28T08:19:08.000Z</time>
      </trkpt>
      <trkpt lat="43.85024" lon="6.46536">
        <ele>1333.921997</ele>
        <time>2015-12-28T08:19:13.000Z</time>
      </trkpt>
      <trkpt lat="43.85024" lon="6.46536">
        <ele>1333.93396</ele>
        <time>2015-12-28T08:19:18.000Z</time>
      </trkpt>
      <trkpt lat="43.85025" lon="6.46534">
        <ele>1334.39978</ele>
        <time>2015-12-28T08:19:23.000Z</time>
      </trkpt>
      <trkpt lat="43.85025" lon="6.46532">
        <ele>1332.918335</ele>
        <time>2015-12-28T08:19:28.000Z</time>
      </trkpt>
      <trkpt lat="43.85025" lon="6.46532">
        <ele>1332.95105</ele>
        <time>2015-12-28T08:19:33.000Z</time>
      </trkpt>
      <trkpt lat="43.85025" lon="6.46532">
        <ele>1332.961304</ele>
        <time>2015-12-28T08:19:38.000Z</time>
      </trkpt>
      <trkpt lat="43.85025" lon="6.46532">
        <ele>1332.977783</ele>
        <time>2015-12-28T08:19:43.000Z</time>
      </trkpt>
      <trkpt lat="43.85025" lon="6.46532">
        <ele>1332.968384</ele>
        <time>2015-12-28T08:19:48.000Z</time>
      </trkpt>
      <trkpt lat="43.85025" lon="6.46532">
        <ele>1332.968018</ele>
        <time>2015-12-28T08:19:53.000Z</time>
      </trkpt>
      <trkpt lat="43.85025" lon="6.46532">
        <ele>1332.990356</ele>
        <time>2015-12-28T08:19:58.000Z</time>
      </trkpt>
      <trkpt lat="43.85025" lon="6.46532">
        <ele>1333.035278</ele>
        <time>2015-12-28T08:20:03.000Z</time>
      </trkpt>
      <trkpt lat="43.85025" lon="6.46532">
        <ele>1333.064209</ele>
        <time>2015-12-28T08:20:08.000Z</time>
      </trkpt>
      <trkpt lat="43.85025" lon="6.46532">
        <ele>1333.083252</ele>
        <time>2015-12-28T08:20:13.000Z</time>
      </trkpt>
      <trkpt lat="43.85025" lon="6.46532">
        <ele>1333.087036</ele>
        <time>2015-12-28T08:20:18.000Z</time>
      </trkpt>
      <trkpt lat="43.85025" lon="6.46532">
        <ele>1333.086548</ele>
        <time>2015-12-28T08:20:23.000Z</time>
      </trkpt>
      <trkpt lat="43.85025" lon="6.46532">
        <ele>1333.106445</ele>
        <time>2015-12-28T08:20:28.000Z</time>
      </trkpt>
      <trkpt lat="43.85025" lon="6.46532">
        <ele>1333.14856</ele>
        <time>2015-12-28T08:20:33.000Z</time>
      </trkpt>
      <trkpt lat="43.85025" lon="6.46532">
        <ele>1333.182739</ele>
        <time>2015-12-28T08:20:38.000Z</time>
      </trkpt>
      <trkpt lat="43.85025" lon="6.46532">
        <ele>1333.226196</ele>
        <time>2015-12-28T08:20:43.000Z</time>
      </trkpt>
      <trkpt lat="43.85025" lon="6.46532">
        <ele>1333.262207</ele>
        <time>2015-12-28T08:20:48.000Z</time>
      </trkpt>
      <trkpt lat="43.85025" lon="6.46532">
        <ele>1333.277588</ele>
        <time>2015-12-28T08:20:53.000Z</time>
      </trkpt>
      <trkpt lat="43.85025" lon="6.46532">
        <ele>1333.302002</ele>
        <time>2015-12-28T08:20:58.000Z</time>
      </trkpt>
      <trkpt lat="43.85025" lon="6.46532">
        <ele>1333.326904</ele>
        <time>2015-12-28T08:21:03.000Z</time>
      </trkpt>
      <trkpt lat="43.85025" lon="6.46532">
        <ele>1333.350708</ele>
        <time>2015-12-28T08:21:08.000Z</time>
      </trkpt>
      <trkpt lat="43.85024" lon="6.46532">
        <ele>1333.384521</ele>
        <time>2015-12-28T08:21:13.000Z</time>
      </trkpt>
      <trkpt lat="43.85024" lon="6.46532">
        <ele>1333.430054</ele>
        <time>2015-12-28T08:21:18.000Z</time>
      </trkpt>
      <trkpt lat="43.85024" lon="6.46532">
        <ele>1333.470703</ele>
        <time>2015-12-28T08:21:23.000Z</time>
      </trkpt>
      <trkpt lat="43.85024" lon="6.46532">
        <ele>1333.493774</ele>
        <time>2015-12-28T08:21:28.000Z</time>
      </trkpt>
      <trkpt lat="43.85024" lon="6.46532">
        <ele>1333.509155</ele>
        <time>2015-12-28T08:21:33.000Z</time>
      </trkpt>
      <trkpt lat="43.85024" lon="6.46532">
        <ele>1333.515991</ele>
        <time>2015-12-28T08:21:38.000Z</time>
      </trkpt>
      <trkpt lat="43.85024" lon="6.46533">
        <ele>1333.524658</ele>
        <time>2015-12-28T08:21:43.000Z</time>
      </trkpt>
      <trkpt lat="43.85024" lon="6.46533">
        <ele>1333.549805</ele>
        <time>2015-12-28T08:21:48.000Z</time>
      </trkpt>
      <trkpt lat="43.85024" lon="6.46533">
        <ele>1333.601563</ele>
        <time>2015-12-28T08:21:53.000Z</time>
      </trkpt>
      <trkpt lat="43.85024" lon="6.46533">
        <ele>1333.665649</ele>
        <time>2015-12-28T08:21:58.000Z</time>
      </trkpt>
      <trkpt lat="43.85024" lon="6.46533">
        <ele>1333.705078</ele>
        <time>2015-12-28T08:22:03.000Z</time>
      </trkpt>
      <trkpt lat="43.85024" lon="6.46533">
        <ele>1333.735962</ele>
        <time>2015-12-28T08:22:08.000Z</time>
      </trkpt>
      <trkpt lat="43.85024" lon="6.46533">
        <ele>1333.76416</ele>
        <time>2015-12-28T08:22:13.000Z</time>
      </trkpt>
      <trkpt lat="43.85024" lon="6.46533">
        <ele>1333.799561</ele>
        <time>2015-12-28T08:22:18.000Z</time>
      </trkpt>
      <trkpt lat="43.85024" lon="6.46533">
        <ele>1333.828003</ele>
        <time>2015-12-28T08:22:23.000Z</time>
      </trkpt>
      <trkpt lat="43.85024" lon="6.46533">
        <ele>1333.853516</ele>
        <time>2015-12-28T08:22:28.000Z</time>
      </trkpt>
      <trkpt lat="43.85024" lon="6.46533">
        <ele>1333.869019</ele>
        <time>2015-12-28T08:22:33.000Z</time>
      </trkpt>
      <trkpt lat="43.85024" lon="6.46533">
        <ele>1333.881714</ele>
        <time>2015-12-28T08:22:38.000Z</time>
      </trkpt>
      <trkpt lat="43.85024" lon="6.46533">
        <ele>1333.884399</ele>
        <time>2015-12-28T08:22:43.000Z</time>
      </trkpt>
      <trkpt lat="43.85024" lon="6.46533">
        <ele>1333.901367</ele>
        <time>2015-12-28T08:22:48.000Z</time>
      </trkpt>
      <trkpt lat="43.85024" lon="6.46533">
        <ele>1333.930542</ele>
        <time>2015-12-28T08:22:53.000Z</time>
      </trkpt>
      <trkpt lat="43.85024" lon="6.46533">
        <ele>1333.975464</ele>
        <time>2015-12-28T08:22:58.000Z</time>
      </trkpt>
      <trkpt lat="43.85024" lon="6.46533">
        <ele>1334.011841</ele>
        <time>2015-12-28T08:23:03.000Z</time>
      </trkpt>
      <trkpt lat="43.85024" lon="6.46533">
        <ele>1334.054565</ele>
        <time>2015-12-28T08:23:08.000Z</time>
      </trkpt>
      <trkpt lat="43.85024" lon="6.46533">
        <ele>1334.098511</ele>
        <time>2015-12-28T08:23:13.000Z</time>
      </trkpt>
      <trkpt lat="43.85024" lon="6.46533">
        <ele>1334.102905</ele>
        <time>2015-12-28T08:23:18.000Z</time>
      </trkpt>
      <trkpt lat="43.85024" lon="6.46533">
        <ele>1334.111816</ele>
        <time>2015-12-28T08:23:23.000Z</time>
      </trkpt>
      <trkpt lat="43.85024" lon="6.46533">
        <ele>1334.12146</ele>
        <time>2015-12-28T08:23:28.000Z</time>
      </trkpt>
      <trkpt lat="43.85024" lon="6.46533">
        <ele>1334.14624</ele>
        <time>2015-12-28T08:23:33.000Z</time>
      </trkpt>
      <trkpt lat="43.85024" lon="6.46533">
        <ele>1334.164917</ele>
        <time>2015-12-28T08:23:38.000Z</time>
      </trkpt>
      <trkpt lat="43.85024" lon="6.46533">
        <ele>1334.172485</ele>
        <time>2015-12-28T08:23:43.000Z</time>
      </trkpt>
      <trkpt lat="43.85024" lon="6.46533">
        <ele>1334.177368</ele>
        <time>2015-12-28T08:23:48.000Z</time>
      </trkpt>
      <trkpt lat="43.85024" lon="6.46533">
        <ele>1334.177856</ele>
        <time>2015-12-28T08:23:53.000Z</time>
      </trkpt>
      <trkpt lat="43.85024" lon="6.46533">
        <ele>1334.179443</ele>
        <time>2015-12-28T08:23:58.000Z</time>
      </trkpt>
      <trkpt lat="43.85024" lon="6.46533">
        <ele>1334.175171</ele>
        <time>2015-12-28T08:24:03.000Z</time>
      </trkpt>
      <trkpt lat="43.85024" lon="6.46533">
        <ele>1334.192993</ele>
        <time>2015-12-28T08:24:08.000Z</time>
      </trkpt>
      <trkpt lat="43.85024" lon="6.46533">
        <ele>1334.220825</ele>
        <time>2015-12-28T08:24:13.000Z</time>
      </trkpt>
      <trkpt lat="43.85024" lon="6.46534">
        <ele>1334.234009</ele>
        <time>2015-12-28T08:24:18.000Z</time>
      </trkpt>
      <trkpt lat="43.85024" lon="6.46534">
        <ele>1334.27417</ele>
        <time>2015-12-28T08:24:23.000Z</time>
      </trkpt>
      <trkpt lat="43.85024" lon="6.46534">
        <ele>1334.30835</ele>
        <time>2015-12-28T08:24:28.000Z</time>
      </trkpt>
      <trkpt lat="43.85024" lon="6.46534">
        <ele>1334.331787</ele>
        <time>2015-12-28T08:24:33.000Z</time>
      </trkpt>
      <trkpt lat="43.85024" lon="6.46534">
        <ele>1334.355713</ele>
        <time>2015-12-28T08:24:38.000Z</time>
      </trkpt>
      <trkpt lat="43.85024" lon="6.46534">
        <ele>1334.355103</ele>
        <time>2015-12-28T08:24:43.000Z</time>
      </trkpt>
      <trkpt lat="43.85024" lon="6.46534">
        <ele>1334.345947</ele>
        <time>2015-12-28T08:24:48.000Z</time>
      </trkpt>
      <trkpt lat="43.85024" lon="6.46534">
        <ele>1334.335815</ele>
        <time>2015-12-28T08:24:53.000Z</time>
      </trkpt>
      <trkpt lat="43.85024" lon="6.46534">
        <ele>1334.332397</ele>
        <time>2015-12-28T08:24:58.000Z</time>
      </trkpt>
      <trkpt lat="43.85024" lon="6.46534">
        <ele>1334.317749</ele>
        <time>2015-12-28T08:25:03.000Z</time>
      </trkpt>
      <trkpt lat="43.85024" lon="6.46534">
        <ele>1334.326294</ele>
        <time>2015-12-28T08:25:08.000Z</time>
      </trkpt>
      <trkpt lat="43.85024" lon="6.46534">
        <ele>1334.348877</ele>
        <time>2015-12-28T08:25:13.000Z</time>
      </trkpt>
      <trkpt lat="43.85024" lon="6.46534">
        <ele>1334.354004</ele>
        <time>2015-12-28T08:25:18.000Z</time>
      </trkpt>
      <trkpt lat="43.85024" lon="6.46534">
        <ele>1334.372803</ele>
        <time>2015-12-28T08:25:23.000Z</time>
      </trkpt>
      <trkpt lat="43.85024" lon="6.46534">
        <ele>1334.361694</ele>
        <time>2015-12-28T08:25:28.000Z</time>
      </trkpt>
      <trkpt lat="43.85024" lon="6.46534">
        <ele>1334.33374</ele>
        <time>2015-12-28T08:25:33.000Z</time>
      </trkpt>
      <trkpt lat="43.85024" lon="6.46534">
        <ele>1334.295898</ele>
        <time>2015-12-28T08:25:38.000Z</time>
      </trkpt>
      <trkpt lat="43.85024" lon="6.46534">
        <ele>1334.26123</ele>
        <time>2015-12-28T08:25:43.000Z</time>
      </trkpt>
      <trkpt lat="43.85024" lon="6.46534">
        <ele>1334.253418</ele>
        <time>2015-12-28T08:25:48.000Z</time>
      </trkpt>
      <trkpt lat="43.85024" lon="6.46534">
        <ele>1334.24353</ele>
        <time>2015-12-28T08:25:53.000Z</time>
      </trkpt>
      <trkpt lat="43.85024" lon="6.46534">
        <ele>1334.237183</ele>
        <time>2015-12-28T08:25:58.000Z</time>
      </trkpt>
      <trkpt lat="43.85024" lon="6.46534">
        <ele>1334.218506</ele>
        <time>2015-12-28T08:26:03.000Z</time>
      </trkpt>
      <trkpt lat="43.85024" lon="6.46534">
        <ele>1334.205078</ele>
        <time>2015-12-28T08:26:08.000Z</time>
      </trkpt>
      <trkpt lat="43.85024" lon="6.46534">
        <ele>1334.188232</ele>
        <time>2015-12-28T08:26:13.000Z</time>
      </trkpt>
      <trkpt lat="43.85024" lon="6.46533">
        <ele>1334.165894</ele>
        <time>2015-12-28T08:26:18.000Z</time>
      </trkpt>
      <trkpt lat="43.85024" lon="6.46533">
        <ele>1334.149414</ele>
        <time>2015-12-28T08:26:23.000Z</time>
      </trkpt>
      <trkpt lat="43.85024" lon="6.46533">
        <ele>1334.132935</ele>
        <time>2015-12-28T08:26:28.000Z</time>
      </trkpt>
      <trkpt lat="43.85024" lon="6.46533">
        <ele>1334.140625</ele>
        <time>2015-12-28T08:26:33.000Z</time>
      </trkpt>
      <trkpt lat="43.85024" lon="6.46533">
        <ele>1334.14624</ele>
        <time>2015-12-28T08:26:38.000Z</time>
      </trkpt>
      <trkpt lat="43.85024" lon="6.46533">
        <ele>1334.16626</ele>
        <time>2015-12-28T08:26:43.000Z</time>
      </trkpt>
      <trkpt lat="43.85024" lon="6.46533">
        <ele>1334.181152</ele>
        <time>2015-12-28T08:26:48.000Z</time>
      </trkpt>
      <trkpt lat="43.85024" lon="6.46533">
        <ele>1334.182983</ele>
        <time>2015-12-28T08:26:53.000Z</time>
      </trkpt>
      <trkpt lat="43.85024" lon="6.46533">
        <ele>1334.188721</ele>
        <time>2015-12-28T08:26:58.000Z</time>
      </trkpt>
      <trkpt lat="43.85024" lon="6.46533">
        <ele>1334.213135</ele>
        <time>2015-12-28T08:27:03.000Z</time>
      </trkpt>
      <trkpt lat="43.85024" lon="6.46533">
        <ele>1334.553589</ele>
        <time>2015-12-28T08:27:08.000Z</time>
      </trkpt>
      <trkpt lat="43.85024" lon="6.46534">
        <ele>1335.167969</ele>
        <time>2015-12-28T08:27:13.000Z</time>
      </trkpt>
      <trkpt lat="43.85024" lon="6.46533">
        <ele>1335.335083</ele>
        <time>2015-12-28T08:27:18.000Z</time>
      </trkpt>
      <trkpt lat="43.85024" lon="6.46534">
        <ele>1335.539063</ele>
        <time>2015-12-28T08:27:23.000Z</time>
      </trkpt>
      <trkpt lat="43.85024" lon="6.46534">
        <ele>1335.473511</ele>
        <time>2015-12-28T08:27:28.000Z</time>
      </trkpt>
      <trkpt lat="43.85024" lon="6.46534">
        <ele>1335.225952</ele>
        <time>2015-12-28T08:27:33.000Z</time>
      </trkpt>
      <trkpt lat="43.85025" lon="6.46534">
        <ele>1335.163086</ele>
        <time>2015-12-28T08:27:38.000Z</time>
      </trkpt>
      <trkpt lat="43.85025" lon="6.46536">
        <ele>1334.978271</ele>
        <time>2015-12-28T08:27:43.000Z</time>
      </trkpt>
      <trkpt lat="43.85024" lon="6.46536">
        <ele>1334.642578</ele>
        <time>2015-12-28T08:27:48.000Z</time>
      </trkpt>
      <trkpt lat="43.85025" lon="6.46538">
        <ele>1333.539185</ele>
        <time>2015-12-28T08:27:53.000Z</time>
      </trkpt>
      <trkpt lat="43.85025" lon="6.46539">
        <ele>1333.19104</ele>
        <time>2015-12-28T08:27:58.000Z</time>
      </trkpt>
      <trkpt lat="43.85025" lon="6.46539">
        <ele>1332.821533</ele>
        <time>2015-12-28T08:28:03.000Z</time>
      </trkpt>
      <trkpt lat="43.85026" lon="6.46539">
        <ele>1332.836548</ele>
        <time>2015-12-28T08:28:08.000Z</time>
      </trkpt>
      <trkpt lat="43.85025" lon="6.46538">
        <ele>1333.154175</ele>
        <time>2015-12-28T08:28:13.000Z</time>
      </trkpt>
      <trkpt lat="43.85025" lon="6.46538">
        <ele>1333.158325</ele>
        <time>2015-12-28T08:28:18.000Z</time>
      </trkpt>
      <trkpt lat="43.85025" lon="6.46538">
        <ele>1333.162842</ele>
        <time>2015-12-28T08:28:23.000Z</time>
      </trkpt>
      <trkpt lat="43.85025" lon="6.46538">
        <ele>1333.173828</ele>
        <time>2015-12-28T08:28:28.000Z</time>
      </trkpt>
      <trkpt lat="43.85025" lon="6.46538">
        <ele>1333.171997</ele>
        <time>2015-12-28T08:28:33.000Z</time>
      </trkpt>
      <trkpt lat="43.85025" lon="6.46538">
        <ele>1333.161743</ele>
        <time>2015-12-28T08:28:38.000Z</time>
      </trkpt>
      <trkpt lat="43.85025" lon="6.46538">
        <ele>1333.16272</ele>
        <time>2015-12-28T08:28:43.000Z</time>
      </trkpt>
      <trkpt lat="43.85025" lon="6.46538">
        <ele>1333.182861</ele>
        <time>2015-12-28T08:28:48.000Z</time>
      </trkpt>
      <trkpt lat="43.85025" lon="6.46538">
        <ele>1333.198242</ele>
        <time>2015-12-28T08:28:53.000Z</time>
      </trkpt>
      <trkpt lat="43.85025" lon="6.46538">
        <ele>1333.227051</ele>
        <time>2015-12-28T08:28:58.000Z</time>
      </trkpt>
      <trkpt lat="43.85025" lon="6.46538">
        <ele>1333.252441</ele>
        <time>2015-12-28T08:29:03.000Z</time>
      </trkpt>
      <trkpt lat="43.85025" lon="6.46538">
        <ele>1333.24939</ele>
        <time>2015-12-28T08:29:08.000Z</time>
      </trkpt>
      <trkpt lat="43.85025" lon="6.46538">
        <ele>1333.241577</ele>
        <time>2015-12-28T08:29:13.000Z</time>
      </trkpt>
      <trkpt lat="43.85025" lon="6.46538">
        <ele>1333.229492</ele>
        <time>2015-12-28T08:29:18.000Z</time>
      </trkpt>
      <trkpt lat="43.85025" lon="6.46538">
        <ele>1333.233154</ele>
        <time>2015-12-28T08:29:23.000Z</time>
      </trkpt>
      <trkpt lat="43.85025" lon="6.46538">
        <ele>1333.243042</ele>
        <time>2015-12-28T08:29:28.000Z</time>
      </trkpt>
      <trkpt lat="43.85025" lon="6.46538">
        <ele>1333.282959</ele>
        <time>2015-12-28T08:29:33.000Z</time>
      </trkpt>
      <trkpt lat="43.85025" lon="6.46538">
        <ele>1333.325806</ele>
        <time>2015-12-28T08:29:38.000Z</time>
      </trkpt>
      <trkpt lat="43.85025" lon="6.46538">
        <ele>1333.372437</ele>
        <time>2015-12-28T08:29:43.000Z</time>
      </trkpt>
      <trkpt lat="43.85026" lon="6.46538">
        <ele>1333.533325</ele>
        <time>2015-12-28T08:29:48.000Z</time>
      </trkpt>
      <trkpt lat="43.85025" lon="6.46537">
        <ele>1334.423462</ele>
        <time>2015-12-28T08:29:53.000Z</time>
      </trkpt>
      <trkpt lat="43.85026" lon="6.46537">
        <ele>1334.440063</ele>
        <time>2015-12-28T08:29:58.000Z</time>
      </trkpt>
      <trkpt lat="43.85026" lon="6.46537">
        <ele>1334.559814</ele>
        <time>2015-12-28T08:30:03.000Z</time>
      </trkpt>
      <trkpt lat="43.85027" lon="6.46537">
        <ele>1335.007568</ele>
        <time>2015-12-28T08:30:08.000Z</time>
      </trkpt>
      <trkpt lat="43.85027" lon="6.46537">
        <ele>1335.026367</ele>
        <time>2015-12-28T08:30:13.000Z</time>
      </trkpt>
      <trkpt lat="43.85027" lon="6.46537">
        <ele>1335.044067</ele>
        <time>2015-12-28T08:30:18.000Z</time>
      </trkpt>
      <trkpt lat="43.85027" lon="6.46537">
        <ele>1335.056274</ele>
        <time>2015-12-28T08:30:23.000Z</time>
      </trkpt>
      <trkpt lat="43.85027" lon="6.46537">
        <ele>1335.057617</ele>
        <time>2015-12-28T08:30:28.000Z</time>
      </trkpt>
      <trkpt lat="43.85027" lon="6.46537">
        <ele>1335.052002</ele>
        <time>2015-12-28T08:30:33.000Z</time>
      </trkpt>
      <trkpt lat="43.85027" lon="6.46537">
        <ele>1335.05542</ele>
        <time>2015-12-28T08:30:38.000Z</time>
      </trkpt>
      <trkpt lat="43.85027" lon="6.46537">
        <ele>1335.043823</ele>
        <time>2015-12-28T08:30:43.000Z</time>
      </trkpt>
      <trkpt lat="43.85026" lon="6.46537">
        <ele>1334.572632</ele>
        <time>2015-12-28T08:30:48.000Z</time>
      </trkpt>
      <trkpt lat="43.85026" lon="6.46537">
        <ele>1334.426758</ele>
        <time>2015-12-28T08:30:53.000Z</time>
      </trkpt>
      <trkpt lat="43.85026" lon="6.46537">
        <ele>1334.40686</ele>
        <time>2015-12-28T08:30:58.000Z</time>
      </trkpt>
      <trkpt lat="43.85026" lon="6.46537">
        <ele>1334.388672</ele>
        <time>2015-12-28T08:31:03.000Z</time>
      </trkpt>
      <trkpt lat="43.85026" lon="6.46537">
        <ele>1334.375366</ele>
        <time>2015-12-28T08:31:08.000Z</time>
      </trkpt>
      <trkpt lat="43.85025" lon="6.46537">
        <ele>1334.678467</ele>
        <time>2015-12-28T08:31:13.000Z</time>
      </trkpt>
      <trkpt lat="43.85025" lon="6.46537">
        <ele>1334.690552</ele>
        <time>2015-12-28T08:31:18.000Z</time>
      </trkpt>
      <trkpt lat="43.85025" lon="6.46537">
        <ele>1334.707031</ele>
        <time>2015-12-28T08:31:23.000Z</time>
      </trkpt>
      <trkpt lat="43.85025" lon="6.46537">
        <ele>1334.728027</ele>
        <time>2015-12-28T08:31:28.000Z</time>
      </trkpt>
      <trkpt lat="43.85025" lon="6.46537">
        <ele>1334.741455</ele>
        <time>2015-12-28T08:31:33.000Z</time>
      </trkpt>
      <trkpt lat="43.85025" lon="6.46537">
        <ele>1334.748047</ele>
        <time>2015-12-28T08:31:38.000Z</time>
      </trkpt>
      <trkpt lat="43.85025" lon="6.46537">
        <ele>1334.722534</ele>
        <time>2015-12-28T08:31:43.000Z</time>
      </trkpt>
      <trkpt lat="43.85025" lon="6.46537">
        <ele>1334.70874</ele>
        <time>2015-12-28T08:31:48.000Z</time>
      </trkpt>
      <trkpt lat="43.85025" lon="6.46537">
        <ele>1334.699341</ele>
        <time>2015-12-28T08:31:53.000Z</time>
      </trkpt>
      <trkpt lat="43.85025" lon="6.46537">
        <ele>1335.113159</ele>
        <time>2015-12-28T08:31:58.000Z</time>
      </trkpt>
      <trkpt lat="43.85025" lon="6.46537">
        <ele>1334.83374</ele>
        <time>2015-12-28T08:32:03.000Z</time>
      </trkpt>
      <trkpt lat="43.85025" lon="6.46537">
        <ele>1334.844482</ele>
        <time>2015-12-28T08:32:08.000Z</time>
      </trkpt>
      <trkpt lat="43.85025" lon="6.46537">
        <ele>1334.849365</ele>
        <time>2015-12-28T08:32:13.000Z</time>
      </trkpt>
      <trkpt lat="43.85032" lon="6.46534">
        <ele>1334.314941</ele>
        <time>2015-12-28T08:32:18.000Z</time>
      </trkpt>
      <trkpt lat="43.85041" lon="6.46531">
        <ele>1335.869507</ele>
        <time>2015-12-28T08:32:23.000Z</time>
      </trkpt>
      <trkpt lat="43.85049" lon="6.46534">
        <ele>1337.32312</ele>
        <time>2015-12-28T08:32:28.000Z</time>
      </trkpt>
      <trkpt lat="43.85056" lon="6.46534">
        <ele>1338.852661</ele>
        <time>2015-12-28T08:32:33.000Z</time>
      </trkpt>
      <trkpt lat="43.85063" lon="6.46531">
        <ele>1340.11438</ele>
        <time>2015-12-28T08:32:38.000Z</time>
      </trkpt>
      <trkpt lat="43.85071" lon="6.4653">
        <ele>1341.786865</ele>
        <time>2015-12-28T08:32:43.000Z</time>
      </trkpt>
      <trkpt lat="43.85079" lon="6.4653">
        <ele>1342.656494</ele>
        <time>2015-12-28T08:32:48.000Z</time>
      </trkpt>
      <trkpt lat="43.85086" lon="6.4653">
        <ele>1343.668213</ele>
        <time>2015-12-28T08:32:53.000Z</time>
      </trkpt>
      <trkpt lat="43.85094" lon="6.46532">
        <ele>1344.863159</ele>
        <time>2015-12-28T08:32:58.000Z</time>
      </trkpt>
      <trkpt lat="43.85101" lon="6.46532">
        <ele>1344.477295</ele>
        <time>2015-12-28T08:33:03.000Z</time>
      </trkpt>
      <trkpt lat="43.85108" lon="6.46531">
        <ele>1345.069092</ele>
        <time>2015-12-28T08:33:08.000Z</time>
      </trkpt>
      <trkpt lat="43.85115" lon="6.46531">
        <ele>1345.248047</ele>
        <time>2015-12-28T08:33:13.000Z</time>
      </trkpt>
      <trkpt lat="43.85122" lon="6.46531">
        <ele>1346.380127</ele>
        <time>2015-12-28T08:33:18.000Z</time>
      </trkpt>
      <trkpt lat="43.85128" lon="6.4653">
        <ele>1347.390991</ele>
        <time>2015-12-28T08:33:23.000Z</time>
      </trkpt>
      <trkpt lat="43.85135" lon="6.4653">
        <ele>1347.295044</ele>
        <time>2015-12-28T08:33:28.000Z</time>
      </trkpt>
      <trkpt lat="43.85141" lon="6.4653">
        <ele>1348.419189</ele>
        <time>2015-12-28T08:33:33.000Z</time>
      </trkpt>
      <trkpt lat="43.85148" lon="6.46531">
        <ele>1349.465454</ele>
        <time>2015-12-28T08:33:38.000Z</time>
      </trkpt>
      <trkpt lat="43.85155" lon="6.46529">
        <ele>1350.730347</ele>
        <time>2015-12-28T08:33:43.000Z</time>
      </trkpt>
      <trkpt lat="43.85161" lon="6.46528">
        <ele>1351.011108</ele>
        <time>2015-12-28T08:33:48.000Z</time>
      </trkpt>
      <trkpt lat="43.85166" lon="6.46528">
        <ele>1352.638794</ele>
        <time>2015-12-28T08:33:53.000Z</time>
      </trkpt>
      <trkpt lat="43.85173" lon="6.46526">
        <ele>1351.894897</ele>
        <time>2015-12-28T08:33:58.000Z</time>
      </trkpt>
      <trkpt lat="43.85179" lon="6.46525">
        <ele>1353.307373</ele>
        <time>2015-12-28T08:34:03.000Z</time>
      </trkpt>
      <trkpt lat="43.85185" lon="6.46524">
        <ele>1355.566406</ele>
        <time>2015-12-28T08:34:08.000Z</time>
      </trkpt>
      <trkpt lat="43.85192" lon="6.46521">
        <ele>1355.830688</ele>
        <time>2015-12-28T08:34:13.000Z</time>
      </trkpt>
      <trkpt lat="43.85198" lon="6.4652">
        <ele>1355.631958</ele>
        <time>2015-12-28T08:34:18.000Z</time>
      </trkpt>
      <trkpt lat="43.85204" lon="6.46518">
        <ele>1355.910278</ele>
        <time>2015-12-28T08:34:23.000Z</time>
      </trkpt>
      <trkpt lat="43.8521" lon="6.46515">
        <ele>1357.167725</ele>
        <time>2015-12-28T08:34:28.000Z</time>
      </trkpt>
      <trkpt lat="43.85217" lon="6.46513">
        <ele>1357.522583</ele>
        <time>2015-12-28T08:34:33.000Z</time>
      </trkpt>
      <trkpt lat="43.85223" lon="6.4651">
        <ele>1357.659546</ele>
        <time>2015-12-28T08:34:38.000Z</time>
      </trkpt>
      <trkpt lat="43.8523" lon="6.46507">
        <ele>1358.025024</ele>
        <time>2015-12-28T08:34:43.000Z</time>
      </trkpt>
      <trkpt lat="43.85236" lon="6.46503">
        <ele>1358.460083</ele>
        <time>2015-12-28T08:34:48.000Z</time>
      </trkpt>
      <trkpt lat="43.85242" lon="6.46501">
        <ele>1360.936768</ele>
        <time>2015-12-28T08:34:53.000Z</time>
      </trkpt>
      <trkpt lat="43.85249" lon="6.46499">
        <ele>1362.171997</ele>
        <time>2015-12-28T08:34:58.000Z</time>
      </trkpt>
      <trkpt lat="43.85255" lon="6.46494">
        <ele>1361.350952</ele>
        <time>2015-12-28T08:35:03.000Z</time>
      </trkpt>
      <trkpt lat="43.85261" lon="6.46492">
        <ele>1362.061279</ele>
        <time>2015-12-28T08:35:08.000Z</time>
      </trkpt>
      <trkpt lat="43.85267" lon="6.4649">
        <ele>1362.847656</ele>
        <time>2015-12-28T08:35:13.000Z</time>
      </trkpt>
      <trkpt lat="43.85273" lon="6.46487">
        <ele>1362.483276</ele>
        <time>2015-12-28T08:35:18.000Z</time>
      </trkpt>
      <trkpt lat="43.85277" lon="6.46481">
        <ele>1364.061035</ele>
        <time>2015-12-28T08:35:23.000Z</time>
      </trkpt>
      <trkpt lat="43.85275" lon="6.46474">
        <ele>1364.588379</ele>
        <time>2015-12-28T08:35:28.000Z</time>
      </trkpt>
      <trkpt lat="43.8527" lon="6.46471">
        <ele>1365.5177</ele>
        <time>2015-12-28T08:35:33.000Z</time>
      </trkpt>
      <trkpt lat="43.85265" lon="6.46472">
        <ele>1365.841797</ele>
        <time>2015-12-28T08:35:38.000Z</time>
      </trkpt>
      <trkpt lat="43.8526" lon="6.46475">
        <ele>1366.031982</ele>
        <time>2015-12-28T08:35:43.000Z</time>
      </trkpt>
      <trkpt lat="43.85253" lon="6.46479">
        <ele>1366.914063</ele>
        <time>2015-12-28T08:35:48.000Z</time>
      </trkpt>
      <trkpt lat="43.85247" lon="6.46481">
        <ele>1367.929688</ele>
        <time>2015-12-28T08:35:53.000Z</time>
      </trkpt>
      <trkpt lat="43.85242" lon="6.46481">
        <ele>1368.963745</ele>
        <time>2015-12-28T08:35:58.000Z</time>
      </trkpt>
      <trkpt lat="43.85235" lon="6.46482">
        <ele>1369.545288</ele>
        <time>2015-12-28T08:36:03.000Z</time>
      </trkpt>
      <trkpt lat="43.8523" lon="6.46481">
        <ele>1370.125488</ele>
        <time>2015-12-28T08:36:08.000Z</time>
      </trkpt>
      <trkpt lat="43.85223" lon="6.46481">
        <ele>1370.631958</ele>
        <time>2015-12-28T08:36:13.000Z</time>
      </trkpt>
      <trkpt lat="43.85216" lon="6.46482">
        <ele>1372.189453</ele>
        <time>2015-12-28T08:36:18.000Z</time>
      </trkpt>
      <trkpt lat="43.85209" lon="6.46482">
        <ele>1373.384644</ele>
        <time>2015-12-28T08:36:23.000Z</time>
      </trkpt>
      <trkpt lat="43.85203" lon="6.46483">
        <ele>1374.744629</ele>
        <time>2015-12-28T08:36:28.000Z</time>
      </trkpt>
      <trkpt lat="43.85196" lon="6.46483">
        <ele>1376.695679</ele>
        <time>2015-12-28T08:36:33.000Z</time>
      </trkpt>
      <trkpt lat="43.85191" lon="6.46481">
        <ele>1377.941895</ele>
        <time>2015-12-28T08:36:38.000Z</time>
      </trkpt>
      <trkpt lat="43.85186" lon="6.4648">
        <ele>1378.338257</ele>
        <time>2015-12-28T08:36:43.000Z</time>
      </trkpt>
      <trkpt lat="43.85182" lon="6.46475">
        <ele>1378.018555</ele>
        <time>2015-12-28T08:36:48.000Z</time>
      </trkpt>
      <trkpt lat="43.8518" lon="6.46475">
        <ele>1377.324951</ele>
        <time>2015-12-28T08:36:53.000Z</time>
      </trkpt>
      <trkpt lat="43.8518" lon="6.46475">
        <ele>1377.230591</ele>
        <time>2015-12-28T08:36:58.000Z</time>
      </trkpt>
      <trkpt lat="43.85181" lon="6.46475">
        <ele>1377.139404</ele>
        <time>2015-12-28T08:37:03.000Z</time>
      </trkpt>
      <trkpt lat="43.85179" lon="6.46472">
        <ele>1377.51001</ele>
        <time>2015-12-28T08:37:08.000Z</time>
      </trkpt>
      <trkpt lat="43.85173" lon="6.46467">
        <ele>1378.060181</ele>
        <time>2015-12-28T08:37:13.000Z</time>
      </trkpt>
      <trkpt lat="43.85168" lon="6.46464">
        <ele>1378.415161</ele>
        <time>2015-12-28T08:37:18.000Z</time>
      </trkpt>
      <trkpt lat="43.85162" lon="6.46461">
        <ele>1379.552856</ele>
        <time>2015-12-28T08:37:23.000Z</time>
      </trkpt>
      <trkpt lat="43.85157" lon="6.46458">
        <ele>1380.597412</ele>
        <time>2015-12-28T08:37:28.000Z</time>
      </trkpt>
      <trkpt lat="43.85152" lon="6.46455">
        <ele>1380.70459</ele>
        <time>2015-12-28T08:37:33.000Z</time>
      </trkpt>
      <trkpt lat="43.85148" lon="6.46452">
        <ele>1382.556396</ele>
        <time>2015-12-28T08:37:38.000Z</time>
      </trkpt>
      <trkpt lat="43.85142" lon="6.4645">
        <ele>1382.735962</ele>
        <time>2015-12-28T08:37:43.000Z</time>
      </trkpt>
      <trkpt lat="43.85137" lon="6.46447">
        <ele>1383.706909</ele>
        <time>2015-12-28T08:37:48.000Z</time>
      </trkpt>
      <trkpt lat="43.85131" lon="6.46444">
        <ele>1383.537354</ele>
        <time>2015-12-28T08:37:53.000Z</time>
      </trkpt>
      <trkpt lat="43.85127" lon="6.46442">
        <ele>1384.759155</ele>
        <time>2015-12-28T08:37:58.000Z</time>
      </trkpt>
      <trkpt lat="43.85123" lon="6.4644">
        <ele>1384.279907</ele>
        <time>2015-12-28T08:38:03.000Z</time>
      </trkpt>
      <trkpt lat="43.8512" lon="6.46438">
        <ele>1384.322876</ele>
        <time>2015-12-28T08:38:08.000Z</time>
      </trkpt>
      <trkpt lat="43.8512" lon="6.46438">
        <ele>1384.37793</ele>
        <time>2015-12-28T08:38:13.000Z</time>
      </trkpt>
      <trkpt lat="43.8512" lon="6.46438">
        <ele>1384.343628</ele>
        <time>2015-12-28T08:38:18.000Z</time>
      </trkpt>
      <trkpt lat="43.8512" lon="6.46438">
        <ele>1384.299683</ele>
        <time>2015-12-28T08:38:23.000Z</time>
      </trkpt>
      <trkpt lat="43.8512" lon="6.46438">
        <ele>1384.288574</ele>
        <time>2015-12-28T08:38:28.000Z</time>
      </trkpt>
      <trkpt lat="43.8512" lon="6.46438">
        <ele>1384.269653</ele>
        <time>2015-12-28T08:38:33.000Z</time>
      </trkpt>
      <trkpt lat="43.8512" lon="6.46438">
        <ele>1384.257446</ele>
        <time>2015-12-28T08:38:38.000Z</time>
      </trkpt>
      <trkpt lat="43.8512" lon="6.46438">
        <ele>1384.230591</ele>
        <time>2015-12-28T08:38:43.000Z</time>
      </trkpt>
      <trkpt lat="43.8512" lon="6.46438">
        <ele>1384.222656</ele>
        <time>2015-12-28T08:38:48.000Z</time>
      </trkpt>
      <trkpt lat="43.8512" lon="6.46438">
        <ele>1384.208862</ele>
        <time>2015-12-28T08:38:53.000Z</time>
      </trkpt>
      <trkpt lat="43.85121" lon="6.46437">
        <ele>1384.509277</ele>
        <time>2015-12-28T08:38:58.000Z</time>
      </trkpt>
      <trkpt lat="43.85122" lon="6.46436">
        <ele>1385.019775</ele>
        <time>2015-12-28T08:39:03.000Z</time>
      </trkpt>
      <trkpt lat="43.85122" lon="6.46436">
        <ele>1385.126099</ele>
        <time>2015-12-28T08:39:08.000Z</time>
      </trkpt>
      <trkpt lat="43.85122" lon="6.46436">
        <ele>1385.163086</ele>
        <time>2015-12-28T08:39:13.000Z</time>
      </trkpt>
      <trkpt lat="43.85122" lon="6.46436">
        <ele>1385.144409</ele>
        <time>2015-12-28T08:39:18.000Z</time>
      </trkpt>
      <trkpt lat="43.85122" lon="6.46435">
        <ele>1385.153809</ele>
        <time>2015-12-28T08:39:23.000Z</time>
      </trkpt>
      <trkpt lat="43.85122" lon="6.46435">
        <ele>1385.161743</ele>
        <time>2015-12-28T08:39:28.000Z</time>
      </trkpt>
      <trkpt lat="43.85122" lon="6.46435">
        <ele>1385.160522</ele>
        <time>2015-12-28T08:39:33.000Z</time>
      </trkpt>
      <trkpt lat="43.85122" lon="6.46435">
        <ele>1385.159302</ele>
        <time>2015-12-28T08:39:38.000Z</time>
      </trkpt>
      <trkpt lat="43.85122" lon="6.46435">
        <ele>1385.304932</ele>
        <time>2015-12-28T08:39:43.000Z</time>
      </trkpt>
      <trkpt lat="43.85113" lon="6.46428">
        <ele>1385.109009</ele>
        <time>2015-12-28T08:39:48.000Z</time>
      </trkpt>
      <trkpt lat="43.85103" lon="6.46422">
        <ele>1384.556885</ele>
        <time>2015-12-28T08:39:53.000Z</time>
      </trkpt>
      <trkpt lat="43.85092" lon="6.46418">
        <ele>1387.016235</ele>
        <time>2015-12-28T08:39:58.000Z</time>
      </trkpt>
      <trkpt lat="43.85081" lon="6.46416">
        <ele>1388.658691</ele>
        <time>2015-12-28T08:40:03.000Z</time>
      </trkpt>
      <trkpt lat="43.8507" lon="6.46414">
        <ele>1391.85376</ele>
        <time>2015-12-28T08:40:08.000Z</time>
      </trkpt>
      <trkpt lat="43.8506" lon="6.46411">
        <ele>1393.545166</ele>
        <time>2015-12-28T08:40:13.000Z</time>
      </trkpt>
      <trkpt lat="43.8505" lon="6.46411">
        <ele>1396.80542</ele>
        <time>2015-12-28T08:40:18.000Z</time>
      </trkpt>
      <trkpt lat="43.8504" lon="6.4641">
        <ele>1398.492432</ele>
        <time>2015-12-28T08:40:23.000Z</time>
      </trkpt>
      <trkpt lat="43.85032" lon="6.4641">
        <ele>1401.297974</ele>
        <time>2015-12-28T08:40:28.000Z</time>
      </trkpt>
      <trkpt lat="43.85024" lon="6.46408">
        <ele>1403.68457</ele>
        <time>2015-12-28T08:40:33.000Z</time>
      </trkpt>
      <trkpt lat="43.85018" lon="6.46406">
        <ele>1404.842773</ele>
        <time>2015-12-28T08:40:38.000Z</time>
      </trkpt>
      <trkpt lat="43.85012" lon="6.46402">
        <ele>1405.607788</ele>
        <time>2015-12-28T08:40:43.000Z</time>
      </trkpt>
      <trkpt lat="43.85008" lon="6.46397">
        <ele>1407.360596</ele>
        <time>2015-12-28T08:40:48.000Z</time>
      </trkpt>
      <trkpt lat="43.85003" lon="6.46395">
        <ele>1408.403809</ele>
        <time>2015-12-28T08:40:53.000Z</time>
      </trkpt>
      <trkpt lat="43.84998" lon="6.46392">
        <ele>1410.098633</ele>
        <time>2015-12-28T08:40:58.000Z</time>
      </trkpt>
      <trkpt lat="43.84994" lon="6.46389">
        <ele>1411.216064</ele>
        <time>2015-12-28T08:41:03.000Z</time>
      </trkpt>
      <trkpt lat="43.8499" lon="6.46385">
        <ele>1412.084473</ele>
        <time>2015-12-28T08:41:08.000Z</time>
      </trkpt>
      <trkpt lat="43.84984" lon="6.4638">
        <ele>1413.202393</ele>
        <time>2015-12-28T08:41:13.000Z</time>
      </trkpt>
      <trkpt lat="43.84978" lon="6.46376">
        <ele>1414.619751</ele>
        <time>2015-12-28T08:41:18.000Z</time>
      </trkpt>
      <trkpt lat="43.84972" lon="6.46371">
        <ele>1415.36792</ele>
        <time>2015-12-28T08:41:23.000Z</time>
      </trkpt>
      <trkpt lat="43.84967" lon="6.46365">
        <ele>1415.827148</ele>
        <time>2015-12-28T08:41:28.000Z</time>
      </trkpt>
      <trkpt lat="43.84963" lon="6.4636">
        <ele>1416.659302</ele>
        <time>2015-12-28T08:41:33.000Z</time>
      </trkpt>
      <trkpt lat="43.84956" lon="6.46357">
        <ele>1417.536865</ele>
        <time>2015-12-28T08:41:38.000Z</time>
      </trkpt>
      <trkpt lat="43.8495" lon="6.46356">
        <ele>1420.57666</ele>
        <time>2015-12-28T08:41:43.000Z</time>
      </trkpt>
      <trkpt lat="43.84944" lon="6.46352">
        <ele>1423.069458</ele>
        <time>2015-12-28T08:41:48.000Z</time>
      </trkpt>
      <trkpt lat="43.84939" lon="6.46347">
        <ele>1424.380371</ele>
        <time>2015-12-28T08:41:53.000Z</time>
      </trkpt>
      <trkpt lat="43.84934" lon="6.4634">
        <ele>1425.0802</ele>
        <time>2015-12-28T08:41:58.000Z</time>
      </trkpt>
      <trkpt lat="43.84929" lon="6.46336">
        <ele>1426.299438</ele>
        <time>2015-12-28T08:42:03.000Z</time>
      </trkpt>
      <trkpt lat="43.84925" lon="6.46332">
        <ele>1426.336792</ele>
        <time>2015-12-28T08:42:08.000Z</time>
      </trkpt>
      <trkpt lat="43.8492" lon="6.46329">
        <ele>1427.869385</ele>
        <time>2015-12-28T08:42:13.000Z</time>
      </trkpt>
      <trkpt lat="43.84914" lon="6.46325">
        <ele>1429.391968</ele>
        <time>2015-12-28T08:42:18.000Z</time>
      </trkpt>
      <trkpt lat="43.84909" lon="6.46321">
        <ele>1430.582642</ele>
        <time>2015-12-28T08:42:23.000Z</time>
      </trkpt>
      <trkpt lat="43.84903" lon="6.46318">
        <ele>1432.634888</ele>
        <time>2015-12-28T08:42:28.000Z</time>
      </trkpt>
      <trkpt lat="43.84898" lon="6.46315">
        <ele>1434.11731</ele>
        <time>2015-12-28T08:42:33.000Z</time>
      </trkpt>
      <trkpt lat="43.84893" lon="6.46312">
        <ele>1435.535156</ele>
        <time>2015-12-28T08:42:38.000Z</time>
      </trkpt>
      <trkpt lat="43.84887" lon="6.46308">
        <ele>1435.526123</ele>
        <time>2015-12-28T08:42:43.000Z</time>
      </trkpt>
      <trkpt lat="43.8488" lon="6.46303">
        <ele>1434.552002</ele>
        <time>2015-12-28T08:42:48.000Z</time>
      </trkpt>
      <trkpt lat="43.84875" lon="6.463">
        <ele>1436.425049</ele>
        <time>2015-12-28T08:42:53.000Z</time>
      </trkpt>
      <trkpt lat="43.8487" lon="6.46298">
        <ele>1439.533936</ele>
        <time>2015-12-28T08:42:58.000Z</time>
      </trkpt>
      <trkpt lat="43.84865" lon="6.46294">
        <ele>1440.345215</ele>
        <time>2015-12-28T08:43:03.000Z</time>
      </trkpt>
      <trkpt lat="43.84859" lon="6.46291">
        <ele>1442.571411</ele>
        <time>2015-12-28T08:43:08.000Z</time>
      </trkpt>
      <trkpt lat="43.84854" lon="6.46287">
        <ele>1443.474976</ele>
        <time>2015-12-28T08:43:13.000Z</time>
      </trkpt>
      <trkpt lat="43.84848" lon="6.46279">
        <ele>1440.650513</ele>
        <time>2015-12-28T08:43:18.000Z</time>
      </trkpt>
      <trkpt lat="43.84842" lon="6.46274">
        <ele>1439.155396</ele>
        <time>2015-12-28T08:43:23.000Z</time>
      </trkpt>
      <trkpt lat="43.84837" lon="6.46268">
        <ele>1436.577148</ele>
        <time>2015-12-28T08:43:28.000Z</time>
      </trkpt>
      <trkpt lat="43.8483" lon="6.46268">
        <ele>1437.437988</ele>
        <time>2015-12-28T08:43:33.000Z</time>
      </trkpt>
      <trkpt lat="43.84824" lon="6.46268">
        <ele>1437.735962</ele>
        <time>2015-12-28T08:43:38.000Z</time>
      </trkpt>
      <trkpt lat="43.84818" lon="6.4627">
        <ele>1438.221558</ele>
        <time>2015-12-28T08:43:43.000Z</time>
      </trkpt>
      <trkpt lat="43.84812" lon="6.4627">
        <ele>1437.403442</ele>
        <time>2015-12-28T08:43:48.000Z</time>
      </trkpt>
      <trkpt lat="43.84807" lon="6.46271">
        <ele>1436.418945</ele>
        <time>2015-12-28T08:43:53.000Z</time>
      </trkpt>
      <trkpt lat="43.84802" lon="6.46276">
        <ele>1436.309692</ele>
        <time>2015-12-28T08:43:58.000Z</time>
      </trkpt>
      <trkpt lat="43.84796" lon="6.4628">
        <ele>1435.969238</ele>
        <time>2015-12-28T08:44:03.000Z</time>
      </trkpt>
      <trkpt lat="43.84792" lon="6.46283">
        <ele>1434.649902</ele>
        <time>2015-12-28T08:44:08.000Z</time>
      </trkpt>
      <trkpt lat="43.84787" lon="6.46286">
        <ele>1433.513184</ele>
        <time>2015-12-28T08:44:13.000Z</time>
      </trkpt>
      <trkpt lat="43.84782" lon="6.46291">
        <ele>1433.439697</ele>
        <time>2015-12-28T08:44:18.000Z</time>
      </trkpt>
      <trkpt lat="43.84776" lon="6.46296">
        <ele>1432.543945</ele>
        <time>2015-12-28T08:44:23.000Z</time>
      </trkpt>
      <trkpt lat="43.8477" lon="6.46302">
        <ele>1431.417358</ele>
        <time>2015-12-28T08:44:28.000Z</time>
      </trkpt>
      <trkpt lat="43.84766" lon="6.46308">
        <ele>1431.102783</ele>
        <time>2015-12-28T08:44:33.000Z</time>
      </trkpt>
      <trkpt lat="43.84761" lon="6.46316">
        <ele>1430.497803</ele>
        <time>2015-12-28T08:44:38.000Z</time>
      </trkpt>
      <trkpt lat="43.84756" lon="6.46322">
        <ele>1430.847046</ele>
        <time>2015-12-28T08:44:43.000Z</time>
      </trkpt>
      <trkpt lat="43.84752" lon="6.46328">
        <ele>1431.402588</ele>
        <time>2015-12-28T08:44:48.000Z</time>
      </trkpt>
      <trkpt lat="43.84747" lon="6.46334">
        <ele>1431.013794</ele>
        <time>2015-12-28T08:44:53.000Z</time>
      </trkpt>
      <trkpt lat="43.84741" lon="6.4634">
        <ele>1431.195435</ele>
        <time>2015-12-28T08:44:58.000Z</time>
      </trkpt>
      <trkpt lat="43.84737" lon="6.46347">
        <ele>1431.048706</ele>
        <time>2015-12-28T08:45:03.000Z</time>
      </trkpt>
      <trkpt lat="43.84732" lon="6.46353">
        <ele>1431.642212</ele>
        <time>2015-12-28T08:45:08.000Z</time>
      </trkpt>
      <trkpt lat="43.84727" lon="6.4636">
        <ele>1432.650269</ele>
        <time>2015-12-28T08:45:13.000Z</time>
      </trkpt>
      <trkpt lat="43.84722" lon="6.46366">
        <ele>1432.90271</ele>
        <time>2015-12-28T08:45:18.000Z</time>
      </trkpt>
      <trkpt lat="43.84716" lon="6.46373">
        <ele>1433.486084</ele>
        <time>2015-12-28T08:45:23.000Z</time>
      </trkpt>
      <trkpt lat="43.84711" lon="6.46379">
        <ele>1434.397583</ele>
        <time>2015-12-28T08:45:28.000Z</time>
      </trkpt>
      <trkpt lat="43.84706" lon="6.46386">
        <ele>1434.302734</ele>
        <time>2015-12-28T08:45:33.000Z</time>
      </trkpt>
      <trkpt lat="43.84703" lon="6.46394">
        <ele>1434.814209</ele>
        <time>2015-12-28T08:45:38.000Z</time>
      </trkpt>
      <trkpt lat="43.84698" lon="6.46401">
        <ele>1435.002319</ele>
        <time>2015-12-28T08:45:43.000Z</time>
      </trkpt>
      <trkpt lat="43.84695" lon="6.46409">
        <ele>1435.269043</ele>
        <time>2015-12-28T08:45:48.000Z</time>
      </trkpt>
      <trkpt lat="43.84691" lon="6.46417">
        <ele>1436.39978</ele>
        <time>2015-12-28T08:45:53.000Z</time>
      </trkpt>
      <trkpt lat="43.84686" lon="6.46423">
        <ele>1437.094971</ele>
        <time>2015-12-28T08:45:58.000Z</time>
      </trkpt>
      <trkpt lat="43.84679" lon="6.46419">
        <ele>1437.223022</ele>
        <time>2015-12-28T08:46:03.000Z</time>
      </trkpt>
      <trkpt lat="43.84675" lon="6.46411">
        <ele>1438.546997</ele>
        <time>2015-12-28T08:46:08.000Z</time>
      </trkpt>
      <trkpt lat="43.84676" lon="6.464">
        <ele>1439.997437</ele>
        <time>2015-12-28T08:46:13.000Z</time>
      </trkpt>
      <trkpt lat="43.84676" lon="6.4639">
        <ele>1441.292603</ele>
        <time>2015-12-28T08:46:18.000Z</time>
      </trkpt>
      <trkpt lat="43.84672" lon="6.46385">
        <ele>1441.869995</ele>
        <time>2015-12-28T08:46:23.000Z</time>
      </trkpt>
      <trkpt lat="43.84669" lon="6.46386">
        <ele>1441.565918</ele>
        <time>2015-12-28T08:46:28.000Z</time>
      </trkpt>
      <trkpt lat="43.8467" lon="6.46386">
        <ele>1441.40271</ele>
        <time>2015-12-28T08:46:33.000Z</time>
      </trkpt>
      <trkpt lat="43.8467" lon="6.46386">
        <ele>1441.387939</ele>
        <time>2015-12-28T08:46:38.000Z</time>
      </trkpt>
      <trkpt lat="43.8467" lon="6.46386">
        <ele>1441.386963</ele>
        <time>2015-12-28T08:46:43.000Z</time>
      </trkpt>
      <trkpt lat="43.8467" lon="6.46386">
        <ele>1441.390503</ele>
        <time>2015-12-28T08:46:48.000Z</time>
      </trkpt>
      <trkpt lat="43.8467" lon="6.46386">
        <ele>1441.390259</ele>
        <time>2015-12-28T08:46:53.000Z</time>
      </trkpt>
      <trkpt lat="43.8467" lon="6.46386">
        <ele>1441.39502</ele>
        <time>2015-12-28T08:46:58.000Z</time>
      </trkpt>
      <trkpt lat="43.8467" lon="6.46385">
        <ele>1441.358643</ele>
        <time>2015-12-28T08:47:03.000Z</time>
      </trkpt>
      <trkpt lat="43.8467" lon="6.46385">
        <ele>1441.253662</ele>
        <time>2015-12-28T08:47:08.000Z</time>
      </trkpt>
      <trkpt lat="43.8467" lon="6.46385">
        <ele>1441.233643</ele>
        <time>2015-12-28T08:47:13.000Z</time>
      </trkpt>
      <trkpt lat="43.8467" lon="6.46385">
        <ele>1441.168335</ele>
        <time>2015-12-28T08:47:18.000Z</time>
      </trkpt>
      <trkpt lat="43.8467" lon="6.46385">
        <ele>1441.214722</ele>
        <time>2015-12-28T08:47:23.000Z</time>
      </trkpt>
      <trkpt lat="43.8467" lon="6.46385">
        <ele>1441.229248</ele>
        <time>2015-12-28T08:47:28.000Z</time>
      </trkpt>
      <trkpt lat="43.84669" lon="6.46385">
        <ele>1441.444336</ele>
        <time>2015-12-28T08:47:33.000Z</time>
      </trkpt>
      <trkpt lat="43.84669" lon="6.46385">
        <ele>1441.649048</ele>
        <time>2015-12-28T08:47:38.000Z</time>
      </trkpt>
      <trkpt lat="43.84669" lon="6.46385">
        <ele>1441.631714</ele>
        <time>2015-12-28T08:47:43.000Z</time>
      </trkpt>
      <trkpt lat="43.84669" lon="6.46385">
        <ele>1441.627441</ele>
        <time>2015-12-28T08:47:48.000Z</time>
      </trkpt>
      <trkpt lat="43.84669" lon="6.46385">
        <ele>1441.514893</ele>
        <time>2015-12-28T08:47:53.000Z</time>
      </trkpt>
      <trkpt lat="43.84669" lon="6.46386">
        <ele>1441.157715</ele>
        <time>2015-12-28T08:47:58.000Z</time>
      </trkpt>
      <trkpt lat="43.84669" lon="6.46388">
        <ele>1440.676025</ele>
        <time>2015-12-28T08:48:03.000Z</time>
      </trkpt>
      <trkpt lat="43.84669" lon="6.46385">
        <ele>1439.432007</ele>
        <time>2015-12-28T08:48:08.000Z</time>
      </trkpt>
      <trkpt lat="43.84668" lon="6.46385">
        <ele>1439.388428</ele>
        <time>2015-12-28T08:48:13.000Z</time>
      </trkpt>
      <trkpt lat="43.84669" lon="6.46385">
        <ele>1439.793701</ele>
        <time>2015-12-28T08:48:18.000Z</time>
      </trkpt>
      <trkpt lat="43.84669" lon="6.46386">
        <ele>1440.076294</ele>
        <time>2015-12-28T08:48:23.000Z</time>
      </trkpt>
      <trkpt lat="43.84669" lon="6.46386">
        <ele>1439.890137</ele>
        <time>2015-12-28T08:48:28.000Z</time>
      </trkpt>
      <trkpt lat="43.84668" lon="6.46387">
        <ele>1439.72583</ele>
        <time>2015-12-28T08:48:33.000Z</time>
      </trkpt>
      <trkpt lat="43.84668" lon="6.46387">
        <ele>1439.427734</ele>
        <time>2015-12-28T08:48:38.000Z</time>
      </trkpt>
      <trkpt lat="43.84665" lon="6.46391">
        <ele>1438.650879</ele>
        <time>2015-12-28T08:48:43.000Z</time>
      </trkpt>
      <trkpt lat="43.84664" lon="6.46391">
        <ele>1438.109863</ele>
        <time>2015-12-28T08:48:48.000Z</time>
      </trkpt>
      <trkpt lat="43.84665" lon="6.46391">
        <ele>1438.130737</ele>
        <time>2015-12-28T08:48:53.000Z</time>
      </trkpt>
      <trkpt lat="43.84668" lon="6.46386">
        <ele>1439.031372</ele>
        <time>2015-12-28T08:48:58.000Z</time>
      </trkpt>
      <trkpt lat="43.84665" lon="6.46394">
        <ele>1438.618774</ele>
        <time>2015-12-28T08:49:03.000Z</time>
      </trkpt>
      <trkpt lat="43.84657" lon="6.46411">
        <ele>1437.438843</ele>
        <time>2015-12-28T08:49:08.000Z</time>
      </trkpt>
      <trkpt lat="43.84653" lon="6.4641">
        <ele>1437.240845</ele>
        <time>2015-12-28T08:49:13.000Z</time>
      </trkpt>
      <trkpt lat="43.84652" lon="6.46411">
        <ele>1436.924438</ele>
        <time>2015-12-28T08:49:18.000Z</time>
      </trkpt>
      <trkpt lat="43.84652" lon="6.46411">
        <ele>1436.891235</ele>
        <time>2015-12-28T08:49:23.000Z</time>
      </trkpt>
      <trkpt lat="43.84652" lon="6.46411">
        <ele>1436.920898</ele>
        <time>2015-12-28T08:49:28.000Z</time>
      </trkpt>
      <trkpt lat="43.84652" lon="6.46411">
        <ele>1436.885498</ele>
        <time>2015-12-28T08:49:33.000Z</time>
      </trkpt>
      <trkpt lat="43.84652" lon="6.46411">
        <ele>1436.884644</ele>
        <time>2015-12-28T08:49:38.000Z</time>
      </trkpt>
      <trkpt lat="43.84652" lon="6.46411">
        <ele>1436.88916</ele>
        <time>2015-12-28T08:49:43.000Z</time>
      </trkpt>
      <trkpt lat="43.84652" lon="6.46411">
        <ele>1436.890015</ele>
        <time>2015-12-28T08:49:48.000Z</time>
      </trkpt>
      <trkpt lat="43.84652" lon="6.46411">
        <ele>1436.897339</ele>
        <time>2015-12-28T08:49:53.000Z</time>
      </trkpt>
      <trkpt lat="43.84653" lon="6.46415">
        <ele>1437.118164</ele>
        <time>2015-12-28T08:49:58.000Z</time>
      </trkpt>
      <trkpt lat="43.84654" lon="6.46407">
        <ele>1436.901123</ele>
        <time>2015-12-28T08:50:03.000Z</time>
      </trkpt>
      <trkpt lat="43.84648" lon="6.46396">
        <ele>1433.432983</ele>
        <time>2015-12-28T08:50:08.000Z</time>
      </trkpt>
      <trkpt lat="43.84647" lon="6.46382">
        <ele>1430.607422</ele>
        <time>2015-12-28T08:50:13.000Z</time>
      </trkpt>
      <trkpt lat="43.84646" lon="6.46365">
        <ele>1427.45166</ele>
        <time>2015-12-28T08:50:18.000Z</time>
      </trkpt>
      <trkpt lat="43.84641" lon="6.46345">
        <ele>1423.999512</ele>
        <time>2015-12-28T08:50:23.000Z</time>
      </trkpt>
      <trkpt lat="43.84637" lon="6.46326">
        <ele>1421.479248</ele>
        <time>2015-12-28T08:50:28.000Z</time>
      </trkpt>
      <trkpt lat="43.84631" lon="6.46313">
        <ele>1418.852783</ele>
        <time>2015-12-28T08:50:33.000Z</time>
      </trkpt>
      <trkpt lat="43.84631" lon="6.46306">
        <ele>1417.845459</ele>
        <time>2015-12-28T08:50:38.000Z</time>
      </trkpt>
      <trkpt lat="43.84631" lon="6.46302">
        <ele>1416.84375</ele>
        <time>2015-12-28T08:50:43.000Z</time>
      </trkpt>
      <trkpt lat="43.84631" lon="6.46302">
        <ele>1416.762695</ele>
        <time>2015-12-28T08:50:48.000Z</time>
      </trkpt>
      <trkpt lat="43.84631" lon="6.46302">
        <ele>1416.892822</ele>
        <time>2015-12-28T08:50:53.000Z</time>
      </trkpt>
      <trkpt lat="43.84631" lon="6.46302">
        <ele>1416.945435</ele>
        <time>2015-12-28T08:50:58.000Z</time>
      </trkpt>
      <trkpt lat="43.84631" lon="6.46303">
        <ele>1417.12915</ele>
        <time>2015-12-28T08:51:03.000Z</time>
      </trkpt>
      <trkpt lat="43.84631" lon="6.46303">
        <ele>1417.054565</ele>
        <time>2015-12-28T08:51:08.000Z</time>
      </trkpt>
      <trkpt lat="43.84631" lon="6.46303">
        <ele>1417.28064</ele>
        <time>2015-12-28T08:51:13.000Z</time>
      </trkpt>
      <trkpt lat="43.84629" lon="6.46298">
        <ele>1416.011719</ele>
        <time>2015-12-28T08:51:18.000Z</time>
      </trkpt>
      <trkpt lat="43.84628" lon="6.46288">
        <ele>1413.505249</ele>
        <time>2015-12-28T08:51:23.000Z</time>
      </trkpt>
      <trkpt lat="43.84624" lon="6.46277">
        <ele>1410.762939</ele>
        <time>2015-12-28T08:51:28.000Z</time>
      </trkpt>
      <trkpt lat="43.84624" lon="6.46272">
        <ele>1409.67041</ele>
        <time>2015-12-28T08:51:33.000Z</time>
      </trkpt>
      <trkpt lat="43.84622" lon="6.46265">
        <ele>1408.836548</ele>
        <time>2015-12-28T08:51:38.000Z</time>
      </trkpt>
      <trkpt lat="43.84618" lon="6.46243">
        <ele>1404.704956</ele>
        <time>2015-12-28T08:51:43.000Z</time>
      </trkpt>
      <trkpt lat="43.84615" lon="6.46222">
        <ele>1401.747803</ele>
        <time>2015-12-28T08:51:48.000Z</time>
      </trkpt>
      <trkpt lat="43.84614" lon="6.46219">
        <ele>1401.067017</ele>
        <time>2015-12-28T08:51:53.000Z</time>
      </trkpt>
      <trkpt lat="43.84614" lon="6.46219">
        <ele>1401.00293</ele>
        <time>2015-12-28T08:51:58.000Z</time>
      </trkpt>
      <trkpt lat="43.84613" lon="6.46223">
        <ele>1401.497925</ele>
        <time>2015-12-28T08:52:03.000Z</time>
      </trkpt>
      <trkpt lat="43.84614" lon="6.46223">
        <ele>1401.510986</ele>
        <time>2015-12-28T08:52:08.000Z</time>
      </trkpt>
      <trkpt lat="43.84613" lon="6.46223">
        <ele>1401.530884</ele>
        <time>2015-12-28T08:52:13.000Z</time>
      </trkpt>
      <trkpt lat="43.84613" lon="6.46223">
        <ele>1401.530273</ele>
        <time>2015-12-28T08:52:18.000Z</time>
      </trkpt>
      <trkpt lat="43.84613" lon="6.46223">
        <ele>1401.531372</ele>
        <time>2015-12-28T08:52:23.000Z</time>
      </trkpt>
      <trkpt lat="43.84613" lon="6.46223">
        <ele>1401.525757</ele>
        <time>2015-12-28T08:52:28.000Z</time>
      </trkpt>
      <trkpt lat="43.84613" lon="6.46223">
        <ele>1401.531494</ele>
        <time>2015-12-28T08:52:33.000Z</time>
      </trkpt>
      <trkpt lat="43.84614" lon="6.46223">
        <ele>1401.50354</ele>
        <time>2015-12-28T08:52:38.000Z</time>
      </trkpt>
      <trkpt lat="43.84614" lon="6.46223">
        <ele>1401.561646</ele>
        <time>2015-12-28T08:52:43.000Z</time>
      </trkpt>
      <trkpt lat="43.84614" lon="6.46222">
        <ele>1402.173218</ele>
        <time>2015-12-28T08:52:48.000Z</time>
      </trkpt>
      <trkpt lat="43.84614" lon="6.46219">
        <ele>1402.445313</ele>
        <time>2015-12-28T08:52:53.000Z</time>
      </trkpt>
      <trkpt lat="43.84609" lon="6.46201">
        <ele>1398.593994</ele>
        <time>2015-12-28T08:52:58.000Z</time>
      </trkpt>
      <trkpt lat="43.84602" lon="6.46176">
        <ele>1393.233643</ele>
        <time>2015-12-28T08:53:03.000Z</time>
      </trkpt>
      <trkpt lat="43.84597" lon="6.46156">
        <ele>1389.275024</ele>
        <time>2015-12-28T08:53:08.000Z</time>
      </trkpt>
      <trkpt lat="43.84593" lon="6.46139">
        <ele>1386.195435</ele>
        <time>2015-12-28T08:53:13.000Z</time>
      </trkpt>
      <trkpt lat="43.84587" lon="6.4612">
        <ele>1383.158691</ele>
        <time>2015-12-28T08:53:18.000Z</time>
      </trkpt>
      <trkpt lat="43.84579" lon="6.461">
        <ele>1378.899658</ele>
        <time>2015-12-28T08:53:23.000Z</time>
      </trkpt>
      <trkpt lat="43.84565" lon="6.46082">
        <ele>1376.462524</ele>
        <time>2015-12-28T08:53:28.000Z</time>
      </trkpt>
      <trkpt lat="43.84556" lon="6.46077">
        <ele>1373.779663</ele>
        <time>2015-12-28T08:53:33.000Z</time>
      </trkpt>
      <trkpt lat="43.84557" lon="6.46081">
        <ele>1373.218384</ele>
        <time>2015-12-28T08:53:38.000Z</time>
      </trkpt>
      <trkpt lat="43.84556" lon="6.46082">
        <ele>1372.753418</ele>
        <time>2015-12-28T08:53:43.000Z</time>
      </trkpt>
      <trkpt lat="43.84557" lon="6.46082">
        <ele>1372.870728</ele>
        <time>2015-12-28T08:53:48.000Z</time>
      </trkpt>
      <trkpt lat="43.84557" lon="6.46082">
        <ele>1372.837524</ele>
        <time>2015-12-28T08:53:53.000Z</time>
      </trkpt>
      <trkpt lat="43.84556" lon="6.46082">
        <ele>1372.839722</ele>
        <time>2015-12-28T08:53:58.000Z</time>
      </trkpt>
      <trkpt lat="43.84557" lon="6.46082">
        <ele>1372.880981</ele>
        <time>2015-12-28T08:54:03.000Z</time>
      </trkpt>
      <trkpt lat="43.84557" lon="6.46081">
        <ele>1373.38855</ele>
        <time>2015-12-28T08:54:08.000Z</time>
      </trkpt>
      <trkpt lat="43.84555" lon="6.46087">
        <ele>1372.628174</ele>
        <time>2015-12-28T08:54:13.000Z</time>
      </trkpt>
      <trkpt lat="43.84554" lon="6.46095">
        <ele>1370.089111</ele>
        <time>2015-12-28T08:54:18.000Z</time>
      </trkpt>
      <trkpt lat="43.84552" lon="6.4611">
        <ele>1367.7146</ele>
        <time>2015-12-28T08:54:23.000Z</time>
      </trkpt>
      <trkpt lat="43.84548" lon="6.46116">
        <ele>1366.131958</ele>
        <time>2015-12-28T08:54:28.000Z</time>
      </trkpt>
      <trkpt lat="43.84541" lon="6.46114">
        <ele>1363.052002</ele>
        <time>2015-12-28T08:54:33.000Z</time>
      </trkpt>
      <trkpt lat="43.8453" lon="6.46116">
        <ele>1359.716064</ele>
        <time>2015-12-28T08:54:38.000Z</time>
      </trkpt>
      <trkpt lat="43.84521" lon="6.46122">
        <ele>1357.315552</ele>
        <time>2015-12-28T08:54:43.000Z</time>
      </trkpt>
      <trkpt lat="43.84514" lon="6.46123">
        <ele>1355.551636</ele>
        <time>2015-12-28T08:54:48.000Z</time>
      </trkpt>
      <trkpt lat="43.84505" lon="6.46125">
        <ele>1353.229736</ele>
        <time>2015-12-28T08:54:53.000Z</time>
      </trkpt>
      <trkpt lat="43.84492" lon="6.46126">
        <ele>1350.082153</ele>
        <time>2015-12-28T08:54:58.000Z</time>
      </trkpt>
      <trkpt lat="43.84486" lon="6.46128">
        <ele>1348.538208</ele>
        <time>2015-12-28T08:55:03.000Z</time>
      </trkpt>
      <trkpt lat="43.84479" lon="6.46131">
        <ele>1346.594238</ele>
        <time>2015-12-28T08:55:08.000Z</time>
      </trkpt>
      <trkpt lat="43.84468" lon="6.46138">
        <ele>1344.011108</ele>
        <time>2015-12-28T08:55:13.000Z</time>
      </trkpt>
      <trkpt lat="43.84463" lon="6.4616">
        <ele>1342.700928</ele>
        <time>2015-12-28T08:55:18.000Z</time>
      </trkpt>
      <trkpt lat="43.84457" lon="6.46184">
        <ele>1338.755493</ele>
        <time>2015-12-28T08:55:23.000Z</time>
      </trkpt>
      <trkpt lat="43.84457" lon="6.46211">
        <ele>1334.735229</ele>
        <time>2015-12-28T08:55:28.000Z</time>
      </trkpt>
      <trkpt lat="43.84449" lon="6.46224">
        <ele>1331.039795</ele>
        <time>2015-12-28T08:55:33.000Z</time>
      </trkpt>
      <trkpt lat="43.84445" lon="6.46239">
        <ele>1328.229736</ele>
        <time>2015-12-28T08:55:38.000Z</time>
      </trkpt>
      <trkpt lat="43.84439" lon="6.46269">
        <ele>1323.882202</ele>
        <time>2015-12-28T08:55:43.000Z</time>
      </trkpt>
      <trkpt lat="43.84434" lon="6.46288">
        <ele>1321.743042</ele>
        <time>2015-12-28T08:55:48.000Z</time>
      </trkpt>
      <trkpt lat="43.84429" lon="6.46294">
        <ele>1318.725098</ele>
        <time>2015-12-28T08:55:53.000Z</time>
      </trkpt>
      <trkpt lat="43.84426" lon="6.46292">
        <ele>1316.835571</ele>
        <time>2015-12-28T08:55:58.000Z</time>
      </trkpt>
      <trkpt lat="43.84424" lon="6.46282">
        <ele>1314.137451</ele>
        <time>2015-12-28T08:56:03.000Z</time>
      </trkpt>
      <trkpt lat="43.8442" lon="6.46268">
        <ele>1310.568604</ele>
        <time>2015-12-28T08:56:08.000Z</time>
      </trkpt>
      <trkpt lat="43.84416" lon="6.46247">
        <ele>1306.807373</ele>
        <time>2015-12-28T08:56:13.000Z</time>
      </trkpt>
      <trkpt lat="43.84412" lon="6.46235">
        <ele>1305.505737</ele>
        <time>2015-12-28T08:56:18.000Z</time>
      </trkpt>
      <trkpt lat="43.84412" lon="6.46235">
        <ele>1305.296997</ele>
        <time>2015-12-28T08:56:23.000Z</time>
      </trkpt>
      <trkpt lat="43.84411" lon="6.46232">
        <ele>1305.121094</ele>
        <time>2015-12-28T08:56:28.000Z</time>
      </trkpt>
      <trkpt lat="43.8441" lon="6.46232">
        <ele>1304.995361</ele>
        <time>2015-12-28T08:56:33.000Z</time>
      </trkpt>
      <trkpt lat="43.8441" lon="6.46231">
        <ele>1304.869629</ele>
        <time>2015-12-28T08:56:38.000Z</time>
      </trkpt>
      <trkpt lat="43.84408" lon="6.46223">
        <ele>1304.187744</ele>
        <time>2015-12-28T08:56:43.000Z</time>
      </trkpt>
      <trkpt lat="43.84402" lon="6.46207">
        <ele>1303.188477</ele>
        <time>2015-12-28T08:56:48.000Z</time>
      </trkpt>
      <trkpt lat="43.84392" lon="6.46198">
        <ele>1299.183228</ele>
        <time>2015-12-28T08:56:53.000Z</time>
      </trkpt>
      <trkpt lat="43.8438" lon="6.46187">
        <ele>1295.528564</ele>
        <time>2015-12-28T08:56:58.000Z</time>
      </trkpt>
      <trkpt lat="43.84369" lon="6.46177">
        <ele>1292.638916</ele>
        <time>2015-12-28T08:57:03.000Z</time>
      </trkpt>
      <trkpt lat="43.84356" lon="6.46172">
        <ele>1288.981689</ele>
        <time>2015-12-28T08:57:08.000Z</time>
      </trkpt>
      <trkpt lat="43.84342" lon="6.46166">
        <ele>1285.038574</ele>
        <time>2015-12-28T08:57:13.000Z</time>
      </trkpt>
      <trkpt lat="43.8433" lon="6.46159">
        <ele>1281.910278</ele>
        <time>2015-12-28T08:57:18.000Z</time>
      </trkpt>
      <trkpt lat="43.84319" lon="6.46155">
        <ele>1278.849365</ele>
        <time>2015-12-28T08:57:23.000Z</time>
      </trkpt>
      <trkpt lat="43.8431" lon="6.46151">
        <ele>1276.243774</ele>
        <time>2015-12-28T08:57:28.000Z</time>
      </trkpt>
      <trkpt lat="43.843" lon="6.46147">
        <ele>1273.112305</ele>
        <time>2015-12-28T08:57:33.000Z</time>
      </trkpt>
      <trkpt lat="43.84296" lon="6.46157">
        <ele>1270.818848</ele>
        <time>2015-12-28T08:57:38.000Z</time>
      </trkpt>
      <trkpt lat="43.84296" lon="6.46172">
        <ele>1267.806885</ele>
        <time>2015-12-28T08:57:43.000Z</time>
      </trkpt>
      <trkpt lat="43.84295" lon="6.46177">
        <ele>1266.89856</ele>
        <time>2015-12-28T08:57:48.000Z</time>
      </trkpt>
      <trkpt lat="43.84294" lon="6.4618">
        <ele>1265.683716</ele>
        <time>2015-12-28T08:57:53.000Z</time>
      </trkpt>
      <trkpt lat="43.84288" lon="6.46186">
        <ele>1263.077393</ele>
        <time>2015-12-28T08:57:58.000Z</time>
      </trkpt>
      <trkpt lat="43.84279" lon="6.46185">
        <ele>1259.552979</ele>
        <time>2015-12-28T08:58:03.000Z</time>
      </trkpt>
      <trkpt lat="43.84271" lon="6.46189">
        <ele>1256.594604</ele>
        <time>2015-12-28T08:58:08.000Z</time>
      </trkpt>
      <trkpt lat="43.84269" lon="6.46201">
        <ele>1254.624878</ele>
        <time>2015-12-28T08:58:13.000Z</time>
      </trkpt>
      <trkpt lat="43.84267" lon="6.46217">
        <ele>1251.952759</ele>
        <time>2015-12-28T08:58:18.000Z</time>
      </trkpt>
      <trkpt lat="43.84268" lon="6.46226">
        <ele>1249.533081</ele>
        <time>2015-12-28T08:58:23.000Z</time>
      </trkpt>
      <trkpt lat="43.84267" lon="6.46231">
        <ele>1247.533569</ele>
        <time>2015-12-28T08:58:28.000Z</time>
      </trkpt>
      <trkpt lat="43.84267" lon="6.46233">
        <ele>1246.869141</ele>
        <time>2015-12-28T08:58:33.000Z</time>
      </trkpt>
      <trkpt lat="43.84266" lon="6.46235">
        <ele>1245.682983</ele>
        <time>2015-12-28T08:58:38.000Z</time>
      </trkpt>
      <trkpt lat="43.84265" lon="6.46236">
        <ele>1244.714355</ele>
        <time>2015-12-28T08:58:43.000Z</time>
      </trkpt>
      <trkpt lat="43.84264" lon="6.46237">
        <ele>1243.38623</ele>
        <time>2015-12-28T08:58:48.000Z</time>
      </trkpt>
      <trkpt lat="43.84262" lon="6.46237">
        <ele>1241.752441</ele>
        <time>2015-12-28T08:58:53.000Z</time>
      </trkpt>
      <trkpt lat="43.84262" lon="6.46241">
        <ele>1241.277466</ele>
        <time>2015-12-28T08:58:58.000Z</time>
      </trkpt>
      <trkpt lat="43.84263" lon="6.46244">
        <ele>1240.685791</ele>
        <time>2015-12-28T08:59:03.000Z</time>
      </trkpt>
      <trkpt lat="43.84259" lon="6.46247">
        <ele>1240.759888</ele>
        <time>2015-12-28T08:59:08.000Z</time>
      </trkpt>
      <trkpt lat="43.8425" lon="6.46253">
        <ele>1240.191528</ele>
        <time>2015-12-28T08:59:13.000Z</time>
      </trkpt>
      <trkpt lat="43.84243" lon="6.46255">
        <ele>1238.86084</ele>
        <time>2015-12-28T08:59:18.000Z</time>
      </trkpt>
      <trkpt lat="43.8424" lon="6.4626">
        <ele>1239.035889</ele>
        <time>2015-12-28T08:59:23.000Z</time>
      </trkpt>
      <trkpt lat="43.84238" lon="6.46262">
        <ele>1237.775635</ele>
        <time>2015-12-28T08:59:28.000Z</time>
      </trkpt>
      <trkpt lat="43.84239" lon="6.46263">
        <ele>1236.673706</ele>
        <time>2015-12-28T08:59:33.000Z</time>
      </trkpt>
      <trkpt lat="43.84239" lon="6.46263">
        <ele>1237.663574</ele>
        <time>2015-12-28T08:59:38.000Z</time>
      </trkpt>
      <trkpt lat="43.84239" lon="6.46263">
        <ele>1238.45874</ele>
        <time>2015-12-28T08:59:43.000Z</time>
      </trkpt>
      <trkpt lat="43.84231" lon="6.46263">
        <ele>1236.828979</ele>
        <time>2015-12-28T08:59:48.000Z</time>
      </trkpt>
      <trkpt lat="43.84217" lon="6.46265">
        <ele>1230.603882</ele>
        <time>2015-12-28T08:59:53.000Z</time>
      </trkpt>
      <trkpt lat="43.84195" lon="6.4626">
        <ele>1224.522583</ele>
        <time>2015-12-28T08:59:58.000Z</time>
      </trkpt>
      <trkpt lat="43.84178" lon="6.46255">
        <ele>1221.133423</ele>
        <time>2015-12-28T09:00:03.000Z</time>
      </trkpt>
      <trkpt lat="43.84164" lon="6.46248">
        <ele>1216.071045</ele>
        <time>2015-12-28T09:00:08.000Z</time>
      </trkpt>
      <trkpt lat="43.8415" lon="6.46248">
        <ele>1211.0354</ele>
        <time>2015-12-28T09:00:13.000Z</time>
      </trkpt>
      <trkpt lat="43.84126" lon="6.46234">
        <ele>1206.656128</ele>
        <time>2015-12-28T09:00:18.000Z</time>
      </trkpt>
      <trkpt lat="43.84107" lon="6.46219">
        <ele>1203.359253</ele>
        <time>2015-12-28T09:00:23.000Z</time>
      </trkpt>
      <trkpt lat="43.84086" lon="6.46212">
        <ele>1200.663452</ele>
        <time>2015-12-28T09:00:28.000Z</time>
      </trkpt>
      <trkpt lat="43.84069" lon="6.46208">
        <ele>1196.393799</ele>
        <time>2015-12-28T09:00:33.000Z</time>
      </trkpt>
      <trkpt lat="43.84062" lon="6.46204">
        <ele>1196.273682</ele>
        <time>2015-12-28T09:00:38.000Z</time>
      </trkpt>
      <trkpt lat="43.84063" lon="6.46203">
        <ele>1195.454834</ele>
        <time>2015-12-28T09:00:43.000Z</time>
      </trkpt>
      <trkpt lat="43.84063" lon="6.46204">
        <ele>1196.194824</ele>
        <time>2015-12-28T09:00:48.000Z</time>
      </trkpt>
      <trkpt lat="43.84063" lon="6.46204">
        <ele>1196.634888</ele>
        <time>2015-12-28T09:00:53.000Z</time>
      </trkpt>
      <trkpt lat="43.84062" lon="6.46204">
        <ele>1197.11377</ele>
        <time>2015-12-28T09:00:58.000Z</time>
      </trkpt>
      <trkpt lat="43.84056" lon="6.46196">
        <ele>1195.097046</ele>
        <time>2015-12-28T09:01:03.000Z</time>
      </trkpt>
      <trkpt lat="43.84042" lon="6.46184">
        <ele>1189.361816</ele>
        <time>2015-12-28T09:01:08.000Z</time>
      </trkpt>
      <trkpt lat="43.84027" lon="6.46173">
        <ele>1184.733032</ele>
        <time>2015-12-28T09:01:13.000Z</time>
      </trkpt>
      <trkpt lat="43.84009" lon="6.46165">
        <ele>1180.722778</ele>
        <time>2015-12-28T09:01:18.000Z</time>
      </trkpt>
      <trkpt lat="43.8399" lon="6.46154">
        <ele>1178.142334</ele>
        <time>2015-12-28T09:01:23.000Z</time>
      </trkpt>
      <trkpt lat="43.83973" lon="6.46143">
        <ele>1174.74353</ele>
        <time>2015-12-28T09:01:28.000Z</time>
      </trkpt>
      <trkpt lat="43.83955" lon="6.46124">
        <ele>1167.955566</ele>
        <time>2015-12-28T09:01:33.000Z</time>
      </trkpt>
      <trkpt lat="43.83931" lon="6.46109">
        <ele>1162.799194</ele>
        <time>2015-12-28T09:01:38.000Z</time>
      </trkpt>
      <trkpt lat="43.83916" lon="6.46112">
        <ele>1161.935791</ele>
        <time>2015-12-28T09:01:43.000Z</time>
      </trkpt>
      <trkpt lat="43.83908" lon="6.46127">
        <ele>1158.829346</ele>
        <time>2015-12-28T09:01:48.000Z</time>
      </trkpt>
      <trkpt lat="43.83894" lon="6.46151">
        <ele>1153.451172</ele>
        <time>2015-12-28T09:01:53.000Z</time>
      </trkpt>
      <trkpt lat="43.83886" lon="6.46169">
        <ele>1149.937134</ele>
        <time>2015-12-28T09:01:58.000Z</time>
      </trkpt>
      <trkpt lat="43.83886" lon="6.4617">
        <ele>1148.507813</ele>
        <time>2015-12-28T09:02:03.000Z</time>
      </trkpt>
      <trkpt lat="43.83869" lon="6.46183">
        <ele>1146.875244</ele>
        <time>2015-12-28T09:02:08.000Z</time>
      </trkpt>
      <trkpt lat="43.83864" lon="6.46199">
        <ele>1144.454834</ele>
        <time>2015-12-28T09:02:13.000Z</time>
      </trkpt>
      <trkpt lat="43.83844" lon="6.46211">
        <ele>1139.532227</ele>
        <time>2015-12-28T09:02:18.000Z</time>
      </trkpt>
      <trkpt lat="43.83833" lon="6.46234">
        <ele>1133.21167</ele>
        <time>2015-12-28T09:02:23.000Z</time>
      </trkpt>
      <trkpt lat="43.83842" lon="6.46256">
        <ele>1128.182617</ele>
        <time>2015-12-28T09:02:28.000Z</time>
      </trkpt>
      <trkpt lat="43.83851" lon="6.46278">
        <ele>1123.060425</ele>
        <time>2015-12-28T09:02:33.000Z</time>
      </trkpt>
      <trkpt lat="43.83856" lon="6.46303">
        <ele>1117.836792</ele>
        <time>2015-12-28T09:02:38.000Z</time>
      </trkpt>
      <trkpt lat="43.83855" lon="6.46329">
        <ele>1112.774658</ele>
        <time>2015-12-28T09:02:43.000Z</time>
      </trkpt>
      <trkpt lat="43.83857" lon="6.46355">
        <ele>1108.389893</ele>
        <time>2015-12-28T09:02:48.000Z</time>
      </trkpt>
      <trkpt lat="43.83859" lon="6.46377">
        <ele>1104.926636</ele>
        <time>2015-12-28T09:02:53.000Z</time>
      </trkpt>
      <trkpt lat="43.83853" lon="6.46395">
        <ele>1101.11499</ele>
        <time>2015-12-28T09:02:58.000Z</time>
      </trkpt>
      <trkpt lat="43.83846" lon="6.46409">
        <ele>1097.960693</ele>
        <time>2015-12-28T09:03:03.000Z</time>
      </trkpt>
      <trkpt lat="43.83837" lon="6.46425">
        <ele>1094.407593</ele>
        <time>2015-12-28T09:03:08.000Z</time>
      </trkpt>
      <trkpt lat="43.83824" lon="6.46438">
        <ele>1090.030151</ele>
        <time>2015-12-28T09:03:13.000Z</time>
      </trkpt>
      <trkpt lat="43.83811" lon="6.46447">
        <ele>1086.243408</ele>
        <time>2015-12-28T09:03:18.000Z</time>
      </trkpt>
      <trkpt lat="43.838" lon="6.46456">
        <ele>1083.661255</ele>
        <time>2015-12-28T09:03:23.000Z</time>
      </trkpt>
      <trkpt lat="43.8379" lon="6.46442">
        <ele>1081.822632</ele>
        <time>2015-12-28T09:03:28.000Z</time>
      </trkpt>
      <trkpt lat="43.8379" lon="6.46442">
        <ele>1081.942993</ele>
        <time>2015-12-28T09:03:33.000Z</time>
      </trkpt>
      <trkpt lat="43.83793" lon="6.46448">
        <ele>1081.975098</ele>
        <time>2015-12-28T09:03:38.000Z</time>
      </trkpt>
      <trkpt lat="43.83793" lon="6.4645">
        <ele>1081.820679</ele>
        <time>2015-12-28T09:03:43.000Z</time>
      </trkpt>
      <trkpt lat="43.83793" lon="6.46446">
        <ele>1081.65918</ele>
        <time>2015-12-28T09:03:48.000Z</time>
      </trkpt>
      <trkpt lat="43.8379" lon="6.46441">
        <ele>1081.857056</ele>
        <time>2015-12-28T09:03:53.000Z</time>
      </trkpt>
      <trkpt lat="43.83786" lon="6.46434">
        <ele>1083.047241</ele>
        <time>2015-12-28T09:03:58.000Z</time>
      </trkpt>
      <trkpt lat="43.8378" lon="6.46427">
        <ele>1081.784668</ele>
        <time>2015-12-28T09:04:03.000Z</time>
      </trkpt>
      <trkpt lat="43.83778" lon="6.46426">
        <ele>1081.227173</ele>
        <time>2015-12-28T09:04:08.000Z</time>
      </trkpt>
      <trkpt lat="43.83778" lon="6.46426">
        <ele>1081.026123</ele>
        <time>2015-12-28T09:04:13.000Z</time>
      </trkpt>
      <trkpt lat="43.83778" lon="6.46426">
        <ele>1080.983154</ele>
        <time>2015-12-28T09:04:18.000Z</time>
      </trkpt>
      <trkpt lat="43.83778" lon="6.46426">
        <ele>1080.938599</ele>
        <time>2015-12-28T09:04:23.000Z</time>
      </trkpt>
      <trkpt lat="43.83778" lon="6.46426">
        <ele>1080.932617</ele>
        <time>2015-12-28T09:04:28.000Z</time>
      </trkpt>
      <trkpt lat="43.83778" lon="6.46426">
        <ele>1080.933594</ele>
        <time>2015-12-28T09:04:33.000Z</time>
      </trkpt>
      <trkpt lat="43.83778" lon="6.46426">
        <ele>1080.921387</ele>
        <time>2015-12-28T09:04:38.000Z</time>
      </trkpt>
      <trkpt lat="43.83778" lon="6.46426">
        <ele>1080.946411</ele>
        <time>2015-12-28T09:04:43.000Z</time>
      </trkpt>
      <trkpt lat="43.83778" lon="6.46426">
        <ele>1080.93396</ele>
        <time>2015-12-28T09:04:48.000Z</time>
      </trkpt>
      <trkpt lat="43.83778" lon="6.46426">
        <ele>1080.929932</ele>
        <time>2015-12-28T09:04:53.000Z</time>
      </trkpt>
      <trkpt lat="43.83778" lon="6.46426">
        <ele>1080.937866</ele>
        <time>2015-12-28T09:04:58.000Z</time>
      </trkpt>
      <trkpt lat="43.83778" lon="6.46426">
        <ele>1080.962524</ele>
        <time>2015-12-28T09:05:03.000Z</time>
      </trkpt>
      <trkpt lat="43.83778" lon="6.46426">
        <ele>1080.980347</ele>
        <time>2015-12-28T09:05:08.000Z</time>
      </trkpt>
      <trkpt lat="43.83778" lon="6.46426">
        <ele>1080.97876</ele>
        <time>2015-12-28T09:05:13.000Z</time>
      </trkpt>
      <trkpt lat="43.8378" lon="6.46427">
        <ele>1080.962646</ele>
        <time>2015-12-28T09:05:18.000Z</time>
      </trkpt>
      <trkpt lat="43.83784" lon="6.46434">
        <ele>1080.864746</ele>
        <time>2015-12-28T09:05:23.000Z</time>
      </trkpt>
      <trkpt lat="43.8379" lon="6.46439">
        <ele>1080.681885</ele>
        <time>2015-12-28T09:05:28.000Z</time>
      </trkpt>
      <trkpt lat="43.83794" lon="6.46447">
        <ele>1080.746582</ele>
        <time>2015-12-28T09:05:33.000Z</time>
      </trkpt>
      <trkpt lat="43.83796" lon="6.46449">
        <ele>1080.990479</ele>
        <time>2015-12-28T09:05:38.000Z</time>
      </trkpt>
      <trkpt lat="43.83797" lon="6.46449">
        <ele>1080.691895</ele>
        <time>2015-12-28T09:05:43.000Z</time>
      </trkpt>
      <trkpt lat="43.83795" lon="6.46447">
        <ele>1080.457275</ele>
        <time>2015-12-28T09:05:48.000Z</time>
      </trkpt>
      <trkpt lat="43.83795" lon="6.46448">
        <ele>1079.944336</ele>
        <time>2015-12-28T09:05:53.000Z</time>
      </trkpt>
      <trkpt lat="43.83795" lon="6.46447">
        <ele>1079.733276</ele>
        <time>2015-12-28T09:05:58.000Z</time>
      </trkpt>
      <trkpt lat="43.83795" lon="6.46447">
        <ele>1079.609009</ele>
        <time>2015-12-28T09:06:03.000Z</time>
      </trkpt>
      <trkpt lat="43.83795" lon="6.46447">
        <ele>1079.586914</ele>
        <time>2015-12-28T09:06:08.000Z</time>
      </trkpt>
      <trkpt lat="43.83795" lon="6.46448">
        <ele>1079.667114</ele>
        <time>2015-12-28T09:06:13.000Z</time>
      </trkpt>
      <trkpt lat="43.83795" lon="6.46446">
        <ele>1079.983887</ele>
        <time>2015-12-28T09:06:18.000Z</time>
      </trkpt>
      <trkpt lat="43.83794" lon="6.46448">
        <ele>1080.008789</ele>
        <time>2015-12-28T09:06:23.000Z</time>
      </trkpt>
      <trkpt lat="43.83794" lon="6.46449">
        <ele>1080.083496</ele>
        <time>2015-12-28T09:06:28.000Z</time>
      </trkpt>
      <trkpt lat="43.83794" lon="6.46448">
        <ele>1080.076416</ele>
        <time>2015-12-28T09:06:33.000Z</time>
      </trkpt>
      <trkpt lat="43.83794" lon="6.46448">
        <ele>1080.114868</ele>
        <time>2015-12-28T09:06:38.000Z</time>
      </trkpt>
      <trkpt lat="43.83794" lon="6.46448">
        <ele>1080.12793</ele>
        <time>2015-12-28T09:06:43.000Z</time>
      </trkpt>
      <trkpt lat="43.83794" lon="6.46448">
        <ele>1080.131348</ele>
        <time>2015-12-28T09:06:48.000Z</time>
      </trkpt>
      <trkpt lat="43.83794" lon="6.46448">
        <ele>1080.330078</ele>
        <time>2015-12-28T09:06:53.000Z</time>
      </trkpt>
      <trkpt lat="43.83794" lon="6.46448">
        <ele>1080.461914</ele>
        <time>2015-12-28T09:06:58.000Z</time>
      </trkpt>
      <trkpt lat="43.83794" lon="6.46448">
        <ele>1080.46936</ele>
        <time>2015-12-28T09:07:03.000Z</time>
      </trkpt>
      <trkpt lat="43.83794" lon="6.46448">
        <ele>1080.476929</ele>
        <time>2015-12-28T09:07:08.000Z</time>
      </trkpt>
      <trkpt lat="43.83794" lon="6.46448">
        <ele>1080.479736</ele>
        <time>2015-12-28T09:07:13.000Z</time>
      </trkpt>
      <trkpt lat="43.83794" lon="6.46448">
        <ele>1080.48999</ele>
        <time>2015-12-28T09:07:18.000Z</time>
      </trkpt>
      <trkpt lat="43.83792" lon="6.46444">
        <ele>1080.771118</ele>
        <time>2015-12-28T09:07:23.000Z</time>
      </trkpt>
      <trkpt lat="43.83787" lon="6.46436">
        <ele>1080.905151</ele>
        <time>2015-12-28T09:07:28.000Z</time>
      </trkpt>
      <trkpt lat="43.83782" lon="6.46429">
        <ele>1080.952393</ele>
        <time>2015-12-28T09:07:33.000Z</time>
      </trkpt>
      <trkpt lat="43.8378" lon="6.46426">
        <ele>1081.395874</ele>
        <time>2015-12-28T09:07:38.000Z</time>
      </trkpt>
      <trkpt lat="43.83775" lon="6.46419">
        <ele>1081.556396</ele>
        <time>2015-12-28T09:07:43.000Z</time>
      </trkpt>
      <trkpt lat="43.83769" lon="6.46412">
        <ele>1081.772705</ele>
        <time>2015-12-28T09:07:48.000Z</time>
      </trkpt>
      <trkpt lat="43.83765" lon="6.46406">
        <ele>1082.641479</ele>
        <time>2015-12-28T09:07:53.000Z</time>
      </trkpt>
      <trkpt lat="43.83764" lon="6.464">
        <ele>1083.80188</ele>
        <time>2015-12-28T09:07:58.000Z</time>
      </trkpt>
      <trkpt lat="43.83765" lon="6.46396">
        <ele>1084.390015</ele>
        <time>2015-12-28T09:08:03.000Z</time>
      </trkpt>
      <trkpt lat="43.83766" lon="6.46393">
        <ele>1084.753662</ele>
        <time>2015-12-28T09:08:08.000Z</time>
      </trkpt>
      <trkpt lat="43.83767" lon="6.46387">
        <ele>1085.83667</ele>
        <time>2015-12-28T09:08:13.000Z</time>
      </trkpt>
      <trkpt lat="43.83769" lon="6.4638">
        <ele>1087.131836</ele>
        <time>2015-12-28T09:08:18.000Z</time>
      </trkpt>
      <trkpt lat="43.83771" lon="6.46375">
        <ele>1088.403687</ele>
        <time>2015-12-28T09:08:23.000Z</time>
      </trkpt>
      <trkpt lat="43.83773" lon="6.46371">
        <ele>1089.846069</ele>
        <time>2015-12-28T09:08:28.000Z</time>
      </trkpt>
      <trkpt lat="43.83774" lon="6.46367">
        <ele>1090.806641</ele>
        <time>2015-12-28T09:08:33.000Z</time>
      </trkpt>
      <trkpt lat="43.83775" lon="6.46363">
        <ele>1092.201538</ele>
        <time>2015-12-28T09:08:38.000Z</time>
      </trkpt>
      <trkpt lat="43.83776" lon="6.46358">
        <ele>1093.554321</ele>
        <time>2015-12-28T09:08:43.000Z</time>
      </trkpt>
      <trkpt lat="43.83776" lon="6.46353">
        <ele>1094.827759</ele>
        <time>2015-12-28T09:08:48.000Z</time>
      </trkpt>
      <trkpt lat="43.83775" lon="6.46348">
        <ele>1096.227905</ele>
        <time>2015-12-28T09:08:53.000Z</time>
      </trkpt>
      <trkpt lat="43.83772" lon="6.46343">
        <ele>1097.310425</ele>
        <time>2015-12-28T09:08:58.000Z</time>
      </trkpt>
      <trkpt lat="43.83767" lon="6.46341">
        <ele>1098.257935</ele>
        <time>2015-12-28T09:09:03.000Z</time>
      </trkpt>
      <trkpt lat="43.83764" lon="6.46339">
        <ele>1099.375244</ele>
        <time>2015-12-28T09:09:08.000Z</time>
      </trkpt>
      <trkpt lat="43.83767" lon="6.4634">
        <ele>1099.012573</ele>
        <time>2015-12-28T09:09:13.000Z</time>
      </trkpt>
      <trkpt lat="43.83773" lon="6.46345">
        <ele>1097.436035</ele>
        <time>2015-12-28T09:09:18.000Z</time>
      </trkpt>
      <trkpt lat="43.83776" lon="6.46352">
        <ele>1095.778687</ele>
        <time>2015-12-28T09:09:23.000Z</time>
      </trkpt>
      <trkpt lat="43.83776" lon="6.4636">
        <ele>1094.426025</ele>
        <time>2015-12-28T09:09:28.000Z</time>
      </trkpt>
      <trkpt lat="43.83776" lon="6.46359">
        <ele>1094.515137</ele>
        <time>2015-12-28T09:09:33.000Z</time>
      </trkpt>
      <trkpt lat="43.83776" lon="6.46354">
        <ele>1095.529297</ele>
        <time>2015-12-28T09:09:38.000Z</time>
      </trkpt>
      <trkpt lat="43.83775" lon="6.46348">
        <ele>1096.730835</ele>
        <time>2015-12-28T09:09:43.000Z</time>
      </trkpt>
      <trkpt lat="43.83772" lon="6.46343">
        <ele>1097.815674</ele>
        <time>2015-12-28T09:09:48.000Z</time>
      </trkpt>
      <trkpt lat="43.83767" lon="6.46341">
        <ele>1098.623169</ele>
        <time>2015-12-28T09:09:53.000Z</time>
      </trkpt>
      <trkpt lat="43.83764" lon="6.46339">
        <ele>1099.266968</ele>
        <time>2015-12-28T09:09:58.000Z</time>
      </trkpt>
      <trkpt lat="43.83764" lon="6.46339">
        <ele>1099.32251</ele>
        <time>2015-12-28T09:10:03.000Z</time>
      </trkpt>
      <trkpt lat="43.83761" lon="6.46338">
        <ele>1099.585693</ele>
        <time>2015-12-28T09:10:08.000Z</time>
      </trkpt>
      <trkpt lat="43.8376" lon="6.46338">
        <ele>1099.790161</ele>
        <time>2015-12-28T09:10:13.000Z</time>
      </trkpt>
      <trkpt lat="43.8376" lon="6.46337">
        <ele>1099.951782</ele>
        <time>2015-12-28T09:10:18.000Z</time>
      </trkpt>
      <trkpt lat="43.8376" lon="6.46337">
        <ele>1099.866577</ele>
        <time>2015-12-28T09:10:23.000Z</time>
      </trkpt>
      <trkpt lat="43.83758" lon="6.46336">
        <ele>1099.849731</ele>
        <time>2015-12-28T09:10:28.000Z</time>
      </trkpt>
      <trkpt lat="43.83749" lon="6.46334">
        <ele>1100.042969</ele>
        <time>2015-12-28T09:10:33.000Z</time>
      </trkpt>
      <trkpt lat="43.8374" lon="6.4633">
        <ele>1100.199341</ele>
        <time>2015-12-28T09:10:38.000Z</time>
      </trkpt>
      <trkpt lat="43.83731" lon="6.46324">
        <ele>1100.213989</ele>
        <time>2015-12-28T09:10:43.000Z</time>
      </trkpt>
      <trkpt lat="43.83723" lon="6.46316">
        <ele>1100.514282</ele>
        <time>2015-12-28T09:10:48.000Z</time>
      </trkpt>
      <trkpt lat="43.83716" lon="6.46308">
        <ele>1100.951538</ele>
        <time>2015-12-28T09:10:53.000Z</time>
      </trkpt>
      <trkpt lat="43.8371" lon="6.46299">
        <ele>1101.815186</ele>
        <time>2015-12-28T09:10:58.000Z</time>
      </trkpt>
      <trkpt lat="43.83705" lon="6.46289">
        <ele>1102.917603</ele>
        <time>2015-12-28T09:11:03.000Z</time>
      </trkpt>
      <trkpt lat="43.83702" lon="6.46279">
        <ele>1103.61145</ele>
        <time>2015-12-28T09:11:08.000Z</time>
      </trkpt>
      <trkpt lat="43.837" lon="6.4627">
        <ele>1104.581543</ele>
        <time>2015-12-28T09:11:13.000Z</time>
      </trkpt>
      <trkpt lat="43.83697" lon="6.4626">
        <ele>1105.504517</ele>
        <time>2015-12-28T09:11:18.000Z</time>
      </trkpt>
      <trkpt lat="43.83695" lon="6.4625">
        <ele>1106.213257</ele>
        <time>2015-12-28T09:11:23.000Z</time>
      </trkpt>
      <trkpt lat="43.83694" lon="6.46242">
        <ele>1106.31958</ele>
        <time>2015-12-28T09:11:28.000Z</time>
      </trkpt>
      <trkpt lat="43.83693" lon="6.46242">
        <ele>1106.002441</ele>
        <time>2015-12-28T09:11:33.000Z</time>
      </trkpt>
      <trkpt lat="43.83693" lon="6.46242">
        <ele>1105.946045</ele>
        <time>2015-12-28T09:11:38.000Z</time>
      </trkpt>
      <trkpt lat="43.83693" lon="6.46242">
        <ele>1105.934814</ele>
        <time>2015-12-28T09:11:43.000Z</time>
      </trkpt>
      <trkpt lat="43.83693" lon="6.46242">
        <ele>1105.925415</ele>
        <time>2015-12-28T09:11:48.000Z</time>
      </trkpt>
      <trkpt lat="43.83693" lon="6.46242">
        <ele>1105.918091</ele>
        <time>2015-12-28T09:11:53.000Z</time>
      </trkpt>
      <trkpt lat="43.83693" lon="6.46242">
        <ele>1105.908325</ele>
        <time>2015-12-28T09:11:58.000Z</time>
      </trkpt>
      <trkpt lat="43.83693" lon="6.46242">
        <ele>1105.900757</ele>
        <time>2015-12-28T09:12:03.000Z</time>
      </trkpt>
      <trkpt lat="43.83693" lon="6.46242">
        <ele>1105.892212</ele>
        <time>2015-12-28T09:12:08.000Z</time>
      </trkpt>
      <trkpt lat="43.83693" lon="6.46242">
        <ele>1105.874878</ele>
        <time>2015-12-28T09:12:13.000Z</time>
      </trkpt>
      <trkpt lat="43.83693" lon="6.46242">
        <ele>1105.861328</ele>
        <time>2015-12-28T09:12:18.000Z</time>
      </trkpt>
      <trkpt lat="43.83693" lon="6.46242">
        <ele>1105.845947</ele>
        <time>2015-12-28T09:12:23.000Z</time>
      </trkpt>
      <trkpt lat="43.83693" lon="6.46242">
        <ele>1105.834961</ele>
        <time>2015-12-28T09:12:28.000Z</time>
      </trkpt>
      <trkpt lat="43.83693" lon="6.46242">
        <ele>1105.817871</ele>
        <time>2015-12-28T09:12:33.000Z</time>
      </trkpt>
      <trkpt lat="43.83691" lon="6.46231">
        <ele>1106.433228</ele>
        <time>2015-12-28T09:12:38.000Z</time>
      </trkpt>
      <trkpt lat="43.83687" lon="6.46216">
        <ele>1107.232788</ele>
        <time>2015-12-28T09:12:43.000Z</time>
      </trkpt>
      <trkpt lat="43.83684" lon="6.46202">
        <ele>1108.333618</ele>
        <time>2015-12-28T09:12:48.000Z</time>
      </trkpt>
      <trkpt lat="43.83683" lon="6.4619">
        <ele>1110.224243</ele>
        <time>2015-12-28T09:12:53.000Z</time>
      </trkpt>
      <trkpt lat="43.83682" lon="6.46179">
        <ele>1112.26416</ele>
        <time>2015-12-28T09:12:58.000Z</time>
      </trkpt>
      <trkpt lat="43.83682" lon="6.46171">
        <ele>1113.5354</ele>
        <time>2015-12-28T09:13:03.000Z</time>
      </trkpt>
      <trkpt lat="43.83681" lon="6.46169">
        <ele>1113.383789</ele>
        <time>2015-12-28T09:13:08.000Z</time>
      </trkpt>
      <trkpt lat="43.83682" lon="6.46164">
        <ele>1114.633179</ele>
        <time>2015-12-28T09:13:13.000Z</time>
      </trkpt>
      <trkpt lat="43.83684" lon="6.46157">
        <ele>1116.623291</ele>
        <time>2015-12-28T09:13:18.000Z</time>
      </trkpt>
      <trkpt lat="43.83686" lon="6.46151">
        <ele>1118.008057</ele>
        <time>2015-12-28T09:13:23.000Z</time>
      </trkpt>
      <trkpt lat="43.8369" lon="6.46145">
        <ele>1119.020874</ele>
        <time>2015-12-28T09:13:28.000Z</time>
      </trkpt>
      <trkpt lat="43.83691" lon="6.46143">
        <ele>1118.948975</ele>
        <time>2015-12-28T09:13:33.000Z</time>
      </trkpt>
      <trkpt lat="43.83691" lon="6.46143">
        <ele>1118.96582</ele>
        <time>2015-12-28T09:13:38.000Z</time>
      </trkpt>
      <trkpt lat="43.83691" lon="6.46143">
        <ele>1118.961792</ele>
        <time>2015-12-28T09:13:43.000Z</time>
      </trkpt>
      <trkpt lat="43.83691" lon="6.46143">
        <ele>1118.958618</ele>
        <time>2015-12-28T09:13:48.000Z</time>
      </trkpt>
      <trkpt lat="43.83691" lon="6.46143">
        <ele>1118.966064</ele>
        <time>2015-12-28T09:13:53.000Z</time>
      </trkpt>
      <trkpt lat="43.83691" lon="6.46143">
        <ele>1118.963867</ele>
        <time>2015-12-28T09:13:58.000Z</time>
      </trkpt>
      <trkpt lat="43.83691" lon="6.46143">
        <ele>1118.963745</ele>
        <time>2015-12-28T09:14:03.000Z</time>
      </trkpt>
      <trkpt lat="43.83691" lon="6.46143">
        <ele>1118.970459</ele>
        <time>2015-12-28T09:14:08.000Z</time>
      </trkpt>
      <trkpt lat="43.83693" lon="6.46141">
        <ele>1118.901245</ele>
        <time>2015-12-28T09:14:13.000Z</time>
      </trkpt>
      <trkpt lat="43.83698" lon="6.46134">
        <ele>1119.425903</ele>
        <time>2015-12-28T09:14:18.000Z</time>
      </trkpt>
      <trkpt lat="43.83709" lon="6.4612">
        <ele>1118.820435</ele>
        <time>2015-12-28T09:14:23.000Z</time>
      </trkpt>
      <trkpt lat="43.83726" lon="6.46096">
        <ele>1115.630859</ele>
        <time>2015-12-28T09:14:28.000Z</time>
      </trkpt>
      <trkpt lat="43.83744" lon="6.46061">
        <ele>1112.562378</ele>
        <time>2015-12-28T09:14:33.000Z</time>
      </trkpt>
      <trkpt lat="43.83766" lon="6.46034">
        <ele>1110.276001</ele>
        <time>2015-12-28T09:14:38.000Z</time>
      </trkpt>
      <trkpt lat="43.83782" lon="6.46011">
        <ele>1109.41394</ele>
        <time>2015-12-28T09:14:43.000Z</time>
      </trkpt>
      <trkpt lat="43.83793" lon="6.45985">
        <ele>1110.244629</ele>
        <time>2015-12-28T09:14:48.000Z</time>
      </trkpt>
      <trkpt lat="43.83796" lon="6.45963">
        <ele>1111.353638</ele>
        <time>2015-12-28T09:14:53.000Z</time>
      </trkpt>
      <trkpt lat="43.83795" lon="6.45947">
        <ele>1113.759766</ele>
        <time>2015-12-28T09:14:58.000Z</time>
      </trkpt>
      <trkpt lat="43.83794" lon="6.45935">
        <ele>1114.963745</ele>
        <time>2015-12-28T09:15:03.000Z</time>
      </trkpt>
      <trkpt lat="43.83794" lon="6.45925">
        <ele>1116.484619</ele>
        <time>2015-12-28T09:15:08.000Z</time>
      </trkpt>
      <trkpt lat="43.83793" lon="6.45916">
        <ele>1117.657104</ele>
        <time>2015-12-28T09:15:13.000Z</time>
      </trkpt>
      <trkpt lat="43.83793" lon="6.45907">
        <ele>1118.39502</ele>
        <time>2015-12-28T09:15:18.000Z</time>
      </trkpt>
      <trkpt lat="43.83794" lon="6.45896">
        <ele>1119.181641</ele>
        <time>2015-12-28T09:15:23.000Z</time>
      </trkpt>
      <trkpt lat="43.83794" lon="6.45886">
        <ele>1119.873169</ele>
        <time>2015-12-28T09:15:28.000Z</time>
      </trkpt>
      <trkpt lat="43.83793" lon="6.45874">
        <ele>1120.259521</ele>
        <time>2015-12-28T09:15:33.000Z</time>
      </trkpt>
      <trkpt lat="43.83792" lon="6.45861">
        <ele>1120.27478</ele>
        <time>2015-12-28T09:15:38.000Z</time>
      </trkpt>
      <trkpt lat="43.83788" lon="6.45845">
        <ele>1119.624512</ele>
        <time>2015-12-28T09:15:43.000Z</time>
      </trkpt>
      <trkpt lat="43.83789" lon="6.45819">
        <ele>1119.165649</ele>
        <time>2015-12-28T09:15:48.000Z</time>
      </trkpt>
      <trkpt lat="43.83791" lon="6.45797">
        <ele>1118.496216</ele>
        <time>2015-12-28T09:15:53.000Z</time>
      </trkpt>
      <trkpt lat="43.83792" lon="6.45784">
        <ele>1117.53064</ele>
        <time>2015-12-28T09:15:58.000Z</time>
      </trkpt>
      <trkpt lat="43.83793" lon="6.45784">
        <ele>1117.716797</ele>
        <time>2015-12-28T09:16:03.000Z</time>
      </trkpt>
      <trkpt lat="43.83793" lon="6.45784">
        <ele>1117.686401</ele>
        <time>2015-12-28T09:16:08.000Z</time>
      </trkpt>
      <trkpt lat="43.83793" lon="6.45784">
        <ele>1117.656616</ele>
        <time>2015-12-28T09:16:13.000Z</time>
      </trkpt>
      <trkpt lat="43.83793" lon="6.45784">
        <ele>1117.594971</ele>
        <time>2015-12-28T09:16:18.000Z</time>
      </trkpt>
      <trkpt lat="43.83793" lon="6.45784">
        <ele>1117.629517</ele>
        <time>2015-12-28T09:16:23.000Z</time>
      </trkpt>
      <trkpt lat="43.83798" lon="6.45768">
        <ele>1116.492676</ele>
        <time>2015-12-28T09:16:28.000Z</time>
      </trkpt>
      <trkpt lat="43.83815" lon="6.45735">
        <ele>1113.332642</ele>
        <time>2015-12-28T09:16:33.000Z</time>
      </trkpt>
      <trkpt lat="43.83837" lon="6.45693">
        <ele>1109.257813</ele>
        <time>2015-12-28T09:16:38.000Z</time>
      </trkpt>
      <trkpt lat="43.83857" lon="6.45652">
        <ele>1105.758423</ele>
        <time>2015-12-28T09:16:43.000Z</time>
      </trkpt>
      <trkpt lat="43.8387" lon="6.45611">
        <ele>1101.514404</ele>
        <time>2015-12-28T09:16:48.000Z</time>
      </trkpt>
      <trkpt lat="43.83882" lon="6.45563">
        <ele>1098.863281</ele>
        <time>2015-12-28T09:16:53.000Z</time>
      </trkpt>
      <trkpt lat="43.83886" lon="6.45519">
        <ele>1096.168823</ele>
        <time>2015-12-28T09:16:58.000Z</time>
      </trkpt>
      <trkpt lat="43.83889" lon="6.45498">
        <ele>1092.79541</ele>
        <time>2015-12-28T09:17:03.000Z</time>
      </trkpt>
      <trkpt lat="43.83889" lon="6.455">
        <ele>1092.567383</ele>
        <time>2015-12-28T09:17:08.000Z</time>
      </trkpt>
      <trkpt lat="43.83889" lon="6.45499">
        <ele>1092.720093</ele>
        <time>2015-12-28T09:17:13.000Z</time>
      </trkpt>
      <trkpt lat="43.8389" lon="6.45499">
        <ele>1092.406494</ele>
        <time>2015-12-28T09:17:18.000Z</time>
      </trkpt>
      <trkpt lat="43.83892" lon="6.45488">
        <ele>1091.321899</ele>
        <time>2015-12-28T09:17:23.000Z</time>
      </trkpt>
      <trkpt lat="43.83886" lon="6.45447">
        <ele>1088.219238</ele>
        <time>2015-12-28T09:17:28.000Z</time>
      </trkpt>
      <trkpt lat="43.83869" lon="6.45409">
        <ele>1087.871826</ele>
        <time>2015-12-28T09:17:33.000Z</time>
      </trkpt>
      <trkpt lat="43.83859" lon="6.45378">
        <ele>1088.114746</ele>
        <time>2015-12-28T09:17:38.000Z</time>
      </trkpt>
      <trkpt lat="43.83845" lon="6.45354">
        <ele>1087.006836</ele>
        <time>2015-12-28T09:17:43.000Z</time>
      </trkpt>
      <trkpt lat="43.83834" lon="6.45337">
        <ele>1086.549561</ele>
        <time>2015-12-28T09:17:48.000Z</time>
      </trkpt>
      <trkpt lat="43.83825" lon="6.45316">
        <ele>1086.165649</ele>
        <time>2015-12-28T09:17:53.000Z</time>
      </trkpt>
      <trkpt lat="43.83827" lon="6.45287">
        <ele>1086.393066</ele>
        <time>2015-12-28T09:17:58.000Z</time>
      </trkpt>
      <trkpt lat="43.83827" lon="6.45264">
        <ele>1088.628418</ele>
        <time>2015-12-28T09:18:03.000Z</time>
      </trkpt>
      <trkpt lat="43.83828" lon="6.45243">
        <ele>1089.078735</ele>
        <time>2015-12-28T09:18:08.000Z</time>
      </trkpt>
      <trkpt lat="43.83831" lon="6.45231">
        <ele>1090.599731</ele>
        <time>2015-12-28T09:18:13.000Z</time>
      </trkpt>
      <trkpt lat="43.83831" lon="6.45229">
        <ele>1090.714233</ele>
        <time>2015-12-28T09:18:18.000Z</time>
      </trkpt>
      <trkpt lat="43.83833" lon="6.45226">
        <ele>1090.823608</ele>
        <time>2015-12-28T09:18:23.000Z</time>
      </trkpt>
      <trkpt lat="43.83838" lon="6.45221">
        <ele>1091.876221</ele>
        <time>2015-12-28T09:18:28.000Z</time>
      </trkpt>
      <trkpt lat="43.83843" lon="6.45217">
        <ele>1094.050903</ele>
        <time>2015-12-28T09:18:33.000Z</time>
      </trkpt>
      <trkpt lat="43.83846" lon="6.45215">
        <ele>1095.645386</ele>
        <time>2015-12-28T09:18:38.000Z</time>
      </trkpt>
      <trkpt lat="43.83846" lon="6.45216">
        <ele>1095.469971</ele>
        <time>2015-12-28T09:18:43.000Z</time>
      </trkpt>
      <trkpt lat="43.83847" lon="6.4521">
        <ele>1095.483154</ele>
        <time>2015-12-28T09:18:48.000Z</time>
      </trkpt>
      <trkpt lat="43.8385" lon="6.452">
        <ele>1094.594727</ele>
        <time>2015-12-28T09:18:53.000Z</time>
      </trkpt>
      <trkpt lat="43.83851" lon="6.45198">
        <ele>1094.25769</ele>
        <time>2015-12-28T09:18:58.000Z</time>
      </trkpt>
      <trkpt lat="43.83849" lon="6.45197">
        <ele>1093.75354</ele>
        <time>2015-12-28T09:19:03.000Z</time>
      </trkpt>
      <trkpt lat="43.83849" lon="6.45197">
        <ele>1093.766113</ele>
        <time>2015-12-28T09:19:08.000Z</time>
      </trkpt>
      <trkpt lat="43.83849" lon="6.45197">
        <ele>1093.80957</ele>
        <time>2015-12-28T09:19:13.000Z</time>
      </trkpt>
      <trkpt lat="43.8385" lon="6.45198">
        <ele>1094.105957</ele>
        <time>2015-12-28T09:19:18.000Z</time>
      </trkpt>
      <trkpt lat="43.83854" lon="6.45191">
        <ele>1093.820923</ele>
        <time>2015-12-28T09:19:23.000Z</time>
      </trkpt>
      <trkpt lat="43.83863" lon="6.4518">
        <ele>1093.46582</ele>
        <time>2015-12-28T09:19:28.000Z</time>
      </trkpt>
      <trkpt lat="43.83874" lon="6.45172">
        <ele>1093.883911</ele>
        <time>2015-12-28T09:19:33.000Z</time>
      </trkpt>
      <trkpt lat="43.83888" lon="6.45165">
        <ele>1092.852295</ele>
        <time>2015-12-28T09:19:38.000Z</time>
      </trkpt>
      <trkpt lat="43.839" lon="6.4516">
        <ele>1093.574097</ele>
        <time>2015-12-28T09:19:43.000Z</time>
      </trkpt>
      <trkpt lat="43.83913" lon="6.45156">
        <ele>1092.746216</ele>
        <time>2015-12-28T09:19:48.000Z</time>
      </trkpt>
      <trkpt lat="43.83925" lon="6.45153">
        <ele>1092.427002</ele>
        <time>2015-12-28T09:19:53.000Z</time>
      </trkpt>
      <trkpt lat="43.8393" lon="6.45153">
        <ele>1092.259277</ele>
        <time>2015-12-28T09:19:58.000Z</time>
      </trkpt>
      <trkpt lat="43.83935" lon="6.45152">
        <ele>1091.956055</ele>
        <time>2015-12-28T09:20:03.000Z</time>
      </trkpt>
      <trkpt lat="43.83939" lon="6.45152">
        <ele>1091.859741</ele>
        <time>2015-12-28T09:20:08.000Z</time>
      </trkpt>
      <trkpt lat="43.83942" lon="6.45152">
        <ele>1092.965942</ele>
        <time>2015-12-28T09:20:13.000Z</time>
      </trkpt>
      <trkpt lat="43.83951" lon="6.45145">
        <ele>1092.477173</ele>
        <time>2015-12-28T09:20:18.000Z</time>
      </trkpt>
      <trkpt lat="43.83966" lon="6.45138">
        <ele>1092.907104</ele>
        <time>2015-12-28T09:20:23.000Z</time>
      </trkpt>
      <trkpt lat="43.83977" lon="6.45137">
        <ele>1093.365234</ele>
        <time>2015-12-28T09:20:28.000Z</time>
      </trkpt>
      <trkpt lat="43.83987" lon="6.45133">
        <ele>1093.993896</ele>
        <time>2015-12-28T09:20:33.000Z</time>
      </trkpt>
      <trkpt lat="43.84002" lon="6.4512">
        <ele>1093.166992</ele>
        <time>2015-12-28T09:20:38.000Z</time>
      </trkpt>
      <trkpt lat="43.84015" lon="6.45109">
        <ele>1093.416992</ele>
        <time>2015-12-28T09:20:43.000Z</time>
      </trkpt>
      <trkpt lat="43.84024" lon="6.45093">
        <ele>1093.491455</ele>
        <time>2015-12-28T09:20:48.000Z</time>
      </trkpt>
      <trkpt lat="43.84024" lon="6.4509">
        <ele>1092.541504</ele>
        <time>2015-12-28T09:20:53.000Z</time>
      </trkpt>
      <trkpt lat="43.84026" lon="6.45088">
        <ele>1092.46106</ele>
        <time>2015-12-28T09:20:58.000Z</time>
      </trkpt>
      <trkpt lat="43.8403" lon="6.45077">
        <ele>1093.400757</ele>
        <time>2015-12-28T09:21:03.000Z</time>
      </trkpt>
      <trkpt lat="43.84034" lon="6.45066">
        <ele>1094.486084</ele>
        <time>2015-12-28T09:21:08.000Z</time>
      </trkpt>
      <trkpt lat="43.84035" lon="6.45062">
        <ele>1095.60144</ele>
        <time>2015-12-28T09:21:13.000Z</time>
      </trkpt>
      <trkpt lat="43.84035" lon="6.45062">
        <ele>1096.428101</ele>
        <time>2015-12-28T09:21:18.000Z</time>
      </trkpt>
      <trkpt lat="43.84037" lon="6.45057">
        <ele>1097.794189</ele>
        <time>2015-12-28T09:21:23.000Z</time>
      </trkpt>
      <trkpt lat="43.84041" lon="6.45053">
        <ele>1098.838501</ele>
        <time>2015-12-28T09:21:28.000Z</time>
      </trkpt>
      <trkpt lat="43.84045" lon="6.45049">
        <ele>1100.340576</ele>
        <time>2015-12-28T09:21:33.000Z</time>
      </trkpt>
      <trkpt lat="43.84047" lon="6.45043">
        <ele>1101.629761</ele>
        <time>2015-12-28T09:21:38.000Z</time>
      </trkpt>
      <trkpt lat="43.84047" lon="6.45039">
        <ele>1102.121826</ele>
        <time>2015-12-28T09:21:43.000Z</time>
      </trkpt>
      <trkpt lat="43.84047" lon="6.45038">
        <ele>1103.070679</ele>
        <time>2015-12-28T09:21:48.000Z</time>
      </trkpt>
      <trkpt lat="43.84047" lon="6.45037">
        <ele>1103.471191</ele>
        <time>2015-12-28T09:21:53.000Z</time>
      </trkpt>
      <trkpt lat="43.84047" lon="6.45035">
        <ele>1103.422241</ele>
        <time>2015-12-28T09:21:58.000Z</time>
      </trkpt>
      <trkpt lat="43.84045" lon="6.45032">
        <ele>1103.022705</ele>
        <time>2015-12-28T09:22:03.000Z</time>
      </trkpt>
      <trkpt lat="43.84045" lon="6.45032">
        <ele>1103.258911</ele>
        <time>2015-12-28T09:22:08.000Z</time>
      </trkpt>
      <trkpt lat="43.84045" lon="6.45032">
        <ele>1103.212402</ele>
        <time>2015-12-28T09:22:13.000Z</time>
      </trkpt>
      <trkpt lat="43.84045" lon="6.45032">
        <ele>1103.226563</ele>
        <time>2015-12-28T09:22:18.000Z</time>
      </trkpt>
      <trkpt lat="43.84045" lon="6.45032">
        <ele>1103.222778</ele>
        <time>2015-12-28T09:22:23.000Z</time>
      </trkpt>
      <trkpt lat="43.84045" lon="6.45032">
        <ele>1103.220947</ele>
        <time>2015-12-28T09:22:28.000Z</time>
      </trkpt>
      <trkpt lat="43.84047" lon="6.45038">
        <ele>1103.426147</ele>
        <time>2015-12-28T09:22:33.000Z</time>
      </trkpt>
      <trkpt lat="43.84047" lon="6.45038">
        <ele>1102.755615</ele>
        <time>2015-12-28T09:22:38.000Z</time>
      </trkpt>
      <trkpt lat="43.84047" lon="6.45039">
        <ele>1102.432495</ele>
        <time>2015-12-28T09:22:43.000Z</time>
      </trkpt>
      <trkpt lat="43.84047" lon="6.4504">
        <ele>1102.042358</ele>
        <time>2015-12-28T09:22:48.000Z</time>
      </trkpt>
      <trkpt lat="43.84047" lon="6.4504">
        <ele>1101.944702</ele>
        <time>2015-12-28T09:22:53.000Z</time>
      </trkpt>
      <trkpt lat="43.84047" lon="6.4504">
        <ele>1101.908325</ele>
        <time>2015-12-28T09:22:58.000Z</time>
      </trkpt>
      <trkpt lat="43.84047" lon="6.4504">
        <ele>1101.891846</ele>
        <time>2015-12-28T09:23:03.000Z</time>
      </trkpt>
      <trkpt lat="43.84047" lon="6.4504">
        <ele>1101.866577</ele>
        <time>2015-12-28T09:23:08.000Z</time>
      </trkpt>
      <trkpt lat="43.84047" lon="6.45029">
        <ele>1101.047729</ele>
        <time>2015-12-28T09:23:13.000Z</time>
      </trkpt>
      <trkpt lat="43.84045" lon="6.45021">
        <ele>1100.143799</ele>
        <time>2015-12-28T09:23:18.000Z</time>
      </trkpt>
      <trkpt lat="43.84046" lon="6.45014">
        <ele>1097.97644</ele>
        <time>2015-12-28T09:23:23.000Z</time>
      </trkpt>
      <trkpt lat="43.8405" lon="6.45009">
        <ele>1096.688477</ele>
        <time>2015-12-28T09:23:28.000Z</time>
      </trkpt>
      <trkpt lat="43.8405" lon="6.45009">
        <ele>1096.645874</ele>
        <time>2015-12-28T09:23:33.000Z</time>
      </trkpt>
      <trkpt lat="43.84055" lon="6.45005">
        <ele>1096.258423</ele>
        <time>2015-12-28T09:23:38.000Z</time>
      </trkpt>
      <trkpt lat="43.84055" lon="6.45001">
        <ele>1095.360718</ele>
        <time>2015-12-28T09:23:43.000Z</time>
      </trkpt>
      <trkpt lat="43.84047" lon="6.44995">
        <ele>1094.906494</ele>
        <time>2015-12-28T09:23:48.000Z</time>
      </trkpt>
      <trkpt lat="43.8404" lon="6.44986">
        <ele>1095.004883</ele>
        <time>2015-12-28T09:23:53.000Z</time>
      </trkpt>
      <trkpt lat="43.84035" lon="6.44981">
        <ele>1094.058228</ele>
        <time>2015-12-28T09:23:58.000Z</time>
      </trkpt>
      <trkpt lat="43.84031" lon="6.44981">
        <ele>1093.678345</ele>
        <time>2015-12-28T09:24:03.000Z</time>
      </trkpt>
      <trkpt lat="43.84028" lon="6.4498">
        <ele>1092.113525</ele>
        <time>2015-12-28T09:24:08.000Z</time>
      </trkpt>
      <trkpt lat="43.84022" lon="6.44987">
        <ele>1088.544189</ele>
        <time>2015-12-28T09:24:13.000Z</time>
      </trkpt>
      <trkpt lat="43.84016" lon="6.44994">
        <ele>1085.926758</ele>
        <time>2015-12-28T09:24:18.000Z</time>
      </trkpt>
      <trkpt lat="43.84012" lon="6.45001">
        <ele>1083.465332</ele>
        <time>2015-12-28T09:24:23.000Z</time>
      </trkpt>
      <trkpt lat="43.8401" lon="6.45002">
        <ele>1082.906006</ele>
        <time>2015-12-28T09:24:28.000Z</time>
      </trkpt>
      <trkpt lat="43.84008" lon="6.44991">
        <ele>1081.807007</ele>
        <time>2015-12-28T09:24:33.000Z</time>
      </trkpt>
      <trkpt lat="43.84007" lon="6.44977">
        <ele>1079.678101</ele>
        <time>2015-12-28T09:24:38.000Z</time>
      </trkpt>
      <trkpt lat="43.84007" lon="6.44969">
        <ele>1076.041748</ele>
        <time>2015-12-28T09:24:43.000Z</time>
      </trkpt>
      <trkpt lat="43.84006" lon="6.44954">
        <ele>1074.786499</ele>
        <time>2015-12-28T09:24:48.000Z</time>
      </trkpt>
      <trkpt lat="43.84004" lon="6.44948">
        <ele>1071.811401</ele>
        <time>2015-12-28T09:24:53.000Z</time>
      </trkpt>
      <trkpt lat="43.84003" lon="6.44951">
        <ele>1071.221191</ele>
        <time>2015-12-28T09:24:58.000Z</time>
      </trkpt>
      <trkpt lat="43.84002" lon="6.44953">
        <ele>1071.049927</ele>
        <time>2015-12-28T09:25:03.000Z</time>
      </trkpt>
      <trkpt lat="43.84003" lon="6.44952">
        <ele>1070.687622</ele>
        <time>2015-12-28T09:25:08.000Z</time>
      </trkpt>
      <trkpt lat="43.84002" lon="6.44951">
        <ele>1070.412598</ele>
        <time>2015-12-28T09:25:13.000Z</time>
      </trkpt>
      <trkpt lat="43.84002" lon="6.44951">
        <ele>1070.756714</ele>
        <time>2015-12-28T09:25:18.000Z</time>
      </trkpt>
      <trkpt lat="43.84001" lon="6.44948">
        <ele>1070.678711</ele>
        <time>2015-12-28T09:25:23.000Z</time>
      </trkpt>
      <trkpt lat="43.84001" lon="6.44949">
        <ele>1070.536255</ele>
        <time>2015-12-28T09:25:28.000Z</time>
      </trkpt>
      <trkpt lat="43.84001" lon="6.44949">
        <ele>1070.853882</ele>
        <time>2015-12-28T09:25:33.000Z</time>
      </trkpt>
      <trkpt lat="43.84001" lon="6.44949">
        <ele>1070.975098</ele>
        <time>2015-12-28T09:25:38.000Z</time>
      </trkpt>
      <trkpt lat="43.84001" lon="6.4495">
        <ele>1070.660156</ele>
        <time>2015-12-28T09:25:43.000Z</time>
      </trkpt>
      <trkpt lat="43.84002" lon="6.44952">
        <ele>1069.921021</ele>
        <time>2015-12-28T09:25:48.000Z</time>
      </trkpt>
      <trkpt lat="43.83998" lon="6.44955">
        <ele>1069.181641</ele>
        <time>2015-12-28T09:25:53.000Z</time>
      </trkpt>
      <trkpt lat="43.83995" lon="6.44958">
        <ele>1068.664429</ele>
        <time>2015-12-28T09:25:58.000Z</time>
      </trkpt>
      <trkpt lat="43.83992" lon="6.44957">
        <ele>1068.225342</ele>
        <time>2015-12-28T09:26:03.000Z</time>
      </trkpt>
      <trkpt lat="43.83984" lon="6.44959">
        <ele>1067.056885</ele>
        <time>2015-12-28T09:26:08.000Z</time>
      </trkpt>
      <trkpt lat="43.83974" lon="6.44961">
        <ele>1064.350952</ele>
        <time>2015-12-28T09:26:13.000Z</time>
      </trkpt>
      <trkpt lat="43.83969" lon="6.44953">
        <ele>1061.9729</ele>
        <time>2015-12-28T09:26:18.000Z</time>
      </trkpt>
      <trkpt lat="43.83966" lon="6.44937">
        <ele>1058.013672</ele>
        <time>2015-12-28T09:26:23.000Z</time>
      </trkpt>
      <trkpt lat="43.83967" lon="6.44928">
        <ele>1054.017456</ele>
        <time>2015-12-28T09:26:28.000Z</time>
      </trkpt>
      <trkpt lat="43.83957" lon="6.44934">
        <ele>1051.359985</ele>
        <time>2015-12-28T09:26:33.000Z</time>
      </trkpt>
      <trkpt lat="43.83948" lon="6.44949">
        <ele>1048.582397</ele>
        <time>2015-12-28T09:26:38.000Z</time>
      </trkpt>
      <trkpt lat="43.83945" lon="6.44967">
        <ele>1046.083862</ele>
        <time>2015-12-28T09:26:43.000Z</time>
      </trkpt>
      <trkpt lat="43.83932" lon="6.44982">
        <ele>1042.250244</ele>
        <time>2015-12-28T09:26:48.000Z</time>
      </trkpt>
      <trkpt lat="43.83928" lon="6.44988">
        <ele>1037.983887</ele>
        <time>2015-12-28T09:26:53.000Z</time>
      </trkpt>
      <trkpt lat="43.83929" lon="6.44981">
        <ele>1035.851685</ele>
        <time>2015-12-28T09:26:58.000Z</time>
      </trkpt>
      <trkpt lat="43.8393" lon="6.44976">
        <ele>1034.532227</ele>
        <time>2015-12-28T09:27:03.000Z</time>
      </trkpt>
      <trkpt lat="43.8393" lon="6.44975">
        <ele>1034.134399</ele>
        <time>2015-12-28T09:27:08.000Z</time>
      </trkpt>
      <trkpt lat="43.8393" lon="6.44962">
        <ele>1032.34082</ele>
        <time>2015-12-28T09:27:13.000Z</time>
      </trkpt>
      <trkpt lat="43.8393" lon="6.4495">
        <ele>1029.361206</ele>
        <time>2015-12-28T09:27:18.000Z</time>
      </trkpt>
      <trkpt lat="43.83919" lon="6.44957">
        <ele>1025.425415</ele>
        <time>2015-12-28T09:27:23.000Z</time>
      </trkpt>
      <trkpt lat="43.83909" lon="6.44968">
        <ele>1021.898987</ele>
        <time>2015-12-28T09:27:28.000Z</time>
      </trkpt>
      <trkpt lat="43.83906" lon="6.44971">
        <ele>1020.727112</ele>
        <time>2015-12-28T09:27:33.000Z</time>
      </trkpt>
      <trkpt lat="43.83907" lon="6.44972">
        <ele>1020.376404</ele>
        <time>2015-12-28T09:27:38.000Z</time>
      </trkpt>
      <trkpt lat="43.83906" lon="6.44973">
        <ele>1020.274963</ele>
        <time>2015-12-28T09:27:43.000Z</time>
      </trkpt>
      <trkpt lat="43.83906" lon="6.44973">
        <ele>1020.251648</ele>
        <time>2015-12-28T09:27:48.000Z</time>
      </trkpt>
      <trkpt lat="43.83906" lon="6.44973">
        <ele>1020.187744</ele>
        <time>2015-12-28T09:27:53.000Z</time>
      </trkpt>
      <trkpt lat="43.83905" lon="6.44973">
        <ele>1020.079468</ele>
        <time>2015-12-28T09:27:58.000Z</time>
      </trkpt>
      <trkpt lat="43.83909" lon="6.4497">
        <ele>1019.932434</ele>
        <time>2015-12-28T09:28:03.000Z</time>
      </trkpt>
      <trkpt lat="43.83909" lon="6.44971">
        <ele>1019.829895</ele>
        <time>2015-12-28T09:28:08.000Z</time>
      </trkpt>
      <trkpt lat="43.83909" lon="6.44971">
        <ele>1019.675476</ele>
        <time>2015-12-28T09:28:13.000Z</time>
      </trkpt>
      <trkpt lat="43.83908" lon="6.44971">
        <ele>1019.330627</ele>
        <time>2015-12-28T09:28:18.000Z</time>
      </trkpt>
      <trkpt lat="43.83904" lon="6.4497">
        <ele>1017.754272</ele>
        <time>2015-12-28T09:28:23.000Z</time>
      </trkpt>
      <trkpt lat="43.83903" lon="6.44961">
        <ele>1015.471252</ele>
        <time>2015-12-28T09:28:28.000Z</time>
      </trkpt>
      <trkpt lat="43.839" lon="6.44961">
        <ele>1014.946167</ele>
        <time>2015-12-28T09:28:33.000Z</time>
      </trkpt>
      <trkpt lat="43.839" lon="6.44961">
        <ele>1014.767151</ele>
        <time>2015-12-28T09:28:38.000Z</time>
      </trkpt>
      <trkpt lat="43.83898" lon="6.44963">
        <ele>1013.799866</ele>
        <time>2015-12-28T09:28:43.000Z</time>
      </trkpt>
      <trkpt lat="43.83893" lon="6.44969">
        <ele>1012.479065</ele>
        <time>2015-12-28T09:28:48.000Z</time>
      </trkpt>
      <trkpt lat="43.83887" lon="6.44977">
        <ele>1010.966797</ele>
        <time>2015-12-28T09:28:53.000Z</time>
      </trkpt>
      <trkpt lat="43.8388" lon="6.44979">
        <ele>1009.917786</ele>
        <time>2015-12-28T09:28:58.000Z</time>
      </trkpt>
      <trkpt lat="43.83876" lon="6.44979">
        <ele>1008.382019</ele>
        <time>2015-12-28T09:29:03.000Z</time>
      </trkpt>
      <trkpt lat="43.83867" lon="6.4498">
        <ele>1007.675598</ele>
        <time>2015-12-28T09:29:08.000Z</time>
      </trkpt>
      <trkpt lat="43.83855" lon="6.44979">
        <ele>1008.042236</ele>
        <time>2015-12-28T09:29:13.000Z</time>
      </trkpt>
      <trkpt lat="43.83842" lon="6.44981">
        <ele>1006.182068</ele>
        <time>2015-12-28T09:29:18.000Z</time>
      </trkpt>
      <trkpt lat="43.83828" lon="6.4498">
        <ele>1002.124451</ele>
        <time>2015-12-28T09:29:23.000Z</time>
      </trkpt>
      <trkpt lat="43.83821" lon="6.44977">
        <ele>999.255859</ele>
        <time>2015-12-28T09:29:28.000Z</time>
      </trkpt>
      <trkpt lat="43.83823" lon="6.44977">
        <ele>997.910828</ele>
        <time>2015-12-28T09:29:33.000Z</time>
      </trkpt>
      <trkpt lat="43.83828" lon="6.44974">
        <ele>997.780457</ele>
        <time>2015-12-28T09:29:38.000Z</time>
      </trkpt>
      <trkpt lat="43.83833" lon="6.44972">
        <ele>998.261536</ele>
        <time>2015-12-28T09:29:43.000Z</time>
      </trkpt>
      <trkpt lat="43.83833" lon="6.44972">
        <ele>997.868591</ele>
        <time>2015-12-28T09:29:48.000Z</time>
      </trkpt>
      <trkpt lat="43.83841" lon="6.44972">
        <ele>997.963684</ele>
        <time>2015-12-28T09:29:53.000Z</time>
      </trkpt>
      <trkpt lat="43.8385" lon="6.44967">
        <ele>998.930908</ele>
        <time>2015-12-28T09:29:58.000Z</time>
      </trkpt>
      <trkpt lat="43.83861" lon="6.44955">
        <ele>1000.471741</ele>
        <time>2015-12-28T09:30:03.000Z</time>
      </trkpt>
      <trkpt lat="43.8387" lon="6.44948">
        <ele>1001.821716</ele>
        <time>2015-12-28T09:30:08.000Z</time>
      </trkpt>
      <trkpt lat="43.83878" lon="6.44938">
        <ele>1001.553467</ele>
        <time>2015-12-28T09:30:13.000Z</time>
      </trkpt>
      <trkpt lat="43.83883" lon="6.44928">
        <ele>1003.810608</ele>
        <time>2015-12-28T09:30:18.000Z</time>
      </trkpt>
      <trkpt lat="43.8389" lon="6.44924">
        <ele>1005.703308</ele>
        <time>2015-12-28T09:30:23.000Z</time>
      </trkpt>
      <trkpt lat="43.83894" lon="6.44919">
        <ele>1006.21814</ele>
        <time>2015-12-28T09:30:28.000Z</time>
      </trkpt>
      <trkpt lat="43.83896" lon="6.44908">
        <ele>1005.426514</ele>
        <time>2015-12-28T09:30:33.000Z</time>
      </trkpt>
      <trkpt lat="43.83894" lon="6.44892">
        <ele>1003.777222</ele>
        <time>2015-12-28T09:30:38.000Z</time>
      </trkpt>
      <trkpt lat="43.83887" lon="6.44883">
        <ele>1001.425354</ele>
        <time>2015-12-28T09:30:43.000Z</time>
      </trkpt>
      <trkpt lat="43.83882" lon="6.44873">
        <ele>999.854065</ele>
        <time>2015-12-28T09:30:48.000Z</time>
      </trkpt>
      <trkpt lat="43.83883" lon="6.44872">
        <ele>999.508606</ele>
        <time>2015-12-28T09:30:53.000Z</time>
      </trkpt>
      <trkpt lat="43.83883" lon="6.44871">
        <ele>999.238892</ele>
        <time>2015-12-28T09:30:58.000Z</time>
      </trkpt>
      <trkpt lat="43.83883" lon="6.44871">
        <ele>999.206421</ele>
        <time>2015-12-28T09:31:03.000Z</time>
      </trkpt>
      <trkpt lat="43.83883" lon="6.44871">
        <ele>999.205322</ele>
        <time>2015-12-28T09:31:08.000Z</time>
      </trkpt>
      <trkpt lat="43.83883" lon="6.44871">
        <ele>999.174805</ele>
        <time>2015-12-28T09:31:13.000Z</time>
      </trkpt>
      <trkpt lat="43.83883" lon="6.44869">
        <ele>999.178955</ele>
        <time>2015-12-28T09:31:18.000Z</time>
      </trkpt>
      <trkpt lat="43.83883" lon="6.44866">
        <ele>999.145447</ele>
        <time>2015-12-28T09:31:23.000Z</time>
      </trkpt>
      <trkpt lat="43.83881" lon="6.44861">
        <ele>999.417847</ele>
        <time>2015-12-28T09:31:28.000Z</time>
      </trkpt>
      <trkpt lat="43.83875" lon="6.44847">
        <ele>999.003418</ele>
        <time>2015-12-28T09:31:33.000Z</time>
      </trkpt>
      <trkpt lat="43.83873" lon="6.44831">
        <ele>999.934143</ele>
        <time>2015-12-28T09:31:38.000Z</time>
      </trkpt>
      <trkpt lat="43.83873" lon="6.44819">
        <ele>1001.106079</ele>
        <time>2015-12-28T09:31:43.000Z</time>
      </trkpt>
      <trkpt lat="43.83872" lon="6.4481">
        <ele>1002.347595</ele>
        <time>2015-12-28T09:31:48.000Z</time>
      </trkpt>
      <trkpt lat="43.83868" lon="6.44803">
        <ele>1003.095825</ele>
        <time>2015-12-28T09:31:53.000Z</time>
      </trkpt>
      <trkpt lat="43.83864" lon="6.44801">
        <ele>1002.464478</ele>
        <time>2015-12-28T09:31:58.000Z</time>
      </trkpt>
      <trkpt lat="43.83858" lon="6.44796">
        <ele>1002.765747</ele>
        <time>2015-12-28T09:32:03.000Z</time>
      </trkpt>
      <trkpt lat="43.83854" lon="6.4479">
        <ele>1002.029541</ele>
        <time>2015-12-28T09:32:08.000Z</time>
      </trkpt>
      <trkpt lat="43.83853" lon="6.44786">
        <ele>1001.404236</ele>
        <time>2015-12-28T09:32:13.000Z</time>
      </trkpt>
      <trkpt lat="43.83852" lon="6.44785">
        <ele>1001.768188</ele>
        <time>2015-12-28T09:32:18.000Z</time>
      </trkpt>
      <trkpt lat="43.83852" lon="6.44785">
        <ele>1001.943909</ele>
        <time>2015-12-28T09:32:23.000Z</time>
      </trkpt>
      <trkpt lat="43.83851" lon="6.44783">
        <ele>1002.034119</ele>
        <time>2015-12-28T09:32:28.000Z</time>
      </trkpt>
      <trkpt lat="43.83848" lon="6.44776">
        <ele>1001.288513</ele>
        <time>2015-12-28T09:32:33.000Z</time>
      </trkpt>
      <trkpt lat="43.83845" lon="6.44768">
        <ele>1000.743835</ele>
        <time>2015-12-28T09:32:38.000Z</time>
      </trkpt>
      <trkpt lat="43.83842" lon="6.44758">
        <ele>1001.255249</ele>
        <time>2015-12-28T09:32:43.000Z</time>
      </trkpt>
      <trkpt lat="43.83839" lon="6.44751">
        <ele>1001.921021</ele>
        <time>2015-12-28T09:32:48.000Z</time>
      </trkpt>
      <trkpt lat="43.83834" lon="6.44743">
        <ele>1003.42627</ele>
        <time>2015-12-28T09:32:53.000Z</time>
      </trkpt>
      <trkpt lat="43.8383" lon="6.44737">
        <ele>1004.417358</ele>
        <time>2015-12-28T09:32:58.000Z</time>
      </trkpt>
      <trkpt lat="43.83827" lon="6.44729">
        <ele>1004.220154</ele>
        <time>2015-12-28T09:33:03.000Z</time>
      </trkpt>
      <trkpt lat="43.83825" lon="6.44722">
        <ele>1003.832336</ele>
        <time>2015-12-28T09:33:08.000Z</time>
      </trkpt>
      <trkpt lat="43.83825" lon="6.44714">
        <ele>1004.058777</ele>
        <time>2015-12-28T09:33:13.000Z</time>
      </trkpt>
      <trkpt lat="43.83823" lon="6.44705">
        <ele>1004.417114</ele>
        <time>2015-12-28T09:33:18.000Z</time>
      </trkpt>
      <trkpt lat="43.8382" lon="6.44697">
        <ele>1004.787659</ele>
        <time>2015-12-28T09:33:23.000Z</time>
      </trkpt>
      <trkpt lat="43.8382" lon="6.44696">
        <ele>1004.144775</ele>
        <time>2015-12-28T09:33:28.000Z</time>
      </trkpt>
      <trkpt lat="43.8382" lon="6.44696">
        <ele>1004.141785</ele>
        <time>2015-12-28T09:33:33.000Z</time>
      </trkpt>
      <trkpt lat="43.8382" lon="6.44696">
        <ele>1004.092346</ele>
        <time>2015-12-28T09:33:38.000Z</time>
      </trkpt>
      <trkpt lat="43.8382" lon="6.44696">
        <ele>1004.016846</ele>
        <time>2015-12-28T09:33:43.000Z</time>
      </trkpt>
      <trkpt lat="43.8382" lon="6.44696">
        <ele>1003.93042</ele>
        <time>2015-12-28T09:33:48.000Z</time>
      </trkpt>
      <trkpt lat="43.8382" lon="6.44696">
        <ele>1003.855042</ele>
        <time>2015-12-28T09:33:53.000Z</time>
      </trkpt>
      <trkpt lat="43.8382" lon="6.44696">
        <ele>1003.837341</ele>
        <time>2015-12-28T09:33:58.000Z</time>
      </trkpt>
      <trkpt lat="43.8382" lon="6.44696">
        <ele>1003.820618</ele>
        <time>2015-12-28T09:34:03.000Z</time>
      </trkpt>
      <trkpt lat="43.8382" lon="6.44697">
        <ele>1003.332642</ele>
        <time>2015-12-28T09:34:08.000Z</time>
      </trkpt>
      <trkpt lat="43.8382" lon="6.44697">
        <ele>1003.708984</ele>
        <time>2015-12-28T09:34:13.000Z</time>
      </trkpt>
      <trkpt lat="43.8382" lon="6.44697">
        <ele>1003.681641</ele>
        <time>2015-12-28T09:34:18.000Z</time>
      </trkpt>
      <trkpt lat="43.83819" lon="6.44697">
        <ele>1002.993225</ele>
        <time>2015-12-28T09:34:23.000Z</time>
      </trkpt>
      <trkpt lat="43.83819" lon="6.44697">
        <ele>1002.777283</ele>
        <time>2015-12-28T09:34:28.000Z</time>
      </trkpt>
      <trkpt lat="43.8382" lon="6.44697">
        <ele>1002.68396</ele>
        <time>2015-12-28T09:34:33.000Z</time>
      </trkpt>
      <trkpt lat="43.8382" lon="6.44697">
        <ele>1002.618103</ele>
        <time>2015-12-28T09:34:38.000Z</time>
      </trkpt>
      <trkpt lat="43.83821" lon="6.44697">
        <ele>1002.607483</ele>
        <time>2015-12-28T09:34:43.000Z</time>
      </trkpt>
      <trkpt lat="43.83821" lon="6.44697">
        <ele>1002.625122</ele>
        <time>2015-12-28T09:34:48.000Z</time>
      </trkpt>
      <trkpt lat="43.83821" lon="6.44697">
        <ele>1002.629456</ele>
        <time>2015-12-28T09:34:53.000Z</time>
      </trkpt>
      <trkpt lat="43.83821" lon="6.44696">
        <ele>1002.629944</ele>
        <time>2015-12-28T09:34:58.000Z</time>
      </trkpt>
      <trkpt lat="43.83821" lon="6.44696">
        <ele>1002.633301</ele>
        <time>2015-12-28T09:35:03.000Z</time>
      </trkpt>
      <trkpt lat="43.83821" lon="6.44696">
        <ele>1002.641174</ele>
        <time>2015-12-28T09:35:08.000Z</time>
      </trkpt>
      <trkpt lat="43.83821" lon="6.44696">
        <ele>1002.644409</ele>
        <time>2015-12-28T09:35:13.000Z</time>
      </trkpt>
      <trkpt lat="43.83821" lon="6.44696">
        <ele>1002.632874</ele>
        <time>2015-12-28T09:35:18.000Z</time>
      </trkpt>
      <trkpt lat="43.83821" lon="6.44696">
        <ele>1002.577332</ele>
        <time>2015-12-28T09:35:23.000Z</time>
      </trkpt>
      <trkpt lat="43.8382" lon="6.44697">
        <ele>1002.605591</ele>
        <time>2015-12-28T09:35:28.000Z</time>
      </trkpt>
      <trkpt lat="43.8382" lon="6.44696">
        <ele>1002.901367</ele>
        <time>2015-12-28T09:35:33.000Z</time>
      </trkpt>
      <trkpt lat="43.8382" lon="6.44696">
        <ele>1002.930115</ele>
        <time>2015-12-28T09:35:38.000Z</time>
      </trkpt>
      <trkpt lat="43.83822" lon="6.44696">
        <ele>1002.875793</ele>
        <time>2015-12-28T09:35:43.000Z</time>
      </trkpt>
      <trkpt lat="43.83823" lon="6.44697">
        <ele>1002.762634</ele>
        <time>2015-12-28T09:35:48.000Z</time>
      </trkpt>
      <trkpt lat="43.83822" lon="6.44696">
        <ele>1002.890991</ele>
        <time>2015-12-28T09:35:53.000Z</time>
      </trkpt>
      <trkpt lat="43.83822" lon="6.447">
        <ele>1002.653687</ele>
        <time>2015-12-28T09:35:58.000Z</time>
      </trkpt>
      <trkpt lat="43.83821" lon="6.44699">
        <ele>1002.694641</ele>
        <time>2015-12-28T09:36:03.000Z</time>
      </trkpt>
      <trkpt lat="43.83821" lon="6.44699">
        <ele>1002.584534</ele>
        <time>2015-12-28T09:36:08.000Z</time>
      </trkpt>
      <trkpt lat="43.83821" lon="6.44698">
        <ele>1002.231201</ele>
        <time>2015-12-28T09:36:13.000Z</time>
      </trkpt>
      <trkpt lat="43.83822" lon="6.44696">
        <ele>1002.478271</ele>
        <time>2015-12-28T09:36:18.000Z</time>
      </trkpt>
      <trkpt lat="43.83822" lon="6.44695">
        <ele>1002.88739</ele>
        <time>2015-12-28T09:36:23.000Z</time>
      </trkpt>
      <trkpt lat="43.83821" lon="6.44696">
        <ele>1003.010559</ele>
        <time>2015-12-28T09:36:28.000Z</time>
      </trkpt>
      <trkpt lat="43.83821" lon="6.44695">
        <ele>1003.030945</ele>
        <time>2015-12-28T09:36:33.000Z</time>
      </trkpt>
      <trkpt lat="43.83821" lon="6.44695">
        <ele>1003.079285</ele>
        <time>2015-12-28T09:36:38.000Z</time>
      </trkpt>
      <trkpt lat="43.83821" lon="6.44695">
        <ele>1003.091003</ele>
        <time>2015-12-28T09:36:43.000Z</time>
      </trkpt>
      <trkpt lat="43.83821" lon="6.44695">
        <ele>1003.070374</ele>
        <time>2015-12-28T09:36:48.000Z</time>
      </trkpt>
      <trkpt lat="43.83821" lon="6.44695">
        <ele>1003.036926</ele>
        <time>2015-12-28T09:36:53.000Z</time>
      </trkpt>
      <trkpt lat="43.83821" lon="6.44695">
        <ele>1002.998535</ele>
        <time>2015-12-28T09:36:58.000Z</time>
      </trkpt>
      <trkpt lat="43.83821" lon="6.44695">
        <ele>1002.96228</ele>
        <time>2015-12-28T09:37:03.000Z</time>
      </trkpt>
      <trkpt lat="43.83821" lon="6.44695">
        <ele>1002.946838</ele>
        <time>2015-12-28T09:37:08.000Z</time>
      </trkpt>
      <trkpt lat="43.83821" lon="6.44695">
        <ele>1002.920593</ele>
        <time>2015-12-28T09:37:13.000Z</time>
      </trkpt>
      <trkpt lat="43.83821" lon="6.44695">
        <ele>1002.887817</ele>
        <time>2015-12-28T09:37:18.000Z</time>
      </trkpt>
      <trkpt lat="43.83821" lon="6.44695">
        <ele>1002.87323</ele>
        <time>2015-12-28T09:37:23.000Z</time>
      </trkpt>
      <trkpt lat="43.83821" lon="6.44696">
        <ele>1002.849731</ele>
        <time>2015-12-28T09:37:28.000Z</time>
      </trkpt>
      <trkpt lat="43.83821" lon="6.44696">
        <ele>1002.827698</ele>
        <time>2015-12-28T09:37:33.000Z</time>
      </trkpt>
      <trkpt lat="43.83821" lon="6.44696">
        <ele>1002.809753</ele>
        <time>2015-12-28T09:37:38.000Z</time>
      </trkpt>
      <trkpt lat="43.83821" lon="6.44696">
        <ele>1002.791077</ele>
        <time>2015-12-28T09:37:43.000Z</time>
      </trkpt>
      <trkpt lat="43.83821" lon="6.44696">
        <ele>1002.797668</ele>
        <time>2015-12-28T09:37:48.000Z</time>
      </trkpt>
      <trkpt lat="43.83821" lon="6.44696">
        <ele>1002.81311</ele>
        <time>2015-12-28T09:37:53.000Z</time>
      </trkpt>
      <trkpt lat="43.83821" lon="6.44696">
        <ele>1002.831726</ele>
        <time>2015-12-28T09:37:58.000Z</time>
      </trkpt>
      <trkpt lat="43.83821" lon="6.44696">
        <ele>1002.854187</ele>
        <time>2015-12-28T09:38:03.000Z</time>
      </trkpt>
      <trkpt lat="43.83821" lon="6.44696">
        <ele>1002.851379</ele>
        <time>2015-12-28T09:38:08.000Z</time>
      </trkpt>
      <trkpt lat="43.83821" lon="6.44696">
        <ele>1002.841858</ele>
        <time>2015-12-28T09:38:13.000Z</time>
      </trkpt>
      <trkpt lat="43.83821" lon="6.44696">
        <ele>1002.841614</ele>
        <time>2015-12-28T09:38:18.000Z</time>
      </trkpt>
      <trkpt lat="43.83821" lon="6.44696">
        <ele>1002.865295</ele>
        <time>2015-12-28T09:38:23.000Z</time>
      </trkpt>
      <trkpt lat="43.83821" lon="6.44696">
        <ele>1002.900879</ele>
        <time>2015-12-28T09:38:28.000Z</time>
      </trkpt>
      <trkpt lat="43.83821" lon="6.44696">
        <ele>1002.920593</ele>
        <time>2015-12-28T09:38:33.000Z</time>
      </trkpt>
      <trkpt lat="43.83821" lon="6.44696">
        <ele>1002.942688</ele>
        <time>2015-12-28T09:38:38.000Z</time>
      </trkpt>
      <trkpt lat="43.83821" lon="6.44696">
        <ele>1002.945435</ele>
        <time>2015-12-28T09:38:43.000Z</time>
      </trkpt>
      <trkpt lat="43.83821" lon="6.44696">
        <ele>1002.940247</ele>
        <time>2015-12-28T09:38:48.000Z</time>
      </trkpt>
      <trkpt lat="43.83821" lon="6.44696">
        <ele>1002.921936</ele>
        <time>2015-12-28T09:38:53.000Z</time>
      </trkpt>
      <trkpt lat="43.83821" lon="6.44696">
        <ele>1002.900024</ele>
        <time>2015-12-28T09:38:58.000Z</time>
      </trkpt>
      <trkpt lat="43.83821" lon="6.44696">
        <ele>1003.125061</ele>
        <time>2015-12-28T09:39:03.000Z</time>
      </trkpt>
      <trkpt lat="43.83821" lon="6.44696">
        <ele>1003.336304</ele>
        <time>2015-12-28T09:39:08.000Z</time>
      </trkpt>
      <trkpt lat="43.83821" lon="6.44696">
        <ele>1003.17804</ele>
        <time>2015-12-28T09:39:13.000Z</time>
      </trkpt>
      <trkpt lat="43.83821" lon="6.44696">
        <ele>1003.176697</ele>
        <time>2015-12-28T09:39:18.000Z</time>
      </trkpt>
      <trkpt lat="43.83821" lon="6.44696">
        <ele>1003.186157</ele>
        <time>2015-12-28T09:39:23.000Z</time>
      </trkpt>
      <trkpt lat="43.83821" lon="6.44696">
        <ele>1003.19281</ele>
        <time>2015-12-28T09:39:28.000Z</time>
      </trkpt>
      <trkpt lat="43.83821" lon="6.44696">
        <ele>1003.251404</ele>
        <time>2015-12-28T09:39:33.000Z</time>
      </trkpt>
      <trkpt lat="43.8382" lon="6.44696">
        <ele>1003.209412</ele>
        <time>2015-12-28T09:39:38.000Z</time>
      </trkpt>
      <trkpt lat="43.8382" lon="6.44696">
        <ele>1003.058044</ele>
        <time>2015-12-28T09:39:43.000Z</time>
      </trkpt>
      <trkpt lat="43.8382" lon="6.44696">
        <ele>1002.970032</ele>
        <time>2015-12-28T09:39:48.000Z</time>
      </trkpt>
      <trkpt lat="43.8382" lon="6.44696">
        <ele>1002.968689</ele>
        <time>2015-12-28T09:39:53.000Z</time>
      </trkpt>
      <trkpt lat="43.83819" lon="6.44695">
        <ele>1002.606384</ele>
        <time>2015-12-28T09:39:58.000Z</time>
      </trkpt>
      <trkpt lat="43.83813" lon="6.44689">
        <ele>1002.250183</ele>
        <time>2015-12-28T09:40:03.000Z</time>
      </trkpt>
      <trkpt lat="43.83807" lon="6.44682">
        <ele>1002.288696</ele>
        <time>2015-12-28T09:40:08.000Z</time>
      </trkpt>
      <trkpt lat="43.83801" lon="6.44675">
        <ele>1003.122009</ele>
        <time>2015-12-28T09:40:13.000Z</time>
      </trkpt>
      <trkpt lat="43.83794" lon="6.4467">
        <ele>1004.056946</ele>
        <time>2015-12-28T09:40:18.000Z</time>
      </trkpt>
      <trkpt lat="43.83787" lon="6.44667">
        <ele>1005.131531</ele>
        <time>2015-12-28T09:40:23.000Z</time>
      </trkpt>
      <trkpt lat="43.83778" lon="6.44665">
        <ele>1006.837769</ele>
        <time>2015-12-28T09:40:28.000Z</time>
      </trkpt>
      <trkpt lat="43.8377" lon="6.44667">
        <ele>1007.8396</ele>
        <time>2015-12-28T09:40:33.000Z</time>
      </trkpt>
      <trkpt lat="43.83762" lon="6.44665">
        <ele>1007.899109</ele>
        <time>2015-12-28T09:40:38.000Z</time>
      </trkpt>
      <trkpt lat="43.83753" lon="6.44662">
        <ele>1008.422974</ele>
        <time>2015-12-28T09:40:43.000Z</time>
      </trkpt>
      <trkpt lat="43.83742" lon="6.44659">
        <ele>1007.580505</ele>
        <time>2015-12-28T09:40:48.000Z</time>
      </trkpt>
      <trkpt lat="43.83733" lon="6.44659">
        <ele>1007.19104</ele>
        <time>2015-12-28T09:40:53.000Z</time>
      </trkpt>
      <trkpt lat="43.8372" lon="6.44667">
        <ele>1006.428101</ele>
        <time>2015-12-28T09:40:58.000Z</time>
      </trkpt>
      <trkpt lat="43.83705" lon="6.4467">
        <ele>1006.010071</ele>
        <time>2015-12-28T09:41:03.000Z</time>
      </trkpt>
      <trkpt lat="43.8369" lon="6.4468">
        <ele>1007.109741</ele>
        <time>2015-12-28T09:41:08.000Z</time>
      </trkpt>
      <trkpt lat="43.83686" lon="6.44686">
        <ele>1009.634949</ele>
        <time>2015-12-28T09:41:13.000Z</time>
      </trkpt>
      <trkpt lat="43.83687" lon="6.44686">
        <ele>1009.557068</ele>
        <time>2015-12-28T09:41:18.000Z</time>
      </trkpt>
      <trkpt lat="43.83687" lon="6.44686">
        <ele>1009.710876</ele>
        <time>2015-12-28T09:41:23.000Z</time>
      </trkpt>
      <trkpt lat="43.83687" lon="6.44686">
        <ele>1009.740051</ele>
        <time>2015-12-28T09:41:28.000Z</time>
      </trkpt>
      <trkpt lat="43.83687" lon="6.44687">
        <ele>1009.08783</ele>
        <time>2015-12-28T09:41:33.000Z</time>
      </trkpt>
      <trkpt lat="43.83687" lon="6.44687">
        <ele>1009.104553</ele>
        <time>2015-12-28T09:41:38.000Z</time>
      </trkpt>
      <trkpt lat="43.83686" lon="6.44685">
        <ele>1008.866394</ele>
        <time>2015-12-28T09:41:43.000Z</time>
      </trkpt>
      <trkpt lat="43.83677" lon="6.44679">
        <ele>1007.923096</ele>
        <time>2015-12-28T09:41:48.000Z</time>
      </trkpt>
      <trkpt lat="43.83666" lon="6.44672">
        <ele>1007.721741</ele>
        <time>2015-12-28T09:41:53.000Z</time>
      </trkpt>
      <trkpt lat="43.8366" lon="6.44664">
        <ele>1008.114685</ele>
        <time>2015-12-28T09:41:58.000Z</time>
      </trkpt>
      <trkpt lat="43.83655" lon="6.44655">
        <ele>1008.704163</ele>
        <time>2015-12-28T09:42:03.000Z</time>
      </trkpt>
      <trkpt lat="43.83651" lon="6.44649">
        <ele>1009.329956</ele>
        <time>2015-12-28T09:42:08.000Z</time>
      </trkpt>
      <trkpt lat="43.83647" lon="6.44644">
        <ele>1009.751831</ele>
        <time>2015-12-28T09:42:13.000Z</time>
      </trkpt>
      <trkpt lat="43.83643" lon="6.4464">
        <ele>1009.8479</ele>
        <time>2015-12-28T09:42:18.000Z</time>
      </trkpt>
      <trkpt lat="43.83643" lon="6.4464">
        <ele>1010.142578</ele>
        <time>2015-12-28T09:42:23.000Z</time>
      </trkpt>
      <trkpt lat="43.83643" lon="6.4464">
        <ele>1010.005615</ele>
        <time>2015-12-28T09:42:28.000Z</time>
      </trkpt>
      <trkpt lat="43.83643" lon="6.44639">
        <ele>1009.901367</ele>
        <time>2015-12-28T09:42:33.000Z</time>
      </trkpt>
      <trkpt lat="43.83643" lon="6.44639">
        <ele>1009.876953</ele>
        <time>2015-12-28T09:42:38.000Z</time>
      </trkpt>
      <trkpt lat="43.83643" lon="6.4464">
        <ele>1009.87616</ele>
        <time>2015-12-28T09:42:43.000Z</time>
      </trkpt>
      <trkpt lat="43.8364" lon="6.44637">
        <ele>1010.337341</ele>
        <time>2015-12-28T09:42:48.000Z</time>
      </trkpt>
      <trkpt lat="43.83634" lon="6.44631">
        <ele>1011.013184</ele>
        <time>2015-12-28T09:42:53.000Z</time>
      </trkpt>
      <trkpt lat="43.83628" lon="6.44626">
        <ele>1011.89978</ele>
        <time>2015-12-28T09:42:58.000Z</time>
      </trkpt>
      <trkpt lat="43.83623" lon="6.44623">
        <ele>1012.94104</ele>
        <time>2015-12-28T09:43:03.000Z</time>
      </trkpt>
      <trkpt lat="43.83616" lon="6.44619">
        <ele>1013.911926</ele>
        <time>2015-12-28T09:43:08.000Z</time>
      </trkpt>
      <trkpt lat="43.8361" lon="6.44615">
        <ele>1014.821838</ele>
        <time>2015-12-28T09:43:13.000Z</time>
      </trkpt>
      <trkpt lat="43.83604" lon="6.44611">
        <ele>1015.361938</ele>
        <time>2015-12-28T09:43:18.000Z</time>
      </trkpt>
      <trkpt lat="43.83598" lon="6.44608">
        <ele>1016.186829</ele>
        <time>2015-12-28T09:43:23.000Z</time>
      </trkpt>
      <trkpt lat="43.83591" lon="6.44605">
        <ele>1017.006531</ele>
        <time>2015-12-28T09:43:28.000Z</time>
      </trkpt>
      <trkpt lat="43.83585" lon="6.44601">
        <ele>1018.075989</ele>
        <time>2015-12-28T09:43:33.000Z</time>
      </trkpt>
      <trkpt lat="43.83578" lon="6.44596">
        <ele>1018.917969</ele>
        <time>2015-12-28T09:43:38.000Z</time>
      </trkpt>
      <trkpt lat="43.83573" lon="6.44591">
        <ele>1019.365784</ele>
        <time>2015-12-28T09:43:43.000Z</time>
      </trkpt>
      <trkpt lat="43.83568" lon="6.44585">
        <ele>1020.052673</ele>
        <time>2015-12-28T09:43:48.000Z</time>
      </trkpt>
      <trkpt lat="43.83562" lon="6.44578">
        <ele>1021.017944</ele>
        <time>2015-12-28T09:43:53.000Z</time>
      </trkpt>
      <trkpt lat="43.83557" lon="6.44572">
        <ele>1022.611145</ele>
        <time>2015-12-28T09:43:58.000Z</time>
      </trkpt>
      <trkpt lat="43.83551" lon="6.44566">
        <ele>1024.810059</ele>
        <time>2015-12-28T09:44:03.000Z</time>
      </trkpt>
      <trkpt lat="43.83548" lon="6.44561">
        <ele>1025.099976</ele>
        <time>2015-12-28T09:44:08.000Z</time>
      </trkpt>
      <trkpt lat="43.83547" lon="6.44561">
        <ele>1025.984131</ele>
        <time>2015-12-28T09:44:13.000Z</time>
      </trkpt>
      <trkpt lat="43.83547" lon="6.44561">
        <ele>1026.122314</ele>
        <time>2015-12-28T09:44:18.000Z</time>
      </trkpt>
      <trkpt lat="43.83547" lon="6.44561">
        <ele>1026.123291</ele>
        <time>2015-12-28T09:44:23.000Z</time>
      </trkpt>
      <trkpt lat="43.83547" lon="6.44561">
        <ele>1026.10791</ele>
        <time>2015-12-28T09:44:28.000Z</time>
      </trkpt>
      <trkpt lat="43.83548" lon="6.44561">
        <ele>1025.815552</ele>
        <time>2015-12-28T09:44:33.000Z</time>
      </trkpt>
      <trkpt lat="43.83548" lon="6.44561">
        <ele>1025.80896</ele>
        <time>2015-12-28T09:44:38.000Z</time>
      </trkpt>
      <trkpt lat="43.83548" lon="6.44561">
        <ele>1025.808105</ele>
        <time>2015-12-28T09:44:43.000Z</time>
      </trkpt>
      <trkpt lat="43.83548" lon="6.44561">
        <ele>1025.797485</ele>
        <time>2015-12-28T09:44:48.000Z</time>
      </trkpt>
      <trkpt lat="43.83542" lon="6.44564">
        <ele>1026.061279</ele>
        <time>2015-12-28T09:44:53.000Z</time>
      </trkpt>
      <trkpt lat="43.83538" lon="6.44576">
        <ele>1026.839111</ele>
        <time>2015-12-28T09:44:58.000Z</time>
      </trkpt>
      <trkpt lat="43.83531" lon="6.44588">
        <ele>1027.320679</ele>
        <time>2015-12-28T09:45:03.000Z</time>
      </trkpt>
      <trkpt lat="43.83524" lon="6.44598">
        <ele>1029.357788</ele>
        <time>2015-12-28T09:45:08.000Z</time>
      </trkpt>
      <trkpt lat="43.83521" lon="6.44609">
        <ele>1028.984619</ele>
        <time>2015-12-28T09:45:13.000Z</time>
      </trkpt>
      <trkpt lat="43.83517" lon="6.44623">
        <ele>1029.793701</ele>
        <time>2015-12-28T09:45:18.000Z</time>
      </trkpt>
      <trkpt lat="43.83515" lon="6.44626">
        <ele>1030.936035</ele>
        <time>2015-12-28T09:45:23.000Z</time>
      </trkpt>
      <trkpt lat="43.83513" lon="6.44628">
        <ele>1031.202759</ele>
        <time>2015-12-28T09:45:28.000Z</time>
      </trkpt>
      <trkpt lat="43.83511" lon="6.4463">
        <ele>1031.085327</ele>
        <time>2015-12-28T09:45:33.000Z</time>
      </trkpt>
      <trkpt lat="43.83513" lon="6.44628">
        <ele>1029.376831</ele>
        <time>2015-12-28T09:45:38.000Z</time>
      </trkpt>
      <trkpt lat="43.83516" lon="6.44623">
        <ele>1028.010498</ele>
        <time>2015-12-28T09:45:43.000Z</time>
      </trkpt>
      <trkpt lat="43.83514" lon="6.44627">
        <ele>1028.95166</ele>
        <time>2015-12-28T09:45:48.000Z</time>
      </trkpt>
      <trkpt lat="43.83511" lon="6.44631">
        <ele>1030.523193</ele>
        <time>2015-12-28T09:45:53.000Z</time>
      </trkpt>
      <trkpt lat="43.83507" lon="6.44635">
        <ele>1031.314087</ele>
        <time>2015-12-28T09:45:58.000Z</time>
      </trkpt>
      <trkpt lat="43.83502" lon="6.44641">
        <ele>1031.244995</ele>
        <time>2015-12-28T09:46:03.000Z</time>
      </trkpt>
      <trkpt lat="43.83498" lon="6.44647">
        <ele>1032.209595</ele>
        <time>2015-12-28T09:46:08.000Z</time>
      </trkpt>
      <trkpt lat="43.83494" lon="6.44653">
        <ele>1033.256592</ele>
        <time>2015-12-28T09:46:13.000Z</time>
      </trkpt>
      <trkpt lat="43.83491" lon="6.44658">
        <ele>1033.662354</ele>
        <time>2015-12-28T09:46:18.000Z</time>
      </trkpt>
      <trkpt lat="43.83488" lon="6.44662">
        <ele>1034.930664</ele>
        <time>2015-12-28T09:46:23.000Z</time>
      </trkpt>
      <trkpt lat="43.83485" lon="6.44667">
        <ele>1035.677368</ele>
        <time>2015-12-28T09:46:28.000Z</time>
      </trkpt>
      <trkpt lat="43.83483" lon="6.44672">
        <ele>1036.276611</ele>
        <time>2015-12-28T09:46:33.000Z</time>
      </trkpt>
      <trkpt lat="43.83481" lon="6.44678">
        <ele>1037.191895</ele>
        <time>2015-12-28T09:46:38.000Z</time>
      </trkpt>
      <trkpt lat="43.83479" lon="6.44683">
        <ele>1038.515625</ele>
        <time>2015-12-28T09:46:43.000Z</time>
      </trkpt>
      <trkpt lat="43.83478" lon="6.44688">
        <ele>1040.092285</ele>
        <time>2015-12-28T09:46:48.000Z</time>
      </trkpt>
      <trkpt lat="43.83478" lon="6.44691">
        <ele>1040.116211</ele>
        <time>2015-12-28T09:46:53.000Z</time>
      </trkpt>
      <trkpt lat="43.83477" lon="6.44692">
        <ele>1040.455078</ele>
        <time>2015-12-28T09:46:58.000Z</time>
      </trkpt>
      <trkpt lat="43.83475" lon="6.44692">
        <ele>1041.402466</ele>
        <time>2015-12-28T09:47:03.000Z</time>
      </trkpt>
      <trkpt lat="43.83472" lon="6.44695">
        <ele>1042.088257</ele>
        <time>2015-12-28T09:47:08.000Z</time>
      </trkpt>
      <trkpt lat="43.83469" lon="6.44699">
        <ele>1043.232056</ele>
        <time>2015-12-28T09:47:13.000Z</time>
      </trkpt>
      <trkpt lat="43.83467" lon="6.44703">
        <ele>1044.237183</ele>
        <time>2015-12-28T09:47:18.000Z</time>
      </trkpt>
      <trkpt lat="43.83466" lon="6.44708">
        <ele>1045.065186</ele>
        <time>2015-12-28T09:47:23.000Z</time>
      </trkpt>
      <trkpt lat="43.83465" lon="6.44713">
        <ele>1045.734375</ele>
        <time>2015-12-28T09:47:28.000Z</time>
      </trkpt>
      <trkpt lat="43.83464" lon="6.44719">
        <ele>1044.890869</ele>
        <time>2015-12-28T09:47:33.000Z</time>
      </trkpt>
      <trkpt lat="43.83461" lon="6.44726">
        <ele>1044.486206</ele>
        <time>2015-12-28T09:47:38.000Z</time>
      </trkpt>
      <trkpt lat="43.83458" lon="6.44738">
        <ele>1043.797119</ele>
        <time>2015-12-28T09:47:43.000Z</time>
      </trkpt>
      <trkpt lat="43.83457" lon="6.44741">
        <ele>1043.92334</ele>
        <time>2015-12-28T09:47:48.000Z</time>
      </trkpt>
      <trkpt lat="43.83454" lon="6.44743">
        <ele>1045.968628</ele>
        <time>2015-12-28T09:47:53.000Z</time>
      </trkpt>
      <trkpt lat="43.83451" lon="6.44749">
        <ele>1046.796387</ele>
        <time>2015-12-28T09:47:58.000Z</time>
      </trkpt>
      <trkpt lat="43.83448" lon="6.44755">
        <ele>1047.794189</ele>
        <time>2015-12-28T09:48:03.000Z</time>
      </trkpt>
      <trkpt lat="43.83448" lon="6.44755">
        <ele>1047.657471</ele>
        <time>2015-12-28T09:48:08.000Z</time>
      </trkpt>
      <trkpt lat="43.83449" lon="6.44755">
        <ele>1047.606079</ele>
        <time>2015-12-28T09:48:13.000Z</time>
      </trkpt>
      <trkpt lat="43.83449" lon="6.44755">
        <ele>1047.839722</ele>
        <time>2015-12-28T09:48:18.000Z</time>
      </trkpt>
      <trkpt lat="43.83449" lon="6.44755">
        <ele>1047.809082</ele>
        <time>2015-12-28T09:48:23.000Z</time>
      </trkpt>
      <trkpt lat="43.83449" lon="6.44755">
        <ele>1047.716431</ele>
        <time>2015-12-28T09:48:28.000Z</time>
      </trkpt>
      <trkpt lat="43.83452" lon="6.44753">
        <ele>1048.31897</ele>
        <time>2015-12-28T09:48:33.000Z</time>
      </trkpt>
      <trkpt lat="43.83453" lon="6.44751">
        <ele>1048.385254</ele>
        <time>2015-12-28T09:48:38.000Z</time>
      </trkpt>
      <trkpt lat="43.83453" lon="6.44753">
        <ele>1048.449585</ele>
        <time>2015-12-28T09:48:43.000Z</time>
      </trkpt>
      <trkpt lat="43.83452" lon="6.44763">
        <ele>1047.453125</ele>
        <time>2015-12-28T09:48:48.000Z</time>
      </trkpt>
      <trkpt lat="43.83449" lon="6.4477">
        <ele>1047.348145</ele>
        <time>2015-12-28T09:48:53.000Z</time>
      </trkpt>
      <trkpt lat="43.83444" lon="6.44773">
        <ele>1048.51001</ele>
        <time>2015-12-28T09:48:58.000Z</time>
      </trkpt>
      <trkpt lat="43.83442" lon="6.44776">
        <ele>1049.91394</ele>
        <time>2015-12-28T09:49:03.000Z</time>
      </trkpt>
      <trkpt lat="43.83441" lon="6.44778">
        <ele>1050.756104</ele>
        <time>2015-12-28T09:49:08.000Z</time>
      </trkpt>
      <trkpt lat="43.83442" lon="6.44779">
        <ele>1051.050659</ele>
        <time>2015-12-28T09:49:13.000Z</time>
      </trkpt>
      <trkpt lat="43.83441" lon="6.44779">
        <ele>1051.047485</ele>
        <time>2015-12-28T09:49:18.000Z</time>
      </trkpt>
      <trkpt lat="43.83442" lon="6.44779">
        <ele>1051.075928</ele>
        <time>2015-12-28T09:49:23.000Z</time>
      </trkpt>
      <trkpt lat="43.83442" lon="6.44779">
        <ele>1051.087036</ele>
        <time>2015-12-28T09:49:28.000Z</time>
      </trkpt>
      <trkpt lat="43.83441" lon="6.44779">
        <ele>1051.093628</ele>
        <time>2015-12-28T09:49:33.000Z</time>
      </trkpt>
      <trkpt lat="43.83444" lon="6.44776">
        <ele>1050.762573</ele>
        <time>2015-12-28T09:49:38.000Z</time>
      </trkpt>
      <trkpt lat="43.83447" lon="6.44772">
        <ele>1050.084229</ele>
        <time>2015-12-28T09:49:43.000Z</time>
      </trkpt>
      <trkpt lat="43.83451" lon="6.44768">
        <ele>1049.368286</ele>
        <time>2015-12-28T09:49:48.000Z</time>
      </trkpt>
      <trkpt lat="43.83454" lon="6.44761">
        <ele>1049.826172</ele>
        <time>2015-12-28T09:49:53.000Z</time>
      </trkpt>
      <trkpt lat="43.83456" lon="6.44754">
        <ele>1049.79187</ele>
        <time>2015-12-28T09:49:58.000Z</time>
      </trkpt>
      <trkpt lat="43.83457" lon="6.44749">
        <ele>1048.830933</ele>
        <time>2015-12-28T09:50:03.000Z</time>
      </trkpt>
      <trkpt lat="43.83458" lon="6.44746">
        <ele>1047.970825</ele>
        <time>2015-12-28T09:50:08.000Z</time>
      </trkpt>
      <trkpt lat="43.83458" lon="6.44746">
        <ele>1048.041504</ele>
        <time>2015-12-28T09:50:13.000Z</time>
      </trkpt>
      <trkpt lat="43.83458" lon="6.44746">
        <ele>1048.020386</ele>
        <time>2015-12-28T09:50:18.000Z</time>
      </trkpt>
      <trkpt lat="43.83458" lon="6.44746">
        <ele>1048.012207</ele>
        <time>2015-12-28T09:50:23.000Z</time>
      </trkpt>
      <trkpt lat="43.83458" lon="6.44746">
        <ele>1048.004272</ele>
        <time>2015-12-28T09:50:28.000Z</time>
      </trkpt>
      <trkpt lat="43.83458" lon="6.44746">
        <ele>1048.005127</ele>
        <time>2015-12-28T09:50:33.000Z</time>
      </trkpt>
      <trkpt lat="43.83458" lon="6.44746">
        <ele>1047.762085</ele>
        <time>2015-12-28T09:50:38.000Z</time>
      </trkpt>
      <trkpt lat="43.83459" lon="6.44744">
        <ele>1047.278564</ele>
        <time>2015-12-28T09:50:43.000Z</time>
      </trkpt>
      <trkpt lat="43.8346" lon="6.44743">
        <ele>1046.450195</ele>
        <time>2015-12-28T09:50:48.000Z</time>
      </trkpt>
      <trkpt lat="43.8346" lon="6.44742">
        <ele>1045.733032</ele>
        <time>2015-12-28T09:50:53.000Z</time>
      </trkpt>
      <trkpt lat="43.8346" lon="6.4474">
        <ele>1045.809204</ele>
        <time>2015-12-28T09:50:58.000Z</time>
      </trkpt>
      <trkpt lat="43.8346" lon="6.4474">
        <ele>1045.413086</ele>
        <time>2015-12-28T09:51:03.000Z</time>
      </trkpt>
      <trkpt lat="43.83461" lon="6.4474">
        <ele>1045.5</ele>
        <time>2015-12-28T09:51:08.000Z</time>
      </trkpt>
      <trkpt lat="43.83463" lon="6.44734">
        <ele>1045.338257</ele>
        <time>2015-12-28T09:51:13.000Z</time>
      </trkpt>
      <trkpt lat="43.83466" lon="6.44722">
        <ele>1045.694092</ele>
        <time>2015-12-28T09:51:18.000Z</time>
      </trkpt>
      <trkpt lat="43.83467" lon="6.44714">
        <ele>1046.306641</ele>
        <time>2015-12-28T09:51:23.000Z</time>
      </trkpt>
      <trkpt lat="43.83467" lon="6.44713">
        <ele>1046.417969</ele>
        <time>2015-12-28T09:51:28.000Z</time>
      </trkpt>
      <trkpt lat="43.83467" lon="6.44713">
        <ele>1046.356323</ele>
        <time>2015-12-28T09:51:33.000Z</time>
      </trkpt>
      <trkpt lat="43.83468" lon="6.44709">
        <ele>1045.587158</ele>
        <time>2015-12-28T09:51:38.000Z</time>
      </trkpt>
      <trkpt lat="43.83468" lon="6.44706">
        <ele>1044.671753</ele>
        <time>2015-12-28T09:51:43.000Z</time>
      </trkpt>
      <trkpt lat="43.83469" lon="6.44702">
        <ele>1043.213501</ele>
        <time>2015-12-28T09:51:48.000Z</time>
      </trkpt>
      <trkpt lat="43.83472" lon="6.44697">
        <ele>1041.810059</ele>
        <time>2015-12-28T09:51:53.000Z</time>
      </trkpt>
      <trkpt lat="43.83477" lon="6.44692">
        <ele>1040.182007</ele>
        <time>2015-12-28T09:51:58.000Z</time>
      </trkpt>
      <trkpt lat="43.83481" lon="6.44684">
        <ele>1038.038208</ele>
        <time>2015-12-28T09:52:03.000Z</time>
      </trkpt>
      <trkpt lat="43.83486" lon="6.44669">
        <ele>1034.505005</ele>
        <time>2015-12-28T09:52:08.000Z</time>
      </trkpt>
      <trkpt lat="43.83488" lon="6.44664">
        <ele>1033.724243</ele>
        <time>2015-12-28T09:52:13.000Z</time>
      </trkpt>
      <trkpt lat="43.83488" lon="6.44665">
        <ele>1033.682495</ele>
        <time>2015-12-28T09:52:18.000Z</time>
      </trkpt>
      <trkpt lat="43.83488" lon="6.44665">
        <ele>1033.581421</ele>
        <time>2015-12-28T09:52:23.000Z</time>
      </trkpt>
      <trkpt lat="43.83488" lon="6.44665">
        <ele>1033.5979</ele>
        <time>2015-12-28T09:52:28.000Z</time>
      </trkpt>
      <trkpt lat="43.83488" lon="6.44665">
        <ele>1033.622925</ele>
        <time>2015-12-28T09:52:33.000Z</time>
      </trkpt>
      <trkpt lat="43.83488" lon="6.44665">
        <ele>1033.627686</ele>
        <time>2015-12-28T09:52:38.000Z</time>
      </trkpt>
      <trkpt lat="43.83488" lon="6.44665">
        <ele>1033.629395</ele>
        <time>2015-12-28T09:52:43.000Z</time>
      </trkpt>
      <trkpt lat="43.83488" lon="6.44665">
        <ele>1033.633911</ele>
        <time>2015-12-28T09:52:48.000Z</time>
      </trkpt>
      <trkpt lat="43.83488" lon="6.44665">
        <ele>1033.643188</ele>
        <time>2015-12-28T09:52:53.000Z</time>
      </trkpt>
      <trkpt lat="43.83488" lon="6.44665">
        <ele>1033.514526</ele>
        <time>2015-12-28T09:52:58.000Z</time>
      </trkpt>
      <trkpt lat="43.83489" lon="6.44665">
        <ele>1033.125732</ele>
        <time>2015-12-28T09:53:03.000Z</time>
      </trkpt>
      <trkpt lat="43.83489" lon="6.44665">
        <ele>1033.127197</ele>
        <time>2015-12-28T09:53:08.000Z</time>
      </trkpt>
      <trkpt lat="43.83489" lon="6.44665">
        <ele>1033.127563</ele>
        <time>2015-12-28T09:53:13.000Z</time>
      </trkpt>
      <trkpt lat="43.83489" lon="6.44665">
        <ele>1033.142456</ele>
        <time>2015-12-28T09:53:18.000Z</time>
      </trkpt>
      <trkpt lat="43.8349" lon="6.44664">
        <ele>1032.838013</ele>
        <time>2015-12-28T09:53:23.000Z</time>
      </trkpt>
      <trkpt lat="43.83491" lon="6.44662">
        <ele>1032.60791</ele>
        <time>2015-12-28T09:53:28.000Z</time>
      </trkpt>
      <trkpt lat="43.83494" lon="6.44659">
        <ele>1031.963379</ele>
        <time>2015-12-28T09:53:33.000Z</time>
      </trkpt>
      <trkpt lat="43.835" lon="6.44647">
        <ele>1030.188599</ele>
        <time>2015-12-28T09:53:38.000Z</time>
      </trkpt>
      <trkpt lat="43.83509" lon="6.44634">
        <ele>1029.692749</ele>
        <time>2015-12-28T09:53:43.000Z</time>
      </trkpt>
      <trkpt lat="43.83512" lon="6.4463">
        <ele>1029.027832</ele>
        <time>2015-12-28T09:53:48.000Z</time>
      </trkpt>
      <trkpt lat="43.83518" lon="6.4462">
        <ele>1026.423218</ele>
        <time>2015-12-28T09:53:53.000Z</time>
      </trkpt>
      <trkpt lat="43.83522" lon="6.44605">
        <ele>1026.348145</ele>
        <time>2015-12-28T09:53:58.000Z</time>
      </trkpt>
      <trkpt lat="43.83525" lon="6.44596">
        <ele>1026.540894</ele>
        <time>2015-12-28T09:54:03.000Z</time>
      </trkpt>
      <trkpt lat="43.83531" lon="6.44584">
        <ele>1025.439697</ele>
        <time>2015-12-28T09:54:08.000Z</time>
      </trkpt>
      <trkpt lat="43.83539" lon="6.44571">
        <ele>1024.739624</ele>
        <time>2015-12-28T09:54:13.000Z</time>
      </trkpt>
      <trkpt lat="43.83542" lon="6.4456">
        <ele>1023.871216</ele>
        <time>2015-12-28T09:54:18.000Z</time>
      </trkpt>
      <trkpt lat="43.83541" lon="6.44559">
        <ele>1023.08136</ele>
        <time>2015-12-28T09:54:23.000Z</time>
      </trkpt>
      <trkpt lat="43.83542" lon="6.44561">
        <ele>1023.430786</ele>
        <time>2015-12-28T09:54:28.000Z</time>
      </trkpt>
      <trkpt lat="43.83542" lon="6.44561">
        <ele>1023.991394</ele>
        <time>2015-12-28T09:54:33.000Z</time>
      </trkpt>
      <trkpt lat="43.83541" lon="6.44558">
        <ele>1025.133789</ele>
        <time>2015-12-28T09:54:38.000Z</time>
      </trkpt>
      <trkpt lat="43.83542" lon="6.44558">
        <ele>1025.298584</ele>
        <time>2015-12-28T09:54:43.000Z</time>
      </trkpt>
      <trkpt lat="43.83542" lon="6.44558">
        <ele>1025.372192</ele>
        <time>2015-12-28T09:54:48.000Z</time>
      </trkpt>
      <trkpt lat="43.83542" lon="6.44558">
        <ele>1025.394043</ele>
        <time>2015-12-28T09:54:53.000Z</time>
      </trkpt>
      <trkpt lat="43.83542" lon="6.44558">
        <ele>1025.406372</ele>
        <time>2015-12-28T09:54:58.000Z</time>
      </trkpt>
      <trkpt lat="43.83541" lon="6.44557">
        <ele>1025.837646</ele>
        <time>2015-12-28T09:55:03.000Z</time>
      </trkpt>
      <trkpt lat="43.83541" lon="6.44557">
        <ele>1026.42041</ele>
        <time>2015-12-28T09:55:08.000Z</time>
      </trkpt>
      <trkpt lat="43.83541" lon="6.44557">
        <ele>1026.595337</ele>
        <time>2015-12-28T09:55:13.000Z</time>
      </trkpt>
      <trkpt lat="43.83541" lon="6.44557">
        <ele>1026.553345</ele>
        <time>2015-12-28T09:55:18.000Z</time>
      </trkpt>
      <trkpt lat="43.83541" lon="6.44558">
        <ele>1026.585938</ele>
        <time>2015-12-28T09:55:23.000Z</time>
      </trkpt>
      <trkpt lat="43.83541" lon="6.44558">
        <ele>1026.582275</ele>
        <time>2015-12-28T09:55:28.000Z</time>
      </trkpt>
      <trkpt lat="43.83541" lon="6.44558">
        <ele>1026.578735</ele>
        <time>2015-12-28T09:55:33.000Z</time>
      </trkpt>
      <trkpt lat="43.83541" lon="6.44558">
        <ele>1026.621704</ele>
        <time>2015-12-28T09:55:38.000Z</time>
      </trkpt>
      <trkpt lat="43.83541" lon="6.4456">
        <ele>1026.501953</ele>
        <time>2015-12-28T09:55:43.000Z</time>
      </trkpt>
      <trkpt lat="43.83541" lon="6.4456">
        <ele>1026.333252</ele>
        <time>2015-12-28T09:55:48.000Z</time>
      </trkpt>
      <trkpt lat="43.83541" lon="6.44561">
        <ele>1026.437378</ele>
        <time>2015-12-28T09:55:53.000Z</time>
      </trkpt>
      <trkpt lat="43.83541" lon="6.44561">
        <ele>1027.349121</ele>
        <time>2015-12-28T09:55:58.000Z</time>
      </trkpt>
      <trkpt lat="43.83541" lon="6.44561">
        <ele>1027.33252</ele>
        <time>2015-12-28T09:56:03.000Z</time>
      </trkpt>
      <trkpt lat="43.83541" lon="6.44561">
        <ele>1027.338745</ele>
        <time>2015-12-28T09:56:08.000Z</time>
      </trkpt>
      <trkpt lat="43.83541" lon="6.44561">
        <ele>1027.3479</ele>
        <time>2015-12-28T09:56:13.000Z</time>
      </trkpt>
      <trkpt lat="43.83541" lon="6.44562">
        <ele>1027.397583</ele>
        <time>2015-12-28T09:56:18.000Z</time>
      </trkpt>
      <trkpt lat="43.83541" lon="6.44562">
        <ele>1027.437378</ele>
        <time>2015-12-28T09:56:23.000Z</time>
      </trkpt>
      <trkpt lat="43.83541" lon="6.44562">
        <ele>1027.303589</ele>
        <time>2015-12-28T09:56:28.000Z</time>
      </trkpt>
      <trkpt lat="43.83541" lon="6.44563">
        <ele>1027.198975</ele>
        <time>2015-12-28T09:56:33.000Z</time>
      </trkpt>
      <trkpt lat="43.83541" lon="6.44563">
        <ele>1027.535522</ele>
        <time>2015-12-28T09:56:38.000Z</time>
      </trkpt>
      <trkpt lat="43.83541" lon="6.44563">
        <ele>1027.439331</ele>
        <time>2015-12-28T09:56:43.000Z</time>
      </trkpt>
      <trkpt lat="43.83541" lon="6.44563">
        <ele>1027.702026</ele>
        <time>2015-12-28T09:56:48.000Z</time>
      </trkpt>
      <trkpt lat="43.83542" lon="6.44564">
        <ele>1028.080933</ele>
        <time>2015-12-28T09:56:53.000Z</time>
      </trkpt>
      <trkpt lat="43.83541" lon="6.4456">
        <ele>1029.066528</ele>
        <time>2015-12-28T09:56:58.000Z</time>
      </trkpt>
      <trkpt lat="43.83547" lon="6.44548">
        <ele>1027.851196</ele>
        <time>2015-12-28T09:57:03.000Z</time>
      </trkpt>
      <trkpt lat="43.83549" lon="6.44523">
        <ele>1024.722168</ele>
        <time>2015-12-28T09:57:08.000Z</time>
      </trkpt>
      <trkpt lat="43.83552" lon="6.44496">
        <ele>1022.532593</ele>
        <time>2015-12-28T09:57:13.000Z</time>
      </trkpt>
      <trkpt lat="43.83557" lon="6.44469">
        <ele>1020.152466</ele>
        <time>2015-12-28T09:57:18.000Z</time>
      </trkpt>
      <trkpt lat="43.8357" lon="6.44435">
        <ele>1018.129211</ele>
        <time>2015-12-28T09:57:23.000Z</time>
      </trkpt>
      <trkpt lat="43.83581" lon="6.44399">
        <ele>1016.448425</ele>
        <time>2015-12-28T09:57:28.000Z</time>
      </trkpt>
      <trkpt lat="43.83587" lon="6.44371">
        <ele>1015.233582</ele>
        <time>2015-12-28T09:57:33.000Z</time>
      </trkpt>
      <trkpt lat="43.83586" lon="6.44371">
        <ele>1014.791321</ele>
        <time>2015-12-28T09:57:38.000Z</time>
      </trkpt>
      <trkpt lat="43.83587" lon="6.44369">
        <ele>1015.254761</ele>
        <time>2015-12-28T09:57:43.000Z</time>
      </trkpt>
      <trkpt lat="43.83587" lon="6.44368">
        <ele>1015.098999</ele>
        <time>2015-12-28T09:57:48.000Z</time>
      </trkpt>
      <trkpt lat="43.83587" lon="6.44368">
        <ele>1014.942078</ele>
        <time>2015-12-28T09:57:53.000Z</time>
      </trkpt>
      <trkpt lat="43.83586" lon="6.44369">
        <ele>1015.228027</ele>
        <time>2015-12-28T09:57:58.000Z</time>
      </trkpt>
      <trkpt lat="43.83587" lon="6.44369">
        <ele>1015.263184</ele>
        <time>2015-12-28T09:58:03.000Z</time>
      </trkpt>
      <trkpt lat="43.83587" lon="6.4437">
        <ele>1015.236633</ele>
        <time>2015-12-28T09:58:08.000Z</time>
      </trkpt>
      <trkpt lat="43.83587" lon="6.44371">
        <ele>1015.290466</ele>
        <time>2015-12-28T09:58:13.000Z</time>
      </trkpt>
      <trkpt lat="43.83587" lon="6.44371">
        <ele>1015.200256</ele>
        <time>2015-12-28T09:58:18.000Z</time>
      </trkpt>
      <trkpt lat="43.83586" lon="6.44371">
        <ele>1015.213257</ele>
        <time>2015-12-28T09:58:23.000Z</time>
      </trkpt>
      <trkpt lat="43.83586" lon="6.44371">
        <ele>1015.17749</ele>
        <time>2015-12-28T09:58:28.000Z</time>
      </trkpt>
      <trkpt lat="43.83586" lon="6.44371">
        <ele>1015.121338</ele>
        <time>2015-12-28T09:58:33.000Z</time>
      </trkpt>
      <trkpt lat="43.83586" lon="6.44371">
        <ele>1015.117676</ele>
        <time>2015-12-28T09:58:38.000Z</time>
      </trkpt>
      <trkpt lat="43.83586" lon="6.44371">
        <ele>1015.119202</ele>
        <time>2015-12-28T09:58:43.000Z</time>
      </trkpt>
      <trkpt lat="43.83586" lon="6.44371">
        <ele>1015.124634</ele>
        <time>2015-12-28T09:58:48.000Z</time>
      </trkpt>
      <trkpt lat="43.83586" lon="6.44371">
        <ele>1015.126587</ele>
        <time>2015-12-28T09:58:53.000Z</time>
      </trkpt>
      <trkpt lat="43.83586" lon="6.44371">
        <ele>1015.128357</ele>
        <time>2015-12-28T09:58:58.000Z</time>
      </trkpt>
      <trkpt lat="43.83586" lon="6.44371">
        <ele>1015.132629</ele>
        <time>2015-12-28T09:59:03.000Z</time>
      </trkpt>
      <trkpt lat="43.83586" lon="6.44371">
        <ele>1015.140747</ele>
        <time>2015-12-28T09:59:08.000Z</time>
      </trkpt>
      <trkpt lat="43.83586" lon="6.44371">
        <ele>1015.146484</ele>
        <time>2015-12-28T09:59:13.000Z</time>
      </trkpt>
      <trkpt lat="43.83586" lon="6.44371">
        <ele>1015.151306</ele>
        <time>2015-12-28T09:59:18.000Z</time>
      </trkpt>
      <trkpt lat="43.83586" lon="6.44371">
        <ele>1015.156494</ele>
        <time>2015-12-28T09:59:23.000Z</time>
      </trkpt>
      <trkpt lat="43.83586" lon="6.44371">
        <ele>1015.163452</ele>
        <time>2015-12-28T09:59:28.000Z</time>
      </trkpt>
      <trkpt lat="43.83586" lon="6.44371">
        <ele>1015.17218</ele>
        <time>2015-12-28T09:59:33.000Z</time>
      </trkpt>
      <trkpt lat="43.83586" lon="6.44371">
        <ele>1015.182068</ele>
        <time>2015-12-28T09:59:38.000Z</time>
      </trkpt>
      <trkpt lat="43.83586" lon="6.44371">
        <ele>1015.191833</ele>
        <time>2015-12-28T09:59:43.000Z</time>
      </trkpt>
      <trkpt lat="43.83586" lon="6.44371">
        <ele>1015.193481</ele>
        <time>2015-12-28T09:59:48.000Z</time>
      </trkpt>
      <trkpt lat="43.83586" lon="6.44371">
        <ele>1015.19574</ele>
        <time>2015-12-28T09:59:53.000Z</time>
      </trkpt>
      <trkpt lat="43.83586" lon="6.44371">
        <ele>1015.209167</ele>
        <time>2015-12-28T09:59:58.000Z</time>
      </trkpt>
      <trkpt lat="43.83586" lon="6.44371">
        <ele>1015.240845</ele>
        <time>2015-12-28T10:00:03.000Z</time>
      </trkpt>
      <trkpt lat="43.83586" lon="6.44371">
        <ele>1015.252991</ele>
        <time>2015-12-28T10:00:08.000Z</time>
      </trkpt>
      <trkpt lat="43.83586" lon="6.44371">
        <ele>1015.260254</ele>
        <time>2015-12-28T10:00:13.000Z</time>
      </trkpt>
      <trkpt lat="43.83586" lon="6.44371">
        <ele>1015.399658</ele>
        <time>2015-12-28T10:00:18.000Z</time>
      </trkpt>
      <trkpt lat="43.83588" lon="6.44372">
        <ele>1015.381287</ele>
        <time>2015-12-28T10:00:23.000Z</time>
      </trkpt>
      <trkpt lat="43.83589" lon="6.44376">
        <ele>1015.325073</ele>
        <time>2015-12-28T10:00:28.000Z</time>
      </trkpt>
      <trkpt lat="43.83586" lon="6.44375">
        <ele>1015.547302</ele>
        <time>2015-12-28T10:00:33.000Z</time>
      </trkpt>
      <trkpt lat="43.83586" lon="6.44375">
        <ele>1016.276978</ele>
        <time>2015-12-28T10:00:38.000Z</time>
      </trkpt>
      <trkpt lat="43.83587" lon="6.44375">
        <ele>1016.883484</ele>
        <time>2015-12-28T10:00:43.000Z</time>
      </trkpt>
      <trkpt lat="43.83588" lon="6.44374">
        <ele>1017.131958</ele>
        <time>2015-12-28T10:00:48.000Z</time>
      </trkpt>
      <trkpt lat="43.83587" lon="6.44374">
        <ele>1017.210327</ele>
        <time>2015-12-28T10:00:53.000Z</time>
      </trkpt>
      <trkpt lat="43.83588" lon="6.44373">
        <ele>1017.156555</ele>
        <time>2015-12-28T10:00:58.000Z</time>
      </trkpt>
      <trkpt lat="43.83588" lon="6.44373">
        <ele>1017.252502</ele>
        <time>2015-12-28T10:01:03.000Z</time>
      </trkpt>
      <trkpt lat="43.83589" lon="6.44371">
        <ele>1017.108459</ele>
        <time>2015-12-28T10:01:08.000Z</time>
      </trkpt>
      <trkpt lat="43.83586" lon="6.44375">
        <ele>1016.190002</ele>
        <time>2015-12-28T10:01:13.000Z</time>
      </trkpt>
      <trkpt lat="43.83586" lon="6.44373">
        <ele>1015.354858</ele>
        <time>2015-12-28T10:01:18.000Z</time>
      </trkpt>
      <trkpt lat="43.83586" lon="6.44374">
        <ele>1015.309204</ele>
        <time>2015-12-28T10:01:23.000Z</time>
      </trkpt>
      <trkpt lat="43.83586" lon="6.44374">
        <ele>1015.251038</ele>
        <time>2015-12-28T10:01:28.000Z</time>
      </trkpt>
      <trkpt lat="43.83586" lon="6.44374">
        <ele>1015.247009</ele>
        <time>2015-12-28T10:01:33.000Z</time>
      </trkpt>
      <trkpt lat="43.83586" lon="6.44374">
        <ele>1015.223389</ele>
        <time>2015-12-28T10:01:38.000Z</time>
      </trkpt>
      <trkpt lat="43.83587" lon="6.44372">
        <ele>1015.503662</ele>
        <time>2015-12-28T10:01:43.000Z</time>
      </trkpt>
      <trkpt lat="43.83591" lon="6.44354">
        <ele>1015.619995</ele>
        <time>2015-12-28T10:01:48.000Z</time>
      </trkpt>
      <trkpt lat="43.83599" lon="6.44325">
        <ele>1012.174622</ele>
        <time>2015-12-28T10:01:53.000Z</time>
      </trkpt>
      <trkpt lat="43.83612" lon="6.44293">
        <ele>1009.715393</ele>
        <time>2015-12-28T10:01:58.000Z</time>
      </trkpt>
      <trkpt lat="43.83631" lon="6.44269">
        <ele>1006.622009</ele>
        <time>2015-12-28T10:02:03.000Z</time>
      </trkpt>
      <trkpt lat="43.8364" lon="6.4425">
        <ele>1003.760498</ele>
        <time>2015-12-28T10:02:08.000Z</time>
      </trkpt>
      <trkpt lat="43.83642" lon="6.44224">
        <ele>1002.597961</ele>
        <time>2015-12-28T10:02:13.000Z</time>
      </trkpt>
      <trkpt lat="43.83642" lon="6.44196">
        <ele>1001.519897</ele>
        <time>2015-12-28T10:02:18.000Z</time>
      </trkpt>
      <trkpt lat="43.83645" lon="6.4417">
        <ele>1001.229126</ele>
        <time>2015-12-28T10:02:23.000Z</time>
      </trkpt>
      <trkpt lat="43.83646" lon="6.44141">
        <ele>1000.866455</ele>
        <time>2015-12-28T10:02:28.000Z</time>
      </trkpt>
      <trkpt lat="43.83649" lon="6.44115">
        <ele>1000.409485</ele>
        <time>2015-12-28T10:02:33.000Z</time>
      </trkpt>
      <trkpt lat="43.83654" lon="6.4409">
        <ele>1000.933228</ele>
        <time>2015-12-28T10:02:38.000Z</time>
      </trkpt>
      <trkpt lat="43.83658" lon="6.44068">
        <ele>1001.1875</ele>
        <time>2015-12-28T10:02:43.000Z</time>
      </trkpt>
      <trkpt lat="43.83662" lon="6.44045">
        <ele>1001.206787</ele>
        <time>2015-12-28T10:02:48.000Z</time>
      </trkpt>
      <trkpt lat="43.83672" lon="6.44027">
        <ele>1001.232666</ele>
        <time>2015-12-28T10:02:53.000Z</time>
      </trkpt>
      <trkpt lat="43.83685" lon="6.44018">
        <ele>1001.897766</ele>
        <time>2015-12-28T10:02:58.000Z</time>
      </trkpt>
      <trkpt lat="43.83699" lon="6.44009">
        <ele>1002.645508</ele>
        <time>2015-12-28T10:03:03.000Z</time>
      </trkpt>
      <trkpt lat="43.83715" lon="6.43997">
        <ele>1002.884827</ele>
        <time>2015-12-28T10:03:08.000Z</time>
      </trkpt>
      <trkpt lat="43.83736" lon="6.43994">
        <ele>1003.181396</ele>
        <time>2015-12-28T10:03:13.000Z</time>
      </trkpt>
      <trkpt lat="43.83753" lon="6.43985">
        <ele>1003.625488</ele>
        <time>2015-12-28T10:03:18.000Z</time>
      </trkpt>
      <trkpt lat="43.83756" lon="6.43961">
        <ele>1004.301758</ele>
        <time>2015-12-28T10:03:23.000Z</time>
      </trkpt>
      <trkpt lat="43.83759" lon="6.43938">
        <ele>1004.747925</ele>
        <time>2015-12-28T10:03:28.000Z</time>
      </trkpt>
      <trkpt lat="43.83761" lon="6.4392">
        <ele>1005.930115</ele>
        <time>2015-12-28T10:03:33.000Z</time>
      </trkpt>
      <trkpt lat="43.83761" lon="6.439">
        <ele>1006.508545</ele>
        <time>2015-12-28T10:03:38.000Z</time>
      </trkpt>
      <trkpt lat="43.8376" lon="6.43881">
        <ele>1006.776917</ele>
        <time>2015-12-28T10:03:43.000Z</time>
      </trkpt>
      <trkpt lat="43.83757" lon="6.43861">
        <ele>1008.830261</ele>
        <time>2015-12-28T10:03:48.000Z</time>
      </trkpt>
      <trkpt lat="43.83754" lon="6.43843">
        <ele>1009.815308</ele>
        <time>2015-12-28T10:03:53.000Z</time>
      </trkpt>
      <trkpt lat="43.8375" lon="6.43822">
        <ele>1009.884644</ele>
        <time>2015-12-28T10:03:58.000Z</time>
      </trkpt>
      <trkpt lat="43.83749" lon="6.438">
        <ele>1010.506348</ele>
        <time>2015-12-28T10:04:03.000Z</time>
      </trkpt>
      <trkpt lat="43.83749" lon="6.43781">
        <ele>1010.734192</ele>
        <time>2015-12-28T10:04:08.000Z</time>
      </trkpt>
      <trkpt lat="43.83747" lon="6.43763">
        <ele>1010.899902</ele>
        <time>2015-12-28T10:04:13.000Z</time>
      </trkpt>
      <trkpt lat="43.83747" lon="6.43751">
        <ele>1010.664551</ele>
        <time>2015-12-28T10:04:18.000Z</time>
      </trkpt>
      <trkpt lat="43.83751" lon="6.43738">
        <ele>1008.403687</ele>
        <time>2015-12-28T10:04:23.000Z</time>
      </trkpt>
      <trkpt lat="43.83765" lon="6.4372">
        <ele>1003.290283</ele>
        <time>2015-12-28T10:04:28.000Z</time>
      </trkpt>
      <trkpt lat="43.8378" lon="6.43703">
        <ele>998.349731</ele>
        <time>2015-12-28T10:04:33.000Z</time>
      </trkpt>
      <trkpt lat="43.83795" lon="6.43685">
        <ele>993.698059</ele>
        <time>2015-12-28T10:04:38.000Z</time>
      </trkpt>
      <trkpt lat="43.83812" lon="6.43671">
        <ele>989.910767</ele>
        <time>2015-12-28T10:04:43.000Z</time>
      </trkpt>
      <trkpt lat="43.8383" lon="6.43653">
        <ele>986.411987</ele>
        <time>2015-12-28T10:04:48.000Z</time>
      </trkpt>
      <trkpt lat="43.83852" lon="6.43643">
        <ele>983.918579</ele>
        <time>2015-12-28T10:04:53.000Z</time>
      </trkpt>
      <trkpt lat="43.83878" lon="6.4363">
        <ele>979.923035</ele>
        <time>2015-12-28T10:04:58.000Z</time>
      </trkpt>
      <trkpt lat="43.83901" lon="6.43609">
        <ele>977.299316</ele>
        <time>2015-12-28T10:05:03.000Z</time>
      </trkpt>
      <trkpt lat="43.83928" lon="6.43589">
        <ele>974.299011</ele>
        <time>2015-12-28T10:05:08.000Z</time>
      </trkpt>
      <trkpt lat="43.8395" lon="6.43564">
        <ele>971.182129</ele>
        <time>2015-12-28T10:05:13.000Z</time>
      </trkpt>
      <trkpt lat="43.83973" lon="6.43542">
        <ele>967.674072</ele>
        <time>2015-12-28T10:05:18.000Z</time>
      </trkpt>
      <trkpt lat="43.83993" lon="6.43522">
        <ele>964.27594</ele>
        <time>2015-12-28T10:05:23.000Z</time>
      </trkpt>
      <trkpt lat="43.84004" lon="6.43497">
        <ele>962.773621</ele>
        <time>2015-12-28T10:05:28.000Z</time>
      </trkpt>
      <trkpt lat="43.84001" lon="6.4347">
        <ele>960.341553</ele>
        <time>2015-12-28T10:05:33.000Z</time>
      </trkpt>
      <trkpt lat="43.83989" lon="6.43443">
        <ele>957.237732</ele>
        <time>2015-12-28T10:05:38.000Z</time>
      </trkpt>
      <trkpt lat="43.83976" lon="6.43413">
        <ele>952.884521</ele>
        <time>2015-12-28T10:05:43.000Z</time>
      </trkpt>
      <trkpt lat="43.83964" lon="6.43395">
        <ele>949.656738</ele>
        <time>2015-12-28T10:05:48.000Z</time>
      </trkpt>
      <trkpt lat="43.83954" lon="6.43425">
        <ele>945.096375</ele>
        <time>2015-12-28T10:05:53.000Z</time>
      </trkpt>
      <trkpt lat="43.83942" lon="6.43463">
        <ele>940.959167</ele>
        <time>2015-12-28T10:05:58.000Z</time>
      </trkpt>
      <trkpt lat="43.83918" lon="6.43488">
        <ele>937.063171</ele>
        <time>2015-12-28T10:06:03.000Z</time>
      </trkpt>
      <trkpt lat="43.83911" lon="6.43478">
        <ele>929.318176</ele>
        <time>2015-12-28T10:06:08.000Z</time>
      </trkpt>
      <trkpt lat="43.83913" lon="6.43441">
        <ele>922.293213</ele>
        <time>2015-12-28T10:06:13.000Z</time>
      </trkpt>
      <trkpt lat="43.83911" lon="6.43407">
        <ele>919.112549</ele>
        <time>2015-12-28T10:06:18.000Z</time>
      </trkpt>
      <trkpt lat="43.839" lon="6.43401">
        <ele>916.507202</ele>
        <time>2015-12-28T10:06:23.000Z</time>
      </trkpt>
      <trkpt lat="43.83891" lon="6.434">
        <ele>914.168823</ele>
        <time>2015-12-28T10:06:28.000Z</time>
      </trkpt>
      <trkpt lat="43.83878" lon="6.43392">
        <ele>913.30896</ele>
        <time>2015-12-28T10:06:33.000Z</time>
      </trkpt>
      <trkpt lat="43.83868" lon="6.4337">
        <ele>913.085693</ele>
        <time>2015-12-28T10:06:38.000Z</time>
      </trkpt>
      <trkpt lat="43.83858" lon="6.43355">
        <ele>912.273376</ele>
        <time>2015-12-28T10:06:43.000Z</time>
      </trkpt>
      <trkpt lat="43.83846" lon="6.43338">
        <ele>914.879333</ele>
        <time>2015-12-28T10:06:48.000Z</time>
      </trkpt>
      <trkpt lat="43.83835" lon="6.4332">
        <ele>915.720886</ele>
        <time>2015-12-28T10:06:53.000Z</time>
      </trkpt>
      <trkpt lat="43.83826" lon="6.43305">
        <ele>916.705994</ele>
        <time>2015-12-28T10:06:58.000Z</time>
      </trkpt>
      <trkpt lat="43.83817" lon="6.43289">
        <ele>915.701843</ele>
        <time>2015-12-28T10:07:03.000Z</time>
      </trkpt>
      <trkpt lat="43.83808" lon="6.43274">
        <ele>914.694885</ele>
        <time>2015-12-28T10:07:08.000Z</time>
      </trkpt>
      <trkpt lat="43.838" lon="6.4326">
        <ele>914.221436</ele>
        <time>2015-12-28T10:07:13.000Z</time>
      </trkpt>
      <trkpt lat="43.83793" lon="6.43245">
        <ele>915.38031</ele>
        <time>2015-12-28T10:07:18.000Z</time>
      </trkpt>
      <trkpt lat="43.83785" lon="6.43232">
        <ele>916.538635</ele>
        <time>2015-12-28T10:07:23.000Z</time>
      </trkpt>
      <trkpt lat="43.83776" lon="6.43219">
        <ele>915.711853</ele>
        <time>2015-12-28T10:07:28.000Z</time>
      </trkpt>
      <trkpt lat="43.83767" lon="6.43207">
        <ele>916.492371</ele>
        <time>2015-12-28T10:07:33.000Z</time>
      </trkpt>
      <trkpt lat="43.83758" lon="6.43193">
        <ele>916.851501</ele>
        <time>2015-12-28T10:07:38.000Z</time>
      </trkpt>
      <trkpt lat="43.83752" lon="6.43178">
        <ele>916.828735</ele>
        <time>2015-12-28T10:07:43.000Z</time>
      </trkpt>
      <trkpt lat="43.83744" lon="6.43162">
        <ele>916.211548</ele>
        <time>2015-12-28T10:07:48.000Z</time>
      </trkpt>
      <trkpt lat="43.83736" lon="6.43146">
        <ele>916.04126</ele>
        <time>2015-12-28T10:07:53.000Z</time>
      </trkpt>
      <trkpt lat="43.83727" lon="6.4313">
        <ele>916.848145</ele>
        <time>2015-12-28T10:07:58.000Z</time>
      </trkpt>
      <trkpt lat="43.83717" lon="6.43121">
        <ele>917.620361</ele>
        <time>2015-12-28T10:08:03.000Z</time>
      </trkpt>
      <trkpt lat="43.83708" lon="6.43106">
        <ele>919.071838</ele>
        <time>2015-12-28T10:08:08.000Z</time>
      </trkpt>
      <trkpt lat="43.83705" lon="6.4309">
        <ele>920.324646</ele>
        <time>2015-12-28T10:08:13.000Z</time>
      </trkpt>
      <trkpt lat="43.83707" lon="6.43074">
        <ele>921.172668</ele>
        <time>2015-12-28T10:08:18.000Z</time>
      </trkpt>
      <trkpt lat="43.83708" lon="6.43058">
        <ele>922.275635</ele>
        <time>2015-12-28T10:08:23.000Z</time>
      </trkpt>
      <trkpt lat="43.83709" lon="6.43044">
        <ele>923.395325</ele>
        <time>2015-12-28T10:08:28.000Z</time>
      </trkpt>
      <trkpt lat="43.83709" lon="6.43031">
        <ele>923.06311</ele>
        <time>2015-12-28T10:08:33.000Z</time>
      </trkpt>
      <trkpt lat="43.83709" lon="6.43015">
        <ele>923.032288</ele>
        <time>2015-12-28T10:08:38.000Z</time>
      </trkpt>
      <trkpt lat="43.8371" lon="6.43">
        <ele>923.132324</ele>
        <time>2015-12-28T10:08:43.000Z</time>
      </trkpt>
      <trkpt lat="43.8371" lon="6.42983">
        <ele>923.339539</ele>
        <time>2015-12-28T10:08:48.000Z</time>
      </trkpt>
      <trkpt lat="43.83711" lon="6.42959">
        <ele>922.916565</ele>
        <time>2015-12-28T10:08:53.000Z</time>
      </trkpt>
      <trkpt lat="43.83712" lon="6.42929">
        <ele>922.342285</ele>
        <time>2015-12-28T10:08:58.000Z</time>
      </trkpt>
      <trkpt lat="43.83713" lon="6.42898">
        <ele>922.470337</ele>
        <time>2015-12-28T10:09:03.000Z</time>
      </trkpt>
      <trkpt lat="43.83713" lon="6.42868">
        <ele>922.013306</ele>
        <time>2015-12-28T10:09:08.000Z</time>
      </trkpt>
      <trkpt lat="43.83714" lon="6.42833">
        <ele>921.339417</ele>
        <time>2015-12-28T10:09:13.000Z</time>
      </trkpt>
      <trkpt lat="43.83726" lon="6.42796">
        <ele>920.224792</ele>
        <time>2015-12-28T10:09:18.000Z</time>
      </trkpt>
      <trkpt lat="43.83746" lon="6.42778">
        <ele>920.988403</ele>
        <time>2015-12-28T10:09:23.000Z</time>
      </trkpt>
      <trkpt lat="43.83755" lon="6.42762">
        <ele>922.033936</ele>
        <time>2015-12-28T10:09:28.000Z</time>
      </trkpt>
      <trkpt lat="43.8376" lon="6.42749">
        <ele>923.062195</ele>
        <time>2015-12-28T10:09:33.000Z</time>
      </trkpt>
      <trkpt lat="43.83763" lon="6.42746">
        <ele>922.552673</ele>
        <time>2015-12-28T10:09:38.000Z</time>
      </trkpt>
      <trkpt lat="43.83763" lon="6.42746">
        <ele>922.58783</ele>
        <time>2015-12-28T10:09:43.000Z</time>
      </trkpt>
      <trkpt lat="43.83763" lon="6.42746">
        <ele>922.613342</ele>
        <time>2015-12-28T10:09:48.000Z</time>
      </trkpt>
      <trkpt lat="43.83763" lon="6.42746">
        <ele>922.626099</ele>
        <time>2015-12-28T10:09:53.000Z</time>
      </trkpt>
      <trkpt lat="43.83763" lon="6.42746">
        <ele>922.610657</ele>
        <time>2015-12-28T10:09:58.000Z</time>
      </trkpt>
      <trkpt lat="43.83763" lon="6.42746">
        <ele>922.62738</ele>
        <time>2015-12-28T10:10:03.000Z</time>
      </trkpt>
      <trkpt lat="43.83763" lon="6.42746">
        <ele>922.5979</ele>
        <time>2015-12-28T10:10:08.000Z</time>
      </trkpt>
      <trkpt lat="43.83763" lon="6.42746">
        <ele>922.469543</ele>
        <time>2015-12-28T10:10:13.000Z</time>
      </trkpt>
      <trkpt lat="43.83763" lon="6.42746">
        <ele>922.405212</ele>
        <time>2015-12-28T10:10:18.000Z</time>
      </trkpt>
      <trkpt lat="43.83763" lon="6.42746">
        <ele>922.408142</ele>
        <time>2015-12-28T10:10:23.000Z</time>
      </trkpt>
      <trkpt lat="43.83765" lon="6.42743">
        <ele>923.28656</ele>
        <time>2015-12-28T10:10:28.000Z</time>
      </trkpt>
      <trkpt lat="43.83779" lon="6.42735">
        <ele>923.94342</ele>
        <time>2015-12-28T10:10:33.000Z</time>
      </trkpt>
      <trkpt lat="43.83795" lon="6.42728">
        <ele>924.514526</ele>
        <time>2015-12-28T10:10:38.000Z</time>
      </trkpt>
      <trkpt lat="43.83812" lon="6.4272">
        <ele>924.211914</ele>
        <time>2015-12-28T10:10:43.000Z</time>
      </trkpt>
      <trkpt lat="43.83831" lon="6.42709">
        <ele>923.468811</ele>
        <time>2015-12-28T10:10:48.000Z</time>
      </trkpt>
      <trkpt lat="43.83845" lon="6.42695">
        <ele>922.635132</ele>
        <time>2015-12-28T10:10:53.000Z</time>
      </trkpt>
      <trkpt lat="43.83847" lon="6.42685">
        <ele>922.364563</ele>
        <time>2015-12-28T10:10:58.000Z</time>
      </trkpt>
      <trkpt lat="43.83846" lon="6.42673">
        <ele>921.542175</ele>
        <time>2015-12-28T10:11:03.000Z</time>
      </trkpt>
      <trkpt lat="43.83836" lon="6.4265">
        <ele>921.086426</ele>
        <time>2015-12-28T10:11:08.000Z</time>
      </trkpt>
      <trkpt lat="43.83835" lon="6.42622">
        <ele>920.56488</ele>
        <time>2015-12-28T10:11:13.000Z</time>
      </trkpt>
      <trkpt lat="43.83834" lon="6.42594">
        <ele>918.87146</ele>
        <time>2015-12-28T10:11:18.000Z</time>
      </trkpt>
      <trkpt lat="43.83853" lon="6.42583">
        <ele>918.06897</ele>
        <time>2015-12-28T10:11:23.000Z</time>
      </trkpt>
      <trkpt lat="43.83868" lon="6.42584">
        <ele>920.349854</ele>
        <time>2015-12-28T10:11:28.000Z</time>
      </trkpt>
      <trkpt lat="43.83882" lon="6.42581">
        <ele>921.527039</ele>
        <time>2015-12-28T10:11:33.000Z</time>
      </trkpt>
      <trkpt lat="43.83893" lon="6.42582">
        <ele>922.467407</ele>
        <time>2015-12-28T10:11:38.000Z</time>
      </trkpt>
      <trkpt lat="43.83903" lon="6.42564">
        <ele>918.698303</ele>
        <time>2015-12-28T10:11:43.000Z</time>
      </trkpt>
      <trkpt lat="43.83898" lon="6.42542">
        <ele>915.759338</ele>
        <time>2015-12-28T10:11:48.000Z</time>
      </trkpt>
      <trkpt lat="43.83893" lon="6.42518">
        <ele>912.508179</ele>
        <time>2015-12-28T10:11:53.000Z</time>
      </trkpt>
      <trkpt lat="43.83892" lon="6.42503">
        <ele>912.221313</ele>
        <time>2015-12-28T10:11:58.000Z</time>
      </trkpt>
      <trkpt lat="43.83889" lon="6.42488">
        <ele>909.971191</ele>
        <time>2015-12-28T10:12:03.000Z</time>
      </trkpt>
      <trkpt lat="43.83902" lon="6.42466">
        <ele>908.021423</ele>
        <time>2015-12-28T10:12:08.000Z</time>
      </trkpt>
      <trkpt lat="43.83927" lon="6.4245">
        <ele>906.120972</ele>
        <time>2015-12-28T10:12:13.000Z</time>
      </trkpt>
      <trkpt lat="43.8394" lon="6.4245">
        <ele>906.265381</ele>
        <time>2015-12-28T10:12:18.000Z</time>
      </trkpt>
      <trkpt lat="43.83942" lon="6.42448">
        <ele>907.589661</ele>
        <time>2015-12-28T10:12:23.000Z</time>
      </trkpt>
      <trkpt lat="43.83941" lon="6.42432">
        <ele>906.965149</ele>
        <time>2015-12-28T10:12:28.000Z</time>
      </trkpt>
      <trkpt lat="43.83948" lon="6.42411">
        <ele>906.36261</ele>
        <time>2015-12-28T10:12:33.000Z</time>
      </trkpt>
      <trkpt lat="43.8396" lon="6.424">
        <ele>908.764282</ele>
        <time>2015-12-28T10:12:38.000Z</time>
      </trkpt>
      <trkpt lat="43.83965" lon="6.42385">
        <ele>908.435608</ele>
        <time>2015-12-28T10:12:43.000Z</time>
      </trkpt>
      <trkpt lat="43.8396" lon="6.42373">
        <ele>907.830322</ele>
        <time>2015-12-28T10:12:48.000Z</time>
      </trkpt>
      <trkpt lat="43.83952" lon="6.42368">
        <ele>908.25</ele>
        <time>2015-12-28T10:12:53.000Z</time>
      </trkpt>
      <trkpt lat="43.83942" lon="6.42366">
        <ele>910.265076</ele>
        <time>2015-12-28T10:12:58.000Z</time>
      </trkpt>
      <trkpt lat="43.83932" lon="6.42367">
        <ele>912.034424</ele>
        <time>2015-12-28T10:13:03.000Z</time>
      </trkpt>
      <trkpt lat="43.83924" lon="6.42366">
        <ele>913.519958</ele>
        <time>2015-12-28T10:13:08.000Z</time>
      </trkpt>
      <trkpt lat="43.83917" lon="6.42362">
        <ele>912.138672</ele>
        <time>2015-12-28T10:13:13.000Z</time>
      </trkpt>
      <trkpt lat="43.83912" lon="6.42353">
        <ele>912.019226</ele>
        <time>2015-12-28T10:13:18.000Z</time>
      </trkpt>
      <trkpt lat="43.83909" lon="6.42347">
        <ele>913.798462</ele>
        <time>2015-12-28T10:13:23.000Z</time>
      </trkpt>
      <trkpt lat="43.83906" lon="6.42339">
        <ele>915.916199</ele>
        <time>2015-12-28T10:13:28.000Z</time>
      </trkpt>
      <trkpt lat="43.83903" lon="6.42333">
        <ele>918.277466</ele>
        <time>2015-12-28T10:13:33.000Z</time>
      </trkpt>
      <trkpt lat="43.83898" lon="6.42326">
        <ele>919.713501</ele>
        <time>2015-12-28T10:13:38.000Z</time>
      </trkpt>
      <trkpt lat="43.83893" lon="6.42321">
        <ele>918.933105</ele>
        <time>2015-12-28T10:13:43.000Z</time>
      </trkpt>
      <trkpt lat="43.83887" lon="6.42315">
        <ele>916.913574</ele>
        <time>2015-12-28T10:13:48.000Z</time>
      </trkpt>
      <trkpt lat="43.83882" lon="6.4231">
        <ele>915.16687</ele>
        <time>2015-12-28T10:13:53.000Z</time>
      </trkpt>
      <trkpt lat="43.83876" lon="6.42306">
        <ele>913.752136</ele>
        <time>2015-12-28T10:13:58.000Z</time>
      </trkpt>
      <trkpt lat="43.83871" lon="6.42302">
        <ele>912.225403</ele>
        <time>2015-12-28T10:14:03.000Z</time>
      </trkpt>
      <trkpt lat="43.83865" lon="6.42299">
        <ele>911.644226</ele>
        <time>2015-12-28T10:14:08.000Z</time>
      </trkpt>
      <trkpt lat="43.83858" lon="6.42297">
        <ele>910.951477</ele>
        <time>2015-12-28T10:14:13.000Z</time>
      </trkpt>
      <trkpt lat="43.83852" lon="6.42295">
        <ele>910.909424</ele>
        <time>2015-12-28T10:14:18.000Z</time>
      </trkpt>
      <trkpt lat="43.83846" lon="6.42293">
        <ele>910.134766</ele>
        <time>2015-12-28T10:14:23.000Z</time>
      </trkpt>
      <trkpt lat="43.8384" lon="6.42293">
        <ele>909.84198</ele>
        <time>2015-12-28T10:14:28.000Z</time>
      </trkpt>
      <trkpt lat="43.83833" lon="6.42294">
        <ele>911.065369</ele>
        <time>2015-12-28T10:14:33.000Z</time>
      </trkpt>
      <trkpt lat="43.83828" lon="6.42297">
        <ele>913.359497</ele>
        <time>2015-12-28T10:14:38.000Z</time>
      </trkpt>
      <trkpt lat="43.83822" lon="6.42298">
        <ele>916.394348</ele>
        <time>2015-12-28T10:14:43.000Z</time>
      </trkpt>
      <trkpt lat="43.83816" lon="6.42299">
        <ele>919.459351</ele>
        <time>2015-12-28T10:14:48.000Z</time>
      </trkpt>
      <trkpt lat="43.83811" lon="6.42299">
        <ele>922.595337</ele>
        <time>2015-12-28T10:14:53.000Z</time>
      </trkpt>
      <trkpt lat="43.83805" lon="6.42298">
        <ele>924.639648</ele>
        <time>2015-12-28T10:14:58.000Z</time>
      </trkpt>
      <trkpt lat="43.83802" lon="6.42294">
        <ele>925.248047</ele>
        <time>2015-12-28T10:15:03.000Z</time>
      </trkpt>
      <trkpt lat="43.83802" lon="6.42293">
        <ele>925.084961</ele>
        <time>2015-12-28T10:15:08.000Z</time>
      </trkpt>
      <trkpt lat="43.83802" lon="6.42293">
        <ele>925.146912</ele>
        <time>2015-12-28T10:15:13.000Z</time>
      </trkpt>
      <trkpt lat="43.83802" lon="6.42293">
        <ele>925.883057</ele>
        <time>2015-12-28T10:15:18.000Z</time>
      </trkpt>
      <trkpt lat="43.83802" lon="6.42291">
        <ele>926.255371</ele>
        <time>2015-12-28T10:15:23.000Z</time>
      </trkpt>
      <trkpt lat="43.83802" lon="6.42291">
        <ele>926.197388</ele>
        <time>2015-12-28T10:15:28.000Z</time>
      </trkpt>
      <trkpt lat="43.83802" lon="6.42291">
        <ele>926.237915</ele>
        <time>2015-12-28T10:15:33.000Z</time>
      </trkpt>
      <trkpt lat="43.83802" lon="6.42291">
        <ele>926.285706</ele>
        <time>2015-12-28T10:15:38.000Z</time>
      </trkpt>
      <trkpt lat="43.83802" lon="6.42291">
        <ele>926.321472</ele>
        <time>2015-12-28T10:15:43.000Z</time>
      </trkpt>
      <trkpt lat="43.83802" lon="6.42291">
        <ele>926.337524</ele>
        <time>2015-12-28T10:15:48.000Z</time>
      </trkpt>
      <trkpt lat="43.83802" lon="6.42291">
        <ele>926.354248</ele>
        <time>2015-12-28T10:15:53.000Z</time>
      </trkpt>
      <trkpt lat="43.83802" lon="6.42291">
        <ele>926.361694</ele>
        <time>2015-12-28T10:15:58.000Z</time>
      </trkpt>
      <trkpt lat="43.83802" lon="6.42291">
        <ele>926.37207</ele>
        <time>2015-12-28T10:16:03.000Z</time>
      </trkpt>
      <trkpt lat="43.83802" lon="6.42291">
        <ele>926.38269</ele>
        <time>2015-12-28T10:16:08.000Z</time>
      </trkpt>
      <trkpt lat="43.83802" lon="6.42291">
        <ele>926.395325</ele>
        <time>2015-12-28T10:16:13.000Z</time>
      </trkpt>
      <trkpt lat="43.83802" lon="6.42291">
        <ele>926.408142</ele>
        <time>2015-12-28T10:16:18.000Z</time>
      </trkpt>
      <trkpt lat="43.83802" lon="6.42291">
        <ele>926.412476</ele>
        <time>2015-12-28T10:16:23.000Z</time>
      </trkpt>
      <trkpt lat="43.83802" lon="6.42291">
        <ele>926.427612</ele>
        <time>2015-12-28T10:16:28.000Z</time>
      </trkpt>
      <trkpt lat="43.83802" lon="6.42291">
        <ele>926.443298</ele>
        <time>2015-12-28T10:16:33.000Z</time>
      </trkpt>
      <trkpt lat="43.83802" lon="6.42291">
        <ele>926.459656</ele>
        <time>2015-12-28T10:16:38.000Z</time>
      </trkpt>
      <trkpt lat="43.83802" lon="6.42291">
        <ele>926.473877</ele>
        <time>2015-12-28T10:16:43.000Z</time>
      </trkpt>
      <trkpt lat="43.83802" lon="6.42291">
        <ele>926.490417</ele>
        <time>2015-12-28T10:16:48.000Z</time>
      </trkpt>
      <trkpt lat="43.83802" lon="6.42291">
        <ele>926.507996</ele>
        <time>2015-12-28T10:16:53.000Z</time>
      </trkpt>
      <trkpt lat="43.83802" lon="6.42291">
        <ele>926.517761</ele>
        <time>2015-12-28T10:16:58.000Z</time>
      </trkpt>
      <trkpt lat="43.83802" lon="6.42291">
        <ele>926.531616</ele>
        <time>2015-12-28T10:17:03.000Z</time>
      </trkpt>
      <trkpt lat="43.83802" lon="6.42291">
        <ele>926.5448</ele>
        <time>2015-12-28T10:17:08.000Z</time>
      </trkpt>
      <trkpt lat="43.83803" lon="6.42291">
        <ele>927.205078</ele>
        <time>2015-12-28T10:17:13.000Z</time>
      </trkpt>
      <trkpt lat="43.83803" lon="6.42292">
        <ele>927.388672</ele>
        <time>2015-12-28T10:17:18.000Z</time>
      </trkpt>
      <trkpt lat="43.83803" lon="6.42291">
        <ele>927.452271</ele>
        <time>2015-12-28T10:17:23.000Z</time>
      </trkpt>
      <trkpt lat="43.83803" lon="6.42291">
        <ele>927.473022</ele>
        <time>2015-12-28T10:17:28.000Z</time>
      </trkpt>
      <trkpt lat="43.83803" lon="6.42291">
        <ele>927.503052</ele>
        <time>2015-12-28T10:17:33.000Z</time>
      </trkpt>
      <trkpt lat="43.83803" lon="6.42291">
        <ele>927.521423</ele>
        <time>2015-12-28T10:17:38.000Z</time>
      </trkpt>
      <trkpt lat="43.83803" lon="6.42291">
        <ele>927.548218</ele>
        <time>2015-12-28T10:17:43.000Z</time>
      </trkpt>
      <trkpt lat="43.83803" lon="6.42291">
        <ele>927.574524</ele>
        <time>2015-12-28T10:17:48.000Z</time>
      </trkpt>
      <trkpt lat="43.83803" lon="6.42291">
        <ele>927.600037</ele>
        <time>2015-12-28T10:17:53.000Z</time>
      </trkpt>
      <trkpt lat="43.83803" lon="6.42291">
        <ele>927.649292</ele>
        <time>2015-12-28T10:17:58.000Z</time>
      </trkpt>
      <trkpt lat="43.83803" lon="6.42291">
        <ele>927.691284</ele>
        <time>2015-12-28T10:18:03.000Z</time>
      </trkpt>
      <trkpt lat="43.83803" lon="6.42291">
        <ele>927.725098</ele>
        <time>2015-12-28T10:18:08.000Z</time>
      </trkpt>
      <trkpt lat="43.83803" lon="6.42291">
        <ele>927.752197</ele>
        <time>2015-12-28T10:18:13.000Z</time>
      </trkpt>
      <trkpt lat="43.83803" lon="6.42291">
        <ele>927.778809</ele>
        <time>2015-12-28T10:18:18.000Z</time>
      </trkpt>
      <trkpt lat="43.83803" lon="6.42294">
        <ele>927.361145</ele>
        <time>2015-12-28T10:18:23.000Z</time>
      </trkpt>
      <trkpt lat="43.83804" lon="6.42293">
        <ele>927.833679</ele>
        <time>2015-12-28T10:18:28.000Z</time>
      </trkpt>
      <trkpt lat="43.83804" lon="6.42293">
        <ele>927.914917</ele>
        <time>2015-12-28T10:18:33.000Z</time>
      </trkpt>
      <trkpt lat="43.83804" lon="6.42293">
        <ele>927.950195</ele>
        <time>2015-12-28T10:18:38.000Z</time>
      </trkpt>
      <trkpt lat="43.83804" lon="6.42293">
        <ele>927.96228</ele>
        <time>2015-12-28T10:18:43.000Z</time>
      </trkpt>
      <trkpt lat="43.83804" lon="6.42293">
        <ele>927.9729</ele>
        <time>2015-12-28T10:18:48.000Z</time>
      </trkpt>
      <trkpt lat="43.83807" lon="6.4229">
        <ele>928.64209</ele>
        <time>2015-12-28T10:18:53.000Z</time>
      </trkpt>
      <trkpt lat="43.83812" lon="6.42287">
        <ele>930.039978</ele>
        <time>2015-12-28T10:18:58.000Z</time>
      </trkpt>
      <trkpt lat="43.83817" lon="6.42282">
        <ele>930.747009</ele>
        <time>2015-12-28T10:19:03.000Z</time>
      </trkpt>
      <trkpt lat="43.83815" lon="6.42275">
        <ele>931.359802</ele>
        <time>2015-12-28T10:19:08.000Z</time>
      </trkpt>
      <trkpt lat="43.83811" lon="6.42272">
        <ele>931.846558</ele>
        <time>2015-12-28T10:19:13.000Z</time>
      </trkpt>
      <trkpt lat="43.83806" lon="6.42269">
        <ele>931.900635</ele>
        <time>2015-12-28T10:19:18.000Z</time>
      </trkpt>
      <trkpt lat="43.83802" lon="6.42266">
        <ele>933.16333</ele>
        <time>2015-12-28T10:19:23.000Z</time>
      </trkpt>
      <trkpt lat="43.83802" lon="6.42265">
        <ele>933.565247</ele>
        <time>2015-12-28T10:19:28.000Z</time>
      </trkpt>
      <trkpt lat="43.83798" lon="6.42262">
        <ele>933.836792</ele>
        <time>2015-12-28T10:19:33.000Z</time>
      </trkpt>
      <trkpt lat="43.83792" lon="6.42258">
        <ele>934.074341</ele>
        <time>2015-12-28T10:19:38.000Z</time>
      </trkpt>
      <trkpt lat="43.83786" lon="6.42255">
        <ele>934.338013</ele>
        <time>2015-12-28T10:19:43.000Z</time>
      </trkpt>
      <trkpt lat="43.8378" lon="6.42252">
        <ele>934.257751</ele>
        <time>2015-12-28T10:19:48.000Z</time>
      </trkpt>
      <trkpt lat="43.83774" lon="6.42248">
        <ele>935.279358</ele>
        <time>2015-12-28T10:19:53.000Z</time>
      </trkpt>
      <trkpt lat="43.83768" lon="6.42242">
        <ele>935.956604</ele>
        <time>2015-12-28T10:19:58.000Z</time>
      </trkpt>
      <trkpt lat="43.83761" lon="6.42239">
        <ele>935.81073</ele>
        <time>2015-12-28T10:20:03.000Z</time>
      </trkpt>
      <trkpt lat="43.83755" lon="6.42231">
        <ele>935.927246</ele>
        <time>2015-12-28T10:20:08.000Z</time>
      </trkpt>
      <trkpt lat="43.8375" lon="6.42222">
        <ele>936.281677</ele>
        <time>2015-12-28T10:20:13.000Z</time>
      </trkpt>
      <trkpt lat="43.83746" lon="6.42214">
        <ele>936.517151</ele>
        <time>2015-12-28T10:20:18.000Z</time>
      </trkpt>
      <trkpt lat="43.83743" lon="6.42207">
        <ele>936.030396</ele>
        <time>2015-12-28T10:20:23.000Z</time>
      </trkpt>
      <trkpt lat="43.83739" lon="6.42202">
        <ele>935.752258</ele>
        <time>2015-12-28T10:20:28.000Z</time>
      </trkpt>
      <trkpt lat="43.83735" lon="6.422">
        <ele>934.831726</ele>
        <time>2015-12-28T10:20:33.000Z</time>
      </trkpt>
      <trkpt lat="43.83723" lon="6.422">
        <ele>932.866516</ele>
        <time>2015-12-28T10:20:38.000Z</time>
      </trkpt>
      <trkpt lat="43.8371" lon="6.42214">
        <ele>931.410278</ele>
        <time>2015-12-28T10:20:43.000Z</time>
      </trkpt>
      <trkpt lat="43.83699" lon="6.42216">
        <ele>931.274109</ele>
        <time>2015-12-28T10:20:48.000Z</time>
      </trkpt>
      <trkpt lat="43.83692" lon="6.42208">
        <ele>929.898987</ele>
        <time>2015-12-28T10:20:53.000Z</time>
      </trkpt>
      <trkpt lat="43.83687" lon="6.42199">
        <ele>930.667419</ele>
        <time>2015-12-28T10:20:58.000Z</time>
      </trkpt>
      <trkpt lat="43.83683" lon="6.4219">
        <ele>932.213135</ele>
        <time>2015-12-28T10:21:03.000Z</time>
      </trkpt>
      <trkpt lat="43.8368" lon="6.42183">
        <ele>932.750488</ele>
        <time>2015-12-28T10:21:08.000Z</time>
      </trkpt>
      <trkpt lat="43.83677" lon="6.42177">
        <ele>933.341797</ele>
        <time>2015-12-28T10:21:13.000Z</time>
      </trkpt>
      <trkpt lat="43.83674" lon="6.42174">
        <ele>934.208252</ele>
        <time>2015-12-28T10:21:18.000Z</time>
      </trkpt>
      <trkpt lat="43.83674" lon="6.42174">
        <ele>934.289612</ele>
        <time>2015-12-28T10:21:23.000Z</time>
      </trkpt>
      <trkpt lat="43.83674" lon="6.42174">
        <ele>934.296448</ele>
        <time>2015-12-28T10:21:28.000Z</time>
      </trkpt>
      <trkpt lat="43.83673" lon="6.42166">
        <ele>934.966125</ele>
        <time>2015-12-28T10:21:33.000Z</time>
      </trkpt>
      <trkpt lat="43.8367" lon="6.42156">
        <ele>936.553467</ele>
        <time>2015-12-28T10:21:38.000Z</time>
      </trkpt>
      <trkpt lat="43.83667" lon="6.42146">
        <ele>937.569336</ele>
        <time>2015-12-28T10:21:43.000Z</time>
      </trkpt>
      <trkpt lat="43.83664" lon="6.42136">
        <ele>938.637878</ele>
        <time>2015-12-28T10:21:48.000Z</time>
      </trkpt>
      <trkpt lat="43.83665" lon="6.42127">
        <ele>940.118774</ele>
        <time>2015-12-28T10:21:53.000Z</time>
      </trkpt>
      <trkpt lat="43.83666" lon="6.42119">
        <ele>941.486816</ele>
        <time>2015-12-28T10:21:58.000Z</time>
      </trkpt>
      <trkpt lat="43.83668" lon="6.42111">
        <ele>943.086853</ele>
        <time>2015-12-28T10:22:03.000Z</time>
      </trkpt>
      <trkpt lat="43.83669" lon="6.42102">
        <ele>944.277344</ele>
        <time>2015-12-28T10:22:08.000Z</time>
      </trkpt>
      <trkpt lat="43.8367" lon="6.42094">
        <ele>946.230957</ele>
        <time>2015-12-28T10:22:13.000Z</time>
      </trkpt>
      <trkpt lat="43.83671" lon="6.42086">
        <ele>947.874817</ele>
        <time>2015-12-28T10:22:18.000Z</time>
      </trkpt>
      <trkpt lat="43.83671" lon="6.42077">
        <ele>949.753357</ele>
        <time>2015-12-28T10:22:23.000Z</time>
      </trkpt>
      <trkpt lat="43.83671" lon="6.42069">
        <ele>951.494141</ele>
        <time>2015-12-28T10:22:28.000Z</time>
      </trkpt>
      <trkpt lat="43.83673" lon="6.4206">
        <ele>952.463745</ele>
        <time>2015-12-28T10:22:33.000Z</time>
      </trkpt>
      <trkpt lat="43.83674" lon="6.42053">
        <ele>952.839539</ele>
        <time>2015-12-28T10:22:38.000Z</time>
      </trkpt>
      <trkpt lat="43.83672" lon="6.42043">
        <ele>952.859253</ele>
        <time>2015-12-28T10:22:43.000Z</time>
      </trkpt>
      <trkpt lat="43.83667" lon="6.42032">
        <ele>952.686523</ele>
        <time>2015-12-28T10:22:48.000Z</time>
      </trkpt>
      <trkpt lat="43.83659" lon="6.42025">
        <ele>952.629395</ele>
        <time>2015-12-28T10:22:53.000Z</time>
      </trkpt>
      <trkpt lat="43.83652" lon="6.4202">
        <ele>953.038879</ele>
        <time>2015-12-28T10:22:58.000Z</time>
      </trkpt>
      <trkpt lat="43.83647" lon="6.42016">
        <ele>952.964966</ele>
        <time>2015-12-28T10:23:03.000Z</time>
      </trkpt>
      <trkpt lat="43.83646" lon="6.42016">
        <ele>952.806641</ele>
        <time>2015-12-28T10:23:08.000Z</time>
      </trkpt>
      <trkpt lat="43.83647" lon="6.42017">
        <ele>952.113892</ele>
        <time>2015-12-28T10:23:13.000Z</time>
      </trkpt>
      <trkpt lat="43.83647" lon="6.42017">
        <ele>952.138916</ele>
        <time>2015-12-28T10:23:18.000Z</time>
      </trkpt>
      <trkpt lat="43.83647" lon="6.42017">
        <ele>952.171143</ele>
        <time>2015-12-28T10:23:23.000Z</time>
      </trkpt>
      <trkpt lat="43.83647" lon="6.42017">
        <ele>951.886475</ele>
        <time>2015-12-28T10:23:28.000Z</time>
      </trkpt>
      <trkpt lat="43.83647" lon="6.42018">
        <ele>950.882813</ele>
        <time>2015-12-28T10:23:33.000Z</time>
      </trkpt>
      <trkpt lat="43.83647" lon="6.42018">
        <ele>950.62262</ele>
        <time>2015-12-28T10:23:38.000Z</time>
      </trkpt>
      <trkpt lat="43.83647" lon="6.42018">
        <ele>950.650452</ele>
        <time>2015-12-28T10:23:43.000Z</time>
      </trkpt>
      <trkpt lat="43.83647" lon="6.42018">
        <ele>950.676392</ele>
        <time>2015-12-28T10:23:48.000Z</time>
      </trkpt>
      <trkpt lat="43.83647" lon="6.42018">
        <ele>950.678528</ele>
        <time>2015-12-28T10:23:53.000Z</time>
      </trkpt>
      <trkpt lat="43.83647" lon="6.42018">
        <ele>950.645325</ele>
        <time>2015-12-28T10:23:58.000Z</time>
      </trkpt>
      <trkpt lat="43.83647" lon="6.42018">
        <ele>950.638428</ele>
        <time>2015-12-28T10:24:03.000Z</time>
      </trkpt>
      <trkpt lat="43.83647" lon="6.42018">
        <ele>950.348755</ele>
        <time>2015-12-28T10:24:08.000Z</time>
      </trkpt>
      <trkpt lat="43.83646" lon="6.42018">
        <ele>950.069031</ele>
        <time>2015-12-28T10:24:13.000Z</time>
      </trkpt>
      <trkpt lat="43.83646" lon="6.42018">
        <ele>950.053772</ele>
        <time>2015-12-28T10:24:18.000Z</time>
      </trkpt>
      <trkpt lat="43.83646" lon="6.42018">
        <ele>950.028259</ele>
        <time>2015-12-28T10:24:23.000Z</time>
      </trkpt>
      <trkpt lat="43.83646" lon="6.42018">
        <ele>950.019714</ele>
        <time>2015-12-28T10:24:28.000Z</time>
      </trkpt>
      <trkpt lat="43.83646" lon="6.42018">
        <ele>950.009766</ele>
        <time>2015-12-28T10:24:33.000Z</time>
      </trkpt>
      <trkpt lat="43.83647" lon="6.42018">
        <ele>950.095642</ele>
        <time>2015-12-28T10:24:38.000Z</time>
      </trkpt>
      <trkpt lat="43.83647" lon="6.42018">
        <ele>949.92865</ele>
        <time>2015-12-28T10:24:43.000Z</time>
      </trkpt>
      <trkpt lat="43.83647" lon="6.42018">
        <ele>949.927185</ele>
        <time>2015-12-28T10:24:48.000Z</time>
      </trkpt>
      <trkpt lat="43.83647" lon="6.42018">
        <ele>949.952087</ele>
        <time>2015-12-28T10:24:53.000Z</time>
      </trkpt>
      <trkpt lat="43.83647" lon="6.42018">
        <ele>949.97937</ele>
        <time>2015-12-28T10:24:58.000Z</time>
      </trkpt>
      <trkpt lat="43.83647" lon="6.42018">
        <ele>949.97406</ele>
        <time>2015-12-28T10:25:03.000Z</time>
      </trkpt>
      <trkpt lat="43.83646" lon="6.42018">
        <ele>949.908325</ele>
        <time>2015-12-28T10:25:08.000Z</time>
      </trkpt>
      <trkpt lat="43.83646" lon="6.42018">
        <ele>949.692139</ele>
        <time>2015-12-28T10:25:13.000Z</time>
      </trkpt>
      <trkpt lat="43.83646" lon="6.42018">
        <ele>949.694336</ele>
        <time>2015-12-28T10:25:18.000Z</time>
      </trkpt>
      <trkpt lat="43.83646" lon="6.42017">
        <ele>949.940491</ele>
        <time>2015-12-28T10:25:23.000Z</time>
      </trkpt>
      <trkpt lat="43.83646" lon="6.42017">
        <ele>949.877625</ele>
        <time>2015-12-28T10:25:28.000Z</time>
      </trkpt>
      <trkpt lat="43.83646" lon="6.42016">
        <ele>949.483032</ele>
        <time>2015-12-28T10:25:33.000Z</time>
      </trkpt>
      <trkpt lat="43.83647" lon="6.42016">
        <ele>949.152588</ele>
        <time>2015-12-28T10:25:38.000Z</time>
      </trkpt>
      <trkpt lat="43.83647" lon="6.42016">
        <ele>949.136963</ele>
        <time>2015-12-28T10:25:43.000Z</time>
      </trkpt>
      <trkpt lat="43.83644" lon="6.42015">
        <ele>949.181152</ele>
        <time>2015-12-28T10:25:48.000Z</time>
      </trkpt>
      <trkpt lat="43.83642" lon="6.42014">
        <ele>949.000916</ele>
        <time>2015-12-28T10:25:53.000Z</time>
      </trkpt>
      <trkpt lat="43.83642" lon="6.42014">
        <ele>949.104736</ele>
        <time>2015-12-28T10:25:58.000Z</time>
      </trkpt>
      <trkpt lat="43.83636" lon="6.42012">
        <ele>949.50592</ele>
        <time>2015-12-28T10:26:03.000Z</time>
      </trkpt>
      <trkpt lat="43.83627" lon="6.4201">
        <ele>950.43689</ele>
        <time>2015-12-28T10:26:08.000Z</time>
      </trkpt>
      <trkpt lat="43.83617" lon="6.42006">
        <ele>949.760437</ele>
        <time>2015-12-28T10:26:13.000Z</time>
      </trkpt>
      <trkpt lat="43.83608" lon="6.42003">
        <ele>951.220459</ele>
        <time>2015-12-28T10:26:18.000Z</time>
      </trkpt>
      <trkpt lat="43.83599" lon="6.42002">
        <ele>951.675415</ele>
        <time>2015-12-28T10:26:23.000Z</time>
      </trkpt>
      <trkpt lat="43.8359" lon="6.42">
        <ele>952.491943</ele>
        <time>2015-12-28T10:26:28.000Z</time>
      </trkpt>
      <trkpt lat="43.83581" lon="6.41998">
        <ele>953.357056</ele>
        <time>2015-12-28T10:26:33.000Z</time>
      </trkpt>
      <trkpt lat="43.83573" lon="6.41996">
        <ele>954.44635</ele>
        <time>2015-12-28T10:26:38.000Z</time>
      </trkpt>
      <trkpt lat="43.83566" lon="6.41991">
        <ele>956.475281</ele>
        <time>2015-12-28T10:26:43.000Z</time>
      </trkpt>
      <trkpt lat="43.83559" lon="6.41983">
        <ele>957.592346</ele>
        <time>2015-12-28T10:26:48.000Z</time>
      </trkpt>
      <trkpt lat="43.83553" lon="6.41973">
        <ele>957.984924</ele>
        <time>2015-12-28T10:26:53.000Z</time>
      </trkpt>
      <trkpt lat="43.83548" lon="6.41962">
        <ele>958.804321</ele>
        <time>2015-12-28T10:26:58.000Z</time>
      </trkpt>
      <trkpt lat="43.83546" lon="6.4195">
        <ele>959.853455</ele>
        <time>2015-12-28T10:27:03.000Z</time>
      </trkpt>
      <trkpt lat="43.83547" lon="6.41938">
        <ele>961.424072</ele>
        <time>2015-12-28T10:27:08.000Z</time>
      </trkpt>
      <trkpt lat="43.83547" lon="6.41928">
        <ele>962.198669</ele>
        <time>2015-12-28T10:27:13.000Z</time>
      </trkpt>
      <trkpt lat="43.83545" lon="6.41918">
        <ele>963.096375</ele>
        <time>2015-12-28T10:27:18.000Z</time>
      </trkpt>
      <trkpt lat="43.83542" lon="6.41908">
        <ele>963.746155</ele>
        <time>2015-12-28T10:27:23.000Z</time>
      </trkpt>
      <trkpt lat="43.83538" lon="6.41898">
        <ele>964.361633</ele>
        <time>2015-12-28T10:27:28.000Z</time>
      </trkpt>
      <trkpt lat="43.83534" lon="6.41889">
        <ele>965.178528</ele>
        <time>2015-12-28T10:27:33.000Z</time>
      </trkpt>
      <trkpt lat="43.83528" lon="6.41881">
        <ele>965.644653</ele>
        <time>2015-12-28T10:27:38.000Z</time>
      </trkpt>
      <trkpt lat="43.83522" lon="6.41872">
        <ele>965.161255</ele>
        <time>2015-12-28T10:27:43.000Z</time>
      </trkpt>
      <trkpt lat="43.83516" lon="6.41864">
        <ele>965.536926</ele>
        <time>2015-12-28T10:27:48.000Z</time>
      </trkpt>
      <trkpt lat="43.8351" lon="6.41854">
        <ele>965.05603</ele>
        <time>2015-12-28T10:27:53.000Z</time>
      </trkpt>
      <trkpt lat="43.83504" lon="6.41845">
        <ele>965.618286</ele>
        <time>2015-12-28T10:27:58.000Z</time>
      </trkpt>
      <trkpt lat="43.83498" lon="6.41836">
        <ele>967.033936</ele>
        <time>2015-12-28T10:28:03.000Z</time>
      </trkpt>
      <trkpt lat="43.83493" lon="6.41828">
        <ele>967.745728</ele>
        <time>2015-12-28T10:28:08.000Z</time>
      </trkpt>
      <trkpt lat="43.83487" lon="6.41819">
        <ele>968.742493</ele>
        <time>2015-12-28T10:28:13.000Z</time>
      </trkpt>
      <trkpt lat="43.83482" lon="6.4181">
        <ele>969.97699</ele>
        <time>2015-12-28T10:28:18.000Z</time>
      </trkpt>
      <trkpt lat="43.83479" lon="6.41801">
        <ele>971.261597</ele>
        <time>2015-12-28T10:28:23.000Z</time>
      </trkpt>
      <trkpt lat="43.83476" lon="6.41792">
        <ele>972.344238</ele>
        <time>2015-12-28T10:28:28.000Z</time>
      </trkpt>
      <trkpt lat="43.83474" lon="6.41782">
        <ele>973.298401</ele>
        <time>2015-12-28T10:28:33.000Z</time>
      </trkpt>
      <trkpt lat="43.83471" lon="6.41773">
        <ele>973.72345</ele>
        <time>2015-12-28T10:28:38.000Z</time>
      </trkpt>
      <trkpt lat="43.83467" lon="6.41764">
        <ele>974.444641</ele>
        <time>2015-12-28T10:28:43.000Z</time>
      </trkpt>
      <trkpt lat="43.83465" lon="6.41756">
        <ele>975.451355</ele>
        <time>2015-12-28T10:28:48.000Z</time>
      </trkpt>
      <trkpt lat="43.83462" lon="6.41748">
        <ele>976.638794</ele>
        <time>2015-12-28T10:28:53.000Z</time>
      </trkpt>
      <trkpt lat="43.83459" lon="6.41738">
        <ele>977.782959</ele>
        <time>2015-12-28T10:28:58.000Z</time>
      </trkpt>
      <trkpt lat="43.83456" lon="6.41731">
        <ele>978.659241</ele>
        <time>2015-12-28T10:29:03.000Z</time>
      </trkpt>
      <trkpt lat="43.83452" lon="6.41722">
        <ele>979.492493</ele>
        <time>2015-12-28T10:29:08.000Z</time>
      </trkpt>
      <trkpt lat="43.83449" lon="6.41715">
        <ele>980.650757</ele>
        <time>2015-12-28T10:29:13.000Z</time>
      </trkpt>
      <trkpt lat="43.83444" lon="6.4171">
        <ele>981.442505</ele>
        <time>2015-12-28T10:29:18.000Z</time>
      </trkpt>
      <trkpt lat="43.83439" lon="6.41705">
        <ele>982.472778</ele>
        <time>2015-12-28T10:29:23.000Z</time>
      </trkpt>
      <trkpt lat="43.83432" lon="6.41703">
        <ele>983.766296</ele>
        <time>2015-12-28T10:29:28.000Z</time>
      </trkpt>
      <trkpt lat="43.83427" lon="6.417">
        <ele>984.665161</ele>
        <time>2015-12-28T10:29:33.000Z</time>
      </trkpt>
      <trkpt lat="43.83422" lon="6.41694">
        <ele>986.419067</ele>
        <time>2015-12-28T10:29:38.000Z</time>
      </trkpt>
      <trkpt lat="43.83418" lon="6.41687">
        <ele>987.499451</ele>
        <time>2015-12-28T10:29:43.000Z</time>
      </trkpt>
      <trkpt lat="43.83416" lon="6.4168">
        <ele>987.915833</ele>
        <time>2015-12-28T10:29:48.000Z</time>
      </trkpt>
      <trkpt lat="43.83413" lon="6.41671">
        <ele>989.178467</ele>
        <time>2015-12-28T10:29:53.000Z</time>
      </trkpt>
      <trkpt lat="43.83409" lon="6.41663">
        <ele>990.210938</ele>
        <time>2015-12-28T10:29:58.000Z</time>
      </trkpt>
      <trkpt lat="43.83406" lon="6.41656">
        <ele>990.733093</ele>
        <time>2015-12-28T10:30:03.000Z</time>
      </trkpt>
      <trkpt lat="43.83404" lon="6.41649">
        <ele>991.549316</ele>
        <time>2015-12-28T10:30:08.000Z</time>
      </trkpt>
      <trkpt lat="43.83402" lon="6.41643">
        <ele>992.579712</ele>
        <time>2015-12-28T10:30:13.000Z</time>
      </trkpt>
      <trkpt lat="43.83399" lon="6.41636">
        <ele>993.171814</ele>
        <time>2015-12-28T10:30:18.000Z</time>
      </trkpt>
      <trkpt lat="43.83396" lon="6.41629">
        <ele>993.089111</ele>
        <time>2015-12-28T10:30:23.000Z</time>
      </trkpt>
      <trkpt lat="43.83393" lon="6.41622">
        <ele>992.795288</ele>
        <time>2015-12-28T10:30:28.000Z</time>
      </trkpt>
      <trkpt lat="43.83388" lon="6.41615">
        <ele>992.27356</ele>
        <time>2015-12-28T10:30:33.000Z</time>
      </trkpt>
      <trkpt lat="43.83383" lon="6.41606">
        <ele>992.049438</ele>
        <time>2015-12-28T10:30:38.000Z</time>
      </trkpt>
      <trkpt lat="43.83379" lon="6.41598">
        <ele>992.164001</ele>
        <time>2015-12-28T10:30:43.000Z</time>
      </trkpt>
      <trkpt lat="43.83375" lon="6.41589">
        <ele>993.131287</ele>
        <time>2015-12-28T10:30:48.000Z</time>
      </trkpt>
      <trkpt lat="43.83371" lon="6.4158">
        <ele>994.657776</ele>
        <time>2015-12-28T10:30:53.000Z</time>
      </trkpt>
      <trkpt lat="43.83368" lon="6.41573">
        <ele>996.057495</ele>
        <time>2015-12-28T10:30:58.000Z</time>
      </trkpt>
      <trkpt lat="43.83363" lon="6.41565">
        <ele>996.905518</ele>
        <time>2015-12-28T10:31:03.000Z</time>
      </trkpt>
      <trkpt lat="43.83362" lon="6.41555">
        <ele>998.309631</ele>
        <time>2015-12-28T10:31:08.000Z</time>
      </trkpt>
      <trkpt lat="43.83365" lon="6.41546">
        <ele>999.227051</ele>
        <time>2015-12-28T10:31:13.000Z</time>
      </trkpt>
      <trkpt lat="43.83365" lon="6.41537">
        <ele>1000.721741</ele>
        <time>2015-12-28T10:31:18.000Z</time>
      </trkpt>
      <trkpt lat="43.83365" lon="6.41527">
        <ele>1001.826233</ele>
        <time>2015-12-28T10:31:23.000Z</time>
      </trkpt>
      <trkpt lat="43.83364" lon="6.41518">
        <ele>1004.048767</ele>
        <time>2015-12-28T10:31:28.000Z</time>
      </trkpt>
      <trkpt lat="43.83361" lon="6.4151">
        <ele>1004.778442</ele>
        <time>2015-12-28T10:31:33.000Z</time>
      </trkpt>
      <trkpt lat="43.83359" lon="6.41501">
        <ele>1005.8573</ele>
        <time>2015-12-28T10:31:38.000Z</time>
      </trkpt>
      <trkpt lat="43.83359" lon="6.41492">
        <ele>1006.746643</ele>
        <time>2015-12-28T10:31:43.000Z</time>
      </trkpt>
      <trkpt lat="43.83359" lon="6.41484">
        <ele>1008.575195</ele>
        <time>2015-12-28T10:31:48.000Z</time>
      </trkpt>
      <trkpt lat="43.83359" lon="6.41475">
        <ele>1009.889099</ele>
        <time>2015-12-28T10:31:53.000Z</time>
      </trkpt>
      <trkpt lat="43.83359" lon="6.41467">
        <ele>1011.391907</ele>
        <time>2015-12-28T10:31:58.000Z</time>
      </trkpt>
      <trkpt lat="43.83358" lon="6.41458">
        <ele>1013.200134</ele>
        <time>2015-12-28T10:32:03.000Z</time>
      </trkpt>
      <trkpt lat="43.83359" lon="6.41449">
        <ele>1014.468384</ele>
        <time>2015-12-28T10:32:08.000Z</time>
      </trkpt>
      <trkpt lat="43.83358" lon="6.4144">
        <ele>1015.594788</ele>
        <time>2015-12-28T10:32:13.000Z</time>
      </trkpt>
      <trkpt lat="43.83356" lon="6.4143">
        <ele>1016.244812</ele>
        <time>2015-12-28T10:32:18.000Z</time>
      </trkpt>
      <trkpt lat="43.83356" lon="6.41422">
        <ele>1016.6828</ele>
        <time>2015-12-28T10:32:23.000Z</time>
      </trkpt>
      <trkpt lat="43.83354" lon="6.41413">
        <ele>1017.762512</ele>
        <time>2015-12-28T10:32:28.000Z</time>
      </trkpt>
      <trkpt lat="43.83354" lon="6.41405">
        <ele>1018.600769</ele>
        <time>2015-12-28T10:32:33.000Z</time>
      </trkpt>
      <trkpt lat="43.83352" lon="6.41397">
        <ele>1018.697571</ele>
        <time>2015-12-28T10:32:38.000Z</time>
      </trkpt>
      <trkpt lat="43.83352" lon="6.41388">
        <ele>1019.870422</ele>
        <time>2015-12-28T10:32:43.000Z</time>
      </trkpt>
      <trkpt lat="43.8335" lon="6.41378">
        <ele>1020.468384</ele>
        <time>2015-12-28T10:32:48.000Z</time>
      </trkpt>
      <trkpt lat="43.83348" lon="6.41367">
        <ele>1020.053406</ele>
        <time>2015-12-28T10:32:53.000Z</time>
      </trkpt>
      <trkpt lat="43.83343" lon="6.41354">
        <ele>1019.754761</ele>
        <time>2015-12-28T10:32:58.000Z</time>
      </trkpt>
      <trkpt lat="43.83338" lon="6.41337">
        <ele>1018.932068</ele>
        <time>2015-12-28T10:33:03.000Z</time>
      </trkpt>
      <trkpt lat="43.83333" lon="6.41322">
        <ele>1019.205139</ele>
        <time>2015-12-28T10:33:08.000Z</time>
      </trkpt>
      <trkpt lat="43.8333" lon="6.41309">
        <ele>1019.770996</ele>
        <time>2015-12-28T10:33:13.000Z</time>
      </trkpt>
      <trkpt lat="43.83327" lon="6.41297">
        <ele>1020.212891</ele>
        <time>2015-12-28T10:33:18.000Z</time>
      </trkpt>
      <trkpt lat="43.83324" lon="6.41285">
        <ele>1020.533264</ele>
        <time>2015-12-28T10:33:23.000Z</time>
      </trkpt>
      <trkpt lat="43.8332" lon="6.41273">
        <ele>1020.525269</ele>
        <time>2015-12-28T10:33:28.000Z</time>
      </trkpt>
      <trkpt lat="43.83317" lon="6.4126">
        <ele>1020.105835</ele>
        <time>2015-12-28T10:33:33.000Z</time>
      </trkpt>
      <trkpt lat="43.83317" lon="6.41243">
        <ele>1019.544434</ele>
        <time>2015-12-28T10:33:38.000Z</time>
      </trkpt>
      <trkpt lat="43.83317" lon="6.41225">
        <ele>1021.313416</ele>
        <time>2015-12-28T10:33:43.000Z</time>
      </trkpt>
      <trkpt lat="43.8332" lon="6.41211">
        <ele>1022.4328</ele>
        <time>2015-12-28T10:33:48.000Z</time>
      </trkpt>
      <trkpt lat="43.83325" lon="6.41199">
        <ele>1023.881104</ele>
        <time>2015-12-28T10:33:53.000Z</time>
      </trkpt>
      <trkpt lat="43.83331" lon="6.41189">
        <ele>1025.372192</ele>
        <time>2015-12-28T10:33:58.000Z</time>
      </trkpt>
      <trkpt lat="43.83334" lon="6.41179">
        <ele>1027.482666</ele>
        <time>2015-12-28T10:34:03.000Z</time>
      </trkpt>
      <trkpt lat="43.83335" lon="6.41169">
        <ele>1028.008667</ele>
        <time>2015-12-28T10:34:08.000Z</time>
      </trkpt>
      <trkpt lat="43.83337" lon="6.41159">
        <ele>1029.593506</ele>
        <time>2015-12-28T10:34:13.000Z</time>
      </trkpt>
      <trkpt lat="43.83338" lon="6.41149">
        <ele>1031.479736</ele>
        <time>2015-12-28T10:34:18.000Z</time>
      </trkpt>
      <trkpt lat="43.83338" lon="6.41138">
        <ele>1032.994873</ele>
        <time>2015-12-28T10:34:23.000Z</time>
      </trkpt>
      <trkpt lat="43.83338" lon="6.41128">
        <ele>1033.521973</ele>
        <time>2015-12-28T10:34:28.000Z</time>
      </trkpt>
      <trkpt lat="43.83337" lon="6.41117">
        <ele>1033.548706</ele>
        <time>2015-12-28T10:34:33.000Z</time>
      </trkpt>
      <trkpt lat="43.83336" lon="6.41107">
        <ele>1033.373779</ele>
        <time>2015-12-28T10:34:38.000Z</time>
      </trkpt>
      <trkpt lat="43.83334" lon="6.41095">
        <ele>1032.791016</ele>
        <time>2015-12-28T10:34:43.000Z</time>
      </trkpt>
      <trkpt lat="43.83331" lon="6.41084">
        <ele>1032.049683</ele>
        <time>2015-12-28T10:34:48.000Z</time>
      </trkpt>
      <trkpt lat="43.83325" lon="6.41076">
        <ele>1032.498535</ele>
        <time>2015-12-28T10:34:53.000Z</time>
      </trkpt>
      <trkpt lat="43.83317" lon="6.41068">
        <ele>1032.287354</ele>
        <time>2015-12-28T10:34:58.000Z</time>
      </trkpt>
      <trkpt lat="43.83308" lon="6.41059">
        <ele>1031.543823</ele>
        <time>2015-12-28T10:35:03.000Z</time>
      </trkpt>
      <trkpt lat="43.833" lon="6.41049">
        <ele>1031.313721</ele>
        <time>2015-12-28T10:35:08.000Z</time>
      </trkpt>
      <trkpt lat="43.83291" lon="6.41039">
        <ele>1032.168457</ele>
        <time>2015-12-28T10:35:13.000Z</time>
      </trkpt>
      <trkpt lat="43.83282" lon="6.4103">
        <ele>1031.739624</ele>
        <time>2015-12-28T10:35:18.000Z</time>
      </trkpt>
      <trkpt lat="43.83275" lon="6.41023">
        <ele>1032.253662</ele>
        <time>2015-12-28T10:35:23.000Z</time>
      </trkpt>
      <trkpt lat="43.83267" lon="6.41017">
        <ele>1032.639771</ele>
        <time>2015-12-28T10:35:28.000Z</time>
      </trkpt>
      <trkpt lat="43.8326" lon="6.4101">
        <ele>1033.140869</ele>
        <time>2015-12-28T10:35:33.000Z</time>
      </trkpt>
      <trkpt lat="43.83253" lon="6.41003">
        <ele>1033.437744</ele>
        <time>2015-12-28T10:35:38.000Z</time>
      </trkpt>
      <trkpt lat="43.83246" lon="6.40995">
        <ele>1034.04895</ele>
        <time>2015-12-28T10:35:43.000Z</time>
      </trkpt>
      <trkpt lat="43.83239" lon="6.40989">
        <ele>1034.729614</ele>
        <time>2015-12-28T10:35:48.000Z</time>
      </trkpt>
      <trkpt lat="43.83232" lon="6.40984">
        <ele>1035.217285</ele>
        <time>2015-12-28T10:35:53.000Z</time>
      </trkpt>
      <trkpt lat="43.83224" lon="6.40978">
        <ele>1035.855713</ele>
        <time>2015-12-28T10:35:58.000Z</time>
      </trkpt>
      <trkpt lat="43.83219" lon="6.40972">
        <ele>1036.506714</ele>
        <time>2015-12-28T10:36:03.000Z</time>
      </trkpt>
      <trkpt lat="43.83213" lon="6.40966">
        <ele>1037.529175</ele>
        <time>2015-12-28T10:36:08.000Z</time>
      </trkpt>
      <trkpt lat="43.83208" lon="6.40961">
        <ele>1038.676392</ele>
        <time>2015-12-28T10:36:13.000Z</time>
      </trkpt>
      <trkpt lat="43.83203" lon="6.40954">
        <ele>1039.377441</ele>
        <time>2015-12-28T10:36:18.000Z</time>
      </trkpt>
      <trkpt lat="43.83199" lon="6.40945">
        <ele>1040.349609</ele>
        <time>2015-12-28T10:36:23.000Z</time>
      </trkpt>
      <trkpt lat="43.83194" lon="6.40938">
        <ele>1041.023926</ele>
        <time>2015-12-28T10:36:28.000Z</time>
      </trkpt>
      <trkpt lat="43.83192" lon="6.40929">
        <ele>1041.578857</ele>
        <time>2015-12-28T10:36:33.000Z</time>
      </trkpt>
      <trkpt lat="43.83191" lon="6.4092">
        <ele>1042.129272</ele>
        <time>2015-12-28T10:36:38.000Z</time>
      </trkpt>
      <trkpt lat="43.8319" lon="6.4091">
        <ele>1043.012451</ele>
        <time>2015-12-28T10:36:43.000Z</time>
      </trkpt>
      <trkpt lat="43.83189" lon="6.40901">
        <ele>1043.568604</ele>
        <time>2015-12-28T10:36:48.000Z</time>
      </trkpt>
      <trkpt lat="43.83187" lon="6.40892">
        <ele>1043.89209</ele>
        <time>2015-12-28T10:36:53.000Z</time>
      </trkpt>
      <trkpt lat="43.83185" lon="6.40883">
        <ele>1044.697632</ele>
        <time>2015-12-28T10:36:58.000Z</time>
      </trkpt>
      <trkpt lat="43.83185" lon="6.40875">
        <ele>1045.470703</ele>
        <time>2015-12-28T10:37:03.000Z</time>
      </trkpt>
      <trkpt lat="43.83184" lon="6.40866">
        <ele>1046.205078</ele>
        <time>2015-12-28T10:37:08.000Z</time>
      </trkpt>
      <trkpt lat="43.83182" lon="6.40858">
        <ele>1047.417603</ele>
        <time>2015-12-28T10:37:13.000Z</time>
      </trkpt>
      <trkpt lat="43.83183" lon="6.40849">
        <ele>1047.880249</ele>
        <time>2015-12-28T10:37:18.000Z</time>
      </trkpt>
      <trkpt lat="43.83183" lon="6.40841">
        <ele>1049.137207</ele>
        <time>2015-12-28T10:37:23.000Z</time>
      </trkpt>
      <trkpt lat="43.83183" lon="6.40834">
        <ele>1050.606934</ele>
        <time>2015-12-28T10:37:28.000Z</time>
      </trkpt>
      <trkpt lat="43.83182" lon="6.40825">
        <ele>1052.025757</ele>
        <time>2015-12-28T10:37:33.000Z</time>
      </trkpt>
      <trkpt lat="43.83182" lon="6.40817">
        <ele>1053.146973</ele>
        <time>2015-12-28T10:37:38.000Z</time>
      </trkpt>
      <trkpt lat="43.83182" lon="6.40809">
        <ele>1053.787476</ele>
        <time>2015-12-28T10:37:43.000Z</time>
      </trkpt>
      <trkpt lat="43.83183" lon="6.408">
        <ele>1054.005615</ele>
        <time>2015-12-28T10:37:48.000Z</time>
      </trkpt>
      <trkpt lat="43.83184" lon="6.40792">
        <ele>1054.415039</ele>
        <time>2015-12-28T10:37:53.000Z</time>
      </trkpt>
      <trkpt lat="43.83184" lon="6.40784">
        <ele>1055.756836</ele>
        <time>2015-12-28T10:37:58.000Z</time>
      </trkpt>
      <trkpt lat="43.83184" lon="6.40775">
        <ele>1056.574097</ele>
        <time>2015-12-28T10:38:03.000Z</time>
      </trkpt>
      <trkpt lat="43.83185" lon="6.40766">
        <ele>1057.331665</ele>
        <time>2015-12-28T10:38:08.000Z</time>
      </trkpt>
      <trkpt lat="43.83185" lon="6.40757">
        <ele>1058.614746</ele>
        <time>2015-12-28T10:38:13.000Z</time>
      </trkpt>
      <trkpt lat="43.83184" lon="6.40748">
        <ele>1059.543213</ele>
        <time>2015-12-28T10:38:18.000Z</time>
      </trkpt>
      <trkpt lat="43.83185" lon="6.40741">
        <ele>1060.248535</ele>
        <time>2015-12-28T10:38:23.000Z</time>
      </trkpt>
      <trkpt lat="43.83185" lon="6.40732">
        <ele>1061.029663</ele>
        <time>2015-12-28T10:38:28.000Z</time>
      </trkpt>
      <trkpt lat="43.83183" lon="6.40724">
        <ele>1061.527954</ele>
        <time>2015-12-28T10:38:33.000Z</time>
      </trkpt>
      <trkpt lat="43.83182" lon="6.40716">
        <ele>1062.830444</ele>
        <time>2015-12-28T10:38:38.000Z</time>
      </trkpt>
      <trkpt lat="43.8318" lon="6.40706">
        <ele>1062.449219</ele>
        <time>2015-12-28T10:38:43.000Z</time>
      </trkpt>
      <trkpt lat="43.83178" lon="6.40698">
        <ele>1062.664063</ele>
        <time>2015-12-28T10:38:48.000Z</time>
      </trkpt>
      <trkpt lat="43.83174" lon="6.40689">
        <ele>1063.469482</ele>
        <time>2015-12-28T10:38:53.000Z</time>
      </trkpt>
      <trkpt lat="43.83171" lon="6.40683">
        <ele>1064.04187</ele>
        <time>2015-12-28T10:38:58.000Z</time>
      </trkpt>
      <trkpt lat="43.83166" lon="6.40676">
        <ele>1064.422119</ele>
        <time>2015-12-28T10:39:03.000Z</time>
      </trkpt>
      <trkpt lat="43.83162" lon="6.40669">
        <ele>1064.657715</ele>
        <time>2015-12-28T10:39:08.000Z</time>
      </trkpt>
      <trkpt lat="43.83159" lon="6.40661">
        <ele>1064.939209</ele>
        <time>2015-12-28T10:39:13.000Z</time>
      </trkpt>
      <trkpt lat="43.83155" lon="6.40653">
        <ele>1065.227295</ele>
        <time>2015-12-28T10:39:18.000Z</time>
      </trkpt>
      <trkpt lat="43.83152" lon="6.40645">
        <ele>1065.849854</ele>
        <time>2015-12-28T10:39:23.000Z</time>
      </trkpt>
      <trkpt lat="43.83149" lon="6.40636">
        <ele>1066.055908</ele>
        <time>2015-12-28T10:39:28.000Z</time>
      </trkpt>
      <trkpt lat="43.83146" lon="6.40628">
        <ele>1066.224976</ele>
        <time>2015-12-28T10:39:33.000Z</time>
      </trkpt>
      <trkpt lat="43.83144" lon="6.4062">
        <ele>1066.515625</ele>
        <time>2015-12-28T10:39:38.000Z</time>
      </trkpt>
      <trkpt lat="43.83141" lon="6.40613">
        <ele>1067.090942</ele>
        <time>2015-12-28T10:39:43.000Z</time>
      </trkpt>
      <trkpt lat="43.83138" lon="6.40604">
        <ele>1067.888062</ele>
        <time>2015-12-28T10:39:48.000Z</time>
      </trkpt>
      <trkpt lat="43.83133" lon="6.406">
        <ele>1068.070435</ele>
        <time>2015-12-28T10:39:53.000Z</time>
      </trkpt>
      <trkpt lat="43.83132" lon="6.40599">
        <ele>1067.970337</ele>
        <time>2015-12-28T10:39:58.000Z</time>
      </trkpt>
      <trkpt lat="43.83133" lon="6.40599">
        <ele>1067.881226</ele>
        <time>2015-12-28T10:40:03.000Z</time>
      </trkpt>
      <trkpt lat="43.83133" lon="6.40599">
        <ele>1068.205566</ele>
        <time>2015-12-28T10:40:08.000Z</time>
      </trkpt>
      <trkpt lat="43.83132" lon="6.40599">
        <ele>1068.362549</ele>
        <time>2015-12-28T10:40:13.000Z</time>
      </trkpt>
      <trkpt lat="43.83132" lon="6.40599">
        <ele>1068.369263</ele>
        <time>2015-12-28T10:40:18.000Z</time>
      </trkpt>
      <trkpt lat="43.83132" lon="6.40599">
        <ele>1068.369751</ele>
        <time>2015-12-28T10:40:23.000Z</time>
      </trkpt>
      <trkpt lat="43.83132" lon="6.40599">
        <ele>1068.379028</ele>
        <time>2015-12-28T10:40:28.000Z</time>
      </trkpt>
      <trkpt lat="43.83132" lon="6.40599">
        <ele>1068.378418</ele>
        <time>2015-12-28T10:40:33.000Z</time>
      </trkpt>
      <trkpt lat="43.83132" lon="6.40599">
        <ele>1068.380249</ele>
        <time>2015-12-28T10:40:38.000Z</time>
      </trkpt>
      <trkpt lat="43.83132" lon="6.40599">
        <ele>1068.393311</ele>
        <time>2015-12-28T10:40:43.000Z</time>
      </trkpt>
      <trkpt lat="43.83132" lon="6.40599">
        <ele>1068.406494</ele>
        <time>2015-12-28T10:40:48.000Z</time>
      </trkpt>
      <trkpt lat="43.83132" lon="6.40599">
        <ele>1068.421143</ele>
        <time>2015-12-28T10:40:53.000Z</time>
      </trkpt>
      <trkpt lat="43.83132" lon="6.40599">
        <ele>1068.43457</ele>
        <time>2015-12-28T10:40:58.000Z</time>
      </trkpt>
      <trkpt lat="43.83132" lon="6.40598">
        <ele>1068.433228</ele>
        <time>2015-12-28T10:41:03.000Z</time>
      </trkpt>
      <trkpt lat="43.83132" lon="6.40599">
        <ele>1068.44519</ele>
        <time>2015-12-28T10:41:08.000Z</time>
      </trkpt>
      <trkpt lat="43.83132" lon="6.40599">
        <ele>1068.457886</ele>
        <time>2015-12-28T10:41:13.000Z</time>
      </trkpt>
      <trkpt lat="43.83133" lon="6.40599">
        <ele>1068.457397</ele>
        <time>2015-12-28T10:41:18.000Z</time>
      </trkpt>
      <trkpt lat="43.83133" lon="6.40599">
        <ele>1068.44397</ele>
        <time>2015-12-28T10:41:23.000Z</time>
      </trkpt>
      <trkpt lat="43.83133" lon="6.40599">
        <ele>1068.429565</ele>
        <time>2015-12-28T10:41:28.000Z</time>
      </trkpt>
      <trkpt lat="43.83133" lon="6.40598">
        <ele>1068.660034</ele>
        <time>2015-12-28T10:41:33.000Z</time>
      </trkpt>
      <trkpt lat="43.83132" lon="6.40598">
        <ele>1068.666748</ele>
        <time>2015-12-28T10:41:38.000Z</time>
      </trkpt>
      <trkpt lat="43.83127" lon="6.40594">
        <ele>1069.659912</ele>
        <time>2015-12-28T10:41:43.000Z</time>
      </trkpt>
      <trkpt lat="43.83121" lon="6.40589">
        <ele>1070.593994</ele>
        <time>2015-12-28T10:41:48.000Z</time>
      </trkpt>
      <trkpt lat="43.83114" lon="6.40586">
        <ele>1070.735352</ele>
        <time>2015-12-28T10:41:53.000Z</time>
      </trkpt>
      <trkpt lat="43.83107" lon="6.40586">
        <ele>1071.601318</ele>
        <time>2015-12-28T10:41:58.000Z</time>
      </trkpt>
      <trkpt lat="43.831" lon="6.40589">
        <ele>1072.686401</ele>
        <time>2015-12-28T10:42:03.000Z</time>
      </trkpt>
      <trkpt lat="43.83093" lon="6.40593">
        <ele>1073.483765</ele>
        <time>2015-12-28T10:42:08.000Z</time>
      </trkpt>
      <trkpt lat="43.83087" lon="6.40593">
        <ele>1074.881104</ele>
        <time>2015-12-28T10:42:13.000Z</time>
      </trkpt>
      <trkpt lat="43.83082" lon="6.40589">
        <ele>1076.523193</ele>
        <time>2015-12-28T10:42:18.000Z</time>
      </trkpt>
      <trkpt lat="43.83076" lon="6.40589">
        <ele>1077.146118</ele>
        <time>2015-12-28T10:42:23.000Z</time>
      </trkpt>
      <trkpt lat="43.83071" lon="6.40591">
        <ele>1078.122803</ele>
        <time>2015-12-28T10:42:28.000Z</time>
      </trkpt>
      <trkpt lat="43.83065" lon="6.40593">
        <ele>1079.279175</ele>
        <time>2015-12-28T10:42:33.000Z</time>
      </trkpt>
      <trkpt lat="43.83059" lon="6.40594">
        <ele>1081.036987</ele>
        <time>2015-12-28T10:42:38.000Z</time>
      </trkpt>
      <trkpt lat="43.83053" lon="6.40595">
        <ele>1081.650269</ele>
        <time>2015-12-28T10:42:43.000Z</time>
      </trkpt>
      <trkpt lat="43.83047" lon="6.40597">
        <ele>1081.721558</ele>
        <time>2015-12-28T10:42:48.000Z</time>
      </trkpt>
      <trkpt lat="43.83042" lon="6.40598">
        <ele>1082.591309</ele>
        <time>2015-12-28T10:42:53.000Z</time>
      </trkpt>
      <trkpt lat="43.83036" lon="6.40602">
        <ele>1083.532104</ele>
        <time>2015-12-28T10:42:58.000Z</time>
      </trkpt>
      <trkpt lat="43.8303" lon="6.40608">
        <ele>1084.208252</ele>
        <time>2015-12-28T10:43:03.000Z</time>
      </trkpt>
      <trkpt lat="43.83024" lon="6.40611">
        <ele>1084.484375</ele>
        <time>2015-12-28T10:43:08.000Z</time>
      </trkpt>
      <trkpt lat="43.83019" lon="6.40616">
        <ele>1086.836914</ele>
        <time>2015-12-28T10:43:13.000Z</time>
      </trkpt>
      <trkpt lat="43.83013" lon="6.40622">
        <ele>1087.224854</ele>
        <time>2015-12-28T10:43:18.000Z</time>
      </trkpt>
      <trkpt lat="43.83008" lon="6.40628">
        <ele>1087.851196</ele>
        <time>2015-12-28T10:43:23.000Z</time>
      </trkpt>
      <trkpt lat="43.83002" lon="6.40634">
        <ele>1089.328979</ele>
        <time>2015-12-28T10:43:28.000Z</time>
      </trkpt>
      <trkpt lat="43.82997" lon="6.40639">
        <ele>1089.44751</ele>
        <time>2015-12-28T10:43:33.000Z</time>
      </trkpt>
      <trkpt lat="43.82992" lon="6.40645">
        <ele>1091.213379</ele>
        <time>2015-12-28T10:43:38.000Z</time>
      </trkpt>
      <trkpt lat="43.82987" lon="6.40652">
        <ele>1091.977417</ele>
        <time>2015-12-28T10:43:43.000Z</time>
      </trkpt>
      <trkpt lat="43.82982" lon="6.40658">
        <ele>1092.608765</ele>
        <time>2015-12-28T10:43:48.000Z</time>
      </trkpt>
      <trkpt lat="43.82977" lon="6.40664">
        <ele>1092.823242</ele>
        <time>2015-12-28T10:43:53.000Z</time>
      </trkpt>
      <trkpt lat="43.82972" lon="6.4067">
        <ele>1092.565063</ele>
        <time>2015-12-28T10:43:58.000Z</time>
      </trkpt>
      <trkpt lat="43.82966" lon="6.40676">
        <ele>1093.226563</ele>
        <time>2015-12-28T10:44:03.000Z</time>
      </trkpt>
      <trkpt lat="43.8296" lon="6.40682">
        <ele>1093.593628</ele>
        <time>2015-12-28T10:44:08.000Z</time>
      </trkpt>
      <trkpt lat="43.82955" lon="6.40687">
        <ele>1094.204712</ele>
        <time>2015-12-28T10:44:13.000Z</time>
      </trkpt>
      <trkpt lat="43.82949" lon="6.40692">
        <ele>1093.847046</ele>
        <time>2015-12-28T10:44:18.000Z</time>
      </trkpt>
      <trkpt lat="43.82944" lon="6.40696">
        <ele>1094.710938</ele>
        <time>2015-12-28T10:44:23.000Z</time>
      </trkpt>
      <trkpt lat="43.82937" lon="6.40701">
        <ele>1095.055908</ele>
        <time>2015-12-28T10:44:28.000Z</time>
      </trkpt>
      <trkpt lat="43.82932" lon="6.40706">
        <ele>1096.422485</ele>
        <time>2015-12-28T10:44:33.000Z</time>
      </trkpt>
      <trkpt lat="43.82926" lon="6.40712">
        <ele>1097.786499</ele>
        <time>2015-12-28T10:44:38.000Z</time>
      </trkpt>
      <trkpt lat="43.82921" lon="6.40718">
        <ele>1098.911133</ele>
        <time>2015-12-28T10:44:43.000Z</time>
      </trkpt>
      <trkpt lat="43.82915" lon="6.40723">
        <ele>1099.348755</ele>
        <time>2015-12-28T10:44:48.000Z</time>
      </trkpt>
      <trkpt lat="43.8291" lon="6.40727">
        <ele>1100.332031</ele>
        <time>2015-12-28T10:44:53.000Z</time>
      </trkpt>
      <trkpt lat="43.82903" lon="6.4073">
        <ele>1100.634399</ele>
        <time>2015-12-28T10:44:58.000Z</time>
      </trkpt>
      <trkpt lat="43.82897" lon="6.40734">
        <ele>1101.52002</ele>
        <time>2015-12-28T10:45:03.000Z</time>
      </trkpt>
      <trkpt lat="43.82891" lon="6.40735">
        <ele>1102.35022</ele>
        <time>2015-12-28T10:45:08.000Z</time>
      </trkpt>
      <trkpt lat="43.82886" lon="6.40735">
        <ele>1104.291382</ele>
        <time>2015-12-28T10:45:13.000Z</time>
      </trkpt>
      <trkpt lat="43.82879" lon="6.40737">
        <ele>1105.387207</ele>
        <time>2015-12-28T10:45:18.000Z</time>
      </trkpt>
      <trkpt lat="43.82872" lon="6.40739">
        <ele>1106.882813</ele>
        <time>2015-12-28T10:45:23.000Z</time>
      </trkpt>
      <trkpt lat="43.82866" lon="6.40738">
        <ele>1107.305786</ele>
        <time>2015-12-28T10:45:28.000Z</time>
      </trkpt>
      <trkpt lat="43.82859" lon="6.4074">
        <ele>1108.053467</ele>
        <time>2015-12-28T10:45:33.000Z</time>
      </trkpt>
      <trkpt lat="43.82853" lon="6.40743">
        <ele>1108.871582</ele>
        <time>2015-12-28T10:45:38.000Z</time>
      </trkpt>
      <trkpt lat="43.82847" lon="6.40743">
        <ele>1110.242065</ele>
        <time>2015-12-28T10:45:43.000Z</time>
      </trkpt>
      <trkpt lat="43.82842" lon="6.40741">
        <ele>1110.546631</ele>
        <time>2015-12-28T10:45:48.000Z</time>
      </trkpt>
      <trkpt lat="43.82843" lon="6.40741">
        <ele>1110.077393</ele>
        <time>2015-12-28T10:45:53.000Z</time>
      </trkpt>
      <trkpt lat="43.82843" lon="6.40741">
        <ele>1110.083008</ele>
        <time>2015-12-28T10:45:58.000Z</time>
      </trkpt>
      <trkpt lat="43.82843" lon="6.40741">
        <ele>1110.103149</ele>
        <time>2015-12-28T10:46:03.000Z</time>
      </trkpt>
      <trkpt lat="43.82843" lon="6.40741">
        <ele>1110.122559</ele>
        <time>2015-12-28T10:46:08.000Z</time>
      </trkpt>
      <trkpt lat="43.82843" lon="6.40741">
        <ele>1110.118652</ele>
        <time>2015-12-28T10:46:13.000Z</time>
      </trkpt>
      <trkpt lat="43.82843" lon="6.40741">
        <ele>1110.119385</ele>
        <time>2015-12-28T10:46:18.000Z</time>
      </trkpt>
      <trkpt lat="43.82843" lon="6.40741">
        <ele>1110.124756</ele>
        <time>2015-12-28T10:46:23.000Z</time>
      </trkpt>
      <trkpt lat="43.82843" lon="6.40741">
        <ele>1110.129517</ele>
        <time>2015-12-28T10:46:28.000Z</time>
      </trkpt>
      <trkpt lat="43.82843" lon="6.40741">
        <ele>1110.150513</ele>
        <time>2015-12-28T10:46:33.000Z</time>
      </trkpt>
      <trkpt lat="43.82843" lon="6.40741">
        <ele>1110.155762</ele>
        <time>2015-12-28T10:46:38.000Z</time>
      </trkpt>
      <trkpt lat="43.82843" lon="6.40741">
        <ele>1110.162109</ele>
        <time>2015-12-28T10:46:43.000Z</time>
      </trkpt>
      <trkpt lat="43.82843" lon="6.40741">
        <ele>1110.163696</ele>
        <time>2015-12-28T10:46:48.000Z</time>
      </trkpt>
      <trkpt lat="43.82843" lon="6.40741">
        <ele>1110.166016</ele>
        <time>2015-12-28T10:46:53.000Z</time>
      </trkpt>
      <trkpt lat="43.82843" lon="6.40741">
        <ele>1110.155151</ele>
        <time>2015-12-28T10:46:58.000Z</time>
      </trkpt>
      <trkpt lat="43.82844" lon="6.4074">
        <ele>1111.196899</ele>
        <time>2015-12-28T10:47:03.000Z</time>
      </trkpt>
      <trkpt lat="43.82845" lon="6.40742">
        <ele>1111.458862</ele>
        <time>2015-12-28T10:47:08.000Z</time>
      </trkpt>
      <trkpt lat="43.82845" lon="6.40742">
        <ele>1111.373047</ele>
        <time>2015-12-28T10:47:13.000Z</time>
      </trkpt>
      <trkpt lat="43.82845" lon="6.40742">
        <ele>1111.367432</ele>
        <time>2015-12-28T10:47:18.000Z</time>
      </trkpt>
      <trkpt lat="43.82845" lon="6.40742">
        <ele>1111.358154</ele>
        <time>2015-12-28T10:47:23.000Z</time>
      </trkpt>
      <trkpt lat="43.82845" lon="6.40742">
        <ele>1111.351196</ele>
        <time>2015-12-28T10:47:28.000Z</time>
      </trkpt>
      <trkpt lat="43.82845" lon="6.40742">
        <ele>1111.35022</ele>
        <time>2015-12-28T10:47:33.000Z</time>
      </trkpt>
      <trkpt lat="43.82845" lon="6.40742">
        <ele>1111.360229</ele>
        <time>2015-12-28T10:47:38.000Z</time>
      </trkpt>
      <trkpt lat="43.82845" lon="6.40742">
        <ele>1111.37207</ele>
        <time>2015-12-28T10:47:43.000Z</time>
      </trkpt>
      <trkpt lat="43.82845" lon="6.40742">
        <ele>1111.382568</ele>
        <time>2015-12-28T10:47:48.000Z</time>
      </trkpt>
      <trkpt lat="43.82845" lon="6.40742">
        <ele>1111.395508</ele>
        <time>2015-12-28T10:47:53.000Z</time>
      </trkpt>
      <trkpt lat="43.82845" lon="6.40742">
        <ele>1111.415405</ele>
        <time>2015-12-28T10:47:58.000Z</time>
      </trkpt>
      <trkpt lat="43.82845" lon="6.40742">
        <ele>1111.42749</ele>
        <time>2015-12-28T10:48:03.000Z</time>
      </trkpt>
      <trkpt lat="43.82845" lon="6.40742">
        <ele>1111.432617</ele>
        <time>2015-12-28T10:48:08.000Z</time>
      </trkpt>
      <trkpt lat="43.82845" lon="6.40742">
        <ele>1111.445801</ele>
        <time>2015-12-28T10:48:13.000Z</time>
      </trkpt>
      <trkpt lat="43.82845" lon="6.40741">
        <ele>1111.559326</ele>
        <time>2015-12-28T10:48:18.000Z</time>
      </trkpt>
      <trkpt lat="43.82843" lon="6.40742">
        <ele>1111.558228</ele>
        <time>2015-12-28T10:48:23.000Z</time>
      </trkpt>
      <trkpt lat="43.82843" lon="6.40742">
        <ele>1111.130859</ele>
        <time>2015-12-28T10:48:28.000Z</time>
      </trkpt>
      <trkpt lat="43.82843" lon="6.40742">
        <ele>1111.143188</ele>
        <time>2015-12-28T10:48:33.000Z</time>
      </trkpt>
      <trkpt lat="43.82843" lon="6.40742">
        <ele>1111.164307</ele>
        <time>2015-12-28T10:48:38.000Z</time>
      </trkpt>
      <trkpt lat="43.82843" lon="6.40742">
        <ele>1111.427002</ele>
        <time>2015-12-28T10:48:43.000Z</time>
      </trkpt>
      <trkpt lat="43.8284" lon="6.40739">
        <ele>1111.921753</ele>
        <time>2015-12-28T10:48:48.000Z</time>
      </trkpt>
      <trkpt lat="43.82836" lon="6.40734">
        <ele>1112.367554</ele>
        <time>2015-12-28T10:48:53.000Z</time>
      </trkpt>
      <trkpt lat="43.82832" lon="6.4073">
        <ele>1113.105957</ele>
        <time>2015-12-28T10:48:58.000Z</time>
      </trkpt>
      <trkpt lat="43.82828" lon="6.40724">
        <ele>1113.607544</ele>
        <time>2015-12-28T10:49:03.000Z</time>
      </trkpt>
      <trkpt lat="43.82827" lon="6.40723">
        <ele>1113.85144</ele>
        <time>2015-12-28T10:49:08.000Z</time>
      </trkpt>
      <trkpt lat="43.82826" lon="6.40724">
        <ele>1113.664551</ele>
        <time>2015-12-28T10:49:13.000Z</time>
      </trkpt>
      <trkpt lat="43.82823" lon="6.40716">
        <ele>1114.127563</ele>
        <time>2015-12-28T10:49:18.000Z</time>
      </trkpt>
      <trkpt lat="43.82818" lon="6.40708">
        <ele>1114.880127</ele>
        <time>2015-12-28T10:49:23.000Z</time>
      </trkpt>
      <trkpt lat="43.82814" lon="6.407">
        <ele>1115.1875</ele>
        <time>2015-12-28T10:49:28.000Z</time>
      </trkpt>
      <trkpt lat="43.82809" lon="6.40694">
        <ele>1115.818359</ele>
        <time>2015-12-28T10:49:33.000Z</time>
      </trkpt>
      <trkpt lat="43.82803" lon="6.4069">
        <ele>1116.829956</ele>
        <time>2015-12-28T10:49:38.000Z</time>
      </trkpt>
      <trkpt lat="43.82796" lon="6.40688">
        <ele>1117.766357</ele>
        <time>2015-12-28T10:49:43.000Z</time>
      </trkpt>
      <trkpt lat="43.8279" lon="6.4069">
        <ele>1118.946899</ele>
        <time>2015-12-28T10:49:48.000Z</time>
      </trkpt>
      <trkpt lat="43.82784" lon="6.40694">
        <ele>1119.725342</ele>
        <time>2015-12-28T10:49:53.000Z</time>
      </trkpt>
      <trkpt lat="43.82778" lon="6.40697">
        <ele>1121.379639</ele>
        <time>2015-12-28T10:49:58.000Z</time>
      </trkpt>
      <trkpt lat="43.82771" lon="6.40698">
        <ele>1122.23584</ele>
        <time>2015-12-28T10:50:03.000Z</time>
      </trkpt>
      <trkpt lat="43.82765" lon="6.407">
        <ele>1122.608154</ele>
        <time>2015-12-28T10:50:08.000Z</time>
      </trkpt>
      <trkpt lat="43.82758" lon="6.407">
        <ele>1123.295776</ele>
        <time>2015-12-28T10:50:13.000Z</time>
      </trkpt>
      <trkpt lat="43.82752" lon="6.40698">
        <ele>1124.952271</ele>
        <time>2015-12-28T10:50:18.000Z</time>
      </trkpt>
      <trkpt lat="43.82747" lon="6.40694">
        <ele>1126.326416</ele>
        <time>2015-12-28T10:50:23.000Z</time>
      </trkpt>
      <trkpt lat="43.82742" lon="6.40688">
        <ele>1127.713867</ele>
        <time>2015-12-28T10:50:28.000Z</time>
      </trkpt>
      <trkpt lat="43.8274" lon="6.40685">
        <ele>1128.26416</ele>
        <time>2015-12-28T10:50:33.000Z</time>
      </trkpt>
      <trkpt lat="43.82738" lon="6.40679">
        <ele>1128.391113</ele>
        <time>2015-12-28T10:50:38.000Z</time>
      </trkpt>
      <trkpt lat="43.82738" lon="6.40673">
        <ele>1128.690552</ele>
        <time>2015-12-28T10:50:43.000Z</time>
      </trkpt>
      <trkpt lat="43.82735" lon="6.40666">
        <ele>1129.325195</ele>
        <time>2015-12-28T10:50:48.000Z</time>
      </trkpt>
      <trkpt lat="43.82732" lon="6.40661">
        <ele>1129.38208</ele>
        <time>2015-12-28T10:50:53.000Z</time>
      </trkpt>
      <trkpt lat="43.8273" lon="6.40656">
        <ele>1130.126709</ele>
        <time>2015-12-28T10:50:58.000Z</time>
      </trkpt>
      <trkpt lat="43.82729" lon="6.4065">
        <ele>1130.63501</ele>
        <time>2015-12-28T10:51:03.000Z</time>
      </trkpt>
      <trkpt lat="43.82732" lon="6.40645">
        <ele>1131.205322</ele>
        <time>2015-12-28T10:51:08.000Z</time>
      </trkpt>
      <trkpt lat="43.82737" lon="6.40643">
        <ele>1131.776855</ele>
        <time>2015-12-28T10:51:13.000Z</time>
      </trkpt>
      <trkpt lat="43.82743" lon="6.40644">
        <ele>1132.203247</ele>
        <time>2015-12-28T10:51:18.000Z</time>
      </trkpt>
      <trkpt lat="43.82747" lon="6.40645">
        <ele>1133.69104</ele>
        <time>2015-12-28T10:51:23.000Z</time>
      </trkpt>
      <trkpt lat="43.82753" lon="6.40644">
        <ele>1134.205811</ele>
        <time>2015-12-28T10:51:28.000Z</time>
      </trkpt>
      <trkpt lat="43.82758" lon="6.40641">
        <ele>1135.023804</ele>
        <time>2015-12-28T10:51:33.000Z</time>
      </trkpt>
      <trkpt lat="43.82763" lon="6.40638">
        <ele>1135.785522</ele>
        <time>2015-12-28T10:51:38.000Z</time>
      </trkpt>
      <trkpt lat="43.82767" lon="6.40633">
        <ele>1136.775635</ele>
        <time>2015-12-28T10:51:43.000Z</time>
      </trkpt>
      <trkpt lat="43.82767" lon="6.40626">
        <ele>1137.253906</ele>
        <time>2015-12-28T10:51:48.000Z</time>
      </trkpt>
      <trkpt lat="43.82762" lon="6.40622">
        <ele>1137.95752</ele>
        <time>2015-12-28T10:51:53.000Z</time>
      </trkpt>
      <trkpt lat="43.82758" lon="6.4062">
        <ele>1139.24353</ele>
        <time>2015-12-28T10:51:58.000Z</time>
      </trkpt>
      <trkpt lat="43.82754" lon="6.40618">
        <ele>1139.970215</ele>
        <time>2015-12-28T10:52:03.000Z</time>
      </trkpt>
      <trkpt lat="43.8275" lon="6.40614">
        <ele>1140.437988</ele>
        <time>2015-12-28T10:52:08.000Z</time>
      </trkpt>
      <trkpt lat="43.82745" lon="6.40612">
        <ele>1141.030762</ele>
        <time>2015-12-28T10:52:13.000Z</time>
      </trkpt>
      <trkpt lat="43.82745" lon="6.40612">
        <ele>1140.155884</ele>
        <time>2015-12-28T10:52:18.000Z</time>
      </trkpt>
      <trkpt lat="43.82743" lon="6.40612">
        <ele>1139.994019</ele>
        <time>2015-12-28T10:52:23.000Z</time>
      </trkpt>
      <trkpt lat="43.82743" lon="6.40612">
        <ele>1140.204956</ele>
        <time>2015-12-28T10:52:28.000Z</time>
      </trkpt>
      <trkpt lat="43.8274" lon="6.40608">
        <ele>1141.311523</ele>
        <time>2015-12-28T10:52:33.000Z</time>
      </trkpt>
      <trkpt lat="43.82735" lon="6.40602">
        <ele>1142.691772</ele>
        <time>2015-12-28T10:52:38.000Z</time>
      </trkpt>
      <trkpt lat="43.82729" lon="6.40598">
        <ele>1143.52771</ele>
        <time>2015-12-28T10:52:43.000Z</time>
      </trkpt>
      <trkpt lat="43.82723" lon="6.40594">
        <ele>1144.279541</ele>
        <time>2015-12-28T10:52:48.000Z</time>
      </trkpt>
      <trkpt lat="43.82716" lon="6.40591">
        <ele>1145.505615</ele>
        <time>2015-12-28T10:52:53.000Z</time>
      </trkpt>
      <trkpt lat="43.8271" lon="6.40589">
        <ele>1146.788086</ele>
        <time>2015-12-28T10:52:58.000Z</time>
      </trkpt>
      <trkpt lat="43.82703" lon="6.40587">
        <ele>1147.695068</ele>
        <time>2015-12-28T10:53:03.000Z</time>
      </trkpt>
      <trkpt lat="43.82697" lon="6.40588">
        <ele>1148.144653</ele>
        <time>2015-12-28T10:53:08.000Z</time>
      </trkpt>
      <trkpt lat="43.8269" lon="6.4059">
        <ele>1149.192505</ele>
        <time>2015-12-28T10:53:13.000Z</time>
      </trkpt>
      <trkpt lat="43.82683" lon="6.40591">
        <ele>1150.027832</ele>
        <time>2015-12-28T10:53:18.000Z</time>
      </trkpt>
      <trkpt lat="43.82678" lon="6.40592">
        <ele>1151.473511</ele>
        <time>2015-12-28T10:53:23.000Z</time>
      </trkpt>
      <trkpt lat="43.82671" lon="6.40591">
        <ele>1152.938721</ele>
        <time>2015-12-28T10:53:28.000Z</time>
      </trkpt>
      <trkpt lat="43.82663" lon="6.40591">
        <ele>1153.611084</ele>
        <time>2015-12-28T10:53:33.000Z</time>
      </trkpt>
      <trkpt lat="43.82657" lon="6.40589">
        <ele>1154.040771</ele>
        <time>2015-12-28T10:53:38.000Z</time>
      </trkpt>
      <trkpt lat="43.8265" lon="6.40587">
        <ele>1154.652466</ele>
        <time>2015-12-28T10:53:43.000Z</time>
      </trkpt>
      <trkpt lat="43.82644" lon="6.40583">
        <ele>1154.94519</ele>
        <time>2015-12-28T10:53:48.000Z</time>
      </trkpt>
      <trkpt lat="43.82638" lon="6.40579">
        <ele>1155.130737</ele>
        <time>2015-12-28T10:53:53.000Z</time>
      </trkpt>
      <trkpt lat="43.82633" lon="6.40574">
        <ele>1155.959595</ele>
        <time>2015-12-28T10:53:58.000Z</time>
      </trkpt>
      <trkpt lat="43.82628" lon="6.40566">
        <ele>1156.648804</ele>
        <time>2015-12-28T10:54:03.000Z</time>
      </trkpt>
      <trkpt lat="43.82623" lon="6.40561">
        <ele>1157.413208</ele>
        <time>2015-12-28T10:54:08.000Z</time>
      </trkpt>
      <trkpt lat="43.82618" lon="6.40557">
        <ele>1157.941895</ele>
        <time>2015-12-28T10:54:13.000Z</time>
      </trkpt>
      <trkpt lat="43.82613" lon="6.40554">
        <ele>1158.609741</ele>
        <time>2015-12-28T10:54:18.000Z</time>
      </trkpt>
      <trkpt lat="43.82609" lon="6.40552">
        <ele>1160.429199</ele>
        <time>2015-12-28T10:54:23.000Z</time>
      </trkpt>
      <trkpt lat="43.82603" lon="6.4055">
        <ele>1161.428955</ele>
        <time>2015-12-28T10:54:28.000Z</time>
      </trkpt>
      <trkpt lat="43.82597" lon="6.40547">
        <ele>1162.116211</ele>
        <time>2015-12-28T10:54:33.000Z</time>
      </trkpt>
      <trkpt lat="43.82592" lon="6.40545">
        <ele>1163.75647</ele>
        <time>2015-12-28T10:54:38.000Z</time>
      </trkpt>
      <trkpt lat="43.82586" lon="6.40541">
        <ele>1163.668091</ele>
        <time>2015-12-28T10:54:43.000Z</time>
      </trkpt>
      <trkpt lat="43.8258" lon="6.40537">
        <ele>1164.94043</ele>
        <time>2015-12-28T10:54:48.000Z</time>
      </trkpt>
      <trkpt lat="43.82575" lon="6.40534">
        <ele>1165.763794</ele>
        <time>2015-12-28T10:54:53.000Z</time>
      </trkpt>
      <trkpt lat="43.82569" lon="6.40531">
        <ele>1166.281494</ele>
        <time>2015-12-28T10:54:58.000Z</time>
      </trkpt>
      <trkpt lat="43.82563" lon="6.40529">
        <ele>1166.12793</ele>
        <time>2015-12-28T10:55:03.000Z</time>
      </trkpt>
      <trkpt lat="43.82556" lon="6.40526">
        <ele>1166.693604</ele>
        <time>2015-12-28T10:55:08.000Z</time>
      </trkpt>
      <trkpt lat="43.8255" lon="6.40524">
        <ele>1166.778931</ele>
        <time>2015-12-28T10:55:13.000Z</time>
      </trkpt>
      <trkpt lat="43.82544" lon="6.40521">
        <ele>1167.411011</ele>
        <time>2015-12-28T10:55:18.000Z</time>
      </trkpt>
      <trkpt lat="43.82539" lon="6.40518">
        <ele>1167.911499</ele>
        <time>2015-12-28T10:55:23.000Z</time>
      </trkpt>
      <trkpt lat="43.82534" lon="6.40513">
        <ele>1168.263672</ele>
        <time>2015-12-28T10:55:28.000Z</time>
      </trkpt>
      <trkpt lat="43.82528" lon="6.40507">
        <ele>1168.696533</ele>
        <time>2015-12-28T10:55:33.000Z</time>
      </trkpt>
      <trkpt lat="43.82524" lon="6.405">
        <ele>1169.818848</ele>
        <time>2015-12-28T10:55:38.000Z</time>
      </trkpt>
      <trkpt lat="43.82522" lon="6.40492">
        <ele>1170.828003</ele>
        <time>2015-12-28T10:55:43.000Z</time>
      </trkpt>
      <trkpt lat="43.8252" lon="6.40484">
        <ele>1171.138306</ele>
        <time>2015-12-28T10:55:48.000Z</time>
      </trkpt>
      <trkpt lat="43.82517" lon="6.40476">
        <ele>1171.805054</ele>
        <time>2015-12-28T10:55:53.000Z</time>
      </trkpt>
      <trkpt lat="43.82511" lon="6.40474">
        <ele>1172.101196</ele>
        <time>2015-12-28T10:55:58.000Z</time>
      </trkpt>
      <trkpt lat="43.82506" lon="6.40475">
        <ele>1173.0354</ele>
        <time>2015-12-28T10:56:03.000Z</time>
      </trkpt>
      <trkpt lat="43.82499" lon="6.40474">
        <ele>1174.049194</ele>
        <time>2015-12-28T10:56:08.000Z</time>
      </trkpt>
      <trkpt lat="43.82493" lon="6.4047">
        <ele>1175.315552</ele>
        <time>2015-12-28T10:56:13.000Z</time>
      </trkpt>
      <trkpt lat="43.82489" lon="6.40465">
        <ele>1176.456909</ele>
        <time>2015-12-28T10:56:18.000Z</time>
      </trkpt>
      <trkpt lat="43.82484" lon="6.4046">
        <ele>1177.090454</ele>
        <time>2015-12-28T10:56:23.000Z</time>
      </trkpt>
      <trkpt lat="43.8248" lon="6.40455">
        <ele>1178.23877</ele>
        <time>2015-12-28T10:56:28.000Z</time>
      </trkpt>
      <trkpt lat="43.82475" lon="6.4045">
        <ele>1178.772461</ele>
        <time>2015-12-28T10:56:33.000Z</time>
      </trkpt>
      <trkpt lat="43.8247" lon="6.40446">
        <ele>1179.205566</ele>
        <time>2015-12-28T10:56:38.000Z</time>
      </trkpt>
      <trkpt lat="43.82466" lon="6.40443">
        <ele>1181.334106</ele>
        <time>2015-12-28T10:56:43.000Z</time>
      </trkpt>
      <trkpt lat="43.82461" lon="6.40439">
        <ele>1182.074341</ele>
        <time>2015-12-28T10:56:48.000Z</time>
      </trkpt>
      <trkpt lat="43.82456" lon="6.40436">
        <ele>1183.888916</ele>
        <time>2015-12-28T10:56:53.000Z</time>
      </trkpt>
      <trkpt lat="43.82449" lon="6.40433">
        <ele>1184.437744</ele>
        <time>2015-12-28T10:56:58.000Z</time>
      </trkpt>
      <trkpt lat="43.82442" lon="6.40431">
        <ele>1185.09375</ele>
        <time>2015-12-28T10:57:03.000Z</time>
      </trkpt>
      <trkpt lat="43.82436" lon="6.40426">
        <ele>1185.014404</ele>
        <time>2015-12-28T10:57:08.000Z</time>
      </trkpt>
      <trkpt lat="43.82431" lon="6.40423">
        <ele>1185.079834</ele>
        <time>2015-12-28T10:57:13.000Z</time>
      </trkpt>
      <trkpt lat="43.82425" lon="6.40421">
        <ele>1185.030396</ele>
        <time>2015-12-28T10:57:18.000Z</time>
      </trkpt>
      <trkpt lat="43.82421" lon="6.40417">
        <ele>1185.515259</ele>
        <time>2015-12-28T10:57:23.000Z</time>
      </trkpt>
      <trkpt lat="43.82415" lon="6.40412">
        <ele>1185.670044</ele>
        <time>2015-12-28T10:57:28.000Z</time>
      </trkpt>
      <trkpt lat="43.82409" lon="6.40408">
        <ele>1186.488892</ele>
        <time>2015-12-28T10:57:33.000Z</time>
      </trkpt>
      <trkpt lat="43.82403" lon="6.40404">
        <ele>1187.23999</ele>
        <time>2015-12-28T10:57:38.000Z</time>
      </trkpt>
      <trkpt lat="43.82397" lon="6.404">
        <ele>1188.15625</ele>
        <time>2015-12-28T10:57:43.000Z</time>
      </trkpt>
      <trkpt lat="43.82392" lon="6.40395">
        <ele>1188.554688</ele>
        <time>2015-12-28T10:57:48.000Z</time>
      </trkpt>
      <trkpt lat="43.82385" lon="6.40392">
        <ele>1189.077881</ele>
        <time>2015-12-28T10:57:53.000Z</time>
      </trkpt>
      <trkpt lat="43.82378" lon="6.40388">
        <ele>1190.001465</ele>
        <time>2015-12-28T10:57:58.000Z</time>
      </trkpt>
      <trkpt lat="43.82373" lon="6.40384">
        <ele>1190.774292</ele>
        <time>2015-12-28T10:58:03.000Z</time>
      </trkpt>
      <trkpt lat="43.82367" lon="6.40381">
        <ele>1191.460938</ele>
        <time>2015-12-28T10:58:08.000Z</time>
      </trkpt>
      <trkpt lat="43.82362" lon="6.40378">
        <ele>1191.765503</ele>
        <time>2015-12-28T10:58:13.000Z</time>
      </trkpt>
      <trkpt lat="43.82357" lon="6.40374">
        <ele>1192.020874</ele>
        <time>2015-12-28T10:58:18.000Z</time>
      </trkpt>
      <trkpt lat="43.82351" lon="6.4037">
        <ele>1192.714966</ele>
        <time>2015-12-28T10:58:23.000Z</time>
      </trkpt>
      <trkpt lat="43.82347" lon="6.40364">
        <ele>1193.176758</ele>
        <time>2015-12-28T10:58:28.000Z</time>
      </trkpt>
      <trkpt lat="43.82344" lon="6.40359">
        <ele>1194.029419</ele>
        <time>2015-12-28T10:58:33.000Z</time>
      </trkpt>
      <trkpt lat="43.82343" lon="6.40359">
        <ele>1194.57666</ele>
        <time>2015-12-28T10:58:38.000Z</time>
      </trkpt>
      <trkpt lat="43.82343" lon="6.4036">
        <ele>1195.021362</ele>
        <time>2015-12-28T10:58:43.000Z</time>
      </trkpt>
      <trkpt lat="43.82343" lon="6.4036">
        <ele>1194.994873</ele>
        <time>2015-12-28T10:58:48.000Z</time>
      </trkpt>
      <trkpt lat="43.82343" lon="6.4036">
        <ele>1195.02771</ele>
        <time>2015-12-28T10:58:53.000Z</time>
      </trkpt>
      <trkpt lat="43.82343" lon="6.4036">
        <ele>1195.05603</ele>
        <time>2015-12-28T10:58:58.000Z</time>
      </trkpt>
      <trkpt lat="43.82343" lon="6.4036">
        <ele>1195.074097</ele>
        <time>2015-12-28T10:59:03.000Z</time>
      </trkpt>
      <trkpt lat="43.82343" lon="6.4036">
        <ele>1195.097412</ele>
        <time>2015-12-28T10:59:08.000Z</time>
      </trkpt>
      <trkpt lat="43.82343" lon="6.4036">
        <ele>1195.119995</ele>
        <time>2015-12-28T10:59:13.000Z</time>
      </trkpt>
      <trkpt lat="43.82343" lon="6.4036">
        <ele>1195.167236</ele>
        <time>2015-12-28T10:59:18.000Z</time>
      </trkpt>
      <trkpt lat="43.82343" lon="6.4036">
        <ele>1195.532349</ele>
        <time>2015-12-28T10:59:23.000Z</time>
      </trkpt>
      <trkpt lat="43.82342" lon="6.40358">
        <ele>1195.668701</ele>
        <time>2015-12-28T10:59:28.000Z</time>
      </trkpt>
      <trkpt lat="43.82342" lon="6.40358">
        <ele>1195.535034</ele>
        <time>2015-12-28T10:59:33.000Z</time>
      </trkpt>
      <trkpt lat="43.82342" lon="6.40358">
        <ele>1195.512817</ele>
        <time>2015-12-28T10:59:38.000Z</time>
      </trkpt>
      <trkpt lat="43.82342" lon="6.40358">
        <ele>1195.503418</ele>
        <time>2015-12-28T10:59:43.000Z</time>
      </trkpt>
      <trkpt lat="43.82342" lon="6.40358">
        <ele>1195.531738</ele>
        <time>2015-12-28T10:59:48.000Z</time>
      </trkpt>
      <trkpt lat="43.82342" lon="6.40358">
        <ele>1195.522339</ele>
        <time>2015-12-28T10:59:53.000Z</time>
      </trkpt>
      <trkpt lat="43.82342" lon="6.40358">
        <ele>1195.507446</ele>
        <time>2015-12-28T10:59:58.000Z</time>
      </trkpt>
      <trkpt lat="43.82342" lon="6.40358">
        <ele>1195.487549</ele>
        <time>2015-12-28T11:00:03.000Z</time>
      </trkpt>
      <trkpt lat="43.82342" lon="6.40358">
        <ele>1195.46521</ele>
        <time>2015-12-28T11:00:08.000Z</time>
      </trkpt>
      <trkpt lat="43.82342" lon="6.40358">
        <ele>1195.447021</ele>
        <time>2015-12-28T11:00:13.000Z</time>
      </trkpt>
      <trkpt lat="43.82342" lon="6.40358">
        <ele>1195.429688</ele>
        <time>2015-12-28T11:00:18.000Z</time>
      </trkpt>
      <trkpt lat="43.82342" lon="6.40358">
        <ele>1195.415649</ele>
        <time>2015-12-28T11:00:23.000Z</time>
      </trkpt>
      <trkpt lat="43.82342" lon="6.40358">
        <ele>1195.400391</ele>
        <time>2015-12-28T11:00:28.000Z</time>
      </trkpt>
      <trkpt lat="43.82342" lon="6.40358">
        <ele>1195.383911</ele>
        <time>2015-12-28T11:00:33.000Z</time>
      </trkpt>
      <trkpt lat="43.82342" lon="6.40358">
        <ele>1195.369751</ele>
        <time>2015-12-28T11:00:38.000Z</time>
      </trkpt>
      <trkpt lat="43.82342" lon="6.40358">
        <ele>1195.364502</ele>
        <time>2015-12-28T11:00:43.000Z</time>
      </trkpt>
      <trkpt lat="43.82342" lon="6.40358">
        <ele>1195.357544</ele>
        <time>2015-12-28T11:00:48.000Z</time>
      </trkpt>
      <trkpt lat="43.8234" lon="6.40355">
        <ele>1195.470093</ele>
        <time>2015-12-28T11:00:53.000Z</time>
      </trkpt>
      <trkpt lat="43.82338" lon="6.40348">
        <ele>1195.747925</ele>
        <time>2015-12-28T11:00:58.000Z</time>
      </trkpt>
      <trkpt lat="43.82336" lon="6.40342">
        <ele>1196.516602</ele>
        <time>2015-12-28T11:01:03.000Z</time>
      </trkpt>
      <trkpt lat="43.82334" lon="6.40336">
        <ele>1197.335571</ele>
        <time>2015-12-28T11:01:08.000Z</time>
      </trkpt>
      <trkpt lat="43.82332" lon="6.4033">
        <ele>1198.204224</ele>
        <time>2015-12-28T11:01:13.000Z</time>
      </trkpt>
      <trkpt lat="43.82329" lon="6.40325">
        <ele>1198.734131</ele>
        <time>2015-12-28T11:01:18.000Z</time>
      </trkpt>
      <trkpt lat="43.82327" lon="6.4032">
        <ele>1199.334717</ele>
        <time>2015-12-28T11:01:23.000Z</time>
      </trkpt>
      <trkpt lat="43.82326" lon="6.40315">
        <ele>1200.116699</ele>
        <time>2015-12-28T11:01:28.000Z</time>
      </trkpt>
      <trkpt lat="43.82324" lon="6.40309">
        <ele>1201.061279</ele>
        <time>2015-12-28T11:01:33.000Z</time>
      </trkpt>
      <trkpt lat="43.82322" lon="6.40303">
        <ele>1201.844116</ele>
        <time>2015-12-28T11:01:38.000Z</time>
      </trkpt>
      <trkpt lat="43.82321" lon="6.40298">
        <ele>1202.439941</ele>
        <time>2015-12-28T11:01:43.000Z</time>
      </trkpt>
      <trkpt lat="43.82319" lon="6.40294">
        <ele>1203.085938</ele>
        <time>2015-12-28T11:01:48.000Z</time>
      </trkpt>
      <trkpt lat="43.82318" lon="6.40288">
        <ele>1203.549194</ele>
        <time>2015-12-28T11:01:53.000Z</time>
      </trkpt>
      <trkpt lat="43.82316" lon="6.40283">
        <ele>1203.964111</ele>
        <time>2015-12-28T11:01:58.000Z</time>
      </trkpt>
      <trkpt lat="43.82314" lon="6.40277">
        <ele>1204.794678</ele>
        <time>2015-12-28T11:02:03.000Z</time>
      </trkpt>
      <trkpt lat="43.82313" lon="6.40272">
        <ele>1205.335205</ele>
        <time>2015-12-28T11:02:08.000Z</time>
      </trkpt>
      <trkpt lat="43.82311" lon="6.40266">
        <ele>1205.787964</ele>
        <time>2015-12-28T11:02:13.000Z</time>
      </trkpt>
      <trkpt lat="43.8231" lon="6.4026">
        <ele>1206.327271</ele>
        <time>2015-12-28T11:02:18.000Z</time>
      </trkpt>
      <trkpt lat="43.82309" lon="6.40254">
        <ele>1206.706665</ele>
        <time>2015-12-28T11:02:23.000Z</time>
      </trkpt>
      <trkpt lat="43.82308" lon="6.40248">
        <ele>1207.456299</ele>
        <time>2015-12-28T11:02:28.000Z</time>
      </trkpt>
      <trkpt lat="43.82306" lon="6.40242">
        <ele>1207.99585</ele>
        <time>2015-12-28T11:02:33.000Z</time>
      </trkpt>
      <trkpt lat="43.82304" lon="6.40237">
        <ele>1208.915771</ele>
        <time>2015-12-28T11:02:38.000Z</time>
      </trkpt>
      <trkpt lat="43.82303" lon="6.40232">
        <ele>1209.500854</ele>
        <time>2015-12-28T11:02:43.000Z</time>
      </trkpt>
      <trkpt lat="43.82304" lon="6.40227">
        <ele>1209.75647</ele>
        <time>2015-12-28T11:02:48.000Z</time>
      </trkpt>
      <trkpt lat="43.82308" lon="6.40227">
        <ele>1210.463745</ele>
        <time>2015-12-28T11:02:53.000Z</time>
      </trkpt>
      <trkpt lat="43.82312" lon="6.4023">
        <ele>1211.196289</ele>
        <time>2015-12-28T11:02:58.000Z</time>
      </trkpt>
      <trkpt lat="43.82316" lon="6.40234">
        <ele>1211.685669</ele>
        <time>2015-12-28T11:03:03.000Z</time>
      </trkpt>
      <trkpt lat="43.8232" lon="6.40236">
        <ele>1212.196411</ele>
        <time>2015-12-28T11:03:08.000Z</time>
      </trkpt>
      <trkpt lat="43.82324" lon="6.40238">
        <ele>1212.390503</ele>
        <time>2015-12-28T11:03:13.000Z</time>
      </trkpt>
      <trkpt lat="43.82326" lon="6.40237">
        <ele>1212.740845</ele>
        <time>2015-12-28T11:03:18.000Z</time>
      </trkpt>
      <trkpt lat="43.82331" lon="6.4024">
        <ele>1213.325195</ele>
        <time>2015-12-28T11:03:23.000Z</time>
      </trkpt>
      <trkpt lat="43.82336" lon="6.40243">
        <ele>1213.864502</ele>
        <time>2015-12-28T11:03:28.000Z</time>
      </trkpt>
      <trkpt lat="43.82341" lon="6.40246">
        <ele>1214.138062</ele>
        <time>2015-12-28T11:03:33.000Z</time>
      </trkpt>
      <trkpt lat="43.82345" lon="6.40249">
        <ele>1214.925293</ele>
        <time>2015-12-28T11:03:38.000Z</time>
      </trkpt>
      <trkpt lat="43.8235" lon="6.40251">
        <ele>1215.096313</ele>
        <time>2015-12-28T11:03:43.000Z</time>
      </trkpt>
      <trkpt lat="43.82355" lon="6.40252">
        <ele>1215.504883</ele>
        <time>2015-12-28T11:03:48.000Z</time>
      </trkpt>
      <trkpt lat="43.82356" lon="6.40246">
        <ele>1216.225952</ele>
        <time>2015-12-28T11:03:53.000Z</time>
      </trkpt>
      <trkpt lat="43.82354" lon="6.4024">
        <ele>1217.030151</ele>
        <time>2015-12-28T11:03:58.000Z</time>
      </trkpt>
      <trkpt lat="43.82352" lon="6.40234">
        <ele>1217.353638</ele>
        <time>2015-12-28T11:04:03.000Z</time>
      </trkpt>
      <trkpt lat="43.82351" lon="6.40229">
        <ele>1218.02124</ele>
        <time>2015-12-28T11:04:08.000Z</time>
      </trkpt>
      <trkpt lat="43.8235" lon="6.40226">
        <ele>1218.133179</ele>
        <time>2015-12-28T11:04:13.000Z</time>
      </trkpt>
      <trkpt lat="43.82349" lon="6.40225">
        <ele>1218.303345</ele>
        <time>2015-12-28T11:04:18.000Z</time>
      </trkpt>
      <trkpt lat="43.82347" lon="6.4022">
        <ele>1218.458618</ele>
        <time>2015-12-28T11:04:23.000Z</time>
      </trkpt>
      <trkpt lat="43.82346" lon="6.40214">
        <ele>1218.781128</ele>
        <time>2015-12-28T11:04:28.000Z</time>
      </trkpt>
      <trkpt lat="43.82344" lon="6.40207">
        <ele>1219.162598</ele>
        <time>2015-12-28T11:04:33.000Z</time>
      </trkpt>
      <trkpt lat="43.82342" lon="6.40201">
        <ele>1219.693115</ele>
        <time>2015-12-28T11:04:38.000Z</time>
      </trkpt>
      <trkpt lat="43.8234" lon="6.40194">
        <ele>1220.312622</ele>
        <time>2015-12-28T11:04:43.000Z</time>
      </trkpt>
      <trkpt lat="43.82338" lon="6.40188">
        <ele>1220.850708</ele>
        <time>2015-12-28T11:04:48.000Z</time>
      </trkpt>
      <trkpt lat="43.82336" lon="6.40181">
        <ele>1221.356934</ele>
        <time>2015-12-28T11:04:53.000Z</time>
      </trkpt>
      <trkpt lat="43.82334" lon="6.40174">
        <ele>1221.892334</ele>
        <time>2015-12-28T11:04:58.000Z</time>
      </trkpt>
      <trkpt lat="43.82332" lon="6.40167">
        <ele>1222.202881</ele>
        <time>2015-12-28T11:05:03.000Z</time>
      </trkpt>
      <trkpt lat="43.8233" lon="6.40162">
        <ele>1222.692871</ele>
        <time>2015-12-28T11:05:08.000Z</time>
      </trkpt>
      <trkpt lat="43.82328" lon="6.40156">
        <ele>1223.399902</ele>
        <time>2015-12-28T11:05:13.000Z</time>
      </trkpt>
      <trkpt lat="43.82327" lon="6.40149">
        <ele>1224.408325</ele>
        <time>2015-12-28T11:05:18.000Z</time>
      </trkpt>
      <trkpt lat="43.82325" lon="6.40142">
        <ele>1225.356445</ele>
        <time>2015-12-28T11:05:23.000Z</time>
      </trkpt>
      <trkpt lat="43.82322" lon="6.40136">
        <ele>1226.071289</ele>
        <time>2015-12-28T11:05:28.000Z</time>
      </trkpt>
      <trkpt lat="43.82321" lon="6.40129">
        <ele>1226.822021</ele>
        <time>2015-12-28T11:05:33.000Z</time>
      </trkpt>
      <trkpt lat="43.82319" lon="6.40122">
        <ele>1227.550415</ele>
        <time>2015-12-28T11:05:38.000Z</time>
      </trkpt>
      <trkpt lat="43.82317" lon="6.40116">
        <ele>1228.566284</ele>
        <time>2015-12-28T11:05:43.000Z</time>
      </trkpt>
      <trkpt lat="43.82316" lon="6.40109">
        <ele>1229.301758</ele>
        <time>2015-12-28T11:05:48.000Z</time>
      </trkpt>
      <trkpt lat="43.82315" lon="6.40103">
        <ele>1230.048096</ele>
        <time>2015-12-28T11:05:53.000Z</time>
      </trkpt>
      <trkpt lat="43.82315" lon="6.40096">
        <ele>1231.081421</ele>
        <time>2015-12-28T11:05:58.000Z</time>
      </trkpt>
      <trkpt lat="43.82314" lon="6.4009">
        <ele>1232.044312</ele>
        <time>2015-12-28T11:06:03.000Z</time>
      </trkpt>
      <trkpt lat="43.82314" lon="6.40083">
        <ele>1232.870239</ele>
        <time>2015-12-28T11:06:08.000Z</time>
      </trkpt>
      <trkpt lat="43.82314" lon="6.40076">
        <ele>1233.535767</ele>
        <time>2015-12-28T11:06:13.000Z</time>
      </trkpt>
      <trkpt lat="43.82312" lon="6.40069">
        <ele>1234.321655</ele>
        <time>2015-12-28T11:06:18.000Z</time>
      </trkpt>
      <trkpt lat="43.82311" lon="6.40063">
        <ele>1235.12561</ele>
        <time>2015-12-28T11:06:23.000Z</time>
      </trkpt>
      <trkpt lat="43.82309" lon="6.40056">
        <ele>1236.048462</ele>
        <time>2015-12-28T11:06:28.000Z</time>
      </trkpt>
      <trkpt lat="43.82307" lon="6.4005">
        <ele>1236.848999</ele>
        <time>2015-12-28T11:06:33.000Z</time>
      </trkpt>
      <trkpt lat="43.82306" lon="6.40043">
        <ele>1237.355225</ele>
        <time>2015-12-28T11:06:38.000Z</time>
      </trkpt>
      <trkpt lat="43.82305" lon="6.40038">
        <ele>1237.918823</ele>
        <time>2015-12-28T11:06:43.000Z</time>
      </trkpt>
      <trkpt lat="43.82305" lon="6.40038">
        <ele>1237.724121</ele>
        <time>2015-12-28T11:06:48.000Z</time>
      </trkpt>
      <trkpt lat="43.82305" lon="6.40038">
        <ele>1237.694702</ele>
        <time>2015-12-28T11:06:53.000Z</time>
      </trkpt>
      <trkpt lat="43.82305" lon="6.40038">
        <ele>1237.674805</ele>
        <time>2015-12-28T11:06:58.000Z</time>
      </trkpt>
      <trkpt lat="43.82305" lon="6.40038">
        <ele>1237.684814</ele>
        <time>2015-12-28T11:07:03.000Z</time>
      </trkpt>
      <trkpt lat="43.82305" lon="6.40038">
        <ele>1237.678711</ele>
        <time>2015-12-28T11:07:08.000Z</time>
      </trkpt>
      <trkpt lat="43.82304" lon="6.40034">
        <ele>1237.664917</ele>
        <time>2015-12-28T11:07:13.000Z</time>
      </trkpt>
      <trkpt lat="43.82303" lon="6.40027">
        <ele>1238.20459</ele>
        <time>2015-12-28T11:07:18.000Z</time>
      </trkpt>
      <trkpt lat="43.82301" lon="6.4002">
        <ele>1238.795898</ele>
        <time>2015-12-28T11:07:23.000Z</time>
      </trkpt>
      <trkpt lat="43.823" lon="6.40013">
        <ele>1239.402344</ele>
        <time>2015-12-28T11:07:28.000Z</time>
      </trkpt>
      <trkpt lat="43.82298" lon="6.40006">
        <ele>1239.871094</ele>
        <time>2015-12-28T11:07:33.000Z</time>
      </trkpt>
      <trkpt lat="43.82295" lon="6.4">
        <ele>1239.750488</ele>
        <time>2015-12-28T11:07:38.000Z</time>
      </trkpt>
      <trkpt lat="43.82293" lon="6.39992">
        <ele>1239.770508</ele>
        <time>2015-12-28T11:07:43.000Z</time>
      </trkpt>
      <trkpt lat="43.82292" lon="6.39985">
        <ele>1240.132446</ele>
        <time>2015-12-28T11:07:48.000Z</time>
      </trkpt>
      <trkpt lat="43.82291" lon="6.39978">
        <ele>1240.817017</ele>
        <time>2015-12-28T11:07:53.000Z</time>
      </trkpt>
      <trkpt lat="43.8229" lon="6.39971">
        <ele>1241.447632</ele>
        <time>2015-12-28T11:07:58.000Z</time>
      </trkpt>
      <trkpt lat="43.82289" lon="6.39965">
        <ele>1241.959839</ele>
        <time>2015-12-28T11:08:03.000Z</time>
      </trkpt>
      <trkpt lat="43.82287" lon="6.39959">
        <ele>1242.647583</ele>
        <time>2015-12-28T11:08:08.000Z</time>
      </trkpt>
      <trkpt lat="43.82285" lon="6.39953">
        <ele>1243.419067</ele>
        <time>2015-12-28T11:08:13.000Z</time>
      </trkpt>
      <trkpt lat="43.82283" lon="6.39947">
        <ele>1243.774048</ele>
        <time>2015-12-28T11:08:18.000Z</time>
      </trkpt>
      <trkpt lat="43.82283" lon="6.39948">
        <ele>1242.97522</ele>
        <time>2015-12-28T11:08:23.000Z</time>
      </trkpt>
      <trkpt lat="43.82283" lon="6.39948">
        <ele>1242.903687</ele>
        <time>2015-12-28T11:08:28.000Z</time>
      </trkpt>
      <trkpt lat="43.82283" lon="6.39948">
        <ele>1242.814697</ele>
        <time>2015-12-28T11:08:33.000Z</time>
      </trkpt>
      <trkpt lat="43.82283" lon="6.39948">
        <ele>1242.75</ele>
        <time>2015-12-28T11:08:38.000Z</time>
      </trkpt>
      <trkpt lat="43.82283" lon="6.39948">
        <ele>1242.733154</ele>
        <time>2015-12-28T11:08:43.000Z</time>
      </trkpt>
      <trkpt lat="43.82283" lon="6.39948">
        <ele>1242.729736</ele>
        <time>2015-12-28T11:08:48.000Z</time>
      </trkpt>
      <trkpt lat="43.82283" lon="6.39948">
        <ele>1242.716553</ele>
        <time>2015-12-28T11:08:53.000Z</time>
      </trkpt>
      <trkpt lat="43.82282" lon="6.39948">
        <ele>1242.739136</ele>
        <time>2015-12-28T11:08:58.000Z</time>
      </trkpt>
      <trkpt lat="43.82282" lon="6.39948">
        <ele>1242.785645</ele>
        <time>2015-12-28T11:09:03.000Z</time>
      </trkpt>
      <trkpt lat="43.82282" lon="6.39948">
        <ele>1242.78833</ele>
        <time>2015-12-28T11:09:08.000Z</time>
      </trkpt>
      <trkpt lat="43.82281" lon="6.39944">
        <ele>1243.127686</ele>
        <time>2015-12-28T11:09:13.000Z</time>
      </trkpt>
      <trkpt lat="43.8228" lon="6.39938">
        <ele>1243.766235</ele>
        <time>2015-12-28T11:09:18.000Z</time>
      </trkpt>
      <trkpt lat="43.82278" lon="6.39931">
        <ele>1244.692627</ele>
        <time>2015-12-28T11:09:23.000Z</time>
      </trkpt>
      <trkpt lat="43.82277" lon="6.39926">
        <ele>1245.503906</ele>
        <time>2015-12-28T11:09:28.000Z</time>
      </trkpt>
      <trkpt lat="43.82274" lon="6.39921">
        <ele>1246.417847</ele>
        <time>2015-12-28T11:09:33.000Z</time>
      </trkpt>
      <trkpt lat="43.82272" lon="6.39916">
        <ele>1247.155518</ele>
        <time>2015-12-28T11:09:38.000Z</time>
      </trkpt>
      <trkpt lat="43.82269" lon="6.39912">
        <ele>1248.103149</ele>
        <time>2015-12-28T11:09:43.000Z</time>
      </trkpt>
      <trkpt lat="43.82265" lon="6.39908">
        <ele>1248.988892</ele>
        <time>2015-12-28T11:09:48.000Z</time>
      </trkpt>
      <trkpt lat="43.82262" lon="6.39905">
        <ele>1249.347168</ele>
        <time>2015-12-28T11:09:53.000Z</time>
      </trkpt>
      <trkpt lat="43.82257" lon="6.39907">
        <ele>1250.510132</ele>
        <time>2015-12-28T11:09:58.000Z</time>
      </trkpt>
      <trkpt lat="43.82252" lon="6.39909">
        <ele>1251.044189</ele>
        <time>2015-12-28T11:10:03.000Z</time>
      </trkpt>
      <trkpt lat="43.82248" lon="6.39904">
        <ele>1251.686401</ele>
        <time>2015-12-28T11:10:08.000Z</time>
      </trkpt>
      <trkpt lat="43.82247" lon="6.39898">
        <ele>1252.518555</ele>
        <time>2015-12-28T11:10:13.000Z</time>
      </trkpt>
      <trkpt lat="43.82247" lon="6.39892">
        <ele>1252.965698</ele>
        <time>2015-12-28T11:10:18.000Z</time>
      </trkpt>
      <trkpt lat="43.82247" lon="6.39887">
        <ele>1254.885498</ele>
        <time>2015-12-28T11:10:23.000Z</time>
      </trkpt>
      <trkpt lat="43.82243" lon="6.39885">
        <ele>1256.339111</ele>
        <time>2015-12-28T11:10:28.000Z</time>
      </trkpt>
      <trkpt lat="43.8224" lon="6.39889">
        <ele>1257.286133</ele>
        <time>2015-12-28T11:10:33.000Z</time>
      </trkpt>
      <trkpt lat="43.82241" lon="6.39889">
        <ele>1257.022705</ele>
        <time>2015-12-28T11:10:38.000Z</time>
      </trkpt>
      <trkpt lat="43.82241" lon="6.39889">
        <ele>1257.250366</ele>
        <time>2015-12-28T11:10:43.000Z</time>
      </trkpt>
      <trkpt lat="43.82241" lon="6.39889">
        <ele>1257.29248</ele>
        <time>2015-12-28T11:10:48.000Z</time>
      </trkpt>
      <trkpt lat="43.82239" lon="6.39892">
        <ele>1257.938599</ele>
        <time>2015-12-28T11:10:53.000Z</time>
      </trkpt>
      <trkpt lat="43.82237" lon="6.39898">
        <ele>1258.690674</ele>
        <time>2015-12-28T11:10:58.000Z</time>
      </trkpt>
      <trkpt lat="43.82235" lon="6.39904">
        <ele>1259.689087</ele>
        <time>2015-12-28T11:11:03.000Z</time>
      </trkpt>
      <trkpt lat="43.82231" lon="6.39908">
        <ele>1260.435547</ele>
        <time>2015-12-28T11:11:08.000Z</time>
      </trkpt>
      <trkpt lat="43.82228" lon="6.39913">
        <ele>1262.047729</ele>
        <time>2015-12-28T11:11:13.000Z</time>
      </trkpt>
      <trkpt lat="43.82224" lon="6.39919">
        <ele>1262.161865</ele>
        <time>2015-12-28T11:11:18.000Z</time>
      </trkpt>
      <trkpt lat="43.82219" lon="6.39923">
        <ele>1262.41626</ele>
        <time>2015-12-28T11:11:23.000Z</time>
      </trkpt>
      <trkpt lat="43.82215" lon="6.39926">
        <ele>1262.955444</ele>
        <time>2015-12-28T11:11:28.000Z</time>
      </trkpt>
      <trkpt lat="43.82211" lon="6.39928">
        <ele>1263.779785</ele>
        <time>2015-12-28T11:11:33.000Z</time>
      </trkpt>
      <trkpt lat="43.82207" lon="6.39931">
        <ele>1264.539063</ele>
        <time>2015-12-28T11:11:38.000Z</time>
      </trkpt>
      <trkpt lat="43.82203" lon="6.39932">
        <ele>1265.141235</ele>
        <time>2015-12-28T11:11:43.000Z</time>
      </trkpt>
      <trkpt lat="43.82198" lon="6.39933">
        <ele>1265.67688</ele>
        <time>2015-12-28T11:11:48.000Z</time>
      </trkpt>
      <trkpt lat="43.82193" lon="6.39932">
        <ele>1266.037231</ele>
        <time>2015-12-28T11:11:53.000Z</time>
      </trkpt>
      <trkpt lat="43.82187" lon="6.39933">
        <ele>1266.941284</ele>
        <time>2015-12-28T11:11:58.000Z</time>
      </trkpt>
      <trkpt lat="43.82183" lon="6.39932">
        <ele>1267.473145</ele>
        <time>2015-12-28T11:12:03.000Z</time>
      </trkpt>
      <trkpt lat="43.82177" lon="6.39931">
        <ele>1267.532227</ele>
        <time>2015-12-28T11:12:08.000Z</time>
      </trkpt>
      <trkpt lat="43.82172" lon="6.39928">
        <ele>1268.138184</ele>
        <time>2015-12-28T11:12:13.000Z</time>
      </trkpt>
      <trkpt lat="43.82167" lon="6.39925">
        <ele>1268.629639</ele>
        <time>2015-12-28T11:12:18.000Z</time>
      </trkpt>
      <trkpt lat="43.82163" lon="6.39922">
        <ele>1269.170166</ele>
        <time>2015-12-28T11:12:23.000Z</time>
      </trkpt>
      <trkpt lat="43.82159" lon="6.39918">
        <ele>1269.600342</ele>
        <time>2015-12-28T11:12:28.000Z</time>
      </trkpt>
      <trkpt lat="43.82159" lon="6.39917">
        <ele>1269.405884</ele>
        <time>2015-12-28T11:12:33.000Z</time>
      </trkpt>
      <trkpt lat="43.82159" lon="6.39918">
        <ele>1269.177368</ele>
        <time>2015-12-28T11:12:38.000Z</time>
      </trkpt>
      <trkpt lat="43.82159" lon="6.39917">
        <ele>1268.68335</ele>
        <time>2015-12-28T11:12:43.000Z</time>
      </trkpt>
      <trkpt lat="43.82159" lon="6.39917">
        <ele>1268.686279</ele>
        <time>2015-12-28T11:12:48.000Z</time>
      </trkpt>
      <trkpt lat="43.82155" lon="6.39914">
        <ele>1268.862061</ele>
        <time>2015-12-28T11:12:53.000Z</time>
      </trkpt>
      <trkpt lat="43.82148" lon="6.39908">
        <ele>1269.456055</ele>
        <time>2015-12-28T11:12:58.000Z</time>
      </trkpt>
      <trkpt lat="43.82142" lon="6.39902">
        <ele>1269.913208</ele>
        <time>2015-12-28T11:13:03.000Z</time>
      </trkpt>
      <trkpt lat="43.82135" lon="6.399">
        <ele>1271.1875</ele>
        <time>2015-12-28T11:13:08.000Z</time>
      </trkpt>
      <trkpt lat="43.82128" lon="6.39903">
        <ele>1272.005249</ele>
        <time>2015-12-28T11:13:13.000Z</time>
      </trkpt>
      <trkpt lat="43.82121" lon="6.39906">
        <ele>1273.065552</ele>
        <time>2015-12-28T11:13:18.000Z</time>
      </trkpt>
      <trkpt lat="43.82115" lon="6.39907">
        <ele>1273.663818</ele>
        <time>2015-12-28T11:13:23.000Z</time>
      </trkpt>
      <trkpt lat="43.82108" lon="6.39908">
        <ele>1274.493652</ele>
        <time>2015-12-28T11:13:28.000Z</time>
      </trkpt>
      <trkpt lat="43.82102" lon="6.3991">
        <ele>1274.949829</ele>
        <time>2015-12-28T11:13:33.000Z</time>
      </trkpt>
      <trkpt lat="43.82095" lon="6.39911">
        <ele>1275.618896</ele>
        <time>2015-12-28T11:13:38.000Z</time>
      </trkpt>
      <trkpt lat="43.82088" lon="6.39911">
        <ele>1276.142944</ele>
        <time>2015-12-28T11:13:43.000Z</time>
      </trkpt>
      <trkpt lat="43.82082" lon="6.39909">
        <ele>1276.595337</ele>
        <time>2015-12-28T11:13:48.000Z</time>
      </trkpt>
      <trkpt lat="43.82076" lon="6.39905">
        <ele>1276.948608</ele>
        <time>2015-12-28T11:13:53.000Z</time>
      </trkpt>
      <trkpt lat="43.82071" lon="6.399">
        <ele>1277.70813</ele>
        <time>2015-12-28T11:13:58.000Z</time>
      </trkpt>
      <trkpt lat="43.82066" lon="6.39895">
        <ele>1278.388306</ele>
        <time>2015-12-28T11:14:03.000Z</time>
      </trkpt>
      <trkpt lat="43.82059" lon="6.3989">
        <ele>1278.603638</ele>
        <time>2015-12-28T11:14:08.000Z</time>
      </trkpt>
      <trkpt lat="43.82053" lon="6.39886">
        <ele>1278.835083</ele>
        <time>2015-12-28T11:14:13.000Z</time>
      </trkpt>
      <trkpt lat="43.82048" lon="6.39881">
        <ele>1279.272949</ele>
        <time>2015-12-28T11:14:18.000Z</time>
      </trkpt>
      <trkpt lat="43.82041" lon="6.39877">
        <ele>1279.632568</ele>
        <time>2015-12-28T11:14:23.000Z</time>
      </trkpt>
      <trkpt lat="43.82035" lon="6.39872">
        <ele>1279.565063</ele>
        <time>2015-12-28T11:14:28.000Z</time>
      </trkpt>
      <trkpt lat="43.82029" lon="6.39866">
        <ele>1279.809937</ele>
        <time>2015-12-28T11:14:33.000Z</time>
      </trkpt>
      <trkpt lat="43.82024" lon="6.3986">
        <ele>1280.268066</ele>
        <time>2015-12-28T11:14:38.000Z</time>
      </trkpt>
      <trkpt lat="43.8202" lon="6.39852">
        <ele>1280.900879</ele>
        <time>2015-12-28T11:14:43.000Z</time>
      </trkpt>
      <trkpt lat="43.82015" lon="6.39846">
        <ele>1281.578491</ele>
        <time>2015-12-28T11:14:48.000Z</time>
      </trkpt>
      <trkpt lat="43.8201" lon="6.39841">
        <ele>1282.521973</ele>
        <time>2015-12-28T11:14:53.000Z</time>
      </trkpt>
      <trkpt lat="43.82006" lon="6.39836">
        <ele>1283.473022</ele>
        <time>2015-12-28T11:14:58.000Z</time>
      </trkpt>
      <trkpt lat="43.82002" lon="6.3983">
        <ele>1284.333252</ele>
        <time>2015-12-28T11:15:03.000Z</time>
      </trkpt>
      <trkpt lat="43.81997" lon="6.39823">
        <ele>1285.398804</ele>
        <time>2015-12-28T11:15:08.000Z</time>
      </trkpt>
      <trkpt lat="43.81993" lon="6.39817">
        <ele>1286.716919</ele>
        <time>2015-12-28T11:15:13.000Z</time>
      </trkpt>
      <trkpt lat="43.81989" lon="6.39811">
        <ele>1287.388672</ele>
        <time>2015-12-28T11:15:18.000Z</time>
      </trkpt>
      <trkpt lat="43.81983" lon="6.39806">
        <ele>1287.884399</ele>
        <time>2015-12-28T11:15:23.000Z</time>
      </trkpt>
      <trkpt lat="43.81979" lon="6.39801">
        <ele>1288.074707</ele>
        <time>2015-12-28T11:15:28.000Z</time>
      </trkpt>
      <trkpt lat="43.81975" lon="6.39794">
        <ele>1288.543701</ele>
        <time>2015-12-28T11:15:33.000Z</time>
      </trkpt>
      <trkpt lat="43.81971" lon="6.39787">
        <ele>1288.958496</ele>
        <time>2015-12-28T11:15:38.000Z</time>
      </trkpt>
      <trkpt lat="43.81968" lon="6.39779">
        <ele>1289.218872</ele>
        <time>2015-12-28T11:15:43.000Z</time>
      </trkpt>
      <trkpt lat="43.81966" lon="6.3977">
        <ele>1289.622803</ele>
        <time>2015-12-28T11:15:48.000Z</time>
      </trkpt>
      <trkpt lat="43.81962" lon="6.3976">
        <ele>1289.94397</ele>
        <time>2015-12-28T11:15:53.000Z</time>
      </trkpt>
      <trkpt lat="43.81958" lon="6.39753">
        <ele>1290.700928</ele>
        <time>2015-12-28T11:15:58.000Z</time>
      </trkpt>
      <trkpt lat="43.81954" lon="6.39745">
        <ele>1291.079956</ele>
        <time>2015-12-28T11:16:03.000Z</time>
      </trkpt>
      <trkpt lat="43.81949" lon="6.39738">
        <ele>1291.610229</ele>
        <time>2015-12-28T11:16:08.000Z</time>
      </trkpt>
      <trkpt lat="43.81943" lon="6.39732">
        <ele>1292.19519</ele>
        <time>2015-12-28T11:16:13.000Z</time>
      </trkpt>
      <trkpt lat="43.81937" lon="6.39727">
        <ele>1292.742554</ele>
        <time>2015-12-28T11:16:18.000Z</time>
      </trkpt>
      <trkpt lat="43.8193" lon="6.39724">
        <ele>1293.15918</ele>
        <time>2015-12-28T11:16:23.000Z</time>
      </trkpt>
      <trkpt lat="43.81923" lon="6.39723">
        <ele>1293.731812</ele>
        <time>2015-12-28T11:16:28.000Z</time>
      </trkpt>
      <trkpt lat="43.81916" lon="6.39722">
        <ele>1294.311401</ele>
        <time>2015-12-28T11:16:33.000Z</time>
      </trkpt>
      <trkpt lat="43.81911" lon="6.39716">
        <ele>1295.295166</ele>
        <time>2015-12-28T11:16:38.000Z</time>
      </trkpt>
      <trkpt lat="43.81907" lon="6.39709">
        <ele>1295.925171</ele>
        <time>2015-12-28T11:16:43.000Z</time>
      </trkpt>
      <trkpt lat="43.81904" lon="6.39701">
        <ele>1296.733765</ele>
        <time>2015-12-28T11:16:48.000Z</time>
      </trkpt>
      <trkpt lat="43.819" lon="6.39694">
        <ele>1297.234619</ele>
        <time>2015-12-28T11:16:53.000Z</time>
      </trkpt>
      <trkpt lat="43.81898" lon="6.39686">
        <ele>1297.469849</ele>
        <time>2015-12-28T11:16:58.000Z</time>
      </trkpt>
      <trkpt lat="43.81895" lon="6.39678">
        <ele>1297.883667</ele>
        <time>2015-12-28T11:17:03.000Z</time>
      </trkpt>
      <trkpt lat="43.81895" lon="6.39668">
        <ele>1297.844971</ele>
        <time>2015-12-28T11:17:08.000Z</time>
      </trkpt>
      <trkpt lat="43.81894" lon="6.39658">
        <ele>1298.590942</ele>
        <time>2015-12-28T11:17:13.000Z</time>
      </trkpt>
      <trkpt lat="43.81893" lon="6.39649">
        <ele>1298.590088</ele>
        <time>2015-12-28T11:17:18.000Z</time>
      </trkpt>
      <trkpt lat="43.81891" lon="6.3964">
        <ele>1298.459595</ele>
        <time>2015-12-28T11:17:23.000Z</time>
      </trkpt>
      <trkpt lat="43.8189" lon="6.39634">
        <ele>1298.312988</ele>
        <time>2015-12-28T11:17:28.000Z</time>
      </trkpt>
      <trkpt lat="43.81891" lon="6.39634">
        <ele>1298.368652</ele>
        <time>2015-12-28T11:17:33.000Z</time>
      </trkpt>
      <trkpt lat="43.81891" lon="6.39634">
        <ele>1298.314819</ele>
        <time>2015-12-28T11:17:38.000Z</time>
      </trkpt>
      <trkpt lat="43.81889" lon="6.39629">
        <ele>1299.000488</ele>
        <time>2015-12-28T11:17:43.000Z</time>
      </trkpt>
      <trkpt lat="43.81888" lon="6.39621">
        <ele>1298.618164</ele>
        <time>2015-12-28T11:17:48.000Z</time>
      </trkpt>
      <trkpt lat="43.81888" lon="6.39611">
        <ele>1298.791382</ele>
        <time>2015-12-28T11:17:53.000Z</time>
      </trkpt>
      <trkpt lat="43.81888" lon="6.39603">
        <ele>1299.060669</ele>
        <time>2015-12-28T11:17:58.000Z</time>
      </trkpt>
      <trkpt lat="43.81889" lon="6.39595">
        <ele>1299.120483</ele>
        <time>2015-12-28T11:18:03.000Z</time>
      </trkpt>
      <trkpt lat="43.81889" lon="6.39586">
        <ele>1299.23938</ele>
        <time>2015-12-28T11:18:08.000Z</time>
      </trkpt>
      <trkpt lat="43.81888" lon="6.39584">
        <ele>1298.969238</ele>
        <time>2015-12-28T11:18:13.000Z</time>
      </trkpt>
      <trkpt lat="43.81888" lon="6.39584">
        <ele>1298.984985</ele>
        <time>2015-12-28T11:18:18.000Z</time>
      </trkpt>
      <trkpt lat="43.81888" lon="6.39584">
        <ele>1299.015625</ele>
        <time>2015-12-28T11:18:23.000Z</time>
      </trkpt>
      <trkpt lat="43.81888" lon="6.39584">
        <ele>1299.037354</ele>
        <time>2015-12-28T11:18:28.000Z</time>
      </trkpt>
      <trkpt lat="43.81888" lon="6.39584">
        <ele>1299.034424</ele>
        <time>2015-12-28T11:18:33.000Z</time>
      </trkpt>
      <trkpt lat="43.81888" lon="6.39584">
        <ele>1299.026245</ele>
        <time>2015-12-28T11:18:38.000Z</time>
      </trkpt>
      <trkpt lat="43.81888" lon="6.39584">
        <ele>1299.022583</ele>
        <time>2015-12-28T11:18:43.000Z</time>
      </trkpt>
      <trkpt lat="43.81888" lon="6.39584">
        <ele>1299.016846</ele>
        <time>2015-12-28T11:18:48.000Z</time>
      </trkpt>
      <trkpt lat="43.81888" lon="6.39584">
        <ele>1299.011597</ele>
        <time>2015-12-28T11:18:53.000Z</time>
      </trkpt>
      <trkpt lat="43.81888" lon="6.39584">
        <ele>1299.010254</ele>
        <time>2015-12-28T11:18:58.000Z</time>
      </trkpt>
      <trkpt lat="43.81888" lon="6.39584">
        <ele>1299.011597</ele>
        <time>2015-12-28T11:19:03.000Z</time>
      </trkpt>
      <trkpt lat="43.81888" lon="6.39584">
        <ele>1299.008545</ele>
        <time>2015-12-28T11:19:08.000Z</time>
      </trkpt>
      <trkpt lat="43.81888" lon="6.39584">
        <ele>1299</ele>
        <time>2015-12-28T11:19:13.000Z</time>
      </trkpt>
      <trkpt lat="43.81888" lon="6.39584">
        <ele>1298.994629</ele>
        <time>2015-12-28T11:19:18.000Z</time>
      </trkpt>
      <trkpt lat="43.81889" lon="6.39578">
        <ele>1298.785522</ele>
        <time>2015-12-28T11:19:23.000Z</time>
      </trkpt>
      <trkpt lat="43.81889" lon="6.39577">
        <ele>1297.983887</ele>
        <time>2015-12-28T11:19:28.000Z</time>
      </trkpt>
      <trkpt lat="43.81889" lon="6.39577">
        <ele>1297.938843</ele>
        <time>2015-12-28T11:19:33.000Z</time>
      </trkpt>
      <trkpt lat="43.81889" lon="6.39577">
        <ele>1297.907715</ele>
        <time>2015-12-28T11:19:38.000Z</time>
      </trkpt>
      <trkpt lat="43.81889" lon="6.39578">
        <ele>1297.812866</ele>
        <time>2015-12-28T11:19:43.000Z</time>
      </trkpt>
      <trkpt lat="43.81889" lon="6.39577">
        <ele>1297.626343</ele>
        <time>2015-12-28T11:19:48.000Z</time>
      </trkpt>
      <trkpt lat="43.8189" lon="6.39578">
        <ele>1297.428467</ele>
        <time>2015-12-28T11:19:53.000Z</time>
      </trkpt>
      <trkpt lat="43.81892" lon="6.39578">
        <ele>1297.371582</ele>
        <time>2015-12-28T11:19:58.000Z</time>
      </trkpt>
      <trkpt lat="43.81893" lon="6.39577">
        <ele>1297.196045</ele>
        <time>2015-12-28T11:20:03.000Z</time>
      </trkpt>
      <trkpt lat="43.81893" lon="6.39577">
        <ele>1297.136963</ele>
        <time>2015-12-28T11:20:08.000Z</time>
      </trkpt>
      <trkpt lat="43.81893" lon="6.39577">
        <ele>1297.13562</ele>
        <time>2015-12-28T11:20:13.000Z</time>
      </trkpt>
      <trkpt lat="43.81893" lon="6.39577">
        <ele>1297.129028</ele>
        <time>2015-12-28T11:20:18.000Z</time>
      </trkpt>
      <trkpt lat="43.81893" lon="6.39577">
        <ele>1297.081665</ele>
        <time>2015-12-28T11:20:23.000Z</time>
      </trkpt>
      <trkpt lat="43.81893" lon="6.39577">
        <ele>1296.984985</ele>
        <time>2015-12-28T11:20:28.000Z</time>
      </trkpt>
      <trkpt lat="43.81891" lon="6.39578">
        <ele>1296.959229</ele>
        <time>2015-12-28T11:20:33.000Z</time>
      </trkpt>
      <trkpt lat="43.81891" lon="6.39578">
        <ele>1297.018555</ele>
        <time>2015-12-28T11:20:38.000Z</time>
      </trkpt>
      <trkpt lat="43.8189" lon="6.39578">
        <ele>1297.124878</ele>
        <time>2015-12-28T11:20:43.000Z</time>
      </trkpt>
      <trkpt lat="43.81891" lon="6.39578">
        <ele>1297.16748</ele>
        <time>2015-12-28T11:20:48.000Z</time>
      </trkpt>
      <trkpt lat="43.8189" lon="6.39579">
        <ele>1297.055542</ele>
        <time>2015-12-28T11:20:53.000Z</time>
      </trkpt>
      <trkpt lat="43.81891" lon="6.39579">
        <ele>1297.032837</ele>
        <time>2015-12-28T11:20:58.000Z</time>
      </trkpt>
      <trkpt lat="43.81891" lon="6.39579">
        <ele>1297.025757</ele>
        <time>2015-12-28T11:21:03.000Z</time>
      </trkpt>
      <trkpt lat="43.81891" lon="6.39574">
        <ele>1296.599121</ele>
        <time>2015-12-28T11:21:08.000Z</time>
      </trkpt>
      <trkpt lat="43.81886" lon="6.39565">
        <ele>1295.805298</ele>
        <time>2015-12-28T11:21:13.000Z</time>
      </trkpt>
      <trkpt lat="43.81882" lon="6.39555">
        <ele>1295.60437</ele>
        <time>2015-12-28T11:21:18.000Z</time>
      </trkpt>
      <trkpt lat="43.81881" lon="6.39552">
        <ele>1295.758179</ele>
        <time>2015-12-28T11:21:23.000Z</time>
      </trkpt>
      <trkpt lat="43.8188" lon="6.39545">
        <ele>1295.208252</ele>
        <time>2015-12-28T11:21:28.000Z</time>
      </trkpt>
      <trkpt lat="43.81877" lon="6.39536">
        <ele>1294.273682</ele>
        <time>2015-12-28T11:21:33.000Z</time>
      </trkpt>
      <trkpt lat="43.81877" lon="6.39536">
        <ele>1294.378052</ele>
        <time>2015-12-28T11:21:38.000Z</time>
      </trkpt>
      <trkpt lat="43.81877" lon="6.39536">
        <ele>1294.394409</ele>
        <time>2015-12-28T11:21:43.000Z</time>
      </trkpt>
      <trkpt lat="43.81877" lon="6.39536">
        <ele>1294.376831</ele>
        <time>2015-12-28T11:21:48.000Z</time>
      </trkpt>
      <trkpt lat="43.81877" lon="6.39536">
        <ele>1294.382202</ele>
        <time>2015-12-28T11:21:53.000Z</time>
      </trkpt>
      <trkpt lat="43.81877" lon="6.39536">
        <ele>1294.38147</ele>
        <time>2015-12-28T11:21:58.000Z</time>
      </trkpt>
      <trkpt lat="43.81877" lon="6.39536">
        <ele>1294.37915</ele>
        <time>2015-12-28T11:22:03.000Z</time>
      </trkpt>
      <trkpt lat="43.81877" lon="6.39536">
        <ele>1294.42749</ele>
        <time>2015-12-28T11:22:08.000Z</time>
      </trkpt>
      <trkpt lat="43.81877" lon="6.39536">
        <ele>1294.433228</ele>
        <time>2015-12-28T11:22:13.000Z</time>
      </trkpt>
      <trkpt lat="43.81877" lon="6.39536">
        <ele>1294.46167</ele>
        <time>2015-12-28T11:22:18.000Z</time>
      </trkpt>
      <trkpt lat="43.81877" lon="6.39536">
        <ele>1294.460815</ele>
        <time>2015-12-28T11:22:23.000Z</time>
      </trkpt>
      <trkpt lat="43.81877" lon="6.39536">
        <ele>1294.466797</ele>
        <time>2015-12-28T11:22:28.000Z</time>
      </trkpt>
      <trkpt lat="43.81877" lon="6.39537">
        <ele>1294.473145</ele>
        <time>2015-12-28T11:22:33.000Z</time>
      </trkpt>
      <trkpt lat="43.81877" lon="6.39537">
        <ele>1294.478882</ele>
        <time>2015-12-28T11:22:38.000Z</time>
      </trkpt>
      <trkpt lat="43.81877" lon="6.39537">
        <ele>1294.481567</ele>
        <time>2015-12-28T11:22:43.000Z</time>
      </trkpt>
      <trkpt lat="43.81877" lon="6.39537">
        <ele>1294.485718</ele>
        <time>2015-12-28T11:22:48.000Z</time>
      </trkpt>
      <trkpt lat="43.81877" lon="6.39537">
        <ele>1294.488281</ele>
        <time>2015-12-28T11:22:53.000Z</time>
      </trkpt>
      <trkpt lat="43.81877" lon="6.39537">
        <ele>1294.52002</ele>
        <time>2015-12-28T11:22:58.000Z</time>
      </trkpt>
      <trkpt lat="43.81877" lon="6.39537">
        <ele>1294.529419</ele>
        <time>2015-12-28T11:23:03.000Z</time>
      </trkpt>
      <trkpt lat="43.81877" lon="6.39537">
        <ele>1294.539795</ele>
        <time>2015-12-28T11:23:08.000Z</time>
      </trkpt>
      <trkpt lat="43.81877" lon="6.39537">
        <ele>1294.547729</ele>
        <time>2015-12-28T11:23:13.000Z</time>
      </trkpt>
      <trkpt lat="43.81877" lon="6.39537">
        <ele>1294.548706</ele>
        <time>2015-12-28T11:23:18.000Z</time>
      </trkpt>
      <trkpt lat="43.81877" lon="6.39537">
        <ele>1294.547241</ele>
        <time>2015-12-28T11:23:23.000Z</time>
      </trkpt>
      <trkpt lat="43.81877" lon="6.39537">
        <ele>1294.544312</ele>
        <time>2015-12-28T11:23:28.000Z</time>
      </trkpt>
      <trkpt lat="43.81877" lon="6.39537">
        <ele>1294.558472</ele>
        <time>2015-12-28T11:23:33.000Z</time>
      </trkpt>
      <trkpt lat="43.81871" lon="6.39518">
        <ele>1292.897827</ele>
        <time>2015-12-28T11:23:38.000Z</time>
      </trkpt>
      <trkpt lat="43.81856" lon="6.39479">
        <ele>1290.033813</ele>
        <time>2015-12-28T11:23:43.000Z</time>
      </trkpt>
      <trkpt lat="43.81823" lon="6.39457">
        <ele>1283.940674</ele>
        <time>2015-12-28T11:23:48.000Z</time>
      </trkpt>
      <trkpt lat="43.81796" lon="6.39449">
        <ele>1280.023926</ele>
        <time>2015-12-28T11:23:53.000Z</time>
      </trkpt>
      <trkpt lat="43.8179" lon="6.39407">
        <ele>1277.192139</ele>
        <time>2015-12-28T11:23:58.000Z</time>
      </trkpt>
      <trkpt lat="43.81768" lon="6.39372">
        <ele>1271.983032</ele>
        <time>2015-12-28T11:24:03.000Z</time>
      </trkpt>
      <trkpt lat="43.81726" lon="6.39374">
        <ele>1267.669922</ele>
        <time>2015-12-28T11:24:08.000Z</time>
      </trkpt>
      <trkpt lat="43.81684" lon="6.39388">
        <ele>1264.388672</ele>
        <time>2015-12-28T11:24:13.000Z</time>
      </trkpt>
      <trkpt lat="43.81649" lon="6.39414">
        <ele>1261.805542</ele>
        <time>2015-12-28T11:24:18.000Z</time>
      </trkpt>
      <trkpt lat="43.81614" lon="6.39432">
        <ele>1259.685913</ele>
        <time>2015-12-28T11:24:23.000Z</time>
      </trkpt>
      <trkpt lat="43.81579" lon="6.39417">
        <ele>1257.549316</ele>
        <time>2015-12-28T11:24:28.000Z</time>
      </trkpt>
      <trkpt lat="43.81551" lon="6.39398">
        <ele>1252.586426</ele>
        <time>2015-12-28T11:24:33.000Z</time>
      </trkpt>
      <trkpt lat="43.8152" lon="6.39374">
        <ele>1249.450195</ele>
        <time>2015-12-28T11:24:38.000Z</time>
      </trkpt>
      <trkpt lat="43.81488" lon="6.39362">
        <ele>1246.453735</ele>
        <time>2015-12-28T11:24:43.000Z</time>
      </trkpt>
      <trkpt lat="43.81456" lon="6.39368">
        <ele>1244.864258</ele>
        <time>2015-12-28T11:24:48.000Z</time>
      </trkpt>
      <trkpt lat="43.81422" lon="6.39378">
        <ele>1245.056885</ele>
        <time>2015-12-28T11:24:53.000Z</time>
      </trkpt>
      <trkpt lat="43.81387" lon="6.39388">
        <ele>1244.057007</ele>
        <time>2015-12-28T11:24:58.000Z</time>
      </trkpt>
      <trkpt lat="43.81351" lon="6.39391">
        <ele>1242.584961</ele>
        <time>2015-12-28T11:25:03.000Z</time>
      </trkpt>
      <trkpt lat="43.81318" lon="6.39384">
        <ele>1240.303345</ele>
        <time>2015-12-28T11:25:08.000Z</time>
      </trkpt>
      <trkpt lat="43.8129" lon="6.39374">
        <ele>1238.518066</ele>
        <time>2015-12-28T11:25:13.000Z</time>
      </trkpt>
      <trkpt lat="43.81271" lon="6.39367">
        <ele>1238.454712</ele>
        <time>2015-12-28T11:25:18.000Z</time>
      </trkpt>
      <trkpt lat="43.81263" lon="6.39363">
        <ele>1237.801025</ele>
        <time>2015-12-28T11:25:23.000Z</time>
      </trkpt>
      <trkpt lat="43.81254" lon="6.39356">
        <ele>1238.148071</ele>
        <time>2015-12-28T11:25:28.000Z</time>
      </trkpt>
      <trkpt lat="43.81245" lon="6.39348">
        <ele>1239.508667</ele>
        <time>2015-12-28T11:25:33.000Z</time>
      </trkpt>
      <trkpt lat="43.8124" lon="6.39355">
        <ele>1238.270386</ele>
        <time>2015-12-28T11:25:38.000Z</time>
      </trkpt>
      <trkpt lat="43.81253" lon="6.39364">
        <ele>1240.220337</ele>
        <time>2015-12-28T11:25:43.000Z</time>
      </trkpt>
      <trkpt lat="43.81252" lon="6.39351">
        <ele>1243.433594</ele>
        <time>2015-12-28T11:25:48.000Z</time>
      </trkpt>
      <trkpt lat="43.81237" lon="6.39342">
        <ele>1244.508789</ele>
        <time>2015-12-28T11:25:53.000Z</time>
      </trkpt>
      <trkpt lat="43.81223" lon="6.39332">
        <ele>1246.500122</ele>
        <time>2015-12-28T11:25:58.000Z</time>
      </trkpt>
      <trkpt lat="43.81212" lon="6.39325">
        <ele>1247.601807</ele>
        <time>2015-12-28T11:26:03.000Z</time>
      </trkpt>
      <trkpt lat="43.81211" lon="6.39324">
        <ele>1248.850952</ele>
        <time>2015-12-28T11:26:08.000Z</time>
      </trkpt>
      <trkpt lat="43.81211" lon="6.39324">
        <ele>1248.771729</ele>
        <time>2015-12-28T11:26:13.000Z</time>
      </trkpt>
      <trkpt lat="43.81211" lon="6.39324">
        <ele>1248.717285</ele>
        <time>2015-12-28T11:26:18.000Z</time>
      </trkpt>
      <trkpt lat="43.81211" lon="6.39324">
        <ele>1248.729126</ele>
        <time>2015-12-28T11:26:23.000Z</time>
      </trkpt>
      <trkpt lat="43.81211" lon="6.39324">
        <ele>1248.80603</ele>
        <time>2015-12-28T11:26:28.000Z</time>
      </trkpt>
      <trkpt lat="43.81211" lon="6.39324">
        <ele>1248.840454</ele>
        <time>2015-12-28T11:26:33.000Z</time>
      </trkpt>
      <trkpt lat="43.81211" lon="6.39324">
        <ele>1248.895386</ele>
        <time>2015-12-28T11:26:38.000Z</time>
      </trkpt>
      <trkpt lat="43.81211" lon="6.39324">
        <ele>1249.034668</ele>
        <time>2015-12-28T11:26:43.000Z</time>
      </trkpt>
      <trkpt lat="43.8121" lon="6.39322">
        <ele>1249.362305</ele>
        <time>2015-12-28T11:26:48.000Z</time>
      </trkpt>
      <trkpt lat="43.81195" lon="6.39313">
        <ele>1250.55249</ele>
        <time>2015-12-28T11:26:53.000Z</time>
      </trkpt>
      <trkpt lat="43.81176" lon="6.39301">
        <ele>1251.223145</ele>
        <time>2015-12-28T11:26:58.000Z</time>
      </trkpt>
      <trkpt lat="43.81159" lon="6.39291">
        <ele>1251.803101</ele>
        <time>2015-12-28T11:27:03.000Z</time>
      </trkpt>
      <trkpt lat="43.81145" lon="6.39282">
        <ele>1251.995117</ele>
        <time>2015-12-28T11:27:08.000Z</time>
      </trkpt>
      <trkpt lat="43.81132" lon="6.39273">
        <ele>1252.358276</ele>
        <time>2015-12-28T11:27:13.000Z</time>
      </trkpt>
      <trkpt lat="43.81116" lon="6.39264">
        <ele>1252.583618</ele>
        <time>2015-12-28T11:27:18.000Z</time>
      </trkpt>
      <trkpt lat="43.811" lon="6.39252">
        <ele>1252.502441</ele>
        <time>2015-12-28T11:27:23.000Z</time>
      </trkpt>
      <trkpt lat="43.81082" lon="6.39245">
        <ele>1252.827271</ele>
        <time>2015-12-28T11:27:28.000Z</time>
      </trkpt>
      <trkpt lat="43.81064" lon="6.39242">
        <ele>1253.032227</ele>
        <time>2015-12-28T11:27:33.000Z</time>
      </trkpt>
      <trkpt lat="43.81046" lon="6.39245">
        <ele>1252.704468</ele>
        <time>2015-12-28T11:27:38.000Z</time>
      </trkpt>
      <trkpt lat="43.81028" lon="6.39241">
        <ele>1251.936035</ele>
        <time>2015-12-28T11:27:43.000Z</time>
      </trkpt>
      <trkpt lat="43.81013" lon="6.39228">
        <ele>1252.027588</ele>
        <time>2015-12-28T11:27:48.000Z</time>
      </trkpt>
      <trkpt lat="43.80999" lon="6.39217">
        <ele>1252.05835</ele>
        <time>2015-12-28T11:27:53.000Z</time>
      </trkpt>
      <trkpt lat="43.80984" lon="6.39208">
        <ele>1252.280029</ele>
        <time>2015-12-28T11:27:58.000Z</time>
      </trkpt>
      <trkpt lat="43.80968" lon="6.39203">
        <ele>1252.654663</ele>
        <time>2015-12-28T11:28:03.000Z</time>
      </trkpt>
      <trkpt lat="43.80951" lon="6.39198">
        <ele>1252.40686</ele>
        <time>2015-12-28T11:28:08.000Z</time>
      </trkpt>
      <trkpt lat="43.80936" lon="6.39187">
        <ele>1252.610107</ele>
        <time>2015-12-28T11:28:13.000Z</time>
      </trkpt>
      <trkpt lat="43.80921" lon="6.39174">
        <ele>1252.973633</ele>
        <time>2015-12-28T11:28:18.000Z</time>
      </trkpt>
      <trkpt lat="43.80909" lon="6.39158">
        <ele>1253.124023</ele>
        <time>2015-12-28T11:28:23.000Z</time>
      </trkpt>
      <trkpt lat="43.809" lon="6.39139">
        <ele>1253.835205</ele>
        <time>2015-12-28T11:28:28.000Z</time>
      </trkpt>
      <trkpt lat="43.80893" lon="6.39117">
        <ele>1254.009521</ele>
        <time>2015-12-28T11:28:33.000Z</time>
      </trkpt>
      <trkpt lat="43.80883" lon="6.39099">
        <ele>1254.495483</ele>
        <time>2015-12-28T11:28:38.000Z</time>
      </trkpt>
      <trkpt lat="43.80874" lon="6.3908">
        <ele>1255.610107</ele>
        <time>2015-12-28T11:28:43.000Z</time>
      </trkpt>
      <trkpt lat="43.80868" lon="6.39067">
        <ele>1256.190796</ele>
        <time>2015-12-28T11:28:48.000Z</time>
      </trkpt>
      <trkpt lat="43.80861" lon="6.39058">
        <ele>1256.710449</ele>
        <time>2015-12-28T11:28:53.000Z</time>
      </trkpt>
      <trkpt lat="43.80852" lon="6.39049">
        <ele>1257.168579</ele>
        <time>2015-12-28T11:28:58.000Z</time>
      </trkpt>
      <trkpt lat="43.80842" lon="6.39047">
        <ele>1257.251465</ele>
        <time>2015-12-28T11:29:03.000Z</time>
      </trkpt>
      <trkpt lat="43.80832" lon="6.39046">
        <ele>1258.910767</ele>
        <time>2015-12-28T11:29:08.000Z</time>
      </trkpt>
      <trkpt lat="43.80826" lon="6.39039">
        <ele>1259.444458</ele>
        <time>2015-12-28T11:29:13.000Z</time>
      </trkpt>
      <trkpt lat="43.80829" lon="6.39029">
        <ele>1259.664551</ele>
        <time>2015-12-28T11:29:18.000Z</time>
      </trkpt>
      <trkpt lat="43.8083" lon="6.39028">
        <ele>1259.976685</ele>
        <time>2015-12-28T11:29:23.000Z</time>
      </trkpt>
      <trkpt lat="43.8083" lon="6.39028">
        <ele>1259.942261</ele>
        <time>2015-12-28T11:29:28.000Z</time>
      </trkpt>
      <trkpt lat="43.8083" lon="6.39028">
        <ele>1259.956787</ele>
        <time>2015-12-28T11:29:33.000Z</time>
      </trkpt>
      <trkpt lat="43.8083" lon="6.39024">
        <ele>1260.442139</ele>
        <time>2015-12-28T11:29:38.000Z</time>
      </trkpt>
      <trkpt lat="43.80828" lon="6.39012">
        <ele>1261.379761</ele>
        <time>2015-12-28T11:29:43.000Z</time>
      </trkpt>
      <trkpt lat="43.80828" lon="6.39002">
        <ele>1261.67688</ele>
        <time>2015-12-28T11:29:48.000Z</time>
      </trkpt>
      <trkpt lat="43.80825" lon="6.38993">
        <ele>1262.849854</ele>
        <time>2015-12-28T11:29:53.000Z</time>
      </trkpt>
      <trkpt lat="43.80817" lon="6.38989">
        <ele>1263.707031</ele>
        <time>2015-12-28T11:29:58.000Z</time>
      </trkpt>
      <trkpt lat="43.8081" lon="6.38995">
        <ele>1263.996582</ele>
        <time>2015-12-28T11:30:03.000Z</time>
      </trkpt>
      <trkpt lat="43.80803" lon="6.39006">
        <ele>1263.964722</ele>
        <time>2015-12-28T11:30:08.000Z</time>
      </trkpt>
      <trkpt lat="43.80793" lon="6.39014">
        <ele>1264.026489</ele>
        <time>2015-12-28T11:30:13.000Z</time>
      </trkpt>
      <trkpt lat="43.80781" lon="6.39018">
        <ele>1264.196899</ele>
        <time>2015-12-28T11:30:18.000Z</time>
      </trkpt>
      <trkpt lat="43.80772" lon="6.39027">
        <ele>1263.47168</ele>
        <time>2015-12-28T11:30:23.000Z</time>
      </trkpt>
      <trkpt lat="43.80764" lon="6.39036">
        <ele>1263.328613</ele>
        <time>2015-12-28T11:30:28.000Z</time>
      </trkpt>
      <trkpt lat="43.80757" lon="6.39043">
        <ele>1262.999878</ele>
        <time>2015-12-28T11:30:33.000Z</time>
      </trkpt>
      <trkpt lat="43.80754" lon="6.39039">
        <ele>1262.782349</ele>
        <time>2015-12-28T11:30:38.000Z</time>
      </trkpt>
      <trkpt lat="43.80754" lon="6.39031">
        <ele>1262.74231</ele>
        <time>2015-12-28T11:30:43.000Z</time>
      </trkpt>
      <trkpt lat="43.80754" lon="6.39026">
        <ele>1263.530762</ele>
        <time>2015-12-28T11:30:48.000Z</time>
      </trkpt>
      <trkpt lat="43.80753" lon="6.39026">
        <ele>1263.334351</ele>
        <time>2015-12-28T11:30:53.000Z</time>
      </trkpt>
      <trkpt lat="43.80753" lon="6.39025">
        <ele>1262.59729</ele>
        <time>2015-12-28T11:30:58.000Z</time>
      </trkpt>
      <trkpt lat="43.80753" lon="6.39025">
        <ele>1262.414429</ele>
        <time>2015-12-28T11:31:03.000Z</time>
      </trkpt>
      <trkpt lat="43.80753" lon="6.39025">
        <ele>1262.400391</ele>
        <time>2015-12-28T11:31:08.000Z</time>
      </trkpt>
      <trkpt lat="43.80753" lon="6.39025">
        <ele>1262.393677</ele>
        <time>2015-12-28T11:31:13.000Z</time>
      </trkpt>
      <trkpt lat="43.80753" lon="6.39025">
        <ele>1262.391968</ele>
        <time>2015-12-28T11:31:18.000Z</time>
      </trkpt>
      <trkpt lat="43.80753" lon="6.39025">
        <ele>1262.393555</ele>
        <time>2015-12-28T11:31:23.000Z</time>
      </trkpt>
      <trkpt lat="43.80753" lon="6.39025">
        <ele>1262.380737</ele>
        <time>2015-12-28T11:31:28.000Z</time>
      </trkpt>
      <trkpt lat="43.80753" lon="6.39025">
        <ele>1262.381958</ele>
        <time>2015-12-28T11:31:33.000Z</time>
      </trkpt>
      <trkpt lat="43.80753" lon="6.39025">
        <ele>1262.385986</ele>
        <time>2015-12-28T11:31:38.000Z</time>
      </trkpt>
      <trkpt lat="43.80753" lon="6.39025">
        <ele>1262.380249</ele>
        <time>2015-12-28T11:31:43.000Z</time>
      </trkpt>
      <trkpt lat="43.80753" lon="6.39025">
        <ele>1262.383057</ele>
        <time>2015-12-28T11:31:48.000Z</time>
      </trkpt>
      <trkpt lat="43.80753" lon="6.39025">
        <ele>1262.381714</ele>
        <time>2015-12-28T11:31:53.000Z</time>
      </trkpt>
      <trkpt lat="43.80753" lon="6.39025">
        <ele>1262.382202</ele>
        <time>2015-12-28T11:31:58.000Z</time>
      </trkpt>
      <trkpt lat="43.80753" lon="6.39025">
        <ele>1262.385376</ele>
        <time>2015-12-28T11:32:03.000Z</time>
      </trkpt>
      <trkpt lat="43.80753" lon="6.39025">
        <ele>1262.379761</ele>
        <time>2015-12-28T11:32:08.000Z</time>
      </trkpt>
      <trkpt lat="43.80753" lon="6.39025">
        <ele>1262.372192</ele>
        <time>2015-12-28T11:32:13.000Z</time>
      </trkpt>
      <trkpt lat="43.80753" lon="6.39025">
        <ele>1262.367798</ele>
        <time>2015-12-28T11:32:18.000Z</time>
      </trkpt>
      <trkpt lat="43.80753" lon="6.39025">
        <ele>1262.364868</ele>
        <time>2015-12-28T11:32:23.000Z</time>
      </trkpt>
      <trkpt lat="43.80753" lon="6.39025">
        <ele>1262.356812</ele>
        <time>2015-12-28T11:32:28.000Z</time>
      </trkpt>
      <trkpt lat="43.80753" lon="6.39025">
        <ele>1262.350586</ele>
        <time>2015-12-28T11:32:33.000Z</time>
      </trkpt>
      <trkpt lat="43.80753" lon="6.39025">
        <ele>1262.347168</ele>
        <time>2015-12-28T11:32:38.000Z</time>
      </trkpt>
      <trkpt lat="43.80753" lon="6.39025">
        <ele>1262.344116</ele>
        <time>2015-12-28T11:32:43.000Z</time>
      </trkpt>
      <trkpt lat="43.80753" lon="6.39025">
        <ele>1262.34375</ele>
        <time>2015-12-28T11:32:48.000Z</time>
      </trkpt>
      <trkpt lat="43.80753" lon="6.39025">
        <ele>1262.34436</ele>
        <time>2015-12-28T11:32:53.000Z</time>
      </trkpt>
      <trkpt lat="43.80753" lon="6.39025">
        <ele>1262.342896</ele>
        <time>2015-12-28T11:32:58.000Z</time>
      </trkpt>
      <trkpt lat="43.80753" lon="6.39025">
        <ele>1262.352173</ele>
        <time>2015-12-28T11:33:03.000Z</time>
      </trkpt>
      <trkpt lat="43.80753" lon="6.39025">
        <ele>1262.350464</ele>
        <time>2015-12-28T11:33:08.000Z</time>
      </trkpt>
      <trkpt lat="43.80753" lon="6.39025">
        <ele>1262.355103</ele>
        <time>2015-12-28T11:33:13.000Z</time>
      </trkpt>
      <trkpt lat="43.80753" lon="6.39025">
        <ele>1262.35437</ele>
        <time>2015-12-28T11:33:18.000Z</time>
      </trkpt>
      <trkpt lat="43.80753" lon="6.39025">
        <ele>1262.35498</ele>
        <time>2015-12-28T11:33:23.000Z</time>
      </trkpt>
      <trkpt lat="43.80753" lon="6.39025">
        <ele>1262.361694</ele>
        <time>2015-12-28T11:33:28.000Z</time>
      </trkpt>
      <trkpt lat="43.80753" lon="6.39025">
        <ele>1262.355835</ele>
        <time>2015-12-28T11:33:33.000Z</time>
      </trkpt>
      <trkpt lat="43.80753" lon="6.39025">
        <ele>1262.352051</ele>
        <time>2015-12-28T11:33:38.000Z</time>
      </trkpt>
      <trkpt lat="43.80753" lon="6.39025">
        <ele>1262.35083</ele>
        <time>2015-12-28T11:33:43.000Z</time>
      </trkpt>
      <trkpt lat="43.80753" lon="6.39025">
        <ele>1262.353027</ele>
        <time>2015-12-28T11:33:48.000Z</time>
      </trkpt>
      <trkpt lat="43.80753" lon="6.39025">
        <ele>1262.352417</ele>
        <time>2015-12-28T11:33:53.000Z</time>
      </trkpt>
      <trkpt lat="43.80753" lon="6.39025">
        <ele>1262.350708</ele>
        <time>2015-12-28T11:33:58.000Z</time>
      </trkpt>
      <trkpt lat="43.80753" lon="6.39025">
        <ele>1262.347534</ele>
        <time>2015-12-28T11:34:03.000Z</time>
      </trkpt>
      <trkpt lat="43.80753" lon="6.39025">
        <ele>1262.345459</ele>
        <time>2015-12-28T11:34:08.000Z</time>
      </trkpt>
      <trkpt lat="43.80753" lon="6.39025">
        <ele>1262.34436</ele>
        <time>2015-12-28T11:34:13.000Z</time>
      </trkpt>
      <trkpt lat="43.80753" lon="6.39025">
        <ele>1262.345215</ele>
        <time>2015-12-28T11:34:18.000Z</time>
      </trkpt>
      <trkpt lat="43.80753" lon="6.39025">
        <ele>1262.343994</ele>
        <time>2015-12-28T11:34:23.000Z</time>
      </trkpt>
      <trkpt lat="43.80753" lon="6.39025">
        <ele>1262.335815</ele>
        <time>2015-12-28T11:34:28.000Z</time>
      </trkpt>
      <trkpt lat="43.80753" lon="6.39025">
        <ele>1262.33374</ele>
        <time>2015-12-28T11:34:33.000Z</time>
      </trkpt>
      <trkpt lat="43.80753" lon="6.39025">
        <ele>1262.341675</ele>
        <time>2015-12-28T11:34:38.000Z</time>
      </trkpt>
      <trkpt lat="43.80753" lon="6.39025">
        <ele>1262.33728</ele>
        <time>2015-12-28T11:34:43.000Z</time>
      </trkpt>
      <trkpt lat="43.80753" lon="6.39025">
        <ele>1262.335571</ele>
        <time>2015-12-28T11:34:48.000Z</time>
      </trkpt>
      <trkpt lat="43.80753" lon="6.39025">
        <ele>1262.340088</ele>
        <time>2015-12-28T11:34:53.000Z</time>
      </trkpt>
      <trkpt lat="43.80753" lon="6.39025">
        <ele>1262.34436</ele>
        <time>2015-12-28T11:34:58.000Z</time>
      </trkpt>
      <trkpt lat="43.80753" lon="6.39025">
        <ele>1262.347534</ele>
        <time>2015-12-28T11:35:03.000Z</time>
      </trkpt>
      <trkpt lat="43.80753" lon="6.39025">
        <ele>1262.350098</ele>
        <time>2015-12-28T11:35:08.000Z</time>
      </trkpt>
      <trkpt lat="43.80753" lon="6.39025">
        <ele>1262.342896</ele>
        <time>2015-12-28T11:35:13.000Z</time>
      </trkpt>
      <trkpt lat="43.80753" lon="6.39025">
        <ele>1262.346313</ele>
        <time>2015-12-28T11:35:18.000Z</time>
      </trkpt>
      <trkpt lat="43.80753" lon="6.39025">
        <ele>1262.34668</ele>
        <time>2015-12-28T11:35:23.000Z</time>
      </trkpt>
      <trkpt lat="43.80753" lon="6.39025">
        <ele>1262.34021</ele>
        <time>2015-12-28T11:35:28.000Z</time>
      </trkpt>
      <trkpt lat="43.80753" lon="6.39025">
        <ele>1262.341431</ele>
        <time>2015-12-28T11:35:33.000Z</time>
      </trkpt>
      <trkpt lat="43.80753" lon="6.39025">
        <ele>1262.337646</ele>
        <time>2015-12-28T11:35:38.000Z</time>
      </trkpt>
      <trkpt lat="43.80753" lon="6.39025">
        <ele>1262.336304</ele>
        <time>2015-12-28T11:35:43.000Z</time>
      </trkpt>
      <trkpt lat="43.80753" lon="6.39025">
        <ele>1262.332031</ele>
        <time>2015-12-28T11:35:48.000Z</time>
      </trkpt>
      <trkpt lat="43.80753" lon="6.39025">
        <ele>1262.328003</ele>
        <time>2015-12-28T11:35:53.000Z</time>
      </trkpt>
      <trkpt lat="43.80753" lon="6.39025">
        <ele>1262.314819</ele>
        <time>2015-12-28T11:35:58.000Z</time>
      </trkpt>
      <trkpt lat="43.80753" lon="6.39025">
        <ele>1262.314087</ele>
        <time>2015-12-28T11:36:03.000Z</time>
      </trkpt>
      <trkpt lat="43.80753" lon="6.39025">
        <ele>1262.308105</ele>
        <time>2015-12-28T11:36:08.000Z</time>
      </trkpt>
      <trkpt lat="43.80753" lon="6.39025">
        <ele>1262.306885</ele>
        <time>2015-12-28T11:36:13.000Z</time>
      </trkpt>
      <trkpt lat="43.80753" lon="6.39025">
        <ele>1262.29895</ele>
        <time>2015-12-28T11:36:18.000Z</time>
      </trkpt>
      <trkpt lat="43.80753" lon="6.39025">
        <ele>1262.290649</ele>
        <time>2015-12-28T11:36:23.000Z</time>
      </trkpt>
      <trkpt lat="43.80753" lon="6.39025">
        <ele>1262.27417</ele>
        <time>2015-12-28T11:36:28.000Z</time>
      </trkpt>
      <trkpt lat="43.80753" lon="6.39025">
        <ele>1262.268433</ele>
        <time>2015-12-28T11:36:33.000Z</time>
      </trkpt>
      <trkpt lat="43.80753" lon="6.39025">
        <ele>1262.266602</ele>
        <time>2015-12-28T11:36:38.000Z</time>
      </trkpt>
      <trkpt lat="43.80753" lon="6.39025">
        <ele>1262.260376</ele>
        <time>2015-12-28T11:36:43.000Z</time>
      </trkpt>
      <trkpt lat="43.80753" lon="6.39025">
        <ele>1262.253418</ele>
        <time>2015-12-28T11:36:48.000Z</time>
      </trkpt>
      <trkpt lat="43.80753" lon="6.39025">
        <ele>1262.267822</ele>
        <time>2015-12-28T11:36:53.000Z</time>
      </trkpt>
      <trkpt lat="43.80754" lon="6.39025">
        <ele>1262.270386</ele>
        <time>2015-12-28T11:36:58.000Z</time>
      </trkpt>
      <trkpt lat="43.80754" lon="6.39025">
        <ele>1262.26001</ele>
        <time>2015-12-28T11:37:03.000Z</time>
      </trkpt>
      <trkpt lat="43.80754" lon="6.39025">
        <ele>1262.275635</ele>
        <time>2015-12-28T11:37:08.000Z</time>
      </trkpt>
      <trkpt lat="43.80754" lon="6.39025">
        <ele>1262.266479</ele>
        <time>2015-12-28T11:37:13.000Z</time>
      </trkpt>
      <trkpt lat="43.80754" lon="6.39025">
        <ele>1262.28833</ele>
        <time>2015-12-28T11:37:18.000Z</time>
      </trkpt>
      <trkpt lat="43.80754" lon="6.39025">
        <ele>1262.275635</ele>
        <time>2015-12-28T11:37:23.000Z</time>
      </trkpt>
      <trkpt lat="43.80754" lon="6.39025">
        <ele>1262.271118</ele>
        <time>2015-12-28T11:37:28.000Z</time>
      </trkpt>
      <trkpt lat="43.80754" lon="6.39025">
        <ele>1262.265381</ele>
        <time>2015-12-28T11:37:33.000Z</time>
      </trkpt>
      <trkpt lat="43.80754" lon="6.39025">
        <ele>1262.251465</ele>
        <time>2015-12-28T11:37:38.000Z</time>
      </trkpt>
      <trkpt lat="43.80754" lon="6.39025">
        <ele>1262.272949</ele>
        <time>2015-12-28T11:37:43.000Z</time>
      </trkpt>
      <trkpt lat="43.80754" lon="6.39025">
        <ele>1262.274414</ele>
        <time>2015-12-28T11:37:48.000Z</time>
      </trkpt>
      <trkpt lat="43.80754" lon="6.39025">
        <ele>1262.252808</ele>
        <time>2015-12-28T11:37:53.000Z</time>
      </trkpt>
      <trkpt lat="43.80754" lon="6.39025">
        <ele>1262.251343</ele>
        <time>2015-12-28T11:37:58.000Z</time>
      </trkpt>
      <trkpt lat="43.80754" lon="6.39025">
        <ele>1262.271973</ele>
        <time>2015-12-28T11:38:03.000Z</time>
      </trkpt>
      <trkpt lat="43.80754" lon="6.39025">
        <ele>1262.281128</ele>
        <time>2015-12-28T11:38:08.000Z</time>
      </trkpt>
      <trkpt lat="43.80754" lon="6.39025">
        <ele>1262.270996</ele>
        <time>2015-12-28T11:38:13.000Z</time>
      </trkpt>
      <trkpt lat="43.80754" lon="6.39025">
        <ele>1262.255249</ele>
        <time>2015-12-28T11:38:18.000Z</time>
      </trkpt>
      <trkpt lat="43.80754" lon="6.39025">
        <ele>1262.238892</ele>
        <time>2015-12-28T11:38:23.000Z</time>
      </trkpt>
      <trkpt lat="43.80754" lon="6.39025">
        <ele>1262.224243</ele>
        <time>2015-12-28T11:38:28.000Z</time>
      </trkpt>
      <trkpt lat="43.80754" lon="6.39025">
        <ele>1262.210815</ele>
        <time>2015-12-28T11:38:33.000Z</time>
      </trkpt>
      <trkpt lat="43.80754" lon="6.39025">
        <ele>1262.199707</ele>
        <time>2015-12-28T11:38:38.000Z</time>
      </trkpt>
      <trkpt lat="43.80754" lon="6.39025">
        <ele>1262.188599</ele>
        <time>2015-12-28T11:38:43.000Z</time>
      </trkpt>
      <trkpt lat="43.80754" lon="6.39025">
        <ele>1262.167725</ele>
        <time>2015-12-28T11:38:48.000Z</time>
      </trkpt>
      <trkpt lat="43.80754" lon="6.39024">
        <ele>1262.150146</ele>
        <time>2015-12-28T11:38:53.000Z</time>
      </trkpt>
      <trkpt lat="43.80754" lon="6.39024">
        <ele>1262.14978</ele>
        <time>2015-12-28T11:38:58.000Z</time>
      </trkpt>
      <trkpt lat="43.80754" lon="6.39024">
        <ele>1262.163208</ele>
        <time>2015-12-28T11:39:03.000Z</time>
      </trkpt>
      <trkpt lat="43.80754" lon="6.39024">
        <ele>1262.185669</ele>
        <time>2015-12-28T11:39:08.000Z</time>
      </trkpt>
      <trkpt lat="43.80754" lon="6.39024">
        <ele>1262.208008</ele>
        <time>2015-12-28T11:39:13.000Z</time>
      </trkpt>
      <trkpt lat="43.80754" lon="6.39024">
        <ele>1262.203735</ele>
        <time>2015-12-28T11:39:18.000Z</time>
      </trkpt>
      <trkpt lat="43.80754" lon="6.39024">
        <ele>1262.208374</ele>
        <time>2015-12-28T11:39:23.000Z</time>
      </trkpt>
      <trkpt lat="43.80754" lon="6.39024">
        <ele>1262.223022</ele>
        <time>2015-12-28T11:39:28.000Z</time>
      </trkpt>
      <trkpt lat="43.80754" lon="6.39024">
        <ele>1262.217407</ele>
        <time>2015-12-28T11:39:33.000Z</time>
      </trkpt>
      <trkpt lat="43.80754" lon="6.39024">
        <ele>1262.217896</ele>
        <time>2015-12-28T11:39:38.000Z</time>
      </trkpt>
      <trkpt lat="43.80754" lon="6.39024">
        <ele>1262.237061</ele>
        <time>2015-12-28T11:39:43.000Z</time>
      </trkpt>
      <trkpt lat="43.80754" lon="6.39024">
        <ele>1262.237549</ele>
        <time>2015-12-28T11:39:48.000Z</time>
      </trkpt>
      <trkpt lat="43.80754" lon="6.39024">
        <ele>1262.264282</ele>
        <time>2015-12-28T11:39:53.000Z</time>
      </trkpt>
      <trkpt lat="43.80754" lon="6.39024">
        <ele>1262.262329</ele>
        <time>2015-12-28T11:39:58.000Z</time>
      </trkpt>
      <trkpt lat="43.80754" lon="6.39024">
        <ele>1262.275635</ele>
        <time>2015-12-28T11:40:03.000Z</time>
      </trkpt>
      <trkpt lat="43.80754" lon="6.39024">
        <ele>1262.2771</ele>
        <time>2015-12-28T11:40:08.000Z</time>
      </trkpt>
      <trkpt lat="43.80754" lon="6.39024">
        <ele>1262.289063</ele>
        <time>2015-12-28T11:40:13.000Z</time>
      </trkpt>
      <trkpt lat="43.80754" lon="6.39024">
        <ele>1262.284058</ele>
        <time>2015-12-28T11:40:18.000Z</time>
      </trkpt>
      <trkpt lat="43.80754" lon="6.39024">
        <ele>1262.289063</ele>
        <time>2015-12-28T11:40:23.000Z</time>
      </trkpt>
      <trkpt lat="43.80754" lon="6.39024">
        <ele>1262.295288</ele>
        <time>2015-12-28T11:40:28.000Z</time>
      </trkpt>
      <trkpt lat="43.80754" lon="6.39024">
        <ele>1262.290283</ele>
        <time>2015-12-28T11:40:33.000Z</time>
      </trkpt>
      <trkpt lat="43.80754" lon="6.39024">
        <ele>1262.286987</ele>
        <time>2015-12-28T11:40:38.000Z</time>
      </trkpt>
      <trkpt lat="43.80754" lon="6.39024">
        <ele>1262.291626</ele>
        <time>2015-12-28T11:40:43.000Z</time>
      </trkpt>
      <trkpt lat="43.80754" lon="6.39024">
        <ele>1262.287964</ele>
        <time>2015-12-28T11:40:48.000Z</time>
      </trkpt>
      <trkpt lat="43.80754" lon="6.39024">
        <ele>1262.279541</ele>
        <time>2015-12-28T11:40:53.000Z</time>
      </trkpt>
      <trkpt lat="43.80754" lon="6.39024">
        <ele>1262.281494</ele>
        <time>2015-12-28T11:40:58.000Z</time>
      </trkpt>
      <trkpt lat="43.80754" lon="6.39025">
        <ele>1262.289307</ele>
        <time>2015-12-28T11:41:03.000Z</time>
      </trkpt>
      <trkpt lat="43.80754" lon="6.39025">
        <ele>1262.293091</ele>
        <time>2015-12-28T11:41:08.000Z</time>
      </trkpt>
      <trkpt lat="43.80754" lon="6.39025">
        <ele>1262.302368</ele>
        <time>2015-12-28T11:41:13.000Z</time>
      </trkpt>
      <trkpt lat="43.80754" lon="6.39025">
        <ele>1262.304199</ele>
        <time>2015-12-28T11:41:18.000Z</time>
      </trkpt>
      <trkpt lat="43.80754" lon="6.39025">
        <ele>1262.304565</ele>
        <time>2015-12-28T11:41:23.000Z</time>
      </trkpt>
      <trkpt lat="43.80754" lon="6.39025">
        <ele>1262.311646</ele>
        <time>2015-12-28T11:41:28.000Z</time>
      </trkpt>
      <trkpt lat="43.80754" lon="6.39025">
        <ele>1262.318848</ele>
        <time>2015-12-28T11:41:33.000Z</time>
      </trkpt>
      <trkpt lat="43.80754" lon="6.39025">
        <ele>1262.326538</ele>
        <time>2015-12-28T11:41:38.000Z</time>
      </trkpt>
      <trkpt lat="43.80754" lon="6.39025">
        <ele>1262.327637</ele>
        <time>2015-12-28T11:41:43.000Z</time>
      </trkpt>
      <trkpt lat="43.80754" lon="6.39025">
        <ele>1262.327271</ele>
        <time>2015-12-28T11:41:48.000Z</time>
      </trkpt>
      <trkpt lat="43.80754" lon="6.39025">
        <ele>1262.334717</ele>
        <time>2015-12-28T11:41:53.000Z</time>
      </trkpt>
      <trkpt lat="43.80754" lon="6.39025">
        <ele>1262.337646</ele>
        <time>2015-12-28T11:41:58.000Z</time>
      </trkpt>
      <trkpt lat="43.80754" lon="6.39025">
        <ele>1262.336792</ele>
        <time>2015-12-28T11:42:03.000Z</time>
      </trkpt>
      <trkpt lat="43.80754" lon="6.39025">
        <ele>1262.333008</ele>
        <time>2015-12-28T11:42:08.000Z</time>
      </trkpt>
      <trkpt lat="43.80754" lon="6.39025">
        <ele>1262.331177</ele>
        <time>2015-12-28T11:42:13.000Z</time>
      </trkpt>
      <trkpt lat="43.80754" lon="6.39025">
        <ele>1262.332397</ele>
        <time>2015-12-28T11:42:18.000Z</time>
      </trkpt>
      <trkpt lat="43.80754" lon="6.39024">
        <ele>1262.432373</ele>
        <time>2015-12-28T11:42:23.000Z</time>
      </trkpt>
      <trkpt lat="43.80754" lon="6.39024">
        <ele>1262.430664</ele>
        <time>2015-12-28T11:42:28.000Z</time>
      </trkpt>
      <trkpt lat="43.80754" lon="6.39024">
        <ele>1262.440918</ele>
        <time>2015-12-28T11:42:33.000Z</time>
      </trkpt>
      <trkpt lat="43.80754" lon="6.39024">
        <ele>1262.453247</ele>
        <time>2015-12-28T11:42:38.000Z</time>
      </trkpt>
      <trkpt lat="43.80754" lon="6.39024">
        <ele>1262.461182</ele>
        <time>2015-12-28T11:42:43.000Z</time>
      </trkpt>
      <trkpt lat="43.80754" lon="6.39025">
        <ele>1262.597412</ele>
        <time>2015-12-28T11:42:48.000Z</time>
      </trkpt>
      <trkpt lat="43.80754" lon="6.39024">
        <ele>1262.918945</ele>
        <time>2015-12-28T11:42:53.000Z</time>
      </trkpt>
      <trkpt lat="43.80754" lon="6.39024">
        <ele>1262.921753</ele>
        <time>2015-12-28T11:42:58.000Z</time>
      </trkpt>
      <trkpt lat="43.80754" lon="6.39024">
        <ele>1262.924316</ele>
        <time>2015-12-28T11:43:03.000Z</time>
      </trkpt>
      <trkpt lat="43.80754" lon="6.39024">
        <ele>1262.928101</ele>
        <time>2015-12-28T11:43:08.000Z</time>
      </trkpt>
      <trkpt lat="43.80754" lon="6.39025">
        <ele>1263.053345</ele>
        <time>2015-12-28T11:43:13.000Z</time>
      </trkpt>
      <trkpt lat="43.80754" lon="6.39025">
        <ele>1263.112793</ele>
        <time>2015-12-28T11:43:18.000Z</time>
      </trkpt>
      <trkpt lat="43.80754" lon="6.39025">
        <ele>1263.110352</ele>
        <time>2015-12-28T11:43:23.000Z</time>
      </trkpt>
      <trkpt lat="43.80754" lon="6.39025">
        <ele>1263.106934</ele>
        <time>2015-12-28T11:43:28.000Z</time>
      </trkpt>
      <trkpt lat="43.80754" lon="6.39025">
        <ele>1263.109375</ele>
        <time>2015-12-28T11:43:33.000Z</time>
      </trkpt>
      <trkpt lat="43.80754" lon="6.39025">
        <ele>1263.104248</ele>
        <time>2015-12-28T11:43:38.000Z</time>
      </trkpt>
      <trkpt lat="43.80754" lon="6.39025">
        <ele>1263.105225</ele>
        <time>2015-12-28T11:43:43.000Z</time>
      </trkpt>
      <trkpt lat="43.80754" lon="6.39025">
        <ele>1263.093506</ele>
        <time>2015-12-28T11:43:48.000Z</time>
      </trkpt>
      <trkpt lat="43.80754" lon="6.39025">
        <ele>1263.075195</ele>
        <time>2015-12-28T11:43:53.000Z</time>
      </trkpt>
      <trkpt lat="43.80754" lon="6.39025">
        <ele>1263.069824</ele>
        <time>2015-12-28T11:43:58.000Z</time>
      </trkpt>
      <trkpt lat="43.80754" lon="6.39025">
        <ele>1263.062256</ele>
        <time>2015-12-28T11:44:03.000Z</time>
      </trkpt>
      <trkpt lat="43.80754" lon="6.39025">
        <ele>1263.054932</ele>
        <time>2015-12-28T11:44:08.000Z</time>
      </trkpt>
      <trkpt lat="43.80754" lon="6.39025">
        <ele>1263.046753</ele>
        <time>2015-12-28T11:44:13.000Z</time>
      </trkpt>
      <trkpt lat="43.80754" lon="6.39025">
        <ele>1263.039063</ele>
        <time>2015-12-28T11:44:18.000Z</time>
      </trkpt>
      <trkpt lat="43.80754" lon="6.39025">
        <ele>1263.047119</ele>
        <time>2015-12-28T11:44:23.000Z</time>
      </trkpt>
      <trkpt lat="43.80754" lon="6.39025">
        <ele>1263.047119</ele>
        <time>2015-12-28T11:44:28.000Z</time>
      </trkpt>
      <trkpt lat="43.80754" lon="6.39025">
        <ele>1263.045532</ele>
        <time>2015-12-28T11:44:33.000Z</time>
      </trkpt>
      <trkpt lat="43.80754" lon="6.39025">
        <ele>1263.040771</ele>
        <time>2015-12-28T11:44:38.000Z</time>
      </trkpt>
      <trkpt lat="43.80754" lon="6.39025">
        <ele>1263.039673</ele>
        <time>2015-12-28T11:44:43.000Z</time>
      </trkpt>
      <trkpt lat="43.80754" lon="6.39025">
        <ele>1263.044678</ele>
        <time>2015-12-28T11:44:48.000Z</time>
      </trkpt>
      <trkpt lat="43.80754" lon="6.39025">
        <ele>1263.049805</ele>
        <time>2015-12-28T11:44:53.000Z</time>
      </trkpt>
      <trkpt lat="43.80754" lon="6.39025">
        <ele>1263.045166</ele>
        <time>2015-12-28T11:44:58.000Z</time>
      </trkpt>
      <trkpt lat="43.80754" lon="6.39025">
        <ele>1263.043701</ele>
        <time>2015-12-28T11:45:03.000Z</time>
      </trkpt>
      <trkpt lat="43.80754" lon="6.39025">
        <ele>1263.037598</ele>
        <time>2015-12-28T11:45:08.000Z</time>
      </trkpt>
      <trkpt lat="43.80754" lon="6.39025">
        <ele>1263.035645</ele>
        <time>2015-12-28T11:45:13.000Z</time>
      </trkpt>
      <trkpt lat="43.80754" lon="6.39025">
        <ele>1263.035889</ele>
        <time>2015-12-28T11:45:18.000Z</time>
      </trkpt>
      <trkpt lat="43.80754" lon="6.39025">
        <ele>1263.027832</ele>
        <time>2015-12-28T11:45:23.000Z</time>
      </trkpt>
      <trkpt lat="43.80754" lon="6.39025">
        <ele>1263.019165</ele>
        <time>2015-12-28T11:45:28.000Z</time>
      </trkpt>
      <trkpt lat="43.80754" lon="6.39025">
        <ele>1263.019897</ele>
        <time>2015-12-28T11:45:33.000Z</time>
      </trkpt>
      <trkpt lat="43.80754" lon="6.39025">
        <ele>1263.025391</ele>
        <time>2015-12-28T11:45:38.000Z</time>
      </trkpt>
      <trkpt lat="43.80754" lon="6.39025">
        <ele>1263.033569</ele>
        <time>2015-12-28T11:45:43.000Z</time>
      </trkpt>
      <trkpt lat="43.80754" lon="6.39025">
        <ele>1263.032959</ele>
        <time>2015-12-28T11:45:48.000Z</time>
      </trkpt>
      <trkpt lat="43.80754" lon="6.39025">
        <ele>1263.032593</ele>
        <time>2015-12-28T11:45:53.000Z</time>
      </trkpt>
      <trkpt lat="43.80754" lon="6.39025">
        <ele>1263.039063</ele>
        <time>2015-12-28T11:45:58.000Z</time>
      </trkpt>
      <trkpt lat="43.80754" lon="6.39025">
        <ele>1263.037598</ele>
        <time>2015-12-28T11:46:03.000Z</time>
      </trkpt>
      <trkpt lat="43.80754" lon="6.39025">
        <ele>1263.036499</ele>
        <time>2015-12-28T11:46:08.000Z</time>
      </trkpt>
      <trkpt lat="43.80754" lon="6.39025">
        <ele>1263.040039</ele>
        <time>2015-12-28T11:46:13.000Z</time>
      </trkpt>
      <trkpt lat="43.80754" lon="6.39025">
        <ele>1263.040771</ele>
        <time>2015-12-28T11:46:18.000Z</time>
      </trkpt>
      <trkpt lat="43.80754" lon="6.39025">
        <ele>1263.037109</ele>
        <time>2015-12-28T11:46:23.000Z</time>
      </trkpt>
      <trkpt lat="43.80754" lon="6.39025">
        <ele>1263.036987</ele>
        <time>2015-12-28T11:46:28.000Z</time>
      </trkpt>
      <trkpt lat="43.80754" lon="6.39025">
        <ele>1263.022461</ele>
        <time>2015-12-28T11:46:33.000Z</time>
      </trkpt>
      <trkpt lat="43.80754" lon="6.39025">
        <ele>1263.007813</ele>
        <time>2015-12-28T11:46:38.000Z</time>
      </trkpt>
      <trkpt lat="43.80754" lon="6.39025">
        <ele>1263.014282</ele>
        <time>2015-12-28T11:46:43.000Z</time>
      </trkpt>
      <trkpt lat="43.80754" lon="6.39025">
        <ele>1263.355835</ele>
        <time>2015-12-28T11:46:48.000Z</time>
      </trkpt>
      <trkpt lat="43.80754" lon="6.39025">
        <ele>1264.311401</ele>
        <time>2015-12-28T11:46:53.000Z</time>
      </trkpt>
      <trkpt lat="43.80754" lon="6.39025">
        <ele>1264.659912</ele>
        <time>2015-12-28T11:46:58.000Z</time>
      </trkpt>
      <trkpt lat="43.80754" lon="6.39025">
        <ele>1264.729736</ele>
        <time>2015-12-28T11:47:03.000Z</time>
      </trkpt>
      <trkpt lat="43.80754" lon="6.39026">
        <ele>1264.542725</ele>
        <time>2015-12-28T11:47:08.000Z</time>
      </trkpt>
      <trkpt lat="43.80754" lon="6.39026">
        <ele>1264.135376</ele>
        <time>2015-12-28T11:47:13.000Z</time>
      </trkpt>
      <trkpt lat="43.80754" lon="6.39025">
        <ele>1264.161865</ele>
        <time>2015-12-28T11:47:18.000Z</time>
      </trkpt>
      <trkpt lat="43.80754" lon="6.39025">
        <ele>1264.147949</ele>
        <time>2015-12-28T11:47:23.000Z</time>
      </trkpt>
      <trkpt lat="43.80754" lon="6.39025">
        <ele>1264.116821</ele>
        <time>2015-12-28T11:47:28.000Z</time>
      </trkpt>
      <trkpt lat="43.80755" lon="6.39028">
        <ele>1263.869751</ele>
        <time>2015-12-28T11:47:33.000Z</time>
      </trkpt>
      <trkpt lat="43.80755" lon="6.39029">
        <ele>1263.755249</ele>
        <time>2015-12-28T11:47:38.000Z</time>
      </trkpt>
      <trkpt lat="43.80755" lon="6.39029">
        <ele>1263.705811</ele>
        <time>2015-12-28T11:47:43.000Z</time>
      </trkpt>
      <trkpt lat="43.80755" lon="6.39029">
        <ele>1263.679077</ele>
        <time>2015-12-28T11:47:48.000Z</time>
      </trkpt>
      <trkpt lat="43.80755" lon="6.39029">
        <ele>1263.667236</ele>
        <time>2015-12-28T11:47:53.000Z</time>
      </trkpt>
      <trkpt lat="43.80755" lon="6.39029">
        <ele>1263.647217</ele>
        <time>2015-12-28T11:47:58.000Z</time>
      </trkpt>
      <trkpt lat="43.80755" lon="6.39029">
        <ele>1263.634521</ele>
        <time>2015-12-28T11:48:03.000Z</time>
      </trkpt>
      <trkpt lat="43.80755" lon="6.39029">
        <ele>1263.636597</ele>
        <time>2015-12-28T11:48:08.000Z</time>
      </trkpt>
      <trkpt lat="43.80755" lon="6.39029">
        <ele>1263.596802</ele>
        <time>2015-12-28T11:48:13.000Z</time>
      </trkpt>
      <trkpt lat="43.80757" lon="6.3903">
        <ele>1264.107788</ele>
        <time>2015-12-28T11:48:18.000Z</time>
      </trkpt>
      <trkpt lat="43.80757" lon="6.3903">
        <ele>1264.0802</ele>
        <time>2015-12-28T11:48:23.000Z</time>
      </trkpt>
      <trkpt lat="43.80757" lon="6.3903">
        <ele>1264.087769</ele>
        <time>2015-12-28T11:48:28.000Z</time>
      </trkpt>
      <trkpt lat="43.80757" lon="6.3903">
        <ele>1264.090332</ele>
        <time>2015-12-28T11:48:33.000Z</time>
      </trkpt>
      <trkpt lat="43.80757" lon="6.3903">
        <ele>1264.103149</ele>
        <time>2015-12-28T11:48:38.000Z</time>
      </trkpt>
      <trkpt lat="43.80757" lon="6.39031">
        <ele>1264.125244</ele>
        <time>2015-12-28T11:48:43.000Z</time>
      </trkpt>
      <trkpt lat="43.80757" lon="6.39032">
        <ele>1263.731934</ele>
        <time>2015-12-28T11:48:48.000Z</time>
      </trkpt>
      <trkpt lat="43.80757" lon="6.39033">
        <ele>1263.887451</ele>
        <time>2015-12-28T11:48:53.000Z</time>
      </trkpt>
      <trkpt lat="43.80757" lon="6.39033">
        <ele>1264.088135</ele>
        <time>2015-12-28T11:48:58.000Z</time>
      </trkpt>
      <trkpt lat="43.80757" lon="6.39035">
        <ele>1264.139526</ele>
        <time>2015-12-28T11:49:03.000Z</time>
      </trkpt>
      <trkpt lat="43.80754" lon="6.39044">
        <ele>1263.791382</ele>
        <time>2015-12-28T11:49:08.000Z</time>
      </trkpt>
      <trkpt lat="43.80743" lon="6.39048">
        <ele>1262.946045</ele>
        <time>2015-12-28T11:49:13.000Z</time>
      </trkpt>
      <trkpt lat="43.80728" lon="6.39049">
        <ele>1262.128662</ele>
        <time>2015-12-28T11:49:18.000Z</time>
      </trkpt>
      <trkpt lat="43.80714" lon="6.3905">
        <ele>1261.743408</ele>
        <time>2015-12-28T11:49:23.000Z</time>
      </trkpt>
      <trkpt lat="43.80699" lon="6.3905">
        <ele>1261.327759</ele>
        <time>2015-12-28T11:49:28.000Z</time>
      </trkpt>
      <trkpt lat="43.80683" lon="6.39056">
        <ele>1261.078491</ele>
        <time>2015-12-28T11:49:33.000Z</time>
      </trkpt>
      <trkpt lat="43.80669" lon="6.39065">
        <ele>1261.220337</ele>
        <time>2015-12-28T11:49:38.000Z</time>
      </trkpt>
      <trkpt lat="43.80653" lon="6.39075">
        <ele>1260.91748</ele>
        <time>2015-12-28T11:49:43.000Z</time>
      </trkpt>
      <trkpt lat="43.80637" lon="6.39091">
        <ele>1261.175537</ele>
        <time>2015-12-28T11:49:48.000Z</time>
      </trkpt>
      <trkpt lat="43.80623" lon="6.39105">
        <ele>1261.574829</ele>
        <time>2015-12-28T11:49:53.000Z</time>
      </trkpt>
      <trkpt lat="43.80611" lon="6.39116">
        <ele>1261.570679</ele>
        <time>2015-12-28T11:49:58.000Z</time>
      </trkpt>
      <trkpt lat="43.80596" lon="6.3913">
        <ele>1260.983521</ele>
        <time>2015-12-28T11:50:03.000Z</time>
      </trkpt>
      <trkpt lat="43.8058" lon="6.39152">
        <ele>1259.970581</ele>
        <time>2015-12-28T11:50:08.000Z</time>
      </trkpt>
      <trkpt lat="43.80563" lon="6.39179">
        <ele>1258.369385</ele>
        <time>2015-12-28T11:50:13.000Z</time>
      </trkpt>
      <trkpt lat="43.80542" lon="6.39214">
        <ele>1255.733643</ele>
        <time>2015-12-28T11:50:18.000Z</time>
      </trkpt>
      <trkpt lat="43.80521" lon="6.39254">
        <ele>1253.596313</ele>
        <time>2015-12-28T11:50:23.000Z</time>
      </trkpt>
      <trkpt lat="43.80503" lon="6.39288">
        <ele>1252.166626</ele>
        <time>2015-12-28T11:50:28.000Z</time>
      </trkpt>
      <trkpt lat="43.80491" lon="6.39306">
        <ele>1251.427612</ele>
        <time>2015-12-28T11:50:33.000Z</time>
      </trkpt>
      <trkpt lat="43.8048" lon="6.3933">
        <ele>1249.966919</ele>
        <time>2015-12-28T11:50:38.000Z</time>
      </trkpt>
      <trkpt lat="43.80469" lon="6.39353">
        <ele>1248.830322</ele>
        <time>2015-12-28T11:50:43.000Z</time>
      </trkpt>
      <trkpt lat="43.80459" lon="6.39375">
        <ele>1247.254761</ele>
        <time>2015-12-28T11:50:48.000Z</time>
      </trkpt>
      <trkpt lat="43.8045" lon="6.39401">
        <ele>1244.896729</ele>
        <time>2015-12-28T11:50:53.000Z</time>
      </trkpt>
      <trkpt lat="43.80445" lon="6.3943">
        <ele>1242.648071</ele>
        <time>2015-12-28T11:50:58.000Z</time>
      </trkpt>
      <trkpt lat="43.80445" lon="6.39442">
        <ele>1241.336304</ele>
        <time>2015-12-28T11:51:03.000Z</time>
      </trkpt>
      <trkpt lat="43.80446" lon="6.39446">
        <ele>1241.282715</ele>
        <time>2015-12-28T11:51:08.000Z</time>
      </trkpt>
      <trkpt lat="43.80446" lon="6.39446">
        <ele>1241.261108</ele>
        <time>2015-12-28T11:51:13.000Z</time>
      </trkpt>
      <trkpt lat="43.80446" lon="6.39446">
        <ele>1241.201538</ele>
        <time>2015-12-28T11:51:18.000Z</time>
      </trkpt>
      <trkpt lat="43.80446" lon="6.39446">
        <ele>1241.177856</ele>
        <time>2015-12-28T11:51:23.000Z</time>
      </trkpt>
      <trkpt lat="43.80446" lon="6.39446">
        <ele>1241.19873</ele>
        <time>2015-12-28T11:51:28.000Z</time>
      </trkpt>
      <trkpt lat="43.80446" lon="6.39446">
        <ele>1241.153931</ele>
        <time>2015-12-28T11:51:33.000Z</time>
      </trkpt>
      <trkpt lat="43.80446" lon="6.39446">
        <ele>1241.139893</ele>
        <time>2015-12-28T11:51:38.000Z</time>
      </trkpt>
      <trkpt lat="43.80446" lon="6.39446">
        <ele>1241.132324</ele>
        <time>2015-12-28T11:51:43.000Z</time>
      </trkpt>
      <trkpt lat="43.80446" lon="6.39446">
        <ele>1241.133545</ele>
        <time>2015-12-28T11:51:48.000Z</time>
      </trkpt>
      <trkpt lat="43.80446" lon="6.39446">
        <ele>1241.172974</ele>
        <time>2015-12-28T11:51:53.000Z</time>
      </trkpt>
      <trkpt lat="43.80446" lon="6.39446">
        <ele>1241.185059</ele>
        <time>2015-12-28T11:51:58.000Z</time>
      </trkpt>
      <trkpt lat="43.80446" lon="6.39446">
        <ele>1241.18396</ele>
        <time>2015-12-28T11:52:03.000Z</time>
      </trkpt>
      <trkpt lat="43.80446" lon="6.39449">
        <ele>1241.094482</ele>
        <time>2015-12-28T11:52:08.000Z</time>
      </trkpt>
      <trkpt lat="43.80437" lon="6.39471">
        <ele>1238.070679</ele>
        <time>2015-12-28T11:52:13.000Z</time>
      </trkpt>
      <trkpt lat="43.80436" lon="6.39496">
        <ele>1235.05957</ele>
        <time>2015-12-28T11:52:18.000Z</time>
      </trkpt>
      <trkpt lat="43.80453" lon="6.39512">
        <ele>1231.100952</ele>
        <time>2015-12-28T11:52:23.000Z</time>
      </trkpt>
      <trkpt lat="43.80478" lon="6.39531">
        <ele>1226.734741</ele>
        <time>2015-12-28T11:52:28.000Z</time>
      </trkpt>
      <trkpt lat="43.805" lon="6.39546">
        <ele>1224.092163</ele>
        <time>2015-12-28T11:52:33.000Z</time>
      </trkpt>
      <trkpt lat="43.80513" lon="6.39572">
        <ele>1220.999268</ele>
        <time>2015-12-28T11:52:38.000Z</time>
      </trkpt>
      <trkpt lat="43.80522" lon="6.39589">
        <ele>1218.787109</ele>
        <time>2015-12-28T11:52:43.000Z</time>
      </trkpt>
      <trkpt lat="43.80522" lon="6.39592">
        <ele>1219.031738</ele>
        <time>2015-12-28T11:52:48.000Z</time>
      </trkpt>
      <trkpt lat="43.80522" lon="6.39591">
        <ele>1218.959351</ele>
        <time>2015-12-28T11:52:53.000Z</time>
      </trkpt>
      <trkpt lat="43.80522" lon="6.39591">
        <ele>1218.836304</ele>
        <time>2015-12-28T11:52:58.000Z</time>
      </trkpt>
      <trkpt lat="43.80521" lon="6.39591">
        <ele>1218.843994</ele>
        <time>2015-12-28T11:53:03.000Z</time>
      </trkpt>
      <trkpt lat="43.80511" lon="6.39586">
        <ele>1216.549316</ele>
        <time>2015-12-28T11:53:08.000Z</time>
      </trkpt>
      <trkpt lat="43.80502" lon="6.39592">
        <ele>1214.066772</ele>
        <time>2015-12-28T11:53:13.000Z</time>
      </trkpt>
      <trkpt lat="43.80517" lon="6.39622">
        <ele>1208.300659</ele>
        <time>2015-12-28T11:53:18.000Z</time>
      </trkpt>
      <trkpt lat="43.80537" lon="6.39671">
        <ele>1200.456665</ele>
        <time>2015-12-28T11:53:23.000Z</time>
      </trkpt>
      <trkpt lat="43.80552" lon="6.39728">
        <ele>1194.492188</ele>
        <time>2015-12-28T11:53:28.000Z</time>
      </trkpt>
      <trkpt lat="43.80556" lon="6.39774">
        <ele>1189.414063</ele>
        <time>2015-12-28T11:53:33.000Z</time>
      </trkpt>
      <trkpt lat="43.8055" lon="6.39823">
        <ele>1183.041748</ele>
        <time>2015-12-28T11:53:38.000Z</time>
      </trkpt>
      <trkpt lat="43.80536" lon="6.39876">
        <ele>1175.683716</ele>
        <time>2015-12-28T11:53:43.000Z</time>
      </trkpt>
      <trkpt lat="43.8053" lon="6.39904">
        <ele>1172.511108</ele>
        <time>2015-12-28T11:53:48.000Z</time>
      </trkpt>
      <trkpt lat="43.80521" lon="6.39917">
        <ele>1169.098145</ele>
        <time>2015-12-28T11:53:53.000Z</time>
      </trkpt>
      <trkpt lat="43.80513" lon="6.39933">
        <ele>1164.654663</ele>
        <time>2015-12-28T11:53:58.000Z</time>
      </trkpt>
      <trkpt lat="43.80505" lon="6.39947">
        <ele>1161.388306</ele>
        <time>2015-12-28T11:54:03.000Z</time>
      </trkpt>
      <trkpt lat="43.80493" lon="6.39961">
        <ele>1156.244751</ele>
        <time>2015-12-28T11:54:08.000Z</time>
      </trkpt>
      <trkpt lat="43.8048" lon="6.39973">
        <ele>1151.44812</ele>
        <time>2015-12-28T11:54:13.000Z</time>
      </trkpt>
      <trkpt lat="43.80467" lon="6.39981">
        <ele>1146.95752</ele>
        <time>2015-12-28T11:54:18.000Z</time>
      </trkpt>
      <trkpt lat="43.80454" lon="6.39991">
        <ele>1142.266479</ele>
        <time>2015-12-28T11:54:23.000Z</time>
      </trkpt>
      <trkpt lat="43.80441" lon="6.40001">
        <ele>1138.917114</ele>
        <time>2015-12-28T11:54:28.000Z</time>
      </trkpt>
      <trkpt lat="43.8043" lon="6.4001">
        <ele>1135.06543</ele>
        <time>2015-12-28T11:54:33.000Z</time>
      </trkpt>
      <trkpt lat="43.80419" lon="6.40019">
        <ele>1131.812988</ele>
        <time>2015-12-28T11:54:38.000Z</time>
      </trkpt>
      <trkpt lat="43.80412" lon="6.40025">
        <ele>1129.72998</ele>
        <time>2015-12-28T11:54:43.000Z</time>
      </trkpt>
      <trkpt lat="43.80412" lon="6.40025">
        <ele>1129.849976</ele>
        <time>2015-12-28T11:54:48.000Z</time>
      </trkpt>
      <trkpt lat="43.80403" lon="6.40031">
        <ele>1127.361572</ele>
        <time>2015-12-28T11:54:53.000Z</time>
      </trkpt>
      <trkpt lat="43.80402" lon="6.40033">
        <ele>1126.438599</ele>
        <time>2015-12-28T11:54:58.000Z</time>
      </trkpt>
      <trkpt lat="43.80402" lon="6.40033">
        <ele>1126.354248</ele>
        <time>2015-12-28T11:55:03.000Z</time>
      </trkpt>
      <trkpt lat="43.80402" lon="6.40033">
        <ele>1126.423706</ele>
        <time>2015-12-28T11:55:08.000Z</time>
      </trkpt>
      <trkpt lat="43.80402" lon="6.40033">
        <ele>1126.489136</ele>
        <time>2015-12-28T11:55:13.000Z</time>
      </trkpt>
      <trkpt lat="43.80402" lon="6.40033">
        <ele>1126.514648</ele>
        <time>2015-12-28T11:55:18.000Z</time>
      </trkpt>
      <trkpt lat="43.80402" lon="6.40033">
        <ele>1126.530884</ele>
        <time>2015-12-28T11:55:23.000Z</time>
      </trkpt>
      <trkpt lat="43.80401" lon="6.40033">
        <ele>1126.017212</ele>
        <time>2015-12-28T11:55:28.000Z</time>
      </trkpt>
      <trkpt lat="43.804" lon="6.40033">
        <ele>1124.98999</ele>
        <time>2015-12-28T11:55:33.000Z</time>
      </trkpt>
      <trkpt lat="43.80392" lon="6.40039">
        <ele>1122.794678</ele>
        <time>2015-12-28T11:55:38.000Z</time>
      </trkpt>
      <trkpt lat="43.80381" lon="6.40044">
        <ele>1119.399414</ele>
        <time>2015-12-28T11:55:43.000Z</time>
      </trkpt>
      <trkpt lat="43.80373" lon="6.40048">
        <ele>1116.82312</ele>
        <time>2015-12-28T11:55:48.000Z</time>
      </trkpt>
      <trkpt lat="43.80364" lon="6.40051">
        <ele>1114.062012</ele>
        <time>2015-12-28T11:55:53.000Z</time>
      </trkpt>
      <trkpt lat="43.80362" lon="6.40053">
        <ele>1112.871216</ele>
        <time>2015-12-28T11:55:58.000Z</time>
      </trkpt>
      <trkpt lat="43.80361" lon="6.40055">
        <ele>1112.417603</ele>
        <time>2015-12-28T11:56:03.000Z</time>
      </trkpt>
      <trkpt lat="43.80354" lon="6.40061">
        <ele>1111.237915</ele>
        <time>2015-12-28T11:56:08.000Z</time>
      </trkpt>
      <trkpt lat="43.80352" lon="6.40065">
        <ele>1110.937988</ele>
        <time>2015-12-28T11:56:13.000Z</time>
      </trkpt>
      <trkpt lat="43.80351" lon="6.40065">
        <ele>1110.816406</ele>
        <time>2015-12-28T11:56:18.000Z</time>
      </trkpt>
      <trkpt lat="43.80351" lon="6.40064">
        <ele>1110.81604</ele>
        <time>2015-12-28T11:56:23.000Z</time>
      </trkpt>
      <trkpt lat="43.80351" lon="6.40064">
        <ele>1110.841553</ele>
        <time>2015-12-28T11:56:28.000Z</time>
      </trkpt>
      <trkpt lat="43.80351" lon="6.40064">
        <ele>1110.860596</ele>
        <time>2015-12-28T11:56:33.000Z</time>
      </trkpt>
      <trkpt lat="43.80351" lon="6.40064">
        <ele>1110.896362</ele>
        <time>2015-12-28T11:56:38.000Z</time>
      </trkpt>
      <trkpt lat="43.80351" lon="6.40064">
        <ele>1110.916992</ele>
        <time>2015-12-28T11:56:43.000Z</time>
      </trkpt>
      <trkpt lat="43.80351" lon="6.40064">
        <ele>1110.922607</ele>
        <time>2015-12-28T11:56:48.000Z</time>
      </trkpt>
      <trkpt lat="43.80351" lon="6.40065">
        <ele>1110.926636</ele>
        <time>2015-12-28T11:56:53.000Z</time>
      </trkpt>
      <trkpt lat="43.80351" lon="6.40065">
        <ele>1110.945801</ele>
        <time>2015-12-28T11:56:58.000Z</time>
      </trkpt>
      <trkpt lat="43.80351" lon="6.40065">
        <ele>1110.978271</ele>
        <time>2015-12-28T11:57:03.000Z</time>
      </trkpt>
      <trkpt lat="43.80351" lon="6.40065">
        <ele>1111.002197</ele>
        <time>2015-12-28T11:57:08.000Z</time>
      </trkpt>
      <trkpt lat="43.80351" lon="6.40065">
        <ele>1111.019531</ele>
        <time>2015-12-28T11:57:13.000Z</time>
      </trkpt>
      <trkpt lat="43.80351" lon="6.40065">
        <ele>1111.053955</ele>
        <time>2015-12-28T11:57:18.000Z</time>
      </trkpt>
      <trkpt lat="43.80351" lon="6.40065">
        <ele>1111.075928</ele>
        <time>2015-12-28T11:57:23.000Z</time>
      </trkpt>
      <trkpt lat="43.80351" lon="6.40065">
        <ele>1111.093506</ele>
        <time>2015-12-28T11:57:28.000Z</time>
      </trkpt>
      <trkpt lat="43.80351" lon="6.40065">
        <ele>1111.11792</ele>
        <time>2015-12-28T11:57:33.000Z</time>
      </trkpt>
      <trkpt lat="43.80351" lon="6.40065">
        <ele>1111.145264</ele>
        <time>2015-12-28T11:57:38.000Z</time>
      </trkpt>
      <trkpt lat="43.80351" lon="6.40065">
        <ele>1111.162354</ele>
        <time>2015-12-28T11:57:43.000Z</time>
      </trkpt>
      <trkpt lat="43.80351" lon="6.40065">
        <ele>1111.186768</ele>
        <time>2015-12-28T11:57:48.000Z</time>
      </trkpt>
      <trkpt lat="43.80351" lon="6.40065">
        <ele>1111.225098</ele>
        <time>2015-12-28T11:57:53.000Z</time>
      </trkpt>
      <trkpt lat="43.80351" lon="6.40065">
        <ele>1111.238525</ele>
        <time>2015-12-28T11:57:58.000Z</time>
      </trkpt>
      <trkpt lat="43.8035" lon="6.40065">
        <ele>1111.068848</ele>
        <time>2015-12-28T11:58:03.000Z</time>
      </trkpt>
      <trkpt lat="43.80339" lon="6.40072">
        <ele>1109.521362</ele>
        <time>2015-12-28T11:58:08.000Z</time>
      </trkpt>
      <trkpt lat="43.80324" lon="6.4008">
        <ele>1106.777588</ele>
        <time>2015-12-28T11:58:13.000Z</time>
      </trkpt>
      <trkpt lat="43.80313" lon="6.40088">
        <ele>1105.581909</ele>
        <time>2015-12-28T11:58:18.000Z</time>
      </trkpt>
      <trkpt lat="43.80313" lon="6.40087">
        <ele>1105.089233</ele>
        <time>2015-12-28T11:58:23.000Z</time>
      </trkpt>
      <trkpt lat="43.80314" lon="6.40087">
        <ele>1105.166016</ele>
        <time>2015-12-28T11:58:28.000Z</time>
      </trkpt>
      <trkpt lat="43.80314" lon="6.40088">
        <ele>1105.270996</ele>
        <time>2015-12-28T11:58:33.000Z</time>
      </trkpt>
      <trkpt lat="43.80314" lon="6.40088">
        <ele>1105.237915</ele>
        <time>2015-12-28T11:58:38.000Z</time>
      </trkpt>
      <trkpt lat="43.80314" lon="6.40087">
        <ele>1105.223267</ele>
        <time>2015-12-28T11:58:43.000Z</time>
      </trkpt>
      <trkpt lat="43.80314" lon="6.40087">
        <ele>1105.212402</ele>
        <time>2015-12-28T11:58:48.000Z</time>
      </trkpt>
      <trkpt lat="43.80314" lon="6.40087">
        <ele>1105.262085</ele>
        <time>2015-12-28T11:58:53.000Z</time>
      </trkpt>
      <trkpt lat="43.80314" lon="6.40087">
        <ele>1105.275757</ele>
        <time>2015-12-28T11:58:58.000Z</time>
      </trkpt>
      <trkpt lat="43.80314" lon="6.40087">
        <ele>1105.268311</ele>
        <time>2015-12-28T11:59:03.000Z</time>
      </trkpt>
      <trkpt lat="43.80314" lon="6.40087">
        <ele>1105.27478</ele>
        <time>2015-12-28T11:59:08.000Z</time>
      </trkpt>
      <trkpt lat="43.80313" lon="6.40095">
        <ele>1104.430786</ele>
        <time>2015-12-28T11:59:13.000Z</time>
      </trkpt>
      <trkpt lat="43.80309" lon="6.40119">
        <ele>1100.690063</ele>
        <time>2015-12-28T11:59:18.000Z</time>
      </trkpt>
      <trkpt lat="43.80293" lon="6.40134">
        <ele>1097.661255</ele>
        <time>2015-12-28T11:59:23.000Z</time>
      </trkpt>
      <trkpt lat="43.8028" lon="6.40122">
        <ele>1093.839722</ele>
        <time>2015-12-28T11:59:28.000Z</time>
      </trkpt>
      <trkpt lat="43.80271" lon="6.40097">
        <ele>1090.226929</ele>
        <time>2015-12-28T11:59:33.000Z</time>
      </trkpt>
      <trkpt lat="43.80264" lon="6.40072">
        <ele>1086.906738</ele>
        <time>2015-12-28T11:59:38.000Z</time>
      </trkpt>
      <trkpt lat="43.80256" lon="6.40049">
        <ele>1082.982544</ele>
        <time>2015-12-28T11:59:43.000Z</time>
      </trkpt>
      <trkpt lat="43.80234" lon="6.40063">
        <ele>1079.496826</ele>
        <time>2015-12-28T11:59:48.000Z</time>
      </trkpt>
      <trkpt lat="43.80212" lon="6.40081">
        <ele>1076.265869</ele>
        <time>2015-12-28T11:59:53.000Z</time>
      </trkpt>
      <trkpt lat="43.80194" lon="6.40092">
        <ele>1073.94043</ele>
        <time>2015-12-28T11:59:58.000Z</time>
      </trkpt>
      <trkpt lat="43.80175" lon="6.401">
        <ele>1070.564331</ele>
        <time>2015-12-28T12:00:03.000Z</time>
      </trkpt>
      <trkpt lat="43.80153" lon="6.40109">
        <ele>1066.639893</ele>
        <time>2015-12-28T12:00:08.000Z</time>
      </trkpt>
      <trkpt lat="43.80132" lon="6.40115">
        <ele>1062.916626</ele>
        <time>2015-12-28T12:00:13.000Z</time>
      </trkpt>
      <trkpt lat="43.80119" lon="6.40109">
        <ele>1059.699341</ele>
        <time>2015-12-28T12:00:18.000Z</time>
      </trkpt>
      <trkpt lat="43.80105" lon="6.40119">
        <ele>1056.162598</ele>
        <time>2015-12-28T12:00:23.000Z</time>
      </trkpt>
      <trkpt lat="43.80092" lon="6.40125">
        <ele>1052.798584</ele>
        <time>2015-12-28T12:00:28.000Z</time>
      </trkpt>
      <trkpt lat="43.80083" lon="6.40126">
        <ele>1051.023804</ele>
        <time>2015-12-28T12:00:33.000Z</time>
      </trkpt>
      <trkpt lat="43.80075" lon="6.40133">
        <ele>1049.678345</ele>
        <time>2015-12-28T12:00:38.000Z</time>
      </trkpt>
      <trkpt lat="43.80066" lon="6.40146">
        <ele>1048.937134</ele>
        <time>2015-12-28T12:00:43.000Z</time>
      </trkpt>
      <trkpt lat="43.80059" lon="6.40162">
        <ele>1047.071045</ele>
        <time>2015-12-28T12:00:48.000Z</time>
      </trkpt>
      <trkpt lat="43.80051" lon="6.40173">
        <ele>1045.006714</ele>
        <time>2015-12-28T12:00:53.000Z</time>
      </trkpt>
      <trkpt lat="43.80045" lon="6.40175">
        <ele>1044.525024</ele>
        <time>2015-12-28T12:00:58.000Z</time>
      </trkpt>
      <trkpt lat="43.80027" lon="6.40178">
        <ele>1040.448486</ele>
        <time>2015-12-28T12:01:03.000Z</time>
      </trkpt>
      <trkpt lat="43.80001" lon="6.40191">
        <ele>1034.928955</ele>
        <time>2015-12-28T12:01:08.000Z</time>
      </trkpt>
      <trkpt lat="43.79979" lon="6.40184">
        <ele>1031.630737</ele>
        <time>2015-12-28T12:01:13.000Z</time>
      </trkpt>
      <trkpt lat="43.79964" lon="6.40185">
        <ele>1029.685425</ele>
        <time>2015-12-28T12:01:18.000Z</time>
      </trkpt>
      <trkpt lat="43.79953" lon="6.40187">
        <ele>1027.148315</ele>
        <time>2015-12-28T12:01:23.000Z</time>
      </trkpt>
      <trkpt lat="43.79948" lon="6.40186">
        <ele>1025.948242</ele>
        <time>2015-12-28T12:01:28.000Z</time>
      </trkpt>
      <trkpt lat="43.79945" lon="6.40186">
        <ele>1024.556885</ele>
        <time>2015-12-28T12:01:33.000Z</time>
      </trkpt>
      <trkpt lat="43.79939" lon="6.40187">
        <ele>1022.800903</ele>
        <time>2015-12-28T12:01:38.000Z</time>
      </trkpt>
      <trkpt lat="43.79937" lon="6.40188">
        <ele>1021.052429</ele>
        <time>2015-12-28T12:01:43.000Z</time>
      </trkpt>
      <trkpt lat="43.79937" lon="6.4019">
        <ele>1020.496582</ele>
        <time>2015-12-28T12:01:48.000Z</time>
      </trkpt>
      <trkpt lat="43.79937" lon="6.40194">
        <ele>1020.355103</ele>
        <time>2015-12-28T12:01:53.000Z</time>
      </trkpt>
      <trkpt lat="43.79935" lon="6.40206">
        <ele>1020.116577</ele>
        <time>2015-12-28T12:01:58.000Z</time>
      </trkpt>
      <trkpt lat="43.79927" lon="6.40208">
        <ele>1018.638611</ele>
        <time>2015-12-28T12:02:03.000Z</time>
      </trkpt>
      <trkpt lat="43.79917" lon="6.40211">
        <ele>1017.681274</ele>
        <time>2015-12-28T12:02:08.000Z</time>
      </trkpt>
      <trkpt lat="43.7991" lon="6.40211">
        <ele>1016.851868</ele>
        <time>2015-12-28T12:02:13.000Z</time>
      </trkpt>
      <trkpt lat="43.7991" lon="6.40196">
        <ele>1018.439148</ele>
        <time>2015-12-28T12:02:18.000Z</time>
      </trkpt>
      <trkpt lat="43.79914" lon="6.40176">
        <ele>1020.577087</ele>
        <time>2015-12-28T12:02:23.000Z</time>
      </trkpt>
      <trkpt lat="43.79922" lon="6.40159">
        <ele>1023.382507</ele>
        <time>2015-12-28T12:02:28.000Z</time>
      </trkpt>
      <trkpt lat="43.79927" lon="6.40144">
        <ele>1021.691406</ele>
        <time>2015-12-28T12:02:33.000Z</time>
      </trkpt>
      <trkpt lat="43.79928" lon="6.40142">
        <ele>1019.138794</ele>
        <time>2015-12-28T12:02:38.000Z</time>
      </trkpt>
      <trkpt lat="43.79928" lon="6.40141">
        <ele>1018.901917</ele>
        <time>2015-12-28T12:02:43.000Z</time>
      </trkpt>
      <trkpt lat="43.79928" lon="6.40142">
        <ele>1018.781433</ele>
        <time>2015-12-28T12:02:48.000Z</time>
      </trkpt>
      <trkpt lat="43.79925" lon="6.40135">
        <ele>1018.327515</ele>
        <time>2015-12-28T12:02:53.000Z</time>
      </trkpt>
      <trkpt lat="43.79926" lon="6.40114">
        <ele>1015.147766</ele>
        <time>2015-12-28T12:02:58.000Z</time>
      </trkpt>
      <trkpt lat="43.79926" lon="6.40111">
        <ele>1013.183594</ele>
        <time>2015-12-28T12:03:03.000Z</time>
      </trkpt>
      <trkpt lat="43.79926" lon="6.40111">
        <ele>1011.580994</ele>
        <time>2015-12-28T12:03:08.000Z</time>
      </trkpt>
      <trkpt lat="43.79926" lon="6.40111">
        <ele>1012.707886</ele>
        <time>2015-12-28T12:03:13.000Z</time>
      </trkpt>
      <trkpt lat="43.79926" lon="6.40111">
        <ele>1012.632019</ele>
        <time>2015-12-28T12:03:18.000Z</time>
      </trkpt>
      <trkpt lat="43.79926" lon="6.4011">
        <ele>1012.521667</ele>
        <time>2015-12-28T12:03:23.000Z</time>
      </trkpt>
      <trkpt lat="43.79926" lon="6.4011">
        <ele>1012.477417</ele>
        <time>2015-12-28T12:03:28.000Z</time>
      </trkpt>
      <trkpt lat="43.79926" lon="6.40111">
        <ele>1012.464294</ele>
        <time>2015-12-28T12:03:33.000Z</time>
      </trkpt>
      <trkpt lat="43.79926" lon="6.40111">
        <ele>1012.46051</ele>
        <time>2015-12-28T12:03:38.000Z</time>
      </trkpt>
      <trkpt lat="43.79926" lon="6.40111">
        <ele>1012.441162</ele>
        <time>2015-12-28T12:03:43.000Z</time>
      </trkpt>
      <trkpt lat="43.79926" lon="6.40111">
        <ele>1012.426392</ele>
        <time>2015-12-28T12:03:48.000Z</time>
      </trkpt>
      <trkpt lat="43.79926" lon="6.40111">
        <ele>1012.401367</ele>
        <time>2015-12-28T12:03:53.000Z</time>
      </trkpt>
      <trkpt lat="43.79926" lon="6.40111">
        <ele>1012.380676</ele>
        <time>2015-12-28T12:03:58.000Z</time>
      </trkpt>
      <trkpt lat="43.79926" lon="6.40111">
        <ele>1012.349487</ele>
        <time>2015-12-28T12:04:03.000Z</time>
      </trkpt>
      <trkpt lat="43.79926" lon="6.40111">
        <ele>1012.324219</ele>
        <time>2015-12-28T12:04:08.000Z</time>
      </trkpt>
      <trkpt lat="43.79926" lon="6.40111">
        <ele>1012.302734</ele>
        <time>2015-12-28T12:04:13.000Z</time>
      </trkpt>
      <trkpt lat="43.79926" lon="6.40111">
        <ele>1012.270386</ele>
        <time>2015-12-28T12:04:18.000Z</time>
      </trkpt>
      <trkpt lat="43.79926" lon="6.40111">
        <ele>1012.229309</ele>
        <time>2015-12-28T12:04:23.000Z</time>
      </trkpt>
      <trkpt lat="43.79926" lon="6.40111">
        <ele>1012.226929</ele>
        <time>2015-12-28T12:04:28.000Z</time>
      </trkpt>
      <trkpt lat="43.79926" lon="6.40111">
        <ele>1012.216431</ele>
        <time>2015-12-28T12:04:33.000Z</time>
      </trkpt>
      <trkpt lat="43.79926" lon="6.40111">
        <ele>1012.211853</ele>
        <time>2015-12-28T12:04:38.000Z</time>
      </trkpt>
      <trkpt lat="43.79926" lon="6.40111">
        <ele>1012.18927</ele>
        <time>2015-12-28T12:04:43.000Z</time>
      </trkpt>
      <trkpt lat="43.79926" lon="6.40111">
        <ele>1012.164429</ele>
        <time>2015-12-28T12:04:48.000Z</time>
      </trkpt>
      <trkpt lat="43.79926" lon="6.40111">
        <ele>1012.137451</ele>
        <time>2015-12-28T12:04:53.000Z</time>
      </trkpt>
      <trkpt lat="43.79926" lon="6.40111">
        <ele>1012.122681</ele>
        <time>2015-12-28T12:04:58.000Z</time>
      </trkpt>
      <trkpt lat="43.79926" lon="6.40111">
        <ele>1012.113037</ele>
        <time>2015-12-28T12:05:03.000Z</time>
      </trkpt>
      <trkpt lat="43.79926" lon="6.40111">
        <ele>1012.096436</ele>
        <time>2015-12-28T12:05:08.000Z</time>
      </trkpt>
      <trkpt lat="43.79926" lon="6.40111">
        <ele>1012.081482</ele>
        <time>2015-12-28T12:05:13.000Z</time>
      </trkpt>
      <trkpt lat="43.79926" lon="6.40111">
        <ele>1012.057129</ele>
        <time>2015-12-28T12:05:18.000Z</time>
      </trkpt>
      <trkpt lat="43.79926" lon="6.40111">
        <ele>1012.033936</ele>
        <time>2015-12-28T12:05:23.000Z</time>
      </trkpt>
      <trkpt lat="43.79926" lon="6.40111">
        <ele>1011.986328</ele>
        <time>2015-12-28T12:05:28.000Z</time>
      </trkpt>
      <trkpt lat="43.79926" lon="6.40111">
        <ele>1011.934387</ele>
        <time>2015-12-28T12:05:33.000Z</time>
      </trkpt>
      <trkpt lat="43.79926" lon="6.40111">
        <ele>1011.886108</ele>
        <time>2015-12-28T12:05:38.000Z</time>
      </trkpt>
      <trkpt lat="43.79926" lon="6.40111">
        <ele>1011.849487</ele>
        <time>2015-12-28T12:05:43.000Z</time>
      </trkpt>
      <trkpt lat="43.79926" lon="6.40111">
        <ele>1011.812012</ele>
        <time>2015-12-28T12:05:48.000Z</time>
      </trkpt>
      <trkpt lat="43.79926" lon="6.40111">
        <ele>1011.76709</ele>
        <time>2015-12-28T12:05:53.000Z</time>
      </trkpt>
      <trkpt lat="43.79926" lon="6.40111">
        <ele>1011.729187</ele>
        <time>2015-12-28T12:05:58.000Z</time>
      </trkpt>
      <trkpt lat="43.79926" lon="6.40111">
        <ele>1011.688599</ele>
        <time>2015-12-28T12:06:03.000Z</time>
      </trkpt>
      <trkpt lat="43.79925" lon="6.40112">
        <ele>1011.476746</ele>
        <time>2015-12-28T12:06:08.000Z</time>
      </trkpt>
      <trkpt lat="43.79925" lon="6.40112">
        <ele>1010.456299</ele>
        <time>2015-12-28T12:06:13.000Z</time>
      </trkpt>
      <trkpt lat="43.79925" lon="6.40112">
        <ele>1010.398743</ele>
        <time>2015-12-28T12:06:18.000Z</time>
      </trkpt>
      <trkpt lat="43.79925" lon="6.40112">
        <ele>1010.298096</ele>
        <time>2015-12-28T12:06:23.000Z</time>
      </trkpt>
      <trkpt lat="43.79925" lon="6.40112">
        <ele>1010.252136</ele>
        <time>2015-12-28T12:06:28.000Z</time>
      </trkpt>
      <trkpt lat="43.79925" lon="6.40112">
        <ele>1010.206421</ele>
        <time>2015-12-28T12:06:33.000Z</time>
      </trkpt>
      <trkpt lat="43.79925" lon="6.40112">
        <ele>1010.178223</ele>
        <time>2015-12-28T12:06:38.000Z</time>
      </trkpt>
      <trkpt lat="43.79925" lon="6.40112">
        <ele>1010.183655</ele>
        <time>2015-12-28T12:06:43.000Z</time>
      </trkpt>
      <trkpt lat="43.79925" lon="6.4011">
        <ele>1010.131714</ele>
        <time>2015-12-28T12:06:48.000Z</time>
      </trkpt>
      <trkpt lat="43.79925" lon="6.4011">
        <ele>1010.124878</ele>
        <time>2015-12-28T12:06:53.000Z</time>
      </trkpt>
      <trkpt lat="43.79925" lon="6.4011">
        <ele>1010.5979</ele>
        <time>2015-12-28T12:06:58.000Z</time>
      </trkpt>
      <trkpt lat="43.79925" lon="6.4011">
        <ele>1010.594482</ele>
        <time>2015-12-28T12:07:03.000Z</time>
      </trkpt>
      <trkpt lat="43.79925" lon="6.4011">
        <ele>1010.59845</ele>
        <time>2015-12-28T12:07:08.000Z</time>
      </trkpt>
      <trkpt lat="43.79925" lon="6.4011">
        <ele>1010.602844</ele>
        <time>2015-12-28T12:07:13.000Z</time>
      </trkpt>
      <trkpt lat="43.79925" lon="6.4011">
        <ele>1010.559204</ele>
        <time>2015-12-28T12:07:18.000Z</time>
      </trkpt>
      <trkpt lat="43.79925" lon="6.4011">
        <ele>1010.558533</ele>
        <time>2015-12-28T12:07:23.000Z</time>
      </trkpt>
      <trkpt lat="43.79925" lon="6.40105">
        <ele>1009.202698</ele>
        <time>2015-12-28T12:07:28.000Z</time>
      </trkpt>
      <trkpt lat="43.79926" lon="6.40108">
        <ele>1008.638306</ele>
        <time>2015-12-28T12:07:33.000Z</time>
      </trkpt>
      <trkpt lat="43.79927" lon="6.40108">
        <ele>1008.830872</ele>
        <time>2015-12-28T12:07:38.000Z</time>
      </trkpt>
      <trkpt lat="43.79927" lon="6.40108">
        <ele>1008.69458</ele>
        <time>2015-12-28T12:07:43.000Z</time>
      </trkpt>
      <trkpt lat="43.79927" lon="6.40108">
        <ele>1008.649353</ele>
        <time>2015-12-28T12:07:48.000Z</time>
      </trkpt>
      <trkpt lat="43.79927" lon="6.40109">
        <ele>1008.617249</ele>
        <time>2015-12-28T12:07:53.000Z</time>
      </trkpt>
      <trkpt lat="43.79927" lon="6.4011">
        <ele>1008.527954</ele>
        <time>2015-12-28T12:07:58.000Z</time>
      </trkpt>
      <trkpt lat="43.79927" lon="6.40112">
        <ele>1008.666321</ele>
        <time>2015-12-28T12:08:03.000Z</time>
      </trkpt>
      <trkpt lat="43.79926" lon="6.40112">
        <ele>1008.876526</ele>
        <time>2015-12-28T12:08:08.000Z</time>
      </trkpt>
      <trkpt lat="43.79926" lon="6.40112">
        <ele>1008.917603</ele>
        <time>2015-12-28T12:08:13.000Z</time>
      </trkpt>
      <trkpt lat="43.79923" lon="6.40114">
        <ele>1008.568787</ele>
        <time>2015-12-28T12:08:18.000Z</time>
      </trkpt>
      <trkpt lat="43.79923" lon="6.40117">
        <ele>1008.888855</ele>
        <time>2015-12-28T12:08:23.000Z</time>
      </trkpt>
      <trkpt lat="43.79924" lon="6.40118">
        <ele>1008.773682</ele>
        <time>2015-12-28T12:08:28.000Z</time>
      </trkpt>
      <trkpt lat="43.79924" lon="6.40119">
        <ele>1008.664429</ele>
        <time>2015-12-28T12:08:33.000Z</time>
      </trkpt>
      <trkpt lat="43.79925" lon="6.40127">
        <ele>1009.475952</ele>
        <time>2015-12-28T12:08:38.000Z</time>
      </trkpt>
      <trkpt lat="43.79924" lon="6.40137">
        <ele>1009.171021</ele>
        <time>2015-12-28T12:08:43.000Z</time>
      </trkpt>
      <trkpt lat="43.79925" lon="6.40147">
        <ele>1010.158691</ele>
        <time>2015-12-28T12:08:48.000Z</time>
      </trkpt>
      <trkpt lat="43.79923" lon="6.40157">
        <ele>1011.417419</ele>
        <time>2015-12-28T12:08:53.000Z</time>
      </trkpt>
      <trkpt lat="43.79919" lon="6.40168">
        <ele>1013.268677</ele>
        <time>2015-12-28T12:08:58.000Z</time>
      </trkpt>
      <trkpt lat="43.79917" lon="6.4018">
        <ele>1016.199524</ele>
        <time>2015-12-28T12:09:03.000Z</time>
      </trkpt>
      <trkpt lat="43.79914" lon="6.40194">
        <ele>1019.378296</ele>
        <time>2015-12-28T12:09:08.000Z</time>
      </trkpt>
      <trkpt lat="43.79911" lon="6.40208">
        <ele>1021.951721</ele>
        <time>2015-12-28T12:09:13.000Z</time>
      </trkpt>
      <trkpt lat="43.79904" lon="6.40225">
        <ele>1022.315308</ele>
        <time>2015-12-28T12:09:18.000Z</time>
      </trkpt>
      <trkpt lat="43.79908" lon="6.40241">
        <ele>1021.306458</ele>
        <time>2015-12-28T12:09:23.000Z</time>
      </trkpt>
      <trkpt lat="43.79919" lon="6.40257">
        <ele>1020.632446</ele>
        <time>2015-12-28T12:09:28.000Z</time>
      </trkpt>
      <trkpt lat="43.79927" lon="6.40266">
        <ele>1020.608032</ele>
        <time>2015-12-28T12:09:33.000Z</time>
      </trkpt>
      <trkpt lat="43.79935" lon="6.40269">
        <ele>1020.584595</ele>
        <time>2015-12-28T12:09:38.000Z</time>
      </trkpt>
      <trkpt lat="43.79945" lon="6.4027">
        <ele>1020.223022</ele>
        <time>2015-12-28T12:09:43.000Z</time>
      </trkpt>
      <trkpt lat="43.79956" lon="6.40272">
        <ele>1020.084229</ele>
        <time>2015-12-28T12:09:48.000Z</time>
      </trkpt>
      <trkpt lat="43.79969" lon="6.40279">
        <ele>1019.63623</ele>
        <time>2015-12-28T12:09:53.000Z</time>
      </trkpt>
      <trkpt lat="43.79979" lon="6.40288">
        <ele>1019.996521</ele>
        <time>2015-12-28T12:09:58.000Z</time>
      </trkpt>
      <trkpt lat="43.79986" lon="6.40296">
        <ele>1020.506714</ele>
        <time>2015-12-28T12:10:03.000Z</time>
      </trkpt>
      <trkpt lat="43.7999" lon="6.40305">
        <ele>1021.586182</ele>
        <time>2015-12-28T12:10:08.000Z</time>
      </trkpt>
      <trkpt lat="43.79995" lon="6.40312">
        <ele>1022.711914</ele>
        <time>2015-12-28T12:10:13.000Z</time>
      </trkpt>
      <trkpt lat="43.80002" lon="6.40319">
        <ele>1023.628601</ele>
        <time>2015-12-28T12:10:18.000Z</time>
      </trkpt>
      <trkpt lat="43.80009" lon="6.40322">
        <ele>1024.40918</ele>
        <time>2015-12-28T12:10:23.000Z</time>
      </trkpt>
      <trkpt lat="43.80018" lon="6.40325">
        <ele>1024.647827</ele>
        <time>2015-12-28T12:10:28.000Z</time>
      </trkpt>
      <trkpt lat="43.8003" lon="6.40322">
        <ele>1024.834839</ele>
        <time>2015-12-28T12:10:33.000Z</time>
      </trkpt>
      <trkpt lat="43.80043" lon="6.40314">
        <ele>1024.721924</ele>
        <time>2015-12-28T12:10:38.000Z</time>
      </trkpt>
      <trkpt lat="43.80063" lon="6.40302">
        <ele>1023.213562</ele>
        <time>2015-12-28T12:10:43.000Z</time>
      </trkpt>
      <trkpt lat="43.80086" lon="6.4031">
        <ele>1023.125244</ele>
        <time>2015-12-28T12:10:48.000Z</time>
      </trkpt>
      <trkpt lat="43.801" lon="6.40327">
        <ele>1023.585876</ele>
        <time>2015-12-28T12:10:53.000Z</time>
      </trkpt>
      <trkpt lat="43.8011" lon="6.40338">
        <ele>1023.52356</ele>
        <time>2015-12-28T12:10:58.000Z</time>
      </trkpt>
      <trkpt lat="43.80121" lon="6.4035">
        <ele>1023.117188</ele>
        <time>2015-12-28T12:11:03.000Z</time>
      </trkpt>
      <trkpt lat="43.80132" lon="6.40364">
        <ele>1022.993103</ele>
        <time>2015-12-28T12:11:08.000Z</time>
      </trkpt>
      <trkpt lat="43.80135" lon="6.40386">
        <ele>1023.017212</ele>
        <time>2015-12-28T12:11:13.000Z</time>
      </trkpt>
      <trkpt lat="43.80133" lon="6.40411">
        <ele>1022.985901</ele>
        <time>2015-12-28T12:11:18.000Z</time>
      </trkpt>
      <trkpt lat="43.80127" lon="6.40445">
        <ele>1022.2677</ele>
        <time>2015-12-28T12:11:23.000Z</time>
      </trkpt>
      <trkpt lat="43.80121" lon="6.4048">
        <ele>1022.694702</ele>
        <time>2015-12-28T12:11:28.000Z</time>
      </trkpt>
      <trkpt lat="43.80118" lon="6.40505">
        <ele>1024.02002</ele>
        <time>2015-12-28T12:11:33.000Z</time>
      </trkpt>
      <trkpt lat="43.80115" lon="6.40521">
        <ele>1025.426392</ele>
        <time>2015-12-28T12:11:38.000Z</time>
      </trkpt>
      <trkpt lat="43.8011" lon="6.40537">
        <ele>1026.626831</ele>
        <time>2015-12-28T12:11:43.000Z</time>
      </trkpt>
      <trkpt lat="43.80108" lon="6.40553">
        <ele>1027.273193</ele>
        <time>2015-12-28T12:11:48.000Z</time>
      </trkpt>
      <trkpt lat="43.80103" lon="6.40572">
        <ele>1026.307373</ele>
        <time>2015-12-28T12:11:53.000Z</time>
      </trkpt>
      <trkpt lat="43.80109" lon="6.40594">
        <ele>1025.756836</ele>
        <time>2015-12-28T12:11:58.000Z</time>
      </trkpt>
      <trkpt lat="43.80122" lon="6.40606">
        <ele>1026.080811</ele>
        <time>2015-12-28T12:12:03.000Z</time>
      </trkpt>
      <trkpt lat="43.80136" lon="6.40611">
        <ele>1026.989746</ele>
        <time>2015-12-28T12:12:08.000Z</time>
      </trkpt>
      <trkpt lat="43.80148" lon="6.40614">
        <ele>1027.441284</ele>
        <time>2015-12-28T12:12:13.000Z</time>
      </trkpt>
      <trkpt lat="43.80157" lon="6.40614">
        <ele>1027.211182</ele>
        <time>2015-12-28T12:12:18.000Z</time>
      </trkpt>
      <trkpt lat="43.80167" lon="6.40617">
        <ele>1027.557495</ele>
        <time>2015-12-28T12:12:23.000Z</time>
      </trkpt>
      <trkpt lat="43.80175" lon="6.40625">
        <ele>1027.139771</ele>
        <time>2015-12-28T12:12:28.000Z</time>
      </trkpt>
      <trkpt lat="43.80177" lon="6.40631">
        <ele>1027.104858</ele>
        <time>2015-12-28T12:12:33.000Z</time>
      </trkpt>
      <trkpt lat="43.80177" lon="6.4063">
        <ele>1027.366089</ele>
        <time>2015-12-28T12:12:38.000Z</time>
      </trkpt>
      <trkpt lat="43.80177" lon="6.4064">
        <ele>1026.832764</ele>
        <time>2015-12-28T12:12:43.000Z</time>
      </trkpt>
      <trkpt lat="43.80168" lon="6.40668">
        <ele>1024.931519</ele>
        <time>2015-12-28T12:12:48.000Z</time>
      </trkpt>
      <trkpt lat="43.80171" lon="6.40704">
        <ele>1024.050171</ele>
        <time>2015-12-28T12:12:53.000Z</time>
      </trkpt>
      <trkpt lat="43.80175" lon="6.40744">
        <ele>1023.455811</ele>
        <time>2015-12-28T12:12:58.000Z</time>
      </trkpt>
      <trkpt lat="43.80181" lon="6.40786">
        <ele>1022.474365</ele>
        <time>2015-12-28T12:13:03.000Z</time>
      </trkpt>
      <trkpt lat="43.80181" lon="6.40825">
        <ele>1022.668274</ele>
        <time>2015-12-28T12:13:08.000Z</time>
      </trkpt>
      <trkpt lat="43.80184" lon="6.40867">
        <ele>1020.511108</ele>
        <time>2015-12-28T12:13:13.000Z</time>
      </trkpt>
      <trkpt lat="43.80194" lon="6.40915">
        <ele>1019.032715</ele>
        <time>2015-12-28T12:13:18.000Z</time>
      </trkpt>
      <trkpt lat="43.80208" lon="6.40961">
        <ele>1017.947021</ele>
        <time>2015-12-28T12:13:23.000Z</time>
      </trkpt>
      <trkpt lat="43.80228" lon="6.40991">
        <ele>1019.480164</ele>
        <time>2015-12-28T12:13:28.000Z</time>
      </trkpt>
      <trkpt lat="43.8023" lon="6.41024">
        <ele>1018.396973</ele>
        <time>2015-12-28T12:13:33.000Z</time>
      </trkpt>
      <trkpt lat="43.80242" lon="6.41063">
        <ele>1018.298584</ele>
        <time>2015-12-28T12:13:38.000Z</time>
      </trkpt>
      <trkpt lat="43.8025" lon="6.41092">
        <ele>1019.530518</ele>
        <time>2015-12-28T12:13:43.000Z</time>
      </trkpt>
      <trkpt lat="43.80237" lon="6.41105">
        <ele>1020.513855</ele>
        <time>2015-12-28T12:13:48.000Z</time>
      </trkpt>
      <trkpt lat="43.80228" lon="6.41117">
        <ele>1021.404846</ele>
        <time>2015-12-28T12:13:53.000Z</time>
      </trkpt>
      <trkpt lat="43.80226" lon="6.41129">
        <ele>1022.343994</ele>
        <time>2015-12-28T12:13:58.000Z</time>
      </trkpt>
      <trkpt lat="43.80227" lon="6.41139">
        <ele>1023.03064</ele>
        <time>2015-12-28T12:14:03.000Z</time>
      </trkpt>
      <trkpt lat="43.80228" lon="6.4115">
        <ele>1024.092285</ele>
        <time>2015-12-28T12:14:08.000Z</time>
      </trkpt>
      <trkpt lat="43.8023" lon="6.41158">
        <ele>1025.012573</ele>
        <time>2015-12-28T12:14:13.000Z</time>
      </trkpt>
      <trkpt lat="43.80232" lon="6.41167">
        <ele>1025.949341</ele>
        <time>2015-12-28T12:14:18.000Z</time>
      </trkpt>
      <trkpt lat="43.80231" lon="6.41177">
        <ele>1026.356689</ele>
        <time>2015-12-28T12:14:23.000Z</time>
      </trkpt>
      <trkpt lat="43.80229" lon="6.41187">
        <ele>1027.041504</ele>
        <time>2015-12-28T12:14:28.000Z</time>
      </trkpt>
      <trkpt lat="43.80225" lon="6.41198">
        <ele>1027.833618</ele>
        <time>2015-12-28T12:14:33.000Z</time>
      </trkpt>
      <trkpt lat="43.80221" lon="6.41209">
        <ele>1028.795776</ele>
        <time>2015-12-28T12:14:38.000Z</time>
      </trkpt>
      <trkpt lat="43.80219" lon="6.4122">
        <ele>1029.689941</ele>
        <time>2015-12-28T12:14:43.000Z</time>
      </trkpt>
      <trkpt lat="43.80217" lon="6.41232">
        <ele>1030.560303</ele>
        <time>2015-12-28T12:14:48.000Z</time>
      </trkpt>
      <trkpt lat="43.80216" lon="6.41243">
        <ele>1031.292358</ele>
        <time>2015-12-28T12:14:53.000Z</time>
      </trkpt>
      <trkpt lat="43.80214" lon="6.41254">
        <ele>1032.072388</ele>
        <time>2015-12-28T12:14:58.000Z</time>
      </trkpt>
      <trkpt lat="43.80214" lon="6.41255">
        <ele>1031.833618</ele>
        <time>2015-12-28T12:15:03.000Z</time>
      </trkpt>
      <trkpt lat="43.80212" lon="6.41261">
        <ele>1032.474609</ele>
        <time>2015-12-28T12:15:08.000Z</time>
      </trkpt>
      <trkpt lat="43.80211" lon="6.41271">
        <ele>1033.873413</ele>
        <time>2015-12-28T12:15:13.000Z</time>
      </trkpt>
      <trkpt lat="43.8021" lon="6.41282">
        <ele>1035.099609</ele>
        <time>2015-12-28T12:15:18.000Z</time>
      </trkpt>
      <trkpt lat="43.80208" lon="6.41293">
        <ele>1036.189819</ele>
        <time>2015-12-28T12:15:23.000Z</time>
      </trkpt>
      <trkpt lat="43.80207" lon="6.41303">
        <ele>1037.088135</ele>
        <time>2015-12-28T12:15:28.000Z</time>
      </trkpt>
      <trkpt lat="43.80204" lon="6.41313">
        <ele>1038.0177</ele>
        <time>2015-12-28T12:15:33.000Z</time>
      </trkpt>
      <trkpt lat="43.80201" lon="6.41323">
        <ele>1038.877686</ele>
        <time>2015-12-28T12:15:38.000Z</time>
      </trkpt>
      <trkpt lat="43.802" lon="6.41333">
        <ele>1039.608521</ele>
        <time>2015-12-28T12:15:43.000Z</time>
      </trkpt>
      <trkpt lat="43.80199" lon="6.41344">
        <ele>1040.666748</ele>
        <time>2015-12-28T12:15:48.000Z</time>
      </trkpt>
      <trkpt lat="43.80197" lon="6.41355">
        <ele>1041.555176</ele>
        <time>2015-12-28T12:15:53.000Z</time>
      </trkpt>
      <trkpt lat="43.80196" lon="6.41365">
        <ele>1042.631592</ele>
        <time>2015-12-28T12:15:58.000Z</time>
      </trkpt>
      <trkpt lat="43.80194" lon="6.41375">
        <ele>1043.647583</ele>
        <time>2015-12-28T12:16:03.000Z</time>
      </trkpt>
      <trkpt lat="43.8019" lon="6.41384">
        <ele>1044.766235</ele>
        <time>2015-12-28T12:16:08.000Z</time>
      </trkpt>
      <trkpt lat="43.80183" lon="6.41389">
        <ele>1045.557495</ele>
        <time>2015-12-28T12:16:13.000Z</time>
      </trkpt>
      <trkpt lat="43.80175" lon="6.41391">
        <ele>1046.208008</ele>
        <time>2015-12-28T12:16:18.000Z</time>
      </trkpt>
      <trkpt lat="43.80168" lon="6.41394">
        <ele>1046.723511</ele>
        <time>2015-12-28T12:16:23.000Z</time>
      </trkpt>
      <trkpt lat="43.80161" lon="6.41397">
        <ele>1047.495728</ele>
        <time>2015-12-28T12:16:28.000Z</time>
      </trkpt>
      <trkpt lat="43.80155" lon="6.41402">
        <ele>1048.610107</ele>
        <time>2015-12-28T12:16:33.000Z</time>
      </trkpt>
      <trkpt lat="43.8015" lon="6.41409">
        <ele>1049.731201</ele>
        <time>2015-12-28T12:16:38.000Z</time>
      </trkpt>
      <trkpt lat="43.80148" lon="6.41411">
        <ele>1049.802612</ele>
        <time>2015-12-28T12:16:43.000Z</time>
      </trkpt>
      <trkpt lat="43.80148" lon="6.41411">
        <ele>1049.588501</ele>
        <time>2015-12-28T12:16:48.000Z</time>
      </trkpt>
      <trkpt lat="43.80148" lon="6.41411">
        <ele>1049.531006</ele>
        <time>2015-12-28T12:16:53.000Z</time>
      </trkpt>
      <trkpt lat="43.80148" lon="6.41411">
        <ele>1049.507813</ele>
        <time>2015-12-28T12:16:58.000Z</time>
      </trkpt>
      <trkpt lat="43.80148" lon="6.41411">
        <ele>1049.497314</ele>
        <time>2015-12-28T12:17:03.000Z</time>
      </trkpt>
      <trkpt lat="43.80148" lon="6.41411">
        <ele>1049.495728</ele>
        <time>2015-12-28T12:17:08.000Z</time>
      </trkpt>
      <trkpt lat="43.80148" lon="6.41414">
        <ele>1049.77478</ele>
        <time>2015-12-28T12:17:13.000Z</time>
      </trkpt>
      <trkpt lat="43.80153" lon="6.41407">
        <ele>1048.389526</ele>
        <time>2015-12-28T12:17:18.000Z</time>
      </trkpt>
      <trkpt lat="43.80158" lon="6.41399">
        <ele>1046.715088</ele>
        <time>2015-12-28T12:17:23.000Z</time>
      </trkpt>
      <trkpt lat="43.80165" lon="6.41394">
        <ele>1044.544312</ele>
        <time>2015-12-28T12:17:28.000Z</time>
      </trkpt>
      <trkpt lat="43.80173" lon="6.4139">
        <ele>1043.198975</ele>
        <time>2015-12-28T12:17:33.000Z</time>
      </trkpt>
      <trkpt lat="43.8018" lon="6.41386">
        <ele>1043.193604</ele>
        <time>2015-12-28T12:17:38.000Z</time>
      </trkpt>
      <trkpt lat="43.80191" lon="6.41385">
        <ele>1039.423828</ele>
        <time>2015-12-28T12:17:43.000Z</time>
      </trkpt>
      <trkpt lat="43.80198" lon="6.41379">
        <ele>1036.25769</ele>
        <time>2015-12-28T12:17:48.000Z</time>
      </trkpt>
      <trkpt lat="43.80196" lon="6.41383">
        <ele>1034.100952</ele>
        <time>2015-12-28T12:17:53.000Z</time>
      </trkpt>
      <trkpt lat="43.80188" lon="6.41388">
        <ele>1034.855347</ele>
        <time>2015-12-28T12:17:58.000Z</time>
      </trkpt>
      <trkpt lat="43.80179" lon="6.4139">
        <ele>1035.769043</ele>
        <time>2015-12-28T12:18:03.000Z</time>
      </trkpt>
      <trkpt lat="43.8017" lon="6.41393">
        <ele>1037.567017</ele>
        <time>2015-12-28T12:18:08.000Z</time>
      </trkpt>
      <trkpt lat="43.80163" lon="6.41398">
        <ele>1040.096802</ele>
        <time>2015-12-28T12:18:13.000Z</time>
      </trkpt>
      <trkpt lat="43.80156" lon="6.41404">
        <ele>1041.945679</ele>
        <time>2015-12-28T12:18:18.000Z</time>
      </trkpt>
      <trkpt lat="43.8015" lon="6.41411">
        <ele>1043.86438</ele>
        <time>2015-12-28T12:18:23.000Z</time>
      </trkpt>
      <trkpt lat="43.80147" lon="6.41416">
        <ele>1045.428711</ele>
        <time>2015-12-28T12:18:28.000Z</time>
      </trkpt>
      <trkpt lat="43.80143" lon="6.41424">
        <ele>1047.047974</ele>
        <time>2015-12-28T12:18:33.000Z</time>
      </trkpt>
      <trkpt lat="43.80139" lon="6.41433">
        <ele>1048.64563</ele>
        <time>2015-12-28T12:18:38.000Z</time>
      </trkpt>
      <trkpt lat="43.80136" lon="6.41441">
        <ele>1050.406494</ele>
        <time>2015-12-28T12:18:43.000Z</time>
      </trkpt>
      <trkpt lat="43.80134" lon="6.41449">
        <ele>1051.199341</ele>
        <time>2015-12-28T12:18:48.000Z</time>
      </trkpt>
      <trkpt lat="43.80132" lon="6.41458">
        <ele>1052.363159</ele>
        <time>2015-12-28T12:18:53.000Z</time>
      </trkpt>
      <trkpt lat="43.8013" lon="6.41465">
        <ele>1053.930786</ele>
        <time>2015-12-28T12:18:58.000Z</time>
      </trkpt>
      <trkpt lat="43.80129" lon="6.41474">
        <ele>1054.813354</ele>
        <time>2015-12-28T12:19:03.000Z</time>
      </trkpt>
      <trkpt lat="43.80127" lon="6.41483">
        <ele>1055.4198</ele>
        <time>2015-12-28T12:19:08.000Z</time>
      </trkpt>
      <trkpt lat="43.80127" lon="6.4149">
        <ele>1056.551758</ele>
        <time>2015-12-28T12:19:13.000Z</time>
      </trkpt>
      <trkpt lat="43.80126" lon="6.41497">
        <ele>1057.585327</ele>
        <time>2015-12-28T12:19:18.000Z</time>
      </trkpt>
      <trkpt lat="43.80125" lon="6.41504">
        <ele>1058.247925</ele>
        <time>2015-12-28T12:19:23.000Z</time>
      </trkpt>
      <trkpt lat="43.80124" lon="6.4151">
        <ele>1058.61084</ele>
        <time>2015-12-28T12:19:28.000Z</time>
      </trkpt>
      <trkpt lat="43.80122" lon="6.41513">
        <ele>1059.632568</ele>
        <time>2015-12-28T12:19:33.000Z</time>
      </trkpt>
      <trkpt lat="43.80118" lon="6.41522">
        <ele>1060.464844</ele>
        <time>2015-12-28T12:19:38.000Z</time>
      </trkpt>
      <trkpt lat="43.80112" lon="6.4153">
        <ele>1061.072266</ele>
        <time>2015-12-28T12:19:43.000Z</time>
      </trkpt>
      <trkpt lat="43.80106" lon="6.41537">
        <ele>1061.408447</ele>
        <time>2015-12-28T12:19:48.000Z</time>
      </trkpt>
      <trkpt lat="43.80101" lon="6.41545">
        <ele>1061.855103</ele>
        <time>2015-12-28T12:19:53.000Z</time>
      </trkpt>
      <trkpt lat="43.80097" lon="6.41553">
        <ele>1061.831177</ele>
        <time>2015-12-28T12:19:58.000Z</time>
      </trkpt>
      <trkpt lat="43.80092" lon="6.41561">
        <ele>1061.543823</ele>
        <time>2015-12-28T12:20:03.000Z</time>
      </trkpt>
      <trkpt lat="43.80085" lon="6.41568">
        <ele>1061.520996</ele>
        <time>2015-12-28T12:20:08.000Z</time>
      </trkpt>
      <trkpt lat="43.80077" lon="6.41574">
        <ele>1061.739746</ele>
        <time>2015-12-28T12:20:13.000Z</time>
      </trkpt>
      <trkpt lat="43.80069" lon="6.41578">
        <ele>1061.677612</ele>
        <time>2015-12-28T12:20:18.000Z</time>
      </trkpt>
      <trkpt lat="43.80059" lon="6.4158">
        <ele>1061.760986</ele>
        <time>2015-12-28T12:20:23.000Z</time>
      </trkpt>
      <trkpt lat="43.8005" lon="6.41585">
        <ele>1062.505249</ele>
        <time>2015-12-28T12:20:28.000Z</time>
      </trkpt>
      <trkpt lat="43.8004" lon="6.41589">
        <ele>1062.691162</ele>
        <time>2015-12-28T12:20:33.000Z</time>
      </trkpt>
      <trkpt lat="43.80031" lon="6.41594">
        <ele>1062.722656</ele>
        <time>2015-12-28T12:20:38.000Z</time>
      </trkpt>
      <trkpt lat="43.80022" lon="6.41599">
        <ele>1062.796875</ele>
        <time>2015-12-28T12:20:43.000Z</time>
      </trkpt>
      <trkpt lat="43.80011" lon="6.41608">
        <ele>1063.248535</ele>
        <time>2015-12-28T12:20:48.000Z</time>
      </trkpt>
      <trkpt lat="43.79993" lon="6.41622">
        <ele>1062.804321</ele>
        <time>2015-12-28T12:20:53.000Z</time>
      </trkpt>
      <trkpt lat="43.79978" lon="6.41635">
        <ele>1062.502563</ele>
        <time>2015-12-28T12:20:58.000Z</time>
      </trkpt>
      <trkpt lat="43.79975" lon="6.41638">
        <ele>1061.790283</ele>
        <time>2015-12-28T12:21:03.000Z</time>
      </trkpt>
      <trkpt lat="43.79975" lon="6.41638">
        <ele>1061.684937</ele>
        <time>2015-12-28T12:21:08.000Z</time>
      </trkpt>
      <trkpt lat="43.79976" lon="6.41639">
        <ele>1062.109497</ele>
        <time>2015-12-28T12:21:13.000Z</time>
      </trkpt>
      <trkpt lat="43.79975" lon="6.41638">
        <ele>1061.99585</ele>
        <time>2015-12-28T12:21:18.000Z</time>
      </trkpt>
      <trkpt lat="43.79976" lon="6.41638">
        <ele>1061.992188</ele>
        <time>2015-12-28T12:21:23.000Z</time>
      </trkpt>
      <trkpt lat="43.79976" lon="6.41638">
        <ele>1062.321533</ele>
        <time>2015-12-28T12:21:28.000Z</time>
      </trkpt>
      <trkpt lat="43.79977" lon="6.41638">
        <ele>1062.820923</ele>
        <time>2015-12-28T12:21:33.000Z</time>
      </trkpt>
      <trkpt lat="43.79977" lon="6.41638">
        <ele>1062.877808</ele>
        <time>2015-12-28T12:21:38.000Z</time>
      </trkpt>
      <trkpt lat="43.79978" lon="6.41638">
        <ele>1062.901367</ele>
        <time>2015-12-28T12:21:43.000Z</time>
      </trkpt>
      <trkpt lat="43.79978" lon="6.41638">
        <ele>1062.997681</ele>
        <time>2015-12-28T12:21:48.000Z</time>
      </trkpt>
      <trkpt lat="43.79978" lon="6.41638">
        <ele>1063.073608</ele>
        <time>2015-12-28T12:21:53.000Z</time>
      </trkpt>
      <trkpt lat="43.79976" lon="6.41638">
        <ele>1062.893555</ele>
        <time>2015-12-28T12:21:58.000Z</time>
      </trkpt>
      <trkpt lat="43.79959" lon="6.41651">
        <ele>1060.224365</ele>
        <time>2015-12-28T12:22:03.000Z</time>
      </trkpt>
      <trkpt lat="43.79934" lon="6.41674">
        <ele>1055.376953</ele>
        <time>2015-12-28T12:22:08.000Z</time>
      </trkpt>
      <trkpt lat="43.7992" lon="6.41686">
        <ele>1053.073608</ele>
        <time>2015-12-28T12:22:13.000Z</time>
      </trkpt>
      <trkpt lat="43.79916" lon="6.41692">
        <ele>1051.791992</ele>
        <time>2015-12-28T12:22:18.000Z</time>
      </trkpt>
      <trkpt lat="43.79916" lon="6.41702">
        <ele>1049.254395</ele>
        <time>2015-12-28T12:22:23.000Z</time>
      </trkpt>
      <trkpt lat="43.79911" lon="6.41713">
        <ele>1046.806274</ele>
        <time>2015-12-28T12:22:28.000Z</time>
      </trkpt>
      <trkpt lat="43.79904" lon="6.41727">
        <ele>1043.609863</ele>
        <time>2015-12-28T12:22:33.000Z</time>
      </trkpt>
      <trkpt lat="43.79899" lon="6.41736">
        <ele>1040.934448</ele>
        <time>2015-12-28T12:22:38.000Z</time>
      </trkpt>
      <trkpt lat="43.799" lon="6.41736">
        <ele>1040.852539</ele>
        <time>2015-12-28T12:22:43.000Z</time>
      </trkpt>
      <trkpt lat="43.799" lon="6.41736">
        <ele>1040.840088</ele>
        <time>2015-12-28T12:22:48.000Z</time>
      </trkpt>
      <trkpt lat="43.799" lon="6.41736">
        <ele>1040.814209</ele>
        <time>2015-12-28T12:22:53.000Z</time>
      </trkpt>
      <trkpt lat="43.799" lon="6.41736">
        <ele>1040.829102</ele>
        <time>2015-12-28T12:22:58.000Z</time>
      </trkpt>
      <trkpt lat="43.799" lon="6.41736">
        <ele>1040.816528</ele>
        <time>2015-12-28T12:23:03.000Z</time>
      </trkpt>
      <trkpt lat="43.799" lon="6.41736">
        <ele>1040.823242</ele>
        <time>2015-12-28T12:23:08.000Z</time>
      </trkpt>
      <trkpt lat="43.799" lon="6.41736">
        <ele>1040.824219</ele>
        <time>2015-12-28T12:23:13.000Z</time>
      </trkpt>
      <trkpt lat="43.799" lon="6.41737">
        <ele>1040.699219</ele>
        <time>2015-12-28T12:23:18.000Z</time>
      </trkpt>
      <trkpt lat="43.79901" lon="6.41737">
        <ele>1040.32312</ele>
        <time>2015-12-28T12:23:23.000Z</time>
      </trkpt>
      <trkpt lat="43.79889" lon="6.41746">
        <ele>1038.100098</ele>
        <time>2015-12-28T12:23:28.000Z</time>
      </trkpt>
      <trkpt lat="43.79856" lon="6.41765">
        <ele>1033.034546</ele>
        <time>2015-12-28T12:23:33.000Z</time>
      </trkpt>
      <trkpt lat="43.79825" lon="6.41782">
        <ele>1027.947388</ele>
        <time>2015-12-28T12:23:38.000Z</time>
      </trkpt>
      <trkpt lat="43.79804" lon="6.41795">
        <ele>1023.961304</ele>
        <time>2015-12-28T12:23:43.000Z</time>
      </trkpt>
      <trkpt lat="43.79797" lon="6.41801">
        <ele>1022.000366</ele>
        <time>2015-12-28T12:23:48.000Z</time>
      </trkpt>
      <trkpt lat="43.7979" lon="6.41809">
        <ele>1019.826172</ele>
        <time>2015-12-28T12:23:53.000Z</time>
      </trkpt>
      <trkpt lat="43.79781" lon="6.4182">
        <ele>1016.874695</ele>
        <time>2015-12-28T12:23:58.000Z</time>
      </trkpt>
      <trkpt lat="43.79788" lon="6.4183">
        <ele>1014.985535</ele>
        <time>2015-12-28T12:24:03.000Z</time>
      </trkpt>
      <trkpt lat="43.79779" lon="6.41843">
        <ele>1011.113953</ele>
        <time>2015-12-28T12:24:08.000Z</time>
      </trkpt>
      <trkpt lat="43.79762" lon="6.41862">
        <ele>1006.338501</ele>
        <time>2015-12-28T12:24:13.000Z</time>
      </trkpt>
      <trkpt lat="43.79746" lon="6.41888">
        <ele>1001.07782</ele>
        <time>2015-12-28T12:24:18.000Z</time>
      </trkpt>
      <trkpt lat="43.79731" lon="6.41912">
        <ele>995.935913</ele>
        <time>2015-12-28T12:24:23.000Z</time>
      </trkpt>
      <trkpt lat="43.79708" lon="6.41931">
        <ele>991.961487</ele>
        <time>2015-12-28T12:24:28.000Z</time>
      </trkpt>
      <trkpt lat="43.79706" lon="6.41942">
        <ele>990.336914</ele>
        <time>2015-12-28T12:24:33.000Z</time>
      </trkpt>
      <trkpt lat="43.79726" lon="6.41948">
        <ele>988.647339</ele>
        <time>2015-12-28T12:24:38.000Z</time>
      </trkpt>
      <trkpt lat="43.79751" lon="6.41956">
        <ele>987.232971</ele>
        <time>2015-12-28T12:24:43.000Z</time>
      </trkpt>
      <trkpt lat="43.79778" lon="6.41965">
        <ele>985.025208</ele>
        <time>2015-12-28T12:24:48.000Z</time>
      </trkpt>
      <trkpt lat="43.79801" lon="6.41972">
        <ele>982.028137</ele>
        <time>2015-12-28T12:24:53.000Z</time>
      </trkpt>
      <trkpt lat="43.79807" lon="6.41989">
        <ele>977.269653</ele>
        <time>2015-12-28T12:24:58.000Z</time>
      </trkpt>
      <trkpt lat="43.79794" lon="6.42011">
        <ele>972.444458</ele>
        <time>2015-12-28T12:25:03.000Z</time>
      </trkpt>
      <trkpt lat="43.79772" lon="6.42032">
        <ele>968.159851</ele>
        <time>2015-12-28T12:25:08.000Z</time>
      </trkpt>
      <trkpt lat="43.79747" lon="6.42052">
        <ele>964.693848</ele>
        <time>2015-12-28T12:25:13.000Z</time>
      </trkpt>
      <trkpt lat="43.79725" lon="6.42073">
        <ele>960.838867</ele>
        <time>2015-12-28T12:25:18.000Z</time>
      </trkpt>
      <trkpt lat="43.79703" lon="6.42092">
        <ele>956.837097</ele>
        <time>2015-12-28T12:25:23.000Z</time>
      </trkpt>
      <trkpt lat="43.79681" lon="6.42111">
        <ele>953.254517</ele>
        <time>2015-12-28T12:25:28.000Z</time>
      </trkpt>
      <trkpt lat="43.79664" lon="6.42126">
        <ele>949.40564</ele>
        <time>2015-12-28T12:25:33.000Z</time>
      </trkpt>
      <trkpt lat="43.79651" lon="6.42141">
        <ele>945.521667</ele>
        <time>2015-12-28T12:25:38.000Z</time>
      </trkpt>
      <trkpt lat="43.79636" lon="6.42156">
        <ele>942.711975</ele>
        <time>2015-12-28T12:25:43.000Z</time>
      </trkpt>
      <trkpt lat="43.79617" lon="6.42173">
        <ele>939.380066</ele>
        <time>2015-12-28T12:25:48.000Z</time>
      </trkpt>
      <trkpt lat="43.79604" lon="6.42186">
        <ele>936.415833</ele>
        <time>2015-12-28T12:25:53.000Z</time>
      </trkpt>
      <trkpt lat="43.79585" lon="6.42203">
        <ele>933.757385</ele>
        <time>2015-12-28T12:25:58.000Z</time>
      </trkpt>
      <trkpt lat="43.79562" lon="6.42215">
        <ele>930.917664</ele>
        <time>2015-12-28T12:26:03.000Z</time>
      </trkpt>
      <trkpt lat="43.7954" lon="6.42234">
        <ele>928.004822</ele>
        <time>2015-12-28T12:26:08.000Z</time>
      </trkpt>
      <trkpt lat="43.79513" lon="6.42253">
        <ele>925.218994</ele>
        <time>2015-12-28T12:26:13.000Z</time>
      </trkpt>
      <trkpt lat="43.79495" lon="6.4227">
        <ele>919.122681</ele>
        <time>2015-12-28T12:26:18.000Z</time>
      </trkpt>
      <trkpt lat="43.79501" lon="6.42277">
        <ele>917.780457</ele>
        <time>2015-12-28T12:26:23.000Z</time>
      </trkpt>
      <trkpt lat="43.79524" lon="6.42283">
        <ele>916.435486</ele>
        <time>2015-12-28T12:26:28.000Z</time>
      </trkpt>
      <trkpt lat="43.7955" lon="6.4229">
        <ele>913.851807</ele>
        <time>2015-12-28T12:26:33.000Z</time>
      </trkpt>
      <trkpt lat="43.79573" lon="6.42298">
        <ele>910.74231</ele>
        <time>2015-12-28T12:26:38.000Z</time>
      </trkpt>
      <trkpt lat="43.79582" lon="6.423">
        <ele>911.916748</ele>
        <time>2015-12-28T12:26:43.000Z</time>
      </trkpt>
      <trkpt lat="43.79587" lon="6.42298">
        <ele>913.452698</ele>
        <time>2015-12-28T12:26:48.000Z</time>
      </trkpt>
      <trkpt lat="43.79597" lon="6.42302">
        <ele>912.457764</ele>
        <time>2015-12-28T12:26:53.000Z</time>
      </trkpt>
      <trkpt lat="43.79593" lon="6.42309">
        <ele>911.108948</ele>
        <time>2015-12-28T12:26:58.000Z</time>
      </trkpt>
      <trkpt lat="43.79576" lon="6.4232">
        <ele>907.558289</ele>
        <time>2015-12-28T12:27:03.000Z</time>
      </trkpt>
      <trkpt lat="43.79557" lon="6.42329">
        <ele>904.755127</ele>
        <time>2015-12-28T12:27:08.000Z</time>
      </trkpt>
      <trkpt lat="43.79538" lon="6.42341">
        <ele>902.06366</ele>
        <time>2015-12-28T12:27:13.000Z</time>
      </trkpt>
      <trkpt lat="43.79518" lon="6.4235">
        <ele>903.360291</ele>
        <time>2015-12-28T12:27:18.000Z</time>
      </trkpt>
      <trkpt lat="43.795" lon="6.4236">
        <ele>899.809509</ele>
        <time>2015-12-28T12:27:23.000Z</time>
      </trkpt>
      <trkpt lat="43.79479" lon="6.42372">
        <ele>902.504333</ele>
        <time>2015-12-28T12:27:28.000Z</time>
      </trkpt>
      <trkpt lat="43.79454" lon="6.42386">
        <ele>900.64978</ele>
        <time>2015-12-28T12:27:33.000Z</time>
      </trkpt>
      <trkpt lat="43.79428" lon="6.42397">
        <ele>898.605591</ele>
        <time>2015-12-28T12:27:38.000Z</time>
      </trkpt>
      <trkpt lat="43.79406" lon="6.42406">
        <ele>896.491699</ele>
        <time>2015-12-28T12:27:43.000Z</time>
      </trkpt>
      <trkpt lat="43.79389" lon="6.42417">
        <ele>894.453735</ele>
        <time>2015-12-28T12:27:48.000Z</time>
      </trkpt>
      <trkpt lat="43.79395" lon="6.42422">
        <ele>892.489014</ele>
        <time>2015-12-28T12:27:53.000Z</time>
      </trkpt>
      <trkpt lat="43.79414" lon="6.42426">
        <ele>890.305237</ele>
        <time>2015-12-28T12:27:58.000Z</time>
      </trkpt>
      <trkpt lat="43.79436" lon="6.42433">
        <ele>888.753601</ele>
        <time>2015-12-28T12:28:03.000Z</time>
      </trkpt>
      <trkpt lat="43.79461" lon="6.42439">
        <ele>885.479187</ele>
        <time>2015-12-28T12:28:08.000Z</time>
      </trkpt>
      <trkpt lat="43.79483" lon="6.42448">
        <ele>887.135376</ele>
        <time>2015-12-28T12:28:13.000Z</time>
      </trkpt>
      <trkpt lat="43.79508" lon="6.42453">
        <ele>880.488464</ele>
        <time>2015-12-28T12:28:18.000Z</time>
      </trkpt>
      <trkpt lat="43.79515" lon="6.42461">
        <ele>876.699585</ele>
        <time>2015-12-28T12:28:23.000Z</time>
      </trkpt>
      <trkpt lat="43.795" lon="6.42471">
        <ele>876.774719</ele>
        <time>2015-12-28T12:28:28.000Z</time>
      </trkpt>
      <trkpt lat="43.79484" lon="6.42484">
        <ele>874.182312</ele>
        <time>2015-12-28T12:28:33.000Z</time>
      </trkpt>
      <trkpt lat="43.79468" lon="6.42499">
        <ele>871.86908</ele>
        <time>2015-12-28T12:28:38.000Z</time>
      </trkpt>
      <trkpt lat="43.7945" lon="6.42512">
        <ele>866.350708</ele>
        <time>2015-12-28T12:28:43.000Z</time>
      </trkpt>
      <trkpt lat="43.7943" lon="6.42528">
        <ele>863.753723</ele>
        <time>2015-12-28T12:28:48.000Z</time>
      </trkpt>
      <trkpt lat="43.79411" lon="6.42543">
        <ele>859.726013</ele>
        <time>2015-12-28T12:28:53.000Z</time>
      </trkpt>
      <trkpt lat="43.79414" lon="6.42549">
        <ele>855.730774</ele>
        <time>2015-12-28T12:28:58.000Z</time>
      </trkpt>
      <trkpt lat="43.79435" lon="6.42553">
        <ele>857.080383</ele>
        <time>2015-12-28T12:29:03.000Z</time>
      </trkpt>
      <trkpt lat="43.79454" lon="6.42556">
        <ele>860.718811</ele>
        <time>2015-12-28T12:29:08.000Z</time>
      </trkpt>
      <trkpt lat="43.79476" lon="6.42561">
        <ele>857.181763</ele>
        <time>2015-12-28T12:29:13.000Z</time>
      </trkpt>
      <trkpt lat="43.79492" lon="6.42563">
        <ele>855.040283</ele>
        <time>2015-12-28T12:29:18.000Z</time>
      </trkpt>
      <trkpt lat="43.79486" lon="6.42574">
        <ele>852.900696</ele>
        <time>2015-12-28T12:29:23.000Z</time>
      </trkpt>
      <trkpt lat="43.79468" lon="6.4259">
        <ele>847.478271</ele>
        <time>2015-12-28T12:29:28.000Z</time>
      </trkpt>
      <trkpt lat="43.79449" lon="6.42608">
        <ele>842.215454</ele>
        <time>2015-12-28T12:29:33.000Z</time>
      </trkpt>
      <trkpt lat="43.79427" lon="6.42625">
        <ele>839.841919</ele>
        <time>2015-12-28T12:29:38.000Z</time>
      </trkpt>
      <trkpt lat="43.79404" lon="6.42647">
        <ele>837.368958</ele>
        <time>2015-12-28T12:29:43.000Z</time>
      </trkpt>
      <trkpt lat="43.79387" lon="6.42664">
        <ele>832.401367</ele>
        <time>2015-12-28T12:29:48.000Z</time>
      </trkpt>
      <trkpt lat="43.794" lon="6.42669">
        <ele>830.913208</ele>
        <time>2015-12-28T12:29:53.000Z</time>
      </trkpt>
      <trkpt lat="43.79419" lon="6.42671">
        <ele>824.574646</ele>
        <time>2015-12-28T12:29:58.000Z</time>
      </trkpt>
      <trkpt lat="43.79434" lon="6.42674">
        <ele>820.427307</ele>
        <time>2015-12-28T12:30:03.000Z</time>
      </trkpt>
      <trkpt lat="43.79446" lon="6.4268">
        <ele>816.994446</ele>
        <time>2015-12-28T12:30:08.000Z</time>
      </trkpt>
      <trkpt lat="43.79429" lon="6.42701">
        <ele>816.07959</ele>
        <time>2015-12-28T12:30:13.000Z</time>
      </trkpt>
      <trkpt lat="43.794" lon="6.4273">
        <ele>814.072021</ele>
        <time>2015-12-28T12:30:18.000Z</time>
      </trkpt>
      <trkpt lat="43.79372" lon="6.42759">
        <ele>817.775452</ele>
        <time>2015-12-28T12:30:23.000Z</time>
      </trkpt>
      <trkpt lat="43.79346" lon="6.42779">
        <ele>815.238159</ele>
        <time>2015-12-28T12:30:28.000Z</time>
      </trkpt>
      <trkpt lat="43.79323" lon="6.42797">
        <ele>813.496887</ele>
        <time>2015-12-28T12:30:33.000Z</time>
      </trkpt>
      <trkpt lat="43.79299" lon="6.42818">
        <ele>809.159729</ele>
        <time>2015-12-28T12:30:38.000Z</time>
      </trkpt>
      <trkpt lat="43.79306" lon="6.42826">
        <ele>804.868286</ele>
        <time>2015-12-28T12:30:43.000Z</time>
      </trkpt>
      <trkpt lat="43.79325" lon="6.42829">
        <ele>800.695801</ele>
        <time>2015-12-28T12:30:48.000Z</time>
      </trkpt>
      <trkpt lat="43.79343" lon="6.42836">
        <ele>798.355408</ele>
        <time>2015-12-28T12:30:53.000Z</time>
      </trkpt>
      <trkpt lat="43.79366" lon="6.42843">
        <ele>797.373962</ele>
        <time>2015-12-28T12:30:58.000Z</time>
      </trkpt>
      <trkpt lat="43.79357" lon="6.42856">
        <ele>793.429382</ele>
        <time>2015-12-28T12:31:03.000Z</time>
      </trkpt>
      <trkpt lat="43.79338" lon="6.42871">
        <ele>786.328674</ele>
        <time>2015-12-28T12:31:08.000Z</time>
      </trkpt>
      <trkpt lat="43.79329" lon="6.42885">
        <ele>781.064636</ele>
        <time>2015-12-28T12:31:13.000Z</time>
      </trkpt>
      <trkpt lat="43.79343" lon="6.4289">
        <ele>778.811707</ele>
        <time>2015-12-28T12:31:18.000Z</time>
      </trkpt>
      <trkpt lat="43.7936" lon="6.42897">
        <ele>777.437561</ele>
        <time>2015-12-28T12:31:23.000Z</time>
      </trkpt>
      <trkpt lat="43.7938" lon="6.42901">
        <ele>776.767151</ele>
        <time>2015-12-28T12:31:28.000Z</time>
      </trkpt>
      <trkpt lat="43.79396" lon="6.42902">
        <ele>773.334045</ele>
        <time>2015-12-28T12:31:33.000Z</time>
      </trkpt>
      <trkpt lat="43.79413" lon="6.42906">
        <ele>776.3479</ele>
        <time>2015-12-28T12:31:38.000Z</time>
      </trkpt>
      <trkpt lat="43.79435" lon="6.42906">
        <ele>766.128906</ele>
        <time>2015-12-28T12:31:43.000Z</time>
      </trkpt>
      <trkpt lat="43.79431" lon="6.42917">
        <ele>763.021545</ele>
        <time>2015-12-28T12:31:48.000Z</time>
      </trkpt>
      <trkpt lat="43.79414" lon="6.42937">
        <ele>758.868164</ele>
        <time>2015-12-28T12:31:53.000Z</time>
      </trkpt>
      <trkpt lat="43.79397" lon="6.4296">
        <ele>754.889282</ele>
        <time>2015-12-28T12:31:58.000Z</time>
      </trkpt>
      <trkpt lat="43.79375" lon="6.42985">
        <ele>750.119446</ele>
        <time>2015-12-28T12:32:03.000Z</time>
      </trkpt>
      <trkpt lat="43.79353" lon="6.43009">
        <ele>745.786987</ele>
        <time>2015-12-28T12:32:08.000Z</time>
      </trkpt>
      <trkpt lat="43.79329" lon="6.43035">
        <ele>739.389282</ele>
        <time>2015-12-28T12:32:13.000Z</time>
      </trkpt>
      <trkpt lat="43.79324" lon="6.43046">
        <ele>737.153198</ele>
        <time>2015-12-28T12:32:18.000Z</time>
      </trkpt>
      <trkpt lat="43.79339" lon="6.43046">
        <ele>735.190369</ele>
        <time>2015-12-28T12:32:23.000Z</time>
      </trkpt>
      <trkpt lat="43.79356" lon="6.43047">
        <ele>733.91394</ele>
        <time>2015-12-28T12:32:28.000Z</time>
      </trkpt>
      <trkpt lat="43.79377" lon="6.43048">
        <ele>732.358215</ele>
        <time>2015-12-28T12:32:33.000Z</time>
      </trkpt>
      <trkpt lat="43.79398" lon="6.4305">
        <ele>731.616211</ele>
        <time>2015-12-28T12:32:38.000Z</time>
      </trkpt>
      <trkpt lat="43.79424" lon="6.43053">
        <ele>728.583801</ele>
        <time>2015-12-28T12:32:43.000Z</time>
      </trkpt>
      <trkpt lat="43.79434" lon="6.43057">
        <ele>726.553467</ele>
        <time>2015-12-28T12:32:48.000Z</time>
      </trkpt>
      <trkpt lat="43.79412" lon="6.43082">
        <ele>723.003723</ele>
        <time>2015-12-28T12:32:53.000Z</time>
      </trkpt>
      <trkpt lat="43.7939" lon="6.43108">
        <ele>718.238892</ele>
        <time>2015-12-28T12:32:58.000Z</time>
      </trkpt>
      <trkpt lat="43.7936" lon="6.43134">
        <ele>712.680725</ele>
        <time>2015-12-28T12:33:03.000Z</time>
      </trkpt>
      <trkpt lat="43.79332" lon="6.43163">
        <ele>707.312683</ele>
        <time>2015-12-28T12:33:08.000Z</time>
      </trkpt>
      <trkpt lat="43.79308" lon="6.4319">
        <ele>703.1698</ele>
        <time>2015-12-28T12:33:13.000Z</time>
      </trkpt>
      <trkpt lat="43.79289" lon="6.43211">
        <ele>700.258423</ele>
        <time>2015-12-28T12:33:18.000Z</time>
      </trkpt>
      <trkpt lat="43.79266" lon="6.43234">
        <ele>695.539307</ele>
        <time>2015-12-28T12:33:23.000Z</time>
      </trkpt>
      <trkpt lat="43.79252" lon="6.43251">
        <ele>691.623352</ele>
        <time>2015-12-28T12:33:28.000Z</time>
      </trkpt>
      <trkpt lat="43.79251" lon="6.4327">
        <ele>686.65387</ele>
        <time>2015-12-28T12:33:33.000Z</time>
      </trkpt>
      <trkpt lat="43.79252" lon="6.43292">
        <ele>685.792053</ele>
        <time>2015-12-28T12:33:38.000Z</time>
      </trkpt>
      <trkpt lat="43.79258" lon="6.43313">
        <ele>685.850403</ele>
        <time>2015-12-28T12:33:43.000Z</time>
      </trkpt>
      <trkpt lat="43.79269" lon="6.43328">
        <ele>685.672485</ele>
        <time>2015-12-28T12:33:48.000Z</time>
      </trkpt>
      <trkpt lat="43.79284" lon="6.4334">
        <ele>686.306091</ele>
        <time>2015-12-28T12:33:53.000Z</time>
      </trkpt>
      <trkpt lat="43.793" lon="6.43352">
        <ele>686.735229</ele>
        <time>2015-12-28T12:33:58.000Z</time>
      </trkpt>
      <trkpt lat="43.79315" lon="6.43366">
        <ele>687.724548</ele>
        <time>2015-12-28T12:34:03.000Z</time>
      </trkpt>
      <trkpt lat="43.79332" lon="6.43366">
        <ele>688.996765</ele>
        <time>2015-12-28T12:34:08.000Z</time>
      </trkpt>
      <trkpt lat="43.79351" lon="6.43362">
        <ele>690.03833</ele>
        <time>2015-12-28T12:34:13.000Z</time>
      </trkpt>
      <trkpt lat="43.79371" lon="6.4336">
        <ele>689.03363</ele>
        <time>2015-12-28T12:34:18.000Z</time>
      </trkpt>
      <trkpt lat="43.79388" lon="6.43373">
        <ele>687.875977</ele>
        <time>2015-12-28T12:34:23.000Z</time>
      </trkpt>
      <trkpt lat="43.79394" lon="6.43397">
        <ele>687.591431</ele>
        <time>2015-12-28T12:34:28.000Z</time>
      </trkpt>
      <trkpt lat="43.79399" lon="6.43422">
        <ele>688.039246</ele>
        <time>2015-12-28T12:34:33.000Z</time>
      </trkpt>
      <trkpt lat="43.79408" lon="6.43444">
        <ele>688.735352</ele>
        <time>2015-12-28T12:34:38.000Z</time>
      </trkpt>
      <trkpt lat="43.79419" lon="6.43465">
        <ele>688.526428</ele>
        <time>2015-12-28T12:34:43.000Z</time>
      </trkpt>
      <trkpt lat="43.79429" lon="6.43485">
        <ele>688.959961</ele>
        <time>2015-12-28T12:34:48.000Z</time>
      </trkpt>
      <trkpt lat="43.79441" lon="6.43504">
        <ele>688.502075</ele>
        <time>2015-12-28T12:34:53.000Z</time>
      </trkpt>
      <trkpt lat="43.79453" lon="6.43521">
        <ele>689.170898</ele>
        <time>2015-12-28T12:34:58.000Z</time>
      </trkpt>
      <trkpt lat="43.79466" lon="6.43537">
        <ele>691.347717</ele>
        <time>2015-12-28T12:35:03.000Z</time>
      </trkpt>
      <trkpt lat="43.7948" lon="6.43551">
        <ele>693.449341</ele>
        <time>2015-12-28T12:35:08.000Z</time>
      </trkpt>
      <trkpt lat="43.79494" lon="6.43564">
        <ele>694.738037</ele>
        <time>2015-12-28T12:35:13.000Z</time>
      </trkpt>
      <trkpt lat="43.79509" lon="6.43578">
        <ele>695.92981</ele>
        <time>2015-12-28T12:35:18.000Z</time>
      </trkpt>
      <trkpt lat="43.79523" lon="6.43592">
        <ele>697.253601</ele>
        <time>2015-12-28T12:35:23.000Z</time>
      </trkpt>
      <trkpt lat="43.79537" lon="6.43607">
        <ele>698.401001</ele>
        <time>2015-12-28T12:35:28.000Z</time>
      </trkpt>
      <trkpt lat="43.79551" lon="6.4362">
        <ele>699.37384</ele>
        <time>2015-12-28T12:35:33.000Z</time>
      </trkpt>
      <trkpt lat="43.79564" lon="6.43634">
        <ele>700.577209</ele>
        <time>2015-12-28T12:35:38.000Z</time>
      </trkpt>
      <trkpt lat="43.79574" lon="6.43652">
        <ele>701.688232</ele>
        <time>2015-12-28T12:35:43.000Z</time>
      </trkpt>
      <trkpt lat="43.79582" lon="6.43672">
        <ele>702.734375</ele>
        <time>2015-12-28T12:35:48.000Z</time>
      </trkpt>
      <trkpt lat="43.79588" lon="6.43694">
        <ele>703.818665</ele>
        <time>2015-12-28T12:35:53.000Z</time>
      </trkpt>
      <trkpt lat="43.79593" lon="6.43716">
        <ele>704.624207</ele>
        <time>2015-12-28T12:35:58.000Z</time>
      </trkpt>
      <trkpt lat="43.79599" lon="6.43739">
        <ele>706.009155</ele>
        <time>2015-12-28T12:36:03.000Z</time>
      </trkpt>
      <trkpt lat="43.79605" lon="6.43761">
        <ele>707.069702</ele>
        <time>2015-12-28T12:36:08.000Z</time>
      </trkpt>
      <trkpt lat="43.79612" lon="6.43783">
        <ele>707.902588</ele>
        <time>2015-12-28T12:36:13.000Z</time>
      </trkpt>
      <trkpt lat="43.79623" lon="6.43803">
        <ele>709.056396</ele>
        <time>2015-12-28T12:36:18.000Z</time>
      </trkpt>
      <trkpt lat="43.79639" lon="6.43816">
        <ele>709.282288</ele>
        <time>2015-12-28T12:36:23.000Z</time>
      </trkpt>
      <trkpt lat="43.79656" lon="6.43831">
        <ele>707.871887</ele>
        <time>2015-12-28T12:36:28.000Z</time>
      </trkpt>
      <trkpt lat="43.79673" lon="6.43845">
        <ele>706.19635</ele>
        <time>2015-12-28T12:36:33.000Z</time>
      </trkpt>
      <trkpt lat="43.79694" lon="6.43849">
        <ele>708.455933</ele>
        <time>2015-12-28T12:36:38.000Z</time>
      </trkpt>
      <trkpt lat="43.79716" lon="6.43846">
        <ele>709.555298</ele>
        <time>2015-12-28T12:36:43.000Z</time>
      </trkpt>
      <trkpt lat="43.79738" lon="6.43842">
        <ele>710.709229</ele>
        <time>2015-12-28T12:36:48.000Z</time>
      </trkpt>
      <trkpt lat="43.79761" lon="6.43838">
        <ele>711.7547</ele>
        <time>2015-12-28T12:36:53.000Z</time>
      </trkpt>
      <trkpt lat="43.79784" lon="6.43833">
        <ele>712.68927</ele>
        <time>2015-12-28T12:36:58.000Z</time>
      </trkpt>
      <trkpt lat="43.79807" lon="6.43827">
        <ele>713.602051</ele>
        <time>2015-12-28T12:37:03.000Z</time>
      </trkpt>
      <trkpt lat="43.79832" lon="6.43822">
        <ele>713.975708</ele>
        <time>2015-12-28T12:37:08.000Z</time>
      </trkpt>
      <trkpt lat="43.79856" lon="6.43814">
        <ele>714.682129</ele>
        <time>2015-12-28T12:37:13.000Z</time>
      </trkpt>
      <trkpt lat="43.79881" lon="6.43806">
        <ele>715.47406</ele>
        <time>2015-12-28T12:37:18.000Z</time>
      </trkpt>
      <trkpt lat="43.79905" lon="6.43796">
        <ele>716.31189</ele>
        <time>2015-12-28T12:37:23.000Z</time>
      </trkpt>
      <trkpt lat="43.79931" lon="6.4379">
        <ele>717.443604</ele>
        <time>2015-12-28T12:37:28.000Z</time>
      </trkpt>
      <trkpt lat="43.79956" lon="6.43799">
        <ele>718.300232</ele>
        <time>2015-12-28T12:37:33.000Z</time>
      </trkpt>
      <trkpt lat="43.79975" lon="6.43824">
        <ele>719.220215</ele>
        <time>2015-12-28T12:37:38.000Z</time>
      </trkpt>
      <trkpt lat="43.79995" lon="6.43843">
        <ele>720.284485</ele>
        <time>2015-12-28T12:37:43.000Z</time>
      </trkpt>
      <trkpt lat="43.80018" lon="6.43848">
        <ele>721.050354</ele>
        <time>2015-12-28T12:37:48.000Z</time>
      </trkpt>
      <trkpt lat="43.80042" lon="6.43836">
        <ele>721.22699</ele>
        <time>2015-12-28T12:37:53.000Z</time>
      </trkpt>
      <trkpt lat="43.80064" lon="6.43824">
        <ele>722.139038</ele>
        <time>2015-12-28T12:37:58.000Z</time>
      </trkpt>
      <trkpt lat="43.80087" lon="6.43811">
        <ele>722.400452</ele>
        <time>2015-12-28T12:38:03.000Z</time>
      </trkpt>
      <trkpt lat="43.8011" lon="6.43802">
        <ele>723.128906</ele>
        <time>2015-12-28T12:38:08.000Z</time>
      </trkpt>
      <trkpt lat="43.80135" lon="6.43795">
        <ele>722.910339</ele>
        <time>2015-12-28T12:38:13.000Z</time>
      </trkpt>
      <trkpt lat="43.80161" lon="6.43794">
        <ele>724.077393</ele>
        <time>2015-12-28T12:38:18.000Z</time>
      </trkpt>
      <trkpt lat="43.80185" lon="6.43793">
        <ele>726.339722</ele>
        <time>2015-12-28T12:38:23.000Z</time>
      </trkpt>
      <trkpt lat="43.8021" lon="6.43788">
        <ele>728.003296</ele>
        <time>2015-12-28T12:38:28.000Z</time>
      </trkpt>
      <trkpt lat="43.80234" lon="6.43782">
        <ele>731.056458</ele>
        <time>2015-12-28T12:38:33.000Z</time>
      </trkpt>
      <trkpt lat="43.80257" lon="6.43784">
        <ele>735.756897</ele>
        <time>2015-12-28T12:38:38.000Z</time>
      </trkpt>
      <trkpt lat="43.80282" lon="6.43791">
        <ele>737.735962</ele>
        <time>2015-12-28T12:38:43.000Z</time>
      </trkpt>
      <trkpt lat="43.80308" lon="6.43798">
        <ele>738.642517</ele>
        <time>2015-12-28T12:38:48.000Z</time>
      </trkpt>
      <trkpt lat="43.80334" lon="6.43809">
        <ele>738.736206</ele>
        <time>2015-12-28T12:38:53.000Z</time>
      </trkpt>
      <trkpt lat="43.80357" lon="6.43828">
        <ele>739.012695</ele>
        <time>2015-12-28T12:38:58.000Z</time>
      </trkpt>
      <trkpt lat="43.80381" lon="6.43842">
        <ele>739.201477</ele>
        <time>2015-12-28T12:39:03.000Z</time>
      </trkpt>
      <trkpt lat="43.80405" lon="6.43861">
        <ele>739.175415</ele>
        <time>2015-12-28T12:39:08.000Z</time>
      </trkpt>
      <trkpt lat="43.80416" lon="6.43895">
        <ele>739.369507</ele>
        <time>2015-12-28T12:39:13.000Z</time>
      </trkpt>
      <trkpt lat="43.80418" lon="6.43931">
        <ele>739.685364</ele>
        <time>2015-12-28T12:39:18.000Z</time>
      </trkpt>
      <trkpt lat="43.80421" lon="6.43968">
        <ele>739.432861</ele>
        <time>2015-12-28T12:39:23.000Z</time>
      </trkpt>
      <trkpt lat="43.80419" lon="6.44005">
        <ele>739.29364</ele>
        <time>2015-12-28T12:39:28.000Z</time>
      </trkpt>
      <trkpt lat="43.80416" lon="6.44044">
        <ele>739.371338</ele>
        <time>2015-12-28T12:39:33.000Z</time>
      </trkpt>
      <trkpt lat="43.80417" lon="6.44082">
        <ele>739.79541</ele>
        <time>2015-12-28T12:39:38.000Z</time>
      </trkpt>
      <trkpt lat="43.80433" lon="6.44111">
        <ele>740.191589</ele>
        <time>2015-12-28T12:39:43.000Z</time>
      </trkpt>
      <trkpt lat="43.80459" lon="6.44111">
        <ele>737.483337</ele>
        <time>2015-12-28T12:39:48.000Z</time>
      </trkpt>
      <trkpt lat="43.80483" lon="6.44094">
        <ele>737.448486</ele>
        <time>2015-12-28T12:39:53.000Z</time>
      </trkpt>
      <trkpt lat="43.80503" lon="6.4407">
        <ele>736.971558</ele>
        <time>2015-12-28T12:39:58.000Z</time>
      </trkpt>
      <trkpt lat="43.8052" lon="6.44041">
        <ele>733.159363</ele>
        <time>2015-12-28T12:40:03.000Z</time>
      </trkpt>
      <trkpt lat="43.80541" lon="6.4402">
        <ele>729.271484</ele>
        <time>2015-12-28T12:40:08.000Z</time>
      </trkpt>
      <trkpt lat="43.80563" lon="6.4402">
        <ele>725.332581</ele>
        <time>2015-12-28T12:40:13.000Z</time>
      </trkpt>
      <trkpt lat="43.80566" lon="6.44045">
        <ele>717.341309</ele>
        <time>2015-12-28T12:40:18.000Z</time>
      </trkpt>
      <trkpt lat="43.80566" lon="6.4407">
        <ele>711.737976</ele>
        <time>2015-12-28T12:40:23.000Z</time>
      </trkpt>
      <trkpt lat="43.80566" lon="6.44091">
        <ele>707.548401</ele>
        <time>2015-12-28T12:40:28.000Z</time>
      </trkpt>
      <trkpt lat="43.80564" lon="6.4412">
        <ele>704.545654</ele>
        <time>2015-12-28T12:40:33.000Z</time>
      </trkpt>
      <trkpt lat="43.80558" lon="6.44151">
        <ele>701.636963</ele>
        <time>2015-12-28T12:40:38.000Z</time>
      </trkpt>
      <trkpt lat="43.80538" lon="6.44173">
        <ele>699.302368</ele>
        <time>2015-12-28T12:40:43.000Z</time>
      </trkpt>
      <trkpt lat="43.80515" lon="6.44193">
        <ele>696.898804</ele>
        <time>2015-12-28T12:40:48.000Z</time>
      </trkpt>
      <trkpt lat="43.80491" lon="6.44211">
        <ele>694.309937</ele>
        <time>2015-12-28T12:40:53.000Z</time>
      </trkpt>
      <trkpt lat="43.80464" lon="6.4422">
        <ele>693.907654</ele>
        <time>2015-12-28T12:40:58.000Z</time>
      </trkpt>
      <trkpt lat="43.80436" lon="6.44228">
        <ele>692.743835</ele>
        <time>2015-12-28T12:41:03.000Z</time>
      </trkpt>
      <trkpt lat="43.80408" lon="6.44227">
        <ele>691.729553</ele>
        <time>2015-12-28T12:41:08.000Z</time>
      </trkpt>
      <trkpt lat="43.80393" lon="6.44195">
        <ele>694.007568</ele>
        <time>2015-12-28T12:41:13.000Z</time>
      </trkpt>
      <trkpt lat="43.8039" lon="6.44156">
        <ele>694.014893</ele>
        <time>2015-12-28T12:41:18.000Z</time>
      </trkpt>
      <trkpt lat="43.80382" lon="6.44121">
        <ele>694.730896</ele>
        <time>2015-12-28T12:41:23.000Z</time>
      </trkpt>
      <trkpt lat="43.80376" lon="6.44085">
        <ele>695.797607</ele>
        <time>2015-12-28T12:41:28.000Z</time>
      </trkpt>
      <trkpt lat="43.80376" lon="6.44049">
        <ele>696.848633</ele>
        <time>2015-12-28T12:41:33.000Z</time>
      </trkpt>
      <trkpt lat="43.80378" lon="6.44013">
        <ele>697.537048</ele>
        <time>2015-12-28T12:41:38.000Z</time>
      </trkpt>
      <trkpt lat="43.80372" lon="6.4398">
        <ele>698.698364</ele>
        <time>2015-12-28T12:41:43.000Z</time>
      </trkpt>
      <trkpt lat="43.80359" lon="6.43958">
        <ele>701.221069</ele>
        <time>2015-12-28T12:41:48.000Z</time>
      </trkpt>
      <trkpt lat="43.80347" lon="6.43941">
        <ele>703.12323</ele>
        <time>2015-12-28T12:41:53.000Z</time>
      </trkpt>
      <trkpt lat="43.80333" lon="6.43927">
        <ele>705.346497</ele>
        <time>2015-12-28T12:41:58.000Z</time>
      </trkpt>
      <trkpt lat="43.8032" lon="6.43916">
        <ele>707.177063</ele>
        <time>2015-12-28T12:42:03.000Z</time>
      </trkpt>
      <trkpt lat="43.80302" lon="6.43912">
        <ele>704.345032</ele>
        <time>2015-12-28T12:42:08.000Z</time>
      </trkpt>
      <trkpt lat="43.80283" lon="6.43913">
        <ele>702.440247</ele>
        <time>2015-12-28T12:42:13.000Z</time>
      </trkpt>
      <trkpt lat="43.80266" lon="6.43919">
        <ele>702.84436</ele>
        <time>2015-12-28T12:42:18.000Z</time>
      </trkpt>
      <trkpt lat="43.80251" lon="6.4393">
        <ele>704.604492</ele>
        <time>2015-12-28T12:42:23.000Z</time>
      </trkpt>
      <trkpt lat="43.80234" lon="6.43944">
        <ele>704.161499</ele>
        <time>2015-12-28T12:42:28.000Z</time>
      </trkpt>
      <trkpt lat="43.80216" lon="6.4396">
        <ele>703.368347</ele>
        <time>2015-12-28T12:42:33.000Z</time>
      </trkpt>
      <trkpt lat="43.80196" lon="6.43975">
        <ele>701.850098</ele>
        <time>2015-12-28T12:42:38.000Z</time>
      </trkpt>
      <trkpt lat="43.80176" lon="6.43982">
        <ele>701.609131</ele>
        <time>2015-12-28T12:42:43.000Z</time>
      </trkpt>
      <trkpt lat="43.80152" lon="6.43981">
        <ele>701.532104</ele>
        <time>2015-12-28T12:42:48.000Z</time>
      </trkpt>
      <trkpt lat="43.80127" lon="6.4398">
        <ele>701.143738</ele>
        <time>2015-12-28T12:42:53.000Z</time>
      </trkpt>
      <trkpt lat="43.80105" lon="6.43978">
        <ele>700.607483</ele>
        <time>2015-12-28T12:42:58.000Z</time>
      </trkpt>
      <trkpt lat="43.80082" lon="6.43981">
        <ele>701.022156</ele>
        <time>2015-12-28T12:43:03.000Z</time>
      </trkpt>
      <trkpt lat="43.80061" lon="6.43989">
        <ele>701.764465</ele>
        <time>2015-12-28T12:43:08.000Z</time>
      </trkpt>
      <trkpt lat="43.80043" lon="6.44006">
        <ele>702.649048</ele>
        <time>2015-12-28T12:43:13.000Z</time>
      </trkpt>
      <trkpt lat="43.80032" lon="6.44025">
        <ele>703.613892</ele>
        <time>2015-12-28T12:43:18.000Z</time>
      </trkpt>
      <trkpt lat="43.80026" lon="6.44045">
        <ele>704.283447</ele>
        <time>2015-12-28T12:43:23.000Z</time>
      </trkpt>
      <trkpt lat="43.80024" lon="6.44068">
        <ele>705.167908</ele>
        <time>2015-12-28T12:43:28.000Z</time>
      </trkpt>
      <trkpt lat="43.8002" lon="6.44091">
        <ele>704.320313</ele>
        <time>2015-12-28T12:43:33.000Z</time>
      </trkpt>
      <trkpt lat="43.80009" lon="6.44109">
        <ele>705.351929</ele>
        <time>2015-12-28T12:43:38.000Z</time>
      </trkpt>
      <trkpt lat="43.79993" lon="6.44117">
        <ele>705.320496</ele>
        <time>2015-12-28T12:43:43.000Z</time>
      </trkpt>
      <trkpt lat="43.79974" lon="6.44117">
        <ele>706.023438</ele>
        <time>2015-12-28T12:43:48.000Z</time>
      </trkpt>
      <trkpt lat="43.79955" lon="6.44117">
        <ele>706.158264</ele>
        <time>2015-12-28T12:43:53.000Z</time>
      </trkpt>
      <trkpt lat="43.79939" lon="6.44126">
        <ele>706.102417</ele>
        <time>2015-12-28T12:43:58.000Z</time>
      </trkpt>
      <trkpt lat="43.79924" lon="6.44139">
        <ele>705.986328</ele>
        <time>2015-12-28T12:44:03.000Z</time>
      </trkpt>
      <trkpt lat="43.79907" lon="6.44142">
        <ele>706.009094</ele>
        <time>2015-12-28T12:44:08.000Z</time>
      </trkpt>
      <trkpt lat="43.7989" lon="6.44142">
        <ele>706.467468</ele>
        <time>2015-12-28T12:44:13.000Z</time>
      </trkpt>
      <trkpt lat="43.79873" lon="6.44148">
        <ele>706.317505</ele>
        <time>2015-12-28T12:44:18.000Z</time>
      </trkpt>
      <trkpt lat="43.79856" lon="6.44155">
        <ele>706.781006</ele>
        <time>2015-12-28T12:44:23.000Z</time>
      </trkpt>
      <trkpt lat="43.79838" lon="6.44159">
        <ele>706.771912</ele>
        <time>2015-12-28T12:44:28.000Z</time>
      </trkpt>
      <trkpt lat="43.7982" lon="6.44164">
        <ele>707.386475</ele>
        <time>2015-12-28T12:44:33.000Z</time>
      </trkpt>
      <trkpt lat="43.79805" lon="6.44175">
        <ele>708.432861</ele>
        <time>2015-12-28T12:44:38.000Z</time>
      </trkpt>
      <trkpt lat="43.79795" lon="6.44194">
        <ele>708.93573</ele>
        <time>2015-12-28T12:44:43.000Z</time>
      </trkpt>
      <trkpt lat="43.79792" lon="6.44216">
        <ele>709.921143</ele>
        <time>2015-12-28T12:44:48.000Z</time>
      </trkpt>
      <trkpt lat="43.79794" lon="6.44237">
        <ele>710.518555</ele>
        <time>2015-12-28T12:44:53.000Z</time>
      </trkpt>
      <trkpt lat="43.79802" lon="6.44255">
        <ele>711.299866</ele>
        <time>2015-12-28T12:44:58.000Z</time>
      </trkpt>
      <trkpt lat="43.79808" lon="6.44272">
        <ele>712.857178</ele>
        <time>2015-12-28T12:45:03.000Z</time>
      </trkpt>
      <trkpt lat="43.79809" lon="6.44287">
        <ele>713.034668</ele>
        <time>2015-12-28T12:45:08.000Z</time>
      </trkpt>
      <trkpt lat="43.7981" lon="6.44289">
        <ele>712.923401</ele>
        <time>2015-12-28T12:45:13.000Z</time>
      </trkpt>
      <trkpt lat="43.7981" lon="6.44289">
        <ele>712.846985</ele>
        <time>2015-12-28T12:45:18.000Z</time>
      </trkpt>
      <trkpt lat="43.7981" lon="6.44289">
        <ele>712.791809</ele>
        <time>2015-12-28T12:45:23.000Z</time>
      </trkpt>
      <trkpt lat="43.7981" lon="6.44289">
        <ele>712.765137</ele>
        <time>2015-12-28T12:45:28.000Z</time>
      </trkpt>
      <trkpt lat="43.7981" lon="6.44289">
        <ele>712.714905</ele>
        <time>2015-12-28T12:45:33.000Z</time>
      </trkpt>
      <trkpt lat="43.7981" lon="6.44289">
        <ele>712.673401</ele>
        <time>2015-12-28T12:45:38.000Z</time>
      </trkpt>
      <trkpt lat="43.7981" lon="6.44289">
        <ele>712.665588</ele>
        <time>2015-12-28T12:45:43.000Z</time>
      </trkpt>
      <trkpt lat="43.7981" lon="6.44289">
        <ele>712.72052</ele>
        <time>2015-12-28T12:45:48.000Z</time>
      </trkpt>
      <trkpt lat="43.7981" lon="6.44289">
        <ele>712.740601</ele>
        <time>2015-12-28T12:45:53.000Z</time>
      </trkpt>
      <trkpt lat="43.7981" lon="6.44289">
        <ele>712.734192</ele>
        <time>2015-12-28T12:45:58.000Z</time>
      </trkpt>
      <trkpt lat="43.7981" lon="6.44289">
        <ele>712.707458</ele>
        <time>2015-12-28T12:46:03.000Z</time>
      </trkpt>
      <trkpt lat="43.79803" lon="6.44299">
        <ele>712.863037</ele>
        <time>2015-12-28T12:46:08.000Z</time>
      </trkpt>
      <trkpt lat="43.79793" lon="6.44317">
        <ele>712.901489</ele>
        <time>2015-12-28T12:46:13.000Z</time>
      </trkpt>
      <trkpt lat="43.79782" lon="6.44333">
        <ele>714.399658</ele>
        <time>2015-12-28T12:46:18.000Z</time>
      </trkpt>
      <trkpt lat="43.79768" lon="6.44347">
        <ele>715.32605</ele>
        <time>2015-12-28T12:46:23.000Z</time>
      </trkpt>
      <trkpt lat="43.79754" lon="6.44358">
        <ele>717.244019</ele>
        <time>2015-12-28T12:46:28.000Z</time>
      </trkpt>
      <trkpt lat="43.79741" lon="6.44367">
        <ele>718.32196</ele>
        <time>2015-12-28T12:46:33.000Z</time>
      </trkpt>
      <trkpt lat="43.79728" lon="6.44377">
        <ele>719.730591</ele>
        <time>2015-12-28T12:46:38.000Z</time>
      </trkpt>
      <trkpt lat="43.79715" lon="6.44389">
        <ele>721.388855</ele>
        <time>2015-12-28T12:46:43.000Z</time>
      </trkpt>
      <trkpt lat="43.79702" lon="6.44403">
        <ele>722.491028</ele>
        <time>2015-12-28T12:46:48.000Z</time>
      </trkpt>
      <trkpt lat="43.79691" lon="6.44418">
        <ele>722.860901</ele>
        <time>2015-12-28T12:46:53.000Z</time>
      </trkpt>
      <trkpt lat="43.79687" lon="6.44431">
        <ele>723.499939</ele>
        <time>2015-12-28T12:46:58.000Z</time>
      </trkpt>
      <trkpt lat="43.79694" lon="6.4443">
        <ele>725.506042</ele>
        <time>2015-12-28T12:47:03.000Z</time>
      </trkpt>
      <trkpt lat="43.79702" lon="6.44427">
        <ele>727.497253</ele>
        <time>2015-12-28T12:47:08.000Z</time>
      </trkpt>
      <trkpt lat="43.79708" lon="6.44423">
        <ele>728.310547</ele>
        <time>2015-12-28T12:47:13.000Z</time>
      </trkpt>
      <trkpt lat="43.79713" lon="6.44423">
        <ele>728.598816</ele>
        <time>2015-12-28T12:47:18.000Z</time>
      </trkpt>
      <trkpt lat="43.79712" lon="6.44423">
        <ele>728.084229</ele>
        <time>2015-12-28T12:47:23.000Z</time>
      </trkpt>
      <trkpt lat="43.79712" lon="6.44422">
        <ele>727.913757</ele>
        <time>2015-12-28T12:47:28.000Z</time>
      </trkpt>
      <trkpt lat="43.79713" lon="6.44421">
        <ele>726.556519</ele>
        <time>2015-12-28T12:47:33.000Z</time>
      </trkpt>
      <trkpt lat="43.79713" lon="6.44421">
        <ele>726.485168</ele>
        <time>2015-12-28T12:47:38.000Z</time>
      </trkpt>
      <trkpt lat="43.79713" lon="6.44421">
        <ele>726.423584</ele>
        <time>2015-12-28T12:47:43.000Z</time>
      </trkpt>
      <trkpt lat="43.79713" lon="6.44421">
        <ele>726.368103</ele>
        <time>2015-12-28T12:47:48.000Z</time>
      </trkpt>
      <trkpt lat="43.79713" lon="6.44421">
        <ele>726.311768</ele>
        <time>2015-12-28T12:47:53.000Z</time>
      </trkpt>
      <trkpt lat="43.79713" lon="6.44421">
        <ele>726.244507</ele>
        <time>2015-12-28T12:47:58.000Z</time>
      </trkpt>
      <trkpt lat="43.79713" lon="6.44421">
        <ele>726.159058</ele>
        <time>2015-12-28T12:48:03.000Z</time>
      </trkpt>
      <trkpt lat="43.79713" lon="6.4442">
        <ele>725.960266</ele>
        <time>2015-12-28T12:48:08.000Z</time>
      </trkpt>
      <trkpt lat="43.79713" lon="6.4442">
        <ele>725.967285</ele>
        <time>2015-12-28T12:48:13.000Z</time>
      </trkpt>
      <trkpt lat="43.79713" lon="6.4442">
        <ele>725.937012</ele>
        <time>2015-12-28T12:48:18.000Z</time>
      </trkpt>
      <trkpt lat="43.79713" lon="6.4442">
        <ele>725.924866</ele>
        <time>2015-12-28T12:48:23.000Z</time>
      </trkpt>
      <trkpt lat="43.79713" lon="6.4442">
        <ele>725.904053</ele>
        <time>2015-12-28T12:48:28.000Z</time>
      </trkpt>
      <trkpt lat="43.79713" lon="6.4442">
        <ele>725.890869</ele>
        <time>2015-12-28T12:48:33.000Z</time>
      </trkpt>
      <trkpt lat="43.79713" lon="6.4442">
        <ele>725.872681</ele>
        <time>2015-12-28T12:48:38.000Z</time>
      </trkpt>
      <trkpt lat="43.79713" lon="6.4442">
        <ele>725.850647</ele>
        <time>2015-12-28T12:48:43.000Z</time>
      </trkpt>
      <trkpt lat="43.79713" lon="6.4442">
        <ele>725.8349</ele>
        <time>2015-12-28T12:48:48.000Z</time>
      </trkpt>
      <trkpt lat="43.79713" lon="6.4442">
        <ele>725.823425</ele>
        <time>2015-12-28T12:48:53.000Z</time>
      </trkpt>
      <trkpt lat="43.79713" lon="6.4442">
        <ele>725.823059</ele>
        <time>2015-12-28T12:48:58.000Z</time>
      </trkpt>
      <trkpt lat="43.79713" lon="6.4442">
        <ele>725.816589</ele>
        <time>2015-12-28T12:49:03.000Z</time>
      </trkpt>
      <trkpt lat="43.79713" lon="6.4442">
        <ele>725.809021</ele>
        <time>2015-12-28T12:49:08.000Z</time>
      </trkpt>
      <trkpt lat="43.79713" lon="6.4442">
        <ele>725.802063</ele>
        <time>2015-12-28T12:49:13.000Z</time>
      </trkpt>
      <trkpt lat="43.79713" lon="6.4442">
        <ele>725.794312</ele>
        <time>2015-12-28T12:49:18.000Z</time>
      </trkpt>
      <trkpt lat="43.79713" lon="6.4442">
        <ele>725.781799</ele>
        <time>2015-12-28T12:49:23.000Z</time>
      </trkpt>
      <trkpt lat="43.79713" lon="6.4442">
        <ele>725.787476</ele>
        <time>2015-12-28T12:49:28.000Z</time>
      </trkpt>
      <trkpt lat="43.79713" lon="6.4442">
        <ele>725.779907</ele>
        <time>2015-12-28T12:49:33.000Z</time>
      </trkpt>
      <trkpt lat="43.79713" lon="6.4442">
        <ele>725.758423</ele>
        <time>2015-12-28T12:49:38.000Z</time>
      </trkpt>
      <trkpt lat="43.79713" lon="6.4442">
        <ele>725.733887</ele>
        <time>2015-12-28T12:49:43.000Z</time>
      </trkpt>
      <trkpt lat="43.79713" lon="6.4442">
        <ele>725.695251</ele>
        <time>2015-12-28T12:49:48.000Z</time>
      </trkpt>
      <trkpt lat="43.79713" lon="6.4442">
        <ele>725.638733</ele>
        <time>2015-12-28T12:49:53.000Z</time>
      </trkpt>
      <trkpt lat="43.79713" lon="6.44421">
        <ele>725.345215</ele>
        <time>2015-12-28T12:49:58.000Z</time>
      </trkpt>
      <trkpt lat="43.79714" lon="6.44421">
        <ele>724.842712</ele>
        <time>2015-12-28T12:50:03.000Z</time>
      </trkpt>
      <trkpt lat="43.79714" lon="6.44421">
        <ele>724.873108</ele>
        <time>2015-12-28T12:50:08.000Z</time>
      </trkpt>
      <trkpt lat="43.79714" lon="6.44421">
        <ele>724.858276</ele>
        <time>2015-12-28T12:50:13.000Z</time>
      </trkpt>
      <trkpt lat="43.79714" lon="6.44421">
        <ele>724.823975</ele>
        <time>2015-12-28T12:50:18.000Z</time>
      </trkpt>
      <trkpt lat="43.79714" lon="6.44421">
        <ele>724.800354</ele>
        <time>2015-12-28T12:50:23.000Z</time>
      </trkpt>
      <trkpt lat="43.79714" lon="6.44421">
        <ele>724.781677</ele>
        <time>2015-12-28T12:50:28.000Z</time>
      </trkpt>
      <trkpt lat="43.79714" lon="6.44421">
        <ele>724.765991</ele>
        <time>2015-12-28T12:50:33.000Z</time>
      </trkpt>
      <trkpt lat="43.79714" lon="6.44421">
        <ele>724.755188</ele>
        <time>2015-12-28T12:50:38.000Z</time>
      </trkpt>
      <trkpt lat="43.79714" lon="6.44421">
        <ele>724.737488</ele>
        <time>2015-12-28T12:50:43.000Z</time>
      </trkpt>
      <trkpt lat="43.79714" lon="6.44421">
        <ele>724.765503</ele>
        <time>2015-12-28T12:50:48.000Z</time>
      </trkpt>
      <trkpt lat="43.79714" lon="6.44421">
        <ele>724.796021</ele>
        <time>2015-12-28T12:50:53.000Z</time>
      </trkpt>
      <trkpt lat="43.79714" lon="6.44421">
        <ele>724.831421</ele>
        <time>2015-12-28T12:50:58.000Z</time>
      </trkpt>
      <trkpt lat="43.79714" lon="6.44421">
        <ele>724.855103</ele>
        <time>2015-12-28T12:51:03.000Z</time>
      </trkpt>
      <trkpt lat="43.79714" lon="6.44421">
        <ele>724.889343</ele>
        <time>2015-12-28T12:51:08.000Z</time>
      </trkpt>
      <trkpt lat="43.79714" lon="6.44421">
        <ele>724.91803</ele>
        <time>2015-12-28T12:51:13.000Z</time>
      </trkpt>
      <trkpt lat="43.79714" lon="6.44421">
        <ele>724.97937</ele>
        <time>2015-12-28T12:51:18.000Z</time>
      </trkpt>
      <trkpt lat="43.79714" lon="6.44421">
        <ele>725.038757</ele>
        <time>2015-12-28T12:51:23.000Z</time>
      </trkpt>
      <trkpt lat="43.79714" lon="6.44421">
        <ele>725.080688</ele>
        <time>2015-12-28T12:51:28.000Z</time>
      </trkpt>
      <trkpt lat="43.79714" lon="6.44421">
        <ele>725.098999</ele>
        <time>2015-12-28T12:51:33.000Z</time>
      </trkpt>
      <trkpt lat="43.79714" lon="6.44421">
        <ele>725.116638</ele>
        <time>2015-12-28T12:51:38.000Z</time>
      </trkpt>
      <trkpt lat="43.79714" lon="6.44421">
        <ele>725.147644</ele>
        <time>2015-12-28T12:51:43.000Z</time>
      </trkpt>
      <trkpt lat="43.79714" lon="6.44421">
        <ele>725.204224</ele>
        <time>2015-12-28T12:51:48.000Z</time>
      </trkpt>
      <trkpt lat="43.79714" lon="6.44421">
        <ele>725.236084</ele>
        <time>2015-12-28T12:51:53.000Z</time>
      </trkpt>
      <trkpt lat="43.79714" lon="6.44421">
        <ele>725.250916</ele>
        <time>2015-12-28T12:51:58.000Z</time>
      </trkpt>
      <trkpt lat="43.79714" lon="6.44421">
        <ele>725.267273</ele>
        <time>2015-12-28T12:52:03.000Z</time>
      </trkpt>
      <trkpt lat="43.79714" lon="6.44421">
        <ele>725.26886</ele>
        <time>2015-12-28T12:52:08.000Z</time>
      </trkpt>
      <trkpt lat="43.79714" lon="6.44421">
        <ele>725.267578</ele>
        <time>2015-12-28T12:52:13.000Z</time>
      </trkpt>
      <trkpt lat="43.79714" lon="6.44421">
        <ele>725.25885</ele>
        <time>2015-12-28T12:52:18.000Z</time>
      </trkpt>
      <trkpt lat="43.79714" lon="6.44421">
        <ele>725.235107</ele>
        <time>2015-12-28T12:52:23.000Z</time>
      </trkpt>
      <trkpt lat="43.79714" lon="6.44421">
        <ele>725.203491</ele>
        <time>2015-12-28T12:52:28.000Z</time>
      </trkpt>
      <trkpt lat="43.79714" lon="6.44421">
        <ele>725.196533</ele>
        <time>2015-12-28T12:52:33.000Z</time>
      </trkpt>
      <trkpt lat="43.79714" lon="6.44421">
        <ele>725.20459</ele>
        <time>2015-12-28T12:52:38.000Z</time>
      </trkpt>
      <trkpt lat="43.79714" lon="6.44421">
        <ele>725.199951</ele>
        <time>2015-12-28T12:52:43.000Z</time>
      </trkpt>
      <trkpt lat="43.79714" lon="6.44421">
        <ele>725.188538</ele>
        <time>2015-12-28T12:52:48.000Z</time>
      </trkpt>
      <trkpt lat="43.79714" lon="6.44422">
        <ele>725.132141</ele>
        <time>2015-12-28T12:52:53.000Z</time>
      </trkpt>
      <trkpt lat="43.79715" lon="6.44422">
        <ele>724.247681</ele>
        <time>2015-12-28T12:52:58.000Z</time>
      </trkpt>
      <trkpt lat="43.79715" lon="6.44422">
        <ele>724.160339</ele>
        <time>2015-12-28T12:53:03.000Z</time>
      </trkpt>
      <trkpt lat="43.79715" lon="6.44422">
        <ele>724.131287</ele>
        <time>2015-12-28T12:53:08.000Z</time>
      </trkpt>
      <trkpt lat="43.79715" lon="6.44422">
        <ele>724.120544</ele>
        <time>2015-12-28T12:53:13.000Z</time>
      </trkpt>
      <trkpt lat="43.79715" lon="6.44422">
        <ele>723.894165</ele>
        <time>2015-12-28T12:53:18.000Z</time>
      </trkpt>
      <trkpt lat="43.79715" lon="6.44422">
        <ele>723.501099</ele>
        <time>2015-12-28T12:53:23.000Z</time>
      </trkpt>
      <trkpt lat="43.79715" lon="6.44422">
        <ele>723.46991</ele>
        <time>2015-12-28T12:53:28.000Z</time>
      </trkpt>
      <trkpt lat="43.79715" lon="6.44422">
        <ele>723.470398</ele>
        <time>2015-12-28T12:53:33.000Z</time>
      </trkpt>
      <trkpt lat="43.79715" lon="6.44422">
        <ele>723.447876</ele>
        <time>2015-12-28T12:53:38.000Z</time>
      </trkpt>
      <trkpt lat="43.79715" lon="6.44422">
        <ele>723.432617</ele>
        <time>2015-12-28T12:53:43.000Z</time>
      </trkpt>
      <trkpt lat="43.79715" lon="6.44422">
        <ele>723.423706</ele>
        <time>2015-12-28T12:53:48.000Z</time>
      </trkpt>
      <trkpt lat="43.79715" lon="6.44422">
        <ele>723.454773</ele>
        <time>2015-12-28T12:53:53.000Z</time>
      </trkpt>
      <trkpt lat="43.79715" lon="6.44422">
        <ele>723.466064</ele>
        <time>2015-12-28T12:53:58.000Z</time>
      </trkpt>
      <trkpt lat="43.79715" lon="6.44422">
        <ele>723.452209</ele>
        <time>2015-12-28T12:54:03.000Z</time>
      </trkpt>
      <trkpt lat="43.79715" lon="6.44422">
        <ele>723.407593</ele>
        <time>2015-12-28T12:54:08.000Z</time>
      </trkpt>
      <trkpt lat="43.79714" lon="6.44422">
        <ele>723.085815</ele>
        <time>2015-12-28T12:54:13.000Z</time>
      </trkpt>
      <trkpt lat="43.79715" lon="6.44422">
        <ele>722.726257</ele>
        <time>2015-12-28T12:54:18.000Z</time>
      </trkpt>
      <trkpt lat="43.79715" lon="6.44423">
        <ele>722.599731</ele>
        <time>2015-12-28T12:54:23.000Z</time>
      </trkpt>
      <trkpt lat="43.79716" lon="6.44423">
        <ele>722.50769</ele>
        <time>2015-12-28T12:54:28.000Z</time>
      </trkpt>
      <trkpt lat="43.79715" lon="6.44426">
        <ele>722.254883</ele>
        <time>2015-12-28T12:54:33.000Z</time>
      </trkpt>
      <trkpt lat="43.79714" lon="6.44426">
        <ele>722.199768</ele>
        <time>2015-12-28T12:54:38.000Z</time>
      </trkpt>
      <trkpt lat="43.79714" lon="6.44426">
        <ele>722.544739</ele>
        <time>2015-12-28T12:54:43.000Z</time>
      </trkpt>
      <trkpt lat="43.79717" lon="6.44426">
        <ele>723.119751</ele>
        <time>2015-12-28T12:54:48.000Z</time>
      </trkpt>
      <trkpt lat="43.79725" lon="6.4443">
        <ele>724.759216</ele>
        <time>2015-12-28T12:54:53.000Z</time>
      </trkpt>
      <trkpt lat="43.7973" lon="6.44437">
        <ele>726.345032</ele>
        <time>2015-12-28T12:54:58.000Z</time>
      </trkpt>
      <trkpt lat="43.7973" lon="6.44446">
        <ele>727.968445</ele>
        <time>2015-12-28T12:55:03.000Z</time>
      </trkpt>
      <trkpt lat="43.79727" lon="6.44454">
        <ele>729.061035</ele>
        <time>2015-12-28T12:55:08.000Z</time>
      </trkpt>
      <trkpt lat="43.79723" lon="6.4446">
        <ele>730.358643</ele>
        <time>2015-12-28T12:55:13.000Z</time>
      </trkpt>
      <trkpt lat="43.7972" lon="6.44468">
        <ele>731.479492</ele>
        <time>2015-12-28T12:55:18.000Z</time>
      </trkpt>
      <trkpt lat="43.79719" lon="6.44477">
        <ele>732.557373</ele>
        <time>2015-12-28T12:55:23.000Z</time>
      </trkpt>
      <trkpt lat="43.79719" lon="6.44484">
        <ele>733.054688</ele>
        <time>2015-12-28T12:55:28.000Z</time>
      </trkpt>
      <trkpt lat="43.7972" lon="6.44492">
        <ele>734.439819</ele>
        <time>2015-12-28T12:55:33.000Z</time>
      </trkpt>
      <trkpt lat="43.79721" lon="6.445">
        <ele>734.844543</ele>
        <time>2015-12-28T12:55:38.000Z</time>
      </trkpt>
      <trkpt lat="43.79723" lon="6.44508">
        <ele>734.507385</ele>
        <time>2015-12-28T12:55:43.000Z</time>
      </trkpt>
      <trkpt lat="43.79724" lon="6.44517">
        <ele>733.991699</ele>
        <time>2015-12-28T12:55:48.000Z</time>
      </trkpt>
      <trkpt lat="43.79725" lon="6.44528">
        <ele>734.394592</ele>
        <time>2015-12-28T12:55:53.000Z</time>
      </trkpt>
      <trkpt lat="43.79724" lon="6.44537">
        <ele>735.635254</ele>
        <time>2015-12-28T12:55:58.000Z</time>
      </trkpt>
      <trkpt lat="43.79723" lon="6.44546">
        <ele>736.430725</ele>
        <time>2015-12-28T12:56:03.000Z</time>
      </trkpt>
      <trkpt lat="43.7972" lon="6.44555">
        <ele>737.960938</ele>
        <time>2015-12-28T12:56:08.000Z</time>
      </trkpt>
      <trkpt lat="43.79716" lon="6.44566">
        <ele>738.252075</ele>
        <time>2015-12-28T12:56:13.000Z</time>
      </trkpt>
      <trkpt lat="43.79717" lon="6.44576">
        <ele>738.443909</ele>
        <time>2015-12-28T12:56:18.000Z</time>
      </trkpt>
      <trkpt lat="43.79721" lon="6.44584">
        <ele>739.33905</ele>
        <time>2015-12-28T12:56:23.000Z</time>
      </trkpt>
      <trkpt lat="43.79726" lon="6.44587">
        <ele>739.62439</ele>
        <time>2015-12-28T12:56:28.000Z</time>
      </trkpt>
      <trkpt lat="43.7973" lon="6.44592">
        <ele>741.158081</ele>
        <time>2015-12-28T12:56:33.000Z</time>
      </trkpt>
      <trkpt lat="43.79731" lon="6.44602">
        <ele>742.589661</ele>
        <time>2015-12-28T12:56:38.000Z</time>
      </trkpt>
      <trkpt lat="43.79729" lon="6.44611">
        <ele>744.719177</ele>
        <time>2015-12-28T12:56:43.000Z</time>
      </trkpt>
      <trkpt lat="43.79725" lon="6.44621">
        <ele>744.526062</ele>
        <time>2015-12-28T12:56:48.000Z</time>
      </trkpt>
      <trkpt lat="43.7972" lon="6.44631">
        <ele>744.855225</ele>
        <time>2015-12-28T12:56:53.000Z</time>
      </trkpt>
      <trkpt lat="43.79717" lon="6.44638">
        <ele>743.296753</ele>
        <time>2015-12-28T12:56:58.000Z</time>
      </trkpt>
      <trkpt lat="43.79712" lon="6.44645">
        <ele>742.553284</ele>
        <time>2015-12-28T12:57:03.000Z</time>
      </trkpt>
      <trkpt lat="43.79705" lon="6.44649">
        <ele>743.065552</ele>
        <time>2015-12-28T12:57:08.000Z</time>
      </trkpt>
      <trkpt lat="43.79699" lon="6.44654">
        <ele>743.766968</ele>
        <time>2015-12-28T12:57:13.000Z</time>
      </trkpt>
      <trkpt lat="43.79693" lon="6.44659">
        <ele>743.799194</ele>
        <time>2015-12-28T12:57:18.000Z</time>
      </trkpt>
      <trkpt lat="43.79688" lon="6.44664">
        <ele>744.857849</ele>
        <time>2015-12-28T12:57:23.000Z</time>
      </trkpt>
      <trkpt lat="43.79683" lon="6.44668">
        <ele>746.199524</ele>
        <time>2015-12-28T12:57:28.000Z</time>
      </trkpt>
      <trkpt lat="43.79677" lon="6.44672">
        <ele>747.250305</ele>
        <time>2015-12-28T12:57:33.000Z</time>
      </trkpt>
      <trkpt lat="43.79671" lon="6.44674">
        <ele>748.843872</ele>
        <time>2015-12-28T12:57:38.000Z</time>
      </trkpt>
      <trkpt lat="43.79665" lon="6.44677">
        <ele>750.894531</ele>
        <time>2015-12-28T12:57:43.000Z</time>
      </trkpt>
      <trkpt lat="43.79659" lon="6.44679">
        <ele>751.981445</ele>
        <time>2015-12-28T12:57:48.000Z</time>
      </trkpt>
      <trkpt lat="43.79653" lon="6.44681">
        <ele>752.459473</ele>
        <time>2015-12-28T12:57:53.000Z</time>
      </trkpt>
      <trkpt lat="43.79647" lon="6.44682">
        <ele>753.67804</ele>
        <time>2015-12-28T12:57:58.000Z</time>
      </trkpt>
      <trkpt lat="43.79641" lon="6.44687">
        <ele>753.30603</ele>
        <time>2015-12-28T12:58:03.000Z</time>
      </trkpt>
      <trkpt lat="43.79636" lon="6.44691">
        <ele>753.827515</ele>
        <time>2015-12-28T12:58:08.000Z</time>
      </trkpt>
      <trkpt lat="43.79632" lon="6.44695">
        <ele>754.830933</ele>
        <time>2015-12-28T12:58:13.000Z</time>
      </trkpt>
      <trkpt lat="43.79628" lon="6.44701">
        <ele>755.305542</ele>
        <time>2015-12-28T12:58:18.000Z</time>
      </trkpt>
      <trkpt lat="43.79625" lon="6.44708">
        <ele>755.775452</ele>
        <time>2015-12-28T12:58:23.000Z</time>
      </trkpt>
      <trkpt lat="43.79623" lon="6.44713">
        <ele>757.397217</ele>
        <time>2015-12-28T12:58:28.000Z</time>
      </trkpt>
      <trkpt lat="43.79619" lon="6.44721">
        <ele>758.603943</ele>
        <time>2015-12-28T12:58:33.000Z</time>
      </trkpt>
      <trkpt lat="43.79616" lon="6.44725">
        <ele>759.944702</ele>
        <time>2015-12-28T12:58:38.000Z</time>
      </trkpt>
      <trkpt lat="43.79611" lon="6.4473">
        <ele>760.735352</ele>
        <time>2015-12-28T12:58:43.000Z</time>
      </trkpt>
      <trkpt lat="43.79606" lon="6.44734">
        <ele>762.454956</ele>
        <time>2015-12-28T12:58:48.000Z</time>
      </trkpt>
      <trkpt lat="43.79601" lon="6.44735">
        <ele>763.857605</ele>
        <time>2015-12-28T12:58:53.000Z</time>
      </trkpt>
      <trkpt lat="43.79596" lon="6.44735">
        <ele>766.188782</ele>
        <time>2015-12-28T12:58:58.000Z</time>
      </trkpt>
      <trkpt lat="43.79588" lon="6.44736">
        <ele>766.463501</ele>
        <time>2015-12-28T12:59:03.000Z</time>
      </trkpt>
      <trkpt lat="43.79581" lon="6.44736">
        <ele>767.365967</ele>
        <time>2015-12-28T12:59:08.000Z</time>
      </trkpt>
      <trkpt lat="43.79575" lon="6.44737">
        <ele>769.316467</ele>
        <time>2015-12-28T12:59:13.000Z</time>
      </trkpt>
      <trkpt lat="43.79569" lon="6.44737">
        <ele>770.006042</ele>
        <time>2015-12-28T12:59:18.000Z</time>
      </trkpt>
      <trkpt lat="43.79561" lon="6.44736">
        <ele>770.979065</ele>
        <time>2015-12-28T12:59:23.000Z</time>
      </trkpt>
      <trkpt lat="43.79555" lon="6.44736">
        <ele>772.016602</ele>
        <time>2015-12-28T12:59:28.000Z</time>
      </trkpt>
      <trkpt lat="43.79548" lon="6.44742">
        <ele>771.392578</ele>
        <time>2015-12-28T12:59:33.000Z</time>
      </trkpt>
      <trkpt lat="43.79543" lon="6.44749">
        <ele>772.1604</ele>
        <time>2015-12-28T12:59:38.000Z</time>
      </trkpt>
      <trkpt lat="43.79542" lon="6.44759">
        <ele>772.515991</ele>
        <time>2015-12-28T12:59:43.000Z</time>
      </trkpt>
      <trkpt lat="43.79539" lon="6.44767">
        <ele>773.047974</ele>
        <time>2015-12-28T12:59:48.000Z</time>
      </trkpt>
      <trkpt lat="43.79538" lon="6.44775">
        <ele>772.505676</ele>
        <time>2015-12-28T12:59:53.000Z</time>
      </trkpt>
      <trkpt lat="43.79537" lon="6.44785">
        <ele>772.978333</ele>
        <time>2015-12-28T12:59:58.000Z</time>
      </trkpt>
      <trkpt lat="43.79535" lon="6.44795">
        <ele>774.793945</ele>
        <time>2015-12-28T13:00:03.000Z</time>
      </trkpt>
      <trkpt lat="43.79534" lon="6.44804">
        <ele>776.692993</ele>
        <time>2015-12-28T13:00:08.000Z</time>
      </trkpt>
      <trkpt lat="43.79533" lon="6.44815">
        <ele>775.885681</ele>
        <time>2015-12-28T13:00:13.000Z</time>
      </trkpt>
      <trkpt lat="43.79531" lon="6.44825">
        <ele>776.962769</ele>
        <time>2015-12-28T13:00:18.000Z</time>
      </trkpt>
      <trkpt lat="43.79527" lon="6.44835">
        <ele>778.149536</ele>
        <time>2015-12-28T13:00:23.000Z</time>
      </trkpt>
      <trkpt lat="43.79521" lon="6.44843">
        <ele>778.500916</ele>
        <time>2015-12-28T13:00:28.000Z</time>
      </trkpt>
      <trkpt lat="43.79514" lon="6.44849">
        <ele>778.7052</ele>
        <time>2015-12-28T13:00:33.000Z</time>
      </trkpt>
      <trkpt lat="43.79507" lon="6.44858">
        <ele>777.993835</ele>
        <time>2015-12-28T13:00:38.000Z</time>
      </trkpt>
      <trkpt lat="43.79502" lon="6.44867">
        <ele>778.293579</ele>
        <time>2015-12-28T13:00:43.000Z</time>
      </trkpt>
      <trkpt lat="43.79497" lon="6.44877">
        <ele>779.069519</ele>
        <time>2015-12-28T13:00:48.000Z</time>
      </trkpt>
      <trkpt lat="43.79489" lon="6.44882">
        <ele>779.284058</ele>
        <time>2015-12-28T13:00:53.000Z</time>
      </trkpt>
      <trkpt lat="43.79481" lon="6.44885">
        <ele>780.283875</ele>
        <time>2015-12-28T13:00:58.000Z</time>
      </trkpt>
      <trkpt lat="43.79473" lon="6.4489">
        <ele>782.365051</ele>
        <time>2015-12-28T13:01:03.000Z</time>
      </trkpt>
      <trkpt lat="43.79465" lon="6.44897">
        <ele>783.247131</ele>
        <time>2015-12-28T13:01:08.000Z</time>
      </trkpt>
      <trkpt lat="43.79459" lon="6.44909">
        <ele>783.301453</ele>
        <time>2015-12-28T13:01:13.000Z</time>
      </trkpt>
      <trkpt lat="43.79452" lon="6.44921">
        <ele>783.192322</ele>
        <time>2015-12-28T13:01:18.000Z</time>
      </trkpt>
      <trkpt lat="43.79449" lon="6.44934">
        <ele>781.920715</ele>
        <time>2015-12-28T13:01:23.000Z</time>
      </trkpt>
      <trkpt lat="43.79449" lon="6.44946">
        <ele>782.28949</ele>
        <time>2015-12-28T13:01:28.000Z</time>
      </trkpt>
      <trkpt lat="43.79451" lon="6.4496">
        <ele>783.162903</ele>
        <time>2015-12-28T13:01:33.000Z</time>
      </trkpt>
      <trkpt lat="43.79457" lon="6.44974">
        <ele>785.504028</ele>
        <time>2015-12-28T13:01:38.000Z</time>
      </trkpt>
      <trkpt lat="43.79463" lon="6.44985">
        <ele>787.008118</ele>
        <time>2015-12-28T13:01:43.000Z</time>
      </trkpt>
      <trkpt lat="43.79465" lon="6.44998">
        <ele>789.26532</ele>
        <time>2015-12-28T13:01:48.000Z</time>
      </trkpt>
      <trkpt lat="43.79466" lon="6.45012">
        <ele>786.329346</ele>
        <time>2015-12-28T13:01:53.000Z</time>
      </trkpt>
      <trkpt lat="43.79466" lon="6.45025">
        <ele>788.302246</ele>
        <time>2015-12-28T13:01:58.000Z</time>
      </trkpt>
      <trkpt lat="43.79466" lon="6.45041">
        <ele>787.837341</ele>
        <time>2015-12-28T13:02:03.000Z</time>
      </trkpt>
      <trkpt lat="43.7946" lon="6.4505">
        <ele>790.422302</ele>
        <time>2015-12-28T13:02:08.000Z</time>
      </trkpt>
      <trkpt lat="43.79456" lon="6.45063">
        <ele>790.544983</ele>
        <time>2015-12-28T13:02:13.000Z</time>
      </trkpt>
      <trkpt lat="43.79452" lon="6.45074">
        <ele>791.139404</ele>
        <time>2015-12-28T13:02:18.000Z</time>
      </trkpt>
      <trkpt lat="43.79451" lon="6.45085">
        <ele>791.118103</ele>
        <time>2015-12-28T13:02:23.000Z</time>
      </trkpt>
      <trkpt lat="43.79454" lon="6.45099">
        <ele>790.931946</ele>
        <time>2015-12-28T13:02:28.000Z</time>
      </trkpt>
      <trkpt lat="43.79458" lon="6.45111">
        <ele>792.09491</ele>
        <time>2015-12-28T13:02:33.000Z</time>
      </trkpt>
      <trkpt lat="43.79462" lon="6.45119">
        <ele>794.651917</ele>
        <time>2015-12-28T13:02:38.000Z</time>
      </trkpt>
      <trkpt lat="43.79465" lon="6.45129">
        <ele>795.748169</ele>
        <time>2015-12-28T13:02:43.000Z</time>
      </trkpt>
      <trkpt lat="43.79468" lon="6.45142">
        <ele>794.877502</ele>
        <time>2015-12-28T13:02:48.000Z</time>
      </trkpt>
      <trkpt lat="43.7947" lon="6.45155">
        <ele>794.84906</ele>
        <time>2015-12-28T13:02:53.000Z</time>
      </trkpt>
      <trkpt lat="43.79469" lon="6.45166">
        <ele>796.599915</ele>
        <time>2015-12-28T13:02:58.000Z</time>
      </trkpt>
      <trkpt lat="43.79467" lon="6.45175">
        <ele>795.903259</ele>
        <time>2015-12-28T13:03:03.000Z</time>
      </trkpt>
      <trkpt lat="43.79464" lon="6.45186">
        <ele>795.502747</ele>
        <time>2015-12-28T13:03:08.000Z</time>
      </trkpt>
      <trkpt lat="43.79468" lon="6.45196">
        <ele>795.018372</ele>
        <time>2015-12-28T13:03:13.000Z</time>
      </trkpt>
      <trkpt lat="43.79474" lon="6.45199">
        <ele>796.921509</ele>
        <time>2015-12-28T13:03:18.000Z</time>
      </trkpt>
      <trkpt lat="43.79477" lon="6.45198">
        <ele>797.407043</ele>
        <time>2015-12-28T13:03:23.000Z</time>
      </trkpt>
      <trkpt lat="43.79476" lon="6.45197">
        <ele>797.03241</ele>
        <time>2015-12-28T13:03:28.000Z</time>
      </trkpt>
      <trkpt lat="43.79476" lon="6.45197">
        <ele>797.092346</ele>
        <time>2015-12-28T13:03:33.000Z</time>
      </trkpt>
      <trkpt lat="43.79476" lon="6.45197">
        <ele>797.084839</ele>
        <time>2015-12-28T13:03:38.000Z</time>
      </trkpt>
      <trkpt lat="43.79476" lon="6.45197">
        <ele>797.07312</ele>
        <time>2015-12-28T13:03:43.000Z</time>
      </trkpt>
      <trkpt lat="43.79476" lon="6.45197">
        <ele>797.056763</ele>
        <time>2015-12-28T13:03:48.000Z</time>
      </trkpt>
      <trkpt lat="43.79476" lon="6.45197">
        <ele>797.055115</ele>
        <time>2015-12-28T13:03:53.000Z</time>
      </trkpt>
      <trkpt lat="43.79476" lon="6.45197">
        <ele>797.077271</ele>
        <time>2015-12-28T13:03:58.000Z</time>
      </trkpt>
      <trkpt lat="43.79476" lon="6.45197">
        <ele>797.090698</ele>
        <time>2015-12-28T13:04:03.000Z</time>
      </trkpt>
      <trkpt lat="43.79476" lon="6.45197">
        <ele>797.118164</ele>
        <time>2015-12-28T13:04:08.000Z</time>
      </trkpt>
      <trkpt lat="43.79476" lon="6.45197">
        <ele>797.127991</ele>
        <time>2015-12-28T13:04:13.000Z</time>
      </trkpt>
      <trkpt lat="43.79476" lon="6.45197">
        <ele>797.137939</ele>
        <time>2015-12-28T13:04:18.000Z</time>
      </trkpt>
      <trkpt lat="43.79476" lon="6.45197">
        <ele>797.141541</ele>
        <time>2015-12-28T13:04:23.000Z</time>
      </trkpt>
      <trkpt lat="43.79476" lon="6.45197">
        <ele>797.156677</ele>
        <time>2015-12-28T13:04:28.000Z</time>
      </trkpt>
      <trkpt lat="43.79476" lon="6.45197">
        <ele>797.171509</ele>
        <time>2015-12-28T13:04:33.000Z</time>
      </trkpt>
      <trkpt lat="43.79476" lon="6.45196">
        <ele>797.18573</ele>
        <time>2015-12-28T13:04:38.000Z</time>
      </trkpt>
      <trkpt lat="43.79476" lon="6.45196">
        <ele>797.201355</ele>
        <time>2015-12-28T13:04:43.000Z</time>
      </trkpt>
      <trkpt lat="43.79476" lon="6.45196">
        <ele>797.208252</ele>
        <time>2015-12-28T13:04:48.000Z</time>
      </trkpt>
      <trkpt lat="43.79476" lon="6.45196">
        <ele>797.228821</ele>
        <time>2015-12-28T13:04:53.000Z</time>
      </trkpt>
      <trkpt lat="43.79476" lon="6.45197">
        <ele>797.231812</ele>
        <time>2015-12-28T13:04:58.000Z</time>
      </trkpt>
      <trkpt lat="43.79476" lon="6.45197">
        <ele>797.266785</ele>
        <time>2015-12-28T13:05:03.000Z</time>
      </trkpt>
      <trkpt lat="43.79476" lon="6.45197">
        <ele>797.263672</ele>
        <time>2015-12-28T13:05:08.000Z</time>
      </trkpt>
      <trkpt lat="43.79476" lon="6.45197">
        <ele>797.281372</ele>
        <time>2015-12-28T13:05:13.000Z</time>
      </trkpt>
      <trkpt lat="43.79476" lon="6.45197">
        <ele>797.273315</ele>
        <time>2015-12-28T13:05:18.000Z</time>
      </trkpt>
      <trkpt lat="43.79477" lon="6.45193">
        <ele>796.857666</ele>
        <time>2015-12-28T13:05:23.000Z</time>
      </trkpt>
      <trkpt lat="43.79477" lon="6.45194">
        <ele>797.329224</ele>
        <time>2015-12-28T13:05:28.000Z</time>
      </trkpt>
      <trkpt lat="43.79477" lon="6.45194">
        <ele>797.250305</ele>
        <time>2015-12-28T13:05:33.000Z</time>
      </trkpt>
      <trkpt lat="43.79477" lon="6.45194">
        <ele>797.21106</ele>
        <time>2015-12-28T13:05:38.000Z</time>
      </trkpt>
      <trkpt lat="43.79477" lon="6.45194">
        <ele>797.219666</ele>
        <time>2015-12-28T13:05:43.000Z</time>
      </trkpt>
      <trkpt lat="43.79477" lon="6.45194">
        <ele>797.217163</ele>
        <time>2015-12-28T13:05:48.000Z</time>
      </trkpt>
      <trkpt lat="43.79477" lon="6.45194">
        <ele>797.200562</ele>
        <time>2015-12-28T13:05:53.000Z</time>
      </trkpt>
      <trkpt lat="43.79477" lon="6.45194">
        <ele>797.204163</ele>
        <time>2015-12-28T13:05:58.000Z</time>
      </trkpt>
      <trkpt lat="43.79477" lon="6.45194">
        <ele>797.230713</ele>
        <time>2015-12-28T13:06:03.000Z</time>
      </trkpt>
      <trkpt lat="43.79477" lon="6.45194">
        <ele>797.260132</ele>
        <time>2015-12-28T13:06:08.000Z</time>
      </trkpt>
      <trkpt lat="43.79477" lon="6.45194">
        <ele>797.262695</ele>
        <time>2015-12-28T13:06:13.000Z</time>
      </trkpt>
      <trkpt lat="43.79477" lon="6.45194">
        <ele>797.265381</ele>
        <time>2015-12-28T13:06:18.000Z</time>
      </trkpt>
      <trkpt lat="43.79477" lon="6.45194">
        <ele>797.270935</ele>
        <time>2015-12-28T13:06:23.000Z</time>
      </trkpt>
      <trkpt lat="43.79477" lon="6.45194">
        <ele>797.276306</ele>
        <time>2015-12-28T13:06:28.000Z</time>
      </trkpt>
      <trkpt lat="43.79477" lon="6.45194">
        <ele>797.307983</ele>
        <time>2015-12-28T13:06:33.000Z</time>
      </trkpt>
      <trkpt lat="43.79479" lon="6.45192">
        <ele>797.22644</ele>
        <time>2015-12-28T13:06:38.000Z</time>
      </trkpt>
      <trkpt lat="43.79482" lon="6.45186">
        <ele>798.360901</ele>
        <time>2015-12-28T13:06:43.000Z</time>
      </trkpt>
      <trkpt lat="43.79486" lon="6.45171">
        <ele>798.356506</ele>
        <time>2015-12-28T13:06:48.000Z</time>
      </trkpt>
      <trkpt lat="43.79488" lon="6.45154">
        <ele>799.656677</ele>
        <time>2015-12-28T13:06:53.000Z</time>
      </trkpt>
      <trkpt lat="43.7949" lon="6.4514">
        <ele>802.823975</ele>
        <time>2015-12-28T13:06:58.000Z</time>
      </trkpt>
      <trkpt lat="43.79494" lon="6.45127">
        <ele>806.234314</ele>
        <time>2015-12-28T13:07:03.000Z</time>
      </trkpt>
      <trkpt lat="43.79497" lon="6.45113">
        <ele>807.580994</ele>
        <time>2015-12-28T13:07:08.000Z</time>
      </trkpt>
      <trkpt lat="43.79501" lon="6.45099">
        <ele>807.631287</ele>
        <time>2015-12-28T13:07:13.000Z</time>
      </trkpt>
      <trkpt lat="43.79505" lon="6.45085">
        <ele>806.819275</ele>
        <time>2015-12-28T13:07:18.000Z</time>
      </trkpt>
      <trkpt lat="43.7951" lon="6.45072">
        <ele>804.847351</ele>
        <time>2015-12-28T13:07:23.000Z</time>
      </trkpt>
      <trkpt lat="43.79518" lon="6.45063">
        <ele>807.76001</ele>
        <time>2015-12-28T13:07:28.000Z</time>
      </trkpt>
      <trkpt lat="43.79527" lon="6.45062">
        <ele>810.555359</ele>
        <time>2015-12-28T13:07:33.000Z</time>
      </trkpt>
      <trkpt lat="43.79537" lon="6.45064">
        <ele>809.458313</ele>
        <time>2015-12-28T13:07:38.000Z</time>
      </trkpt>
      <trkpt lat="43.79545" lon="6.45069">
        <ele>808.288208</ele>
        <time>2015-12-28T13:07:43.000Z</time>
      </trkpt>
      <trkpt lat="43.79553" lon="6.45075">
        <ele>810.45697</ele>
        <time>2015-12-28T13:07:48.000Z</time>
      </trkpt>
      <trkpt lat="43.79559" lon="6.45084">
        <ele>811.309082</ele>
        <time>2015-12-28T13:07:53.000Z</time>
      </trkpt>
      <trkpt lat="43.79562" lon="6.45094">
        <ele>813.29425</ele>
        <time>2015-12-28T13:07:58.000Z</time>
      </trkpt>
      <trkpt lat="43.79563" lon="6.45103">
        <ele>814.72876</ele>
        <time>2015-12-28T13:08:03.000Z</time>
      </trkpt>
      <trkpt lat="43.79565" lon="6.45115">
        <ele>815.296021</ele>
        <time>2015-12-28T13:08:08.000Z</time>
      </trkpt>
      <trkpt lat="43.79567" lon="6.45126">
        <ele>816.427429</ele>
        <time>2015-12-28T13:08:13.000Z</time>
      </trkpt>
      <trkpt lat="43.79574" lon="6.45133">
        <ele>817.343262</ele>
        <time>2015-12-28T13:08:18.000Z</time>
      </trkpt>
      <trkpt lat="43.7958" lon="6.45134">
        <ele>817.714417</ele>
        <time>2015-12-28T13:08:23.000Z</time>
      </trkpt>
      <trkpt lat="43.79587" lon="6.45132">
        <ele>819.447083</ele>
        <time>2015-12-28T13:08:28.000Z</time>
      </trkpt>
      <trkpt lat="43.79593" lon="6.45128">
        <ele>819.963928</ele>
        <time>2015-12-28T13:08:33.000Z</time>
      </trkpt>
      <trkpt lat="43.79599" lon="6.45124">
        <ele>820.05304</ele>
        <time>2015-12-28T13:08:38.000Z</time>
      </trkpt>
      <trkpt lat="43.79606" lon="6.4512">
        <ele>821.023743</ele>
        <time>2015-12-28T13:08:43.000Z</time>
      </trkpt>
      <trkpt lat="43.79612" lon="6.45115">
        <ele>820.919434</ele>
        <time>2015-12-28T13:08:48.000Z</time>
      </trkpt>
      <trkpt lat="43.79619" lon="6.45112">
        <ele>822.205811</ele>
        <time>2015-12-28T13:08:53.000Z</time>
      </trkpt>
      <trkpt lat="43.79626" lon="6.45107">
        <ele>821.442017</ele>
        <time>2015-12-28T13:08:58.000Z</time>
      </trkpt>
      <trkpt lat="43.79633" lon="6.45102">
        <ele>821.218201</ele>
        <time>2015-12-28T13:09:03.000Z</time>
      </trkpt>
      <trkpt lat="43.79639" lon="6.45095">
        <ele>821.585266</ele>
        <time>2015-12-28T13:09:08.000Z</time>
      </trkpt>
      <trkpt lat="43.79645" lon="6.45087">
        <ele>822.446289</ele>
        <time>2015-12-28T13:09:13.000Z</time>
      </trkpt>
      <trkpt lat="43.79648" lon="6.45076">
        <ele>823.349731</ele>
        <time>2015-12-28T13:09:18.000Z</time>
      </trkpt>
      <trkpt lat="43.79653" lon="6.45066">
        <ele>822.484192</ele>
        <time>2015-12-28T13:09:23.000Z</time>
      </trkpt>
      <trkpt lat="43.79657" lon="6.45056">
        <ele>823.379272</ele>
        <time>2015-12-28T13:09:28.000Z</time>
      </trkpt>
      <trkpt lat="43.79663" lon="6.45054">
        <ele>825.243469</ele>
        <time>2015-12-28T13:09:33.000Z</time>
      </trkpt>
      <trkpt lat="43.79668" lon="6.45062">
        <ele>826.047363</ele>
        <time>2015-12-28T13:09:38.000Z</time>
      </trkpt>
      <trkpt lat="43.79667" lon="6.45073">
        <ele>825.524475</ele>
        <time>2015-12-28T13:09:43.000Z</time>
      </trkpt>
      <trkpt lat="43.79666" lon="6.45084">
        <ele>825.822266</ele>
        <time>2015-12-28T13:09:48.000Z</time>
      </trkpt>
      <trkpt lat="43.79667" lon="6.45093">
        <ele>825.60907</ele>
        <time>2015-12-28T13:09:53.000Z</time>
      </trkpt>
      <trkpt lat="43.79668" lon="6.45102">
        <ele>826.066467</ele>
        <time>2015-12-28T13:09:58.000Z</time>
      </trkpt>
      <trkpt lat="43.79669" lon="6.45111">
        <ele>826.507935</ele>
        <time>2015-12-28T13:10:03.000Z</time>
      </trkpt>
      <trkpt lat="43.79669" lon="6.4512">
        <ele>827.291016</ele>
        <time>2015-12-28T13:10:08.000Z</time>
      </trkpt>
      <trkpt lat="43.7967" lon="6.45129">
        <ele>828.128052</ele>
        <time>2015-12-28T13:10:13.000Z</time>
      </trkpt>
      <trkpt lat="43.79674" lon="6.45138">
        <ele>828.266663</ele>
        <time>2015-12-28T13:10:18.000Z</time>
      </trkpt>
      <trkpt lat="43.79679" lon="6.45147">
        <ele>828.083374</ele>
        <time>2015-12-28T13:10:23.000Z</time>
      </trkpt>
      <trkpt lat="43.79685" lon="6.45155">
        <ele>828.409668</ele>
        <time>2015-12-28T13:10:28.000Z</time>
      </trkpt>
      <trkpt lat="43.79691" lon="6.45164">
        <ele>828.150635</ele>
        <time>2015-12-28T13:10:33.000Z</time>
      </trkpt>
      <trkpt lat="43.79695" lon="6.45175">
        <ele>828.390808</ele>
        <time>2015-12-28T13:10:38.000Z</time>
      </trkpt>
      <trkpt lat="43.79696" lon="6.45186">
        <ele>828.840088</ele>
        <time>2015-12-28T13:10:43.000Z</time>
      </trkpt>
      <trkpt lat="43.79696" lon="6.45198">
        <ele>829.713562</ele>
        <time>2015-12-28T13:10:48.000Z</time>
      </trkpt>
      <trkpt lat="43.79694" lon="6.45209">
        <ele>829.651245</ele>
        <time>2015-12-28T13:10:53.000Z</time>
      </trkpt>
      <trkpt lat="43.7969" lon="6.45219">
        <ele>829.201721</ele>
        <time>2015-12-28T13:10:58.000Z</time>
      </trkpt>
      <trkpt lat="43.79689" lon="6.45229">
        <ele>830.53595</ele>
        <time>2015-12-28T13:11:03.000Z</time>
      </trkpt>
      <trkpt lat="43.79689" lon="6.4524">
        <ele>833.374512</ele>
        <time>2015-12-28T13:11:08.000Z</time>
      </trkpt>
      <trkpt lat="43.79688" lon="6.45251">
        <ele>834.587463</ele>
        <time>2015-12-28T13:11:13.000Z</time>
      </trkpt>
      <trkpt lat="43.79686" lon="6.45261">
        <ele>835.153931</ele>
        <time>2015-12-28T13:11:18.000Z</time>
      </trkpt>
      <trkpt lat="43.79686" lon="6.45271">
        <ele>836.195984</ele>
        <time>2015-12-28T13:11:23.000Z</time>
      </trkpt>
      <trkpt lat="43.79686" lon="6.4528">
        <ele>837.88501</ele>
        <time>2015-12-28T13:11:28.000Z</time>
      </trkpt>
      <trkpt lat="43.79685" lon="6.4529">
        <ele>840.190735</ele>
        <time>2015-12-28T13:11:33.000Z</time>
      </trkpt>
      <trkpt lat="43.79686" lon="6.45301">
        <ele>842.083496</ele>
        <time>2015-12-28T13:11:38.000Z</time>
      </trkpt>
      <trkpt lat="43.79687" lon="6.45311">
        <ele>843.550293</ele>
        <time>2015-12-28T13:11:43.000Z</time>
      </trkpt>
      <trkpt lat="43.79688" lon="6.45322">
        <ele>844.623535</ele>
        <time>2015-12-28T13:11:48.000Z</time>
      </trkpt>
      <trkpt lat="43.79687" lon="6.45331">
        <ele>846.245789</ele>
        <time>2015-12-28T13:11:53.000Z</time>
      </trkpt>
      <trkpt lat="43.79687" lon="6.4534">
        <ele>845.88208</ele>
        <time>2015-12-28T13:11:58.000Z</time>
      </trkpt>
      <trkpt lat="43.79687" lon="6.45348">
        <ele>844.966431</ele>
        <time>2015-12-28T13:12:03.000Z</time>
      </trkpt>
      <trkpt lat="43.79687" lon="6.45358">
        <ele>844.645935</ele>
        <time>2015-12-28T13:12:08.000Z</time>
      </trkpt>
      <trkpt lat="43.79685" lon="6.45366">
        <ele>845.671204</ele>
        <time>2015-12-28T13:12:13.000Z</time>
      </trkpt>
      <trkpt lat="43.79682" lon="6.45374">
        <ele>843.88446</ele>
        <time>2015-12-28T13:12:18.000Z</time>
      </trkpt>
      <trkpt lat="43.79679" lon="6.45384">
        <ele>844.056946</ele>
        <time>2015-12-28T13:12:23.000Z</time>
      </trkpt>
      <trkpt lat="43.79676" lon="6.45393">
        <ele>844.360046</ele>
        <time>2015-12-28T13:12:28.000Z</time>
      </trkpt>
      <trkpt lat="43.79673" lon="6.45402">
        <ele>845.047485</ele>
        <time>2015-12-28T13:12:33.000Z</time>
      </trkpt>
      <trkpt lat="43.79671" lon="6.4541">
        <ele>845.315491</ele>
        <time>2015-12-28T13:12:38.000Z</time>
      </trkpt>
      <trkpt lat="43.79666" lon="6.45418">
        <ele>846.457703</ele>
        <time>2015-12-28T13:12:43.000Z</time>
      </trkpt>
      <trkpt lat="43.79662" lon="6.45426">
        <ele>848.113586</ele>
        <time>2015-12-28T13:12:48.000Z</time>
      </trkpt>
      <trkpt lat="43.79658" lon="6.45433">
        <ele>849.358398</ele>
        <time>2015-12-28T13:12:53.000Z</time>
      </trkpt>
      <trkpt lat="43.79654" lon="6.45443">
        <ele>849.562988</ele>
        <time>2015-12-28T13:12:58.000Z</time>
      </trkpt>
      <trkpt lat="43.79649" lon="6.4545">
        <ele>849.692505</ele>
        <time>2015-12-28T13:13:03.000Z</time>
      </trkpt>
      <trkpt lat="43.79644" lon="6.45458">
        <ele>848.768921</ele>
        <time>2015-12-28T13:13:08.000Z</time>
      </trkpt>
      <trkpt lat="43.79638" lon="6.45462">
        <ele>847.872803</ele>
        <time>2015-12-28T13:13:13.000Z</time>
      </trkpt>
      <trkpt lat="43.79631" lon="6.45465">
        <ele>848.099976</ele>
        <time>2015-12-28T13:13:18.000Z</time>
      </trkpt>
      <trkpt lat="43.79626" lon="6.45473">
        <ele>848.093506</ele>
        <time>2015-12-28T13:13:23.000Z</time>
      </trkpt>
      <trkpt lat="43.79629" lon="6.45483">
        <ele>848.967224</ele>
        <time>2015-12-28T13:13:28.000Z</time>
      </trkpt>
      <trkpt lat="43.79635" lon="6.45488">
        <ele>848.612305</ele>
        <time>2015-12-28T13:13:33.000Z</time>
      </trkpt>
      <trkpt lat="43.79643" lon="6.4549">
        <ele>850.322266</ele>
        <time>2015-12-28T13:13:38.000Z</time>
      </trkpt>
      <trkpt lat="43.79649" lon="6.45491">
        <ele>851.689209</ele>
        <time>2015-12-28T13:13:43.000Z</time>
      </trkpt>
      <trkpt lat="43.79656" lon="6.45492">
        <ele>851.89978</ele>
        <time>2015-12-28T13:13:48.000Z</time>
      </trkpt>
      <trkpt lat="43.79664" lon="6.45493">
        <ele>853.086182</ele>
        <time>2015-12-28T13:13:53.000Z</time>
      </trkpt>
      <trkpt lat="43.7967" lon="6.45494">
        <ele>854.328491</ele>
        <time>2015-12-28T13:13:58.000Z</time>
      </trkpt>
      <trkpt lat="43.79677" lon="6.45494">
        <ele>854.922974</ele>
        <time>2015-12-28T13:14:03.000Z</time>
      </trkpt>
      <trkpt lat="43.79684" lon="6.45495">
        <ele>855.285889</ele>
        <time>2015-12-28T13:14:08.000Z</time>
      </trkpt>
      <trkpt lat="43.79691" lon="6.45497">
        <ele>856.207153</ele>
        <time>2015-12-28T13:14:13.000Z</time>
      </trkpt>
      <trkpt lat="43.79697" lon="6.45502">
        <ele>857.203674</ele>
        <time>2015-12-28T13:14:18.000Z</time>
      </trkpt>
      <trkpt lat="43.79698" lon="6.45502">
        <ele>856.336609</ele>
        <time>2015-12-28T13:14:23.000Z</time>
      </trkpt>
      <trkpt lat="43.79698" lon="6.45502">
        <ele>855.660706</ele>
        <time>2015-12-28T13:14:28.000Z</time>
      </trkpt>
      <trkpt lat="43.79698" lon="6.45502">
        <ele>855.630737</ele>
        <time>2015-12-28T13:14:33.000Z</time>
      </trkpt>
      <trkpt lat="43.79698" lon="6.45502">
        <ele>855.622375</ele>
        <time>2015-12-28T13:14:38.000Z</time>
      </trkpt>
      <trkpt lat="43.79698" lon="6.45502">
        <ele>855.607422</ele>
        <time>2015-12-28T13:14:43.000Z</time>
      </trkpt>
      <trkpt lat="43.79698" lon="6.45502">
        <ele>855.58905</ele>
        <time>2015-12-28T13:14:48.000Z</time>
      </trkpt>
      <trkpt lat="43.79698" lon="6.45502">
        <ele>855.576294</ele>
        <time>2015-12-28T13:14:53.000Z</time>
      </trkpt>
      <trkpt lat="43.79698" lon="6.45502">
        <ele>855.555908</ele>
        <time>2015-12-28T13:14:58.000Z</time>
      </trkpt>
      <trkpt lat="43.79698" lon="6.45502">
        <ele>855.53595</ele>
        <time>2015-12-28T13:15:03.000Z</time>
      </trkpt>
      <trkpt lat="43.79698" lon="6.45502">
        <ele>855.520874</ele>
        <time>2015-12-28T13:15:08.000Z</time>
      </trkpt>
      <trkpt lat="43.79698" lon="6.45502">
        <ele>855.484985</ele>
        <time>2015-12-28T13:15:13.000Z</time>
      </trkpt>
      <trkpt lat="43.79698" lon="6.45502">
        <ele>855.465332</ele>
        <time>2015-12-28T13:15:18.000Z</time>
      </trkpt>
      <trkpt lat="43.79698" lon="6.45502">
        <ele>855.457886</ele>
        <time>2015-12-28T13:15:23.000Z</time>
      </trkpt>
      <trkpt lat="43.79698" lon="6.45502">
        <ele>855.442444</ele>
        <time>2015-12-28T13:15:28.000Z</time>
      </trkpt>
      <trkpt lat="43.79698" lon="6.45502">
        <ele>855.428711</ele>
        <time>2015-12-28T13:15:33.000Z</time>
      </trkpt>
      <trkpt lat="43.79698" lon="6.45502">
        <ele>855.429443</ele>
        <time>2015-12-28T13:15:38.000Z</time>
      </trkpt>
      <trkpt lat="43.79698" lon="6.45502">
        <ele>855.457153</ele>
        <time>2015-12-28T13:15:43.000Z</time>
      </trkpt>
      <trkpt lat="43.79698" lon="6.45502">
        <ele>855.477478</ele>
        <time>2015-12-28T13:15:48.000Z</time>
      </trkpt>
      <trkpt lat="43.79698" lon="6.45502">
        <ele>855.472412</ele>
        <time>2015-12-28T13:15:53.000Z</time>
      </trkpt>
      <trkpt lat="43.79698" lon="6.45502">
        <ele>855.455505</ele>
        <time>2015-12-28T13:15:58.000Z</time>
      </trkpt>
      <trkpt lat="43.79698" lon="6.45502">
        <ele>855.430237</ele>
        <time>2015-12-28T13:16:03.000Z</time>
      </trkpt>
      <trkpt lat="43.79698" lon="6.45502">
        <ele>855.370789</ele>
        <time>2015-12-28T13:16:08.000Z</time>
      </trkpt>
      <trkpt lat="43.79698" lon="6.45502">
        <ele>855.328186</ele>
        <time>2015-12-28T13:16:13.000Z</time>
      </trkpt>
      <trkpt lat="43.79698" lon="6.45502">
        <ele>855.310364</ele>
        <time>2015-12-28T13:16:18.000Z</time>
      </trkpt>
      <trkpt lat="43.79699" lon="6.45501">
        <ele>855.475525</ele>
        <time>2015-12-28T13:16:23.000Z</time>
      </trkpt>
      <trkpt lat="43.79699" lon="6.45501">
        <ele>855.467285</ele>
        <time>2015-12-28T13:16:28.000Z</time>
      </trkpt>
      <trkpt lat="43.79699" lon="6.45501">
        <ele>855.467529</ele>
        <time>2015-12-28T13:16:33.000Z</time>
      </trkpt>
      <trkpt lat="43.79699" lon="6.45501">
        <ele>855.476746</ele>
        <time>2015-12-28T13:16:38.000Z</time>
      </trkpt>
      <trkpt lat="43.79699" lon="6.45501">
        <ele>855.478821</ele>
        <time>2015-12-28T13:16:43.000Z</time>
      </trkpt>
      <trkpt lat="43.79699" lon="6.45503">
        <ele>855.535095</ele>
        <time>2015-12-28T13:16:48.000Z</time>
      </trkpt>
      <trkpt lat="43.79703" lon="6.4551">
        <ele>855.369751</ele>
        <time>2015-12-28T13:16:53.000Z</time>
      </trkpt>
      <trkpt lat="43.79709" lon="6.45522">
        <ele>856.385925</ele>
        <time>2015-12-28T13:16:58.000Z</time>
      </trkpt>
      <trkpt lat="43.79711" lon="6.45536">
        <ele>857.443787</ele>
        <time>2015-12-28T13:17:03.000Z</time>
      </trkpt>
      <trkpt lat="43.79711" lon="6.45552">
        <ele>859.391357</ele>
        <time>2015-12-28T13:17:08.000Z</time>
      </trkpt>
      <trkpt lat="43.7971" lon="6.45567">
        <ele>860.013</ele>
        <time>2015-12-28T13:17:13.000Z</time>
      </trkpt>
      <trkpt lat="43.79708" lon="6.4558">
        <ele>858.798218</ele>
        <time>2015-12-28T13:17:18.000Z</time>
      </trkpt>
      <trkpt lat="43.79704" lon="6.45593">
        <ele>858.38147</ele>
        <time>2015-12-28T13:17:23.000Z</time>
      </trkpt>
      <trkpt lat="43.797" lon="6.45605">
        <ele>857.663574</ele>
        <time>2015-12-28T13:17:28.000Z</time>
      </trkpt>
      <trkpt lat="43.79693" lon="6.45616">
        <ele>856.793213</ele>
        <time>2015-12-28T13:17:33.000Z</time>
      </trkpt>
      <trkpt lat="43.79685" lon="6.45625">
        <ele>858.051514</ele>
        <time>2015-12-28T13:17:38.000Z</time>
      </trkpt>
      <trkpt lat="43.79676" lon="6.45633">
        <ele>857.649231</ele>
        <time>2015-12-28T13:17:43.000Z</time>
      </trkpt>
      <trkpt lat="43.7967" lon="6.45643">
        <ele>858.465271</ele>
        <time>2015-12-28T13:17:48.000Z</time>
      </trkpt>
      <trkpt lat="43.79668" lon="6.45653">
        <ele>858.878418</ele>
        <time>2015-12-28T13:17:53.000Z</time>
      </trkpt>
      <trkpt lat="43.79665" lon="6.45663">
        <ele>859.598755</ele>
        <time>2015-12-28T13:17:58.000Z</time>
      </trkpt>
      <trkpt lat="43.79662" lon="6.45673">
        <ele>860.136292</ele>
        <time>2015-12-28T13:18:03.000Z</time>
      </trkpt>
      <trkpt lat="43.79657" lon="6.4568">
        <ele>861.437805</ele>
        <time>2015-12-28T13:18:08.000Z</time>
      </trkpt>
      <trkpt lat="43.79653" lon="6.45687">
        <ele>862.363647</ele>
        <time>2015-12-28T13:18:13.000Z</time>
      </trkpt>
      <trkpt lat="43.79647" lon="6.45692">
        <ele>862.78241</ele>
        <time>2015-12-28T13:18:18.000Z</time>
      </trkpt>
      <trkpt lat="43.7964" lon="6.45697">
        <ele>862.963684</ele>
        <time>2015-12-28T13:18:23.000Z</time>
      </trkpt>
      <trkpt lat="43.79634" lon="6.457">
        <ele>863.173889</ele>
        <time>2015-12-28T13:18:28.000Z</time>
      </trkpt>
      <trkpt lat="43.79627" lon="6.45704">
        <ele>862.924561</ele>
        <time>2015-12-28T13:18:33.000Z</time>
      </trkpt>
      <trkpt lat="43.79621" lon="6.45706">
        <ele>863.051941</ele>
        <time>2015-12-28T13:18:38.000Z</time>
      </trkpt>
      <trkpt lat="43.79614" lon="6.45708">
        <ele>862.701172</ele>
        <time>2015-12-28T13:18:43.000Z</time>
      </trkpt>
      <trkpt lat="43.79607" lon="6.45712">
        <ele>863.225342</ele>
        <time>2015-12-28T13:18:48.000Z</time>
      </trkpt>
      <trkpt lat="43.79601" lon="6.45716">
        <ele>864.730408</ele>
        <time>2015-12-28T13:18:53.000Z</time>
      </trkpt>
      <trkpt lat="43.79592" lon="6.45721">
        <ele>864.98584</ele>
        <time>2015-12-28T13:18:58.000Z</time>
      </trkpt>
      <trkpt lat="43.79585" lon="6.45726">
        <ele>865.653381</ele>
        <time>2015-12-28T13:19:03.000Z</time>
      </trkpt>
      <trkpt lat="43.79577" lon="6.4573">
        <ele>866.902466</ele>
        <time>2015-12-28T13:19:08.000Z</time>
      </trkpt>
      <trkpt lat="43.79569" lon="6.45736">
        <ele>867.750916</ele>
        <time>2015-12-28T13:19:13.000Z</time>
      </trkpt>
      <trkpt lat="43.79563" lon="6.45744">
        <ele>868.962036</ele>
        <time>2015-12-28T13:19:18.000Z</time>
      </trkpt>
      <trkpt lat="43.7956" lon="6.45755">
        <ele>869.530212</ele>
        <time>2015-12-28T13:19:23.000Z</time>
      </trkpt>
      <trkpt lat="43.7956" lon="6.45766">
        <ele>870.180969</ele>
        <time>2015-12-28T13:19:28.000Z</time>
      </trkpt>
      <trkpt lat="43.7956" lon="6.45775">
        <ele>871.347961</ele>
        <time>2015-12-28T13:19:33.000Z</time>
      </trkpt>
      <trkpt lat="43.79562" lon="6.45783">
        <ele>872.223694</ele>
        <time>2015-12-28T13:19:38.000Z</time>
      </trkpt>
      <trkpt lat="43.79562" lon="6.45792">
        <ele>873.871094</ele>
        <time>2015-12-28T13:19:43.000Z</time>
      </trkpt>
      <trkpt lat="43.79561" lon="6.45802">
        <ele>874.919006</ele>
        <time>2015-12-28T13:19:48.000Z</time>
      </trkpt>
      <trkpt lat="43.79557" lon="6.4581">
        <ele>876.755981</ele>
        <time>2015-12-28T13:19:53.000Z</time>
      </trkpt>
      <trkpt lat="43.7955" lon="6.45815">
        <ele>877.876648</ele>
        <time>2015-12-28T13:19:58.000Z</time>
      </trkpt>
      <trkpt lat="43.79544" lon="6.45821">
        <ele>878.209229</ele>
        <time>2015-12-28T13:20:03.000Z</time>
      </trkpt>
      <trkpt lat="43.79542" lon="6.4583">
        <ele>878.473389</ele>
        <time>2015-12-28T13:20:08.000Z</time>
      </trkpt>
      <trkpt lat="43.79542" lon="6.45839">
        <ele>878.109863</ele>
        <time>2015-12-28T13:20:13.000Z</time>
      </trkpt>
      <trkpt lat="43.79544" lon="6.45847">
        <ele>877.817871</ele>
        <time>2015-12-28T13:20:18.000Z</time>
      </trkpt>
      <trkpt lat="43.79545" lon="6.45856">
        <ele>878.004578</ele>
        <time>2015-12-28T13:20:23.000Z</time>
      </trkpt>
      <trkpt lat="43.79545" lon="6.45865">
        <ele>878.166565</ele>
        <time>2015-12-28T13:20:28.000Z</time>
      </trkpt>
      <trkpt lat="43.79542" lon="6.45872">
        <ele>877.774231</ele>
        <time>2015-12-28T13:20:33.000Z</time>
      </trkpt>
      <trkpt lat="43.79539" lon="6.45879">
        <ele>878.40155</ele>
        <time>2015-12-28T13:20:38.000Z</time>
      </trkpt>
      <trkpt lat="43.79534" lon="6.45886">
        <ele>878.915649</ele>
        <time>2015-12-28T13:20:43.000Z</time>
      </trkpt>
      <trkpt lat="43.79528" lon="6.45891">
        <ele>878.94165</ele>
        <time>2015-12-28T13:20:48.000Z</time>
      </trkpt>
      <trkpt lat="43.79523" lon="6.45895">
        <ele>880.364319</ele>
        <time>2015-12-28T13:20:53.000Z</time>
      </trkpt>
      <trkpt lat="43.79518" lon="6.45902">
        <ele>881.054871</ele>
        <time>2015-12-28T13:20:58.000Z</time>
      </trkpt>
      <trkpt lat="43.79514" lon="6.45909">
        <ele>882.2771</ele>
        <time>2015-12-28T13:21:03.000Z</time>
      </trkpt>
      <trkpt lat="43.7951" lon="6.45918">
        <ele>882.891052</ele>
        <time>2015-12-28T13:21:08.000Z</time>
      </trkpt>
      <trkpt lat="43.79506" lon="6.45926">
        <ele>883.088989</ele>
        <time>2015-12-28T13:21:13.000Z</time>
      </trkpt>
      <trkpt lat="43.79504" lon="6.45935">
        <ele>883.498657</ele>
        <time>2015-12-28T13:21:18.000Z</time>
      </trkpt>
      <trkpt lat="43.79505" lon="6.45945">
        <ele>883.608521</ele>
        <time>2015-12-28T13:21:23.000Z</time>
      </trkpt>
      <trkpt lat="43.79509" lon="6.45953">
        <ele>884.204529</ele>
        <time>2015-12-28T13:21:28.000Z</time>
      </trkpt>
      <trkpt lat="43.79514" lon="6.45961">
        <ele>884.638733</ele>
        <time>2015-12-28T13:21:33.000Z</time>
      </trkpt>
      <trkpt lat="43.79518" lon="6.45969">
        <ele>886.519043</ele>
        <time>2015-12-28T13:21:38.000Z</time>
      </trkpt>
      <trkpt lat="43.79522" lon="6.45975">
        <ele>886.31311</ele>
        <time>2015-12-28T13:21:43.000Z</time>
      </trkpt>
      <trkpt lat="43.79527" lon="6.45982">
        <ele>887.548706</ele>
        <time>2015-12-28T13:21:48.000Z</time>
      </trkpt>
      <trkpt lat="43.79532" lon="6.45988">
        <ele>888.511475</ele>
        <time>2015-12-28T13:21:53.000Z</time>
      </trkpt>
      <trkpt lat="43.79536" lon="6.45993">
        <ele>890.097168</ele>
        <time>2015-12-28T13:21:58.000Z</time>
      </trkpt>
      <trkpt lat="43.7954" lon="6.46002">
        <ele>891.300964</ele>
        <time>2015-12-28T13:22:03.000Z</time>
      </trkpt>
      <trkpt lat="43.79544" lon="6.46009">
        <ele>891.209167</ele>
        <time>2015-12-28T13:22:08.000Z</time>
      </trkpt>
      <trkpt lat="43.79548" lon="6.46016">
        <ele>892.116455</ele>
        <time>2015-12-28T13:22:13.000Z</time>
      </trkpt>
      <trkpt lat="43.79551" lon="6.46024">
        <ele>893.244019</ele>
        <time>2015-12-28T13:22:18.000Z</time>
      </trkpt>
      <trkpt lat="43.79551" lon="6.46033">
        <ele>893.764404</ele>
        <time>2015-12-28T13:22:23.000Z</time>
      </trkpt>
      <trkpt lat="43.7955" lon="6.46042">
        <ele>895.11676</ele>
        <time>2015-12-28T13:22:28.000Z</time>
      </trkpt>
      <trkpt lat="43.79547" lon="6.46051">
        <ele>895.840698</ele>
        <time>2015-12-28T13:22:33.000Z</time>
      </trkpt>
      <trkpt lat="43.79544" lon="6.46061">
        <ele>895.718811</ele>
        <time>2015-12-28T13:22:38.000Z</time>
      </trkpt>
      <trkpt lat="43.79541" lon="6.4607">
        <ele>896.185242</ele>
        <time>2015-12-28T13:22:43.000Z</time>
      </trkpt>
      <trkpt lat="43.79538" lon="6.46079">
        <ele>896.583313</ele>
        <time>2015-12-28T13:22:48.000Z</time>
      </trkpt>
      <trkpt lat="43.79535" lon="6.46088">
        <ele>897.197083</ele>
        <time>2015-12-28T13:22:53.000Z</time>
      </trkpt>
      <trkpt lat="43.79531" lon="6.46096">
        <ele>897.078857</ele>
        <time>2015-12-28T13:22:58.000Z</time>
      </trkpt>
      <trkpt lat="43.79527" lon="6.46105">
        <ele>897.054504</ele>
        <time>2015-12-28T13:23:03.000Z</time>
      </trkpt>
      <trkpt lat="43.79522" lon="6.46113">
        <ele>897.325134</ele>
        <time>2015-12-28T13:23:08.000Z</time>
      </trkpt>
      <trkpt lat="43.79518" lon="6.4612">
        <ele>897.564392</ele>
        <time>2015-12-28T13:23:13.000Z</time>
      </trkpt>
      <trkpt lat="43.79513" lon="6.46127">
        <ele>897.84491</ele>
        <time>2015-12-28T13:23:18.000Z</time>
      </trkpt>
      <trkpt lat="43.79508" lon="6.46134">
        <ele>898.514404</ele>
        <time>2015-12-28T13:23:23.000Z</time>
      </trkpt>
      <trkpt lat="43.79502" lon="6.4614">
        <ele>899.480713</ele>
        <time>2015-12-28T13:23:28.000Z</time>
      </trkpt>
      <trkpt lat="43.79496" lon="6.46147">
        <ele>900.164551</ele>
        <time>2015-12-28T13:23:33.000Z</time>
      </trkpt>
      <trkpt lat="43.79493" lon="6.46155">
        <ele>900.500305</ele>
        <time>2015-12-28T13:23:38.000Z</time>
      </trkpt>
      <trkpt lat="43.79495" lon="6.46163">
        <ele>900.696533</ele>
        <time>2015-12-28T13:23:43.000Z</time>
      </trkpt>
      <trkpt lat="43.795" lon="6.46165">
        <ele>901.526917</ele>
        <time>2015-12-28T13:23:48.000Z</time>
      </trkpt>
      <trkpt lat="43.795" lon="6.46165">
        <ele>902.335022</ele>
        <time>2015-12-28T13:23:53.000Z</time>
      </trkpt>
      <trkpt lat="43.795" lon="6.46165">
        <ele>902.35321</ele>
        <time>2015-12-28T13:23:58.000Z</time>
      </trkpt>
      <trkpt lat="43.795" lon="6.46165">
        <ele>902.381104</ele>
        <time>2015-12-28T13:24:03.000Z</time>
      </trkpt>
      <trkpt lat="43.795" lon="6.46165">
        <ele>902.413452</ele>
        <time>2015-12-28T13:24:08.000Z</time>
      </trkpt>
      <trkpt lat="43.795" lon="6.46165">
        <ele>902.446716</ele>
        <time>2015-12-28T13:24:13.000Z</time>
      </trkpt>
      <trkpt lat="43.795" lon="6.46165">
        <ele>902.507019</ele>
        <time>2015-12-28T13:24:18.000Z</time>
      </trkpt>
      <trkpt lat="43.795" lon="6.46165">
        <ele>902.55011</ele>
        <time>2015-12-28T13:24:23.000Z</time>
      </trkpt>
      <trkpt lat="43.795" lon="6.46165">
        <ele>902.621033</ele>
        <time>2015-12-28T13:24:28.000Z</time>
      </trkpt>
      <trkpt lat="43.795" lon="6.46165">
        <ele>902.675537</ele>
        <time>2015-12-28T13:24:33.000Z</time>
      </trkpt>
      <trkpt lat="43.79499" lon="6.46165">
        <ele>902.701782</ele>
        <time>2015-12-28T13:24:38.000Z</time>
      </trkpt>
      <trkpt lat="43.79499" lon="6.46165">
        <ele>902.751282</ele>
        <time>2015-12-28T13:24:43.000Z</time>
      </trkpt>
      <trkpt lat="43.79499" lon="6.46165">
        <ele>902.80719</ele>
        <time>2015-12-28T13:24:48.000Z</time>
      </trkpt>
      <trkpt lat="43.79499" lon="6.46165">
        <ele>902.848022</ele>
        <time>2015-12-28T13:24:53.000Z</time>
      </trkpt>
      <trkpt lat="43.79499" lon="6.46165">
        <ele>902.879211</ele>
        <time>2015-12-28T13:24:58.000Z</time>
      </trkpt>
      <trkpt lat="43.79499" lon="6.46165">
        <ele>902.914307</ele>
        <time>2015-12-28T13:25:03.000Z</time>
      </trkpt>
      <trkpt lat="43.79499" lon="6.46165">
        <ele>902.965393</ele>
        <time>2015-12-28T13:25:08.000Z</time>
      </trkpt>
      <trkpt lat="43.79499" lon="6.46166">
        <ele>903.051819</ele>
        <time>2015-12-28T13:25:13.000Z</time>
      </trkpt>
      <trkpt lat="43.79499" lon="6.46166">
        <ele>903.103699</ele>
        <time>2015-12-28T13:25:18.000Z</time>
      </trkpt>
      <trkpt lat="43.79499" lon="6.46166">
        <ele>903.159058</ele>
        <time>2015-12-28T13:25:23.000Z</time>
      </trkpt>
      <trkpt lat="43.79499" lon="6.46166">
        <ele>903.193909</ele>
        <time>2015-12-28T13:25:28.000Z</time>
      </trkpt>
      <trkpt lat="43.79499" lon="6.46166">
        <ele>903.20166</ele>
        <time>2015-12-28T13:25:33.000Z</time>
      </trkpt>
      <trkpt lat="43.79501" lon="6.46165">
        <ele>903.385193</ele>
        <time>2015-12-28T13:25:38.000Z</time>
      </trkpt>
      <trkpt lat="43.79501" lon="6.46164">
        <ele>903.294983</ele>
        <time>2015-12-28T13:25:43.000Z</time>
      </trkpt>
      <trkpt lat="43.79502" lon="6.46164">
        <ele>903.242554</ele>
        <time>2015-12-28T13:25:48.000Z</time>
      </trkpt>
      <trkpt lat="43.79503" lon="6.46163">
        <ele>903.464661</ele>
        <time>2015-12-28T13:25:53.000Z</time>
      </trkpt>
      <trkpt lat="43.79508" lon="6.46156">
        <ele>903.305908</ele>
        <time>2015-12-28T13:25:58.000Z</time>
      </trkpt>
      <trkpt lat="43.79514" lon="6.46147">
        <ele>903.04541</ele>
        <time>2015-12-28T13:26:03.000Z</time>
      </trkpt>
      <trkpt lat="43.7952" lon="6.46138">
        <ele>903.653931</ele>
        <time>2015-12-28T13:26:08.000Z</time>
      </trkpt>
      <trkpt lat="43.79528" lon="6.46131">
        <ele>904.255005</ele>
        <time>2015-12-28T13:26:13.000Z</time>
      </trkpt>
      <trkpt lat="43.79536" lon="6.46128">
        <ele>904.711731</ele>
        <time>2015-12-28T13:26:18.000Z</time>
      </trkpt>
      <trkpt lat="43.79545" lon="6.46125">
        <ele>905.419434</ele>
        <time>2015-12-28T13:26:23.000Z</time>
      </trkpt>
      <trkpt lat="43.79553" lon="6.46124">
        <ele>906.39624</ele>
        <time>2015-12-28T13:26:28.000Z</time>
      </trkpt>
      <trkpt lat="43.79562" lon="6.46121">
        <ele>907.316101</ele>
        <time>2015-12-28T13:26:33.000Z</time>
      </trkpt>
      <trkpt lat="43.79569" lon="6.46115">
        <ele>907.631653</ele>
        <time>2015-12-28T13:26:38.000Z</time>
      </trkpt>
      <trkpt lat="43.79574" lon="6.46109">
        <ele>908.071167</ele>
        <time>2015-12-28T13:26:43.000Z</time>
      </trkpt>
      <trkpt lat="43.79579" lon="6.46103">
        <ele>909.657104</ele>
        <time>2015-12-28T13:26:48.000Z</time>
      </trkpt>
      <trkpt lat="43.79585" lon="6.46095">
        <ele>909.645081</ele>
        <time>2015-12-28T13:26:53.000Z</time>
      </trkpt>
      <trkpt lat="43.7959" lon="6.46088">
        <ele>909.273499</ele>
        <time>2015-12-28T13:26:58.000Z</time>
      </trkpt>
      <trkpt lat="43.79596" lon="6.46081">
        <ele>910.166199</ele>
        <time>2015-12-28T13:27:03.000Z</time>
      </trkpt>
      <trkpt lat="43.79601" lon="6.46075">
        <ele>911.491089</ele>
        <time>2015-12-28T13:27:08.000Z</time>
      </trkpt>
      <trkpt lat="43.79606" lon="6.46066">
        <ele>912.07782</ele>
        <time>2015-12-28T13:27:13.000Z</time>
      </trkpt>
      <trkpt lat="43.79611" lon="6.46058">
        <ele>913.100708</ele>
        <time>2015-12-28T13:27:18.000Z</time>
      </trkpt>
      <trkpt lat="43.79616" lon="6.4605">
        <ele>913.722046</ele>
        <time>2015-12-28T13:27:23.000Z</time>
      </trkpt>
      <trkpt lat="43.7962" lon="6.46042">
        <ele>914.105652</ele>
        <time>2015-12-28T13:27:28.000Z</time>
      </trkpt>
      <trkpt lat="43.79625" lon="6.46034">
        <ele>915.141479</ele>
        <time>2015-12-28T13:27:33.000Z</time>
      </trkpt>
      <trkpt lat="43.79631" lon="6.46027">
        <ele>916.232849</ele>
        <time>2015-12-28T13:27:38.000Z</time>
      </trkpt>
      <trkpt lat="43.79637" lon="6.46023">
        <ele>916.608276</ele>
        <time>2015-12-28T13:27:43.000Z</time>
      </trkpt>
      <trkpt lat="43.79642" lon="6.46018">
        <ele>916.820984</ele>
        <time>2015-12-28T13:27:48.000Z</time>
      </trkpt>
      <trkpt lat="43.79648" lon="6.46011">
        <ele>916.938782</ele>
        <time>2015-12-28T13:27:53.000Z</time>
      </trkpt>
      <trkpt lat="43.79652" lon="6.46003">
        <ele>917.386414</ele>
        <time>2015-12-28T13:27:58.000Z</time>
      </trkpt>
      <trkpt lat="43.79656" lon="6.45995">
        <ele>917.269165</ele>
        <time>2015-12-28T13:28:03.000Z</time>
      </trkpt>
      <trkpt lat="43.79661" lon="6.45987">
        <ele>918.117004</ele>
        <time>2015-12-28T13:28:08.000Z</time>
      </trkpt>
      <trkpt lat="43.79666" lon="6.45982">
        <ele>918.667053</ele>
        <time>2015-12-28T13:28:13.000Z</time>
      </trkpt>
      <trkpt lat="43.79672" lon="6.45977">
        <ele>919.214417</ele>
        <time>2015-12-28T13:28:18.000Z</time>
      </trkpt>
      <trkpt lat="43.79679" lon="6.45976">
        <ele>920.372986</ele>
        <time>2015-12-28T13:28:23.000Z</time>
      </trkpt>
      <trkpt lat="43.79687" lon="6.45974">
        <ele>920.680908</ele>
        <time>2015-12-28T13:28:28.000Z</time>
      </trkpt>
      <trkpt lat="43.79694" lon="6.45973">
        <ele>922.238403</ele>
        <time>2015-12-28T13:28:33.000Z</time>
      </trkpt>
      <trkpt lat="43.79702" lon="6.45973">
        <ele>922.978271</ele>
        <time>2015-12-28T13:28:38.000Z</time>
      </trkpt>
      <trkpt lat="43.79709" lon="6.45974">
        <ele>923.555664</ele>
        <time>2015-12-28T13:28:43.000Z</time>
      </trkpt>
      <trkpt lat="43.79713" lon="6.45982">
        <ele>923.680908</ele>
        <time>2015-12-28T13:28:48.000Z</time>
      </trkpt>
      <trkpt lat="43.79711" lon="6.45992">
        <ele>925.058472</ele>
        <time>2015-12-28T13:28:53.000Z</time>
      </trkpt>
      <trkpt lat="43.79704" lon="6.46">
        <ele>925.154663</ele>
        <time>2015-12-28T13:28:58.000Z</time>
      </trkpt>
      <trkpt lat="43.79697" lon="6.46007">
        <ele>925.481018</ele>
        <time>2015-12-28T13:29:03.000Z</time>
      </trkpt>
      <trkpt lat="43.79691" lon="6.46016">
        <ele>925.231445</ele>
        <time>2015-12-28T13:29:08.000Z</time>
      </trkpt>
      <trkpt lat="43.79686" lon="6.46027">
        <ele>925.233643</ele>
        <time>2015-12-28T13:29:13.000Z</time>
      </trkpt>
      <trkpt lat="43.79683" lon="6.46037">
        <ele>925.407104</ele>
        <time>2015-12-28T13:29:18.000Z</time>
      </trkpt>
      <trkpt lat="43.7968" lon="6.46047">
        <ele>925.935852</ele>
        <time>2015-12-28T13:29:23.000Z</time>
      </trkpt>
      <trkpt lat="43.79676" lon="6.46056">
        <ele>926.685425</ele>
        <time>2015-12-28T13:29:28.000Z</time>
      </trkpt>
      <trkpt lat="43.79674" lon="6.46066">
        <ele>927.09967</ele>
        <time>2015-12-28T13:29:33.000Z</time>
      </trkpt>
      <trkpt lat="43.79674" lon="6.46075">
        <ele>928.189087</ele>
        <time>2015-12-28T13:29:38.000Z</time>
      </trkpt>
      <trkpt lat="43.79674" lon="6.46084">
        <ele>928.956543</ele>
        <time>2015-12-28T13:29:43.000Z</time>
      </trkpt>
      <trkpt lat="43.79673" lon="6.46093">
        <ele>929.947388</ele>
        <time>2015-12-28T13:29:48.000Z</time>
      </trkpt>
      <trkpt lat="43.79673" lon="6.46102">
        <ele>931.520081</ele>
        <time>2015-12-28T13:29:53.000Z</time>
      </trkpt>
      <trkpt lat="43.79671" lon="6.4611">
        <ele>932.976807</ele>
        <time>2015-12-28T13:29:58.000Z</time>
      </trkpt>
      <trkpt lat="43.79669" lon="6.46119">
        <ele>934.318237</ele>
        <time>2015-12-28T13:30:03.000Z</time>
      </trkpt>
      <trkpt lat="43.79665" lon="6.46127">
        <ele>934.912659</ele>
        <time>2015-12-28T13:30:08.000Z</time>
      </trkpt>
      <trkpt lat="43.79661" lon="6.46135">
        <ele>935.063477</ele>
        <time>2015-12-28T13:30:13.000Z</time>
      </trkpt>
      <trkpt lat="43.79656" lon="6.46142">
        <ele>935.449463</ele>
        <time>2015-12-28T13:30:18.000Z</time>
      </trkpt>
      <trkpt lat="43.79651" lon="6.46148">
        <ele>935.482849</ele>
        <time>2015-12-28T13:30:23.000Z</time>
      </trkpt>
      <trkpt lat="43.79646" lon="6.46154">
        <ele>935.197876</ele>
        <time>2015-12-28T13:30:28.000Z</time>
      </trkpt>
      <trkpt lat="43.79643" lon="6.46162">
        <ele>935.958008</ele>
        <time>2015-12-28T13:30:33.000Z</time>
      </trkpt>
      <trkpt lat="43.79643" lon="6.46171">
        <ele>936.942383</ele>
        <time>2015-12-28T13:30:38.000Z</time>
      </trkpt>
      <trkpt lat="43.79643" lon="6.4618">
        <ele>937.772522</ele>
        <time>2015-12-28T13:30:43.000Z</time>
      </trkpt>
      <trkpt lat="43.79641" lon="6.46189">
        <ele>938.369934</ele>
        <time>2015-12-28T13:30:48.000Z</time>
      </trkpt>
      <trkpt lat="43.79637" lon="6.46197">
        <ele>938.994873</ele>
        <time>2015-12-28T13:30:53.000Z</time>
      </trkpt>
      <trkpt lat="43.7963" lon="6.46201">
        <ele>939.747986</ele>
        <time>2015-12-28T13:30:58.000Z</time>
      </trkpt>
      <trkpt lat="43.79623" lon="6.46206">
        <ele>939.782288</ele>
        <time>2015-12-28T13:31:03.000Z</time>
      </trkpt>
      <trkpt lat="43.79617" lon="6.46211">
        <ele>939.555176</ele>
        <time>2015-12-28T13:31:08.000Z</time>
      </trkpt>
      <trkpt lat="43.79612" lon="6.46217">
        <ele>940.037048</ele>
        <time>2015-12-28T13:31:13.000Z</time>
      </trkpt>
      <trkpt lat="43.79609" lon="6.46225">
        <ele>940.354004</ele>
        <time>2015-12-28T13:31:18.000Z</time>
      </trkpt>
      <trkpt lat="43.7961" lon="6.46235">
        <ele>941.297607</ele>
        <time>2015-12-28T13:31:23.000Z</time>
      </trkpt>
      <trkpt lat="43.79612" lon="6.46244">
        <ele>941.337646</ele>
        <time>2015-12-28T13:31:28.000Z</time>
      </trkpt>
      <trkpt lat="43.79616" lon="6.46253">
        <ele>941.9776</ele>
        <time>2015-12-28T13:31:33.000Z</time>
      </trkpt>
      <trkpt lat="43.7962" lon="6.46262">
        <ele>942.230835</ele>
        <time>2015-12-28T13:31:38.000Z</time>
      </trkpt>
      <trkpt lat="43.79623" lon="6.46272">
        <ele>942.454468</ele>
        <time>2015-12-28T13:31:43.000Z</time>
      </trkpt>
      <trkpt lat="43.79627" lon="6.46281">
        <ele>942.431274</ele>
        <time>2015-12-28T13:31:48.000Z</time>
      </trkpt>
      <trkpt lat="43.79632" lon="6.46289">
        <ele>943.739441</ele>
        <time>2015-12-28T13:31:53.000Z</time>
      </trkpt>
      <trkpt lat="43.79636" lon="6.46297">
        <ele>944.822571</ele>
        <time>2015-12-28T13:31:58.000Z</time>
      </trkpt>
      <trkpt lat="43.79643" lon="6.46303">
        <ele>945.050415</ele>
        <time>2015-12-28T13:32:03.000Z</time>
      </trkpt>
      <trkpt lat="43.7965" lon="6.46309">
        <ele>945.103638</ele>
        <time>2015-12-28T13:32:08.000Z</time>
      </trkpt>
      <trkpt lat="43.79656" lon="6.46317">
        <ele>944.661133</ele>
        <time>2015-12-28T13:32:13.000Z</time>
      </trkpt>
      <trkpt lat="43.79662" lon="6.46326">
        <ele>944.71814</ele>
        <time>2015-12-28T13:32:18.000Z</time>
      </trkpt>
      <trkpt lat="43.79665" lon="6.46335">
        <ele>944.942932</ele>
        <time>2015-12-28T13:32:23.000Z</time>
      </trkpt>
      <trkpt lat="43.79669" lon="6.46345">
        <ele>944.896667</ele>
        <time>2015-12-28T13:32:28.000Z</time>
      </trkpt>
      <trkpt lat="43.79668" lon="6.46355">
        <ele>945.450928</ele>
        <time>2015-12-28T13:32:33.000Z</time>
      </trkpt>
      <trkpt lat="43.79664" lon="6.46364">
        <ele>946.734131</ele>
        <time>2015-12-28T13:32:38.000Z</time>
      </trkpt>
      <trkpt lat="43.79659" lon="6.46373">
        <ele>947.823608</ele>
        <time>2015-12-28T13:32:43.000Z</time>
      </trkpt>
      <trkpt lat="43.79659" lon="6.46384">
        <ele>948.811218</ele>
        <time>2015-12-28T13:32:48.000Z</time>
      </trkpt>
      <trkpt lat="43.79666" lon="6.46389">
        <ele>949.385681</ele>
        <time>2015-12-28T13:32:53.000Z</time>
      </trkpt>
      <trkpt lat="43.79674" lon="6.46386">
        <ele>949.717957</ele>
        <time>2015-12-28T13:32:58.000Z</time>
      </trkpt>
      <trkpt lat="43.79677" lon="6.46385">
        <ele>949.756409</ele>
        <time>2015-12-28T13:33:03.000Z</time>
      </trkpt>
      <trkpt lat="43.79677" lon="6.46384">
        <ele>950.007202</ele>
        <time>2015-12-28T13:33:08.000Z</time>
      </trkpt>
      <trkpt lat="43.79677" lon="6.46384">
        <ele>950.090149</ele>
        <time>2015-12-28T13:33:13.000Z</time>
      </trkpt>
      <trkpt lat="43.79677" lon="6.46384">
        <ele>950.127563</ele>
        <time>2015-12-28T13:33:18.000Z</time>
      </trkpt>
      <trkpt lat="43.79677" lon="6.46384">
        <ele>950.144043</ele>
        <time>2015-12-28T13:33:23.000Z</time>
      </trkpt>
      <trkpt lat="43.79677" lon="6.46384">
        <ele>950.173096</ele>
        <time>2015-12-28T13:33:28.000Z</time>
      </trkpt>
      <trkpt lat="43.79677" lon="6.46384">
        <ele>950.207214</ele>
        <time>2015-12-28T13:33:33.000Z</time>
      </trkpt>
      <trkpt lat="43.79677" lon="6.46384">
        <ele>950.236816</ele>
        <time>2015-12-28T13:33:38.000Z</time>
      </trkpt>
      <trkpt lat="43.79677" lon="6.46384">
        <ele>950.269531</ele>
        <time>2015-12-28T13:33:43.000Z</time>
      </trkpt>
      <trkpt lat="43.79677" lon="6.46385">
        <ele>950.306641</ele>
        <time>2015-12-28T13:33:48.000Z</time>
      </trkpt>
      <trkpt lat="43.79677" lon="6.46385">
        <ele>950.34906</ele>
        <time>2015-12-28T13:33:53.000Z</time>
      </trkpt>
      <trkpt lat="43.79677" lon="6.46385">
        <ele>950.39093</ele>
        <time>2015-12-28T13:33:58.000Z</time>
      </trkpt>
      <trkpt lat="43.79677" lon="6.46385">
        <ele>950.429871</ele>
        <time>2015-12-28T13:34:03.000Z</time>
      </trkpt>
      <trkpt lat="43.79677" lon="6.46385">
        <ele>950.490356</ele>
        <time>2015-12-28T13:34:08.000Z</time>
      </trkpt>
      <trkpt lat="43.79677" lon="6.46385">
        <ele>950.530884</ele>
        <time>2015-12-28T13:34:13.000Z</time>
      </trkpt>
      <trkpt lat="43.79676" lon="6.46385">
        <ele>950.567383</ele>
        <time>2015-12-28T13:34:18.000Z</time>
      </trkpt>
      <trkpt lat="43.79676" lon="6.46385">
        <ele>950.606384</ele>
        <time>2015-12-28T13:34:23.000Z</time>
      </trkpt>
      <trkpt lat="43.79677" lon="6.46384">
        <ele>950.785339</ele>
        <time>2015-12-28T13:34:28.000Z</time>
      </trkpt>
      <trkpt lat="43.79678" lon="6.4638">
        <ele>950.932312</ele>
        <time>2015-12-28T13:34:33.000Z</time>
      </trkpt>
      <trkpt lat="43.79684" lon="6.46373">
        <ele>951.039673</ele>
        <time>2015-12-28T13:34:38.000Z</time>
      </trkpt>
      <trkpt lat="43.79691" lon="6.46365">
        <ele>951.728577</ele>
        <time>2015-12-28T13:34:43.000Z</time>
      </trkpt>
      <trkpt lat="43.79698" lon="6.46357">
        <ele>952.460938</ele>
        <time>2015-12-28T13:34:48.000Z</time>
      </trkpt>
      <trkpt lat="43.79704" lon="6.46346">
        <ele>953.380249</ele>
        <time>2015-12-28T13:34:53.000Z</time>
      </trkpt>
      <trkpt lat="43.79709" lon="6.46336">
        <ele>953.353394</ele>
        <time>2015-12-28T13:34:58.000Z</time>
      </trkpt>
      <trkpt lat="43.79714" lon="6.46327">
        <ele>953.209229</ele>
        <time>2015-12-28T13:35:03.000Z</time>
      </trkpt>
      <trkpt lat="43.7972" lon="6.46321">
        <ele>953.815857</ele>
        <time>2015-12-28T13:35:08.000Z</time>
      </trkpt>
      <trkpt lat="43.79727" lon="6.46315">
        <ele>954.611755</ele>
        <time>2015-12-28T13:35:13.000Z</time>
      </trkpt>
      <trkpt lat="43.79731" lon="6.46307">
        <ele>955.71167</ele>
        <time>2015-12-28T13:35:18.000Z</time>
      </trkpt>
      <trkpt lat="43.79733" lon="6.46298">
        <ele>957.680908</ele>
        <time>2015-12-28T13:35:23.000Z</time>
      </trkpt>
      <trkpt lat="43.79735" lon="6.46288">
        <ele>959.107178</ele>
        <time>2015-12-28T13:35:28.000Z</time>
      </trkpt>
      <trkpt lat="43.79738" lon="6.46279">
        <ele>960.334229</ele>
        <time>2015-12-28T13:35:33.000Z</time>
      </trkpt>
      <trkpt lat="43.79743" lon="6.46272">
        <ele>960.720093</ele>
        <time>2015-12-28T13:35:38.000Z</time>
      </trkpt>
      <trkpt lat="43.79749" lon="6.46268">
        <ele>961.184753</ele>
        <time>2015-12-28T13:35:43.000Z</time>
      </trkpt>
      <trkpt lat="43.79758" lon="6.46265">
        <ele>962.058533</ele>
        <time>2015-12-28T13:35:48.000Z</time>
      </trkpt>
      <trkpt lat="43.79765" lon="6.46265">
        <ele>961.9823</ele>
        <time>2015-12-28T13:35:53.000Z</time>
      </trkpt>
      <trkpt lat="43.79773" lon="6.46264">
        <ele>961.547119</ele>
        <time>2015-12-28T13:35:58.000Z</time>
      </trkpt>
      <trkpt lat="43.7978" lon="6.46264">
        <ele>962.184998</ele>
        <time>2015-12-28T13:36:03.000Z</time>
      </trkpt>
      <trkpt lat="43.79787" lon="6.46265">
        <ele>962.118835</ele>
        <time>2015-12-28T13:36:08.000Z</time>
      </trkpt>
      <trkpt lat="43.79795" lon="6.46267">
        <ele>962.294434</ele>
        <time>2015-12-28T13:36:13.000Z</time>
      </trkpt>
      <trkpt lat="43.79802" lon="6.46268">
        <ele>962.731995</ele>
        <time>2015-12-28T13:36:18.000Z</time>
      </trkpt>
      <trkpt lat="43.7981" lon="6.4627">
        <ele>963.846436</ele>
        <time>2015-12-28T13:36:23.000Z</time>
      </trkpt>
      <trkpt lat="43.79817" lon="6.46269">
        <ele>964.810669</ele>
        <time>2015-12-28T13:36:28.000Z</time>
      </trkpt>
      <trkpt lat="43.79823" lon="6.46267">
        <ele>966.310242</ele>
        <time>2015-12-28T13:36:33.000Z</time>
      </trkpt>
      <trkpt lat="43.7983" lon="6.46262">
        <ele>967.270874</ele>
        <time>2015-12-28T13:36:38.000Z</time>
      </trkpt>
      <trkpt lat="43.79837" lon="6.46257">
        <ele>967.59259</ele>
        <time>2015-12-28T13:36:43.000Z</time>
      </trkpt>
      <trkpt lat="43.79845" lon="6.46254">
        <ele>968.018494</ele>
        <time>2015-12-28T13:36:48.000Z</time>
      </trkpt>
      <trkpt lat="43.79853" lon="6.4625">
        <ele>968.125732</ele>
        <time>2015-12-28T13:36:53.000Z</time>
      </trkpt>
      <trkpt lat="43.7986" lon="6.46245">
        <ele>968.024292</ele>
        <time>2015-12-28T13:36:58.000Z</time>
      </trkpt>
      <trkpt lat="43.79866" lon="6.4624">
        <ele>968.565308</ele>
        <time>2015-12-28T13:37:03.000Z</time>
      </trkpt>
      <trkpt lat="43.79873" lon="6.46235">
        <ele>968.829041</ele>
        <time>2015-12-28T13:37:08.000Z</time>
      </trkpt>
      <trkpt lat="43.7988" lon="6.46234">
        <ele>969.583862</ele>
        <time>2015-12-28T13:37:13.000Z</time>
      </trkpt>
      <trkpt lat="43.79887" lon="6.46236">
        <ele>970.211548</ele>
        <time>2015-12-28T13:37:18.000Z</time>
      </trkpt>
      <trkpt lat="43.79894" lon="6.4624">
        <ele>970.863586</ele>
        <time>2015-12-28T13:37:23.000Z</time>
      </trkpt>
      <trkpt lat="43.799" lon="6.46245">
        <ele>971.408264</ele>
        <time>2015-12-28T13:37:28.000Z</time>
      </trkpt>
      <trkpt lat="43.79906" lon="6.46253">
        <ele>971.779419</ele>
        <time>2015-12-28T13:37:33.000Z</time>
      </trkpt>
      <trkpt lat="43.7991" lon="6.46261">
        <ele>972.220398</ele>
        <time>2015-12-28T13:37:38.000Z</time>
      </trkpt>
      <trkpt lat="43.79915" lon="6.46267">
        <ele>973.293884</ele>
        <time>2015-12-28T13:37:43.000Z</time>
      </trkpt>
      <trkpt lat="43.7992" lon="6.46275">
        <ele>974.005981</ele>
        <time>2015-12-28T13:37:48.000Z</time>
      </trkpt>
      <trkpt lat="43.79927" lon="6.4628">
        <ele>974.299561</ele>
        <time>2015-12-28T13:37:53.000Z</time>
      </trkpt>
      <trkpt lat="43.79934" lon="6.46284">
        <ele>975.037781</ele>
        <time>2015-12-28T13:37:58.000Z</time>
      </trkpt>
      <trkpt lat="43.79941" lon="6.46285">
        <ele>975.450012</ele>
        <time>2015-12-28T13:38:03.000Z</time>
      </trkpt>
      <trkpt lat="43.79948" lon="6.46283">
        <ele>975.782593</ele>
        <time>2015-12-28T13:38:08.000Z</time>
      </trkpt>
      <trkpt lat="43.79953" lon="6.4628">
        <ele>976.949951</ele>
        <time>2015-12-28T13:38:13.000Z</time>
      </trkpt>
      <trkpt lat="43.79959" lon="6.46275">
        <ele>977.931152</ele>
        <time>2015-12-28T13:38:18.000Z</time>
      </trkpt>
      <trkpt lat="43.79964" lon="6.46267">
        <ele>978.356445</ele>
        <time>2015-12-28T13:38:23.000Z</time>
      </trkpt>
      <trkpt lat="43.79969" lon="6.46259">
        <ele>979.153381</ele>
        <time>2015-12-28T13:38:28.000Z</time>
      </trkpt>
      <trkpt lat="43.79975" lon="6.46254">
        <ele>979.199463</ele>
        <time>2015-12-28T13:38:33.000Z</time>
      </trkpt>
      <trkpt lat="43.79982" lon="6.46251">
        <ele>979.439087</ele>
        <time>2015-12-28T13:38:38.000Z</time>
      </trkpt>
      <trkpt lat="43.79989" lon="6.46249">
        <ele>979.384766</ele>
        <time>2015-12-28T13:38:43.000Z</time>
      </trkpt>
      <trkpt lat="43.79997" lon="6.46248">
        <ele>979.695679</ele>
        <time>2015-12-28T13:38:48.000Z</time>
      </trkpt>
      <trkpt lat="43.80004" lon="6.46245">
        <ele>980.720215</ele>
        <time>2015-12-28T13:38:53.000Z</time>
      </trkpt>
      <trkpt lat="43.8001" lon="6.46241">
        <ele>981.062988</ele>
        <time>2015-12-28T13:38:58.000Z</time>
      </trkpt>
      <trkpt lat="43.80017" lon="6.46236">
        <ele>981.49939</ele>
        <time>2015-12-28T13:39:03.000Z</time>
      </trkpt>
      <trkpt lat="43.80019" lon="6.46228">
        <ele>981.755066</ele>
        <time>2015-12-28T13:39:08.000Z</time>
      </trkpt>
      <trkpt lat="43.80016" lon="6.46218">
        <ele>982.405823</ele>
        <time>2015-12-28T13:39:13.000Z</time>
      </trkpt>
      <trkpt lat="43.80009" lon="6.46212">
        <ele>982.210449</ele>
        <time>2015-12-28T13:39:18.000Z</time>
      </trkpt>
      <trkpt lat="43.80002" lon="6.46208">
        <ele>982.588928</ele>
        <time>2015-12-28T13:39:23.000Z</time>
      </trkpt>
      <trkpt lat="43.79994" lon="6.46202">
        <ele>983.359253</ele>
        <time>2015-12-28T13:39:28.000Z</time>
      </trkpt>
      <trkpt lat="43.79986" lon="6.46195">
        <ele>984.519653</ele>
        <time>2015-12-28T13:39:33.000Z</time>
      </trkpt>
      <trkpt lat="43.79983" lon="6.46181">
        <ele>985.491333</ele>
        <time>2015-12-28T13:39:38.000Z</time>
      </trkpt>
      <trkpt lat="43.79991" lon="6.46173">
        <ele>985.78125</ele>
        <time>2015-12-28T13:39:43.000Z</time>
      </trkpt>
      <trkpt lat="43.79999" lon="6.4617">
        <ele>987.626526</ele>
        <time>2015-12-28T13:39:48.000Z</time>
      </trkpt>
      <trkpt lat="43.80006" lon="6.46168">
        <ele>989.148743</ele>
        <time>2015-12-28T13:39:53.000Z</time>
      </trkpt>
      <trkpt lat="43.80014" lon="6.46166">
        <ele>989.648926</ele>
        <time>2015-12-28T13:39:58.000Z</time>
      </trkpt>
      <trkpt lat="43.80021" lon="6.46164">
        <ele>990.595703</ele>
        <time>2015-12-28T13:40:03.000Z</time>
      </trkpt>
      <trkpt lat="43.80028" lon="6.4616">
        <ele>991.225403</ele>
        <time>2015-12-28T13:40:08.000Z</time>
      </trkpt>
      <trkpt lat="43.80035" lon="6.46156">
        <ele>991.892578</ele>
        <time>2015-12-28T13:40:13.000Z</time>
      </trkpt>
      <trkpt lat="43.80041" lon="6.46151">
        <ele>991.352295</ele>
        <time>2015-12-28T13:40:18.000Z</time>
      </trkpt>
      <trkpt lat="43.80047" lon="6.46144">
        <ele>991.953918</ele>
        <time>2015-12-28T13:40:23.000Z</time>
      </trkpt>
      <trkpt lat="43.80051" lon="6.46135">
        <ele>992.706543</ele>
        <time>2015-12-28T13:40:28.000Z</time>
      </trkpt>
      <trkpt lat="43.80056" lon="6.46128">
        <ele>993.278625</ele>
        <time>2015-12-28T13:40:33.000Z</time>
      </trkpt>
      <trkpt lat="43.80062" lon="6.46122">
        <ele>993.940308</ele>
        <time>2015-12-28T13:40:38.000Z</time>
      </trkpt>
      <trkpt lat="43.80068" lon="6.46117">
        <ele>994.339783</ele>
        <time>2015-12-28T13:40:43.000Z</time>
      </trkpt>
      <trkpt lat="43.80074" lon="6.46112">
        <ele>994.740356</ele>
        <time>2015-12-28T13:40:48.000Z</time>
      </trkpt>
      <trkpt lat="43.80081" lon="6.46106">
        <ele>994.960632</ele>
        <time>2015-12-28T13:40:53.000Z</time>
      </trkpt>
      <trkpt lat="43.80087" lon="6.46101">
        <ele>995.17041</ele>
        <time>2015-12-28T13:40:58.000Z</time>
      </trkpt>
      <trkpt lat="43.80093" lon="6.46094">
        <ele>995.755737</ele>
        <time>2015-12-28T13:41:03.000Z</time>
      </trkpt>
      <trkpt lat="43.80098" lon="6.46089">
        <ele>997.155457</ele>
        <time>2015-12-28T13:41:08.000Z</time>
      </trkpt>
      <trkpt lat="43.80103" lon="6.46082">
        <ele>998.07135</ele>
        <time>2015-12-28T13:41:13.000Z</time>
      </trkpt>
      <trkpt lat="43.80108" lon="6.46076">
        <ele>999.901367</ele>
        <time>2015-12-28T13:41:18.000Z</time>
      </trkpt>
      <trkpt lat="43.80113" lon="6.46069">
        <ele>1001.985535</ele>
        <time>2015-12-28T13:41:23.000Z</time>
      </trkpt>
      <trkpt lat="43.80119" lon="6.46061">
        <ele>1002.862427</ele>
        <time>2015-12-28T13:41:28.000Z</time>
      </trkpt>
      <trkpt lat="43.80124" lon="6.46052">
        <ele>1003.114441</ele>
        <time>2015-12-28T13:41:33.000Z</time>
      </trkpt>
      <trkpt lat="43.8013" lon="6.46042">
        <ele>1002.923706</ele>
        <time>2015-12-28T13:41:38.000Z</time>
      </trkpt>
      <trkpt lat="43.80137" lon="6.46033">
        <ele>1003.012329</ele>
        <time>2015-12-28T13:41:43.000Z</time>
      </trkpt>
      <trkpt lat="43.80144" lon="6.46024">
        <ele>1003.301941</ele>
        <time>2015-12-28T13:41:48.000Z</time>
      </trkpt>
      <trkpt lat="43.80152" lon="6.46015">
        <ele>1003.275696</ele>
        <time>2015-12-28T13:41:53.000Z</time>
      </trkpt>
      <trkpt lat="43.8016" lon="6.46007">
        <ele>1002.322083</ele>
        <time>2015-12-28T13:41:58.000Z</time>
      </trkpt>
      <trkpt lat="43.80168" lon="6.45998">
        <ele>1003.093384</ele>
        <time>2015-12-28T13:42:03.000Z</time>
      </trkpt>
      <trkpt lat="43.80175" lon="6.4599">
        <ele>1004.826172</ele>
        <time>2015-12-28T13:42:08.000Z</time>
      </trkpt>
      <trkpt lat="43.80182" lon="6.45986">
        <ele>1004.897644</ele>
        <time>2015-12-28T13:42:13.000Z</time>
      </trkpt>
      <trkpt lat="43.80186" lon="6.45987">
        <ele>1004.409607</ele>
        <time>2015-12-28T13:42:18.000Z</time>
      </trkpt>
      <trkpt lat="43.80186" lon="6.45988">
        <ele>1004.02301</ele>
        <time>2015-12-28T13:42:23.000Z</time>
      </trkpt>
      <trkpt lat="43.80186" lon="6.45988">
        <ele>1004.010071</ele>
        <time>2015-12-28T13:42:28.000Z</time>
      </trkpt>
      <trkpt lat="43.80186" lon="6.45988">
        <ele>1003.952454</ele>
        <time>2015-12-28T13:42:33.000Z</time>
      </trkpt>
      <trkpt lat="43.80186" lon="6.45988">
        <ele>1003.928467</ele>
        <time>2015-12-28T13:42:38.000Z</time>
      </trkpt>
      <trkpt lat="43.80186" lon="6.45988">
        <ele>1003.971069</ele>
        <time>2015-12-28T13:42:43.000Z</time>
      </trkpt>
      <trkpt lat="43.80186" lon="6.45988">
        <ele>1004.002869</ele>
        <time>2015-12-28T13:42:48.000Z</time>
      </trkpt>
      <trkpt lat="43.80186" lon="6.45988">
        <ele>1004.043884</ele>
        <time>2015-12-28T13:42:53.000Z</time>
      </trkpt>
      <trkpt lat="43.80186" lon="6.45988">
        <ele>1004.112366</ele>
        <time>2015-12-28T13:42:58.000Z</time>
      </trkpt>
      <trkpt lat="43.80186" lon="6.45988">
        <ele>1004.153748</ele>
        <time>2015-12-28T13:43:03.000Z</time>
      </trkpt>
      <trkpt lat="43.80186" lon="6.45989">
        <ele>1004.181396</ele>
        <time>2015-12-28T13:43:08.000Z</time>
      </trkpt>
      <trkpt lat="43.80186" lon="6.45989">
        <ele>1004.190857</ele>
        <time>2015-12-28T13:43:13.000Z</time>
      </trkpt>
      <trkpt lat="43.80186" lon="6.45989">
        <ele>1004.228027</ele>
        <time>2015-12-28T13:43:18.000Z</time>
      </trkpt>
      <trkpt lat="43.80186" lon="6.45989">
        <ele>1004.241211</ele>
        <time>2015-12-28T13:43:23.000Z</time>
      </trkpt>
      <trkpt lat="43.80186" lon="6.45989">
        <ele>1004.268005</ele>
        <time>2015-12-28T13:43:28.000Z</time>
      </trkpt>
      <trkpt lat="43.80187" lon="6.4599">
        <ele>1004.333862</ele>
        <time>2015-12-28T13:43:33.000Z</time>
      </trkpt>
      <trkpt lat="43.80195" lon="6.45998">
        <ele>1004.600586</ele>
        <time>2015-12-28T13:43:38.000Z</time>
      </trkpt>
      <trkpt lat="43.80204" lon="6.46007">
        <ele>1004.907043</ele>
        <time>2015-12-28T13:43:43.000Z</time>
      </trkpt>
      <trkpt lat="43.80214" lon="6.46012">
        <ele>1005.44812</ele>
        <time>2015-12-28T13:43:48.000Z</time>
      </trkpt>
      <trkpt lat="43.80224" lon="6.46013">
        <ele>1005.772949</ele>
        <time>2015-12-28T13:43:53.000Z</time>
      </trkpt>
      <trkpt lat="43.80234" lon="6.46012">
        <ele>1006.694946</ele>
        <time>2015-12-28T13:43:58.000Z</time>
      </trkpt>
      <trkpt lat="43.80243" lon="6.4601">
        <ele>1006.861633</ele>
        <time>2015-12-28T13:44:03.000Z</time>
      </trkpt>
      <trkpt lat="43.80253" lon="6.46008">
        <ele>1006.711365</ele>
        <time>2015-12-28T13:44:08.000Z</time>
      </trkpt>
      <trkpt lat="43.80262" lon="6.46004">
        <ele>1007.539368</ele>
        <time>2015-12-28T13:44:13.000Z</time>
      </trkpt>
      <trkpt lat="43.8027" lon="6.46">
        <ele>1007.290283</ele>
        <time>2015-12-28T13:44:18.000Z</time>
      </trkpt>
      <trkpt lat="43.80278" lon="6.45998">
        <ele>1007.762268</ele>
        <time>2015-12-28T13:44:23.000Z</time>
      </trkpt>
      <trkpt lat="43.80287" lon="6.45998">
        <ele>1007.387756</ele>
        <time>2015-12-28T13:44:28.000Z</time>
      </trkpt>
      <trkpt lat="43.80297" lon="6.45998">
        <ele>1007.963013</ele>
        <time>2015-12-28T13:44:33.000Z</time>
      </trkpt>
      <trkpt lat="43.80306" lon="6.45998">
        <ele>1008.850708</ele>
        <time>2015-12-28T13:44:38.000Z</time>
      </trkpt>
      <trkpt lat="43.80313" lon="6.46">
        <ele>1009.507813</ele>
        <time>2015-12-28T13:44:43.000Z</time>
      </trkpt>
      <trkpt lat="43.8032" lon="6.46">
        <ele>1010.189453</ele>
        <time>2015-12-28T13:44:48.000Z</time>
      </trkpt>
      <trkpt lat="43.8032" lon="6.46">
        <ele>1009.213318</ele>
        <time>2015-12-28T13:44:53.000Z</time>
      </trkpt>
      <trkpt lat="43.8032" lon="6.46001">
        <ele>1009.178772</ele>
        <time>2015-12-28T13:44:58.000Z</time>
      </trkpt>
      <trkpt lat="43.8032" lon="6.46001">
        <ele>1009.210083</ele>
        <time>2015-12-28T13:45:03.000Z</time>
      </trkpt>
      <trkpt lat="43.8032" lon="6.46001">
        <ele>1009.211365</ele>
        <time>2015-12-28T13:45:08.000Z</time>
      </trkpt>
      <trkpt lat="43.8032" lon="6.46001">
        <ele>1009.20929</ele>
        <time>2015-12-28T13:45:13.000Z</time>
      </trkpt>
      <trkpt lat="43.8032" lon="6.46001">
        <ele>1009.19281</ele>
        <time>2015-12-28T13:45:18.000Z</time>
      </trkpt>
      <trkpt lat="43.8032" lon="6.46001">
        <ele>1009.196655</ele>
        <time>2015-12-28T13:45:23.000Z</time>
      </trkpt>
      <trkpt lat="43.8032" lon="6.46001">
        <ele>1009.186401</ele>
        <time>2015-12-28T13:45:28.000Z</time>
      </trkpt>
      <trkpt lat="43.8032" lon="6.46001">
        <ele>1009.177246</ele>
        <time>2015-12-28T13:45:33.000Z</time>
      </trkpt>
      <trkpt lat="43.80321" lon="6.45996">
        <ele>1009.146973</ele>
        <time>2015-12-28T13:45:38.000Z</time>
      </trkpt>
      <trkpt lat="43.80323" lon="6.45979">
        <ele>1008.993713</ele>
        <time>2015-12-28T13:45:43.000Z</time>
      </trkpt>
      <trkpt lat="43.80324" lon="6.45964">
        <ele>1009.042542</ele>
        <time>2015-12-28T13:45:48.000Z</time>
      </trkpt>
      <trkpt lat="43.80325" lon="6.45951">
        <ele>1009.920776</ele>
        <time>2015-12-28T13:45:53.000Z</time>
      </trkpt>
      <trkpt lat="43.8033" lon="6.45946">
        <ele>1010.086304</ele>
        <time>2015-12-28T13:45:58.000Z</time>
      </trkpt>
      <trkpt lat="43.80331" lon="6.45945">
        <ele>1009.579651</ele>
        <time>2015-12-28T13:46:03.000Z</time>
      </trkpt>
      <trkpt lat="43.80331" lon="6.45945">
        <ele>1009.578552</ele>
        <time>2015-12-28T13:46:08.000Z</time>
      </trkpt>
      <trkpt lat="43.80331" lon="6.45945">
        <ele>1009.600159</ele>
        <time>2015-12-28T13:46:13.000Z</time>
      </trkpt>
      <trkpt lat="43.80332" lon="6.45945">
        <ele>1009.627869</ele>
        <time>2015-12-28T13:46:18.000Z</time>
      </trkpt>
      <trkpt lat="43.80335" lon="6.45947">
        <ele>1010.626892</ele>
        <time>2015-12-28T13:46:23.000Z</time>
      </trkpt>
      <trkpt lat="43.80338" lon="6.45951">
        <ele>1012.430603</ele>
        <time>2015-12-28T13:46:28.000Z</time>
      </trkpt>
      <trkpt lat="43.8034" lon="6.45954">
        <ele>1014.508972</ele>
        <time>2015-12-28T13:46:33.000Z</time>
      </trkpt>
      <trkpt lat="43.80342" lon="6.45958">
        <ele>1015.846008</ele>
        <time>2015-12-28T13:46:38.000Z</time>
      </trkpt>
      <trkpt lat="43.80345" lon="6.45962">
        <ele>1017.52887</ele>
        <time>2015-12-28T13:46:43.000Z</time>
      </trkpt>
      <trkpt lat="43.80348" lon="6.45964">
        <ele>1018.967407</ele>
        <time>2015-12-28T13:46:48.000Z</time>
      </trkpt>
      <trkpt lat="43.80351" lon="6.45967">
        <ele>1020.391113</ele>
        <time>2015-12-28T13:46:53.000Z</time>
      </trkpt>
      <trkpt lat="43.80352" lon="6.45967">
        <ele>1021.202942</ele>
        <time>2015-12-28T13:46:58.000Z</time>
      </trkpt>
      <trkpt lat="43.80353" lon="6.45967">
        <ele>1021.774658</ele>
        <time>2015-12-28T13:47:03.000Z</time>
      </trkpt>
      <trkpt lat="43.80355" lon="6.45966">
        <ele>1023.884277</ele>
        <time>2015-12-28T13:47:08.000Z</time>
      </trkpt>
      <trkpt lat="43.80356" lon="6.45964">
        <ele>1024.78479</ele>
        <time>2015-12-28T13:47:13.000Z</time>
      </trkpt>
      <trkpt lat="43.80357" lon="6.45964">
        <ele>1024.865356</ele>
        <time>2015-12-28T13:47:18.000Z</time>
      </trkpt>
      <trkpt lat="43.80358" lon="6.45966">
        <ele>1025.191895</ele>
        <time>2015-12-28T13:47:23.000Z</time>
      </trkpt>
      <trkpt lat="43.80359" lon="6.45966">
        <ele>1025.413208</ele>
        <time>2015-12-28T13:47:28.000Z</time>
      </trkpt>
      <trkpt lat="43.80366" lon="6.4596">
        <ele>1026.438477</ele>
        <time>2015-12-28T13:47:33.000Z</time>
      </trkpt>
      <trkpt lat="43.8037" lon="6.45947">
        <ele>1025.43103</ele>
        <time>2015-12-28T13:47:38.000Z</time>
      </trkpt>
      <trkpt lat="43.80373" lon="6.4593">
        <ele>1023.408997</ele>
        <time>2015-12-28T13:47:43.000Z</time>
      </trkpt>
      <trkpt lat="43.80374" lon="6.45915">
        <ele>1020.997864</ele>
        <time>2015-12-28T13:47:48.000Z</time>
      </trkpt>
      <trkpt lat="43.80382" lon="6.45906">
        <ele>1019.617004</ele>
        <time>2015-12-28T13:47:53.000Z</time>
      </trkpt>
      <trkpt lat="43.80386" lon="6.45892">
        <ele>1018.798157</ele>
        <time>2015-12-28T13:47:58.000Z</time>
      </trkpt>
      <trkpt lat="43.80393" lon="6.45881">
        <ele>1017.805725</ele>
        <time>2015-12-28T13:48:03.000Z</time>
      </trkpt>
      <trkpt lat="43.80401" lon="6.45871">
        <ele>1016.810547</ele>
        <time>2015-12-28T13:48:08.000Z</time>
      </trkpt>
      <trkpt lat="43.80404" lon="6.45856">
        <ele>1015.67926</ele>
        <time>2015-12-28T13:48:13.000Z</time>
      </trkpt>
      <trkpt lat="43.80407" lon="6.45843">
        <ele>1014.141968</ele>
        <time>2015-12-28T13:48:18.000Z</time>
      </trkpt>
      <trkpt lat="43.8041" lon="6.45833">
        <ele>1014.828979</ele>
        <time>2015-12-28T13:48:23.000Z</time>
      </trkpt>
      <trkpt lat="43.80413" lon="6.45826">
        <ele>1015.687805</ele>
        <time>2015-12-28T13:48:28.000Z</time>
      </trkpt>
      <trkpt lat="43.80416" lon="6.45819">
        <ele>1016.739685</ele>
        <time>2015-12-28T13:48:33.000Z</time>
      </trkpt>
      <trkpt lat="43.80417" lon="6.4581">
        <ele>1018.935181</ele>
        <time>2015-12-28T13:48:38.000Z</time>
      </trkpt>
      <trkpt lat="43.8042" lon="6.45807">
        <ele>1019.710754</ele>
        <time>2015-12-28T13:48:43.000Z</time>
      </trkpt>
      <trkpt lat="43.80427" lon="6.45803">
        <ele>1018.487305</ele>
        <time>2015-12-28T13:48:48.000Z</time>
      </trkpt>
      <trkpt lat="43.80427" lon="6.45805">
        <ele>1017.864563</ele>
        <time>2015-12-28T13:48:53.000Z</time>
      </trkpt>
      <trkpt lat="43.80427" lon="6.45804">
        <ele>1017.371582</ele>
        <time>2015-12-28T13:48:58.000Z</time>
      </trkpt>
      <trkpt lat="43.80426" lon="6.45805">
        <ele>1017.293213</ele>
        <time>2015-12-28T13:49:03.000Z</time>
      </trkpt>
      <trkpt lat="43.80426" lon="6.45805">
        <ele>1017.026184</ele>
        <time>2015-12-28T13:49:08.000Z</time>
      </trkpt>
      <trkpt lat="43.80427" lon="6.45805">
        <ele>1017.060791</ele>
        <time>2015-12-28T13:49:13.000Z</time>
      </trkpt>
      <trkpt lat="43.80426" lon="6.45805">
        <ele>1017.042603</ele>
        <time>2015-12-28T13:49:18.000Z</time>
      </trkpt>
      <trkpt lat="43.80427" lon="6.45805">
        <ele>1017.041931</ele>
        <time>2015-12-28T13:49:23.000Z</time>
      </trkpt>
      <trkpt lat="43.80426" lon="6.45805">
        <ele>1017.052917</ele>
        <time>2015-12-28T13:49:28.000Z</time>
      </trkpt>
      <trkpt lat="43.80426" lon="6.45805">
        <ele>1017.04425</ele>
        <time>2015-12-28T13:49:33.000Z</time>
      </trkpt>
      <trkpt lat="43.80427" lon="6.45804">
        <ele>1017.247314</ele>
        <time>2015-12-28T13:49:38.000Z</time>
      </trkpt>
      <trkpt lat="43.80437" lon="6.45797">
        <ele>1016.561279</ele>
        <time>2015-12-28T13:49:43.000Z</time>
      </trkpt>
      <trkpt lat="43.80452" lon="6.45783">
        <ele>1015.492676</ele>
        <time>2015-12-28T13:49:48.000Z</time>
      </trkpt>
      <trkpt lat="43.80463" lon="6.45766">
        <ele>1014.85968</ele>
        <time>2015-12-28T13:49:53.000Z</time>
      </trkpt>
      <trkpt lat="43.80468" lon="6.45764">
        <ele>1014.719055</ele>
        <time>2015-12-28T13:49:58.000Z</time>
      </trkpt>
      <trkpt lat="43.80468" lon="6.45763">
        <ele>1014.995483</ele>
        <time>2015-12-28T13:50:03.000Z</time>
      </trkpt>
      <trkpt lat="43.80469" lon="6.45763">
        <ele>1015.200378</ele>
        <time>2015-12-28T13:50:08.000Z</time>
      </trkpt>
      <trkpt lat="43.80469" lon="6.45762">
        <ele>1015.112122</ele>
        <time>2015-12-28T13:50:13.000Z</time>
      </trkpt>
      <trkpt lat="43.8047" lon="6.45762">
        <ele>1015.198792</ele>
        <time>2015-12-28T13:50:18.000Z</time>
      </trkpt>
      <trkpt lat="43.80471" lon="6.45762">
        <ele>1015.558594</ele>
        <time>2015-12-28T13:50:23.000Z</time>
      </trkpt>
      <trkpt lat="43.80472" lon="6.45761">
        <ele>1015.547913</ele>
        <time>2015-12-28T13:50:28.000Z</time>
      </trkpt>
      <trkpt lat="43.80475" lon="6.45759">
        <ele>1016.064758</ele>
        <time>2015-12-28T13:50:33.000Z</time>
      </trkpt>
      <trkpt lat="43.80475" lon="6.45755">
        <ele>1017.769897</ele>
        <time>2015-12-28T13:50:38.000Z</time>
      </trkpt>
      <trkpt lat="43.80474" lon="6.45756">
        <ele>1018.914124</ele>
        <time>2015-12-28T13:50:43.000Z</time>
      </trkpt>
      <trkpt lat="43.80475" lon="6.45757">
        <ele>1019.049133</ele>
        <time>2015-12-28T13:50:48.000Z</time>
      </trkpt>
      <trkpt lat="43.80474" lon="6.45758">
        <ele>1019.361633</ele>
        <time>2015-12-28T13:50:53.000Z</time>
      </trkpt>
      <trkpt lat="43.80471" lon="6.45763">
        <ele>1019.235046</ele>
        <time>2015-12-28T13:50:58.000Z</time>
      </trkpt>
      <trkpt lat="43.8047" lon="6.45763">
        <ele>1018.550659</ele>
        <time>2015-12-28T13:51:03.000Z</time>
      </trkpt>
      <trkpt lat="43.8047" lon="6.45763">
        <ele>1018.198242</ele>
        <time>2015-12-28T13:51:08.000Z</time>
      </trkpt>
      <trkpt lat="43.80471" lon="6.45762">
        <ele>1018.422241</ele>
        <time>2015-12-28T13:51:13.000Z</time>
      </trkpt>
      <trkpt lat="43.80475" lon="6.45759">
        <ele>1019.542236</ele>
        <time>2015-12-28T13:51:18.000Z</time>
      </trkpt>
      <trkpt lat="43.80475" lon="6.45755">
        <ele>1019.059631</ele>
        <time>2015-12-28T13:51:23.000Z</time>
      </trkpt>
      <trkpt lat="43.80476" lon="6.45755">
        <ele>1019.000366</ele>
        <time>2015-12-28T13:51:28.000Z</time>
      </trkpt>
      <trkpt lat="43.80476" lon="6.45754">
        <ele>1019.022583</ele>
        <time>2015-12-28T13:51:33.000Z</time>
      </trkpt>
      <trkpt lat="43.80477" lon="6.45755">
        <ele>1019.073181</ele>
        <time>2015-12-28T13:51:38.000Z</time>
      </trkpt>
      <trkpt lat="43.80477" lon="6.45755">
        <ele>1019.040649</ele>
        <time>2015-12-28T13:51:43.000Z</time>
      </trkpt>
      <trkpt lat="43.80477" lon="6.45755">
        <ele>1019.026733</ele>
        <time>2015-12-28T13:51:48.000Z</time>
      </trkpt>
      <trkpt lat="43.80477" lon="6.45755">
        <ele>1019.017151</ele>
        <time>2015-12-28T13:51:53.000Z</time>
      </trkpt>
      <trkpt lat="43.80477" lon="6.45754">
        <ele>1019.170044</ele>
        <time>2015-12-28T13:51:58.000Z</time>
      </trkpt>
      <trkpt lat="43.80478" lon="6.45751">
        <ele>1019.021545</ele>
        <time>2015-12-28T13:52:03.000Z</time>
      </trkpt>
      <trkpt lat="43.80479" lon="6.45749">
        <ele>1018.65918</ele>
        <time>2015-12-28T13:52:08.000Z</time>
      </trkpt>
      <trkpt lat="43.80479" lon="6.45749">
        <ele>1018.775208</ele>
        <time>2015-12-28T13:52:13.000Z</time>
      </trkpt>
      <trkpt lat="43.80481" lon="6.45746">
        <ele>1018.932556</ele>
        <time>2015-12-28T13:52:18.000Z</time>
      </trkpt>
      <trkpt lat="43.80486" lon="6.45738">
        <ele>1018.826843</ele>
        <time>2015-12-28T13:52:23.000Z</time>
      </trkpt>
      <trkpt lat="43.80491" lon="6.4573">
        <ele>1019.602478</ele>
        <time>2015-12-28T13:52:28.000Z</time>
      </trkpt>
      <trkpt lat="43.80498" lon="6.45721">
        <ele>1021.05896</ele>
        <time>2015-12-28T13:52:33.000Z</time>
      </trkpt>
      <trkpt lat="43.80504" lon="6.45713">
        <ele>1023.883057</ele>
        <time>2015-12-28T13:52:38.000Z</time>
      </trkpt>
      <trkpt lat="43.8051" lon="6.45705">
        <ele>1024.998657</ele>
        <time>2015-12-28T13:52:43.000Z</time>
      </trkpt>
      <trkpt lat="43.80512" lon="6.45703">
        <ele>1026.788086</ele>
        <time>2015-12-28T13:52:48.000Z</time>
      </trkpt>
      <trkpt lat="43.80512" lon="6.45702">
        <ele>1026.582642</ele>
        <time>2015-12-28T13:52:53.000Z</time>
      </trkpt>
      <trkpt lat="43.80512" lon="6.45702">
        <ele>1026.581421</ele>
        <time>2015-12-28T13:52:58.000Z</time>
      </trkpt>
      <trkpt lat="43.80512" lon="6.45703">
        <ele>1026.632813</ele>
        <time>2015-12-28T13:53:03.000Z</time>
      </trkpt>
      <trkpt lat="43.80512" lon="6.45702">
        <ele>1026.631958</ele>
        <time>2015-12-28T13:53:08.000Z</time>
      </trkpt>
      <trkpt lat="43.80512" lon="6.45702">
        <ele>1026.690796</ele>
        <time>2015-12-28T13:53:13.000Z</time>
      </trkpt>
      <trkpt lat="43.80519" lon="6.45696">
        <ele>1027.826294</ele>
        <time>2015-12-28T13:53:18.000Z</time>
      </trkpt>
      <trkpt lat="43.80524" lon="6.4569">
        <ele>1029.733521</ele>
        <time>2015-12-28T13:53:23.000Z</time>
      </trkpt>
      <trkpt lat="43.8053" lon="6.45684">
        <ele>1031.479736</ele>
        <time>2015-12-28T13:53:28.000Z</time>
      </trkpt>
      <trkpt lat="43.80535" lon="6.45677">
        <ele>1033.182617</ele>
        <time>2015-12-28T13:53:33.000Z</time>
      </trkpt>
      <trkpt lat="43.8054" lon="6.45668">
        <ele>1033.973267</ele>
        <time>2015-12-28T13:53:38.000Z</time>
      </trkpt>
      <trkpt lat="43.80546" lon="6.45663">
        <ele>1034.348755</ele>
        <time>2015-12-28T13:53:43.000Z</time>
      </trkpt>
      <trkpt lat="43.80553" lon="6.45658">
        <ele>1035.756226</ele>
        <time>2015-12-28T13:53:48.000Z</time>
      </trkpt>
      <trkpt lat="43.80558" lon="6.45654">
        <ele>1037.59729</ele>
        <time>2015-12-28T13:53:53.000Z</time>
      </trkpt>
      <trkpt lat="43.80565" lon="6.4565">
        <ele>1039.670166</ele>
        <time>2015-12-28T13:53:58.000Z</time>
      </trkpt>
      <trkpt lat="43.80571" lon="6.45645">
        <ele>1042.304565</ele>
        <time>2015-12-28T13:54:03.000Z</time>
      </trkpt>
      <trkpt lat="43.80574" lon="6.45636">
        <ele>1042.518188</ele>
        <time>2015-12-28T13:54:08.000Z</time>
      </trkpt>
      <trkpt lat="43.80577" lon="6.45626">
        <ele>1042.757324</ele>
        <time>2015-12-28T13:54:13.000Z</time>
      </trkpt>
      <trkpt lat="43.80582" lon="6.45616">
        <ele>1043.351563</ele>
        <time>2015-12-28T13:54:18.000Z</time>
      </trkpt>
      <trkpt lat="43.80586" lon="6.45607">
        <ele>1043.89563</ele>
        <time>2015-12-28T13:54:23.000Z</time>
      </trkpt>
      <trkpt lat="43.80591" lon="6.45601">
        <ele>1043.512573</ele>
        <time>2015-12-28T13:54:28.000Z</time>
      </trkpt>
      <trkpt lat="43.80597" lon="6.45596">
        <ele>1043.67749</ele>
        <time>2015-12-28T13:54:33.000Z</time>
      </trkpt>
      <trkpt lat="43.80603" lon="6.45591">
        <ele>1041.825562</ele>
        <time>2015-12-28T13:54:38.000Z</time>
      </trkpt>
      <trkpt lat="43.80607" lon="6.4559">
        <ele>1040.074707</ele>
        <time>2015-12-28T13:54:43.000Z</time>
      </trkpt>
      <trkpt lat="43.80608" lon="6.45589">
        <ele>1038.301514</ele>
        <time>2015-12-28T13:54:48.000Z</time>
      </trkpt>
      <trkpt lat="43.80611" lon="6.45587">
        <ele>1037.538696</ele>
        <time>2015-12-28T13:54:53.000Z</time>
      </trkpt>
      <trkpt lat="43.80614" lon="6.45586">
        <ele>1037.973389</ele>
        <time>2015-12-28T13:54:58.000Z</time>
      </trkpt>
      <trkpt lat="43.80618" lon="6.45585">
        <ele>1038.485474</ele>
        <time>2015-12-28T13:55:03.000Z</time>
      </trkpt>
      <trkpt lat="43.8062" lon="6.45582">
        <ele>1039.343384</ele>
        <time>2015-12-28T13:55:08.000Z</time>
      </trkpt>
      <trkpt lat="43.80622" lon="6.45578">
        <ele>1040.731812</ele>
        <time>2015-12-28T13:55:13.000Z</time>
      </trkpt>
      <trkpt lat="43.80625" lon="6.45574">
        <ele>1041.600464</ele>
        <time>2015-12-28T13:55:18.000Z</time>
      </trkpt>
      <trkpt lat="43.80629" lon="6.45568">
        <ele>1043.032959</ele>
        <time>2015-12-28T13:55:23.000Z</time>
      </trkpt>
      <trkpt lat="43.80632" lon="6.45562">
        <ele>1043.891235</ele>
        <time>2015-12-28T13:55:28.000Z</time>
      </trkpt>
      <trkpt lat="43.80634" lon="6.45556">
        <ele>1046.001587</ele>
        <time>2015-12-28T13:55:33.000Z</time>
      </trkpt>
      <trkpt lat="43.80636" lon="6.4555">
        <ele>1048.427368</ele>
        <time>2015-12-28T13:55:38.000Z</time>
      </trkpt>
      <trkpt lat="43.8064" lon="6.45545">
        <ele>1049.759888</ele>
        <time>2015-12-28T13:55:43.000Z</time>
      </trkpt>
      <trkpt lat="43.80643" lon="6.45541">
        <ele>1051.990356</ele>
        <time>2015-12-28T13:55:48.000Z</time>
      </trkpt>
      <trkpt lat="43.80646" lon="6.45539">
        <ele>1054.22644</ele>
        <time>2015-12-28T13:55:53.000Z</time>
      </trkpt>
      <trkpt lat="43.8065" lon="6.45537">
        <ele>1055.409668</ele>
        <time>2015-12-28T13:55:58.000Z</time>
      </trkpt>
      <trkpt lat="43.80655" lon="6.45534">
        <ele>1055.710449</ele>
        <time>2015-12-28T13:56:03.000Z</time>
      </trkpt>
      <trkpt lat="43.80661" lon="6.45532">
        <ele>1057.197266</ele>
        <time>2015-12-28T13:56:08.000Z</time>
      </trkpt>
      <trkpt lat="43.80664" lon="6.45533">
        <ele>1058.85791</ele>
        <time>2015-12-28T13:56:13.000Z</time>
      </trkpt>
      <trkpt lat="43.80668" lon="6.45531">
        <ele>1060.684692</ele>
        <time>2015-12-28T13:56:18.000Z</time>
      </trkpt>
      <trkpt lat="43.80672" lon="6.4553">
        <ele>1060.71582</ele>
        <time>2015-12-28T13:56:23.000Z</time>
      </trkpt>
      <trkpt lat="43.80677" lon="6.45526">
        <ele>1060.687744</ele>
        <time>2015-12-28T13:56:28.000Z</time>
      </trkpt>
      <trkpt lat="43.8068" lon="6.45522">
        <ele>1062.026367</ele>
        <time>2015-12-28T13:56:33.000Z</time>
      </trkpt>
      <trkpt lat="43.80683" lon="6.45518">
        <ele>1062.939697</ele>
        <time>2015-12-28T13:56:38.000Z</time>
      </trkpt>
      <trkpt lat="43.80686" lon="6.45515">
        <ele>1063.051514</ele>
        <time>2015-12-28T13:56:43.000Z</time>
      </trkpt>
      <trkpt lat="43.80686" lon="6.45516">
        <ele>1063.266602</ele>
        <time>2015-12-28T13:56:48.000Z</time>
      </trkpt>
      <trkpt lat="43.80686" lon="6.45515">
        <ele>1063.392944</ele>
        <time>2015-12-28T13:56:53.000Z</time>
      </trkpt>
      <trkpt lat="43.80686" lon="6.45515">
        <ele>1063.442383</ele>
        <time>2015-12-28T13:56:58.000Z</time>
      </trkpt>
      <trkpt lat="43.80686" lon="6.45515">
        <ele>1063.451294</ele>
        <time>2015-12-28T13:57:03.000Z</time>
      </trkpt>
      <trkpt lat="43.80686" lon="6.45515">
        <ele>1063.450562</ele>
        <time>2015-12-28T13:57:08.000Z</time>
      </trkpt>
      <trkpt lat="43.80686" lon="6.45515">
        <ele>1063.446045</ele>
        <time>2015-12-28T13:57:13.000Z</time>
      </trkpt>
      <trkpt lat="43.80687" lon="6.45515">
        <ele>1063.443848</ele>
        <time>2015-12-28T13:57:18.000Z</time>
      </trkpt>
      <trkpt lat="43.80687" lon="6.45515">
        <ele>1063.456055</ele>
        <time>2015-12-28T13:57:23.000Z</time>
      </trkpt>
      <trkpt lat="43.80687" lon="6.45515">
        <ele>1063.452393</ele>
        <time>2015-12-28T13:57:28.000Z</time>
      </trkpt>
      <trkpt lat="43.80687" lon="6.45515">
        <ele>1063.424194</ele>
        <time>2015-12-28T13:57:33.000Z</time>
      </trkpt>
      <trkpt lat="43.80688" lon="6.45515">
        <ele>1063.80542</ele>
        <time>2015-12-28T13:57:38.000Z</time>
      </trkpt>
      <trkpt lat="43.80691" lon="6.45511">
        <ele>1064.541626</ele>
        <time>2015-12-28T13:57:43.000Z</time>
      </trkpt>
      <trkpt lat="43.80696" lon="6.45509">
        <ele>1065.623901</ele>
        <time>2015-12-28T13:57:48.000Z</time>
      </trkpt>
      <trkpt lat="43.807" lon="6.45505">
        <ele>1067.219482</ele>
        <time>2015-12-28T13:57:53.000Z</time>
      </trkpt>
      <trkpt lat="43.80703" lon="6.45501">
        <ele>1068.240356</ele>
        <time>2015-12-28T13:57:58.000Z</time>
      </trkpt>
      <trkpt lat="43.80707" lon="6.45499">
        <ele>1069.86499</ele>
        <time>2015-12-28T13:58:03.000Z</time>
      </trkpt>
      <trkpt lat="43.80711" lon="6.45494">
        <ele>1071.138916</ele>
        <time>2015-12-28T13:58:08.000Z</time>
      </trkpt>
      <trkpt lat="43.80715" lon="6.4549">
        <ele>1071.854858</ele>
        <time>2015-12-28T13:58:13.000Z</time>
      </trkpt>
      <trkpt lat="43.8072" lon="6.45483">
        <ele>1072.583618</ele>
        <time>2015-12-28T13:58:18.000Z</time>
      </trkpt>
      <trkpt lat="43.80723" lon="6.45479">
        <ele>1073.126953</ele>
        <time>2015-12-28T13:58:23.000Z</time>
      </trkpt>
      <trkpt lat="43.80726" lon="6.45476">
        <ele>1072.832275</ele>
        <time>2015-12-28T13:58:28.000Z</time>
      </trkpt>
      <trkpt lat="43.80729" lon="6.45472">
        <ele>1072.981812</ele>
        <time>2015-12-28T13:58:33.000Z</time>
      </trkpt>
      <trkpt lat="43.80731" lon="6.45468">
        <ele>1073.730225</ele>
        <time>2015-12-28T13:58:38.000Z</time>
      </trkpt>
      <trkpt lat="43.80734" lon="6.45461">
        <ele>1074.97229</ele>
        <time>2015-12-28T13:58:43.000Z</time>
      </trkpt>
      <trkpt lat="43.80734" lon="6.45459">
        <ele>1076.088135</ele>
        <time>2015-12-28T13:58:48.000Z</time>
      </trkpt>
      <trkpt lat="43.80735" lon="6.45455">
        <ele>1077.504639</ele>
        <time>2015-12-28T13:58:53.000Z</time>
      </trkpt>
      <trkpt lat="43.80738" lon="6.4545">
        <ele>1079.476685</ele>
        <time>2015-12-28T13:58:58.000Z</time>
      </trkpt>
      <trkpt lat="43.80739" lon="6.45446">
        <ele>1080.275146</ele>
        <time>2015-12-28T13:59:03.000Z</time>
      </trkpt>
      <trkpt lat="43.80742" lon="6.45438">
        <ele>1081.266235</ele>
        <time>2015-12-28T13:59:08.000Z</time>
      </trkpt>
      <trkpt lat="43.80745" lon="6.45434">
        <ele>1082.101196</ele>
        <time>2015-12-28T13:59:13.000Z</time>
      </trkpt>
      <trkpt lat="43.80747" lon="6.45429">
        <ele>1083.033936</ele>
        <time>2015-12-28T13:59:18.000Z</time>
      </trkpt>
      <trkpt lat="43.80749" lon="6.45424">
        <ele>1084.015747</ele>
        <time>2015-12-28T13:59:23.000Z</time>
      </trkpt>
      <trkpt lat="43.80751" lon="6.45418">
        <ele>1085.095703</ele>
        <time>2015-12-28T13:59:28.000Z</time>
      </trkpt>
      <trkpt lat="43.80754" lon="6.45412">
        <ele>1086.484497</ele>
        <time>2015-12-28T13:59:33.000Z</time>
      </trkpt>
      <trkpt lat="43.80755" lon="6.45407">
        <ele>1088.021362</ele>
        <time>2015-12-28T13:59:38.000Z</time>
      </trkpt>
      <trkpt lat="43.80756" lon="6.45405">
        <ele>1090.206787</ele>
        <time>2015-12-28T13:59:43.000Z</time>
      </trkpt>
      <trkpt lat="43.80755" lon="6.45404">
        <ele>1090.806274</ele>
        <time>2015-12-28T13:59:48.000Z</time>
      </trkpt>
      <trkpt lat="43.80754" lon="6.45403">
        <ele>1091.881836</ele>
        <time>2015-12-28T13:59:53.000Z</time>
      </trkpt>
      <trkpt lat="43.80754" lon="6.45403">
        <ele>1093.028564</ele>
        <time>2015-12-28T13:59:58.000Z</time>
      </trkpt>
      <trkpt lat="43.80754" lon="6.45403">
        <ele>1094.167603</ele>
        <time>2015-12-28T14:00:03.000Z</time>
      </trkpt>
      <trkpt lat="43.80755" lon="6.45403">
        <ele>1095.285767</ele>
        <time>2015-12-28T14:00:08.000Z</time>
      </trkpt>
      <trkpt lat="43.80757" lon="6.45399">
        <ele>1096.248169</ele>
        <time>2015-12-28T14:00:13.000Z</time>
      </trkpt>
      <trkpt lat="43.80758" lon="6.45398">
        <ele>1097.139404</ele>
        <time>2015-12-28T14:00:18.000Z</time>
      </trkpt>
      <trkpt lat="43.80758" lon="6.45395">
        <ele>1097.69104</ele>
        <time>2015-12-28T14:00:23.000Z</time>
      </trkpt>
      <trkpt lat="43.8076" lon="6.45395">
        <ele>1098.092529</ele>
        <time>2015-12-28T14:00:28.000Z</time>
      </trkpt>
      <trkpt lat="43.8076" lon="6.45394">
        <ele>1098.775635</ele>
        <time>2015-12-28T14:00:33.000Z</time>
      </trkpt>
      <trkpt lat="43.8076" lon="6.45394">
        <ele>1099.022827</ele>
        <time>2015-12-28T14:00:38.000Z</time>
      </trkpt>
      <trkpt lat="43.80761" lon="6.45393">
        <ele>1099.270386</ele>
        <time>2015-12-28T14:00:43.000Z</time>
      </trkpt>
      <trkpt lat="43.80764" lon="6.4539">
        <ele>1099.695801</ele>
        <time>2015-12-28T14:00:48.000Z</time>
      </trkpt>
      <trkpt lat="43.80766" lon="6.45385">
        <ele>1100.700562</ele>
        <time>2015-12-28T14:00:53.000Z</time>
      </trkpt>
      <trkpt lat="43.80769" lon="6.45379">
        <ele>1101.56311</ele>
        <time>2015-12-28T14:00:58.000Z</time>
      </trkpt>
      <trkpt lat="43.80771" lon="6.45376">
        <ele>1103.175659</ele>
        <time>2015-12-28T14:01:03.000Z</time>
      </trkpt>
      <trkpt lat="43.80774" lon="6.45372">
        <ele>1104.640869</ele>
        <time>2015-12-28T14:01:08.000Z</time>
      </trkpt>
      <trkpt lat="43.80776" lon="6.45367">
        <ele>1105.877441</ele>
        <time>2015-12-28T14:01:13.000Z</time>
      </trkpt>
      <trkpt lat="43.8078" lon="6.45359">
        <ele>1106.780029</ele>
        <time>2015-12-28T14:01:18.000Z</time>
      </trkpt>
      <trkpt lat="43.80783" lon="6.45356">
        <ele>1107.782471</ele>
        <time>2015-12-28T14:01:23.000Z</time>
      </trkpt>
      <trkpt lat="43.80785" lon="6.45353">
        <ele>1108.10498</ele>
        <time>2015-12-28T14:01:28.000Z</time>
      </trkpt>
      <trkpt lat="43.80787" lon="6.45348">
        <ele>1108.947388</ele>
        <time>2015-12-28T14:01:33.000Z</time>
      </trkpt>
      <trkpt lat="43.80789" lon="6.45344">
        <ele>1109.680908</ele>
        <time>2015-12-28T14:01:38.000Z</time>
      </trkpt>
      <trkpt lat="43.80792" lon="6.4534">
        <ele>1110.064087</ele>
        <time>2015-12-28T14:01:43.000Z</time>
      </trkpt>
      <trkpt lat="43.80792" lon="6.4534">
        <ele>1110.435303</ele>
        <time>2015-12-28T14:01:48.000Z</time>
      </trkpt>
      <trkpt lat="43.80792" lon="6.4534">
        <ele>1110.836792</ele>
        <time>2015-12-28T14:01:53.000Z</time>
      </trkpt>
      <trkpt lat="43.80792" lon="6.4534">
        <ele>1111.235596</ele>
        <time>2015-12-28T14:01:58.000Z</time>
      </trkpt>
      <trkpt lat="43.80792" lon="6.4534">
        <ele>1111.630737</ele>
        <time>2015-12-28T14:02:03.000Z</time>
      </trkpt>
      <trkpt lat="43.80792" lon="6.4534">
        <ele>1112.02063</ele>
        <time>2015-12-28T14:02:08.000Z</time>
      </trkpt>
      <trkpt lat="43.80792" lon="6.4534">
        <ele>1112.410034</ele>
        <time>2015-12-28T14:02:13.000Z</time>
      </trkpt>
      <trkpt lat="43.80791" lon="6.4534">
        <ele>1112.784302</ele>
        <time>2015-12-28T14:02:18.000Z</time>
      </trkpt>
      <trkpt lat="43.80791" lon="6.4534">
        <ele>1112.935303</ele>
        <time>2015-12-28T14:02:23.000Z</time>
      </trkpt>
      <trkpt lat="43.80794" lon="6.45336">
        <ele>1113.165527</ele>
        <time>2015-12-28T14:02:28.000Z</time>
      </trkpt>
      <trkpt lat="43.80797" lon="6.45332">
        <ele>1113.073608</ele>
        <time>2015-12-28T14:02:33.000Z</time>
      </trkpt>
      <trkpt lat="43.808" lon="6.45329">
        <ele>1112.765259</ele>
        <time>2015-12-28T14:02:38.000Z</time>
      </trkpt>
      <trkpt lat="43.80802" lon="6.45326">
        <ele>1112.579712</ele>
        <time>2015-12-28T14:02:43.000Z</time>
      </trkpt>
      <trkpt lat="43.80805" lon="6.45323">
        <ele>1112.634399</ele>
        <time>2015-12-28T14:02:48.000Z</time>
      </trkpt>
      <trkpt lat="43.80808" lon="6.4532">
        <ele>1112.396362</ele>
        <time>2015-12-28T14:02:53.000Z</time>
      </trkpt>
      <trkpt lat="43.80812" lon="6.45314">
        <ele>1112.531128</ele>
        <time>2015-12-28T14:02:58.000Z</time>
      </trkpt>
      <trkpt lat="43.80814" lon="6.45311">
        <ele>1112.812866</ele>
        <time>2015-12-28T14:03:03.000Z</time>
      </trkpt>
      <trkpt lat="43.80814" lon="6.45311">
        <ele>1112.596069</ele>
        <time>2015-12-28T14:03:08.000Z</time>
      </trkpt>
      <trkpt lat="43.80815" lon="6.45311">
        <ele>1112.982544</ele>
        <time>2015-12-28T14:03:13.000Z</time>
      </trkpt>
      <trkpt lat="43.80815" lon="6.4531">
        <ele>1113.352417</ele>
        <time>2015-12-28T14:03:18.000Z</time>
      </trkpt>
      <trkpt lat="43.80815" lon="6.4531">
        <ele>1113.649414</ele>
        <time>2015-12-28T14:03:23.000Z</time>
      </trkpt>
      <trkpt lat="43.80815" lon="6.4531">
        <ele>1113.644043</ele>
        <time>2015-12-28T14:03:28.000Z</time>
      </trkpt>
      <trkpt lat="43.80815" lon="6.4531">
        <ele>1113.636597</ele>
        <time>2015-12-28T14:03:33.000Z</time>
      </trkpt>
      <trkpt lat="43.80815" lon="6.4531">
        <ele>1113.629272</ele>
        <time>2015-12-28T14:03:38.000Z</time>
      </trkpt>
      <trkpt lat="43.80815" lon="6.4531">
        <ele>1113.621582</ele>
        <time>2015-12-28T14:03:43.000Z</time>
      </trkpt>
      <trkpt lat="43.80815" lon="6.4531">
        <ele>1113.619141</ele>
        <time>2015-12-28T14:03:48.000Z</time>
      </trkpt>
      <trkpt lat="43.80815" lon="6.45311">
        <ele>1113.621216</ele>
        <time>2015-12-28T14:03:53.000Z</time>
      </trkpt>
      <trkpt lat="43.80815" lon="6.45311">
        <ele>1113.616211</ele>
        <time>2015-12-28T14:03:58.000Z</time>
      </trkpt>
      <trkpt lat="43.80815" lon="6.45311">
        <ele>1113.644897</ele>
        <time>2015-12-28T14:04:03.000Z</time>
      </trkpt>
      <trkpt lat="43.80815" lon="6.45311">
        <ele>1113.660156</ele>
        <time>2015-12-28T14:04:08.000Z</time>
      </trkpt>
      <trkpt lat="43.80815" lon="6.4531">
        <ele>1113.652222</ele>
        <time>2015-12-28T14:04:13.000Z</time>
      </trkpt>
      <trkpt lat="43.80817" lon="6.45306">
        <ele>1113.943604</ele>
        <time>2015-12-28T14:04:18.000Z</time>
      </trkpt>
      <trkpt lat="43.8082" lon="6.45302">
        <ele>1114.415649</ele>
        <time>2015-12-28T14:04:23.000Z</time>
      </trkpt>
      <trkpt lat="43.80821" lon="6.45298">
        <ele>1115.409302</ele>
        <time>2015-12-28T14:04:28.000Z</time>
      </trkpt>
      <trkpt lat="43.80821" lon="6.45293">
        <ele>1116.672485</ele>
        <time>2015-12-28T14:04:33.000Z</time>
      </trkpt>
      <trkpt lat="43.80822" lon="6.45291">
        <ele>1118.313232</ele>
        <time>2015-12-28T14:04:38.000Z</time>
      </trkpt>
      <trkpt lat="43.80822" lon="6.4529">
        <ele>1119.393677</ele>
        <time>2015-12-28T14:04:43.000Z</time>
      </trkpt>
      <trkpt lat="43.80821" lon="6.45286">
        <ele>1120.570435</ele>
        <time>2015-12-28T14:04:48.000Z</time>
      </trkpt>
      <trkpt lat="43.80821" lon="6.45283">
        <ele>1121.650635</ele>
        <time>2015-12-28T14:04:53.000Z</time>
      </trkpt>
      <trkpt lat="43.80823" lon="6.45279">
        <ele>1122.300415</ele>
        <time>2015-12-28T14:04:58.000Z</time>
      </trkpt>
      <trkpt lat="43.80827" lon="6.45271">
        <ele>1122.885864</ele>
        <time>2015-12-28T14:05:03.000Z</time>
      </trkpt>
      <trkpt lat="43.8083" lon="6.45261">
        <ele>1123.266724</ele>
        <time>2015-12-28T14:05:08.000Z</time>
      </trkpt>
      <trkpt lat="43.80835" lon="6.45251">
        <ele>1124.361694</ele>
        <time>2015-12-28T14:05:13.000Z</time>
      </trkpt>
      <trkpt lat="43.80839" lon="6.45242">
        <ele>1124.990845</ele>
        <time>2015-12-28T14:05:18.000Z</time>
      </trkpt>
      <trkpt lat="43.8084" lon="6.45233">
        <ele>1126.063843</ele>
        <time>2015-12-28T14:05:23.000Z</time>
      </trkpt>
      <trkpt lat="43.80839" lon="6.45231">
        <ele>1126.411987</ele>
        <time>2015-12-28T14:05:28.000Z</time>
      </trkpt>
      <trkpt lat="43.80839" lon="6.45229">
        <ele>1127.221558</ele>
        <time>2015-12-28T14:05:33.000Z</time>
      </trkpt>
      <trkpt lat="43.80839" lon="6.45228">
        <ele>1127.633179</ele>
        <time>2015-12-28T14:05:38.000Z</time>
      </trkpt>
      <trkpt lat="43.8084" lon="6.45223">
        <ele>1128.057129</ele>
        <time>2015-12-28T14:05:43.000Z</time>
      </trkpt>
      <trkpt lat="43.80841" lon="6.45216">
        <ele>1128.894409</ele>
        <time>2015-12-28T14:05:48.000Z</time>
      </trkpt>
      <trkpt lat="43.80841" lon="6.4521">
        <ele>1129.339111</ele>
        <time>2015-12-28T14:05:53.000Z</time>
      </trkpt>
      <trkpt lat="43.80841" lon="6.45205">
        <ele>1130.083862</ele>
        <time>2015-12-28T14:05:58.000Z</time>
      </trkpt>
      <trkpt lat="43.80841" lon="6.45201">
        <ele>1130.882202</ele>
        <time>2015-12-28T14:06:03.000Z</time>
      </trkpt>
      <trkpt lat="43.80843" lon="6.45195">
        <ele>1131.491089</ele>
        <time>2015-12-28T14:06:08.000Z</time>
      </trkpt>
      <trkpt lat="43.80844" lon="6.45189">
        <ele>1131.915283</ele>
        <time>2015-12-28T14:06:13.000Z</time>
      </trkpt>
      <trkpt lat="43.80845" lon="6.45184">
        <ele>1132.477417</ele>
        <time>2015-12-28T14:06:18.000Z</time>
      </trkpt>
      <trkpt lat="43.80845" lon="6.4518">
        <ele>1133.273438</ele>
        <time>2015-12-28T14:06:23.000Z</time>
      </trkpt>
      <trkpt lat="43.80846" lon="6.45175">
        <ele>1134.093994</ele>
        <time>2015-12-28T14:06:28.000Z</time>
      </trkpt>
      <trkpt lat="43.80847" lon="6.4517">
        <ele>1134.691162</ele>
        <time>2015-12-28T14:06:33.000Z</time>
      </trkpt>
      <trkpt lat="43.80847" lon="6.45165">
        <ele>1135.383423</ele>
        <time>2015-12-28T14:06:38.000Z</time>
      </trkpt>
      <trkpt lat="43.80848" lon="6.4516">
        <ele>1136.286255</ele>
        <time>2015-12-28T14:06:43.000Z</time>
      </trkpt>
      <trkpt lat="43.80849" lon="6.45155">
        <ele>1137.169067</ele>
        <time>2015-12-28T14:06:48.000Z</time>
      </trkpt>
      <trkpt lat="43.8085" lon="6.45149">
        <ele>1137.945923</ele>
        <time>2015-12-28T14:06:53.000Z</time>
      </trkpt>
      <trkpt lat="43.8085" lon="6.45144">
        <ele>1137.385864</ele>
        <time>2015-12-28T14:06:58.000Z</time>
      </trkpt>
      <trkpt lat="43.8085" lon="6.45139">
        <ele>1137.923218</ele>
        <time>2015-12-28T14:07:03.000Z</time>
      </trkpt>
      <trkpt lat="43.80849" lon="6.45134">
        <ele>1138.227417</ele>
        <time>2015-12-28T14:07:08.000Z</time>
      </trkpt>
      <trkpt lat="43.80848" lon="6.45136">
        <ele>1131.959839</ele>
        <time>2015-12-28T14:07:13.000Z</time>
      </trkpt>
      <trkpt lat="43.80847" lon="6.45133">
        <ele>1129.250732</ele>
        <time>2015-12-28T14:07:18.000Z</time>
      </trkpt>
      <trkpt lat="43.80847" lon="6.45127">
        <ele>1127.930908</ele>
        <time>2015-12-28T14:07:23.000Z</time>
      </trkpt>
      <trkpt lat="43.80849" lon="6.45119">
        <ele>1126.929077</ele>
        <time>2015-12-28T14:07:28.000Z</time>
      </trkpt>
      <trkpt lat="43.80848" lon="6.45112">
        <ele>1126.952026</ele>
        <time>2015-12-28T14:07:33.000Z</time>
      </trkpt>
      <trkpt lat="43.80847" lon="6.45106">
        <ele>1126.469971</ele>
        <time>2015-12-28T14:07:38.000Z</time>
      </trkpt>
      <trkpt lat="43.80846" lon="6.451">
        <ele>1125.78772</ele>
        <time>2015-12-28T14:07:43.000Z</time>
      </trkpt>
      <trkpt lat="43.80845" lon="6.45094">
        <ele>1125.404663</ele>
        <time>2015-12-28T14:07:48.000Z</time>
      </trkpt>
      <trkpt lat="43.80846" lon="6.45089">
        <ele>1126.472534</ele>
        <time>2015-12-28T14:07:53.000Z</time>
      </trkpt>
      <trkpt lat="43.80847" lon="6.45085">
        <ele>1127.360107</ele>
        <time>2015-12-28T14:07:58.000Z</time>
      </trkpt>
      <trkpt lat="43.80848" lon="6.4508">
        <ele>1128.069458</ele>
        <time>2015-12-28T14:08:03.000Z</time>
      </trkpt>
      <trkpt lat="43.8085" lon="6.45075">
        <ele>1128.740356</ele>
        <time>2015-12-28T14:08:08.000Z</time>
      </trkpt>
      <trkpt lat="43.80851" lon="6.45071">
        <ele>1129.749756</ele>
        <time>2015-12-28T14:08:13.000Z</time>
      </trkpt>
      <trkpt lat="43.80853" lon="6.45065">
        <ele>1130.47644</ele>
        <time>2015-12-28T14:08:18.000Z</time>
      </trkpt>
      <trkpt lat="43.80853" lon="6.4506">
        <ele>1131.233032</ele>
        <time>2015-12-28T14:08:23.000Z</time>
      </trkpt>
      <trkpt lat="43.80853" lon="6.45054">
        <ele>1132.057251</ele>
        <time>2015-12-28T14:08:28.000Z</time>
      </trkpt>
      <trkpt lat="43.80853" lon="6.45049">
        <ele>1132.28479</ele>
        <time>2015-12-28T14:08:33.000Z</time>
      </trkpt>
      <trkpt lat="43.80851" lon="6.45044">
        <ele>1132.761108</ele>
        <time>2015-12-28T14:08:38.000Z</time>
      </trkpt>
      <trkpt lat="43.80852" lon="6.45035">
        <ele>1132.706055</ele>
        <time>2015-12-28T14:08:43.000Z</time>
      </trkpt>
      <trkpt lat="43.80854" lon="6.45029">
        <ele>1132.677734</ele>
        <time>2015-12-28T14:08:48.000Z</time>
      </trkpt>
      <trkpt lat="43.80854" lon="6.45028">
        <ele>1132.665894</ele>
        <time>2015-12-28T14:08:53.000Z</time>
      </trkpt>
      <trkpt lat="43.80854" lon="6.45028">
        <ele>1132.728394</ele>
        <time>2015-12-28T14:08:58.000Z</time>
      </trkpt>
      <trkpt lat="43.80854" lon="6.45028">
        <ele>1132.750122</ele>
        <time>2015-12-28T14:09:03.000Z</time>
      </trkpt>
      <trkpt lat="43.80854" lon="6.45028">
        <ele>1132.75708</ele>
        <time>2015-12-28T14:09:08.000Z</time>
      </trkpt>
      <trkpt lat="43.80854" lon="6.45027">
        <ele>1132.993286</ele>
        <time>2015-12-28T14:09:13.000Z</time>
      </trkpt>
      <trkpt lat="43.80855" lon="6.45018">
        <ele>1133.791504</ele>
        <time>2015-12-28T14:09:18.000Z</time>
      </trkpt>
      <trkpt lat="43.80858" lon="6.45011">
        <ele>1134.718628</ele>
        <time>2015-12-28T14:09:23.000Z</time>
      </trkpt>
      <trkpt lat="43.8086" lon="6.45004">
        <ele>1135.969238</ele>
        <time>2015-12-28T14:09:28.000Z</time>
      </trkpt>
      <trkpt lat="43.80862" lon="6.44998">
        <ele>1136.601929</ele>
        <time>2015-12-28T14:09:33.000Z</time>
      </trkpt>
      <trkpt lat="43.80863" lon="6.44992">
        <ele>1137.812134</ele>
        <time>2015-12-28T14:09:38.000Z</time>
      </trkpt>
      <trkpt lat="43.80864" lon="6.44987">
        <ele>1138.093628</ele>
        <time>2015-12-28T14:09:43.000Z</time>
      </trkpt>
      <trkpt lat="43.80865" lon="6.44982">
        <ele>1140.194824</ele>
        <time>2015-12-28T14:09:48.000Z</time>
      </trkpt>
      <trkpt lat="43.80866" lon="6.44978">
        <ele>1141.550415</ele>
        <time>2015-12-28T14:09:53.000Z</time>
      </trkpt>
      <trkpt lat="43.80866" lon="6.44976">
        <ele>1142.36377</ele>
        <time>2015-12-28T14:09:58.000Z</time>
      </trkpt>
      <trkpt lat="43.80866" lon="6.44973">
        <ele>1142.841797</ele>
        <time>2015-12-28T14:10:03.000Z</time>
      </trkpt>
      <trkpt lat="43.80868" lon="6.44968">
        <ele>1143.513062</ele>
        <time>2015-12-28T14:10:08.000Z</time>
      </trkpt>
      <trkpt lat="43.80869" lon="6.44963">
        <ele>1142.979614</ele>
        <time>2015-12-28T14:10:13.000Z</time>
      </trkpt>
      <trkpt lat="43.8087" lon="6.44956">
        <ele>1143.054321</ele>
        <time>2015-12-28T14:10:18.000Z</time>
      </trkpt>
      <trkpt lat="43.80871" lon="6.44949">
        <ele>1144.134399</ele>
        <time>2015-12-28T14:10:23.000Z</time>
      </trkpt>
      <trkpt lat="43.80871" lon="6.44943">
        <ele>1145.410034</ele>
        <time>2015-12-28T14:10:28.000Z</time>
      </trkpt>
      <trkpt lat="43.80871" lon="6.44938">
        <ele>1145.985352</ele>
        <time>2015-12-28T14:10:33.000Z</time>
      </trkpt>
      <trkpt lat="43.80871" lon="6.44938">
        <ele>1145.371582</ele>
        <time>2015-12-28T14:10:38.000Z</time>
      </trkpt>
      <trkpt lat="43.80872" lon="6.44938">
        <ele>1145.498047</ele>
        <time>2015-12-28T14:10:43.000Z</time>
      </trkpt>
      <trkpt lat="43.80873" lon="6.44941">
        <ele>1146.514893</ele>
        <time>2015-12-28T14:10:48.000Z</time>
      </trkpt>
      <trkpt lat="43.80874" lon="6.44945">
        <ele>1147.538086</ele>
        <time>2015-12-28T14:10:53.000Z</time>
      </trkpt>
      <trkpt lat="43.80876" lon="6.44951">
        <ele>1148.776978</ele>
        <time>2015-12-28T14:10:58.000Z</time>
      </trkpt>
      <trkpt lat="43.80877" lon="6.44953">
        <ele>1149.750488</ele>
        <time>2015-12-28T14:11:03.000Z</time>
      </trkpt>
      <trkpt lat="43.80877" lon="6.44953">
        <ele>1150.266113</ele>
        <time>2015-12-28T14:11:08.000Z</time>
      </trkpt>
      <trkpt lat="43.80877" lon="6.44953">
        <ele>1150.381714</ele>
        <time>2015-12-28T14:11:13.000Z</time>
      </trkpt>
      <trkpt lat="43.80879" lon="6.44958">
        <ele>1151.393555</ele>
        <time>2015-12-28T14:11:18.000Z</time>
      </trkpt>
      <trkpt lat="43.8088" lon="6.44967">
        <ele>1152.908691</ele>
        <time>2015-12-28T14:11:23.000Z</time>
      </trkpt>
      <trkpt lat="43.8088" lon="6.44975">
        <ele>1154.980591</ele>
        <time>2015-12-28T14:11:28.000Z</time>
      </trkpt>
      <trkpt lat="43.80879" lon="6.44984">
        <ele>1156.483032</ele>
        <time>2015-12-28T14:11:33.000Z</time>
      </trkpt>
      <trkpt lat="43.80879" lon="6.44991">
        <ele>1158.332031</ele>
        <time>2015-12-28T14:11:38.000Z</time>
      </trkpt>
      <trkpt lat="43.80879" lon="6.44999">
        <ele>1160.154297</ele>
        <time>2015-12-28T14:11:43.000Z</time>
      </trkpt>
      <trkpt lat="43.80881" lon="6.45007">
        <ele>1161.770752</ele>
        <time>2015-12-28T14:11:48.000Z</time>
      </trkpt>
      <trkpt lat="43.80883" lon="6.45013">
        <ele>1163.6521</ele>
        <time>2015-12-28T14:11:53.000Z</time>
      </trkpt>
      <trkpt lat="43.80884" lon="6.45019">
        <ele>1166.048706</ele>
        <time>2015-12-28T14:11:58.000Z</time>
      </trkpt>
      <trkpt lat="43.80886" lon="6.45027">
        <ele>1168.361206</ele>
        <time>2015-12-28T14:12:03.000Z</time>
      </trkpt>
      <trkpt lat="43.80888" lon="6.45034">
        <ele>1170.24939</ele>
        <time>2015-12-28T14:12:08.000Z</time>
      </trkpt>
      <trkpt lat="43.8089" lon="6.4504">
        <ele>1172.168579</ele>
        <time>2015-12-28T14:12:13.000Z</time>
      </trkpt>
      <trkpt lat="43.80892" lon="6.45045">
        <ele>1174.955078</ele>
        <time>2015-12-28T14:12:18.000Z</time>
      </trkpt>
      <trkpt lat="43.80892" lon="6.45052">
        <ele>1176.818359</ele>
        <time>2015-12-28T14:12:23.000Z</time>
      </trkpt>
      <trkpt lat="43.80894" lon="6.45058">
        <ele>1178.626831</ele>
        <time>2015-12-28T14:12:28.000Z</time>
      </trkpt>
      <trkpt lat="43.80894" lon="6.45065">
        <ele>1180.788574</ele>
        <time>2015-12-28T14:12:33.000Z</time>
      </trkpt>
      <trkpt lat="43.80894" lon="6.45074">
        <ele>1182.139526</ele>
        <time>2015-12-28T14:12:38.000Z</time>
      </trkpt>
      <trkpt lat="43.80894" lon="6.45076">
        <ele>1183.410034</ele>
        <time>2015-12-28T14:12:43.000Z</time>
      </trkpt>
      <trkpt lat="43.80895" lon="6.45073">
        <ele>1184.187622</ele>
        <time>2015-12-28T14:12:48.000Z</time>
      </trkpt>
      <trkpt lat="43.80895" lon="6.45073">
        <ele>1184.713745</ele>
        <time>2015-12-28T14:12:53.000Z</time>
      </trkpt>
      <trkpt lat="43.80896" lon="6.45072">
        <ele>1185.373779</ele>
        <time>2015-12-28T14:12:58.000Z</time>
      </trkpt>
      <trkpt lat="43.80896" lon="6.45072">
        <ele>1185.736572</ele>
        <time>2015-12-28T14:13:03.000Z</time>
      </trkpt>
      <trkpt lat="43.80897" lon="6.45071">
        <ele>1185.765991</ele>
        <time>2015-12-28T14:13:08.000Z</time>
      </trkpt>
      <trkpt lat="43.80897" lon="6.4507">
        <ele>1185.782104</ele>
        <time>2015-12-28T14:13:13.000Z</time>
      </trkpt>
      <trkpt lat="43.80897" lon="6.4507">
        <ele>1185.809814</ele>
        <time>2015-12-28T14:13:18.000Z</time>
      </trkpt>
      <trkpt lat="43.80897" lon="6.4507">
        <ele>1185.817383</ele>
        <time>2015-12-28T14:13:23.000Z</time>
      </trkpt>
      <trkpt lat="43.80897" lon="6.4507">
        <ele>1185.816895</ele>
        <time>2015-12-28T14:13:28.000Z</time>
      </trkpt>
      <trkpt lat="43.80897" lon="6.4507">
        <ele>1185.816895</ele>
        <time>2015-12-28T14:13:33.000Z</time>
      </trkpt>
      <trkpt lat="43.80897" lon="6.4507">
        <ele>1185.81665</ele>
        <time>2015-12-28T14:13:38.000Z</time>
      </trkpt>
      <trkpt lat="43.80897" lon="6.4507">
        <ele>1185.814819</ele>
        <time>2015-12-28T14:13:43.000Z</time>
      </trkpt>
      <trkpt lat="43.80898" lon="6.45069">
        <ele>1185.80188</ele>
        <time>2015-12-28T14:13:48.000Z</time>
      </trkpt>
      <trkpt lat="43.80898" lon="6.45069">
        <ele>1185.771484</ele>
        <time>2015-12-28T14:13:53.000Z</time>
      </trkpt>
      <trkpt lat="43.80899" lon="6.45065">
        <ele>1185.432617</ele>
        <time>2015-12-28T14:13:58.000Z</time>
      </trkpt>
      <trkpt lat="43.80899" lon="6.45061">
        <ele>1184.905762</ele>
        <time>2015-12-28T14:14:03.000Z</time>
      </trkpt>
      <trkpt lat="43.80899" lon="6.45056">
        <ele>1184.908081</ele>
        <time>2015-12-28T14:14:08.000Z</time>
      </trkpt>
      <trkpt lat="43.80899" lon="6.45052">
        <ele>1184.778564</ele>
        <time>2015-12-28T14:14:13.000Z</time>
      </trkpt>
      <trkpt lat="43.809" lon="6.45047">
        <ele>1184.307129</ele>
        <time>2015-12-28T14:14:18.000Z</time>
      </trkpt>
      <trkpt lat="43.80903" lon="6.45039">
        <ele>1184.37439</ele>
        <time>2015-12-28T14:14:23.000Z</time>
      </trkpt>
      <trkpt lat="43.80904" lon="6.45033">
        <ele>1183.972778</ele>
        <time>2015-12-28T14:14:28.000Z</time>
      </trkpt>
      <trkpt lat="43.80905" lon="6.45031">
        <ele>1182.746216</ele>
        <time>2015-12-28T14:14:33.000Z</time>
      </trkpt>
      <trkpt lat="43.80905" lon="6.45029">
        <ele>1181.812744</ele>
        <time>2015-12-28T14:14:38.000Z</time>
      </trkpt>
      <trkpt lat="43.80905" lon="6.45029">
        <ele>1181.537354</ele>
        <time>2015-12-28T14:14:43.000Z</time>
      </trkpt>
      <trkpt lat="43.80905" lon="6.45029">
        <ele>1181.512207</ele>
        <time>2015-12-28T14:14:48.000Z</time>
      </trkpt>
      <trkpt lat="43.80905" lon="6.45029">
        <ele>1181.493042</ele>
        <time>2015-12-28T14:14:53.000Z</time>
      </trkpt>
      <trkpt lat="43.80905" lon="6.45029">
        <ele>1181.473267</ele>
        <time>2015-12-28T14:14:58.000Z</time>
      </trkpt>
      <trkpt lat="43.80905" lon="6.45025">
        <ele>1181.026245</ele>
        <time>2015-12-28T14:15:03.000Z</time>
      </trkpt>
      <trkpt lat="43.80906" lon="6.45021">
        <ele>1180.075073</ele>
        <time>2015-12-28T14:15:08.000Z</time>
      </trkpt>
      <trkpt lat="43.80909" lon="6.45015">
        <ele>1179.900146</ele>
        <time>2015-12-28T14:15:13.000Z</time>
      </trkpt>
      <trkpt lat="43.80911" lon="6.45009">
        <ele>1179.247192</ele>
        <time>2015-12-28T14:15:18.000Z</time>
      </trkpt>
      <trkpt lat="43.80913" lon="6.45001">
        <ele>1179.771851</ele>
        <time>2015-12-28T14:15:23.000Z</time>
      </trkpt>
      <trkpt lat="43.80914" lon="6.44994">
        <ele>1180.788086</ele>
        <time>2015-12-28T14:15:28.000Z</time>
      </trkpt>
      <trkpt lat="43.80916" lon="6.44989">
        <ele>1182.050659</ele>
        <time>2015-12-28T14:15:33.000Z</time>
      </trkpt>
      <trkpt lat="43.80919" lon="6.44984">
        <ele>1183.544556</ele>
        <time>2015-12-28T14:15:38.000Z</time>
      </trkpt>
      <trkpt lat="43.80921" lon="6.4498">
        <ele>1184.600952</ele>
        <time>2015-12-28T14:15:43.000Z</time>
      </trkpt>
      <trkpt lat="43.80921" lon="6.44974">
        <ele>1185.05835</ele>
        <time>2015-12-28T14:15:48.000Z</time>
      </trkpt>
      <trkpt lat="43.80922" lon="6.44968">
        <ele>1185.137573</ele>
        <time>2015-12-28T14:15:53.000Z</time>
      </trkpt>
      <trkpt lat="43.80923" lon="6.44963">
        <ele>1186.274902</ele>
        <time>2015-12-28T14:15:58.000Z</time>
      </trkpt>
      <trkpt lat="43.80923" lon="6.44958">
        <ele>1187.010132</ele>
        <time>2015-12-28T14:16:03.000Z</time>
      </trkpt>
      <trkpt lat="43.80923" lon="6.44954">
        <ele>1187.099731</ele>
        <time>2015-12-28T14:16:08.000Z</time>
      </trkpt>
      <trkpt lat="43.80923" lon="6.44954">
        <ele>1187.494507</ele>
        <time>2015-12-28T14:16:13.000Z</time>
      </trkpt>
      <trkpt lat="43.80923" lon="6.44954">
        <ele>1187.579102</ele>
        <time>2015-12-28T14:16:18.000Z</time>
      </trkpt>
      <trkpt lat="43.80923" lon="6.44954">
        <ele>1187.620361</ele>
        <time>2015-12-28T14:16:23.000Z</time>
      </trkpt>
      <trkpt lat="43.80923" lon="6.44954">
        <ele>1187.647949</ele>
        <time>2015-12-28T14:16:28.000Z</time>
      </trkpt>
      <trkpt lat="43.80923" lon="6.44952">
        <ele>1187.702393</ele>
        <time>2015-12-28T14:16:33.000Z</time>
      </trkpt>
      <trkpt lat="43.80923" lon="6.44947">
        <ele>1188.188965</ele>
        <time>2015-12-28T14:16:38.000Z</time>
      </trkpt>
      <trkpt lat="43.80923" lon="6.44941">
        <ele>1189.234253</ele>
        <time>2015-12-28T14:16:43.000Z</time>
      </trkpt>
      <trkpt lat="43.80923" lon="6.44937">
        <ele>1188.631836</ele>
        <time>2015-12-28T14:16:48.000Z</time>
      </trkpt>
      <trkpt lat="43.80922" lon="6.44933">
        <ele>1188.077026</ele>
        <time>2015-12-28T14:16:53.000Z</time>
      </trkpt>
      <trkpt lat="43.80921" lon="6.44928">
        <ele>1188.243164</ele>
        <time>2015-12-28T14:16:58.000Z</time>
      </trkpt>
      <trkpt lat="43.80918" lon="6.44922">
        <ele>1188.86084</ele>
        <time>2015-12-28T14:17:03.000Z</time>
      </trkpt>
      <trkpt lat="43.80917" lon="6.44917">
        <ele>1188.343872</ele>
        <time>2015-12-28T14:17:08.000Z</time>
      </trkpt>
      <trkpt lat="43.80915" lon="6.44912">
        <ele>1189.426636</ele>
        <time>2015-12-28T14:17:13.000Z</time>
      </trkpt>
      <trkpt lat="43.80914" lon="6.44906">
        <ele>1190.597778</ele>
        <time>2015-12-28T14:17:18.000Z</time>
      </trkpt>
      <trkpt lat="43.80914" lon="6.44899">
        <ele>1191.786255</ele>
        <time>2015-12-28T14:17:23.000Z</time>
      </trkpt>
      <trkpt lat="43.80914" lon="6.44894">
        <ele>1192.238159</ele>
        <time>2015-12-28T14:17:28.000Z</time>
      </trkpt>
      <trkpt lat="43.80918" lon="6.44893">
        <ele>1193.189575</ele>
        <time>2015-12-28T14:17:33.000Z</time>
      </trkpt>
      <trkpt lat="43.80921" lon="6.44894">
        <ele>1193.835938</ele>
        <time>2015-12-28T14:17:38.000Z</time>
      </trkpt>
      <trkpt lat="43.80923" lon="6.44895">
        <ele>1193.921265</ele>
        <time>2015-12-28T14:17:43.000Z</time>
      </trkpt>
      <trkpt lat="43.80925" lon="6.44897">
        <ele>1194.058594</ele>
        <time>2015-12-28T14:17:48.000Z</time>
      </trkpt>
      <trkpt lat="43.80926" lon="6.44897">
        <ele>1193.55835</ele>
        <time>2015-12-28T14:17:53.000Z</time>
      </trkpt>
      <trkpt lat="43.80925" lon="6.44898">
        <ele>1193.377197</ele>
        <time>2015-12-28T14:17:58.000Z</time>
      </trkpt>
      <trkpt lat="43.80927" lon="6.44898">
        <ele>1193.446899</ele>
        <time>2015-12-28T14:18:03.000Z</time>
      </trkpt>
      <trkpt lat="43.80932" lon="6.44897">
        <ele>1194.297852</ele>
        <time>2015-12-28T14:18:08.000Z</time>
      </trkpt>
      <trkpt lat="43.80937" lon="6.44894">
        <ele>1195.002319</ele>
        <time>2015-12-28T14:18:13.000Z</time>
      </trkpt>
      <trkpt lat="43.80941" lon="6.44895">
        <ele>1195.666748</ele>
        <time>2015-12-28T14:18:18.000Z</time>
      </trkpt>
      <trkpt lat="43.80944" lon="6.44898">
        <ele>1196.798828</ele>
        <time>2015-12-28T14:18:23.000Z</time>
      </trkpt>
      <trkpt lat="43.80945" lon="6.44899">
        <ele>1197.258789</ele>
        <time>2015-12-28T14:18:28.000Z</time>
      </trkpt>
      <trkpt lat="43.80945" lon="6.44898">
        <ele>1197.383301</ele>
        <time>2015-12-28T14:18:33.000Z</time>
      </trkpt>
      <trkpt lat="43.80945" lon="6.449">
        <ele>1196.944824</ele>
        <time>2015-12-28T14:18:38.000Z</time>
      </trkpt>
      <trkpt lat="43.80944" lon="6.44899">
        <ele>1196.978882</ele>
        <time>2015-12-28T14:18:43.000Z</time>
      </trkpt>
      <trkpt lat="43.80944" lon="6.44899">
        <ele>1197.280884</ele>
        <time>2015-12-28T14:18:48.000Z</time>
      </trkpt>
      <trkpt lat="43.80944" lon="6.449">
        <ele>1197.275513</ele>
        <time>2015-12-28T14:18:53.000Z</time>
      </trkpt>
      <trkpt lat="43.80944" lon="6.44901">
        <ele>1197.625122</ele>
        <time>2015-12-28T14:18:58.000Z</time>
      </trkpt>
      <trkpt lat="43.80944" lon="6.44901">
        <ele>1198.033569</ele>
        <time>2015-12-28T14:19:03.000Z</time>
      </trkpt>
      <trkpt lat="43.80944" lon="6.449">
        <ele>1198.213013</ele>
        <time>2015-12-28T14:19:08.000Z</time>
      </trkpt>
      <trkpt lat="43.80945" lon="6.44899">
        <ele>1198.679565</ele>
        <time>2015-12-28T14:19:13.000Z</time>
      </trkpt>
      <trkpt lat="43.80945" lon="6.44899">
        <ele>1199.348267</ele>
        <time>2015-12-28T14:19:18.000Z</time>
      </trkpt>
      <trkpt lat="43.80946" lon="6.44899">
        <ele>1199.40979</ele>
        <time>2015-12-28T14:19:23.000Z</time>
      </trkpt>
      <trkpt lat="43.80945" lon="6.449">
        <ele>1198.536499</ele>
        <time>2015-12-28T14:19:28.000Z</time>
      </trkpt>
      <trkpt lat="43.80945" lon="6.44901">
        <ele>1198.564209</ele>
        <time>2015-12-28T14:19:33.000Z</time>
      </trkpt>
      <trkpt lat="43.80945" lon="6.44901">
        <ele>1198.576538</ele>
        <time>2015-12-28T14:19:38.000Z</time>
      </trkpt>
      <trkpt lat="43.80945" lon="6.44901">
        <ele>1198.570923</ele>
        <time>2015-12-28T14:19:43.000Z</time>
      </trkpt>
      <trkpt lat="43.80945" lon="6.44901">
        <ele>1198.57251</ele>
        <time>2015-12-28T14:19:48.000Z</time>
      </trkpt>
      <trkpt lat="43.80945" lon="6.44901">
        <ele>1198.579468</ele>
        <time>2015-12-28T14:19:53.000Z</time>
      </trkpt>
      <trkpt lat="43.80945" lon="6.44901">
        <ele>1198.585571</ele>
        <time>2015-12-28T14:19:58.000Z</time>
      </trkpt>
      <trkpt lat="43.80945" lon="6.44901">
        <ele>1198.576172</ele>
        <time>2015-12-28T14:20:03.000Z</time>
      </trkpt>
      <trkpt lat="43.80945" lon="6.44901">
        <ele>1198.593628</ele>
        <time>2015-12-28T14:20:08.000Z</time>
      </trkpt>
      <trkpt lat="43.80945" lon="6.44901">
        <ele>1198.606079</ele>
        <time>2015-12-28T14:20:13.000Z</time>
      </trkpt>
      <trkpt lat="43.80945" lon="6.44901">
        <ele>1198.599243</ele>
        <time>2015-12-28T14:20:18.000Z</time>
      </trkpt>
      <trkpt lat="43.80945" lon="6.44901">
        <ele>1198.59082</ele>
        <time>2015-12-28T14:20:23.000Z</time>
      </trkpt>
      <trkpt lat="43.80945" lon="6.44901">
        <ele>1198.596436</ele>
        <time>2015-12-28T14:20:28.000Z</time>
      </trkpt>
      <trkpt lat="43.80945" lon="6.449">
        <ele>1198.587891</ele>
        <time>2015-12-28T14:20:33.000Z</time>
      </trkpt>
      <trkpt lat="43.80945" lon="6.449">
        <ele>1198.588623</ele>
        <time>2015-12-28T14:20:38.000Z</time>
      </trkpt>
      <trkpt lat="43.80945" lon="6.449">
        <ele>1198.589722</ele>
        <time>2015-12-28T14:20:43.000Z</time>
      </trkpt>
      <trkpt lat="43.80945" lon="6.449">
        <ele>1198.59021</ele>
        <time>2015-12-28T14:20:48.000Z</time>
      </trkpt>
      <trkpt lat="43.80945" lon="6.449">
        <ele>1198.590576</ele>
        <time>2015-12-28T14:20:53.000Z</time>
      </trkpt>
      <trkpt lat="43.80945" lon="6.449">
        <ele>1198.590454</ele>
        <time>2015-12-28T14:20:58.000Z</time>
      </trkpt>
      <trkpt lat="43.80945" lon="6.449">
        <ele>1198.5896</ele>
        <time>2015-12-28T14:21:03.000Z</time>
      </trkpt>
      <trkpt lat="43.80945" lon="6.449">
        <ele>1198.590454</ele>
        <time>2015-12-28T14:21:08.000Z</time>
      </trkpt>
      <trkpt lat="43.80945" lon="6.449">
        <ele>1198.591309</ele>
        <time>2015-12-28T14:21:13.000Z</time>
      </trkpt>
      <trkpt lat="43.80945" lon="6.449">
        <ele>1198.597412</ele>
        <time>2015-12-28T14:21:18.000Z</time>
      </trkpt>
      <trkpt lat="43.80945" lon="6.449">
        <ele>1198.622314</ele>
        <time>2015-12-28T14:21:23.000Z</time>
      </trkpt>
      <trkpt lat="43.80945" lon="6.449">
        <ele>1198.638672</ele>
        <time>2015-12-28T14:21:28.000Z</time>
      </trkpt>
      <trkpt lat="43.80945" lon="6.449">
        <ele>1198.657593</ele>
        <time>2015-12-28T14:21:33.000Z</time>
      </trkpt>
      <trkpt lat="43.80945" lon="6.449">
        <ele>1198.674072</ele>
        <time>2015-12-28T14:21:38.000Z</time>
      </trkpt>
      <trkpt lat="43.80945" lon="6.449">
        <ele>1198.690552</ele>
        <time>2015-12-28T14:21:43.000Z</time>
      </trkpt>
      <trkpt lat="43.80945" lon="6.449">
        <ele>1198.708008</ele>
        <time>2015-12-28T14:21:48.000Z</time>
      </trkpt>
      <trkpt lat="43.80945" lon="6.449">
        <ele>1198.729858</ele>
        <time>2015-12-28T14:21:53.000Z</time>
      </trkpt>
      <trkpt lat="43.80945" lon="6.449">
        <ele>1198.750366</ele>
        <time>2015-12-28T14:21:58.000Z</time>
      </trkpt>
      <trkpt lat="43.80945" lon="6.449">
        <ele>1198.769897</ele>
        <time>2015-12-28T14:22:03.000Z</time>
      </trkpt>
      <trkpt lat="43.80945" lon="6.449">
        <ele>1198.780396</ele>
        <time>2015-12-28T14:22:08.000Z</time>
      </trkpt>
      <trkpt lat="43.80945" lon="6.449">
        <ele>1198.789185</ele>
        <time>2015-12-28T14:22:13.000Z</time>
      </trkpt>
      <trkpt lat="43.80945" lon="6.449">
        <ele>1198.798828</ele>
        <time>2015-12-28T14:22:18.000Z</time>
      </trkpt>
      <trkpt lat="43.80945" lon="6.44899">
        <ele>1198.803101</ele>
        <time>2015-12-28T14:22:23.000Z</time>
      </trkpt>
      <trkpt lat="43.80945" lon="6.44899">
        <ele>1198.794312</ele>
        <time>2015-12-28T14:22:28.000Z</time>
      </trkpt>
      <trkpt lat="43.80945" lon="6.44899">
        <ele>1198.807007</ele>
        <time>2015-12-28T14:22:33.000Z</time>
      </trkpt>
      <trkpt lat="43.80945" lon="6.44899">
        <ele>1198.838867</ele>
        <time>2015-12-28T14:22:38.000Z</time>
      </trkpt>
      <trkpt lat="43.80945" lon="6.44899">
        <ele>1198.893066</ele>
        <time>2015-12-28T14:22:43.000Z</time>
      </trkpt>
      <trkpt lat="43.80945" lon="6.44899">
        <ele>1198.940552</ele>
        <time>2015-12-28T14:22:48.000Z</time>
      </trkpt>
      <trkpt lat="43.80945" lon="6.44899">
        <ele>1198.962524</ele>
        <time>2015-12-28T14:22:53.000Z</time>
      </trkpt>
      <trkpt lat="43.80945" lon="6.44899">
        <ele>1198.94104</ele>
        <time>2015-12-28T14:22:58.000Z</time>
      </trkpt>
      <trkpt lat="43.80945" lon="6.44899">
        <ele>1198.837402</ele>
        <time>2015-12-28T14:23:03.000Z</time>
      </trkpt>
      <trkpt lat="43.80945" lon="6.44899">
        <ele>1198.79895</ele>
        <time>2015-12-28T14:23:08.000Z</time>
      </trkpt>
      <trkpt lat="43.80946" lon="6.44897">
        <ele>1198.290039</ele>
        <time>2015-12-28T14:23:13.000Z</time>
      </trkpt>
      <trkpt lat="43.80946" lon="6.44897">
        <ele>1197.866699</ele>
        <time>2015-12-28T14:23:18.000Z</time>
      </trkpt>
      <trkpt lat="43.80942" lon="6.44898">
        <ele>1198.413086</ele>
        <time>2015-12-28T14:23:23.000Z</time>
      </trkpt>
      <trkpt lat="43.80931" lon="6.44894">
        <ele>1198.072021</ele>
        <time>2015-12-28T14:23:28.000Z</time>
      </trkpt>
      <trkpt lat="43.80923" lon="6.44896">
        <ele>1197.865112</ele>
        <time>2015-12-28T14:23:33.000Z</time>
      </trkpt>
      <trkpt lat="43.80914" lon="6.44893">
        <ele>1197.540771</ele>
        <time>2015-12-28T14:23:38.000Z</time>
      </trkpt>
      <trkpt lat="43.80913" lon="6.449">
        <ele>1197.065918</ele>
        <time>2015-12-28T14:23:43.000Z</time>
      </trkpt>
      <trkpt lat="43.80913" lon="6.44899">
        <ele>1197.526733</ele>
        <time>2015-12-28T14:23:48.000Z</time>
      </trkpt>
      <trkpt lat="43.80913" lon="6.44899">
        <ele>1197.454956</ele>
        <time>2015-12-28T14:23:53.000Z</time>
      </trkpt>
      <trkpt lat="43.8092" lon="6.44895">
        <ele>1196.760254</ele>
        <time>2015-12-28T14:23:58.000Z</time>
      </trkpt>
      <trkpt lat="43.80927" lon="6.44895">
        <ele>1198.523682</ele>
        <time>2015-12-28T14:24:03.000Z</time>
      </trkpt>
      <trkpt lat="43.80934" lon="6.44894">
        <ele>1199.615479</ele>
        <time>2015-12-28T14:24:08.000Z</time>
      </trkpt>
      <trkpt lat="43.8094" lon="6.44894">
        <ele>1199.648071</ele>
        <time>2015-12-28T14:24:13.000Z</time>
      </trkpt>
      <trkpt lat="43.80944" lon="6.44896">
        <ele>1200.88147</ele>
        <time>2015-12-28T14:24:18.000Z</time>
      </trkpt>
      <trkpt lat="43.8095" lon="6.44895">
        <ele>1201.286743</ele>
        <time>2015-12-28T14:24:23.000Z</time>
      </trkpt>
      <trkpt lat="43.8095" lon="6.44895">
        <ele>1201.96167</ele>
        <time>2015-12-28T14:24:28.000Z</time>
      </trkpt>
      <trkpt lat="43.80948" lon="6.44897">
        <ele>1202.005005</ele>
        <time>2015-12-28T14:24:33.000Z</time>
      </trkpt>
      <trkpt lat="43.80947" lon="6.44897">
        <ele>1201.281616</ele>
        <time>2015-12-28T14:24:38.000Z</time>
      </trkpt>
      <trkpt lat="43.80953" lon="6.44896">
        <ele>1201.305176</ele>
        <time>2015-12-28T14:24:43.000Z</time>
      </trkpt>
      <trkpt lat="43.80966" lon="6.44899">
        <ele>1202.213379</ele>
        <time>2015-12-28T14:24:48.000Z</time>
      </trkpt>
      <trkpt lat="43.80975" lon="6.44905">
        <ele>1203.455933</ele>
        <time>2015-12-28T14:24:53.000Z</time>
      </trkpt>
      <trkpt lat="43.80979" lon="6.44908">
        <ele>1204.127808</ele>
        <time>2015-12-28T14:24:58.000Z</time>
      </trkpt>
      <trkpt lat="43.80989" lon="6.44917">
        <ele>1204.342041</ele>
        <time>2015-12-28T14:25:03.000Z</time>
      </trkpt>
      <trkpt lat="43.80999" lon="6.44935">
        <ele>1201.953979</ele>
        <time>2015-12-28T14:25:08.000Z</time>
      </trkpt>
      <trkpt lat="43.81008" lon="6.44955">
        <ele>1200.118164</ele>
        <time>2015-12-28T14:25:13.000Z</time>
      </trkpt>
      <trkpt lat="43.81018" lon="6.44975">
        <ele>1199.072876</ele>
        <time>2015-12-28T14:25:18.000Z</time>
      </trkpt>
      <trkpt lat="43.81024" lon="6.44994">
        <ele>1197.56604</ele>
        <time>2015-12-28T14:25:23.000Z</time>
      </trkpt>
      <trkpt lat="43.81033" lon="6.45007">
        <ele>1196.963135</ele>
        <time>2015-12-28T14:25:28.000Z</time>
      </trkpt>
      <trkpt lat="43.81041" lon="6.45024">
        <ele>1193.17749</ele>
        <time>2015-12-28T14:25:33.000Z</time>
      </trkpt>
      <trkpt lat="43.81042" lon="6.4503">
        <ele>1190.956543</ele>
        <time>2015-12-28T14:25:38.000Z</time>
      </trkpt>
      <trkpt lat="43.81042" lon="6.4503">
        <ele>1191.312012</ele>
        <time>2015-12-28T14:25:43.000Z</time>
      </trkpt>
      <trkpt lat="43.81041" lon="6.4503">
        <ele>1191.066528</ele>
        <time>2015-12-28T14:25:48.000Z</time>
      </trkpt>
      <trkpt lat="43.81041" lon="6.4503">
        <ele>1191.075317</ele>
        <time>2015-12-28T14:25:53.000Z</time>
      </trkpt>
      <trkpt lat="43.81041" lon="6.4503">
        <ele>1191.146729</ele>
        <time>2015-12-28T14:25:58.000Z</time>
      </trkpt>
      <trkpt lat="43.81042" lon="6.45032">
        <ele>1191.058472</ele>
        <time>2015-12-28T14:26:03.000Z</time>
      </trkpt>
      <trkpt lat="43.81043" lon="6.45047">
        <ele>1190.423462</ele>
        <time>2015-12-28T14:26:08.000Z</time>
      </trkpt>
      <trkpt lat="43.81045" lon="6.45058">
        <ele>1189.481567</ele>
        <time>2015-12-28T14:26:13.000Z</time>
      </trkpt>
      <trkpt lat="43.81047" lon="6.45071">
        <ele>1188.966309</ele>
        <time>2015-12-28T14:26:18.000Z</time>
      </trkpt>
      <trkpt lat="43.81047" lon="6.4509">
        <ele>1188.73584</ele>
        <time>2015-12-28T14:26:23.000Z</time>
      </trkpt>
      <trkpt lat="43.81052" lon="6.45107">
        <ele>1187.186401</ele>
        <time>2015-12-28T14:26:28.000Z</time>
      </trkpt>
      <trkpt lat="43.8106" lon="6.45124">
        <ele>1185.565186</ele>
        <time>2015-12-28T14:26:33.000Z</time>
      </trkpt>
      <trkpt lat="43.81063" lon="6.45128">
        <ele>1184.379883</ele>
        <time>2015-12-28T14:26:38.000Z</time>
      </trkpt>
      <trkpt lat="43.81065" lon="6.4513">
        <ele>1185.129272</ele>
        <time>2015-12-28T14:26:43.000Z</time>
      </trkpt>
      <trkpt lat="43.81067" lon="6.45139">
        <ele>1185.094238</ele>
        <time>2015-12-28T14:26:48.000Z</time>
      </trkpt>
      <trkpt lat="43.81068" lon="6.45143">
        <ele>1184.566284</ele>
        <time>2015-12-28T14:26:53.000Z</time>
      </trkpt>
      <trkpt lat="43.8107" lon="6.4515">
        <ele>1184.585815</ele>
        <time>2015-12-28T14:26:58.000Z</time>
      </trkpt>
      <trkpt lat="43.81072" lon="6.45155">
        <ele>1184.599976</ele>
        <time>2015-12-28T14:27:03.000Z</time>
      </trkpt>
      <trkpt lat="43.81075" lon="6.4516">
        <ele>1184.661255</ele>
        <time>2015-12-28T14:27:08.000Z</time>
      </trkpt>
      <trkpt lat="43.81077" lon="6.45163">
        <ele>1185.922974</ele>
        <time>2015-12-28T14:27:13.000Z</time>
      </trkpt>
      <trkpt lat="43.81086" lon="6.45173">
        <ele>1184.714966</ele>
        <time>2015-12-28T14:27:18.000Z</time>
      </trkpt>
      <trkpt lat="43.81101" lon="6.45187">
        <ele>1182.968872</ele>
        <time>2015-12-28T14:27:23.000Z</time>
      </trkpt>
      <trkpt lat="43.81117" lon="6.45191">
        <ele>1182.877075</ele>
        <time>2015-12-28T14:27:28.000Z</time>
      </trkpt>
      <trkpt lat="43.81129" lon="6.45201">
        <ele>1181.307861</ele>
        <time>2015-12-28T14:27:33.000Z</time>
      </trkpt>
      <trkpt lat="43.81137" lon="6.45227">
        <ele>1178.573975</ele>
        <time>2015-12-28T14:27:38.000Z</time>
      </trkpt>
      <trkpt lat="43.81143" lon="6.45245">
        <ele>1177.547241</ele>
        <time>2015-12-28T14:27:43.000Z</time>
      </trkpt>
      <trkpt lat="43.81149" lon="6.45264">
        <ele>1176.184326</ele>
        <time>2015-12-28T14:27:48.000Z</time>
      </trkpt>
      <trkpt lat="43.81154" lon="6.45279">
        <ele>1174.785034</ele>
        <time>2015-12-28T14:27:53.000Z</time>
      </trkpt>
      <trkpt lat="43.81161" lon="6.45292">
        <ele>1173.540649</ele>
        <time>2015-12-28T14:27:58.000Z</time>
      </trkpt>
      <trkpt lat="43.81167" lon="6.45307">
        <ele>1171.445313</ele>
        <time>2015-12-28T14:28:03.000Z</time>
      </trkpt>
      <trkpt lat="43.81173" lon="6.45323">
        <ele>1171.266602</ele>
        <time>2015-12-28T14:28:08.000Z</time>
      </trkpt>
      <trkpt lat="43.81183" lon="6.4534">
        <ele>1170.326782</ele>
        <time>2015-12-28T14:28:13.000Z</time>
      </trkpt>
      <trkpt lat="43.81193" lon="6.45356">
        <ele>1168.906982</ele>
        <time>2015-12-28T14:28:18.000Z</time>
      </trkpt>
      <trkpt lat="43.81204" lon="6.45362">
        <ele>1169.137695</ele>
        <time>2015-12-28T14:28:23.000Z</time>
      </trkpt>
      <trkpt lat="43.81203" lon="6.45362">
        <ele>1169.227417</ele>
        <time>2015-12-28T14:28:28.000Z</time>
      </trkpt>
      <trkpt lat="43.81203" lon="6.45362">
        <ele>1169.196899</ele>
        <time>2015-12-28T14:28:33.000Z</time>
      </trkpt>
      <trkpt lat="43.81203" lon="6.45362">
        <ele>1169.195068</ele>
        <time>2015-12-28T14:28:38.000Z</time>
      </trkpt>
      <trkpt lat="43.81203" lon="6.45362">
        <ele>1169.17041</ele>
        <time>2015-12-28T14:28:43.000Z</time>
      </trkpt>
      <trkpt lat="43.81203" lon="6.45362">
        <ele>1169.149536</ele>
        <time>2015-12-28T14:28:48.000Z</time>
      </trkpt>
      <trkpt lat="43.81208" lon="6.45363">
        <ele>1168.946411</ele>
        <time>2015-12-28T14:28:53.000Z</time>
      </trkpt>
      <trkpt lat="43.81213" lon="6.45369">
        <ele>1168.156982</ele>
        <time>2015-12-28T14:28:58.000Z</time>
      </trkpt>
      <trkpt lat="43.81219" lon="6.45375">
        <ele>1168.022583</ele>
        <time>2015-12-28T14:29:03.000Z</time>
      </trkpt>
      <trkpt lat="43.81226" lon="6.45391">
        <ele>1167.385742</ele>
        <time>2015-12-28T14:29:08.000Z</time>
      </trkpt>
      <trkpt lat="43.81238" lon="6.45406">
        <ele>1166.132202</ele>
        <time>2015-12-28T14:29:13.000Z</time>
      </trkpt>
      <trkpt lat="43.81249" lon="6.45407">
        <ele>1164.847168</ele>
        <time>2015-12-28T14:29:18.000Z</time>
      </trkpt>
      <trkpt lat="43.81259" lon="6.45409">
        <ele>1163.635376</ele>
        <time>2015-12-28T14:29:23.000Z</time>
      </trkpt>
      <trkpt lat="43.81263" lon="6.4541">
        <ele>1163.492554</ele>
        <time>2015-12-28T14:29:28.000Z</time>
      </trkpt>
      <trkpt lat="43.81263" lon="6.4541">
        <ele>1163.505493</ele>
        <time>2015-12-28T14:29:33.000Z</time>
      </trkpt>
      <trkpt lat="43.81263" lon="6.4541">
        <ele>1163.502441</ele>
        <time>2015-12-28T14:29:38.000Z</time>
      </trkpt>
      <trkpt lat="43.81263" lon="6.4541">
        <ele>1163.491333</ele>
        <time>2015-12-28T14:29:43.000Z</time>
      </trkpt>
      <trkpt lat="43.81263" lon="6.4541">
        <ele>1163.498291</ele>
        <time>2015-12-28T14:29:48.000Z</time>
      </trkpt>
      <trkpt lat="43.81263" lon="6.4541">
        <ele>1163.50293</ele>
        <time>2015-12-28T14:29:53.000Z</time>
      </trkpt>
      <trkpt lat="43.81263" lon="6.4541">
        <ele>1163.520508</ele>
        <time>2015-12-28T14:29:58.000Z</time>
      </trkpt>
      <trkpt lat="43.81264" lon="6.4541">
        <ele>1163.560059</ele>
        <time>2015-12-28T14:30:03.000Z</time>
      </trkpt>
      <trkpt lat="43.81269" lon="6.45416">
        <ele>1162.994629</ele>
        <time>2015-12-28T14:30:08.000Z</time>
      </trkpt>
      <trkpt lat="43.81271" lon="6.45417">
        <ele>1163.18335</ele>
        <time>2015-12-28T14:30:13.000Z</time>
      </trkpt>
      <trkpt lat="43.81279" lon="6.4542">
        <ele>1162.174561</ele>
        <time>2015-12-28T14:30:18.000Z</time>
      </trkpt>
      <trkpt lat="43.8129" lon="6.45434">
        <ele>1160.108398</ele>
        <time>2015-12-28T14:30:23.000Z</time>
      </trkpt>
      <trkpt lat="43.813" lon="6.45453">
        <ele>1157.839355</ele>
        <time>2015-12-28T14:30:28.000Z</time>
      </trkpt>
      <trkpt lat="43.81309" lon="6.45466">
        <ele>1155.850342</ele>
        <time>2015-12-28T14:30:33.000Z</time>
      </trkpt>
      <trkpt lat="43.81319" lon="6.45484">
        <ele>1152.825562</ele>
        <time>2015-12-28T14:30:38.000Z</time>
      </trkpt>
      <trkpt lat="43.8133" lon="6.45505">
        <ele>1149.927856</ele>
        <time>2015-12-28T14:30:43.000Z</time>
      </trkpt>
      <trkpt lat="43.81342" lon="6.45526">
        <ele>1147.846069</ele>
        <time>2015-12-28T14:30:48.000Z</time>
      </trkpt>
      <trkpt lat="43.81349" lon="6.45541">
        <ele>1146.013794</ele>
        <time>2015-12-28T14:30:53.000Z</time>
      </trkpt>
      <trkpt lat="43.81356" lon="6.45552">
        <ele>1144.475708</ele>
        <time>2015-12-28T14:30:58.000Z</time>
      </trkpt>
      <trkpt lat="43.81355" lon="6.45553">
        <ele>1144.663818</ele>
        <time>2015-12-28T14:31:03.000Z</time>
      </trkpt>
      <trkpt lat="43.81356" lon="6.45556">
        <ele>1144.452148</ele>
        <time>2015-12-28T14:31:08.000Z</time>
      </trkpt>
      <trkpt lat="43.81356" lon="6.45556">
        <ele>1144.475342</ele>
        <time>2015-12-28T14:31:13.000Z</time>
      </trkpt>
      <trkpt lat="43.81356" lon="6.45556">
        <ele>1144.44519</ele>
        <time>2015-12-28T14:31:18.000Z</time>
      </trkpt>
      <trkpt lat="43.81356" lon="6.45556">
        <ele>1144.435181</ele>
        <time>2015-12-28T14:31:23.000Z</time>
      </trkpt>
      <trkpt lat="43.81356" lon="6.45556">
        <ele>1144.444336</ele>
        <time>2015-12-28T14:31:28.000Z</time>
      </trkpt>
      <trkpt lat="43.8136" lon="6.45563">
        <ele>1143.652954</ele>
        <time>2015-12-28T14:31:33.000Z</time>
      </trkpt>
      <trkpt lat="43.8137" lon="6.4558">
        <ele>1141.42749</ele>
        <time>2015-12-28T14:31:38.000Z</time>
      </trkpt>
      <trkpt lat="43.8138" lon="6.45597">
        <ele>1139.062744</ele>
        <time>2015-12-28T14:31:43.000Z</time>
      </trkpt>
      <trkpt lat="43.81393" lon="6.45617">
        <ele>1136.26709</ele>
        <time>2015-12-28T14:31:48.000Z</time>
      </trkpt>
      <trkpt lat="43.81405" lon="6.45645">
        <ele>1133.820068</ele>
        <time>2015-12-28T14:31:53.000Z</time>
      </trkpt>
      <trkpt lat="43.81416" lon="6.45676">
        <ele>1130.37561</ele>
        <time>2015-12-28T14:31:58.000Z</time>
      </trkpt>
      <trkpt lat="43.81426" lon="6.45704">
        <ele>1127.626831</ele>
        <time>2015-12-28T14:32:03.000Z</time>
      </trkpt>
      <trkpt lat="43.81433" lon="6.4573">
        <ele>1125.514526</ele>
        <time>2015-12-28T14:32:08.000Z</time>
      </trkpt>
      <trkpt lat="43.81442" lon="6.45761">
        <ele>1124.231567</ele>
        <time>2015-12-28T14:32:13.000Z</time>
      </trkpt>
      <trkpt lat="43.81448" lon="6.4579">
        <ele>1120.071899</ele>
        <time>2015-12-28T14:32:18.000Z</time>
      </trkpt>
      <trkpt lat="43.81451" lon="6.45805">
        <ele>1120.394165</ele>
        <time>2015-12-28T14:32:23.000Z</time>
      </trkpt>
      <trkpt lat="43.81453" lon="6.45827">
        <ele>1118.494629</ele>
        <time>2015-12-28T14:32:28.000Z</time>
      </trkpt>
      <trkpt lat="43.81462" lon="6.45833">
        <ele>1116.958618</ele>
        <time>2015-12-28T14:32:33.000Z</time>
      </trkpt>
      <trkpt lat="43.81471" lon="6.45837">
        <ele>1113.182983</ele>
        <time>2015-12-28T14:32:38.000Z</time>
      </trkpt>
      <trkpt lat="43.81475" lon="6.45841">
        <ele>1111.840088</ele>
        <time>2015-12-28T14:32:43.000Z</time>
      </trkpt>
      <trkpt lat="43.81475" lon="6.45841">
        <ele>1111.655396</ele>
        <time>2015-12-28T14:32:48.000Z</time>
      </trkpt>
      <trkpt lat="43.81475" lon="6.45841">
        <ele>1111.640991</ele>
        <time>2015-12-28T14:32:53.000Z</time>
      </trkpt>
      <trkpt lat="43.81475" lon="6.45841">
        <ele>1111.635742</ele>
        <time>2015-12-28T14:32:58.000Z</time>
      </trkpt>
      <trkpt lat="43.81475" lon="6.45841">
        <ele>1111.636108</ele>
        <time>2015-12-28T14:33:03.000Z</time>
      </trkpt>
      <trkpt lat="43.81484" lon="6.45855">
        <ele>1109.631836</ele>
        <time>2015-12-28T14:33:08.000Z</time>
      </trkpt>
      <trkpt lat="43.81494" lon="6.45877">
        <ele>1106.280396</ele>
        <time>2015-12-28T14:33:13.000Z</time>
      </trkpt>
      <trkpt lat="43.81502" lon="6.45897">
        <ele>1103.783325</ele>
        <time>2015-12-28T14:33:18.000Z</time>
      </trkpt>
      <trkpt lat="43.81509" lon="6.45917">
        <ele>1101.991333</ele>
        <time>2015-12-28T14:33:23.000Z</time>
      </trkpt>
      <trkpt lat="43.81516" lon="6.4594">
        <ele>1100.629028</ele>
        <time>2015-12-28T14:33:28.000Z</time>
      </trkpt>
      <trkpt lat="43.81523" lon="6.45965">
        <ele>1098.23877</ele>
        <time>2015-12-28T14:33:33.000Z</time>
      </trkpt>
      <trkpt lat="43.81527" lon="6.45988">
        <ele>1096.653198</ele>
        <time>2015-12-28T14:33:38.000Z</time>
      </trkpt>
      <trkpt lat="43.81532" lon="6.46004">
        <ele>1093.95166</ele>
        <time>2015-12-28T14:33:43.000Z</time>
      </trkpt>
      <trkpt lat="43.8154" lon="6.46019">
        <ele>1092.405518</ele>
        <time>2015-12-28T14:33:48.000Z</time>
      </trkpt>
      <trkpt lat="43.81555" lon="6.46026">
        <ele>1091.636353</ele>
        <time>2015-12-28T14:33:53.000Z</time>
      </trkpt>
      <trkpt lat="43.81569" lon="6.46042">
        <ele>1090.077881</ele>
        <time>2015-12-28T14:33:58.000Z</time>
      </trkpt>
      <trkpt lat="43.81579" lon="6.46068">
        <ele>1087.334961</ele>
        <time>2015-12-28T14:34:03.000Z</time>
      </trkpt>
      <trkpt lat="43.81588" lon="6.46091">
        <ele>1084.803345</ele>
        <time>2015-12-28T14:34:08.000Z</time>
      </trkpt>
      <trkpt lat="43.81595" lon="6.46116">
        <ele>1082.484375</ele>
        <time>2015-12-28T14:34:13.000Z</time>
      </trkpt>
      <trkpt lat="43.81601" lon="6.46143">
        <ele>1080.343018</ele>
        <time>2015-12-28T14:34:18.000Z</time>
      </trkpt>
      <trkpt lat="43.8161" lon="6.4617">
        <ele>1078.872314</ele>
        <time>2015-12-28T14:34:23.000Z</time>
      </trkpt>
      <trkpt lat="43.81625" lon="6.46186">
        <ele>1077.169067</ele>
        <time>2015-12-28T14:34:28.000Z</time>
      </trkpt>
      <trkpt lat="43.81645" lon="6.46201">
        <ele>1075.703125</ele>
        <time>2015-12-28T14:34:33.000Z</time>
      </trkpt>
      <trkpt lat="43.81666" lon="6.46229">
        <ele>1071.899658</ele>
        <time>2015-12-28T14:34:38.000Z</time>
      </trkpt>
      <trkpt lat="43.81689" lon="6.46252">
        <ele>1070.746338</ele>
        <time>2015-12-28T14:34:43.000Z</time>
      </trkpt>
      <trkpt lat="43.81704" lon="6.46267">
        <ele>1071.048584</ele>
        <time>2015-12-28T14:34:48.000Z</time>
      </trkpt>
      <trkpt lat="43.81719" lon="6.46281">
        <ele>1069.131226</ele>
        <time>2015-12-28T14:34:53.000Z</time>
      </trkpt>
      <trkpt lat="43.81739" lon="6.46302">
        <ele>1065.736572</ele>
        <time>2015-12-28T14:34:58.000Z</time>
      </trkpt>
      <trkpt lat="43.81753" lon="6.46317">
        <ele>1064.547729</ele>
        <time>2015-12-28T14:35:03.000Z</time>
      </trkpt>
      <trkpt lat="43.81764" lon="6.46333">
        <ele>1063.486084</ele>
        <time>2015-12-28T14:35:08.000Z</time>
      </trkpt>
      <trkpt lat="43.81774" lon="6.46346">
        <ele>1062.916138</ele>
        <time>2015-12-28T14:35:13.000Z</time>
      </trkpt>
      <trkpt lat="43.81788" lon="6.46364">
        <ele>1058.961182</ele>
        <time>2015-12-28T14:35:18.000Z</time>
      </trkpt>
      <trkpt lat="43.81809" lon="6.46379">
        <ele>1058.912842</ele>
        <time>2015-12-28T14:35:23.000Z</time>
      </trkpt>
      <trkpt lat="43.81826" lon="6.46394">
        <ele>1057.313965</ele>
        <time>2015-12-28T14:35:28.000Z</time>
      </trkpt>
      <trkpt lat="43.81845" lon="6.46406">
        <ele>1055.704346</ele>
        <time>2015-12-28T14:35:33.000Z</time>
      </trkpt>
      <trkpt lat="43.81859" lon="6.46415">
        <ele>1053.422729</ele>
        <time>2015-12-28T14:35:38.000Z</time>
      </trkpt>
      <trkpt lat="43.81871" lon="6.46423">
        <ele>1051.97876</ele>
        <time>2015-12-28T14:35:43.000Z</time>
      </trkpt>
      <trkpt lat="43.8188" lon="6.46431">
        <ele>1052.482666</ele>
        <time>2015-12-28T14:35:48.000Z</time>
      </trkpt>
      <trkpt lat="43.81893" lon="6.46437">
        <ele>1050.534668</ele>
        <time>2015-12-28T14:35:53.000Z</time>
      </trkpt>
      <trkpt lat="43.81902" lon="6.46451">
        <ele>1047.915527</ele>
        <time>2015-12-28T14:35:58.000Z</time>
      </trkpt>
      <trkpt lat="43.81909" lon="6.46464">
        <ele>1048.432739</ele>
        <time>2015-12-28T14:36:03.000Z</time>
      </trkpt>
      <trkpt lat="43.81917" lon="6.46478">
        <ele>1046.588623</ele>
        <time>2015-12-28T14:36:08.000Z</time>
      </trkpt>
      <trkpt lat="43.81927" lon="6.46492">
        <ele>1045.027832</ele>
        <time>2015-12-28T14:36:13.000Z</time>
      </trkpt>
      <trkpt lat="43.81939" lon="6.46507">
        <ele>1042.448486</ele>
        <time>2015-12-28T14:36:18.000Z</time>
      </trkpt>
      <trkpt lat="43.81942" lon="6.46516">
        <ele>1042.058716</ele>
        <time>2015-12-28T14:36:23.000Z</time>
      </trkpt>
      <trkpt lat="43.81946" lon="6.46526">
        <ele>1043.802246</ele>
        <time>2015-12-28T14:36:28.000Z</time>
      </trkpt>
      <trkpt lat="43.81948" lon="6.46526">
        <ele>1044.354004</ele>
        <time>2015-12-28T14:36:33.000Z</time>
      </trkpt>
      <trkpt lat="43.81953" lon="6.4653">
        <ele>1045.214233</ele>
        <time>2015-12-28T14:36:38.000Z</time>
      </trkpt>
      <trkpt lat="43.81955" lon="6.46531">
        <ele>1047.122559</ele>
        <time>2015-12-28T14:36:43.000Z</time>
      </trkpt>
      <trkpt lat="43.81956" lon="6.46531">
        <ele>1047.826782</ele>
        <time>2015-12-28T14:36:48.000Z</time>
      </trkpt>
      <trkpt lat="43.81956" lon="6.46531">
        <ele>1047.868774</ele>
        <time>2015-12-28T14:36:53.000Z</time>
      </trkpt>
      <trkpt lat="43.81956" lon="6.4653">
        <ele>1047.922363</ele>
        <time>2015-12-28T14:36:58.000Z</time>
      </trkpt>
      <trkpt lat="43.81956" lon="6.4653">
        <ele>1047.944336</ele>
        <time>2015-12-28T14:37:03.000Z</time>
      </trkpt>
      <trkpt lat="43.81956" lon="6.4653">
        <ele>1047.953979</ele>
        <time>2015-12-28T14:37:08.000Z</time>
      </trkpt>
      <trkpt lat="43.81956" lon="6.4653">
        <ele>1047.99231</ele>
        <time>2015-12-28T14:37:13.000Z</time>
      </trkpt>
      <trkpt lat="43.81956" lon="6.4653">
        <ele>1048.065186</ele>
        <time>2015-12-28T14:37:18.000Z</time>
      </trkpt>
      <trkpt lat="43.81961" lon="6.46537">
        <ele>1047.618164</ele>
        <time>2015-12-28T14:37:23.000Z</time>
      </trkpt>
      <trkpt lat="43.81969" lon="6.4655">
        <ele>1045.895874</ele>
        <time>2015-12-28T14:37:28.000Z</time>
      </trkpt>
      <trkpt lat="43.81972" lon="6.46564">
        <ele>1045.802856</ele>
        <time>2015-12-28T14:37:33.000Z</time>
      </trkpt>
      <trkpt lat="43.8197" lon="6.46583">
        <ele>1043.350708</ele>
        <time>2015-12-28T14:37:38.000Z</time>
      </trkpt>
      <trkpt lat="43.81975" lon="6.46596">
        <ele>1044.11499</ele>
        <time>2015-12-28T14:37:43.000Z</time>
      </trkpt>
      <trkpt lat="43.8199" lon="6.46612">
        <ele>1043.690308</ele>
        <time>2015-12-28T14:37:48.000Z</time>
      </trkpt>
      <trkpt lat="43.82" lon="6.46636">
        <ele>1039.680542</ele>
        <time>2015-12-28T14:37:53.000Z</time>
      </trkpt>
      <trkpt lat="43.82005" lon="6.46666">
        <ele>1034.37207</ele>
        <time>2015-12-28T14:37:58.000Z</time>
      </trkpt>
      <trkpt lat="43.82012" lon="6.46699">
        <ele>1028.767944</ele>
        <time>2015-12-28T14:38:03.000Z</time>
      </trkpt>
      <trkpt lat="43.8202" lon="6.46733">
        <ele>1025.887573</ele>
        <time>2015-12-28T14:38:08.000Z</time>
      </trkpt>
      <trkpt lat="43.82028" lon="6.46767">
        <ele>1023.026489</ele>
        <time>2015-12-28T14:38:13.000Z</time>
      </trkpt>
      <trkpt lat="43.82035" lon="6.46794">
        <ele>1022.185303</ele>
        <time>2015-12-28T14:38:18.000Z</time>
      </trkpt>
      <trkpt lat="43.82044" lon="6.46807">
        <ele>1021.311096</ele>
        <time>2015-12-28T14:38:23.000Z</time>
      </trkpt>
      <trkpt lat="43.82049" lon="6.46813">
        <ele>1021.898499</ele>
        <time>2015-12-28T14:38:28.000Z</time>
      </trkpt>
      <trkpt lat="43.82063" lon="6.46816">
        <ele>1021.079712</ele>
        <time>2015-12-28T14:38:33.000Z</time>
      </trkpt>
      <trkpt lat="43.82079" lon="6.46814">
        <ele>1019.754456</ele>
        <time>2015-12-28T14:38:38.000Z</time>
      </trkpt>
      <trkpt lat="43.82099" lon="6.46814">
        <ele>1018.010193</ele>
        <time>2015-12-28T14:38:43.000Z</time>
      </trkpt>
      <trkpt lat="43.8212" lon="6.46814">
        <ele>1015.453613</ele>
        <time>2015-12-28T14:38:48.000Z</time>
      </trkpt>
      <trkpt lat="43.82144" lon="6.46823">
        <ele>1012.636414</ele>
        <time>2015-12-28T14:38:53.000Z</time>
      </trkpt>
      <trkpt lat="43.82148" lon="6.46827">
        <ele>1011.997009</ele>
        <time>2015-12-28T14:38:58.000Z</time>
      </trkpt>
      <trkpt lat="43.82148" lon="6.46827">
        <ele>1012.195801</ele>
        <time>2015-12-28T14:39:03.000Z</time>
      </trkpt>
      <trkpt lat="43.82148" lon="6.46827">
        <ele>1012.180664</ele>
        <time>2015-12-28T14:39:08.000Z</time>
      </trkpt>
      <trkpt lat="43.82148" lon="6.46827">
        <ele>1012.181824</ele>
        <time>2015-12-28T14:39:13.000Z</time>
      </trkpt>
      <trkpt lat="43.82148" lon="6.46827">
        <ele>1012.208008</ele>
        <time>2015-12-28T14:39:18.000Z</time>
      </trkpt>
      <trkpt lat="43.82149" lon="6.46828">
        <ele>1012.334656</ele>
        <time>2015-12-28T14:39:23.000Z</time>
      </trkpt>
      <trkpt lat="43.82155" lon="6.46834">
        <ele>1011.921753</ele>
        <time>2015-12-28T14:39:28.000Z</time>
      </trkpt>
      <trkpt lat="43.82167" lon="6.4685">
        <ele>1009.854309</ele>
        <time>2015-12-28T14:39:33.000Z</time>
      </trkpt>
      <trkpt lat="43.82176" lon="6.4686">
        <ele>1008.850159</ele>
        <time>2015-12-28T14:39:38.000Z</time>
      </trkpt>
      <trkpt lat="43.82187" lon="6.46871">
        <ele>1008.123901</ele>
        <time>2015-12-28T14:39:43.000Z</time>
      </trkpt>
      <trkpt lat="43.82205" lon="6.46884">
        <ele>1005.675415</ele>
        <time>2015-12-28T14:39:48.000Z</time>
      </trkpt>
      <trkpt lat="43.82227" lon="6.46901">
        <ele>1002.902222</ele>
        <time>2015-12-28T14:39:53.000Z</time>
      </trkpt>
      <trkpt lat="43.82244" lon="6.4693">
        <ele>1000.644958</ele>
        <time>2015-12-28T14:39:58.000Z</time>
      </trkpt>
      <trkpt lat="43.82251" lon="6.46968">
        <ele>996.472046</ele>
        <time>2015-12-28T14:40:03.000Z</time>
      </trkpt>
      <trkpt lat="43.82259" lon="6.47002">
        <ele>994.393555</ele>
        <time>2015-12-28T14:40:08.000Z</time>
      </trkpt>
      <trkpt lat="43.82283" lon="6.47032">
        <ele>996.800964</ele>
        <time>2015-12-28T14:40:13.000Z</time>
      </trkpt>
      <trkpt lat="43.82298" lon="6.4706">
        <ele>992.77063</ele>
        <time>2015-12-28T14:40:18.000Z</time>
      </trkpt>
      <trkpt lat="43.82309" lon="6.47081">
        <ele>991.260376</ele>
        <time>2015-12-28T14:40:23.000Z</time>
      </trkpt>
      <trkpt lat="43.82319" lon="6.47105">
        <ele>988.220032</ele>
        <time>2015-12-28T14:40:28.000Z</time>
      </trkpt>
      <trkpt lat="43.82329" lon="6.47127">
        <ele>984.69751</ele>
        <time>2015-12-28T14:40:33.000Z</time>
      </trkpt>
      <trkpt lat="43.82336" lon="6.4715">
        <ele>982.879456</ele>
        <time>2015-12-28T14:40:38.000Z</time>
      </trkpt>
      <trkpt lat="43.82344" lon="6.47169">
        <ele>981.244995</ele>
        <time>2015-12-28T14:40:43.000Z</time>
      </trkpt>
      <trkpt lat="43.82355" lon="6.47188">
        <ele>978.722717</ele>
        <time>2015-12-28T14:40:48.000Z</time>
      </trkpt>
      <trkpt lat="43.8237" lon="6.47208">
        <ele>976.180481</ele>
        <time>2015-12-28T14:40:53.000Z</time>
      </trkpt>
      <trkpt lat="43.82387" lon="6.47226">
        <ele>975.702759</ele>
        <time>2015-12-28T14:40:58.000Z</time>
      </trkpt>
      <trkpt lat="43.82401" lon="6.47252">
        <ele>973.842224</ele>
        <time>2015-12-28T14:41:03.000Z</time>
      </trkpt>
      <trkpt lat="43.82418" lon="6.47281">
        <ele>969.98761</ele>
        <time>2015-12-28T14:41:08.000Z</time>
      </trkpt>
      <trkpt lat="43.82433" lon="6.4731">
        <ele>968.042297</ele>
        <time>2015-12-28T14:41:13.000Z</time>
      </trkpt>
      <trkpt lat="43.8244" lon="6.47347">
        <ele>964.30957</ele>
        <time>2015-12-28T14:41:18.000Z</time>
      </trkpt>
      <trkpt lat="43.82456" lon="6.47379">
        <ele>960.73114</ele>
        <time>2015-12-28T14:41:23.000Z</time>
      </trkpt>
      <trkpt lat="43.82468" lon="6.47398">
        <ele>958.448547</ele>
        <time>2015-12-28T14:41:28.000Z</time>
      </trkpt>
      <trkpt lat="43.8247" lon="6.47419">
        <ele>957.416199</ele>
        <time>2015-12-28T14:41:33.000Z</time>
      </trkpt>
      <trkpt lat="43.82471" lon="6.4744">
        <ele>956.190063</ele>
        <time>2015-12-28T14:41:38.000Z</time>
      </trkpt>
      <trkpt lat="43.82472" lon="6.47464">
        <ele>955.007324</ele>
        <time>2015-12-28T14:41:43.000Z</time>
      </trkpt>
      <trkpt lat="43.82477" lon="6.47498">
        <ele>952.156494</ele>
        <time>2015-12-28T14:41:48.000Z</time>
      </trkpt>
      <trkpt lat="43.82485" lon="6.4753">
        <ele>949.743835</ele>
        <time>2015-12-28T14:41:53.000Z</time>
      </trkpt>
      <trkpt lat="43.82495" lon="6.47557">
        <ele>948.913208</ele>
        <time>2015-12-28T14:41:58.000Z</time>
      </trkpt>
      <trkpt lat="43.82502" lon="6.47588">
        <ele>947.275146</ele>
        <time>2015-12-28T14:42:03.000Z</time>
      </trkpt>
      <trkpt lat="43.82505" lon="6.47596">
        <ele>946.817749</ele>
        <time>2015-12-28T14:42:08.000Z</time>
      </trkpt>
      <trkpt lat="43.82506" lon="6.47598">
        <ele>946.834045</ele>
        <time>2015-12-28T14:42:13.000Z</time>
      </trkpt>
      <trkpt lat="43.82506" lon="6.47598">
        <ele>946.699524</ele>
        <time>2015-12-28T14:42:18.000Z</time>
      </trkpt>
      <trkpt lat="43.82506" lon="6.47598">
        <ele>946.436707</ele>
        <time>2015-12-28T14:42:23.000Z</time>
      </trkpt>
      <trkpt lat="43.82506" lon="6.47601">
        <ele>946.703918</ele>
        <time>2015-12-28T14:42:28.000Z</time>
      </trkpt>
      <trkpt lat="43.82508" lon="6.47606">
        <ele>946.710876</ele>
        <time>2015-12-28T14:42:33.000Z</time>
      </trkpt>
      <trkpt lat="43.82507" lon="6.47606">
        <ele>946.666138</ele>
        <time>2015-12-28T14:42:38.000Z</time>
      </trkpt>
      <trkpt lat="43.82507" lon="6.47606">
        <ele>946.645325</ele>
        <time>2015-12-28T14:42:43.000Z</time>
      </trkpt>
      <trkpt lat="43.82507" lon="6.47606">
        <ele>946.648621</ele>
        <time>2015-12-28T14:42:48.000Z</time>
      </trkpt>
      <trkpt lat="43.82507" lon="6.47606">
        <ele>946.656189</ele>
        <time>2015-12-28T14:42:53.000Z</time>
      </trkpt>
      <trkpt lat="43.82508" lon="6.47606">
        <ele>946.686951</ele>
        <time>2015-12-28T14:42:58.000Z</time>
      </trkpt>
      <trkpt lat="43.82512" lon="6.47617">
        <ele>945.858948</ele>
        <time>2015-12-28T14:43:03.000Z</time>
      </trkpt>
      <trkpt lat="43.82522" lon="6.47639">
        <ele>944.386841</ele>
        <time>2015-12-28T14:43:08.000Z</time>
      </trkpt>
      <trkpt lat="43.82534" lon="6.47668">
        <ele>942.369202</ele>
        <time>2015-12-28T14:43:13.000Z</time>
      </trkpt>
      <trkpt lat="43.82547" lon="6.47697">
        <ele>941.479126</ele>
        <time>2015-12-28T14:43:18.000Z</time>
      </trkpt>
      <trkpt lat="43.82561" lon="6.47727">
        <ele>939.214172</ele>
        <time>2015-12-28T14:43:23.000Z</time>
      </trkpt>
      <trkpt lat="43.8257" lon="6.47756">
        <ele>936.954041</ele>
        <time>2015-12-28T14:43:28.000Z</time>
      </trkpt>
      <trkpt lat="43.82575" lon="6.47789">
        <ele>935.394226</ele>
        <time>2015-12-28T14:43:33.000Z</time>
      </trkpt>
      <trkpt lat="43.82587" lon="6.47806">
        <ele>933.511353</ele>
        <time>2015-12-28T14:43:38.000Z</time>
      </trkpt>
      <trkpt lat="43.82592" lon="6.47818">
        <ele>933.245483</ele>
        <time>2015-12-28T14:43:43.000Z</time>
      </trkpt>
      <trkpt lat="43.82602" lon="6.47829">
        <ele>932.286804</ele>
        <time>2015-12-28T14:43:48.000Z</time>
      </trkpt>
      <trkpt lat="43.8261" lon="6.47839">
        <ele>931.037903</ele>
        <time>2015-12-28T14:43:53.000Z</time>
      </trkpt>
      <trkpt lat="43.82615" lon="6.47851">
        <ele>929.684753</ele>
        <time>2015-12-28T14:43:58.000Z</time>
      </trkpt>
      <trkpt lat="43.82616" lon="6.47864">
        <ele>929.196777</ele>
        <time>2015-12-28T14:44:03.000Z</time>
      </trkpt>
      <trkpt lat="43.82618" lon="6.47879">
        <ele>929.145813</ele>
        <time>2015-12-28T14:44:08.000Z</time>
      </trkpt>
      <trkpt lat="43.82617" lon="6.47881">
        <ele>928.935608</ele>
        <time>2015-12-28T14:44:13.000Z</time>
      </trkpt>
      <trkpt lat="43.82619" lon="6.47883">
        <ele>928.669983</ele>
        <time>2015-12-28T14:44:18.000Z</time>
      </trkpt>
      <trkpt lat="43.82619" lon="6.47884">
        <ele>928.678833</ele>
        <time>2015-12-28T14:44:23.000Z</time>
      </trkpt>
      <trkpt lat="43.82619" lon="6.47884">
        <ele>928.630493</ele>
        <time>2015-12-28T14:44:28.000Z</time>
      </trkpt>
      <trkpt lat="43.8262" lon="6.47886">
        <ele>928.907959</ele>
        <time>2015-12-28T14:44:33.000Z</time>
      </trkpt>
      <trkpt lat="43.82621" lon="6.47889">
        <ele>928.889221</ele>
        <time>2015-12-28T14:44:38.000Z</time>
      </trkpt>
      <trkpt lat="43.82621" lon="6.47889">
        <ele>928.882813</ele>
        <time>2015-12-28T14:44:43.000Z</time>
      </trkpt>
      <trkpt lat="43.82624" lon="6.47899">
        <ele>928.933105</ele>
        <time>2015-12-28T14:44:48.000Z</time>
      </trkpt>
      <trkpt lat="43.82631" lon="6.47906">
        <ele>928.237</ele>
        <time>2015-12-28T14:44:53.000Z</time>
      </trkpt>
      <trkpt lat="43.82641" lon="6.47917">
        <ele>926.557373</ele>
        <time>2015-12-28T14:44:58.000Z</time>
      </trkpt>
      <trkpt lat="43.82649" lon="6.47927">
        <ele>925.828979</ele>
        <time>2015-12-28T14:45:03.000Z</time>
      </trkpt>
      <trkpt lat="43.82652" lon="6.47931">
        <ele>926.600403</ele>
        <time>2015-12-28T14:45:08.000Z</time>
      </trkpt>
      <trkpt lat="43.82652" lon="6.47931">
        <ele>926.481384</ele>
        <time>2015-12-28T14:45:13.000Z</time>
      </trkpt>
      <trkpt lat="43.82657" lon="6.47936">
        <ele>925.829102</ele>
        <time>2015-12-28T14:45:18.000Z</time>
      </trkpt>
      <trkpt lat="43.82663" lon="6.47941">
        <ele>925.502014</ele>
        <time>2015-12-28T14:45:23.000Z</time>
      </trkpt>
      <trkpt lat="43.82664" lon="6.47943">
        <ele>925.617371</ele>
        <time>2015-12-28T14:45:28.000Z</time>
      </trkpt>
      <trkpt lat="43.82675" lon="6.47955">
        <ele>925.347046</ele>
        <time>2015-12-28T14:45:33.000Z</time>
      </trkpt>
      <trkpt lat="43.82682" lon="6.47965">
        <ele>925.597473</ele>
        <time>2015-12-28T14:45:38.000Z</time>
      </trkpt>
      <trkpt lat="43.82688" lon="6.47975">
        <ele>925.544373</ele>
        <time>2015-12-28T14:45:43.000Z</time>
      </trkpt>
      <trkpt lat="43.8269" lon="6.47977">
        <ele>925.397217</ele>
        <time>2015-12-28T14:45:48.000Z</time>
      </trkpt>
      <trkpt lat="43.8269" lon="6.47977">
        <ele>925.327209</ele>
        <time>2015-12-28T14:45:53.000Z</time>
      </trkpt>
      <trkpt lat="43.8269" lon="6.47977">
        <ele>925.322205</ele>
        <time>2015-12-28T14:45:58.000Z</time>
      </trkpt>
      <trkpt lat="43.8269" lon="6.47977">
        <ele>925.307861</ele>
        <time>2015-12-28T14:46:03.000Z</time>
      </trkpt>
      <trkpt lat="43.8269" lon="6.47979">
        <ele>925.455627</ele>
        <time>2015-12-28T14:46:08.000Z</time>
      </trkpt>
      <trkpt lat="43.82694" lon="6.47985">
        <ele>925.78595</ele>
        <time>2015-12-28T14:46:13.000Z</time>
      </trkpt>
      <trkpt lat="43.82697" lon="6.4799">
        <ele>925.194763</ele>
        <time>2015-12-28T14:46:18.000Z</time>
      </trkpt>
      <trkpt lat="43.82698" lon="6.48009">
        <ele>924.022888</ele>
        <time>2015-12-28T14:46:23.000Z</time>
      </trkpt>
      <trkpt lat="43.82698" lon="6.48011">
        <ele>923.564087</ele>
        <time>2015-12-28T14:46:28.000Z</time>
      </trkpt>
      <trkpt lat="43.82698" lon="6.48013">
        <ele>923.997803</ele>
        <time>2015-12-28T14:46:33.000Z</time>
      </trkpt>
      <trkpt lat="43.82698" lon="6.48012">
        <ele>924.168274</ele>
        <time>2015-12-28T14:46:38.000Z</time>
      </trkpt>
      <trkpt lat="43.82698" lon="6.48014">
        <ele>924.80603</ele>
        <time>2015-12-28T14:46:43.000Z</time>
      </trkpt>
      <trkpt lat="43.82698" lon="6.48014">
        <ele>925.542908</ele>
        <time>2015-12-28T14:46:48.000Z</time>
      </trkpt>
      <trkpt lat="43.82697" lon="6.48014">
        <ele>925.185669</ele>
        <time>2015-12-28T14:46:53.000Z</time>
      </trkpt>
      <trkpt lat="43.82702" lon="6.48021">
        <ele>924.921814</ele>
        <time>2015-12-28T14:46:58.000Z</time>
      </trkpt>
      <trkpt lat="43.82706" lon="6.48037">
        <ele>923.297913</ele>
        <time>2015-12-28T14:47:03.000Z</time>
      </trkpt>
      <trkpt lat="43.82703" lon="6.48052">
        <ele>920.487122</ele>
        <time>2015-12-28T14:47:08.000Z</time>
      </trkpt>
      <trkpt lat="43.82703" lon="6.48065">
        <ele>918.316345</ele>
        <time>2015-12-28T14:47:13.000Z</time>
      </trkpt>
      <trkpt lat="43.8271" lon="6.48085">
        <ele>915.796814</ele>
        <time>2015-12-28T14:47:18.000Z</time>
      </trkpt>
      <trkpt lat="43.82719" lon="6.48098">
        <ele>917.013855</ele>
        <time>2015-12-28T14:47:23.000Z</time>
      </trkpt>
      <trkpt lat="43.82724" lon="6.48103">
        <ele>917.613953</ele>
        <time>2015-12-28T14:47:28.000Z</time>
      </trkpt>
      <trkpt lat="43.82723" lon="6.48102">
        <ele>917.132935</ele>
        <time>2015-12-28T14:47:33.000Z</time>
      </trkpt>
      <trkpt lat="43.82727" lon="6.48105">
        <ele>918.303711</ele>
        <time>2015-12-28T14:47:38.000Z</time>
      </trkpt>
      <trkpt lat="43.82735" lon="6.48109">
        <ele>919.044312</ele>
        <time>2015-12-28T14:47:43.000Z</time>
      </trkpt>
      <trkpt lat="43.82744" lon="6.48113">
        <ele>919.954346</ele>
        <time>2015-12-28T14:47:48.000Z</time>
      </trkpt>
      <trkpt lat="43.82757" lon="6.48113">
        <ele>919.856628</ele>
        <time>2015-12-28T14:47:53.000Z</time>
      </trkpt>
      <trkpt lat="43.82766" lon="6.48118">
        <ele>919.871399</ele>
        <time>2015-12-28T14:47:58.000Z</time>
      </trkpt>
      <trkpt lat="43.82768" lon="6.48118">
        <ele>919.112122</ele>
        <time>2015-12-28T14:48:03.000Z</time>
      </trkpt>
      <trkpt lat="43.82766" lon="6.48119">
        <ele>918.678955</ele>
        <time>2015-12-28T14:48:08.000Z</time>
      </trkpt>
      <trkpt lat="43.82764" lon="6.48119">
        <ele>918.233032</ele>
        <time>2015-12-28T14:48:13.000Z</time>
      </trkpt>
      <trkpt lat="43.82769" lon="6.48119">
        <ele>917.568054</ele>
        <time>2015-12-28T14:48:18.000Z</time>
      </trkpt>
      <trkpt lat="43.82769" lon="6.48119">
        <ele>916.716797</ele>
        <time>2015-12-28T14:48:23.000Z</time>
      </trkpt>
      <trkpt lat="43.82769" lon="6.48119">
        <ele>916.732178</ele>
        <time>2015-12-28T14:48:28.000Z</time>
      </trkpt>
      <trkpt lat="43.82769" lon="6.48119">
        <ele>916.763</ele>
        <time>2015-12-28T14:48:33.000Z</time>
      </trkpt>
      <trkpt lat="43.82769" lon="6.4812">
        <ele>916.599426</ele>
        <time>2015-12-28T14:48:38.000Z</time>
      </trkpt>
      <trkpt lat="43.8277" lon="6.48121">
        <ele>916.87793</ele>
        <time>2015-12-28T14:48:43.000Z</time>
      </trkpt>
      <trkpt lat="43.82771" lon="6.48122">
        <ele>916.296631</ele>
        <time>2015-12-28T14:48:48.000Z</time>
      </trkpt>
      <trkpt lat="43.82776" lon="6.48135">
        <ele>914.438904</ele>
        <time>2015-12-28T14:48:53.000Z</time>
      </trkpt>
      <trkpt lat="43.82784" lon="6.48154">
        <ele>913.621033</ele>
        <time>2015-12-28T14:48:58.000Z</time>
      </trkpt>
      <trkpt lat="43.82792" lon="6.48167">
        <ele>913.644714</ele>
        <time>2015-12-28T14:49:03.000Z</time>
      </trkpt>
      <trkpt lat="43.82801" lon="6.48185">
        <ele>912.775269</ele>
        <time>2015-12-28T14:49:08.000Z</time>
      </trkpt>
      <trkpt lat="43.82803" lon="6.4819">
        <ele>913.391846</ele>
        <time>2015-12-28T14:49:13.000Z</time>
      </trkpt>
      <trkpt lat="43.82804" lon="6.48194">
        <ele>914.162537</ele>
        <time>2015-12-28T14:49:18.000Z</time>
      </trkpt>
      <trkpt lat="43.82806" lon="6.48197">
        <ele>914.918701</ele>
        <time>2015-12-28T14:49:23.000Z</time>
      </trkpt>
      <trkpt lat="43.82806" lon="6.48199">
        <ele>915.453918</ele>
        <time>2015-12-28T14:49:28.000Z</time>
      </trkpt>
      <trkpt lat="43.82807" lon="6.482">
        <ele>915.715881</ele>
        <time>2015-12-28T14:49:33.000Z</time>
      </trkpt>
      <trkpt lat="43.82807" lon="6.48201">
        <ele>915.803711</ele>
        <time>2015-12-28T14:49:38.000Z</time>
      </trkpt>
      <trkpt lat="43.82814" lon="6.48213">
        <ele>914.086975</ele>
        <time>2015-12-28T14:49:43.000Z</time>
      </trkpt>
      <trkpt lat="43.82823" lon="6.48232">
        <ele>913.587402</ele>
        <time>2015-12-28T14:49:48.000Z</time>
      </trkpt>
      <trkpt lat="43.82833" lon="6.48251">
        <ele>911.727539</ele>
        <time>2015-12-28T14:49:53.000Z</time>
      </trkpt>
      <trkpt lat="43.82834" lon="6.48251">
        <ele>911.622742</ele>
        <time>2015-12-28T14:49:58.000Z</time>
      </trkpt>
      <trkpt lat="43.82834" lon="6.48251">
        <ele>911.630493</ele>
        <time>2015-12-28T14:50:03.000Z</time>
      </trkpt>
      <trkpt lat="43.82834" lon="6.48251">
        <ele>911.620728</ele>
        <time>2015-12-28T14:50:08.000Z</time>
      </trkpt>
      <trkpt lat="43.82834" lon="6.48252">
        <ele>911.609558</ele>
        <time>2015-12-28T14:50:13.000Z</time>
      </trkpt>
      <trkpt lat="43.82835" lon="6.48252">
        <ele>911.594238</ele>
        <time>2015-12-28T14:50:18.000Z</time>
      </trkpt>
      <trkpt lat="43.82835" lon="6.48252">
        <ele>911.59967</ele>
        <time>2015-12-28T14:50:23.000Z</time>
      </trkpt>
      <trkpt lat="43.82837" lon="6.48256">
        <ele>911.816895</ele>
        <time>2015-12-28T14:50:28.000Z</time>
      </trkpt>
      <trkpt lat="43.8284" lon="6.48265">
        <ele>913.450867</ele>
        <time>2015-12-28T14:50:33.000Z</time>
      </trkpt>
      <trkpt lat="43.82844" lon="6.4827">
        <ele>913.600464</ele>
        <time>2015-12-28T14:50:38.000Z</time>
      </trkpt>
      <trkpt lat="43.82847" lon="6.48276">
        <ele>912.68573</ele>
        <time>2015-12-28T14:50:43.000Z</time>
      </trkpt>
      <trkpt lat="43.82848" lon="6.48276">
        <ele>912.516479</ele>
        <time>2015-12-28T14:50:48.000Z</time>
      </trkpt>
      <trkpt lat="43.82849" lon="6.48281">
        <ele>913.358948</ele>
        <time>2015-12-28T14:50:53.000Z</time>
      </trkpt>
      <trkpt lat="43.82849" lon="6.48283">
        <ele>913.632507</ele>
        <time>2015-12-28T14:50:58.000Z</time>
      </trkpt>
      <trkpt lat="43.82849" lon="6.48283">
        <ele>913.739929</ele>
        <time>2015-12-28T14:51:03.000Z</time>
      </trkpt>
      <trkpt lat="43.82851" lon="6.48286">
        <ele>913.909607</ele>
        <time>2015-12-28T14:51:08.000Z</time>
      </trkpt>
      <trkpt lat="43.82853" lon="6.48291">
        <ele>914.06842</ele>
        <time>2015-12-28T14:51:13.000Z</time>
      </trkpt>
      <trkpt lat="43.82856" lon="6.48296">
        <ele>915.062134</ele>
        <time>2015-12-28T14:51:18.000Z</time>
      </trkpt>
      <trkpt lat="43.82858" lon="6.483">
        <ele>916.093628</ele>
        <time>2015-12-28T14:51:23.000Z</time>
      </trkpt>
      <trkpt lat="43.8286" lon="6.48306">
        <ele>917.176025</ele>
        <time>2015-12-28T14:51:28.000Z</time>
      </trkpt>
      <trkpt lat="43.8286" lon="6.48311">
        <ele>917.834473</ele>
        <time>2015-12-28T14:51:33.000Z</time>
      </trkpt>
      <trkpt lat="43.82862" lon="6.48314">
        <ele>918.509766</ele>
        <time>2015-12-28T14:51:38.000Z</time>
      </trkpt>
      <trkpt lat="43.82863" lon="6.48318">
        <ele>919.042725</ele>
        <time>2015-12-28T14:51:43.000Z</time>
      </trkpt>
      <trkpt lat="43.82864" lon="6.48321">
        <ele>919.341675</ele>
        <time>2015-12-28T14:51:48.000Z</time>
      </trkpt>
      <trkpt lat="43.82865" lon="6.48326">
        <ele>919.643616</ele>
        <time>2015-12-28T14:51:53.000Z</time>
      </trkpt>
      <trkpt lat="43.82866" lon="6.48329">
        <ele>919.97113</ele>
        <time>2015-12-28T14:51:58.000Z</time>
      </trkpt>
      <trkpt lat="43.82868" lon="6.48336">
        <ele>918.718933</ele>
        <time>2015-12-28T14:52:03.000Z</time>
      </trkpt>
      <trkpt lat="43.82868" lon="6.48347">
        <ele>917.502197</ele>
        <time>2015-12-28T14:52:08.000Z</time>
      </trkpt>
      <trkpt lat="43.82866" lon="6.48357">
        <ele>917.125</ele>
        <time>2015-12-28T14:52:13.000Z</time>
      </trkpt>
      <trkpt lat="43.82866" lon="6.48366">
        <ele>918.425842</ele>
        <time>2015-12-28T14:52:18.000Z</time>
      </trkpt>
      <trkpt lat="43.82867" lon="6.48373">
        <ele>920.074768</ele>
        <time>2015-12-28T14:52:23.000Z</time>
      </trkpt>
      <trkpt lat="43.82868" lon="6.48377">
        <ele>920.490601</ele>
        <time>2015-12-28T14:52:28.000Z</time>
      </trkpt>
      <trkpt lat="43.82868" lon="6.48377">
        <ele>920.209839</ele>
        <time>2015-12-28T14:52:33.000Z</time>
      </trkpt>
      <trkpt lat="43.82868" lon="6.48377">
        <ele>920.247131</ele>
        <time>2015-12-28T14:52:38.000Z</time>
      </trkpt>
      <trkpt lat="43.82868" lon="6.48377">
        <ele>920.282959</ele>
        <time>2015-12-28T14:52:43.000Z</time>
      </trkpt>
      <trkpt lat="43.82869" lon="6.4838">
        <ele>920.354614</ele>
        <time>2015-12-28T14:52:48.000Z</time>
      </trkpt>
      <trkpt lat="43.8287" lon="6.48382">
        <ele>920.424438</ele>
        <time>2015-12-28T14:52:53.000Z</time>
      </trkpt>
      <trkpt lat="43.8287" lon="6.48383">
        <ele>920.209229</ele>
        <time>2015-12-28T14:52:58.000Z</time>
      </trkpt>
      <trkpt lat="43.8287" lon="6.48383">
        <ele>920.176819</ele>
        <time>2015-12-28T14:53:03.000Z</time>
      </trkpt>
      <trkpt lat="43.8287" lon="6.48383">
        <ele>920.116882</ele>
        <time>2015-12-28T14:53:08.000Z</time>
      </trkpt>
      <trkpt lat="43.8287" lon="6.48383">
        <ele>920.099243</ele>
        <time>2015-12-28T14:53:13.000Z</time>
      </trkpt>
      <trkpt lat="43.8287" lon="6.48383">
        <ele>920.16449</ele>
        <time>2015-12-28T14:53:18.000Z</time>
      </trkpt>
      <trkpt lat="43.8287" lon="6.48382">
        <ele>919.924194</ele>
        <time>2015-12-28T14:53:23.000Z</time>
      </trkpt>
      <trkpt lat="43.8287" lon="6.48382">
        <ele>919.913025</ele>
        <time>2015-12-28T14:53:28.000Z</time>
      </trkpt>
      <trkpt lat="43.8287" lon="6.48383">
        <ele>919.994873</ele>
        <time>2015-12-28T14:53:33.000Z</time>
      </trkpt>
      <trkpt lat="43.8287" lon="6.48383">
        <ele>919.981995</ele>
        <time>2015-12-28T14:53:38.000Z</time>
      </trkpt>
      <trkpt lat="43.8287" lon="6.48383">
        <ele>919.982483</ele>
        <time>2015-12-28T14:53:43.000Z</time>
      </trkpt>
      <trkpt lat="43.8287" lon="6.48383">
        <ele>919.97699</ele>
        <time>2015-12-28T14:53:48.000Z</time>
      </trkpt>
      <trkpt lat="43.8287" lon="6.48383">
        <ele>919.973633</ele>
        <time>2015-12-28T14:53:53.000Z</time>
      </trkpt>
      <trkpt lat="43.8287" lon="6.48383">
        <ele>919.966858</ele>
        <time>2015-12-28T14:53:58.000Z</time>
      </trkpt>
      <trkpt lat="43.8287" lon="6.48383">
        <ele>919.96582</ele>
        <time>2015-12-28T14:54:03.000Z</time>
      </trkpt>
      <trkpt lat="43.8287" lon="6.48383">
        <ele>919.969238</ele>
        <time>2015-12-28T14:54:08.000Z</time>
      </trkpt>
      <trkpt lat="43.8287" lon="6.48383">
        <ele>919.970764</ele>
        <time>2015-12-28T14:54:13.000Z</time>
      </trkpt>
      <trkpt lat="43.8287" lon="6.48383">
        <ele>919.973755</ele>
        <time>2015-12-28T14:54:18.000Z</time>
      </trkpt>
      <trkpt lat="43.8287" lon="6.48383">
        <ele>920.037537</ele>
        <time>2015-12-28T14:54:23.000Z</time>
      </trkpt>
      <trkpt lat="43.8287" lon="6.4838">
        <ele>919.306458</ele>
        <time>2015-12-28T14:54:28.000Z</time>
      </trkpt>
      <trkpt lat="43.8287" lon="6.4838">
        <ele>919.197327</ele>
        <time>2015-12-28T14:54:33.000Z</time>
      </trkpt>
      <trkpt lat="43.8287" lon="6.4838">
        <ele>919.199951</ele>
        <time>2015-12-28T14:54:38.000Z</time>
      </trkpt>
      <trkpt lat="43.8287" lon="6.4838">
        <ele>919.263916</ele>
        <time>2015-12-28T14:54:43.000Z</time>
      </trkpt>
      <trkpt lat="43.8287" lon="6.48382">
        <ele>919.385681</ele>
        <time>2015-12-28T14:54:48.000Z</time>
      </trkpt>
      <trkpt lat="43.8287" lon="6.48382">
        <ele>919.341003</ele>
        <time>2015-12-28T14:54:53.000Z</time>
      </trkpt>
      <trkpt lat="43.8287" lon="6.48382">
        <ele>919.298523</ele>
        <time>2015-12-28T14:54:58.000Z</time>
      </trkpt>
      <trkpt lat="43.8287" lon="6.48387">
        <ele>919.647522</ele>
        <time>2015-12-28T14:55:03.000Z</time>
      </trkpt>
      <trkpt lat="43.82871" lon="6.48394">
        <ele>919.559265</ele>
        <time>2015-12-28T14:55:08.000Z</time>
      </trkpt>
      <trkpt lat="43.82871" lon="6.48402">
        <ele>920.521179</ele>
        <time>2015-12-28T14:55:13.000Z</time>
      </trkpt>
      <trkpt lat="43.82873" lon="6.48407">
        <ele>921.176819</ele>
        <time>2015-12-28T14:55:18.000Z</time>
      </trkpt>
      <trkpt lat="43.82878" lon="6.48409">
        <ele>920.945862</ele>
        <time>2015-12-28T14:55:23.000Z</time>
      </trkpt>
      <trkpt lat="43.82882" lon="6.48411">
        <ele>920.823914</ele>
        <time>2015-12-28T14:55:28.000Z</time>
      </trkpt>
      <trkpt lat="43.82885" lon="6.48414">
        <ele>921.475891</ele>
        <time>2015-12-28T14:55:33.000Z</time>
      </trkpt>
      <trkpt lat="43.82888" lon="6.48419">
        <ele>921.898987</ele>
        <time>2015-12-28T14:55:38.000Z</time>
      </trkpt>
      <trkpt lat="43.82889" lon="6.48422">
        <ele>922.331482</ele>
        <time>2015-12-28T14:55:43.000Z</time>
      </trkpt>
      <trkpt lat="43.82889" lon="6.48422">
        <ele>922.596191</ele>
        <time>2015-12-28T14:55:48.000Z</time>
      </trkpt>
      <trkpt lat="43.8289" lon="6.48424">
        <ele>922.745239</ele>
        <time>2015-12-28T14:55:53.000Z</time>
      </trkpt>
      <trkpt lat="43.82891" lon="6.48428">
        <ele>922.341248</ele>
        <time>2015-12-28T14:55:58.000Z</time>
      </trkpt>
      <trkpt lat="43.82894" lon="6.48436">
        <ele>922.803589</ele>
        <time>2015-12-28T14:56:03.000Z</time>
      </trkpt>
      <trkpt lat="43.82898" lon="6.48448">
        <ele>923.256165</ele>
        <time>2015-12-28T14:56:08.000Z</time>
      </trkpt>
      <trkpt lat="43.82902" lon="6.48458">
        <ele>923.813904</ele>
        <time>2015-12-28T14:56:13.000Z</time>
      </trkpt>
      <trkpt lat="43.82905" lon="6.48467">
        <ele>924.356384</ele>
        <time>2015-12-28T14:56:18.000Z</time>
      </trkpt>
      <trkpt lat="43.82908" lon="6.48476">
        <ele>924.971741</ele>
        <time>2015-12-28T14:56:23.000Z</time>
      </trkpt>
      <trkpt lat="43.82909" lon="6.48483">
        <ele>925.394836</ele>
        <time>2015-12-28T14:56:28.000Z</time>
      </trkpt>
      <trkpt lat="43.82909" lon="6.48485">
        <ele>925.42926</ele>
        <time>2015-12-28T14:56:33.000Z</time>
      </trkpt>
      <trkpt lat="43.82913" lon="6.48491">
        <ele>926.335144</ele>
        <time>2015-12-28T14:56:38.000Z</time>
      </trkpt>
      <trkpt lat="43.82917" lon="6.48499">
        <ele>926.859497</ele>
        <time>2015-12-28T14:56:43.000Z</time>
      </trkpt>
      <trkpt lat="43.8292" lon="6.48509">
        <ele>926.652527</ele>
        <time>2015-12-28T14:56:48.000Z</time>
      </trkpt>
      <trkpt lat="43.82923" lon="6.48519">
        <ele>926.581116</ele>
        <time>2015-12-28T14:56:53.000Z</time>
      </trkpt>
      <trkpt lat="43.82928" lon="6.48528">
        <ele>926.615845</ele>
        <time>2015-12-28T14:56:58.000Z</time>
      </trkpt>
      <trkpt lat="43.82933" lon="6.48537">
        <ele>927.166687</ele>
        <time>2015-12-28T14:57:03.000Z</time>
      </trkpt>
      <trkpt lat="43.82939" lon="6.48545">
        <ele>927.984497</ele>
        <time>2015-12-28T14:57:08.000Z</time>
      </trkpt>
      <trkpt lat="43.82943" lon="6.48554">
        <ele>928.829407</ele>
        <time>2015-12-28T14:57:13.000Z</time>
      </trkpt>
      <trkpt lat="43.82948" lon="6.48562">
        <ele>929.252319</ele>
        <time>2015-12-28T14:57:18.000Z</time>
      </trkpt>
      <trkpt lat="43.82952" lon="6.48572">
        <ele>929.579773</ele>
        <time>2015-12-28T14:57:23.000Z</time>
      </trkpt>
      <trkpt lat="43.82956" lon="6.4858">
        <ele>929.655151</ele>
        <time>2015-12-28T14:57:28.000Z</time>
      </trkpt>
      <trkpt lat="43.82959" lon="6.48585">
        <ele>929.372925</ele>
        <time>2015-12-28T14:57:33.000Z</time>
      </trkpt>
      <trkpt lat="43.82964" lon="6.48594">
        <ele>930.270996</ele>
        <time>2015-12-28T14:57:38.000Z</time>
      </trkpt>
      <trkpt lat="43.82969" lon="6.48601">
        <ele>931.014526</ele>
        <time>2015-12-28T14:57:43.000Z</time>
      </trkpt>
      <trkpt lat="43.82973" lon="6.4861">
        <ele>931.73645</ele>
        <time>2015-12-28T14:57:48.000Z</time>
      </trkpt>
      <trkpt lat="43.82975" lon="6.48619">
        <ele>932.596008</ele>
        <time>2015-12-28T14:57:53.000Z</time>
      </trkpt>
      <trkpt lat="43.82979" lon="6.48629">
        <ele>933.082214</ele>
        <time>2015-12-28T14:57:58.000Z</time>
      </trkpt>
      <trkpt lat="43.82982" lon="6.48638">
        <ele>933.67804</ele>
        <time>2015-12-28T14:58:03.000Z</time>
      </trkpt>
      <trkpt lat="43.82986" lon="6.48647">
        <ele>934.508728</ele>
        <time>2015-12-28T14:58:08.000Z</time>
      </trkpt>
      <trkpt lat="43.82989" lon="6.48654">
        <ele>935.532166</ele>
        <time>2015-12-28T14:58:13.000Z</time>
      </trkpt>
      <trkpt lat="43.82989" lon="6.48654">
        <ele>935.637634</ele>
        <time>2015-12-28T14:58:18.000Z</time>
      </trkpt>
      <trkpt lat="43.8299" lon="6.48656">
        <ele>935.79303</ele>
        <time>2015-12-28T14:58:23.000Z</time>
      </trkpt>
      <trkpt lat="43.82993" lon="6.48662">
        <ele>936.088562</ele>
        <time>2015-12-28T14:58:28.000Z</time>
      </trkpt>
      <trkpt lat="43.82996" lon="6.48668">
        <ele>936.468994</ele>
        <time>2015-12-28T14:58:33.000Z</time>
      </trkpt>
      <trkpt lat="43.82998" lon="6.48674">
        <ele>937.130493</ele>
        <time>2015-12-28T14:58:38.000Z</time>
      </trkpt>
      <trkpt lat="43.83001" lon="6.48681">
        <ele>937.584167</ele>
        <time>2015-12-28T14:58:43.000Z</time>
      </trkpt>
      <trkpt lat="43.83004" lon="6.48687">
        <ele>938.034546</ele>
        <time>2015-12-28T14:58:48.000Z</time>
      </trkpt>
      <trkpt lat="43.83006" lon="6.48689">
        <ele>938.087585</ele>
        <time>2015-12-28T14:58:53.000Z</time>
      </trkpt>
      <trkpt lat="43.83005" lon="6.48689">
        <ele>938.354858</ele>
        <time>2015-12-28T14:58:58.000Z</time>
      </trkpt>
      <trkpt lat="43.83007" lon="6.48693">
        <ele>938.322571</ele>
        <time>2015-12-28T14:59:03.000Z</time>
      </trkpt>
      <trkpt lat="43.8301" lon="6.48705">
        <ele>938.44812</ele>
        <time>2015-12-28T14:59:08.000Z</time>
      </trkpt>
      <trkpt lat="43.83012" lon="6.48717">
        <ele>938.897278</ele>
        <time>2015-12-28T14:59:13.000Z</time>
      </trkpt>
      <trkpt lat="43.83014" lon="6.48729">
        <ele>939.382019</ele>
        <time>2015-12-28T14:59:18.000Z</time>
      </trkpt>
      <trkpt lat="43.83016" lon="6.48742">
        <ele>939.517578</ele>
        <time>2015-12-28T14:59:23.000Z</time>
      </trkpt>
      <trkpt lat="43.8302" lon="6.48752">
        <ele>939.90033</ele>
        <time>2015-12-28T14:59:28.000Z</time>
      </trkpt>
      <trkpt lat="43.83024" lon="6.48763">
        <ele>939.724609</ele>
        <time>2015-12-28T14:59:33.000Z</time>
      </trkpt>
      <trkpt lat="43.83027" lon="6.48773">
        <ele>939.629883</ele>
        <time>2015-12-28T14:59:38.000Z</time>
      </trkpt>
      <trkpt lat="43.83029" lon="6.48785">
        <ele>939.962036</ele>
        <time>2015-12-28T14:59:43.000Z</time>
      </trkpt>
      <trkpt lat="43.83032" lon="6.48797">
        <ele>940.690247</ele>
        <time>2015-12-28T14:59:48.000Z</time>
      </trkpt>
      <trkpt lat="43.83036" lon="6.4881">
        <ele>940.829285</ele>
        <time>2015-12-28T14:59:53.000Z</time>
      </trkpt>
      <trkpt lat="43.83037" lon="6.48819">
        <ele>940.852295</ele>
        <time>2015-12-28T14:59:58.000Z</time>
      </trkpt>
      <trkpt lat="43.83039" lon="6.48827">
        <ele>941.337646</ele>
        <time>2015-12-28T15:00:03.000Z</time>
      </trkpt>
      <trkpt lat="43.83041" lon="6.48832">
        <ele>941.53479</ele>
        <time>2015-12-28T15:00:08.000Z</time>
      </trkpt>
      <trkpt lat="43.83041" lon="6.48832">
        <ele>941.402771</ele>
        <time>2015-12-28T15:00:13.000Z</time>
      </trkpt>
      <trkpt lat="43.83041" lon="6.48832">
        <ele>941.306519</ele>
        <time>2015-12-28T15:00:18.000Z</time>
      </trkpt>
      <trkpt lat="43.83041" lon="6.48841">
        <ele>941.349304</ele>
        <time>2015-12-28T15:00:23.000Z</time>
      </trkpt>
      <trkpt lat="43.83039" lon="6.48852">
        <ele>941.440979</ele>
        <time>2015-12-28T15:00:28.000Z</time>
      </trkpt>
      <trkpt lat="43.83038" lon="6.48862">
        <ele>941.232117</ele>
        <time>2015-12-28T15:00:33.000Z</time>
      </trkpt>
      <trkpt lat="43.83037" lon="6.48866">
        <ele>941.066895</ele>
        <time>2015-12-28T15:00:38.000Z</time>
      </trkpt>
      <trkpt lat="43.83037" lon="6.48867">
        <ele>941.174072</ele>
        <time>2015-12-28T15:00:43.000Z</time>
      </trkpt>
      <trkpt lat="43.83035" lon="6.48875">
        <ele>941.328552</ele>
        <time>2015-12-28T15:00:48.000Z</time>
      </trkpt>
      <trkpt lat="43.83032" lon="6.48887">
        <ele>941.026611</ele>
        <time>2015-12-28T15:00:53.000Z</time>
      </trkpt>
      <trkpt lat="43.83031" lon="6.48898">
        <ele>941.157837</ele>
        <time>2015-12-28T15:00:58.000Z</time>
      </trkpt>
      <trkpt lat="43.83031" lon="6.48908">
        <ele>941.62915</ele>
        <time>2015-12-28T15:01:03.000Z</time>
      </trkpt>
      <trkpt lat="43.83031" lon="6.48919">
        <ele>942.348389</ele>
        <time>2015-12-28T15:01:08.000Z</time>
      </trkpt>
      <trkpt lat="43.83033" lon="6.4893">
        <ele>942.392334</ele>
        <time>2015-12-28T15:01:13.000Z</time>
      </trkpt>
      <trkpt lat="43.83036" lon="6.48939">
        <ele>942.694031</ele>
        <time>2015-12-28T15:01:18.000Z</time>
      </trkpt>
      <trkpt lat="43.83039" lon="6.48953">
        <ele>943.014832</ele>
        <time>2015-12-28T15:01:23.000Z</time>
      </trkpt>
      <trkpt lat="43.83043" lon="6.48962">
        <ele>943.330811</ele>
        <time>2015-12-28T15:01:28.000Z</time>
      </trkpt>
      <trkpt lat="43.83049" lon="6.48971">
        <ele>943.722168</ele>
        <time>2015-12-28T15:01:33.000Z</time>
      </trkpt>
      <trkpt lat="43.83052" lon="6.48981">
        <ele>944.474731</ele>
        <time>2015-12-28T15:01:38.000Z</time>
      </trkpt>
      <trkpt lat="43.83056" lon="6.48989">
        <ele>945.624756</ele>
        <time>2015-12-28T15:01:43.000Z</time>
      </trkpt>
      <trkpt lat="43.83058" lon="6.48998">
        <ele>946.506653</ele>
        <time>2015-12-28T15:01:48.000Z</time>
      </trkpt>
      <trkpt lat="43.83061" lon="6.49006">
        <ele>947.072327</ele>
        <time>2015-12-28T15:01:53.000Z</time>
      </trkpt>
      <trkpt lat="43.83067" lon="6.49017">
        <ele>945.759827</ele>
        <time>2015-12-28T15:01:58.000Z</time>
      </trkpt>
      <trkpt lat="43.83073" lon="6.4903">
        <ele>945.478699</ele>
        <time>2015-12-28T15:02:03.000Z</time>
      </trkpt>
      <trkpt lat="43.83078" lon="6.49042">
        <ele>945.513916</ele>
        <time>2015-12-28T15:02:08.000Z</time>
      </trkpt>
      <trkpt lat="43.83082" lon="6.49054">
        <ele>946.045288</ele>
        <time>2015-12-28T15:02:13.000Z</time>
      </trkpt>
      <trkpt lat="43.83086" lon="6.49064">
        <ele>946.002258</ele>
        <time>2015-12-28T15:02:18.000Z</time>
      </trkpt>
      <trkpt lat="43.83089" lon="6.49075">
        <ele>946.518616</ele>
        <time>2015-12-28T15:02:23.000Z</time>
      </trkpt>
      <trkpt lat="43.83091" lon="6.49082">
        <ele>946.416077</ele>
        <time>2015-12-28T15:02:28.000Z</time>
      </trkpt>
      <trkpt lat="43.83091" lon="6.49081">
        <ele>946.34137</ele>
        <time>2015-12-28T15:02:33.000Z</time>
      </trkpt>
      <trkpt lat="43.83091" lon="6.49081">
        <ele>946.348633</ele>
        <time>2015-12-28T15:02:38.000Z</time>
      </trkpt>
      <trkpt lat="43.8309" lon="6.4908">
        <ele>946.096191</ele>
        <time>2015-12-28T15:02:43.000Z</time>
      </trkpt>
      <trkpt lat="43.8309" lon="6.4908">
        <ele>945.889404</ele>
        <time>2015-12-28T15:02:48.000Z</time>
      </trkpt>
      <trkpt lat="43.8309" lon="6.49079">
        <ele>945.669739</ele>
        <time>2015-12-28T15:02:53.000Z</time>
      </trkpt>
      <trkpt lat="43.8309" lon="6.49079">
        <ele>945.65094</ele>
        <time>2015-12-28T15:02:58.000Z</time>
      </trkpt>
      <trkpt lat="43.8309" lon="6.49079">
        <ele>945.647034</ele>
        <time>2015-12-28T15:03:03.000Z</time>
      </trkpt>
      <trkpt lat="43.8309" lon="6.49079">
        <ele>945.651184</ele>
        <time>2015-12-28T15:03:08.000Z</time>
      </trkpt>
      <trkpt lat="43.8309" lon="6.49079">
        <ele>945.648071</ele>
        <time>2015-12-28T15:03:13.000Z</time>
      </trkpt>
      <trkpt lat="43.8309" lon="6.49079">
        <ele>945.658508</ele>
        <time>2015-12-28T15:03:18.000Z</time>
      </trkpt>
      <trkpt lat="43.83089" lon="6.49078">
        <ele>945.695618</ele>
        <time>2015-12-28T15:03:23.000Z</time>
      </trkpt>
      <trkpt lat="43.83089" lon="6.49078">
        <ele>945.690125</ele>
        <time>2015-12-28T15:03:28.000Z</time>
      </trkpt>
      <trkpt lat="43.83089" lon="6.49078">
        <ele>945.690247</ele>
        <time>2015-12-28T15:03:33.000Z</time>
      </trkpt>
      <trkpt lat="43.83089" lon="6.49078">
        <ele>945.695679</ele>
        <time>2015-12-28T15:03:38.000Z</time>
      </trkpt>
      <trkpt lat="43.83089" lon="6.49078">
        <ele>945.698486</ele>
        <time>2015-12-28T15:03:43.000Z</time>
      </trkpt>
      <trkpt lat="43.83089" lon="6.49078">
        <ele>945.711182</ele>
        <time>2015-12-28T15:03:48.000Z</time>
      </trkpt>
      <trkpt lat="43.83089" lon="6.49078">
        <ele>945.719788</ele>
        <time>2015-12-28T15:03:53.000Z</time>
      </trkpt>
      <trkpt lat="43.83089" lon="6.49078">
        <ele>945.717773</ele>
        <time>2015-12-28T15:03:58.000Z</time>
      </trkpt>
      <trkpt lat="43.83089" lon="6.49078">
        <ele>945.71344</ele>
        <time>2015-12-28T15:04:03.000Z</time>
      </trkpt>
      <trkpt lat="43.83089" lon="6.49078">
        <ele>945.701965</ele>
        <time>2015-12-28T15:04:08.000Z</time>
      </trkpt>
      <trkpt lat="43.83089" lon="6.49078">
        <ele>945.718262</ele>
        <time>2015-12-28T15:04:13.000Z</time>
      </trkpt>
      <trkpt lat="43.83089" lon="6.49078">
        <ele>945.715393</ele>
        <time>2015-12-28T15:04:18.000Z</time>
      </trkpt>
      <trkpt lat="43.83089" lon="6.49078">
        <ele>945.721985</ele>
        <time>2015-12-28T15:04:23.000Z</time>
      </trkpt>
      <trkpt lat="43.83089" lon="6.49078">
        <ele>945.716125</ele>
        <time>2015-12-28T15:04:28.000Z</time>
      </trkpt>
      <trkpt lat="43.83089" lon="6.49078">
        <ele>945.726013</ele>
        <time>2015-12-28T15:04:33.000Z</time>
      </trkpt>
      <trkpt lat="43.83089" lon="6.49078">
        <ele>945.73175</ele>
        <time>2015-12-28T15:04:38.000Z</time>
      </trkpt>
      <trkpt lat="43.83089" lon="6.49078">
        <ele>945.737183</ele>
        <time>2015-12-28T15:04:43.000Z</time>
      </trkpt>
      <trkpt lat="43.83089" lon="6.49078">
        <ele>945.742554</ele>
        <time>2015-12-28T15:04:48.000Z</time>
      </trkpt>
      <trkpt lat="43.83089" lon="6.49078">
        <ele>945.739685</ele>
        <time>2015-12-28T15:04:53.000Z</time>
      </trkpt>
      <trkpt lat="43.83089" lon="6.49078">
        <ele>945.737732</ele>
        <time>2015-12-28T15:04:58.000Z</time>
      </trkpt>
      <trkpt lat="43.83089" lon="6.49078">
        <ele>945.733521</ele>
        <time>2015-12-28T15:05:03.000Z</time>
      </trkpt>
      <trkpt lat="43.83089" lon="6.49078">
        <ele>945.733276</ele>
        <time>2015-12-28T15:05:08.000Z</time>
      </trkpt>
      <trkpt lat="43.83089" lon="6.49078">
        <ele>945.739746</ele>
        <time>2015-12-28T15:05:13.000Z</time>
      </trkpt>
      <trkpt lat="43.83089" lon="6.49078">
        <ele>945.750061</ele>
        <time>2015-12-28T15:05:18.000Z</time>
      </trkpt>
      <trkpt lat="43.83089" lon="6.49078">
        <ele>945.758606</ele>
        <time>2015-12-28T15:05:23.000Z</time>
      </trkpt>
      <trkpt lat="43.83089" lon="6.49078">
        <ele>945.767334</ele>
        <time>2015-12-28T15:05:28.000Z</time>
      </trkpt>
      <trkpt lat="43.83089" lon="6.49078">
        <ele>945.789185</ele>
        <time>2015-12-28T15:05:33.000Z</time>
      </trkpt>
      <trkpt lat="43.83089" lon="6.49078">
        <ele>945.801453</ele>
        <time>2015-12-28T15:05:38.000Z</time>
      </trkpt>
      <trkpt lat="43.83089" lon="6.49078">
        <ele>945.816711</ele>
        <time>2015-12-28T15:05:43.000Z</time>
      </trkpt>
      <trkpt lat="43.83089" lon="6.49078">
        <ele>945.827759</ele>
        <time>2015-12-28T15:05:48.000Z</time>
      </trkpt>
      <trkpt lat="43.83089" lon="6.49078">
        <ele>945.840027</ele>
        <time>2015-12-28T15:05:53.000Z</time>
      </trkpt>
      <trkpt lat="43.83089" lon="6.49078">
        <ele>945.85022</ele>
        <time>2015-12-28T15:05:58.000Z</time>
      </trkpt>
      <trkpt lat="43.83089" lon="6.49078">
        <ele>945.850159</ele>
        <time>2015-12-28T15:06:03.000Z</time>
      </trkpt>
      <trkpt lat="43.83089" lon="6.49078">
        <ele>945.872253</ele>
        <time>2015-12-28T15:06:08.000Z</time>
      </trkpt>
      <trkpt lat="43.8309" lon="6.49081">
        <ele>945.161743</ele>
        <time>2015-12-28T15:06:13.000Z</time>
      </trkpt>
      <trkpt lat="43.83092" lon="6.49085">
        <ele>944.877686</ele>
        <time>2015-12-28T15:06:18.000Z</time>
      </trkpt>
      <trkpt lat="43.83098" lon="6.49097">
        <ele>944.53717</ele>
        <time>2015-12-28T15:06:23.000Z</time>
      </trkpt>
      <trkpt lat="43.83098" lon="6.49116">
        <ele>943.472046</ele>
        <time>2015-12-28T15:06:28.000Z</time>
      </trkpt>
      <trkpt lat="43.83096" lon="6.49131">
        <ele>943.624451</ele>
        <time>2015-12-28T15:06:33.000Z</time>
      </trkpt>
      <trkpt lat="43.83098" lon="6.49149">
        <ele>944.636414</ele>
        <time>2015-12-28T15:06:38.000Z</time>
      </trkpt>
      <trkpt lat="43.83111" lon="6.49158">
        <ele>945.643738</ele>
        <time>2015-12-28T15:06:43.000Z</time>
      </trkpt>
      <trkpt lat="43.83117" lon="6.49165">
        <ele>946.283752</ele>
        <time>2015-12-28T15:06:48.000Z</time>
      </trkpt>
      <trkpt lat="43.83118" lon="6.49169">
        <ele>946.16095</ele>
        <time>2015-12-28T15:06:53.000Z</time>
      </trkpt>
      <trkpt lat="43.83118" lon="6.49169">
        <ele>946.198792</ele>
        <time>2015-12-28T15:06:58.000Z</time>
      </trkpt>
      <trkpt lat="43.83119" lon="6.49169">
        <ele>946.201111</ele>
        <time>2015-12-28T15:07:03.000Z</time>
      </trkpt>
      <trkpt lat="43.83119" lon="6.49169">
        <ele>946.187622</ele>
        <time>2015-12-28T15:07:08.000Z</time>
      </trkpt>
      <trkpt lat="43.83119" lon="6.49169">
        <ele>946.182556</ele>
        <time>2015-12-28T15:07:13.000Z</time>
      </trkpt>
      <trkpt lat="43.83119" lon="6.49169">
        <ele>946.171692</ele>
        <time>2015-12-28T15:07:18.000Z</time>
      </trkpt>
      <trkpt lat="43.83119" lon="6.49169">
        <ele>946.147522</ele>
        <time>2015-12-28T15:07:23.000Z</time>
      </trkpt>
      <trkpt lat="43.83119" lon="6.49169">
        <ele>946.131958</ele>
        <time>2015-12-28T15:07:28.000Z</time>
      </trkpt>
      <trkpt lat="43.83119" lon="6.49169">
        <ele>946.143738</ele>
        <time>2015-12-28T15:07:33.000Z</time>
      </trkpt>
      <trkpt lat="43.83119" lon="6.49169">
        <ele>946.150574</ele>
        <time>2015-12-28T15:07:38.000Z</time>
      </trkpt>
      <trkpt lat="43.83119" lon="6.49169">
        <ele>946.149536</ele>
        <time>2015-12-28T15:07:43.000Z</time>
      </trkpt>
      <trkpt lat="43.83119" lon="6.49169">
        <ele>946.140442</ele>
        <time>2015-12-28T15:07:48.000Z</time>
      </trkpt>
      <trkpt lat="43.83119" lon="6.49169">
        <ele>946.14679</ele>
        <time>2015-12-28T15:07:53.000Z</time>
      </trkpt>
      <trkpt lat="43.83121" lon="6.49178">
        <ele>945.090637</ele>
        <time>2015-12-28T15:07:58.000Z</time>
      </trkpt>
      <trkpt lat="43.83121" lon="6.49183">
        <ele>943.933044</ele>
        <time>2015-12-28T15:08:03.000Z</time>
      </trkpt>
      <trkpt lat="43.83125" lon="6.49182">
        <ele>942.577026</ele>
        <time>2015-12-28T15:08:08.000Z</time>
      </trkpt>
      <trkpt lat="43.83126" lon="6.49184">
        <ele>941.575073</ele>
        <time>2015-12-28T15:08:13.000Z</time>
      </trkpt>
      <trkpt lat="43.8313" lon="6.49199">
        <ele>938.381165</ele>
        <time>2015-12-28T15:08:18.000Z</time>
      </trkpt>
      <trkpt lat="43.83133" lon="6.49205">
        <ele>936.406189</ele>
        <time>2015-12-28T15:08:23.000Z</time>
      </trkpt>
      <trkpt lat="43.83134" lon="6.49198">
        <ele>935.004639</ele>
        <time>2015-12-28T15:08:28.000Z</time>
      </trkpt>
      <trkpt lat="43.83136" lon="6.49187">
        <ele>932.674805</ele>
        <time>2015-12-28T15:08:33.000Z</time>
      </trkpt>
      <trkpt lat="43.83137" lon="6.49188">
        <ele>932.047546</ele>
        <time>2015-12-28T15:08:38.000Z</time>
      </trkpt>
      <trkpt lat="43.83136" lon="6.49189">
        <ele>931.908936</ele>
        <time>2015-12-28T15:08:43.000Z</time>
      </trkpt>
      <trkpt lat="43.83135" lon="6.49192">
        <ele>932.849121</ele>
        <time>2015-12-28T15:08:48.000Z</time>
      </trkpt>
      <trkpt lat="43.83135" lon="6.49191">
        <ele>932.998657</ele>
        <time>2015-12-28T15:08:53.000Z</time>
      </trkpt>
      <trkpt lat="43.83135" lon="6.49191">
        <ele>933.093628</ele>
        <time>2015-12-28T15:08:58.000Z</time>
      </trkpt>
      <trkpt lat="43.83136" lon="6.49188">
        <ele>932.872559</ele>
        <time>2015-12-28T15:09:03.000Z</time>
      </trkpt>
      <trkpt lat="43.83137" lon="6.49189">
        <ele>932.66217</ele>
        <time>2015-12-28T15:09:08.000Z</time>
      </trkpt>
      <trkpt lat="43.83137" lon="6.4919">
        <ele>932.016296</ele>
        <time>2015-12-28T15:09:13.000Z</time>
      </trkpt>
      <trkpt lat="43.83141" lon="6.492">
        <ele>930.287109</ele>
        <time>2015-12-28T15:09:18.000Z</time>
      </trkpt>
      <trkpt lat="43.83144" lon="6.49214">
        <ele>926.927124</ele>
        <time>2015-12-28T15:09:23.000Z</time>
      </trkpt>
      <trkpt lat="43.83147" lon="6.49218">
        <ele>924.802734</ele>
        <time>2015-12-28T15:09:28.000Z</time>
      </trkpt>
      <trkpt lat="43.8315" lon="6.49216">
        <ele>923.041321</ele>
        <time>2015-12-28T15:09:33.000Z</time>
      </trkpt>
      <trkpt lat="43.83149" lon="6.49229">
        <ele>920.757813</ele>
        <time>2015-12-28T15:09:38.000Z</time>
      </trkpt>
      <trkpt lat="43.83158" lon="6.49247">
        <ele>915.86969</ele>
        <time>2015-12-28T15:09:43.000Z</time>
      </trkpt>
      <trkpt lat="43.83171" lon="6.49263">
        <ele>911.202942</ele>
        <time>2015-12-28T15:09:48.000Z</time>
      </trkpt>
      <trkpt lat="43.83178" lon="6.49278">
        <ele>907.866394</ele>
        <time>2015-12-28T15:09:53.000Z</time>
      </trkpt>
      <trkpt lat="43.83182" lon="6.49298">
        <ele>903.582458</ele>
        <time>2015-12-28T15:09:58.000Z</time>
      </trkpt>
      <trkpt lat="43.83194" lon="6.49321">
        <ele>900.235718</ele>
        <time>2015-12-28T15:10:03.000Z</time>
      </trkpt>
      <trkpt lat="43.83198" lon="6.49348">
        <ele>897.278687</ele>
        <time>2015-12-28T15:10:08.000Z</time>
      </trkpt>
      <trkpt lat="43.83206" lon="6.49376">
        <ele>894.240906</ele>
        <time>2015-12-28T15:10:13.000Z</time>
      </trkpt>
      <trkpt lat="43.83221" lon="6.49409">
        <ele>891.7052</ele>
        <time>2015-12-28T15:10:18.000Z</time>
      </trkpt>
      <trkpt lat="43.83239" lon="6.49439">
        <ele>887.580933</ele>
        <time>2015-12-28T15:10:23.000Z</time>
      </trkpt>
      <trkpt lat="43.83252" lon="6.49471">
        <ele>882.765808</ele>
        <time>2015-12-28T15:10:28.000Z</time>
      </trkpt>
      <trkpt lat="43.83267" lon="6.49516">
        <ele>880.50708</ele>
        <time>2015-12-28T15:10:33.000Z</time>
      </trkpt>
      <trkpt lat="43.83283" lon="6.49551">
        <ele>881.008118</ele>
        <time>2015-12-28T15:10:38.000Z</time>
      </trkpt>
      <trkpt lat="43.83291" lon="6.49568">
        <ele>877.817261</ele>
        <time>2015-12-28T15:10:43.000Z</time>
      </trkpt>
      <trkpt lat="43.83301" lon="6.49582">
        <ele>872.37323</ele>
        <time>2015-12-28T15:10:48.000Z</time>
      </trkpt>
      <trkpt lat="43.83314" lon="6.49602">
        <ele>866.598083</ele>
        <time>2015-12-28T15:10:53.000Z</time>
      </trkpt>
      <trkpt lat="43.83329" lon="6.49634">
        <ele>860.297302</ele>
        <time>2015-12-28T15:10:58.000Z</time>
      </trkpt>
      <trkpt lat="43.83347" lon="6.49662">
        <ele>853.60614</ele>
        <time>2015-12-28T15:11:03.000Z</time>
      </trkpt>
      <trkpt lat="43.83363" lon="6.49696">
        <ele>847.075073</ele>
        <time>2015-12-28T15:11:08.000Z</time>
      </trkpt>
      <trkpt lat="43.83384" lon="6.49722">
        <ele>840.276917</ele>
        <time>2015-12-28T15:11:13.000Z</time>
      </trkpt>
      <trkpt lat="43.83403" lon="6.49755">
        <ele>833.392944</ele>
        <time>2015-12-28T15:11:18.000Z</time>
      </trkpt>
      <trkpt lat="43.83422" lon="6.49792">
        <ele>825.141052</ele>
        <time>2015-12-28T15:11:23.000Z</time>
      </trkpt>
      <trkpt lat="43.83444" lon="6.49827">
        <ele>817.242676</ele>
        <time>2015-12-28T15:11:28.000Z</time>
      </trkpt>
      <trkpt lat="43.83456" lon="6.49853">
        <ele>811.503723</ele>
        <time>2015-12-28T15:11:33.000Z</time>
      </trkpt>
      <trkpt lat="43.83463" lon="6.49865">
        <ele>808.351257</ele>
        <time>2015-12-28T15:11:38.000Z</time>
      </trkpt>
      <trkpt lat="43.83468" lon="6.49851">
        <ele>805.16864</ele>
        <time>2015-12-28T15:11:43.000Z</time>
      </trkpt>
      <trkpt lat="43.83471" lon="6.49848">
        <ele>803.788208</ele>
        <time>2015-12-28T15:11:48.000Z</time>
      </trkpt>
      <trkpt lat="43.83472" lon="6.4985">
        <ele>803.322937</ele>
        <time>2015-12-28T15:11:53.000Z</time>
      </trkpt>
      <trkpt lat="43.83472" lon="6.4985">
        <ele>803.437988</ele>
        <time>2015-12-28T15:11:58.000Z</time>
      </trkpt>
      <trkpt lat="43.83473" lon="6.49851">
        <ele>803.38678</ele>
        <time>2015-12-28T15:12:03.000Z</time>
      </trkpt>
      <trkpt lat="43.83473" lon="6.49851">
        <ele>803.397705</ele>
        <time>2015-12-28T15:12:08.000Z</time>
      </trkpt>
      <trkpt lat="43.83475" lon="6.49858">
        <ele>802.258667</ele>
        <time>2015-12-28T15:12:13.000Z</time>
      </trkpt>
      <trkpt lat="43.83479" lon="6.49868">
        <ele>799.308838</ele>
        <time>2015-12-28T15:12:18.000Z</time>
      </trkpt>
      <trkpt lat="43.83484" lon="6.49882">
        <ele>795.72821</ele>
        <time>2015-12-28T15:12:23.000Z</time>
      </trkpt>
      <trkpt lat="43.83487" lon="6.499">
        <ele>792.918152</ele>
        <time>2015-12-28T15:12:28.000Z</time>
      </trkpt>
      <trkpt lat="43.83489" lon="6.49911">
        <ele>790.990173</ele>
        <time>2015-12-28T15:12:33.000Z</time>
      </trkpt>
      <trkpt lat="43.83493" lon="6.4991">
        <ele>789.112854</ele>
        <time>2015-12-28T15:12:38.000Z</time>
      </trkpt>
      <trkpt lat="43.83497" lon="6.49892">
        <ele>787.634827</ele>
        <time>2015-12-28T15:12:43.000Z</time>
      </trkpt>
      <trkpt lat="43.83501" lon="6.49867">
        <ele>786.201172</ele>
        <time>2015-12-28T15:12:48.000Z</time>
      </trkpt>
      <trkpt lat="43.83506" lon="6.49838">
        <ele>784.698303</ele>
        <time>2015-12-28T15:12:53.000Z</time>
      </trkpt>
      <trkpt lat="43.83512" lon="6.49804">
        <ele>782.206543</ele>
        <time>2015-12-28T15:12:58.000Z</time>
      </trkpt>
      <trkpt lat="43.83514" lon="6.49808">
        <ele>781.26239</ele>
        <time>2015-12-28T15:13:03.000Z</time>
      </trkpt>
      <trkpt lat="43.83516" lon="6.4983">
        <ele>778.213623</ele>
        <time>2015-12-28T15:13:08.000Z</time>
      </trkpt>
      <trkpt lat="43.83515" lon="6.4984">
        <ele>776.671326</ele>
        <time>2015-12-28T15:13:13.000Z</time>
      </trkpt>
      <trkpt lat="43.83515" lon="6.4984">
        <ele>776.640381</ele>
        <time>2015-12-28T15:13:18.000Z</time>
      </trkpt>
      <trkpt lat="43.83515" lon="6.4984">
        <ele>776.588135</ele>
        <time>2015-12-28T15:13:23.000Z</time>
      </trkpt>
      <trkpt lat="43.83515" lon="6.4984">
        <ele>776.603271</ele>
        <time>2015-12-28T15:13:28.000Z</time>
      </trkpt>
      <trkpt lat="43.83516" lon="6.49843">
        <ele>776.265625</ele>
        <time>2015-12-28T15:13:33.000Z</time>
      </trkpt>
      <trkpt lat="43.83518" lon="6.49871">
        <ele>772.511353</ele>
        <time>2015-12-28T15:13:38.000Z</time>
      </trkpt>
      <trkpt lat="43.83524" lon="6.49911">
        <ele>768.86792</ele>
        <time>2015-12-28T15:13:43.000Z</time>
      </trkpt>
      <trkpt lat="43.8353" lon="6.49954">
        <ele>766.907898</ele>
        <time>2015-12-28T15:13:48.000Z</time>
      </trkpt>
      <trkpt lat="43.83544" lon="6.49973">
        <ele>765.094116</ele>
        <time>2015-12-28T15:13:53.000Z</time>
      </trkpt>
      <trkpt lat="43.83553" lon="6.49975">
        <ele>763.970825</ele>
        <time>2015-12-28T15:13:58.000Z</time>
      </trkpt>
      <trkpt lat="43.83554" lon="6.49977">
        <ele>765.543701</ele>
        <time>2015-12-28T15:14:03.000Z</time>
      </trkpt>
      <trkpt lat="43.83555" lon="6.49977">
        <ele>766.759888</ele>
        <time>2015-12-28T15:14:08.000Z</time>
      </trkpt>
      <trkpt lat="43.83555" lon="6.49977">
        <ele>766.818115</ele>
        <time>2015-12-28T15:14:13.000Z</time>
      </trkpt>
      <trkpt lat="43.83556" lon="6.49981">
        <ele>766.214966</ele>
        <time>2015-12-28T15:14:18.000Z</time>
      </trkpt>
      <trkpt lat="43.83559" lon="6.49987">
        <ele>765.913391</ele>
        <time>2015-12-28T15:14:23.000Z</time>
      </trkpt>
      <trkpt lat="43.83563" lon="6.49988">
        <ele>765.765076</ele>
        <time>2015-12-28T15:14:28.000Z</time>
      </trkpt>
      <trkpt lat="43.83566" lon="6.49988">
        <ele>766.042114</ele>
        <time>2015-12-28T15:14:33.000Z</time>
      </trkpt>
      <trkpt lat="43.8357" lon="6.4999">
        <ele>766.849731</ele>
        <time>2015-12-28T15:14:38.000Z</time>
      </trkpt>
      <trkpt lat="43.83575" lon="6.49993">
        <ele>766.809082</ele>
        <time>2015-12-28T15:14:43.000Z</time>
      </trkpt>
      <trkpt lat="43.83579" lon="6.49994">
        <ele>767.042053</ele>
        <time>2015-12-28T15:14:48.000Z</time>
      </trkpt>
      <trkpt lat="43.83581" lon="6.49993">
        <ele>768.035095</ele>
        <time>2015-12-28T15:14:53.000Z</time>
      </trkpt>
      <trkpt lat="43.83581" lon="6.49992">
        <ele>768.20166</ele>
        <time>2015-12-28T15:14:58.000Z</time>
      </trkpt>
      <trkpt lat="43.8358" lon="6.49992">
        <ele>767.79187</ele>
        <time>2015-12-28T15:15:03.000Z</time>
      </trkpt>
      <trkpt lat="43.83577" lon="6.49994">
        <ele>769.579651</ele>
        <time>2015-12-28T15:15:08.000Z</time>
      </trkpt>
      <trkpt lat="43.83573" lon="6.49993">
        <ele>770.863159</ele>
        <time>2015-12-28T15:15:13.000Z</time>
      </trkpt>
      <trkpt lat="43.8357" lon="6.49991">
        <ele>770.271179</ele>
        <time>2015-12-28T15:15:18.000Z</time>
      </trkpt>
      <trkpt lat="43.83568" lon="6.49991">
        <ele>769.809814</ele>
        <time>2015-12-28T15:15:23.000Z</time>
      </trkpt>
      <trkpt lat="43.83568" lon="6.49991">
        <ele>769.852783</ele>
        <time>2015-12-28T15:15:28.000Z</time>
      </trkpt>
      <trkpt lat="43.83568" lon="6.49992">
        <ele>769.985535</ele>
        <time>2015-12-28T15:15:33.000Z</time>
      </trkpt>
      <trkpt lat="43.83569" lon="6.49992">
        <ele>769.660278</ele>
        <time>2015-12-28T15:15:38.000Z</time>
      </trkpt>
      <trkpt lat="43.83568" lon="6.49993">
        <ele>769.434509</ele>
        <time>2015-12-28T15:15:43.000Z</time>
      </trkpt>
      <trkpt lat="43.83568" lon="6.49993">
        <ele>769.45575</ele>
        <time>2015-12-28T15:15:48.000Z</time>
      </trkpt>
      <trkpt lat="43.83568" lon="6.49993">
        <ele>769.437622</ele>
        <time>2015-12-28T15:15:53.000Z</time>
      </trkpt>
      <trkpt lat="43.83568" lon="6.49993">
        <ele>769.438232</ele>
        <time>2015-12-28T15:15:58.000Z</time>
      </trkpt>
      <trkpt lat="43.83568" lon="6.49993">
        <ele>769.412415</ele>
        <time>2015-12-28T15:16:03.000Z</time>
      </trkpt>
      <trkpt lat="43.8357" lon="6.49994">
        <ele>769.997314</ele>
        <time>2015-12-28T15:16:08.000Z</time>
      </trkpt>
      <trkpt lat="43.83575" lon="6.49995">
        <ele>768.563599</ele>
        <time>2015-12-28T15:16:13.000Z</time>
      </trkpt>
      <trkpt lat="43.83579" lon="6.49995">
        <ele>766.684937</ele>
        <time>2015-12-28T15:16:18.000Z</time>
      </trkpt>
      <trkpt lat="43.83579" lon="6.49996">
        <ele>767.444031</ele>
        <time>2015-12-28T15:16:23.000Z</time>
      </trkpt>
      <trkpt lat="43.8358" lon="6.4999">
        <ele>767.43988</ele>
        <time>2015-12-28T15:16:28.000Z</time>
      </trkpt>
      <trkpt lat="43.83582" lon="6.49982">
        <ele>768.632324</ele>
        <time>2015-12-28T15:16:33.000Z</time>
      </trkpt>
      <trkpt lat="43.83584" lon="6.49974">
        <ele>769.798035</ele>
        <time>2015-12-28T15:16:38.000Z</time>
      </trkpt>
      <trkpt lat="43.83586" lon="6.49968">
        <ele>770.885742</ele>
        <time>2015-12-28T15:16:43.000Z</time>
      </trkpt>
      <trkpt lat="43.83588" lon="6.49961">
        <ele>771.863342</ele>
        <time>2015-12-28T15:16:48.000Z</time>
      </trkpt>
      <trkpt lat="43.83589" lon="6.49955">
        <ele>772.974121</ele>
        <time>2015-12-28T15:16:53.000Z</time>
      </trkpt>
      <trkpt lat="43.8359" lon="6.49951">
        <ele>773.778809</ele>
        <time>2015-12-28T15:16:58.000Z</time>
      </trkpt>
      <trkpt lat="43.83591" lon="6.49947">
        <ele>774.506531</ele>
        <time>2015-12-28T15:17:03.000Z</time>
      </trkpt>
      <trkpt lat="43.83591" lon="6.49947">
        <ele>774.705139</ele>
        <time>2015-12-28T15:17:08.000Z</time>
      </trkpt>
      <trkpt lat="43.83592" lon="6.49947">
        <ele>774.778137</ele>
        <time>2015-12-28T15:17:13.000Z</time>
      </trkpt>
      <trkpt lat="43.83592" lon="6.49941">
        <ele>775.878174</ele>
        <time>2015-12-28T15:17:18.000Z</time>
      </trkpt>
      <trkpt lat="43.83593" lon="6.49936">
        <ele>776.679016</ele>
        <time>2015-12-28T15:17:23.000Z</time>
      </trkpt>
      <trkpt lat="43.83594" lon="6.49931">
        <ele>777.535034</ele>
        <time>2015-12-28T15:17:28.000Z</time>
      </trkpt>
      <trkpt lat="43.83595" lon="6.49928">
        <ele>778.651794</ele>
        <time>2015-12-28T15:17:33.000Z</time>
      </trkpt>
      <trkpt lat="43.83595" lon="6.49929">
        <ele>778.718506</ele>
        <time>2015-12-28T15:17:38.000Z</time>
      </trkpt>
      <trkpt lat="43.83594" lon="6.49929">
        <ele>778.82196</ele>
        <time>2015-12-28T15:17:43.000Z</time>
      </trkpt>
      <trkpt lat="43.83594" lon="6.49929">
        <ele>778.790894</ele>
        <time>2015-12-28T15:17:48.000Z</time>
      </trkpt>
      <trkpt lat="43.83594" lon="6.49929">
        <ele>778.773987</ele>
        <time>2015-12-28T15:17:53.000Z</time>
      </trkpt>
      <trkpt lat="43.83594" lon="6.49929">
        <ele>778.758179</ele>
        <time>2015-12-28T15:17:58.000Z</time>
      </trkpt>
      <trkpt lat="43.83594" lon="6.49929">
        <ele>778.764954</ele>
        <time>2015-12-28T15:18:03.000Z</time>
      </trkpt>
      <trkpt lat="43.83594" lon="6.49929">
        <ele>778.764587</ele>
        <time>2015-12-28T15:18:08.000Z</time>
      </trkpt>
      <trkpt lat="43.83594" lon="6.49929">
        <ele>778.778809</ele>
        <time>2015-12-28T15:18:13.000Z</time>
      </trkpt>
      <trkpt lat="43.83594" lon="6.49929">
        <ele>778.7948</ele>
        <time>2015-12-28T15:18:18.000Z</time>
      </trkpt>
      <trkpt lat="43.83594" lon="6.49929">
        <ele>778.805603</ele>
        <time>2015-12-28T15:18:23.000Z</time>
      </trkpt>
      <trkpt lat="43.83594" lon="6.49929">
        <ele>778.810913</ele>
        <time>2015-12-28T15:18:28.000Z</time>
      </trkpt>
      <trkpt lat="43.83594" lon="6.49929">
        <ele>778.798218</ele>
        <time>2015-12-28T15:18:33.000Z</time>
      </trkpt>
      <trkpt lat="43.83594" lon="6.49929">
        <ele>778.799194</ele>
        <time>2015-12-28T15:18:38.000Z</time>
      </trkpt>
      <trkpt lat="43.83594" lon="6.49929">
        <ele>778.810852</ele>
        <time>2015-12-28T15:18:43.000Z</time>
      </trkpt>
      <trkpt lat="43.83594" lon="6.49928">
        <ele>779.085876</ele>
        <time>2015-12-28T15:18:48.000Z</time>
      </trkpt>
      <trkpt lat="43.83594" lon="6.49922">
        <ele>780.773071</ele>
        <time>2015-12-28T15:18:53.000Z</time>
      </trkpt>
      <trkpt lat="43.83594" lon="6.49914">
        <ele>782.013367</ele>
        <time>2015-12-28T15:18:58.000Z</time>
      </trkpt>
      <trkpt lat="43.83594" lon="6.49907">
        <ele>782.914001</ele>
        <time>2015-12-28T15:19:03.000Z</time>
      </trkpt>
      <trkpt lat="43.83596" lon="6.499">
        <ele>784.008545</ele>
        <time>2015-12-28T15:19:08.000Z</time>
      </trkpt>
      <trkpt lat="43.83598" lon="6.49901">
        <ele>785.275024</ele>
        <time>2015-12-28T15:19:13.000Z</time>
      </trkpt>
      <trkpt lat="43.83599" lon="6.49908">
        <ele>786.128235</ele>
        <time>2015-12-28T15:19:18.000Z</time>
      </trkpt>
      <trkpt lat="43.836" lon="6.49915">
        <ele>786.60675</ele>
        <time>2015-12-28T15:19:23.000Z</time>
      </trkpt>
      <trkpt lat="43.83602" lon="6.49922">
        <ele>786.729126</ele>
        <time>2015-12-28T15:19:28.000Z</time>
      </trkpt>
      <trkpt lat="43.83604" lon="6.49929">
        <ele>786.972229</ele>
        <time>2015-12-28T15:19:33.000Z</time>
      </trkpt>
      <trkpt lat="43.83608" lon="6.49935">
        <ele>787.14801</ele>
        <time>2015-12-28T15:19:38.000Z</time>
      </trkpt>
      <trkpt lat="43.83612" lon="6.49941">
        <ele>788.039734</ele>
        <time>2015-12-28T15:19:43.000Z</time>
      </trkpt>
      <trkpt lat="43.83616" lon="6.49947">
        <ele>789.174683</ele>
        <time>2015-12-28T15:19:48.000Z</time>
      </trkpt>
      <trkpt lat="43.83621" lon="6.49953">
        <ele>790.782593</ele>
        <time>2015-12-28T15:19:53.000Z</time>
      </trkpt>
      <trkpt lat="43.83621" lon="6.49955">
        <ele>791.974182</ele>
        <time>2015-12-28T15:19:58.000Z</time>
      </trkpt>
      <trkpt lat="43.83621" lon="6.49954">
        <ele>791.973206</ele>
        <time>2015-12-28T15:20:03.000Z</time>
      </trkpt>
      <trkpt lat="43.8362" lon="6.49954">
        <ele>792.527222</ele>
        <time>2015-12-28T15:20:08.000Z</time>
      </trkpt>
      <trkpt lat="43.8362" lon="6.49954">
        <ele>792.637695</ele>
        <time>2015-12-28T15:20:13.000Z</time>
      </trkpt>
      <trkpt lat="43.8362" lon="6.49953">
        <ele>792.675232</ele>
        <time>2015-12-28T15:20:18.000Z</time>
      </trkpt>
      <trkpt lat="43.83619" lon="6.49952">
        <ele>792.882019</ele>
        <time>2015-12-28T15:20:23.000Z</time>
      </trkpt>
      <trkpt lat="43.83619" lon="6.49953">
        <ele>792.919373</ele>
        <time>2015-12-28T15:20:28.000Z</time>
      </trkpt>
      <trkpt lat="43.83619" lon="6.49952">
        <ele>792.925903</ele>
        <time>2015-12-28T15:20:33.000Z</time>
      </trkpt>
      <trkpt lat="43.8362" lon="6.49956">
        <ele>792.600159</ele>
        <time>2015-12-28T15:20:38.000Z</time>
      </trkpt>
      <trkpt lat="43.83623" lon="6.49958">
        <ele>792.21106</ele>
        <time>2015-12-28T15:20:43.000Z</time>
      </trkpt>
      <trkpt lat="43.8363" lon="6.49963">
        <ele>791.193665</ele>
        <time>2015-12-28T15:20:48.000Z</time>
      </trkpt>
      <trkpt lat="43.83637" lon="6.49976">
        <ele>789.032227</ele>
        <time>2015-12-28T15:20:53.000Z</time>
      </trkpt>
      <trkpt lat="43.83643" lon="6.49988">
        <ele>789.209595</ele>
        <time>2015-12-28T15:20:58.000Z</time>
      </trkpt>
      <trkpt lat="43.83649" lon="6.5">
        <ele>789.948975</ele>
        <time>2015-12-28T15:21:03.000Z</time>
      </trkpt>
      <trkpt lat="43.8366" lon="6.50005">
        <ele>790.303162</ele>
        <time>2015-12-28T15:21:08.000Z</time>
      </trkpt>
      <trkpt lat="43.83669" lon="6.50008">
        <ele>791.522766</ele>
        <time>2015-12-28T15:21:13.000Z</time>
      </trkpt>
      <trkpt lat="43.83679" lon="6.50011">
        <ele>792.264038</ele>
        <time>2015-12-28T15:21:18.000Z</time>
      </trkpt>
      <trkpt lat="43.83689" lon="6.50015">
        <ele>790.872375</ele>
        <time>2015-12-28T15:21:23.000Z</time>
      </trkpt>
      <trkpt lat="43.83699" lon="6.50023">
        <ele>790.285645</ele>
        <time>2015-12-28T15:21:28.000Z</time>
      </trkpt>
      <trkpt lat="43.83716" lon="6.50018">
        <ele>789.436646</ele>
        <time>2015-12-28T15:21:33.000Z</time>
      </trkpt>
      <trkpt lat="43.83738" lon="6.50017">
        <ele>790.094727</ele>
        <time>2015-12-28T15:21:38.000Z</time>
      </trkpt>
      <trkpt lat="43.83762" lon="6.50034">
        <ele>788.730652</ele>
        <time>2015-12-28T15:21:43.000Z</time>
      </trkpt>
      <trkpt lat="43.83783" lon="6.50067">
        <ele>787.661499</ele>
        <time>2015-12-28T15:21:48.000Z</time>
      </trkpt>
      <trkpt lat="43.83817" lon="6.50066">
        <ele>786.011169</ele>
        <time>2015-12-28T15:21:53.000Z</time>
      </trkpt>
      <trkpt lat="43.83852" lon="6.50046">
        <ele>783.696594</ele>
        <time>2015-12-28T15:21:58.000Z</time>
      </trkpt>
      <trkpt lat="43.83886" lon="6.50051">
        <ele>781.679688</ele>
        <time>2015-12-28T15:22:03.000Z</time>
      </trkpt>
      <trkpt lat="43.83903" lon="6.50091">
        <ele>782.352722</ele>
        <time>2015-12-28T15:22:08.000Z</time>
      </trkpt>
      <trkpt lat="43.83918" lon="6.50126">
        <ele>781.404968</ele>
        <time>2015-12-28T15:22:13.000Z</time>
      </trkpt>
      <trkpt lat="43.83917" lon="6.5016">
        <ele>780.716187</ele>
        <time>2015-12-28T15:22:18.000Z</time>
      </trkpt>
      <trkpt lat="43.83903" lon="6.50193">
        <ele>780.719543</ele>
        <time>2015-12-28T15:22:23.000Z</time>
      </trkpt>
      <trkpt lat="43.83894" lon="6.50235">
        <ele>780.571106</ele>
        <time>2015-12-28T15:22:28.000Z</time>
      </trkpt>
      <trkpt lat="43.83894" lon="6.50271">
        <ele>780.673218</ele>
        <time>2015-12-28T15:22:33.000Z</time>
      </trkpt>
      <trkpt lat="43.83914" lon="6.50273">
        <ele>780.540649</ele>
        <time>2015-12-28T15:22:38.000Z</time>
      </trkpt>
      <trkpt lat="43.83931" lon="6.50247">
        <ele>780.174438</ele>
        <time>2015-12-28T15:22:43.000Z</time>
      </trkpt>
      <trkpt lat="43.83954" lon="6.50242">
        <ele>781.152344</ele>
        <time>2015-12-28T15:22:48.000Z</time>
      </trkpt>
      <trkpt lat="43.83977" lon="6.5026">
        <ele>781.140442</ele>
        <time>2015-12-28T15:22:53.000Z</time>
      </trkpt>
      <trkpt lat="43.83999" lon="6.50285">
        <ele>780.449097</ele>
        <time>2015-12-28T15:22:58.000Z</time>
      </trkpt>
      <trkpt lat="43.84021" lon="6.50314">
        <ele>780.157227</ele>
        <time>2015-12-28T15:23:03.000Z</time>
      </trkpt>
      <trkpt lat="43.84044" lon="6.50343">
        <ele>779.25415</ele>
        <time>2015-12-28T15:23:08.000Z</time>
      </trkpt>
      <trkpt lat="43.84058" lon="6.50381">
        <ele>778.203979</ele>
        <time>2015-12-28T15:23:13.000Z</time>
      </trkpt>
      <trkpt lat="43.84071" lon="6.50422">
        <ele>777.036987</ele>
        <time>2015-12-28T15:23:18.000Z</time>
      </trkpt>
      <trkpt lat="43.84086" lon="6.50463">
        <ele>776.506775</ele>
        <time>2015-12-28T15:23:23.000Z</time>
      </trkpt>
      <trkpt lat="43.84101" lon="6.505">
        <ele>775.981323</ele>
        <time>2015-12-28T15:23:28.000Z</time>
      </trkpt>
      <trkpt lat="43.841" lon="6.50542">
        <ele>774.358887</ele>
        <time>2015-12-28T15:23:33.000Z</time>
      </trkpt>
      <trkpt lat="43.84103" lon="6.50589">
        <ele>773.536499</ele>
        <time>2015-12-28T15:23:38.000Z</time>
      </trkpt>
      <trkpt lat="43.84126" lon="6.50617">
        <ele>774.048828</ele>
        <time>2015-12-28T15:23:43.000Z</time>
      </trkpt>
      <trkpt lat="43.84141" lon="6.5065">
        <ele>774.214783</ele>
        <time>2015-12-28T15:23:48.000Z</time>
      </trkpt>
      <trkpt lat="43.84155" lon="6.50686">
        <ele>773.867126</ele>
        <time>2015-12-28T15:23:53.000Z</time>
      </trkpt>
      <trkpt lat="43.8417" lon="6.50719">
        <ele>774.224182</ele>
        <time>2015-12-28T15:23:58.000Z</time>
      </trkpt>
      <trkpt lat="43.84179" lon="6.50757">
        <ele>774.035645</ele>
        <time>2015-12-28T15:24:03.000Z</time>
      </trkpt>
      <trkpt lat="43.84191" lon="6.50796">
        <ele>773.799927</ele>
        <time>2015-12-28T15:24:08.000Z</time>
      </trkpt>
      <trkpt lat="43.84206" lon="6.50831">
        <ele>773.605225</ele>
        <time>2015-12-28T15:24:13.000Z</time>
      </trkpt>
      <trkpt lat="43.84223" lon="6.50864">
        <ele>773.260315</ele>
        <time>2015-12-28T15:24:18.000Z</time>
      </trkpt>
      <trkpt lat="43.84248" lon="6.50887">
        <ele>772.459778</ele>
        <time>2015-12-28T15:24:23.000Z</time>
      </trkpt>
      <trkpt lat="43.84278" lon="6.509">
        <ele>772.094604</ele>
        <time>2015-12-28T15:24:28.000Z</time>
      </trkpt>
      <trkpt lat="43.84309" lon="6.50917">
        <ele>771.624023</ele>
        <time>2015-12-28T15:24:33.000Z</time>
      </trkpt>
      <trkpt lat="43.84337" lon="6.50939">
        <ele>771.727356</ele>
        <time>2015-12-28T15:24:38.000Z</time>
      </trkpt>
      <trkpt lat="43.84354" lon="6.50969">
        <ele>772.476318</ele>
        <time>2015-12-28T15:24:43.000Z</time>
      </trkpt>
      <trkpt lat="43.84363" lon="6.50989">
        <ele>774.189453</ele>
        <time>2015-12-28T15:24:48.000Z</time>
      </trkpt>
      <trkpt lat="43.84371" lon="6.51002">
        <ele>776.024292</ele>
        <time>2015-12-28T15:24:53.000Z</time>
      </trkpt>
      <trkpt lat="43.84379" lon="6.51016">
        <ele>775.794556</ele>
        <time>2015-12-28T15:24:58.000Z</time>
      </trkpt>
      <trkpt lat="43.84387" lon="6.5103">
        <ele>776.157654</ele>
        <time>2015-12-28T15:25:03.000Z</time>
      </trkpt>
      <trkpt lat="43.84393" lon="6.51046">
        <ele>775.63855</ele>
        <time>2015-12-28T15:25:08.000Z</time>
      </trkpt>
      <trkpt lat="43.84398" lon="6.51062">
        <ele>775.774902</ele>
        <time>2015-12-28T15:25:13.000Z</time>
      </trkpt>
      <trkpt lat="43.84403" lon="6.5108">
        <ele>776.154846</ele>
        <time>2015-12-28T15:25:18.000Z</time>
      </trkpt>
      <trkpt lat="43.84407" lon="6.51096">
        <ele>777.259155</ele>
        <time>2015-12-28T15:25:23.000Z</time>
      </trkpt>
      <trkpt lat="43.84411" lon="6.51115">
        <ele>777.91217</ele>
        <time>2015-12-28T15:25:28.000Z</time>
      </trkpt>
      <trkpt lat="43.84414" lon="6.51135">
        <ele>775.667358</ele>
        <time>2015-12-28T15:25:33.000Z</time>
      </trkpt>
      <trkpt lat="43.84418" lon="6.51155">
        <ele>776.104919</ele>
        <time>2015-12-28T15:25:38.000Z</time>
      </trkpt>
      <trkpt lat="43.84423" lon="6.51174">
        <ele>775.886292</ele>
        <time>2015-12-28T15:25:43.000Z</time>
      </trkpt>
      <trkpt lat="43.84427" lon="6.51194">
        <ele>775.64856</ele>
        <time>2015-12-28T15:25:48.000Z</time>
      </trkpt>
      <trkpt lat="43.84431" lon="6.51219">
        <ele>775.963928</ele>
        <time>2015-12-28T15:25:53.000Z</time>
      </trkpt>
      <trkpt lat="43.84437" lon="6.5124">
        <ele>776.764343</ele>
        <time>2015-12-28T15:25:58.000Z</time>
      </trkpt>
      <trkpt lat="43.84442" lon="6.51265">
        <ele>776.285889</ele>
        <time>2015-12-28T15:26:03.000Z</time>
      </trkpt>
      <trkpt lat="43.84449" lon="6.51297">
        <ele>775.756409</ele>
        <time>2015-12-28T15:26:08.000Z</time>
      </trkpt>
      <trkpt lat="43.84458" lon="6.51334">
        <ele>774.700867</ele>
        <time>2015-12-28T15:26:13.000Z</time>
      </trkpt>
      <trkpt lat="43.84469" lon="6.51369">
        <ele>774.683899</ele>
        <time>2015-12-28T15:26:18.000Z</time>
      </trkpt>
      <trkpt lat="43.84477" lon="6.51399">
        <ele>774.802063</ele>
        <time>2015-12-28T15:26:23.000Z</time>
      </trkpt>
      <trkpt lat="43.84495" lon="6.51421">
        <ele>773.043823</ele>
        <time>2015-12-28T15:26:28.000Z</time>
      </trkpt>
      <trkpt lat="43.84513" lon="6.51438">
        <ele>771.175598</ele>
        <time>2015-12-28T15:26:33.000Z</time>
      </trkpt>
      <trkpt lat="43.84523" lon="6.51435">
        <ele>770.596008</ele>
        <time>2015-12-28T15:26:38.000Z</time>
      </trkpt>
      <trkpt lat="43.84516" lon="6.51431">
        <ele>770.760193</ele>
        <time>2015-12-28T15:26:43.000Z</time>
      </trkpt>
      <trkpt lat="43.84521" lon="6.51439">
        <ele>770.681274</ele>
        <time>2015-12-28T15:26:48.000Z</time>
      </trkpt>
      <trkpt lat="43.84535" lon="6.5144">
        <ele>771.060913</ele>
        <time>2015-12-28T15:26:53.000Z</time>
      </trkpt>
      <trkpt lat="43.8454" lon="6.51446">
        <ele>771.170776</ele>
        <time>2015-12-28T15:26:58.000Z</time>
      </trkpt>
      <trkpt lat="43.84548" lon="6.5144">
        <ele>771.01355</ele>
        <time>2015-12-28T15:27:03.000Z</time>
      </trkpt>
      <trkpt lat="43.84562" lon="6.51426">
        <ele>770.530212</ele>
        <time>2015-12-28T15:27:08.000Z</time>
      </trkpt>
      <trkpt lat="43.84578" lon="6.51409">
        <ele>769.620483</ele>
        <time>2015-12-28T15:27:13.000Z</time>
      </trkpt>
      <trkpt lat="43.8459" lon="6.51428">
        <ele>769.396118</ele>
        <time>2015-12-28T15:27:18.000Z</time>
      </trkpt>
      <trkpt lat="43.84602" lon="6.5145">
        <ele>769.790894</ele>
        <time>2015-12-28T15:27:23.000Z</time>
      </trkpt>
      <trkpt lat="43.84609" lon="6.51472">
        <ele>770.199158</ele>
        <time>2015-12-28T15:27:28.000Z</time>
      </trkpt>
      <trkpt lat="43.84615" lon="6.51478">
        <ele>770.171265</ele>
        <time>2015-12-28T15:27:33.000Z</time>
      </trkpt>
      <trkpt lat="43.84614" lon="6.51477">
        <ele>770.200989</ele>
        <time>2015-12-28T15:27:38.000Z</time>
      </trkpt>
      <trkpt lat="43.84615" lon="6.51481">
        <ele>770.103027</ele>
        <time>2015-12-28T15:27:43.000Z</time>
      </trkpt>
      <trkpt lat="43.84615" lon="6.51482">
        <ele>770.082031</ele>
        <time>2015-12-28T15:27:48.000Z</time>
      </trkpt>
      <trkpt lat="43.84615" lon="6.51481">
        <ele>770.056458</ele>
        <time>2015-12-28T15:27:53.000Z</time>
      </trkpt>
      <trkpt lat="43.84615" lon="6.5148">
        <ele>769.739075</ele>
        <time>2015-12-28T15:27:58.000Z</time>
      </trkpt>
      <trkpt lat="43.84616" lon="6.5148">
        <ele>769.719788</ele>
        <time>2015-12-28T15:28:03.000Z</time>
      </trkpt>
      <trkpt lat="43.84616" lon="6.51479">
        <ele>769.750366</ele>
        <time>2015-12-28T15:28:08.000Z</time>
      </trkpt>
      <trkpt lat="43.84617" lon="6.51479">
        <ele>769.776428</ele>
        <time>2015-12-28T15:28:13.000Z</time>
      </trkpt>
      <trkpt lat="43.84616" lon="6.51479">
        <ele>769.75647</ele>
        <time>2015-12-28T15:28:18.000Z</time>
      </trkpt>
      <trkpt lat="43.84616" lon="6.51478">
        <ele>769.759583</ele>
        <time>2015-12-28T15:28:23.000Z</time>
      </trkpt>
      <trkpt lat="43.84615" lon="6.51479">
        <ele>769.744629</ele>
        <time>2015-12-28T15:28:28.000Z</time>
      </trkpt>
      <trkpt lat="43.84615" lon="6.51479">
        <ele>769.416809</ele>
        <time>2015-12-28T15:28:33.000Z</time>
      </trkpt>
      <trkpt lat="43.84615" lon="6.51479">
        <ele>769.036316</ele>
        <time>2015-12-28T15:28:38.000Z</time>
      </trkpt>
      <trkpt lat="43.84615" lon="6.51479">
        <ele>768.896851</ele>
        <time>2015-12-28T15:28:43.000Z</time>
      </trkpt>
      <trkpt lat="43.84615" lon="6.51479">
        <ele>768.806824</ele>
        <time>2015-12-28T15:28:48.000Z</time>
      </trkpt>
      <trkpt lat="43.84615" lon="6.51479">
        <ele>768.575928</ele>
        <time>2015-12-28T15:28:53.000Z</time>
      </trkpt>
      <trkpt lat="43.84614" lon="6.51479">
        <ele>768.719788</ele>
        <time>2015-12-28T15:28:58.000Z</time>
      </trkpt>
      <trkpt lat="43.84614" lon="6.51479">
        <ele>768.670227</ele>
        <time>2015-12-28T15:29:03.000Z</time>
      </trkpt>
      <trkpt lat="43.84614" lon="6.5148">
        <ele>768.648682</ele>
        <time>2015-12-28T15:29:08.000Z</time>
      </trkpt>
      <trkpt lat="43.84615" lon="6.51479">
        <ele>767.445129</ele>
        <time>2015-12-28T15:29:13.000Z</time>
      </trkpt>
      <trkpt lat="43.84615" lon="6.51479">
        <ele>767.429688</ele>
        <time>2015-12-28T15:29:18.000Z</time>
      </trkpt>
      <trkpt lat="43.84616" lon="6.51479">
        <ele>767.491028</ele>
        <time>2015-12-28T15:29:23.000Z</time>
      </trkpt>
    </trkseg>
  </trk>
</gpx>